<?xml version="1.0" encoding="UTF-8" standalone="no" ?>
<gpx xmlns="http://www.topografix.com/GPX/1/1" xmlns:xsi="http://www.w3.org/2001/XMLSchema-instance" xsi:schemaLocation="http://www.topografix.com/GPX/1/1 http://www.topografix.com/GPX/1/1/gpx.xsd" version="1.1" creator="VisuGPX - https://www.visugpx.com">
  <metadata>
    <name>trail 100 km ventoux</name>
    <desc><![CDATA[venasque - ventoux - gigondas]]></desc>
  </metadata>
  <trk>
    <name><![CDATA[--Venasque-- OR-5432065:TNVD 2016]]></name>
    <trkseg>
      <trkpt lat="44.00042" lon="5.14563">
        <ele>181</ele>
        <time>2015-11-13T11:52:43Z</time>
      </trkpt>
      <trkpt lat="43.9998" lon="5.14644">
        <ele>181</ele>
        <time>2015-11-13T11:54:43Z</time>
      </trkpt>
      <trkpt lat="43.99958" lon="5.1474">
        <ele>183</ele>
        <time>2015-11-13T11:56:43Z</time>
      </trkpt>
      <trkpt lat="43.99941" lon="5.14829">
        <ele>183</ele>
        <time>2015-11-13T11:58:43Z</time>
      </trkpt>
      <trkpt lat="43.99938" lon="5.14883">
        <ele>183</ele>
        <time>2015-11-13T12:00:43Z</time>
      </trkpt>
      <trkpt lat="43.99935" lon="5.14947">
        <ele>183</ele>
        <time>2015-11-13T12:02:43Z</time>
      </trkpt>
      <trkpt lat="43.99911" lon="5.14971">
        <ele>181</ele>
        <time>2015-11-13T12:04:43Z</time>
      </trkpt>
      <trkpt lat="43.99884" lon="5.15037">
        <ele>181</ele>
        <time>2015-11-13T12:06:43Z</time>
      </trkpt>
      <trkpt lat="43.99866" lon="5.15072">
        <ele>181</ele>
        <time>2015-11-13T12:08:43Z</time>
      </trkpt>
      <trkpt lat="43.99854" lon="5.15109">
        <ele>181</ele>
        <time>2015-11-13T12:10:43Z</time>
      </trkpt>
      <trkpt lat="43.99837" lon="5.15146">
        <ele>181</ele>
        <time>2015-11-13T12:12:43Z</time>
      </trkpt>
      <trkpt lat="43.99834" lon="5.15208">
        <ele>182</ele>
        <time>2015-11-13T12:14:43Z</time>
      </trkpt>
      <trkpt lat="43.99835" lon="5.15278">
        <ele>183</ele>
        <time>2015-11-13T12:16:43Z</time>
      </trkpt>
      <trkpt lat="43.99833" lon="5.15451">
        <ele>185</ele>
        <time>2015-11-13T12:18:43Z</time>
      </trkpt>
      <trkpt lat="43.99826" lon="5.15639">
        <ele>191</ele>
        <time>2015-11-13T12:20:43Z</time>
      </trkpt>
      <trkpt lat="43.99825" lon="5.15685">
        <ele>191</ele>
        <time>2015-11-13T12:22:43Z</time>
      </trkpt>
      <trkpt lat="43.99808" lon="5.15736">
        <ele>190</ele>
        <time>2015-11-13T12:24:43Z</time>
      </trkpt>
      <trkpt lat="43.99809" lon="5.15787">
        <ele>189</ele>
        <time>2015-11-13T12:26:43Z</time>
      </trkpt>
      <trkpt lat="43.99826" lon="5.15909">
        <ele>188</ele>
        <time>2015-11-13T12:28:43Z</time>
      </trkpt>
      <trkpt lat="43.99833" lon="5.15953">
        <ele>189</ele>
        <time>2015-11-13T12:30:43Z</time>
      </trkpt>
      <trkpt lat="43.99856" lon="5.15997">
        <ele>192</ele>
        <time>2015-11-13T12:32:43Z</time>
      </trkpt>
      <trkpt lat="43.99882" lon="5.16025">
        <ele>193</ele>
        <time>2015-11-13T12:34:43Z</time>
      </trkpt>
      <trkpt lat="43.99917" lon="5.16048">
        <ele>193</ele>
        <time>2015-11-13T12:36:43Z</time>
      </trkpt>
      <trkpt lat="43.99944" lon="5.16057">
        <ele>195</ele>
        <time>2015-11-13T12:38:43Z</time>
      </trkpt>
      <trkpt lat="43.99973" lon="5.16071">
        <ele>197</ele>
        <time>2015-11-13T12:40:43Z</time>
      </trkpt>
      <trkpt lat="43.99988" lon="5.16099">
        <ele>195</ele>
        <time>2015-11-13T12:42:43Z</time>
      </trkpt>
      <trkpt lat="43.99984" lon="5.16128">
        <ele>193</ele>
        <time>2015-11-13T12:44:43Z</time>
      </trkpt>
      <trkpt lat="43.99975" lon="5.16155">
        <ele>191</ele>
        <time>2015-11-13T12:46:43Z</time>
      </trkpt>
      <trkpt lat="43.99973" lon="5.1616">
        <ele>190</ele>
        <time>2015-11-13T12:48:43Z</time>
      </trkpt>
      <trkpt lat="43.99972" lon="5.16167">
        <ele>190</ele>
        <time>2015-11-13T12:50:43Z</time>
      </trkpt>
      <trkpt lat="43.99971" lon="5.1617">
        <ele>190</ele>
        <time>2015-11-13T12:52:43Z</time>
      </trkpt>
      <trkpt lat="43.99972" lon="5.16178">
        <ele>190</ele>
        <time>2015-11-13T12:54:43Z</time>
      </trkpt>
      <trkpt lat="43.99973" lon="5.16185">
        <ele>191</ele>
        <time>2015-11-13T12:56:43Z</time>
      </trkpt>
      <trkpt lat="43.99975" lon="5.16194">
        <ele>191</ele>
        <time>2015-11-13T12:58:43Z</time>
      </trkpt>
      <trkpt lat="43.99981" lon="5.16211">
        <ele>192</ele>
        <time>2015-11-13T13:00:43Z</time>
      </trkpt>
      <trkpt lat="43.99988" lon="5.16229">
        <ele>192</ele>
        <time>2015-11-13T13:02:43Z</time>
      </trkpt>
      <trkpt lat="44.00002" lon="5.16259">
        <ele>194</ele>
        <time>2015-11-13T13:04:43Z</time>
      </trkpt>
      <trkpt lat="44.00006" lon="5.16271">
        <ele>195</ele>
        <time>2015-11-13T13:06:43Z</time>
      </trkpt>
      <trkpt lat="44.00009" lon="5.16278">
        <ele>195</ele>
        <time>2015-11-13T13:08:43Z</time>
      </trkpt>
      <trkpt lat="44.00011" lon="5.16285">
        <ele>196</ele>
        <time>2015-11-13T13:10:43Z</time>
      </trkpt>
      <trkpt lat="44.00018" lon="5.1631">
        <ele>198</ele>
        <time>2015-11-13T13:12:43Z</time>
      </trkpt>
      <trkpt lat="44.00022" lon="5.16331">
        <ele>199</ele>
        <time>2015-11-13T13:14:43Z</time>
      </trkpt>
      <trkpt lat="44.00024" lon="5.16341">
        <ele>200</ele>
        <time>2015-11-13T13:16:43Z</time>
      </trkpt>
      <trkpt lat="44.00026" lon="5.16357">
        <ele>201</ele>
        <time>2015-11-13T13:18:43Z</time>
      </trkpt>
      <trkpt lat="44.00026" lon="5.16369">
        <ele>202</ele>
        <time>2015-11-13T13:20:43Z</time>
      </trkpt>
      <trkpt lat="44.00028" lon="5.16376">
        <ele>202</ele>
        <time>2015-11-13T13:22:43Z</time>
      </trkpt>
      <trkpt lat="44.00029" lon="5.16383">
        <ele>203</ele>
        <time>2015-11-13T13:24:43Z</time>
      </trkpt>
      <trkpt lat="44.00034" lon="5.16396">
        <ele>204</ele>
        <time>2015-11-13T13:26:43Z</time>
      </trkpt>
      <trkpt lat="44.0004" lon="5.16413">
        <ele>206</ele>
        <time>2015-11-13T13:28:43Z</time>
      </trkpt>
      <trkpt lat="44.00043" lon="5.16422">
        <ele>208</ele>
        <time>2015-11-13T13:30:43Z</time>
      </trkpt>
      <trkpt lat="44.00043" lon="5.16426">
        <ele>208</ele>
        <time>2015-11-13T13:32:43Z</time>
      </trkpt>
      <trkpt lat="44.00043" lon="5.16429">
        <ele>209</ele>
        <time>2015-11-13T13:34:43Z</time>
      </trkpt>
      <trkpt lat="44.0004" lon="5.16435">
        <ele>209</ele>
        <time>2015-11-13T13:36:43Z</time>
      </trkpt>
      <trkpt lat="44.00037" lon="5.16437">
        <ele>209</ele>
        <time>2015-11-13T13:38:43Z</time>
      </trkpt>
      <trkpt lat="44.00032" lon="5.16438">
        <ele>208</ele>
        <time>2015-11-13T13:40:43Z</time>
      </trkpt>
      <trkpt lat="44.00024" lon="5.16475">
        <ele>213</ele>
        <time>2015-11-13T13:42:43Z</time>
      </trkpt>
      <trkpt lat="44.00023" lon="5.16521">
        <ele>221</ele>
        <time>2015-11-13T13:44:43Z</time>
      </trkpt>
      <trkpt lat="44.00005" lon="5.1655">
        <ele>223</ele>
        <time>2015-11-13T13:46:43Z</time>
      </trkpt>
      <trkpt lat="43.99984" lon="5.16601">
        <ele>233</ele>
        <time>2015-11-13T13:48:43Z</time>
      </trkpt>
      <trkpt lat="43.99972" lon="5.1663">
        <ele>240</ele>
        <time>2015-11-13T13:50:43Z</time>
      </trkpt>
      <trkpt lat="43.99964" lon="5.16654">
        <ele>246</ele>
        <time>2015-11-13T13:52:43Z</time>
      </trkpt>
      <trkpt lat="43.9991" lon="5.16679">
        <ele>245</ele>
        <time>2015-11-13T13:54:43Z</time>
      </trkpt>
      <trkpt lat="43.99876" lon="5.16661">
        <ele>235</ele>
        <time>2015-11-13T13:56:43Z</time>
      </trkpt>
      <trkpt lat="43.99875" lon="5.16705">
        <ele>240</ele>
        <time>2015-11-13T13:58:43Z</time>
      </trkpt>
      <trkpt lat="43.99935" lon="5.16731">
        <ele>258</ele>
        <time>2015-11-13T14:00:43Z</time>
      </trkpt>
      <trkpt lat="43.9995" lon="5.16769">
        <ele>264</ele>
        <time>2015-11-13T14:02:43Z</time>
      </trkpt>
      <trkpt lat="43.99965" lon="5.16794">
        <ele>269</ele>
        <time>2015-11-13T14:04:43Z</time>
      </trkpt>
      <trkpt lat="43.99978" lon="5.16827">
        <ele>274</ele>
        <time>2015-11-13T14:06:43Z</time>
      </trkpt>
      <trkpt lat="43.9999" lon="5.16892">
        <ele>274</ele>
        <time>2015-11-13T14:08:43Z</time>
      </trkpt>
      <trkpt lat="44.00022" lon="5.16956">
        <ele>269</ele>
        <time>2015-11-13T14:10:43Z</time>
      </trkpt>
      <trkpt lat="44.00058" lon="5.16981">
        <ele>268</ele>
        <time>2015-11-13T14:12:43Z</time>
      </trkpt>
      <trkpt lat="44.00097" lon="5.16973">
        <ele>275</ele>
        <time>2015-11-13T14:14:43Z</time>
      </trkpt>
      <trkpt lat="44.00167" lon="5.17034">
        <ele>279</ele>
        <time>2015-11-13T14:16:43Z</time>
      </trkpt>
      <trkpt lat="44.00186" lon="5.17108">
        <ele>281</ele>
        <time>2015-11-13T14:18:43Z</time>
      </trkpt>
      <trkpt lat="44.00185" lon="5.17186">
        <ele>283</ele>
        <time>2015-11-13T14:20:43Z</time>
      </trkpt>
      <trkpt lat="44.00209" lon="5.17281">
        <ele>279</ele>
        <time>2015-11-13T14:22:43Z</time>
      </trkpt>
      <trkpt lat="44.00208" lon="5.17298">
        <ele>277</ele>
        <time>2015-11-13T14:24:43Z</time>
      </trkpt>
      <trkpt lat="44.00215" lon="5.17302">
        <ele>276</ele>
        <time>2015-11-13T14:26:43Z</time>
      </trkpt>
      <trkpt lat="44.0023" lon="5.17339">
        <ele>269</ele>
        <time>2015-11-13T14:28:43Z</time>
      </trkpt>
      <trkpt lat="44.00258" lon="5.17374">
        <ele>261</ele>
        <time>2015-11-13T14:30:43Z</time>
      </trkpt>
      <trkpt lat="44.00281" lon="5.17387">
        <ele>261</ele>
        <time>2015-11-13T14:32:43Z</time>
      </trkpt>
      <trkpt lat="44.00283" lon="5.17393">
        <ele>260</ele>
        <time>2015-11-13T14:34:43Z</time>
      </trkpt>
      <trkpt lat="44.00297" lon="5.17392">
        <ele>262</ele>
        <time>2015-11-13T14:36:43Z</time>
      </trkpt>
      <trkpt lat="44.00303" lon="5.17397">
        <ele>262</ele>
        <time>2015-11-13T14:38:43Z</time>
      </trkpt>
      <trkpt lat="44.00328" lon="5.17438">
        <ele>257</ele>
        <time>2015-11-13T14:40:43Z</time>
      </trkpt>
      <trkpt lat="44.0033" lon="5.1746">
        <ele>254</ele>
        <time>2015-11-13T14:42:43Z</time>
      </trkpt>
      <trkpt lat="44.00346" lon="5.1748">
        <ele>253</ele>
        <time>2015-11-13T14:44:43Z</time>
      </trkpt>
      <trkpt lat="44.0042" lon="5.17545">
        <ele>251</ele>
        <time>2015-11-13T14:46:43Z</time>
      </trkpt>
      <trkpt lat="44.00472" lon="5.17572">
        <ele>253</ele>
        <time>2015-11-13T14:48:43Z</time>
      </trkpt>
      <trkpt lat="44.00462" lon="5.17602">
        <ele>250</ele>
        <time>2015-11-13T14:50:43Z</time>
      </trkpt>
      <trkpt lat="44.00467" lon="5.17641">
        <ele>248</ele>
        <time>2015-11-13T14:52:43Z</time>
      </trkpt>
      <trkpt lat="44.00469" lon="5.17722">
        <ele>240</ele>
        <time>2015-11-13T14:54:43Z</time>
      </trkpt>
      <trkpt lat="44.00454" lon="5.17737">
        <ele>236</ele>
        <time>2015-11-13T14:56:43Z</time>
      </trkpt>
      <trkpt lat="44.00454" lon="5.1778">
        <ele>232</ele>
        <time>2015-11-13T14:58:43Z</time>
      </trkpt>
      <trkpt lat="44.00449" lon="5.17789">
        <ele>230</ele>
        <time>2015-11-13T15:00:43Z</time>
      </trkpt>
      <trkpt lat="44.00416" lon="5.17783">
        <ele>226</ele>
        <time>2015-11-13T15:02:43Z</time>
      </trkpt>
      <trkpt lat="44.00395" lon="5.17778">
        <ele>224</ele>
        <time>2015-11-13T15:04:43Z</time>
      </trkpt>
      <trkpt lat="44.00385" lon="5.17781">
        <ele>223</ele>
        <time>2015-11-13T15:06:43Z</time>
      </trkpt>
      <trkpt lat="44.00379" lon="5.17795">
        <ele>222</ele>
        <time>2015-11-13T15:08:43Z</time>
      </trkpt>
      <trkpt lat="44.00414" lon="5.17816">
        <ele>224</ele>
        <time>2015-11-13T15:10:43Z</time>
      </trkpt>
      <trkpt lat="44.00446" lon="5.17845">
        <ele>225</ele>
        <time>2015-11-13T15:12:43Z</time>
      </trkpt>
      <trkpt lat="44.00502" lon="5.17915">
        <ele>224</ele>
        <time>2015-11-13T15:14:43Z</time>
      </trkpt>
      <trkpt lat="44.00561" lon="5.17951">
        <ele>229</ele>
        <time>2015-11-13T15:16:43Z</time>
      </trkpt>
      <trkpt lat="44.00589" lon="5.17961">
        <ele>232</ele>
        <time>2015-11-13T15:18:43Z</time>
      </trkpt>
      <trkpt lat="44.00598" lon="5.17974">
        <ele>233</ele>
        <time>2015-11-13T15:20:43Z</time>
      </trkpt>
      <trkpt lat="44.00608" lon="5.18047">
        <ele>231</ele>
        <time>2015-11-13T15:22:43Z</time>
      </trkpt>
      <trkpt lat="44.00641" lon="5.1821">
        <ele>227</ele>
        <time>2015-11-13T15:24:43Z</time>
      </trkpt>
      <trkpt lat="44.0056" lon="5.18326">
        <ele>219</ele>
        <time>2015-11-13T15:26:43Z</time>
      </trkpt>
      <trkpt lat="44.00517" lon="5.18341">
        <ele>221</ele>
        <time>2015-11-13T15:28:43Z</time>
      </trkpt>
      <trkpt lat="44.00516" lon="5.1836">
        <ele>220</ele>
        <time>2015-11-13T15:30:43Z</time>
      </trkpt>
      <trkpt lat="44.00506" lon="5.18397">
        <ele>220</ele>
        <time>2015-11-13T15:32:43Z</time>
      </trkpt>
      <trkpt lat="44.00454" lon="5.18473">
        <ele>221</ele>
        <time>2015-11-13T15:34:43Z</time>
      </trkpt>
      <trkpt lat="44.00451" lon="5.18492">
        <ele>222</ele>
        <time>2015-11-13T15:36:43Z</time>
      </trkpt>
      <trkpt lat="44.00471" lon="5.18526">
        <ele>223</ele>
        <time>2015-11-13T15:38:43Z</time>
      </trkpt>
      <trkpt lat="44.00479" lon="5.18563">
        <ele>224</ele>
        <time>2015-11-13T15:40:43Z</time>
      </trkpt>
      <trkpt lat="44.00475" lon="5.18612">
        <ele>225</ele>
        <time>2015-11-13T15:42:43Z</time>
      </trkpt>
      <trkpt lat="44.00465" lon="5.18651">
        <ele>226</ele>
        <time>2015-11-13T15:44:43Z</time>
      </trkpt>
      <trkpt lat="44.0048" lon="5.18739">
        <ele>227</ele>
        <time>2015-11-13T15:46:43Z</time>
      </trkpt>
      <trkpt lat="44.00469" lon="5.18807">
        <ele>231</ele>
        <time>2015-11-13T15:48:43Z</time>
      </trkpt>
      <trkpt lat="44.00463" lon="5.18811">
        <ele>232</ele>
        <time>2015-11-13T15:50:43Z</time>
      </trkpt>
      <trkpt lat="44.00455" lon="5.18838">
        <ele>235</ele>
        <time>2015-11-13T15:52:43Z</time>
      </trkpt>
      <trkpt lat="44.0046" lon="5.18849">
        <ele>235</ele>
        <time>2015-11-13T15:54:43Z</time>
      </trkpt>
      <trkpt lat="44.00467" lon="5.18939">
        <ele>239</ele>
        <time>2015-11-13T15:56:43Z</time>
      </trkpt>
      <trkpt lat="44.00474" lon="5.18976">
        <ele>238</ele>
        <time>2015-11-13T15:58:43Z</time>
      </trkpt>
      <trkpt lat="44.00484" lon="5.1898">
        <ele>236</ele>
        <time>2015-11-13T16:00:43Z</time>
      </trkpt>
      <trkpt lat="44.00503" lon="5.1897">
        <ele>232</ele>
        <time>2015-11-13T16:02:43Z</time>
      </trkpt>
      <trkpt lat="44.00527" lon="5.18971">
        <ele>230</ele>
        <time>2015-11-13T16:04:43Z</time>
      </trkpt>
      <trkpt lat="44.00589" lon="5.18955">
        <ele>225</ele>
        <time>2015-11-13T16:06:43Z</time>
      </trkpt>
      <trkpt lat="44.00595" lon="5.1896">
        <ele>225</ele>
        <time>2015-11-13T16:08:43Z</time>
      </trkpt>
      <trkpt lat="44.00602" lon="5.18995">
        <ele>226</ele>
        <time>2015-11-13T16:10:43Z</time>
      </trkpt>
      <trkpt lat="44.00616" lon="5.19015">
        <ele>227</ele>
        <time>2015-11-13T16:12:43Z</time>
      </trkpt>
      <trkpt lat="44.00662" lon="5.19055">
        <ele>227</ele>
        <time>2015-11-13T16:14:43Z</time>
      </trkpt>
      <trkpt lat="44.0069" lon="5.19101">
        <ele>228</ele>
        <time>2015-11-13T16:16:43Z</time>
      </trkpt>
      <trkpt lat="44.00707" lon="5.1917">
        <ele>227</ele>
        <time>2015-11-13T16:18:43Z</time>
      </trkpt>
      <trkpt lat="44.00717" lon="5.19174">
        <ele>227</ele>
        <time>2015-11-13T16:20:43Z</time>
      </trkpt>
      <trkpt lat="44.00725" lon="5.19219">
        <ele>227</ele>
        <time>2015-11-13T16:22:43Z</time>
      </trkpt>
      <trkpt lat="44.00725" lon="5.1925">
        <ele>227</ele>
        <time>2015-11-13T16:24:43Z</time>
      </trkpt>
      <trkpt lat="44.00704" lon="5.19332">
        <ele>230</ele>
        <time>2015-11-13T16:26:43Z</time>
      </trkpt>
      <trkpt lat="44.00706" lon="5.19353">
        <ele>230</ele>
        <time>2015-11-13T16:28:43Z</time>
      </trkpt>
      <trkpt lat="44.00701" lon="5.1936">
        <ele>230</ele>
        <time>2015-11-13T16:30:43Z</time>
      </trkpt>
      <trkpt lat="44.00658" lon="5.19363">
        <ele>233</ele>
        <time>2015-11-13T16:32:43Z</time>
      </trkpt>
      <trkpt lat="44.00652" lon="5.19403">
        <ele>233</ele>
        <time>2015-11-13T16:34:43Z</time>
      </trkpt>
      <trkpt lat="44.00645" lon="5.19418">
        <ele>234</ele>
        <time>2015-11-13T16:36:43Z</time>
      </trkpt>
      <trkpt lat="44.0061" lon="5.19449">
        <ele>237</ele>
        <time>2015-11-13T16:38:43Z</time>
      </trkpt>
      <trkpt lat="44.00592" lon="5.19481">
        <ele>240</ele>
        <time>2015-11-13T16:40:43Z</time>
      </trkpt>
      <trkpt lat="44.00584" lon="5.19504">
        <ele>241</ele>
        <time>2015-11-13T16:42:43Z</time>
      </trkpt>
      <trkpt lat="44.00558" lon="5.1966">
        <ele>249</ele>
        <time>2015-11-13T16:44:43Z</time>
      </trkpt>
      <trkpt lat="44.0054" lon="5.19705">
        <ele>251</ele>
        <time>2015-11-13T16:46:43Z</time>
      </trkpt>
      <trkpt lat="44.00533" lon="5.19741">
        <ele>253</ele>
        <time>2015-11-13T16:48:43Z</time>
      </trkpt>
      <trkpt lat="44.0053" lon="5.19815">
        <ele>257</ele>
        <time>2015-11-13T16:50:43Z</time>
      </trkpt>
      <trkpt lat="44.0054" lon="5.19837">
        <ele>258</ele>
        <time>2015-11-13T16:52:43Z</time>
      </trkpt>
      <trkpt lat="44.00489" lon="5.1992">
        <ele>273</ele>
        <time>2015-11-13T16:54:43Z</time>
      </trkpt>
      <trkpt lat="44.00468" lon="5.19966">
        <ele>280</ele>
        <time>2015-11-13T16:56:43Z</time>
      </trkpt>
      <trkpt lat="44.00438" lon="5.19987">
        <ele>285</ele>
        <time>2015-11-13T16:58:43Z</time>
      </trkpt>
      <trkpt lat="44.00394" lon="5.2">
        <ele>292</ele>
        <time>2015-11-13T17:00:43Z</time>
      </trkpt>
      <trkpt lat="44.00365" lon="5.20054">
        <ele>304</ele>
        <time>2015-11-13T17:02:43Z</time>
      </trkpt>
      <trkpt lat="44.00345" lon="5.20147">
        <ele>320</ele>
        <time>2015-11-13T17:04:43Z</time>
      </trkpt>
      <trkpt lat="44.0031" lon="5.20201">
        <ele>332</ele>
        <time>2015-11-13T17:06:43Z</time>
      </trkpt>
      <trkpt lat="44.00195" lon="5.20272">
        <ele>355</ele>
        <time>2015-11-13T17:08:43Z</time>
      </trkpt>
      <trkpt lat="44.00197" lon="5.20226">
        <ele>350</ele>
        <time>2015-11-13T17:10:43Z</time>
      </trkpt>
      <trkpt lat="44.00192" lon="5.20183">
        <ele>344</ele>
        <time>2015-11-13T17:12:43Z</time>
      </trkpt>
      <trkpt lat="44.00163" lon="5.20178">
        <ele>345</ele>
        <time>2015-11-13T17:14:43Z</time>
      </trkpt>
      <trkpt lat="44.00159" lon="5.20219">
        <ele>351</ele>
        <time>2015-11-13T17:16:43Z</time>
      </trkpt>
      <trkpt lat="44.00126" lon="5.20188">
        <ele>347</ele>
        <time>2015-11-13T17:18:43Z</time>
      </trkpt>
      <trkpt lat="44.00119" lon="5.20176">
        <ele>345</ele>
        <time>2015-11-13T17:20:43Z</time>
      </trkpt>
      <trkpt lat="44.00114" lon="5.20196">
        <ele>349</ele>
        <time>2015-11-13T17:22:43Z</time>
      </trkpt>
      <trkpt lat="44.00104" lon="5.20206">
        <ele>351</ele>
        <time>2015-11-13T17:24:43Z</time>
      </trkpt>
      <trkpt lat="44.00068" lon="5.20201">
        <ele>353</ele>
        <time>2015-11-13T17:26:43Z</time>
      </trkpt>
      <trkpt lat="44.00021" lon="5.20205">
        <ele>359</ele>
        <time>2015-11-13T17:28:43Z</time>
      </trkpt>
      <trkpt lat="43.99978" lon="5.20169">
        <ele>366</ele>
        <time>2015-11-13T17:30:43Z</time>
      </trkpt>
      <trkpt lat="43.99968" lon="5.20142">
        <ele>373</ele>
        <time>2015-11-13T17:32:43Z</time>
      </trkpt>
      <trkpt lat="43.99945" lon="5.20126">
        <ele>379</ele>
        <time>2015-11-13T17:34:43Z</time>
      </trkpt>
      <trkpt lat="43.99933" lon="5.20147">
        <ele>378</ele>
        <time>2015-11-13T17:36:43Z</time>
      </trkpt>
      <trkpt lat="43.99977" lon="5.20212">
        <ele>366</ele>
        <time>2015-11-13T17:38:43Z</time>
      </trkpt>
      <trkpt lat="43.99981" lon="5.20228">
        <ele>365</ele>
        <time>2015-11-13T17:40:43Z</time>
      </trkpt>
      <trkpt lat="43.99942" lon="5.20278">
        <ele>374</ele>
        <time>2015-11-13T17:42:43Z</time>
      </trkpt>
      <trkpt lat="43.99935" lon="5.20306">
        <ele>375</ele>
        <time>2015-11-13T17:44:43Z</time>
      </trkpt>
      <trkpt lat="43.99924" lon="5.20328">
        <ele>375</ele>
        <time>2015-11-13T17:46:43Z</time>
      </trkpt>
      <trkpt lat="43.99885" lon="5.2032">
        <ele>381</ele>
        <time>2015-11-13T17:48:43Z</time>
      </trkpt>
      <trkpt lat="43.99851" lon="5.20326">
        <ele>385</ele>
        <time>2015-11-13T17:50:43Z</time>
      </trkpt>
      <trkpt lat="43.99824" lon="5.20377">
        <ele>391</ele>
        <time>2015-11-13T17:52:43Z</time>
      </trkpt>
      <trkpt lat="43.99808" lon="5.20383">
        <ele>398</ele>
        <time>2015-11-13T17:54:43Z</time>
      </trkpt>
      <trkpt lat="43.99808" lon="5.204">
        <ele>397</ele>
        <time>2015-11-13T17:56:43Z</time>
      </trkpt>
      <trkpt lat="43.99835" lon="5.20469">
        <ele>393</ele>
        <time>2015-11-13T17:58:43Z</time>
      </trkpt>
      <trkpt lat="43.99827" lon="5.20491">
        <ele>396</ele>
        <time>2015-11-13T18:00:43Z</time>
      </trkpt>
      <trkpt lat="43.99816" lon="5.20498">
        <ele>399</ele>
        <time>2015-11-13T18:02:43Z</time>
      </trkpt>
      <trkpt lat="43.99786" lon="5.20497">
        <ele>405</ele>
        <time>2015-11-13T18:04:43Z</time>
      </trkpt>
      <trkpt lat="43.99763" lon="5.20504">
        <ele>410</ele>
        <time>2015-11-13T18:06:43Z</time>
      </trkpt>
      <trkpt lat="43.9975" lon="5.20534">
        <ele>416</ele>
        <time>2015-11-13T18:08:43Z</time>
      </trkpt>
      <trkpt lat="43.99757" lon="5.2057">
        <ele>419</ele>
        <time>2015-11-13T18:10:43Z</time>
      </trkpt>
      <trkpt lat="43.9977" lon="5.20588">
        <ele>419</ele>
        <time>2015-11-13T18:12:43Z</time>
      </trkpt>
      <trkpt lat="43.99771" lon="5.20598">
        <ele>420</ele>
        <time>2015-11-13T18:14:43Z</time>
      </trkpt>
      <trkpt lat="43.99779" lon="5.20597">
        <ele>419</ele>
        <time>2015-11-13T18:16:43Z</time>
      </trkpt>
      <trkpt lat="43.99796" lon="5.20607">
        <ele>418</ele>
        <time>2015-11-13T18:18:43Z</time>
      </trkpt>
      <trkpt lat="43.99807" lon="5.20625">
        <ele>418</ele>
        <time>2015-11-13T18:20:43Z</time>
      </trkpt>
      <trkpt lat="43.99806" lon="5.20639">
        <ele>419</ele>
        <time>2015-11-13T18:22:43Z</time>
      </trkpt>
      <trkpt lat="43.99812" lon="5.20661">
        <ele>420</ele>
        <time>2015-11-13T18:24:43Z</time>
      </trkpt>
      <trkpt lat="43.99809" lon="5.20688">
        <ele>424</ele>
        <time>2015-11-13T18:26:43Z</time>
      </trkpt>
      <trkpt lat="43.99792" lon="5.20706">
        <ele>427</ele>
        <time>2015-11-13T18:28:43Z</time>
      </trkpt>
      <trkpt lat="43.99757" lon="5.20731">
        <ele>430</ele>
        <time>2015-11-13T18:30:43Z</time>
      </trkpt>
      <trkpt lat="43.99732" lon="5.20724">
        <ele>433</ele>
        <time>2015-11-13T18:32:43Z</time>
      </trkpt>
      <trkpt lat="43.99681" lon="5.20743">
        <ele>440</ele>
        <time>2015-11-13T18:34:43Z</time>
      </trkpt>
      <trkpt lat="43.99675" lon="5.20753">
        <ele>441</ele>
        <time>2015-11-13T18:36:43Z</time>
      </trkpt>
      <trkpt lat="43.99639" lon="5.20752">
        <ele>443</ele>
        <time>2015-11-13T18:38:43Z</time>
      </trkpt>
      <trkpt lat="43.99602" lon="5.20743">
        <ele>446</ele>
        <time>2015-11-13T18:40:43Z</time>
      </trkpt>
      <trkpt lat="43.99562" lon="5.20719">
        <ele>454</ele>
        <time>2015-11-13T18:42:43Z</time>
      </trkpt>
      <trkpt lat="43.99536" lon="5.20732">
        <ele>455</ele>
        <time>2015-11-13T18:44:43Z</time>
      </trkpt>
      <trkpt lat="43.99521" lon="5.20746">
        <ele>455</ele>
        <time>2015-11-13T18:46:43Z</time>
      </trkpt>
      <trkpt lat="43.99521" lon="5.20755">
        <ele>455</ele>
        <time>2015-11-13T18:48:43Z</time>
      </trkpt>
      <trkpt lat="43.99494" lon="5.20825">
        <ele>458</ele>
        <time>2015-11-13T18:50:43Z</time>
      </trkpt>
      <trkpt lat="43.9947" lon="5.20831">
        <ele>467</ele>
        <time>2015-11-13T18:52:43Z</time>
      </trkpt>
      <trkpt lat="43.9947" lon="5.20842">
        <ele>468</ele>
        <time>2015-11-13T18:54:43Z</time>
      </trkpt>
      <trkpt lat="43.99459" lon="5.20856">
        <ele>472</ele>
        <time>2015-11-13T18:56:43Z</time>
      </trkpt>
      <trkpt lat="43.99481" lon="5.20937">
        <ele>471</ele>
        <time>2015-11-13T18:58:43Z</time>
      </trkpt>
      <trkpt lat="43.99473" lon="5.20947">
        <ele>473</ele>
        <time>2015-11-13T19:00:43Z</time>
      </trkpt>
      <trkpt lat="43.99463" lon="5.2099">
        <ele>477</ele>
        <time>2015-11-13T19:02:43Z</time>
      </trkpt>
      <trkpt lat="43.99422" lon="5.2102">
        <ele>477</ele>
        <time>2015-11-13T19:04:43Z</time>
      </trkpt>
      <trkpt lat="43.9942" lon="5.2103">
        <ele>477</ele>
        <time>2015-11-13T19:06:43Z</time>
      </trkpt>
      <trkpt lat="43.99408" lon="5.21036">
        <ele>481</ele>
        <time>2015-11-13T19:08:43Z</time>
      </trkpt>
      <trkpt lat="43.99408" lon="5.2106">
        <ele>481</ele>
        <time>2015-11-13T19:10:43Z</time>
      </trkpt>
      <trkpt lat="43.99398" lon="5.211">
        <ele>485</ele>
        <time>2015-11-13T19:12:43Z</time>
      </trkpt>
      <trkpt lat="43.99356" lon="5.2115">
        <ele>500</ele>
        <time>2015-11-13T19:14:43Z</time>
      </trkpt>
      <trkpt lat="43.99364" lon="5.21204">
        <ele>495</ele>
        <time>2015-11-13T19:16:43Z</time>
      </trkpt>
      <trkpt lat="43.99383" lon="5.21226">
        <ele>492</ele>
        <time>2015-11-13T19:18:43Z</time>
      </trkpt>
      <trkpt lat="43.99374" lon="5.21269">
        <ele>494</ele>
        <time>2015-11-13T19:20:43Z</time>
      </trkpt>
      <trkpt lat="43.99385" lon="5.21288">
        <ele>496</ele>
        <time>2015-11-13T19:22:43Z</time>
      </trkpt>
      <trkpt lat="43.99407" lon="5.21302">
        <ele>498</ele>
        <time>2015-11-13T19:24:43Z</time>
      </trkpt>
      <trkpt lat="43.9942" lon="5.21335">
        <ele>503</ele>
        <time>2015-11-13T19:26:43Z</time>
      </trkpt>
      <trkpt lat="43.99433" lon="5.21351">
        <ele>508</ele>
        <time>2015-11-13T19:28:43Z</time>
      </trkpt>
      <trkpt lat="43.99463" lon="5.21365">
        <ele>513</ele>
        <time>2015-11-13T19:30:43Z</time>
      </trkpt>
      <trkpt lat="43.99477" lon="5.21402">
        <ele>512</ele>
        <time>2015-11-13T19:32:43Z</time>
      </trkpt>
      <trkpt lat="43.99507" lon="5.21418">
        <ele>513</ele>
        <time>2015-11-13T19:34:43Z</time>
      </trkpt>
      <trkpt lat="43.99514" lon="5.21435">
        <ele>515</ele>
        <time>2015-11-13T19:36:43Z</time>
      </trkpt>
      <trkpt lat="43.99512" lon="5.21471">
        <ele>515</ele>
        <time>2015-11-13T19:38:43Z</time>
      </trkpt>
      <trkpt lat="43.99527" lon="5.21499">
        <ele>520</ele>
        <time>2015-11-13T19:40:43Z</time>
      </trkpt>
      <trkpt lat="43.99506" lon="5.21595">
        <ele>519</ele>
        <time>2015-11-13T19:42:43Z</time>
      </trkpt>
      <trkpt lat="43.99492" lon="5.21624">
        <ele>522</ele>
        <time>2015-11-13T19:44:43Z</time>
      </trkpt>
      <trkpt lat="43.99487" lon="5.21708">
        <ele>527</ele>
        <time>2015-11-13T19:46:43Z</time>
      </trkpt>
      <trkpt lat="43.9951" lon="5.21788">
        <ele>529</ele>
        <time>2015-11-13T19:48:43Z</time>
      </trkpt>
      <trkpt lat="43.99512" lon="5.21826">
        <ele>530</ele>
        <time>2015-11-13T19:50:43Z</time>
      </trkpt>
      <trkpt lat="43.99518" lon="5.21842">
        <ele>532</ele>
        <time>2015-11-13T19:52:43Z</time>
      </trkpt>
      <trkpt lat="43.99532" lon="5.21864">
        <ele>535</ele>
        <time>2015-11-13T19:54:43Z</time>
      </trkpt>
      <trkpt lat="43.99571" lon="5.21895">
        <ele>535</ele>
        <time>2015-11-13T19:56:43Z</time>
      </trkpt>
      <trkpt lat="43.99601" lon="5.21958">
        <ele>537</ele>
        <time>2015-11-13T19:58:43Z</time>
      </trkpt>
      <trkpt lat="43.99614" lon="5.22006">
        <ele>541</ele>
        <time>2015-11-13T20:00:43Z</time>
      </trkpt>
      <trkpt lat="43.99639" lon="5.22046">
        <ele>546</ele>
        <time>2015-11-13T20:02:43Z</time>
      </trkpt>
      <trkpt lat="43.99636" lon="5.22063">
        <ele>547</ele>
        <time>2015-11-13T20:04:43Z</time>
      </trkpt>
      <trkpt lat="43.99647" lon="5.22106">
        <ele>550</ele>
        <time>2015-11-13T20:06:43Z</time>
      </trkpt>
      <trkpt lat="43.99627" lon="5.22145">
        <ele>554</ele>
        <time>2015-11-13T20:08:43Z</time>
      </trkpt>
      <trkpt lat="43.99652" lon="5.22124">
        <ele>552</ele>
        <time>2015-11-13T20:10:43Z</time>
      </trkpt>
      <trkpt lat="43.99672" lon="5.22085">
        <ele>550</ele>
        <time>2015-11-13T20:12:43Z</time>
      </trkpt>
      <trkpt lat="43.99678" lon="5.22044">
        <ele>550</ele>
        <time>2015-11-13T20:14:43Z</time>
      </trkpt>
      <trkpt lat="43.99673" lon="5.22025">
        <ele>548</ele>
        <time>2015-11-13T20:16:43Z</time>
      </trkpt>
      <trkpt lat="43.99694" lon="5.21905">
        <ele>553</ele>
        <time>2015-11-13T20:18:43Z</time>
      </trkpt>
      <trkpt lat="43.99708" lon="5.2187">
        <ele>559</ele>
        <time>2015-11-13T20:20:43Z</time>
      </trkpt>
      <trkpt lat="43.99751" lon="5.21879">
        <ele>565</ele>
        <time>2015-11-13T20:22:43Z</time>
      </trkpt>
      <trkpt lat="43.99768" lon="5.21864">
        <ele>565</ele>
        <time>2015-11-13T20:24:43Z</time>
      </trkpt>
      <trkpt lat="43.99788" lon="5.21849">
        <ele>563</ele>
        <time>2015-11-13T20:26:43Z</time>
      </trkpt>
      <trkpt lat="43.99828" lon="5.21848">
        <ele>560</ele>
        <time>2015-11-13T20:28:43Z</time>
      </trkpt>
      <trkpt lat="43.99845" lon="5.21891">
        <ele>559</ele>
        <time>2015-11-13T20:30:43Z</time>
      </trkpt>
      <trkpt lat="43.99823" lon="5.21932">
        <ele>564</ele>
        <time>2015-11-13T20:32:43Z</time>
      </trkpt>
      <trkpt lat="43.99816" lon="5.21964">
        <ele>566</ele>
        <time>2015-11-13T20:34:43Z</time>
      </trkpt>
      <trkpt lat="43.99801" lon="5.21981">
        <ele>567</ele>
        <time>2015-11-13T20:36:43Z</time>
      </trkpt>
      <trkpt lat="43.99798" lon="5.22001">
        <ele>568</ele>
        <time>2015-11-13T20:38:43Z</time>
      </trkpt>
      <trkpt lat="43.99772" lon="5.22045">
        <ele>569</ele>
        <time>2015-11-13T20:40:43Z</time>
      </trkpt>
      <trkpt lat="43.99762" lon="5.22115">
        <ele>570</ele>
        <time>2015-11-13T20:42:43Z</time>
      </trkpt>
      <trkpt lat="43.99755" lon="5.22129">
        <ele>571</ele>
        <time>2015-11-13T20:44:43Z</time>
      </trkpt>
      <trkpt lat="43.99752" lon="5.22164">
        <ele>573</ele>
        <time>2015-11-13T20:46:43Z</time>
      </trkpt>
      <trkpt lat="43.99738" lon="5.22194">
        <ele>574</ele>
        <time>2015-11-13T20:48:43Z</time>
      </trkpt>
      <trkpt lat="43.99736" lon="5.22217">
        <ele>577</ele>
        <time>2015-11-13T20:50:43Z</time>
      </trkpt>
      <trkpt lat="43.99726" lon="5.22252">
        <ele>579</ele>
        <time>2015-11-13T20:52:43Z</time>
      </trkpt>
      <trkpt lat="43.9973" lon="5.22274">
        <ele>582</ele>
        <time>2015-11-13T20:54:43Z</time>
      </trkpt>
      <trkpt lat="43.99727" lon="5.22292">
        <ele>584</ele>
        <time>2015-11-13T20:56:43Z</time>
      </trkpt>
      <trkpt lat="43.99731" lon="5.22326">
        <ele>587</ele>
        <time>2015-11-13T20:58:43Z</time>
      </trkpt>
      <trkpt lat="43.99722" lon="5.22351">
        <ele>589</ele>
        <time>2015-11-13T21:00:43Z</time>
      </trkpt>
      <trkpt lat="43.99722" lon="5.22369">
        <ele>590</ele>
        <time>2015-11-13T21:02:43Z</time>
      </trkpt>
      <trkpt lat="43.99714" lon="5.22374">
        <ele>590</ele>
        <time>2015-11-13T21:04:43Z</time>
      </trkpt>
      <trkpt lat="43.99696" lon="5.22415">
        <ele>595</ele>
        <time>2015-11-13T21:06:43Z</time>
      </trkpt>
      <trkpt lat="43.99687" lon="5.22423">
        <ele>596</ele>
        <time>2015-11-13T21:08:43Z</time>
      </trkpt>
      <trkpt lat="43.99669" lon="5.22485">
        <ele>597</ele>
        <time>2015-11-13T21:10:43Z</time>
      </trkpt>
      <trkpt lat="43.99662" lon="5.22502">
        <ele>596</ele>
        <time>2015-11-13T21:12:43Z</time>
      </trkpt>
      <trkpt lat="43.99659" lon="5.22531">
        <ele>594</ele>
        <time>2015-11-13T21:14:43Z</time>
      </trkpt>
      <trkpt lat="43.99666" lon="5.22576">
        <ele>595</ele>
        <time>2015-11-13T21:16:43Z</time>
      </trkpt>
      <trkpt lat="43.99668" lon="5.22632">
        <ele>598</ele>
        <time>2015-11-13T21:18:43Z</time>
      </trkpt>
      <trkpt lat="43.99675" lon="5.22656">
        <ele>599</ele>
        <time>2015-11-13T21:20:43Z</time>
      </trkpt>
      <trkpt lat="43.99673" lon="5.22696">
        <ele>601</ele>
        <time>2015-11-13T21:22:43Z</time>
      </trkpt>
      <trkpt lat="43.99685" lon="5.22763">
        <ele>603</ele>
        <time>2015-11-13T21:24:43Z</time>
      </trkpt>
      <trkpt lat="43.99693" lon="5.22797">
        <ele>604</ele>
        <time>2015-11-13T21:26:43Z</time>
      </trkpt>
      <trkpt lat="43.99698" lon="5.22834">
        <ele>604</ele>
        <time>2015-11-13T21:28:43Z</time>
      </trkpt>
      <trkpt lat="43.99694" lon="5.22874">
        <ele>603</ele>
        <time>2015-11-13T21:30:43Z</time>
      </trkpt>
      <trkpt lat="43.99641" lon="5.22948">
        <ele>602</ele>
        <time>2015-11-13T21:32:43Z</time>
      </trkpt>
      <trkpt lat="43.99622" lon="5.22961">
        <ele>603</ele>
        <time>2015-11-13T21:34:43Z</time>
      </trkpt>
      <trkpt lat="43.99569" lon="5.23047">
        <ele>614</ele>
        <time>2015-11-13T21:36:43Z</time>
      </trkpt>
      <trkpt lat="43.99555" lon="5.23081">
        <ele>618</ele>
        <time>2015-11-13T21:38:43Z</time>
      </trkpt>
      <trkpt lat="43.99532" lon="5.23106">
        <ele>623</ele>
        <time>2015-11-13T21:40:43Z</time>
      </trkpt>
      <trkpt lat="43.99522" lon="5.23104">
        <ele>625</ele>
        <time>2015-11-13T21:42:43Z</time>
      </trkpt>
      <trkpt lat="43.995" lon="5.23138">
        <ele>631</ele>
        <time>2015-11-13T21:44:43Z</time>
      </trkpt>
      <trkpt lat="43.99485" lon="5.2314">
        <ele>631</ele>
        <time>2015-11-13T21:46:43Z</time>
      </trkpt>
      <trkpt lat="43.99476" lon="5.23153">
        <ele>633</ele>
        <time>2015-11-13T21:48:43Z</time>
      </trkpt>
      <trkpt lat="43.99435" lon="5.23173">
        <ele>638</ele>
        <time>2015-11-13T21:50:43Z</time>
      </trkpt>
      <trkpt lat="43.99423" lon="5.2322">
        <ele>643</ele>
        <time>2015-11-13T21:52:43Z</time>
      </trkpt>
      <trkpt lat="43.99415" lon="5.23225">
        <ele>644</ele>
        <time>2015-11-13T21:54:43Z</time>
      </trkpt>
      <trkpt lat="43.99394" lon="5.23282">
        <ele>646</ele>
        <time>2015-11-13T21:56:43Z</time>
      </trkpt>
      <trkpt lat="43.99394" lon="5.23326">
        <ele>649</ele>
        <time>2015-11-13T21:58:43Z</time>
      </trkpt>
      <trkpt lat="43.99402" lon="5.23341">
        <ele>651</ele>
        <time>2015-11-13T22:00:43Z</time>
      </trkpt>
      <trkpt lat="43.99398" lon="5.23356">
        <ele>651</ele>
        <time>2015-11-13T22:02:43Z</time>
      </trkpt>
      <trkpt lat="43.99405" lon="5.23405">
        <ele>655</ele>
        <time>2015-11-13T22:04:43Z</time>
      </trkpt>
      <trkpt lat="43.99406" lon="5.23458">
        <ele>656</ele>
        <time>2015-11-13T22:06:43Z</time>
      </trkpt>
      <trkpt lat="43.99401" lon="5.23468">
        <ele>655</ele>
        <time>2015-11-13T22:08:43Z</time>
      </trkpt>
      <trkpt lat="43.99407" lon="5.23487">
        <ele>656</ele>
        <time>2015-11-13T22:10:43Z</time>
      </trkpt>
      <trkpt lat="43.99395" lon="5.2355">
        <ele>655</ele>
        <time>2015-11-13T22:12:43Z</time>
      </trkpt>
      <trkpt lat="43.99395" lon="5.23598">
        <ele>655</ele>
        <time>2015-11-13T22:14:43Z</time>
      </trkpt>
      <trkpt lat="43.99389" lon="5.23609">
        <ele>655</ele>
        <time>2015-11-13T22:16:43Z</time>
      </trkpt>
      <trkpt lat="43.99392" lon="5.23648">
        <ele>656</ele>
        <time>2015-11-13T22:18:43Z</time>
      </trkpt>
      <trkpt lat="43.99388" lon="5.2367">
        <ele>657</ele>
        <time>2015-11-13T22:20:43Z</time>
      </trkpt>
      <trkpt lat="43.99378" lon="5.23685">
        <ele>659</ele>
        <time>2015-11-13T22:22:43Z</time>
      </trkpt>
      <trkpt lat="43.99382" lon="5.23702">
        <ele>660</ele>
        <time>2015-11-13T22:24:43Z</time>
      </trkpt>
      <trkpt lat="43.99378" lon="5.23712">
        <ele>661</ele>
        <time>2015-11-13T22:26:43Z</time>
      </trkpt>
      <trkpt lat="43.9937" lon="5.23716">
        <ele>662</ele>
        <time>2015-11-13T22:28:43Z</time>
      </trkpt>
      <trkpt lat="43.99341" lon="5.23755">
        <ele>669</ele>
        <time>2015-11-13T22:30:43Z</time>
      </trkpt>
      <trkpt lat="43.99309" lon="5.23829">
        <ele>675</ele>
        <time>2015-11-13T22:32:43Z</time>
      </trkpt>
      <trkpt lat="43.99297" lon="5.23846">
        <ele>676</ele>
        <time>2015-11-13T22:34:43Z</time>
      </trkpt>
      <trkpt lat="43.99269" lon="5.23869">
        <ele>679</ele>
        <time>2015-11-13T22:36:43Z</time>
      </trkpt>
      <trkpt lat="43.99254" lon="5.239">
        <ele>684</ele>
        <time>2015-11-13T22:38:43Z</time>
      </trkpt>
      <trkpt lat="43.99233" lon="5.23926">
        <ele>687</ele>
        <time>2015-11-13T22:40:43Z</time>
      </trkpt>
      <trkpt lat="43.99217" lon="5.23957">
        <ele>690</ele>
        <time>2015-11-13T22:42:43Z</time>
      </trkpt>
      <trkpt lat="43.99186" lon="5.2397">
        <ele>693</ele>
        <time>2015-11-13T22:44:43Z</time>
      </trkpt>
      <trkpt lat="43.99152" lon="5.23956">
        <ele>694</ele>
        <time>2015-11-13T22:46:43Z</time>
      </trkpt>
      <trkpt lat="43.99156" lon="5.23932">
        <ele>692</ele>
        <time>2015-11-13T22:48:43Z</time>
      </trkpt>
      <trkpt lat="43.99145" lon="5.23915">
        <ele>691</ele>
        <time>2015-11-13T22:50:43Z</time>
      </trkpt>
      <trkpt lat="43.99131" lon="5.23901">
        <ele>691</ele>
        <time>2015-11-13T22:52:43Z</time>
      </trkpt>
      <trkpt lat="43.9911" lon="5.23902">
        <ele>692</ele>
        <time>2015-11-13T22:54:43Z</time>
      </trkpt>
      <trkpt lat="43.99086" lon="5.23938">
        <ele>696</ele>
        <time>2015-11-13T22:56:43Z</time>
      </trkpt>
      <trkpt lat="43.99087" lon="5.23945">
        <ele>697</ele>
        <time>2015-11-13T22:58:43Z</time>
      </trkpt>
      <trkpt lat="43.99088" lon="5.23957">
        <ele>698</ele>
        <time>2015-11-13T23:00:43Z</time>
      </trkpt>
      <trkpt lat="43.99089" lon="5.23968">
        <ele>699</ele>
        <time>2015-11-13T23:02:43Z</time>
      </trkpt>
      <trkpt lat="43.99094" lon="5.23999">
        <ele>701</ele>
        <time>2015-11-13T23:04:43Z</time>
      </trkpt>
      <trkpt lat="43.99099" lon="5.24022">
        <ele>704</ele>
        <time>2015-11-13T23:06:43Z</time>
      </trkpt>
      <trkpt lat="43.99107" lon="5.24055">
        <ele>707</ele>
        <time>2015-11-13T23:08:43Z</time>
      </trkpt>
      <trkpt lat="43.99121" lon="5.24104">
        <ele>711</ele>
        <time>2015-11-13T23:10:43Z</time>
      </trkpt>
      <trkpt lat="43.99122" lon="5.24109">
        <ele>711</ele>
        <time>2015-11-13T23:12:43Z</time>
      </trkpt>
      <trkpt lat="43.99123" lon="5.24115">
        <ele>712</ele>
        <time>2015-11-13T23:14:43Z</time>
      </trkpt>
      <trkpt lat="43.99124" lon="5.2412">
        <ele>712</ele>
        <time>2015-11-13T23:16:43Z</time>
      </trkpt>
      <trkpt lat="43.99124" lon="5.24131">
        <ele>714</ele>
        <time>2015-11-13T23:18:43Z</time>
      </trkpt>
      <trkpt lat="43.99122" lon="5.24141">
        <ele>715</ele>
        <time>2015-11-13T23:20:43Z</time>
      </trkpt>
      <trkpt lat="43.99121" lon="5.24145">
        <ele>715</ele>
        <time>2015-11-13T23:22:43Z</time>
      </trkpt>
      <trkpt lat="43.99119" lon="5.2415">
        <ele>716</ele>
        <time>2015-11-13T23:24:43Z</time>
      </trkpt>
      <trkpt lat="43.99117" lon="5.24154">
        <ele>717</ele>
        <time>2015-11-13T23:26:43Z</time>
      </trkpt>
      <trkpt lat="43.99115" lon="5.24158">
        <ele>718</ele>
        <time>2015-11-13T23:28:43Z</time>
      </trkpt>
      <trkpt lat="43.9911" lon="5.24166">
        <ele>719</ele>
        <time>2015-11-13T23:30:43Z</time>
      </trkpt>
      <trkpt lat="43.99107" lon="5.2417">
        <ele>720</ele>
        <time>2015-11-13T23:32:43Z</time>
      </trkpt>
      <trkpt lat="43.99101" lon="5.24177">
        <ele>721</ele>
        <time>2015-11-13T23:34:43Z</time>
      </trkpt>
      <trkpt lat="43.99094" lon="5.24184">
        <ele>722</ele>
        <time>2015-11-13T23:36:43Z</time>
      </trkpt>
      <trkpt lat="43.99087" lon="5.24191">
        <ele>724</ele>
        <time>2015-11-13T23:38:43Z</time>
      </trkpt>
      <trkpt lat="43.99071" lon="5.24205">
        <ele>727</ele>
        <time>2015-11-13T23:40:43Z</time>
      </trkpt>
      <trkpt lat="43.99058" lon="5.24215">
        <ele>729</ele>
        <time>2015-11-13T23:42:43Z</time>
      </trkpt>
      <trkpt lat="43.9905" lon="5.24221">
        <ele>731</ele>
        <time>2015-11-13T23:44:43Z</time>
      </trkpt>
      <trkpt lat="43.99042" lon="5.24229">
        <ele>732</ele>
        <time>2015-11-13T23:46:43Z</time>
      </trkpt>
      <trkpt lat="43.99035" lon="5.24236">
        <ele>734</ele>
        <time>2015-11-13T23:48:43Z</time>
      </trkpt>
      <trkpt lat="43.99031" lon="5.24239">
        <ele>735</ele>
        <time>2015-11-13T23:50:43Z</time>
      </trkpt>
      <trkpt lat="43.99026" lon="5.24247">
        <ele>736</ele>
        <time>2015-11-13T23:52:43Z</time>
      </trkpt>
      <trkpt lat="43.99024" lon="5.24251">
        <ele>736</ele>
        <time>2015-11-13T23:54:43Z</time>
      </trkpt>
      <trkpt lat="43.99021" lon="5.24259">
        <ele>737</ele>
        <time>2015-11-13T23:56:43Z</time>
      </trkpt>
      <trkpt lat="43.99017" lon="5.24272">
        <ele>738</ele>
        <time>2015-11-13T23:58:43Z</time>
      </trkpt>
      <trkpt lat="43.99016" lon="5.24282">
        <ele>738</ele>
        <time>2015-11-14T00:00:43Z</time>
      </trkpt>
      <trkpt lat="43.99015" lon="5.24296">
        <ele>739</ele>
        <time>2015-11-14T00:02:43Z</time>
      </trkpt>
      <trkpt lat="43.99015" lon="5.24317">
        <ele>739</ele>
        <time>2015-11-14T00:04:43Z</time>
      </trkpt>
      <trkpt lat="43.99016" lon="5.24344">
        <ele>739</ele>
        <time>2015-11-14T00:06:43Z</time>
      </trkpt>
      <trkpt lat="43.99015" lon="5.24361">
        <ele>739</ele>
        <time>2015-11-14T00:08:43Z</time>
      </trkpt>
      <trkpt lat="43.99015" lon="5.24367">
        <ele>738</ele>
        <time>2015-11-14T00:10:43Z</time>
      </trkpt>
      <trkpt lat="43.99014" lon="5.24378">
        <ele>738</ele>
        <time>2015-11-14T00:12:43Z</time>
      </trkpt>
      <trkpt lat="43.99012" lon="5.2439">
        <ele>737</ele>
        <time>2015-11-14T00:14:43Z</time>
      </trkpt>
      <trkpt lat="43.99011" lon="5.24395">
        <ele>737</ele>
        <time>2015-11-14T00:16:43Z</time>
      </trkpt>
      <trkpt lat="43.99009" lon="5.2441">
        <ele>737</ele>
        <time>2015-11-14T00:18:43Z</time>
      </trkpt>
      <trkpt lat="43.99008" lon="5.24419">
        <ele>737</ele>
        <time>2015-11-14T00:20:43Z</time>
      </trkpt>
      <trkpt lat="43.99006" lon="5.24444">
        <ele>737</ele>
        <time>2015-11-14T00:22:43Z</time>
      </trkpt>
      <trkpt lat="43.99006" lon="5.24456">
        <ele>737</ele>
        <time>2015-11-14T00:24:43Z</time>
      </trkpt>
      <trkpt lat="43.99006" lon="5.24481">
        <ele>737</ele>
        <time>2015-11-14T00:26:43Z</time>
      </trkpt>
      <trkpt lat="43.99006" lon="5.24489">
        <ele>737</ele>
        <time>2015-11-14T00:28:43Z</time>
      </trkpt>
      <trkpt lat="43.99006" lon="5.24512">
        <ele>738</ele>
        <time>2015-11-14T00:30:43Z</time>
      </trkpt>
      <trkpt lat="43.99005" lon="5.2454">
        <ele>741</ele>
        <time>2015-11-14T00:32:43Z</time>
      </trkpt>
      <trkpt lat="43.99005" lon="5.24553">
        <ele>741</ele>
        <time>2015-11-14T00:34:43Z</time>
      </trkpt>
      <trkpt lat="43.99005" lon="5.2456">
        <ele>742</ele>
        <time>2015-11-14T00:36:43Z</time>
      </trkpt>
      <trkpt lat="43.99005" lon="5.24572">
        <ele>743</ele>
        <time>2015-11-14T00:38:43Z</time>
      </trkpt>
      <trkpt lat="43.99007" lon="5.24584">
        <ele>744</ele>
        <time>2015-11-14T00:40:43Z</time>
      </trkpt>
      <trkpt lat="43.99009" lon="5.24601">
        <ele>745</ele>
        <time>2015-11-14T00:42:43Z</time>
      </trkpt>
      <trkpt lat="43.99012" lon="5.24618">
        <ele>747</ele>
        <time>2015-11-14T00:44:43Z</time>
      </trkpt>
      <trkpt lat="43.99018" lon="5.24644">
        <ele>749</ele>
        <time>2015-11-14T00:46:43Z</time>
      </trkpt>
      <trkpt lat="43.9902" lon="5.2465">
        <ele>749</ele>
        <time>2015-11-14T00:48:43Z</time>
      </trkpt>
      <trkpt lat="43.99021" lon="5.24655">
        <ele>750</ele>
        <time>2015-11-14T00:50:43Z</time>
      </trkpt>
      <trkpt lat="43.99024" lon="5.24667">
        <ele>751</ele>
        <time>2015-11-14T00:52:43Z</time>
      </trkpt>
      <trkpt lat="43.99025" lon="5.24672">
        <ele>751</ele>
        <time>2015-11-14T00:54:43Z</time>
      </trkpt>
      <trkpt lat="43.99029" lon="5.2469">
        <ele>752</ele>
        <time>2015-11-14T00:56:43Z</time>
      </trkpt>
      <trkpt lat="43.99033" lon="5.2471">
        <ele>753</ele>
        <time>2015-11-14T00:58:43Z</time>
      </trkpt>
      <trkpt lat="43.99036" lon="5.24727">
        <ele>754</ele>
        <time>2015-11-14T01:00:43Z</time>
      </trkpt>
      <trkpt lat="43.99038" lon="5.24734">
        <ele>754</ele>
        <time>2015-11-14T01:02:43Z</time>
      </trkpt>
      <trkpt lat="43.99039" lon="5.24737">
        <ele>754</ele>
        <time>2015-11-14T01:04:43Z</time>
      </trkpt>
      <trkpt lat="43.99041" lon="5.24743">
        <ele>755</ele>
        <time>2015-11-14T01:06:43Z</time>
      </trkpt>
      <trkpt lat="43.99044" lon="5.24748">
        <ele>755</ele>
        <time>2015-11-14T01:08:43Z</time>
      </trkpt>
      <trkpt lat="43.99047" lon="5.24752">
        <ele>755</ele>
        <time>2015-11-14T01:10:43Z</time>
      </trkpt>
      <trkpt lat="43.99051" lon="5.24756">
        <ele>755</ele>
        <time>2015-11-14T01:12:43Z</time>
      </trkpt>
      <trkpt lat="43.99059" lon="5.24763">
        <ele>755</ele>
        <time>2015-11-14T01:14:43Z</time>
      </trkpt>
      <trkpt lat="43.99072" lon="5.24772">
        <ele>756</ele>
        <time>2015-11-14T01:16:43Z</time>
      </trkpt>
      <trkpt lat="43.99081" lon="5.24778">
        <ele>756</ele>
        <time>2015-11-14T01:18:43Z</time>
      </trkpt>
      <trkpt lat="43.99083" lon="5.2478">
        <ele>756</ele>
        <time>2015-11-14T01:20:43Z</time>
      </trkpt>
      <trkpt lat="43.99088" lon="5.24783">
        <ele>756</ele>
        <time>2015-11-14T01:22:43Z</time>
      </trkpt>
      <trkpt lat="43.99095" lon="5.2479">
        <ele>756</ele>
        <time>2015-11-14T01:24:43Z</time>
      </trkpt>
      <trkpt lat="43.99103" lon="5.24798">
        <ele>756</ele>
        <time>2015-11-14T01:26:43Z</time>
      </trkpt>
      <trkpt lat="43.99108" lon="5.24805">
        <ele>756</ele>
        <time>2015-11-14T01:28:43Z</time>
      </trkpt>
      <trkpt lat="43.99115" lon="5.24814">
        <ele>756</ele>
        <time>2015-11-14T01:30:43Z</time>
      </trkpt>
      <trkpt lat="43.99122" lon="5.24827">
        <ele>756</ele>
        <time>2015-11-14T01:32:43Z</time>
      </trkpt>
      <trkpt lat="43.99125" lon="5.24833">
        <ele>756</ele>
        <time>2015-11-14T01:34:43Z</time>
      </trkpt>
      <trkpt lat="43.99128" lon="5.2484">
        <ele>756</ele>
        <time>2015-11-14T01:36:43Z</time>
      </trkpt>
      <trkpt lat="43.9913" lon="5.24843">
        <ele>756</ele>
        <time>2015-11-14T01:38:43Z</time>
      </trkpt>
      <trkpt lat="43.99132" lon="5.2485">
        <ele>756</ele>
        <time>2015-11-14T01:40:43Z</time>
      </trkpt>
      <trkpt lat="43.9914" lon="5.24873">
        <ele>755</ele>
        <time>2015-11-14T01:42:43Z</time>
      </trkpt>
      <trkpt lat="43.99143" lon="5.24881">
        <ele>755</ele>
        <time>2015-11-14T01:44:43Z</time>
      </trkpt>
      <trkpt lat="43.99157" lon="5.24923">
        <ele>754</ele>
        <time>2015-11-14T01:46:43Z</time>
      </trkpt>
      <trkpt lat="43.99164" lon="5.24942">
        <ele>754</ele>
        <time>2015-11-14T01:48:43Z</time>
      </trkpt>
      <trkpt lat="43.99172" lon="5.24969">
        <ele>752</ele>
        <time>2015-11-14T01:50:43Z</time>
      </trkpt>
      <trkpt lat="43.99177" lon="5.24987">
        <ele>751</ele>
        <time>2015-11-14T01:52:43Z</time>
      </trkpt>
      <trkpt lat="43.9919" lon="5.25037">
        <ele>750</ele>
        <time>2015-11-14T01:54:43Z</time>
      </trkpt>
      <trkpt lat="43.99192" lon="5.25045">
        <ele>750</ele>
        <time>2015-11-14T01:56:43Z</time>
      </trkpt>
      <trkpt lat="43.99196" lon="5.25061">
        <ele>750</ele>
        <time>2015-11-14T01:58:43Z</time>
      </trkpt>
      <trkpt lat="43.99198" lon="5.2507">
        <ele>750</ele>
        <time>2015-11-14T02:00:43Z</time>
      </trkpt>
      <trkpt lat="43.99202" lon="5.25087">
        <ele>751</ele>
        <time>2015-11-14T02:02:43Z</time>
      </trkpt>
      <trkpt lat="43.99204" lon="5.25095">
        <ele>751</ele>
        <time>2015-11-14T02:04:43Z</time>
      </trkpt>
      <trkpt lat="43.99208" lon="5.25113">
        <ele>752</ele>
        <time>2015-11-14T02:06:43Z</time>
      </trkpt>
      <trkpt lat="43.99211" lon="5.25122">
        <ele>753</ele>
        <time>2015-11-14T02:08:43Z</time>
      </trkpt>
      <trkpt lat="43.9922" lon="5.2516">
        <ele>756</ele>
        <time>2015-11-14T02:10:43Z</time>
      </trkpt>
      <trkpt lat="43.9923" lon="5.25198">
        <ele>759</ele>
        <time>2015-11-14T02:12:43Z</time>
      </trkpt>
      <trkpt lat="43.99235" lon="5.25216">
        <ele>761</ele>
        <time>2015-11-14T02:14:43Z</time>
      </trkpt>
      <trkpt lat="43.99237" lon="5.25222">
        <ele>761</ele>
        <time>2015-11-14T02:16:43Z</time>
      </trkpt>
      <trkpt lat="43.9924" lon="5.25234">
        <ele>762</ele>
        <time>2015-11-14T02:18:43Z</time>
      </trkpt>
      <trkpt lat="43.99249" lon="5.2526">
        <ele>764</ele>
        <time>2015-11-14T02:20:43Z</time>
      </trkpt>
      <trkpt lat="43.99252" lon="5.2527">
        <ele>764</ele>
        <time>2015-11-14T02:22:43Z</time>
      </trkpt>
      <trkpt lat="43.99253" lon="5.25275">
        <ele>764</ele>
        <time>2015-11-14T02:24:43Z</time>
      </trkpt>
      <trkpt lat="43.99264" lon="5.25305">
        <ele>765</ele>
        <time>2015-11-14T02:26:43Z</time>
      </trkpt>
      <trkpt lat="43.99266" lon="5.2531">
        <ele>765</ele>
        <time>2015-11-14T02:28:43Z</time>
      </trkpt>
      <trkpt lat="43.99267" lon="5.25316">
        <ele>766</ele>
        <time>2015-11-14T02:30:43Z</time>
      </trkpt>
      <trkpt lat="43.99277" lon="5.25343">
        <ele>766</ele>
        <time>2015-11-14T02:32:43Z</time>
      </trkpt>
      <trkpt lat="43.99279" lon="5.25349">
        <ele>765</ele>
        <time>2015-11-14T02:34:43Z</time>
      </trkpt>
      <trkpt lat="43.99281" lon="5.25355">
        <ele>765</ele>
        <time>2015-11-14T02:36:43Z</time>
      </trkpt>
      <trkpt lat="43.99287" lon="5.25372">
        <ele>765</ele>
        <time>2015-11-14T02:38:43Z</time>
      </trkpt>
      <trkpt lat="43.99289" lon="5.25376">
        <ele>765</ele>
        <time>2015-11-14T02:40:43Z</time>
      </trkpt>
      <trkpt lat="43.99293" lon="5.25383">
        <ele>764</ele>
        <time>2015-11-14T02:42:43Z</time>
      </trkpt>
      <trkpt lat="43.99297" lon="5.25389">
        <ele>764</ele>
        <time>2015-11-14T02:44:43Z</time>
      </trkpt>
      <trkpt lat="43.99301" lon="5.25395">
        <ele>764</ele>
        <time>2015-11-14T02:46:43Z</time>
      </trkpt>
      <trkpt lat="43.99307" lon="5.25402">
        <ele>764</ele>
        <time>2015-11-14T02:48:43Z</time>
      </trkpt>
      <trkpt lat="43.99314" lon="5.25408">
        <ele>764</ele>
        <time>2015-11-14T02:50:43Z</time>
      </trkpt>
      <trkpt lat="43.99329" lon="5.2542">
        <ele>765</ele>
        <time>2015-11-14T02:52:43Z</time>
      </trkpt>
      <trkpt lat="43.99339" lon="5.25429">
        <ele>764</ele>
        <time>2015-11-14T02:54:43Z</time>
      </trkpt>
      <trkpt lat="43.99344" lon="5.25435">
        <ele>763</ele>
        <time>2015-11-14T02:56:43Z</time>
      </trkpt>
      <trkpt lat="43.99348" lon="5.2544">
        <ele>763</ele>
        <time>2015-11-14T02:58:43Z</time>
      </trkpt>
      <trkpt lat="43.99352" lon="5.25447">
        <ele>763</ele>
        <time>2015-11-14T03:00:43Z</time>
      </trkpt>
      <trkpt lat="43.99356" lon="5.25455">
        <ele>762</ele>
        <time>2015-11-14T03:02:43Z</time>
      </trkpt>
      <trkpt lat="43.99371" lon="5.25486">
        <ele>762</ele>
        <time>2015-11-14T03:04:43Z</time>
      </trkpt>
      <trkpt lat="43.99381" lon="5.25505">
        <ele>763</ele>
        <time>2015-11-14T03:06:43Z</time>
      </trkpt>
      <trkpt lat="43.99399" lon="5.25539">
        <ele>761</ele>
        <time>2015-11-14T03:08:43Z</time>
      </trkpt>
      <trkpt lat="43.99413" lon="5.25563">
        <ele>761</ele>
        <time>2015-11-14T03:10:43Z</time>
      </trkpt>
      <trkpt lat="43.99422" lon="5.25578">
        <ele>760</ele>
        <time>2015-11-14T03:12:43Z</time>
      </trkpt>
      <trkpt lat="43.9944" lon="5.25607">
        <ele>756</ele>
        <time>2015-11-14T03:14:43Z</time>
      </trkpt>
      <trkpt lat="43.99469" lon="5.25652">
        <ele>752</ele>
        <time>2015-11-14T03:16:43Z</time>
      </trkpt>
      <trkpt lat="43.99491" lon="5.25684">
        <ele>751</ele>
        <time>2015-11-14T03:18:43Z</time>
      </trkpt>
      <trkpt lat="43.99515" lon="5.2572">
        <ele>749</ele>
        <time>2015-11-14T03:20:43Z</time>
      </trkpt>
      <trkpt lat="43.99525" lon="5.25736">
        <ele>748</ele>
        <time>2015-11-14T03:22:43Z</time>
      </trkpt>
      <trkpt lat="43.99539" lon="5.25759">
        <ele>748</ele>
        <time>2015-11-14T03:24:43Z</time>
      </trkpt>
      <trkpt lat="43.99546" lon="5.25774">
        <ele>748</ele>
        <time>2015-11-14T03:26:43Z</time>
      </trkpt>
      <trkpt lat="43.99557" lon="5.25796">
        <ele>748</ele>
        <time>2015-11-14T03:28:43Z</time>
      </trkpt>
      <trkpt lat="43.9957" lon="5.25824">
        <ele>749</ele>
        <time>2015-11-14T03:30:43Z</time>
      </trkpt>
      <trkpt lat="43.99585" lon="5.2586">
        <ele>750</ele>
        <time>2015-11-14T03:32:43Z</time>
      </trkpt>
      <trkpt lat="43.99591" lon="5.25875">
        <ele>750</ele>
        <time>2015-11-14T03:34:43Z</time>
      </trkpt>
      <trkpt lat="43.99607" lon="5.25913">
        <ele>751</ele>
        <time>2015-11-14T03:36:43Z</time>
      </trkpt>
      <trkpt lat="43.99619" lon="5.25937">
        <ele>751</ele>
        <time>2015-11-14T03:38:43Z</time>
      </trkpt>
      <trkpt lat="43.99627" lon="5.25954">
        <ele>751</ele>
        <time>2015-11-14T03:40:43Z</time>
      </trkpt>
      <trkpt lat="43.99632" lon="5.25963">
        <ele>751</ele>
        <time>2015-11-14T03:42:43Z</time>
      </trkpt>
      <trkpt lat="43.99638" lon="5.25975">
        <ele>751</ele>
        <time>2015-11-14T03:44:43Z</time>
      </trkpt>
      <trkpt lat="43.99644" lon="5.25987">
        <ele>752</ele>
        <time>2015-11-14T03:46:43Z</time>
      </trkpt>
      <trkpt lat="43.99648" lon="5.25999">
        <ele>752</ele>
        <time>2015-11-14T03:48:43Z</time>
      </trkpt>
      <trkpt lat="43.99653" lon="5.26011">
        <ele>752</ele>
        <time>2015-11-14T03:50:43Z</time>
      </trkpt>
      <trkpt lat="43.99657" lon="5.26023">
        <ele>752</ele>
        <time>2015-11-14T03:52:43Z</time>
      </trkpt>
      <trkpt lat="43.9966" lon="5.26035">
        <ele>752</ele>
        <time>2015-11-14T03:54:43Z</time>
      </trkpt>
      <trkpt lat="43.99665" lon="5.26058">
        <ele>752</ele>
        <time>2015-11-14T03:56:43Z</time>
      </trkpt>
      <trkpt lat="43.99669" lon="5.26081">
        <ele>751</ele>
        <time>2015-11-14T03:58:43Z</time>
      </trkpt>
      <trkpt lat="43.9967" lon="5.26093">
        <ele>751</ele>
        <time>2015-11-14T04:00:43Z</time>
      </trkpt>
      <trkpt lat="43.99671" lon="5.26117">
        <ele>750</ele>
        <time>2015-11-14T04:02:43Z</time>
      </trkpt>
      <trkpt lat="43.9967" lon="5.26141">
        <ele>750</ele>
        <time>2015-11-14T04:04:43Z</time>
      </trkpt>
      <trkpt lat="43.99669" lon="5.26165">
        <ele>751</ele>
        <time>2015-11-14T04:06:43Z</time>
      </trkpt>
      <trkpt lat="43.99667" lon="5.26189">
        <ele>751</ele>
        <time>2015-11-14T04:08:43Z</time>
      </trkpt>
      <trkpt lat="43.99664" lon="5.26215">
        <ele>752</ele>
        <time>2015-11-14T04:10:43Z</time>
      </trkpt>
      <trkpt lat="43.9966" lon="5.2624">
        <ele>752</ele>
        <time>2015-11-14T04:12:43Z</time>
      </trkpt>
      <trkpt lat="43.99652" lon="5.26293">
        <ele>755</ele>
        <time>2015-11-14T04:14:43Z</time>
      </trkpt>
      <trkpt lat="43.99648" lon="5.26321">
        <ele>757</ele>
        <time>2015-11-14T04:16:43Z</time>
      </trkpt>
      <trkpt lat="43.99645" lon="5.2635">
        <ele>760</ele>
        <time>2015-11-14T04:18:43Z</time>
      </trkpt>
      <trkpt lat="43.99638" lon="5.26405">
        <ele>765</ele>
        <time>2015-11-14T04:20:43Z</time>
      </trkpt>
      <trkpt lat="43.99631" lon="5.26475">
        <ele>772</ele>
        <time>2015-11-14T04:22:43Z</time>
      </trkpt>
      <trkpt lat="43.99631" lon="5.26483">
        <ele>773</ele>
        <time>2015-11-14T04:24:43Z</time>
      </trkpt>
      <trkpt lat="43.99629" lon="5.26499">
        <ele>775</ele>
        <time>2015-11-14T04:26:43Z</time>
      </trkpt>
      <trkpt lat="43.99628" lon="5.26507">
        <ele>775</ele>
        <time>2015-11-14T04:28:43Z</time>
      </trkpt>
      <trkpt lat="43.99627" lon="5.26523">
        <ele>776</ele>
        <time>2015-11-14T04:30:43Z</time>
      </trkpt>
      <trkpt lat="43.99626" lon="5.26531">
        <ele>777</ele>
        <time>2015-11-14T04:32:43Z</time>
      </trkpt>
      <trkpt lat="43.99624" lon="5.26547">
        <ele>777</ele>
        <time>2015-11-14T04:34:43Z</time>
      </trkpt>
      <trkpt lat="43.99624" lon="5.26556">
        <ele>778</ele>
        <time>2015-11-14T04:36:43Z</time>
      </trkpt>
      <trkpt lat="43.99614" lon="5.26649">
        <ele>780</ele>
        <time>2015-11-14T04:38:43Z</time>
      </trkpt>
      <trkpt lat="43.9961" lon="5.26681">
        <ele>781</ele>
        <time>2015-11-14T04:40:43Z</time>
      </trkpt>
      <trkpt lat="43.99603" lon="5.26739">
        <ele>782</ele>
        <time>2015-11-14T04:42:43Z</time>
      </trkpt>
      <trkpt lat="43.99591" lon="5.26816">
        <ele>783</ele>
        <time>2015-11-14T04:44:43Z</time>
      </trkpt>
      <trkpt lat="43.99584" lon="5.26859">
        <ele>783</ele>
        <time>2015-11-14T04:46:43Z</time>
      </trkpt>
      <trkpt lat="43.99582" lon="5.26868">
        <ele>783</ele>
        <time>2015-11-14T04:48:43Z</time>
      </trkpt>
      <trkpt lat="43.99576" lon="5.26906">
        <ele>781</ele>
        <time>2015-11-14T04:50:43Z</time>
      </trkpt>
      <trkpt lat="43.99565" lon="5.2698">
        <ele>781</ele>
        <time>2015-11-14T04:52:43Z</time>
      </trkpt>
      <trkpt lat="43.99563" lon="5.26989">
        <ele>781</ele>
        <time>2015-11-14T04:54:43Z</time>
      </trkpt>
      <trkpt lat="43.99557" lon="5.27025">
        <ele>781</ele>
        <time>2015-11-14T04:56:43Z</time>
      </trkpt>
      <trkpt lat="43.99548" lon="5.27075">
        <ele>782</ele>
        <time>2015-11-14T04:58:43Z</time>
      </trkpt>
      <trkpt lat="43.99546" lon="5.27083">
        <ele>782</ele>
        <time>2015-11-14T05:00:43Z</time>
      </trkpt>
      <trkpt lat="43.99543" lon="5.27099">
        <ele>782</ele>
        <time>2015-11-14T05:02:43Z</time>
      </trkpt>
      <trkpt lat="43.99531" lon="5.27156">
        <ele>783</ele>
        <time>2015-11-14T05:04:43Z</time>
      </trkpt>
      <trkpt lat="43.99514" lon="5.27232">
        <ele>784</ele>
        <time>2015-11-14T05:06:43Z</time>
      </trkpt>
      <trkpt lat="43.99508" lon="5.27255">
        <ele>785</ele>
        <time>2015-11-14T05:08:43Z</time>
      </trkpt>
      <trkpt lat="43.99503" lon="5.27273">
        <ele>785</ele>
        <time>2015-11-14T05:10:43Z</time>
      </trkpt>
      <trkpt lat="43.99482" lon="5.27353">
        <ele>784</ele>
        <time>2015-11-14T05:12:43Z</time>
      </trkpt>
      <trkpt lat="43.99477" lon="5.27374">
        <ele>784</ele>
        <time>2015-11-14T05:14:43Z</time>
      </trkpt>
      <trkpt lat="43.99473" lon="5.27395">
        <ele>784</ele>
        <time>2015-11-14T05:16:43Z</time>
      </trkpt>
      <trkpt lat="43.99471" lon="5.27406">
        <ele>784</ele>
        <time>2015-11-14T05:18:43Z</time>
      </trkpt>
      <trkpt lat="43.99468" lon="5.27427">
        <ele>784</ele>
        <time>2015-11-14T05:20:43Z</time>
      </trkpt>
      <trkpt lat="43.99465" lon="5.27447">
        <ele>784</ele>
        <time>2015-11-14T05:22:43Z</time>
      </trkpt>
      <trkpt lat="43.99464" lon="5.27457">
        <ele>784</ele>
        <time>2015-11-14T05:24:43Z</time>
      </trkpt>
      <trkpt lat="43.99464" lon="5.27476">
        <ele>784</ele>
        <time>2015-11-14T05:26:43Z</time>
      </trkpt>
      <trkpt lat="43.99464" lon="5.27485">
        <ele>784</ele>
        <time>2015-11-14T05:28:43Z</time>
      </trkpt>
      <trkpt lat="43.99464" lon="5.27493">
        <ele>784</ele>
        <time>2015-11-14T05:30:43Z</time>
      </trkpt>
      <trkpt lat="43.99465" lon="5.27502">
        <ele>783</ele>
        <time>2015-11-14T05:32:43Z</time>
      </trkpt>
      <trkpt lat="43.99466" lon="5.2751">
        <ele>783</ele>
        <time>2015-11-14T05:34:43Z</time>
      </trkpt>
      <trkpt lat="43.99468" lon="5.27517">
        <ele>783</ele>
        <time>2015-11-14T05:36:43Z</time>
      </trkpt>
      <trkpt lat="43.9947" lon="5.27525">
        <ele>783</ele>
        <time>2015-11-14T05:38:43Z</time>
      </trkpt>
      <trkpt lat="43.99473" lon="5.27532">
        <ele>782</ele>
        <time>2015-11-14T05:40:43Z</time>
      </trkpt>
      <trkpt lat="43.99485" lon="5.27558">
        <ele>781</ele>
        <time>2015-11-14T05:42:43Z</time>
      </trkpt>
      <trkpt lat="43.99506" lon="5.27604">
        <ele>780</ele>
        <time>2015-11-14T05:44:43Z</time>
      </trkpt>
      <trkpt lat="43.99527" lon="5.27646">
        <ele>781</ele>
        <time>2015-11-14T05:46:43Z</time>
      </trkpt>
      <trkpt lat="43.99536" lon="5.27664">
        <ele>782</ele>
        <time>2015-11-14T05:48:43Z</time>
      </trkpt>
      <trkpt lat="43.99562" lon="5.27717">
        <ele>787</ele>
        <time>2015-11-14T05:50:43Z</time>
      </trkpt>
      <trkpt lat="43.99569" lon="5.27733">
        <ele>789</ele>
        <time>2015-11-14T05:52:43Z</time>
      </trkpt>
      <trkpt lat="43.99577" lon="5.27749">
        <ele>791</ele>
        <time>2015-11-14T05:54:43Z</time>
      </trkpt>
      <trkpt lat="43.99583" lon="5.27765">
        <ele>792</ele>
        <time>2015-11-14T05:56:43Z</time>
      </trkpt>
      <trkpt lat="43.9959" lon="5.27782">
        <ele>793</ele>
        <time>2015-11-14T05:58:43Z</time>
      </trkpt>
      <trkpt lat="43.99596" lon="5.27799">
        <ele>794</ele>
        <time>2015-11-14T06:00:43Z</time>
      </trkpt>
      <trkpt lat="43.99601" lon="5.27816">
        <ele>795</ele>
        <time>2015-11-14T06:02:43Z</time>
      </trkpt>
      <trkpt lat="43.99606" lon="5.27835">
        <ele>796</ele>
        <time>2015-11-14T06:04:43Z</time>
      </trkpt>
      <trkpt lat="43.9961" lon="5.27854">
        <ele>796</ele>
        <time>2015-11-14T06:06:43Z</time>
      </trkpt>
      <trkpt lat="43.99614" lon="5.27874">
        <ele>795</ele>
        <time>2015-11-14T06:08:43Z</time>
      </trkpt>
      <trkpt lat="43.99618" lon="5.27896">
        <ele>795</ele>
        <time>2015-11-14T06:10:43Z</time>
      </trkpt>
      <trkpt lat="43.99621" lon="5.27919">
        <ele>795</ele>
        <time>2015-11-14T06:12:43Z</time>
      </trkpt>
      <trkpt lat="43.99623" lon="5.27943">
        <ele>795</ele>
        <time>2015-11-14T06:14:43Z</time>
      </trkpt>
      <trkpt lat="43.99626" lon="5.2797">
        <ele>795</ele>
        <time>2015-11-14T06:16:43Z</time>
      </trkpt>
      <trkpt lat="43.99627" lon="5.27999">
        <ele>795</ele>
        <time>2015-11-14T06:18:43Z</time>
      </trkpt>
      <trkpt lat="43.99628" lon="5.28029">
        <ele>795</ele>
        <time>2015-11-14T06:20:43Z</time>
      </trkpt>
      <trkpt lat="43.99629" lon="5.28063">
        <ele>794</ele>
        <time>2015-11-14T06:22:43Z</time>
      </trkpt>
      <trkpt lat="43.99629" lon="5.28098">
        <ele>793</ele>
        <time>2015-11-14T06:24:43Z</time>
      </trkpt>
      <trkpt lat="43.99629" lon="5.28137">
        <ele>791</ele>
        <time>2015-11-14T06:26:43Z</time>
      </trkpt>
      <trkpt lat="43.99628" lon="5.28178">
        <ele>789</ele>
        <time>2015-11-14T06:28:43Z</time>
      </trkpt>
      <trkpt lat="43.99625" lon="5.28271">
        <ele>783</ele>
        <time>2015-11-14T06:30:43Z</time>
      </trkpt>
      <trkpt lat="43.99623" lon="5.28322">
        <ele>780</ele>
        <time>2015-11-14T06:32:43Z</time>
      </trkpt>
      <trkpt lat="43.9962" lon="5.28385">
        <ele>776</ele>
        <time>2015-11-14T06:34:43Z</time>
      </trkpt>
      <trkpt lat="43.9962" lon="5.28392">
        <ele>776</ele>
        <time>2015-11-14T06:36:43Z</time>
      </trkpt>
      <trkpt lat="43.99621" lon="5.28398">
        <ele>776</ele>
        <time>2015-11-14T06:38:43Z</time>
      </trkpt>
      <trkpt lat="43.99622" lon="5.28403">
        <ele>775</ele>
        <time>2015-11-14T06:40:43Z</time>
      </trkpt>
      <trkpt lat="43.99623" lon="5.28408">
        <ele>775</ele>
        <time>2015-11-14T06:42:43Z</time>
      </trkpt>
      <trkpt lat="43.99625" lon="5.28413">
        <ele>774</ele>
        <time>2015-11-14T06:44:43Z</time>
      </trkpt>
      <trkpt lat="43.9963" lon="5.28421">
        <ele>773</ele>
        <time>2015-11-14T06:46:43Z</time>
      </trkpt>
      <trkpt lat="43.99636" lon="5.28429">
        <ele>772</ele>
        <time>2015-11-14T06:48:43Z</time>
      </trkpt>
      <trkpt lat="43.9965" lon="5.28445">
        <ele>770</ele>
        <time>2015-11-14T06:50:43Z</time>
      </trkpt>
      <trkpt lat="43.99658" lon="5.28456">
        <ele>769</ele>
        <time>2015-11-14T06:52:43Z</time>
      </trkpt>
      <trkpt lat="43.99672" lon="5.28476">
        <ele>766</ele>
        <time>2015-11-14T06:54:43Z</time>
      </trkpt>
      <trkpt lat="43.99684" lon="5.28496">
        <ele>764</ele>
        <time>2015-11-14T06:56:43Z</time>
      </trkpt>
      <trkpt lat="43.99689" lon="5.28506">
        <ele>763</ele>
        <time>2015-11-14T06:58:43Z</time>
      </trkpt>
      <trkpt lat="43.99699" lon="5.28524">
        <ele>761</ele>
        <time>2015-11-14T07:00:43Z</time>
      </trkpt>
      <trkpt lat="43.99707" lon="5.28541">
        <ele>760</ele>
        <time>2015-11-14T07:02:43Z</time>
      </trkpt>
      <trkpt lat="43.99719" lon="5.28566">
        <ele>759</ele>
        <time>2015-11-14T07:04:43Z</time>
      </trkpt>
      <trkpt lat="43.99726" lon="5.28581">
        <ele>759</ele>
        <time>2015-11-14T07:06:43Z</time>
      </trkpt>
      <trkpt lat="43.99732" lon="5.28597">
        <ele>759</ele>
        <time>2015-11-14T07:08:43Z</time>
      </trkpt>
      <trkpt lat="43.99745" lon="5.28626">
        <ele>759</ele>
        <time>2015-11-14T07:10:43Z</time>
      </trkpt>
      <trkpt lat="43.99759" lon="5.28656">
        <ele>758</ele>
        <time>2015-11-14T07:12:43Z</time>
      </trkpt>
      <trkpt lat="43.99772" lon="5.28678">
        <ele>758</ele>
        <time>2015-11-14T07:14:43Z</time>
      </trkpt>
      <trkpt lat="43.99788" lon="5.28702">
        <ele>759</ele>
        <time>2015-11-14T07:16:43Z</time>
      </trkpt>
      <trkpt lat="43.99803" lon="5.28722">
        <ele>760</ele>
        <time>2015-11-14T07:18:43Z</time>
      </trkpt>
      <trkpt lat="43.99812" lon="5.28732">
        <ele>761</ele>
        <time>2015-11-14T07:20:43Z</time>
      </trkpt>
      <trkpt lat="43.99824" lon="5.28744">
        <ele>762</ele>
        <time>2015-11-14T07:22:43Z</time>
      </trkpt>
      <trkpt lat="43.9983" lon="5.28748">
        <ele>762</ele>
        <time>2015-11-14T07:24:43Z</time>
      </trkpt>
      <trkpt lat="43.99836" lon="5.28753">
        <ele>763</ele>
        <time>2015-11-14T07:26:43Z</time>
      </trkpt>
      <trkpt lat="43.99847" lon="5.2876">
        <ele>764</ele>
        <time>2015-11-14T07:28:43Z</time>
      </trkpt>
      <trkpt lat="43.99873" lon="5.28774">
        <ele>767</ele>
        <time>2015-11-14T07:30:43Z</time>
      </trkpt>
      <trkpt lat="43.99879" lon="5.28778">
        <ele>768</ele>
        <time>2015-11-14T07:32:43Z</time>
      </trkpt>
      <trkpt lat="43.99894" lon="5.28786">
        <ele>770</ele>
        <time>2015-11-14T07:34:43Z</time>
      </trkpt>
      <trkpt lat="43.9991" lon="5.28796">
        <ele>773</ele>
        <time>2015-11-14T07:36:43Z</time>
      </trkpt>
      <trkpt lat="43.99923" lon="5.28803">
        <ele>775</ele>
        <time>2015-11-14T07:38:43Z</time>
      </trkpt>
      <trkpt lat="43.99936" lon="5.28808">
        <ele>776</ele>
        <time>2015-11-14T07:40:43Z</time>
      </trkpt>
      <trkpt lat="43.99943" lon="5.28811">
        <ele>776</ele>
        <time>2015-11-14T07:42:43Z</time>
      </trkpt>
      <trkpt lat="43.99959" lon="5.28815">
        <ele>777</ele>
        <time>2015-11-14T07:44:43Z</time>
      </trkpt>
      <trkpt lat="43.99966" lon="5.28817">
        <ele>778</ele>
        <time>2015-11-14T07:46:43Z</time>
      </trkpt>
      <trkpt lat="44.00002" lon="5.28824">
        <ele>779</ele>
        <time>2015-11-14T07:48:43Z</time>
      </trkpt>
      <trkpt lat="44.0002" lon="5.28828">
        <ele>780</ele>
        <time>2015-11-14T07:50:43Z</time>
      </trkpt>
      <trkpt lat="44.00029" lon="5.28831">
        <ele>781</ele>
        <time>2015-11-14T07:52:43Z</time>
      </trkpt>
      <trkpt lat="44.0009" lon="5.28852">
        <ele>784</ele>
        <time>2015-11-14T07:54:43Z</time>
      </trkpt>
      <trkpt lat="44.0012" lon="5.28863">
        <ele>784</ele>
        <time>2015-11-14T07:56:43Z</time>
      </trkpt>
      <trkpt lat="44.00148" lon="5.28874">
        <ele>784</ele>
        <time>2015-11-14T07:58:43Z</time>
      </trkpt>
      <trkpt lat="44.00175" lon="5.28886">
        <ele>783</ele>
        <time>2015-11-14T08:00:43Z</time>
      </trkpt>
      <trkpt lat="44.00193" lon="5.28894">
        <ele>783</ele>
        <time>2015-11-14T08:02:43Z</time>
      </trkpt>
      <trkpt lat="44.00237" lon="5.28915">
        <ele>781</ele>
        <time>2015-11-14T08:04:43Z</time>
      </trkpt>
      <trkpt lat="44.00265" lon="5.28928">
        <ele>780</ele>
        <time>2015-11-14T08:06:43Z</time>
      </trkpt>
      <trkpt lat="44.00336" lon="5.28966">
        <ele>775</ele>
        <time>2015-11-14T08:08:43Z</time>
      </trkpt>
      <trkpt lat="44.00361" lon="5.2898">
        <ele>772</ele>
        <time>2015-11-14T08:10:43Z</time>
      </trkpt>
      <trkpt lat="44.00379" lon="5.28991">
        <ele>769</ele>
        <time>2015-11-14T08:12:43Z</time>
      </trkpt>
      <trkpt lat="44.00395" lon="5.29002">
        <ele>768</ele>
        <time>2015-11-14T08:14:43Z</time>
      </trkpt>
      <trkpt lat="44.0041" lon="5.29013">
        <ele>766</ele>
        <time>2015-11-14T08:16:43Z</time>
      </trkpt>
      <trkpt lat="44.00434" lon="5.29031">
        <ele>764</ele>
        <time>2015-11-14T08:18:43Z</time>
      </trkpt>
      <trkpt lat="44.00449" lon="5.29042">
        <ele>763</ele>
        <time>2015-11-14T08:20:43Z</time>
      </trkpt>
      <trkpt lat="44.00469" lon="5.29057">
        <ele>761</ele>
        <time>2015-11-14T08:22:43Z</time>
      </trkpt>
      <trkpt lat="44.00485" lon="5.29068">
        <ele>760</ele>
        <time>2015-11-14T08:24:43Z</time>
      </trkpt>
      <trkpt lat="44.00508" lon="5.29083">
        <ele>759</ele>
        <time>2015-11-14T08:26:43Z</time>
      </trkpt>
      <trkpt lat="44.00521" lon="5.29091">
        <ele>757</ele>
        <time>2015-11-14T08:28:43Z</time>
      </trkpt>
      <trkpt lat="44.00528" lon="5.29094">
        <ele>756</ele>
        <time>2015-11-14T08:30:43Z</time>
      </trkpt>
      <trkpt lat="44.00547" lon="5.29106">
        <ele>755</ele>
        <time>2015-11-14T08:32:43Z</time>
      </trkpt>
      <trkpt lat="44.00576" lon="5.29125">
        <ele>753</ele>
        <time>2015-11-14T08:34:43Z</time>
      </trkpt>
      <trkpt lat="44.00592" lon="5.29137">
        <ele>752</ele>
        <time>2015-11-14T08:36:43Z</time>
      </trkpt>
      <trkpt lat="44.00623" lon="5.2916">
        <ele>752</ele>
        <time>2015-11-14T08:38:43Z</time>
      </trkpt>
      <trkpt lat="44.00653" lon="5.29186">
        <ele>751</ele>
        <time>2015-11-14T08:40:43Z</time>
      </trkpt>
      <trkpt lat="44.00659" lon="5.2919">
        <ele>751</ele>
        <time>2015-11-14T08:42:43Z</time>
      </trkpt>
      <trkpt lat="44.00676" lon="5.29204">
        <ele>750</ele>
        <time>2015-11-14T08:44:43Z</time>
      </trkpt>
      <trkpt lat="44.00712" lon="5.29233">
        <ele>749</ele>
        <time>2015-11-14T08:46:43Z</time>
      </trkpt>
      <trkpt lat="44.00741" lon="5.29258">
        <ele>750</ele>
        <time>2015-11-14T08:48:43Z</time>
      </trkpt>
      <trkpt lat="44.00768" lon="5.29282">
        <ele>748</ele>
        <time>2015-11-14T08:50:43Z</time>
      </trkpt>
      <trkpt lat="44.00792" lon="5.29307">
        <ele>747</ele>
        <time>2015-11-14T08:52:43Z</time>
      </trkpt>
      <trkpt lat="44.00815" lon="5.29332">
        <ele>747</ele>
        <time>2015-11-14T08:54:43Z</time>
      </trkpt>
      <trkpt lat="44.00836" lon="5.29357">
        <ele>747</ele>
        <time>2015-11-14T08:56:43Z</time>
      </trkpt>
      <trkpt lat="44.00865" lon="5.29392">
        <ele>747</ele>
        <time>2015-11-14T08:58:43Z</time>
      </trkpt>
      <trkpt lat="44.00872" lon="5.29401">
        <ele>747</ele>
        <time>2015-11-14T09:00:43Z</time>
      </trkpt>
      <trkpt lat="44.00879" lon="5.2941">
        <ele>747</ele>
        <time>2015-11-14T09:02:43Z</time>
      </trkpt>
      <trkpt lat="44.00886" lon="5.2942">
        <ele>747</ele>
        <time>2015-11-14T09:04:43Z</time>
      </trkpt>
      <trkpt lat="44.00918" lon="5.29458">
        <ele>749</ele>
        <time>2015-11-14T09:06:43Z</time>
      </trkpt>
      <trkpt lat="44.00943" lon="5.29489">
        <ele>751</ele>
        <time>2015-11-14T09:08:43Z</time>
      </trkpt>
      <trkpt lat="44.00962" lon="5.2951">
        <ele>752</ele>
        <time>2015-11-14T09:10:43Z</time>
      </trkpt>
      <trkpt lat="44.00972" lon="5.29521">
        <ele>752</ele>
        <time>2015-11-14T09:12:43Z</time>
      </trkpt>
      <trkpt lat="44.01044" lon="5.29602">
        <ele>753</ele>
        <time>2015-11-14T09:14:43Z</time>
      </trkpt>
      <trkpt lat="44.01052" lon="5.29611">
        <ele>754</ele>
        <time>2015-11-14T09:16:43Z</time>
      </trkpt>
      <trkpt lat="44.01091" lon="5.29656">
        <ele>757</ele>
        <time>2015-11-14T09:18:43Z</time>
      </trkpt>
      <trkpt lat="44.01098" lon="5.29665">
        <ele>758</ele>
        <time>2015-11-14T09:20:43Z</time>
      </trkpt>
      <trkpt lat="44.01106" lon="5.29673">
        <ele>758</ele>
        <time>2015-11-14T09:22:43Z</time>
      </trkpt>
      <trkpt lat="44.01121" lon="5.29691">
        <ele>759</ele>
        <time>2015-11-14T09:24:43Z</time>
      </trkpt>
      <trkpt lat="44.01129" lon="5.29701">
        <ele>760</ele>
        <time>2015-11-14T09:26:43Z</time>
      </trkpt>
      <trkpt lat="44.01136" lon="5.2971">
        <ele>761</ele>
        <time>2015-11-14T09:28:43Z</time>
      </trkpt>
      <trkpt lat="44.01144" lon="5.29719">
        <ele>762</ele>
        <time>2015-11-14T09:30:43Z</time>
      </trkpt>
      <trkpt lat="44.01152" lon="5.29729">
        <ele>763</ele>
        <time>2015-11-14T09:32:43Z</time>
      </trkpt>
      <trkpt lat="44.01185" lon="5.2977">
        <ele>766</ele>
        <time>2015-11-14T09:34:43Z</time>
      </trkpt>
      <trkpt lat="44.01193" lon="5.2978">
        <ele>767</ele>
        <time>2015-11-14T09:36:43Z</time>
      </trkpt>
      <trkpt lat="44.01211" lon="5.29803">
        <ele>769</ele>
        <time>2015-11-14T09:38:43Z</time>
      </trkpt>
      <trkpt lat="44.01221" lon="5.29815">
        <ele>771</ele>
        <time>2015-11-14T09:40:43Z</time>
      </trkpt>
      <trkpt lat="44.01288" lon="5.29901">
        <ele>778</ele>
        <time>2015-11-14T09:42:43Z</time>
      </trkpt>
      <trkpt lat="44.01296" lon="5.29911">
        <ele>779</ele>
        <time>2015-11-14T09:44:43Z</time>
      </trkpt>
      <trkpt lat="44.013" lon="5.29916">
        <ele>779</ele>
        <time>2015-11-14T09:46:43Z</time>
      </trkpt>
      <trkpt lat="44.01335" lon="5.29963">
        <ele>782</ele>
        <time>2015-11-14T09:48:43Z</time>
      </trkpt>
      <trkpt lat="44.01344" lon="5.29975">
        <ele>782</ele>
        <time>2015-11-14T09:50:43Z</time>
      </trkpt>
      <trkpt lat="44.01349" lon="5.29981">
        <ele>782</ele>
        <time>2015-11-14T09:52:43Z</time>
      </trkpt>
      <trkpt lat="44.01353" lon="5.29987">
        <ele>783</ele>
        <time>2015-11-14T09:54:43Z</time>
      </trkpt>
      <trkpt lat="44.01377" lon="5.3002">
        <ele>784</ele>
        <time>2015-11-14T09:56:43Z</time>
      </trkpt>
      <trkpt lat="44.01384" lon="5.30029">
        <ele>785</ele>
        <time>2015-11-14T09:58:43Z</time>
      </trkpt>
      <trkpt lat="44.01404" lon="5.30052">
        <ele>786</ele>
        <time>2015-11-14T10:00:43Z</time>
      </trkpt>
      <trkpt lat="44.01416" lon="5.30068">
        <ele>787</ele>
        <time>2015-11-14T10:02:43Z</time>
      </trkpt>
      <trkpt lat="44.01429" lon="5.30086">
        <ele>787</ele>
        <time>2015-11-14T10:04:43Z</time>
      </trkpt>
      <trkpt lat="44.01433" lon="5.30092">
        <ele>787</ele>
        <time>2015-11-14T10:06:43Z</time>
      </trkpt>
      <trkpt lat="44.0145" lon="5.30119">
        <ele>788</ele>
        <time>2015-11-14T10:08:43Z</time>
      </trkpt>
      <trkpt lat="44.01457" lon="5.3013">
        <ele>789</ele>
        <time>2015-11-14T10:10:43Z</time>
      </trkpt>
      <trkpt lat="44.01467" lon="5.30147">
        <ele>790</ele>
        <time>2015-11-14T10:12:43Z</time>
      </trkpt>
      <trkpt lat="44.01487" lon="5.30177">
        <ele>792</ele>
        <time>2015-11-14T10:14:43Z</time>
      </trkpt>
      <trkpt lat="44.0151" lon="5.3021">
        <ele>792</ele>
        <time>2015-11-14T10:16:43Z</time>
      </trkpt>
      <trkpt lat="44.01521" lon="5.30225">
        <ele>792</ele>
        <time>2015-11-14T10:18:43Z</time>
      </trkpt>
      <trkpt lat="44.01524" lon="5.3023">
        <ele>792</ele>
        <time>2015-11-14T10:20:43Z</time>
      </trkpt>
      <trkpt lat="44.01536" lon="5.30246">
        <ele>793</ele>
        <time>2015-11-14T10:22:43Z</time>
      </trkpt>
      <trkpt lat="44.01565" lon="5.30285">
        <ele>794</ele>
        <time>2015-11-14T10:24:43Z</time>
      </trkpt>
      <trkpt lat="44.01577" lon="5.303">
        <ele>795</ele>
        <time>2015-11-14T10:26:43Z</time>
      </trkpt>
      <trkpt lat="44.016" lon="5.30326">
        <ele>797</ele>
        <time>2015-11-14T10:28:43Z</time>
      </trkpt>
      <trkpt lat="44.01606" lon="5.30332">
        <ele>797</ele>
        <time>2015-11-14T10:30:43Z</time>
      </trkpt>
      <trkpt lat="44.01611" lon="5.30338">
        <ele>797</ele>
        <time>2015-11-14T10:32:43Z</time>
      </trkpt>
      <trkpt lat="44.01622" lon="5.30349">
        <ele>798</ele>
        <time>2015-11-14T10:34:43Z</time>
      </trkpt>
      <trkpt lat="44.0166" lon="5.30387">
        <ele>800</ele>
        <time>2015-11-14T10:36:43Z</time>
      </trkpt>
      <trkpt lat="44.01666" lon="5.30392">
        <ele>801</ele>
        <time>2015-11-14T10:38:43Z</time>
      </trkpt>
      <trkpt lat="44.01671" lon="5.30398">
        <ele>801</ele>
        <time>2015-11-14T10:40:43Z</time>
      </trkpt>
      <trkpt lat="44.01677" lon="5.30403">
        <ele>801</ele>
        <time>2015-11-14T10:42:43Z</time>
      </trkpt>
      <trkpt lat="44.01707" lon="5.30432">
        <ele>801</ele>
        <time>2015-11-14T10:44:43Z</time>
      </trkpt>
      <trkpt lat="44.01726" lon="5.30452">
        <ele>800</ele>
        <time>2015-11-14T10:46:43Z</time>
      </trkpt>
      <trkpt lat="44.01745" lon="5.30473">
        <ele>800</ele>
        <time>2015-11-14T10:48:43Z</time>
      </trkpt>
      <trkpt lat="44.01756" lon="5.30485">
        <ele>800</ele>
        <time>2015-11-14T10:50:43Z</time>
      </trkpt>
      <trkpt lat="44.01772" lon="5.30503">
        <ele>799</ele>
        <time>2015-11-14T10:52:43Z</time>
      </trkpt>
      <trkpt lat="44.01785" lon="5.30521">
        <ele>798</ele>
        <time>2015-11-14T10:54:43Z</time>
      </trkpt>
      <trkpt lat="44.01798" lon="5.30539">
        <ele>798</ele>
        <time>2015-11-14T10:56:43Z</time>
      </trkpt>
      <trkpt lat="44.01806" lon="5.30551">
        <ele>798</ele>
        <time>2015-11-14T10:58:43Z</time>
      </trkpt>
      <trkpt lat="44.01814" lon="5.30563">
        <ele>798</ele>
        <time>2015-11-14T11:00:43Z</time>
      </trkpt>
      <trkpt lat="44.01824" lon="5.30581">
        <ele>798</ele>
        <time>2015-11-14T11:02:43Z</time>
      </trkpt>
      <trkpt lat="44.01832" lon="5.30594">
        <ele>799</ele>
        <time>2015-11-14T11:04:43Z</time>
      </trkpt>
      <trkpt lat="44.01846" lon="5.30622">
        <ele>799</ele>
        <time>2015-11-14T11:06:43Z</time>
      </trkpt>
      <trkpt lat="44.01861" lon="5.30652">
        <ele>799</ele>
        <time>2015-11-14T11:08:43Z</time>
      </trkpt>
      <trkpt lat="44.01877" lon="5.30688">
        <ele>801</ele>
        <time>2015-11-14T11:10:43Z</time>
      </trkpt>
      <trkpt lat="44.01887" lon="5.30707">
        <ele>803</ele>
        <time>2015-11-14T11:12:43Z</time>
      </trkpt>
      <trkpt lat="44.01897" lon="5.30724">
        <ele>804</ele>
        <time>2015-11-14T11:14:43Z</time>
      </trkpt>
      <trkpt lat="44.01908" lon="5.30739">
        <ele>806</ele>
        <time>2015-11-14T11:16:43Z</time>
      </trkpt>
      <trkpt lat="44.01913" lon="5.30746">
        <ele>807</ele>
        <time>2015-11-14T11:18:43Z</time>
      </trkpt>
      <trkpt lat="44.01924" lon="5.30758">
        <ele>808</ele>
        <time>2015-11-14T11:20:43Z</time>
      </trkpt>
      <trkpt lat="44.01935" lon="5.3077">
        <ele>809</ele>
        <time>2015-11-14T11:22:43Z</time>
      </trkpt>
      <trkpt lat="44.01946" lon="5.30781">
        <ele>811</ele>
        <time>2015-11-14T11:24:43Z</time>
      </trkpt>
      <trkpt lat="44.01958" lon="5.30792">
        <ele>813</ele>
        <time>2015-11-14T11:26:43Z</time>
      </trkpt>
      <trkpt lat="44.02" lon="5.30827">
        <ele>819</ele>
        <time>2015-11-14T11:28:43Z</time>
      </trkpt>
      <trkpt lat="44.02019" lon="5.30844">
        <ele>824</ele>
        <time>2015-11-14T11:30:43Z</time>
      </trkpt>
      <trkpt lat="44.02032" lon="5.30857">
        <ele>828</ele>
        <time>2015-11-14T11:32:43Z</time>
      </trkpt>
      <trkpt lat="44.02039" lon="5.30864">
        <ele>830</ele>
        <time>2015-11-14T11:34:43Z</time>
      </trkpt>
      <trkpt lat="44.02052" lon="5.30878">
        <ele>834</ele>
        <time>2015-11-14T11:36:43Z</time>
      </trkpt>
      <trkpt lat="44.02105" lon="5.30941">
        <ele>847</ele>
        <time>2015-11-14T11:38:43Z</time>
      </trkpt>
      <trkpt lat="44.02136" lon="5.30979">
        <ele>852</ele>
        <time>2015-11-14T11:40:43Z</time>
      </trkpt>
      <trkpt lat="44.02166" lon="5.31014">
        <ele>856</ele>
        <time>2015-11-14T11:42:43Z</time>
      </trkpt>
      <trkpt lat="44.02175" lon="5.31025">
        <ele>856</ele>
        <time>2015-11-14T11:44:43Z</time>
      </trkpt>
      <trkpt lat="44.02185" lon="5.31036">
        <ele>857</ele>
        <time>2015-11-14T11:46:43Z</time>
      </trkpt>
      <trkpt lat="44.02194" lon="5.31047">
        <ele>857</ele>
        <time>2015-11-14T11:48:43Z</time>
      </trkpt>
      <trkpt lat="44.02222" lon="5.31079">
        <ele>860</ele>
        <time>2015-11-14T11:50:43Z</time>
      </trkpt>
      <trkpt lat="44.0234" lon="5.31216">
        <ele>872</ele>
        <time>2015-11-14T11:52:43Z</time>
      </trkpt>
      <trkpt lat="44.02405" lon="5.31292">
        <ele>872</ele>
        <time>2015-11-14T11:54:43Z</time>
      </trkpt>
      <trkpt lat="44.02429" lon="5.31318">
        <ele>871</ele>
        <time>2015-11-14T11:56:43Z</time>
      </trkpt>
      <trkpt lat="44.02461" lon="5.31354">
        <ele>868</ele>
        <time>2015-11-14T11:58:43Z</time>
      </trkpt>
      <trkpt lat="44.02466" lon="5.31359">
        <ele>867</ele>
        <time>2015-11-14T12:00:43Z</time>
      </trkpt>
      <trkpt lat="44.02518" lon="5.31417">
        <ele>867</ele>
        <time>2015-11-14T12:02:43Z</time>
      </trkpt>
      <trkpt lat="44.02529" lon="5.3143">
        <ele>865</ele>
        <time>2015-11-14T12:04:43Z</time>
      </trkpt>
      <trkpt lat="44.02546" lon="5.3145">
        <ele>862</ele>
        <time>2015-11-14T12:06:43Z</time>
      </trkpt>
      <trkpt lat="44.02565" lon="5.31473">
        <ele>859</ele>
        <time>2015-11-14T12:08:43Z</time>
      </trkpt>
      <trkpt lat="44.0257" lon="5.31478">
        <ele>859</ele>
        <time>2015-11-14T12:10:43Z</time>
      </trkpt>
      <trkpt lat="44.02575" lon="5.31483">
        <ele>858</ele>
        <time>2015-11-14T12:12:43Z</time>
      </trkpt>
      <trkpt lat="44.02581" lon="5.31486">
        <ele>857</ele>
        <time>2015-11-14T12:14:43Z</time>
      </trkpt>
      <trkpt lat="44.02589" lon="5.31491">
        <ele>857</ele>
        <time>2015-11-14T12:16:43Z</time>
      </trkpt>
      <trkpt lat="44.0261" lon="5.31499">
        <ele>856</ele>
        <time>2015-11-14T12:18:43Z</time>
      </trkpt>
      <trkpt lat="44.02618" lon="5.31503">
        <ele>856</ele>
        <time>2015-11-14T12:20:43Z</time>
      </trkpt>
      <trkpt lat="44.0262" lon="5.31505">
        <ele>856</ele>
        <time>2015-11-14T12:22:43Z</time>
      </trkpt>
      <trkpt lat="44.02622" lon="5.31506">
        <ele>856</ele>
        <time>2015-11-14T12:24:43Z</time>
      </trkpt>
      <trkpt lat="44.02631" lon="5.31514">
        <ele>854</ele>
        <time>2015-11-14T12:26:43Z</time>
      </trkpt>
      <trkpt lat="44.02634" lon="5.3152">
        <ele>854</ele>
        <time>2015-11-14T12:28:43Z</time>
      </trkpt>
      <trkpt lat="44.02637" lon="5.31526">
        <ele>853</ele>
        <time>2015-11-14T12:30:43Z</time>
      </trkpt>
      <trkpt lat="44.0264" lon="5.31534">
        <ele>851</ele>
        <time>2015-11-14T12:32:43Z</time>
      </trkpt>
      <trkpt lat="44.02641" lon="5.31538">
        <ele>851</ele>
        <time>2015-11-14T12:34:43Z</time>
      </trkpt>
      <trkpt lat="44.02643" lon="5.31546">
        <ele>849</ele>
        <time>2015-11-14T12:36:43Z</time>
      </trkpt>
      <trkpt lat="44.02643" lon="5.31554">
        <ele>848</ele>
        <time>2015-11-14T12:38:43Z</time>
      </trkpt>
      <trkpt lat="44.02643" lon="5.31558">
        <ele>848</ele>
        <time>2015-11-14T12:40:43Z</time>
      </trkpt>
      <trkpt lat="44.02641" lon="5.31565">
        <ele>846</ele>
        <time>2015-11-14T12:42:43Z</time>
      </trkpt>
      <trkpt lat="44.02639" lon="5.31571">
        <ele>846</ele>
        <time>2015-11-14T12:44:43Z</time>
      </trkpt>
      <trkpt lat="44.02636" lon="5.31577">
        <ele>845</ele>
        <time>2015-11-14T12:46:43Z</time>
      </trkpt>
      <trkpt lat="44.02632" lon="5.31583">
        <ele>844</ele>
        <time>2015-11-14T12:48:43Z</time>
      </trkpt>
      <trkpt lat="44.02627" lon="5.31589">
        <ele>843</ele>
        <time>2015-11-14T12:50:43Z</time>
      </trkpt>
      <trkpt lat="44.02622" lon="5.31594">
        <ele>843</ele>
        <time>2015-11-14T12:52:43Z</time>
      </trkpt>
      <trkpt lat="44.02614" lon="5.31603">
        <ele>842</ele>
        <time>2015-11-14T12:54:43Z</time>
      </trkpt>
      <trkpt lat="44.02593" lon="5.31621">
        <ele>840</ele>
        <time>2015-11-14T12:56:43Z</time>
      </trkpt>
      <trkpt lat="44.02584" lon="5.31629">
        <ele>840</ele>
        <time>2015-11-14T12:58:43Z</time>
      </trkpt>
      <trkpt lat="44.02578" lon="5.31635">
        <ele>839</ele>
        <time>2015-11-14T13:00:43Z</time>
      </trkpt>
      <trkpt lat="44.02576" lon="5.31638">
        <ele>839</ele>
        <time>2015-11-14T13:02:43Z</time>
      </trkpt>
      <trkpt lat="44.02574" lon="5.31641">
        <ele>839</ele>
        <time>2015-11-14T13:04:43Z</time>
      </trkpt>
      <trkpt lat="44.02571" lon="5.31648">
        <ele>838</ele>
        <time>2015-11-14T13:06:43Z</time>
      </trkpt>
      <trkpt lat="44.0257" lon="5.31652">
        <ele>838</ele>
        <time>2015-11-14T13:08:43Z</time>
      </trkpt>
      <trkpt lat="44.02569" lon="5.31659">
        <ele>837</ele>
        <time>2015-11-14T13:10:43Z</time>
      </trkpt>
      <trkpt lat="44.02569" lon="5.31666">
        <ele>836</ele>
        <time>2015-11-14T13:12:43Z</time>
      </trkpt>
      <trkpt lat="44.0257" lon="5.31674">
        <ele>836</ele>
        <time>2015-11-14T13:14:43Z</time>
      </trkpt>
      <trkpt lat="44.02574" lon="5.3169">
        <ele>835</ele>
        <time>2015-11-14T13:16:43Z</time>
      </trkpt>
      <trkpt lat="44.02578" lon="5.31703">
        <ele>835</ele>
        <time>2015-11-14T13:18:43Z</time>
      </trkpt>
      <trkpt lat="44.02586" lon="5.31731">
        <ele>833</ele>
        <time>2015-11-14T13:20:43Z</time>
      </trkpt>
      <trkpt lat="44.0259" lon="5.31745">
        <ele>833</ele>
        <time>2015-11-14T13:22:43Z</time>
      </trkpt>
      <trkpt lat="44.02592" lon="5.31755">
        <ele>832</ele>
        <time>2015-11-14T13:24:43Z</time>
      </trkpt>
      <trkpt lat="44.02594" lon="5.31765">
        <ele>832</ele>
        <time>2015-11-14T13:26:43Z</time>
      </trkpt>
      <trkpt lat="44.02595" lon="5.3179">
        <ele>832</ele>
        <time>2015-11-14T13:28:43Z</time>
      </trkpt>
      <trkpt lat="44.02596" lon="5.31802">
        <ele>831</ele>
        <time>2015-11-14T13:30:43Z</time>
      </trkpt>
      <trkpt lat="44.02596" lon="5.31813">
        <ele>831</ele>
        <time>2015-11-14T13:32:43Z</time>
      </trkpt>
      <trkpt lat="44.02595" lon="5.31835">
        <ele>831</ele>
        <time>2015-11-14T13:34:43Z</time>
      </trkpt>
      <trkpt lat="44.02594" lon="5.31856">
        <ele>831</ele>
        <time>2015-11-14T13:36:43Z</time>
      </trkpt>
      <trkpt lat="44.02591" lon="5.31882">
        <ele>832</ele>
        <time>2015-11-14T13:38:43Z</time>
      </trkpt>
      <trkpt lat="44.02591" lon="5.31887">
        <ele>832</ele>
        <time>2015-11-14T13:40:43Z</time>
      </trkpt>
      <trkpt lat="44.02587" lon="5.31927">
        <ele>831</ele>
        <time>2015-11-14T13:42:43Z</time>
      </trkpt>
      <trkpt lat="44.02586" lon="5.31947">
        <ele>831</ele>
        <time>2015-11-14T13:44:43Z</time>
      </trkpt>
      <trkpt lat="44.02586" lon="5.31958">
        <ele>830</ele>
        <time>2015-11-14T13:46:43Z</time>
      </trkpt>
      <trkpt lat="44.02584" lon="5.31977">
        <ele>830</ele>
        <time>2015-11-14T13:48:43Z</time>
      </trkpt>
      <trkpt lat="44.02598" lon="5.32001">
        <ele>828</ele>
        <time>2015-11-14T13:50:43Z</time>
      </trkpt>
      <trkpt lat="44.02609" lon="5.32021">
        <ele>828</ele>
        <time>2015-11-14T13:52:43Z</time>
      </trkpt>
      <trkpt lat="44.0262" lon="5.32039">
        <ele>827</ele>
        <time>2015-11-14T13:54:43Z</time>
      </trkpt>
      <trkpt lat="44.02627" lon="5.32052">
        <ele>826</ele>
        <time>2015-11-14T13:56:43Z</time>
      </trkpt>
      <trkpt lat="44.02645" lon="5.32066">
        <ele>824</ele>
        <time>2015-11-14T13:58:43Z</time>
      </trkpt>
      <trkpt lat="44.02698" lon="5.32079">
        <ele>820</ele>
        <time>2015-11-14T14:00:43Z</time>
      </trkpt>
      <trkpt lat="44.0272" lon="5.32071">
        <ele>819</ele>
        <time>2015-11-14T14:02:43Z</time>
      </trkpt>
      <trkpt lat="44.02742" lon="5.321">
        <ele>816</ele>
        <time>2015-11-14T14:04:43Z</time>
      </trkpt>
      <trkpt lat="44.02763" lon="5.32121">
        <ele>815</ele>
        <time>2015-11-14T14:06:43Z</time>
      </trkpt>
      <trkpt lat="44.02793" lon="5.32125">
        <ele>816</ele>
        <time>2015-11-14T14:08:43Z</time>
      </trkpt>
      <trkpt lat="44.02807" lon="5.32122">
        <ele>816</ele>
        <time>2015-11-14T14:10:43Z</time>
      </trkpt>
      <trkpt lat="44.02831" lon="5.32124">
        <ele>817</ele>
        <time>2015-11-14T14:12:43Z</time>
      </trkpt>
      <trkpt lat="44.02843" lon="5.32123">
        <ele>818</ele>
        <time>2015-11-14T14:14:43Z</time>
      </trkpt>
      <trkpt lat="44.02862" lon="5.32111">
        <ele>820</ele>
        <time>2015-11-14T14:16:43Z</time>
      </trkpt>
      <trkpt lat="44.02902" lon="5.32132">
        <ele>824</ele>
        <time>2015-11-14T14:18:43Z</time>
      </trkpt>
      <trkpt lat="44.02909" lon="5.3214">
        <ele>825</ele>
        <time>2015-11-14T14:20:43Z</time>
      </trkpt>
      <trkpt lat="44.02933" lon="5.32143">
        <ele>827</ele>
        <time>2015-11-14T14:22:43Z</time>
      </trkpt>
      <trkpt lat="44.02942" lon="5.32146">
        <ele>828</ele>
        <time>2015-11-14T14:24:43Z</time>
      </trkpt>
      <trkpt lat="44.02957" lon="5.32152">
        <ele>830</ele>
        <time>2015-11-14T14:26:43Z</time>
      </trkpt>
      <trkpt lat="44.02965" lon="5.32162">
        <ele>832</ele>
        <time>2015-11-14T14:28:43Z</time>
      </trkpt>
      <trkpt lat="44.02973" lon="5.32168">
        <ele>832</ele>
        <time>2015-11-14T14:30:43Z</time>
      </trkpt>
      <trkpt lat="44.02993" lon="5.32184">
        <ele>832</ele>
        <time>2015-11-14T14:32:43Z</time>
      </trkpt>
      <trkpt lat="44.0305" lon="5.32223">
        <ele>830</ele>
        <time>2015-11-14T14:34:43Z</time>
      </trkpt>
      <trkpt lat="44.03079" lon="5.32236">
        <ele>830</ele>
        <time>2015-11-14T14:36:43Z</time>
      </trkpt>
      <trkpt lat="44.03122" lon="5.32244">
        <ele>828</ele>
        <time>2015-11-14T14:38:43Z</time>
      </trkpt>
      <trkpt lat="44.03179" lon="5.32254">
        <ele>824</ele>
        <time>2015-11-14T14:40:43Z</time>
      </trkpt>
      <trkpt lat="44.03222" lon="5.32277">
        <ele>817</ele>
        <time>2015-11-14T14:42:43Z</time>
      </trkpt>
      <trkpt lat="44.03236" lon="5.32281">
        <ele>815</ele>
        <time>2015-11-14T14:44:43Z</time>
      </trkpt>
      <trkpt lat="44.03295" lon="5.32262">
        <ele>817</ele>
        <time>2015-11-14T14:46:43Z</time>
      </trkpt>
      <trkpt lat="44.03305" lon="5.32256">
        <ele>818</ele>
        <time>2015-11-14T14:48:43Z</time>
      </trkpt>
      <trkpt lat="44.03346" lon="5.32265">
        <ele>813</ele>
        <time>2015-11-14T14:50:43Z</time>
      </trkpt>
      <trkpt lat="44.03373" lon="5.32257">
        <ele>813</ele>
        <time>2015-11-14T14:52:43Z</time>
      </trkpt>
      <trkpt lat="44.03405" lon="5.32247">
        <ele>812</ele>
        <time>2015-11-14T14:54:43Z</time>
      </trkpt>
      <trkpt lat="44.03434" lon="5.32237">
        <ele>812</ele>
        <time>2015-11-14T14:56:43Z</time>
      </trkpt>
      <trkpt lat="44.03452" lon="5.32227">
        <ele>811</ele>
        <time>2015-11-14T14:58:43Z</time>
      </trkpt>
      <trkpt lat="44.03468" lon="5.32224">
        <ele>811</ele>
        <time>2015-11-14T15:00:43Z</time>
      </trkpt>
      <trkpt lat="44.03471" lon="5.32211">
        <ele>812</ele>
        <time>2015-11-14T15:02:43Z</time>
      </trkpt>
      <trkpt lat="44.03475" lon="5.32203">
        <ele>812</ele>
        <time>2015-11-14T15:04:43Z</time>
      </trkpt>
      <trkpt lat="44.03479" lon="5.32197">
        <ele>812</ele>
        <time>2015-11-14T15:06:43Z</time>
      </trkpt>
      <trkpt lat="44.03504" lon="5.322">
        <ele>810</ele>
        <time>2015-11-14T15:08:43Z</time>
      </trkpt>
      <trkpt lat="44.03568" lon="5.32203">
        <ele>807</ele>
        <time>2015-11-14T15:10:43Z</time>
      </trkpt>
      <trkpt lat="44.03623" lon="5.32187">
        <ele>808</ele>
        <time>2015-11-14T15:12:43Z</time>
      </trkpt>
      <trkpt lat="44.0367" lon="5.3218">
        <ele>808</ele>
        <time>2015-11-14T15:14:43Z</time>
      </trkpt>
      <trkpt lat="44.03696" lon="5.32177">
        <ele>807</ele>
        <time>2015-11-14T15:16:43Z</time>
      </trkpt>
      <trkpt lat="44.03772" lon="5.32165">
        <ele>806</ele>
        <time>2015-11-14T15:18:43Z</time>
      </trkpt>
      <trkpt lat="44.03827" lon="5.32162">
        <ele>802</ele>
        <time>2015-11-14T15:20:43Z</time>
      </trkpt>
      <trkpt lat="44.03899" lon="5.3217">
        <ele>797</ele>
        <time>2015-11-14T15:22:43Z</time>
      </trkpt>
      <trkpt lat="44.03915" lon="5.32185">
        <ele>793</ele>
        <time>2015-11-14T15:24:43Z</time>
      </trkpt>
      <trkpt lat="44.0396" lon="5.32241">
        <ele>788</ele>
        <time>2015-11-14T15:26:43Z</time>
      </trkpt>
      <trkpt lat="44.0402" lon="5.32339">
        <ele>783</ele>
        <time>2015-11-14T15:28:43Z</time>
      </trkpt>
      <trkpt lat="44.04081" lon="5.32432">
        <ele>778</ele>
        <time>2015-11-14T15:30:43Z</time>
      </trkpt>
      <trkpt lat="44.04139" lon="5.32504">
        <ele>774</ele>
        <time>2015-11-14T15:32:43Z</time>
      </trkpt>
      <trkpt lat="44.04133" lon="5.32508">
        <ele>772</ele>
        <time>2015-11-14T15:34:43Z</time>
      </trkpt>
      <trkpt lat="44.0408" lon="5.32483">
        <ele>769</ele>
        <time>2015-11-14T15:36:43Z</time>
      </trkpt>
      <trkpt lat="44.03961" lon="5.32434">
        <ele>761</ele>
        <time>2015-11-14T15:38:43Z</time>
      </trkpt>
      <trkpt lat="44.03929" lon="5.32439">
        <ele>757</ele>
        <time>2015-11-14T15:40:43Z</time>
      </trkpt>
      <trkpt lat="44.03903" lon="5.32449">
        <ele>753</ele>
        <time>2015-11-14T15:42:43Z</time>
      </trkpt>
      <trkpt lat="44.03876" lon="5.32481">
        <ele>748</ele>
        <time>2015-11-14T15:44:43Z</time>
      </trkpt>
      <trkpt lat="44.03844" lon="5.32488">
        <ele>745</ele>
        <time>2015-11-14T15:46:43Z</time>
      </trkpt>
      <trkpt lat="44.03784" lon="5.32493">
        <ele>746</ele>
        <time>2015-11-14T15:48:43Z</time>
      </trkpt>
      <trkpt lat="44.03755" lon="5.32521">
        <ele>745</ele>
        <time>2015-11-14T15:50:43Z</time>
      </trkpt>
      <trkpt lat="44.03752" lon="5.32546">
        <ele>742</ele>
        <time>2015-11-14T15:52:43Z</time>
      </trkpt>
      <trkpt lat="44.03769" lon="5.32606">
        <ele>734</ele>
        <time>2015-11-14T15:54:43Z</time>
      </trkpt>
      <trkpt lat="44.03768" lon="5.32622">
        <ele>733</ele>
        <time>2015-11-14T15:56:43Z</time>
      </trkpt>
      <trkpt lat="44.03753" lon="5.3264">
        <ele>732</ele>
        <time>2015-11-14T15:58:43Z</time>
      </trkpt>
      <trkpt lat="44.03746" lon="5.32653">
        <ele>731</ele>
        <time>2015-11-14T16:00:43Z</time>
      </trkpt>
      <trkpt lat="44.03739" lon="5.32669">
        <ele>729</ele>
        <time>2015-11-14T16:02:43Z</time>
      </trkpt>
      <trkpt lat="44.03727" lon="5.32704">
        <ele>725</ele>
        <time>2015-11-14T16:04:43Z</time>
      </trkpt>
      <trkpt lat="44.03725" lon="5.32732">
        <ele>721</ele>
        <time>2015-11-14T16:06:43Z</time>
      </trkpt>
      <trkpt lat="44.03719" lon="5.32755">
        <ele>717</ele>
        <time>2015-11-14T16:08:43Z</time>
      </trkpt>
      <trkpt lat="44.03708" lon="5.32784">
        <ele>712</ele>
        <time>2015-11-14T16:10:43Z</time>
      </trkpt>
      <trkpt lat="44.03702" lon="5.32783">
        <ele>712</ele>
        <time>2015-11-14T16:12:43Z</time>
      </trkpt>
      <trkpt lat="44.03696" lon="5.3282">
        <ele>705</ele>
        <time>2015-11-14T16:14:43Z</time>
      </trkpt>
      <trkpt lat="44.03708" lon="5.32839">
        <ele>702</ele>
        <time>2015-11-14T16:16:43Z</time>
      </trkpt>
      <trkpt lat="44.03708" lon="5.32854">
        <ele>701</ele>
        <time>2015-11-14T16:18:43Z</time>
      </trkpt>
      <trkpt lat="44.03703" lon="5.32877">
        <ele>699</ele>
        <time>2015-11-14T16:20:43Z</time>
      </trkpt>
      <trkpt lat="44.03699" lon="5.32892">
        <ele>699</ele>
        <time>2015-11-14T16:22:43Z</time>
      </trkpt>
      <trkpt lat="44.03697" lon="5.32908">
        <ele>698</ele>
        <time>2015-11-14T16:24:43Z</time>
      </trkpt>
      <trkpt lat="44.0369" lon="5.32911">
        <ele>698</ele>
        <time>2015-11-14T16:26:43Z</time>
      </trkpt>
      <trkpt lat="44.0369" lon="5.3292">
        <ele>698</ele>
        <time>2015-11-14T16:28:43Z</time>
      </trkpt>
      <trkpt lat="44.03697" lon="5.32932">
        <ele>699</ele>
        <time>2015-11-14T16:30:43Z</time>
      </trkpt>
      <trkpt lat="44.03707" lon="5.32937">
        <ele>698</ele>
        <time>2015-11-14T16:32:43Z</time>
      </trkpt>
      <trkpt lat="44.03722" lon="5.32941">
        <ele>697</ele>
        <time>2015-11-14T16:34:43Z</time>
      </trkpt>
      <trkpt lat="44.03741" lon="5.32952">
        <ele>697</ele>
        <time>2015-11-14T16:36:43Z</time>
      </trkpt>
      <trkpt lat="44.03758" lon="5.32974">
        <ele>697</ele>
        <time>2015-11-14T16:38:43Z</time>
      </trkpt>
      <trkpt lat="44.03769" lon="5.32987">
        <ele>697</ele>
        <time>2015-11-14T16:40:43Z</time>
      </trkpt>
      <trkpt lat="44.03779" lon="5.3299">
        <ele>696</ele>
        <time>2015-11-14T16:42:43Z</time>
      </trkpt>
      <trkpt lat="44.03783" lon="5.32977">
        <ele>695</ele>
        <time>2015-11-14T16:44:43Z</time>
      </trkpt>
      <trkpt lat="44.03781" lon="5.32963">
        <ele>695</ele>
        <time>2015-11-14T16:46:43Z</time>
      </trkpt>
      <trkpt lat="44.03777" lon="5.32949">
        <ele>694</ele>
        <time>2015-11-14T16:48:43Z</time>
      </trkpt>
      <trkpt lat="44.03774" lon="5.32939">
        <ele>694</ele>
        <time>2015-11-14T16:50:43Z</time>
      </trkpt>
      <trkpt lat="44.03777" lon="5.32936">
        <ele>694</ele>
        <time>2015-11-14T16:52:43Z</time>
      </trkpt>
      <trkpt lat="44.03806" lon="5.32934">
        <ele>693</ele>
        <time>2015-11-14T16:54:43Z</time>
      </trkpt>
      <trkpt lat="44.03813" lon="5.3294">
        <ele>693</ele>
        <time>2015-11-14T16:56:43Z</time>
      </trkpt>
      <trkpt lat="44.03818" lon="5.32947">
        <ele>693</ele>
        <time>2015-11-14T16:58:43Z</time>
      </trkpt>
      <trkpt lat="44.03823" lon="5.32954">
        <ele>692</ele>
        <time>2015-11-14T17:00:43Z</time>
      </trkpt>
      <trkpt lat="44.03827" lon="5.32961">
        <ele>692</ele>
        <time>2015-11-14T17:02:43Z</time>
      </trkpt>
      <trkpt lat="44.0383" lon="5.32969">
        <ele>691</ele>
        <time>2015-11-14T17:04:43Z</time>
      </trkpt>
      <trkpt lat="44.03834" lon="5.32981">
        <ele>690</ele>
        <time>2015-11-14T17:06:43Z</time>
      </trkpt>
      <trkpt lat="44.03836" lon="5.32989">
        <ele>690</ele>
        <time>2015-11-14T17:08:43Z</time>
      </trkpt>
      <trkpt lat="44.03839" lon="5.33007">
        <ele>689</ele>
        <time>2015-11-14T17:10:43Z</time>
      </trkpt>
      <trkpt lat="44.03842" lon="5.33026">
        <ele>686</ele>
        <time>2015-11-14T17:12:43Z</time>
      </trkpt>
      <trkpt lat="44.03845" lon="5.33046">
        <ele>684</ele>
        <time>2015-11-14T17:14:43Z</time>
      </trkpt>
      <trkpt lat="44.03848" lon="5.33062">
        <ele>681</ele>
        <time>2015-11-14T17:16:43Z</time>
      </trkpt>
      <trkpt lat="44.0385" lon="5.33073">
        <ele>680</ele>
        <time>2015-11-14T17:18:43Z</time>
      </trkpt>
      <trkpt lat="44.03851" lon="5.33078">
        <ele>679</ele>
        <time>2015-11-14T17:20:43Z</time>
      </trkpt>
      <trkpt lat="44.03852" lon="5.33083">
        <ele>679</ele>
        <time>2015-11-14T17:22:43Z</time>
      </trkpt>
      <trkpt lat="44.03851" lon="5.33088">
        <ele>678</ele>
        <time>2015-11-14T17:24:43Z</time>
      </trkpt>
      <trkpt lat="44.0385" lon="5.33092">
        <ele>677</ele>
        <time>2015-11-14T17:26:43Z</time>
      </trkpt>
      <trkpt lat="44.03849" lon="5.33096">
        <ele>677</ele>
        <time>2015-11-14T17:28:43Z</time>
      </trkpt>
      <trkpt lat="44.03847" lon="5.331">
        <ele>676</ele>
        <time>2015-11-14T17:30:43Z</time>
      </trkpt>
      <trkpt lat="44.03842" lon="5.33107">
        <ele>675</ele>
        <time>2015-11-14T17:32:43Z</time>
      </trkpt>
      <trkpt lat="44.03832" lon="5.33118">
        <ele>673</ele>
        <time>2015-11-14T17:34:43Z</time>
      </trkpt>
      <trkpt lat="44.03825" lon="5.33125">
        <ele>673</ele>
        <time>2015-11-14T17:36:43Z</time>
      </trkpt>
      <trkpt lat="44.03818" lon="5.33132">
        <ele>674</ele>
        <time>2015-11-14T17:38:43Z</time>
      </trkpt>
      <trkpt lat="44.03812" lon="5.33141">
        <ele>674</ele>
        <time>2015-11-14T17:40:43Z</time>
      </trkpt>
      <trkpt lat="44.0381" lon="5.33146">
        <ele>674</ele>
        <time>2015-11-14T17:42:43Z</time>
      </trkpt>
      <trkpt lat="44.03809" lon="5.3315">
        <ele>673</ele>
        <time>2015-11-14T17:44:43Z</time>
      </trkpt>
      <trkpt lat="44.0381" lon="5.33155">
        <ele>673</ele>
        <time>2015-11-14T17:46:43Z</time>
      </trkpt>
      <trkpt lat="44.03811" lon="5.3316">
        <ele>672</ele>
        <time>2015-11-14T17:48:43Z</time>
      </trkpt>
      <trkpt lat="44.03813" lon="5.33165">
        <ele>671</ele>
        <time>2015-11-14T17:50:43Z</time>
      </trkpt>
      <trkpt lat="44.03816" lon="5.33169">
        <ele>671</ele>
        <time>2015-11-14T17:52:43Z</time>
      </trkpt>
      <trkpt lat="44.03819" lon="5.33174">
        <ele>672</ele>
        <time>2015-11-14T17:54:43Z</time>
      </trkpt>
      <trkpt lat="44.03823" lon="5.33179">
        <ele>672</ele>
        <time>2015-11-14T17:56:43Z</time>
      </trkpt>
      <trkpt lat="44.03833" lon="5.33191">
        <ele>673</ele>
        <time>2015-11-14T17:58:43Z</time>
      </trkpt>
      <trkpt lat="44.03844" lon="5.33204">
        <ele>674</ele>
        <time>2015-11-14T18:00:43Z</time>
      </trkpt>
      <trkpt lat="44.03848" lon="5.33209">
        <ele>674</ele>
        <time>2015-11-14T18:02:43Z</time>
      </trkpt>
      <trkpt lat="44.03852" lon="5.33215">
        <ele>675</ele>
        <time>2015-11-14T18:04:43Z</time>
      </trkpt>
      <trkpt lat="44.0386" lon="5.33229">
        <ele>675</ele>
        <time>2015-11-14T18:06:43Z</time>
      </trkpt>
      <trkpt lat="44.03865" lon="5.33239">
        <ele>675</ele>
        <time>2015-11-14T18:08:43Z</time>
      </trkpt>
      <trkpt lat="44.0387" lon="5.33252">
        <ele>675</ele>
        <time>2015-11-14T18:10:43Z</time>
      </trkpt>
      <trkpt lat="44.03875" lon="5.33265">
        <ele>677</ele>
        <time>2015-11-14T18:12:43Z</time>
      </trkpt>
      <trkpt lat="44.03881" lon="5.33285">
        <ele>680</ele>
        <time>2015-11-14T18:14:43Z</time>
      </trkpt>
      <trkpt lat="44.03882" lon="5.33289">
        <ele>681</ele>
        <time>2015-11-14T18:16:43Z</time>
      </trkpt>
      <trkpt lat="44.03883" lon="5.33293">
        <ele>682</ele>
        <time>2015-11-14T18:18:43Z</time>
      </trkpt>
      <trkpt lat="44.03889" lon="5.3332">
        <ele>687</ele>
        <time>2015-11-14T18:20:43Z</time>
      </trkpt>
      <trkpt lat="44.03893" lon="5.33333">
        <ele>689</ele>
        <time>2015-11-14T18:22:43Z</time>
      </trkpt>
      <trkpt lat="44.03896" lon="5.33342">
        <ele>691</ele>
        <time>2015-11-14T18:24:43Z</time>
      </trkpt>
      <trkpt lat="44.03898" lon="5.33349">
        <ele>693</ele>
        <time>2015-11-14T18:26:43Z</time>
      </trkpt>
      <trkpt lat="44.03902" lon="5.33359">
        <ele>694</ele>
        <time>2015-11-14T18:28:43Z</time>
      </trkpt>
      <trkpt lat="44.03905" lon="5.33366">
        <ele>696</ele>
        <time>2015-11-14T18:30:43Z</time>
      </trkpt>
      <trkpt lat="44.03923" lon="5.33402">
        <ele>703</ele>
        <time>2015-11-14T18:32:43Z</time>
      </trkpt>
      <trkpt lat="44.03928" lon="5.33415">
        <ele>706</ele>
        <time>2015-11-14T18:34:43Z</time>
      </trkpt>
      <trkpt lat="44.03933" lon="5.33425">
        <ele>708</ele>
        <time>2015-11-14T18:36:43Z</time>
      </trkpt>
      <trkpt lat="44.03937" lon="5.33438">
        <ele>710</ele>
        <time>2015-11-14T18:38:43Z</time>
      </trkpt>
      <trkpt lat="44.0394" lon="5.33448">
        <ele>711</ele>
        <time>2015-11-14T18:40:43Z</time>
      </trkpt>
      <trkpt lat="44.03942" lon="5.33458">
        <ele>713</ele>
        <time>2015-11-14T18:42:43Z</time>
      </trkpt>
      <trkpt lat="44.03944" lon="5.33467">
        <ele>715</ele>
        <time>2015-11-14T18:44:43Z</time>
      </trkpt>
      <trkpt lat="44.03944" lon="5.33472">
        <ele>716</ele>
        <time>2015-11-14T18:46:43Z</time>
      </trkpt>
      <trkpt lat="44.03945" lon="5.33482">
        <ele>718</ele>
        <time>2015-11-14T18:48:43Z</time>
      </trkpt>
      <trkpt lat="44.03945" lon="5.33491">
        <ele>719</ele>
        <time>2015-11-14T18:50:43Z</time>
      </trkpt>
      <trkpt lat="44.03945" lon="5.33508">
        <ele>722</ele>
        <time>2015-11-14T18:52:43Z</time>
      </trkpt>
      <trkpt lat="44.03943" lon="5.33526">
        <ele>724</ele>
        <time>2015-11-14T18:54:43Z</time>
      </trkpt>
      <trkpt lat="44.03936" lon="5.3357">
        <ele>729</ele>
        <time>2015-11-14T18:56:43Z</time>
      </trkpt>
      <trkpt lat="44.03935" lon="5.33581">
        <ele>730</ele>
        <time>2015-11-14T18:58:43Z</time>
      </trkpt>
      <trkpt lat="44.03934" lon="5.33592">
        <ele>730</ele>
        <time>2015-11-14T19:00:43Z</time>
      </trkpt>
      <trkpt lat="44.03933" lon="5.33598">
        <ele>730</ele>
        <time>2015-11-14T19:02:43Z</time>
      </trkpt>
      <trkpt lat="44.03931" lon="5.33614">
        <ele>730</ele>
        <time>2015-11-14T19:04:43Z</time>
      </trkpt>
      <trkpt lat="44.03929" lon="5.33633">
        <ele>730</ele>
        <time>2015-11-14T19:06:43Z</time>
      </trkpt>
      <trkpt lat="44.03928" lon="5.33638">
        <ele>730</ele>
        <time>2015-11-14T19:08:43Z</time>
      </trkpt>
      <trkpt lat="44.03926" lon="5.33651">
        <ele>731</ele>
        <time>2015-11-14T19:10:43Z</time>
      </trkpt>
      <trkpt lat="44.03926" lon="5.33656">
        <ele>730</ele>
        <time>2015-11-14T19:12:43Z</time>
      </trkpt>
      <trkpt lat="44.03924" lon="5.33664">
        <ele>731</ele>
        <time>2015-11-14T19:14:43Z</time>
      </trkpt>
      <trkpt lat="44.03924" lon="5.33669">
        <ele>730</ele>
        <time>2015-11-14T19:16:43Z</time>
      </trkpt>
      <trkpt lat="44.03923" lon="5.33677">
        <ele>730</ele>
        <time>2015-11-14T19:18:43Z</time>
      </trkpt>
      <trkpt lat="44.03919" lon="5.337">
        <ele>729</ele>
        <time>2015-11-14T19:20:43Z</time>
      </trkpt>
      <trkpt lat="44.03914" lon="5.3374">
        <ele>726</ele>
        <time>2015-11-14T19:22:43Z</time>
      </trkpt>
      <trkpt lat="44.03913" lon="5.33745">
        <ele>726</ele>
        <time>2015-11-14T19:24:43Z</time>
      </trkpt>
      <trkpt lat="44.03909" lon="5.33767">
        <ele>723</ele>
        <time>2015-11-14T19:26:43Z</time>
      </trkpt>
      <trkpt lat="44.03908" lon="5.33772">
        <ele>723</ele>
        <time>2015-11-14T19:28:43Z</time>
      </trkpt>
      <trkpt lat="44.03902" lon="5.3379">
        <ele>721</ele>
        <time>2015-11-14T19:30:43Z</time>
      </trkpt>
      <trkpt lat="44.03901" lon="5.33794">
        <ele>720</ele>
        <time>2015-11-14T19:32:43Z</time>
      </trkpt>
      <trkpt lat="44.03895" lon="5.33805">
        <ele>719</ele>
        <time>2015-11-14T19:34:43Z</time>
      </trkpt>
      <trkpt lat="44.03891" lon="5.33813">
        <ele>718</ele>
        <time>2015-11-14T19:36:43Z</time>
      </trkpt>
      <trkpt lat="44.03884" lon="5.33823">
        <ele>717</ele>
        <time>2015-11-14T19:38:43Z</time>
      </trkpt>
      <trkpt lat="44.03876" lon="5.33833">
        <ele>716</ele>
        <time>2015-11-14T19:40:43Z</time>
      </trkpt>
      <trkpt lat="44.03868" lon="5.33842">
        <ele>717</ele>
        <time>2015-11-14T19:42:43Z</time>
      </trkpt>
      <trkpt lat="44.03859" lon="5.33851">
        <ele>718</ele>
        <time>2015-11-14T19:44:43Z</time>
      </trkpt>
      <trkpt lat="44.03839" lon="5.3387">
        <ele>719</ele>
        <time>2015-11-14T19:46:43Z</time>
      </trkpt>
      <trkpt lat="44.03837" lon="5.33873">
        <ele>720</ele>
        <time>2015-11-14T19:48:43Z</time>
      </trkpt>
      <trkpt lat="44.03834" lon="5.33879">
        <ele>720</ele>
        <time>2015-11-14T19:50:43Z</time>
      </trkpt>
      <trkpt lat="44.03833" lon="5.33885">
        <ele>720</ele>
        <time>2015-11-14T19:52:43Z</time>
      </trkpt>
      <trkpt lat="44.03834" lon="5.33891">
        <ele>720</ele>
        <time>2015-11-14T19:54:43Z</time>
      </trkpt>
      <trkpt lat="44.03837" lon="5.33897">
        <ele>719</ele>
        <time>2015-11-14T19:56:43Z</time>
      </trkpt>
      <trkpt lat="44.03841" lon="5.33903">
        <ele>718</ele>
        <time>2015-11-14T19:58:43Z</time>
      </trkpt>
      <trkpt lat="44.03844" lon="5.33906">
        <ele>718</ele>
        <time>2015-11-14T20:00:43Z</time>
      </trkpt>
      <trkpt lat="44.03853" lon="5.33916">
        <ele>716</ele>
        <time>2015-11-14T20:02:43Z</time>
      </trkpt>
      <trkpt lat="44.03888" lon="5.33945">
        <ele>717</ele>
        <time>2015-11-14T20:04:43Z</time>
      </trkpt>
      <trkpt lat="44.039" lon="5.33956">
        <ele>717</ele>
        <time>2015-11-14T20:06:43Z</time>
      </trkpt>
      <trkpt lat="44.03907" lon="5.33963">
        <ele>717</ele>
        <time>2015-11-14T20:08:43Z</time>
      </trkpt>
      <trkpt lat="44.0392" lon="5.3398">
        <ele>719</ele>
        <time>2015-11-14T20:10:43Z</time>
      </trkpt>
      <trkpt lat="44.03927" lon="5.33987">
        <ele>720</ele>
        <time>2015-11-14T20:12:43Z</time>
      </trkpt>
      <trkpt lat="44.03934" lon="5.33994">
        <ele>721</ele>
        <time>2015-11-14T20:14:43Z</time>
      </trkpt>
      <trkpt lat="44.03939" lon="5.33997">
        <ele>721</ele>
        <time>2015-11-14T20:16:43Z</time>
      </trkpt>
      <trkpt lat="44.03948" lon="5.34004">
        <ele>722</ele>
        <time>2015-11-14T20:18:43Z</time>
      </trkpt>
      <trkpt lat="44.03951" lon="5.34005">
        <ele>722</ele>
        <time>2015-11-14T20:20:43Z</time>
      </trkpt>
      <trkpt lat="44.03953" lon="5.34007">
        <ele>722</ele>
        <time>2015-11-14T20:22:43Z</time>
      </trkpt>
      <trkpt lat="44.0396" lon="5.34011">
        <ele>722</ele>
        <time>2015-11-14T20:24:43Z</time>
      </trkpt>
      <trkpt lat="44.03978" lon="5.34022">
        <ele>723</ele>
        <time>2015-11-14T20:26:43Z</time>
      </trkpt>
      <trkpt lat="44.03987" lon="5.34028">
        <ele>723</ele>
        <time>2015-11-14T20:28:43Z</time>
      </trkpt>
      <trkpt lat="44.03997" lon="5.34037">
        <ele>724</ele>
        <time>2015-11-14T20:30:43Z</time>
      </trkpt>
      <trkpt lat="44.04006" lon="5.34041">
        <ele>724</ele>
        <time>2015-11-14T20:32:43Z</time>
      </trkpt>
      <trkpt lat="44.04014" lon="5.34043">
        <ele>724</ele>
        <time>2015-11-14T20:34:43Z</time>
      </trkpt>
      <trkpt lat="44.04018" lon="5.34043">
        <ele>724</ele>
        <time>2015-11-14T20:36:43Z</time>
      </trkpt>
      <trkpt lat="44.04026" lon="5.34042">
        <ele>723</ele>
        <time>2015-11-14T20:38:43Z</time>
      </trkpt>
      <trkpt lat="44.0403" lon="5.3404">
        <ele>723</ele>
        <time>2015-11-14T20:40:43Z</time>
      </trkpt>
      <trkpt lat="44.04039" lon="5.34037">
        <ele>722</ele>
        <time>2015-11-14T20:42:43Z</time>
      </trkpt>
      <trkpt lat="44.04054" lon="5.34028">
        <ele>721</ele>
        <time>2015-11-14T20:44:43Z</time>
      </trkpt>
      <trkpt lat="44.04059" lon="5.34025">
        <ele>721</ele>
        <time>2015-11-14T20:46:43Z</time>
      </trkpt>
      <trkpt lat="44.04061" lon="5.34024">
        <ele>721</ele>
        <time>2015-11-14T20:48:43Z</time>
      </trkpt>
      <trkpt lat="44.04065" lon="5.34022">
        <ele>720</ele>
        <time>2015-11-14T20:50:43Z</time>
      </trkpt>
      <trkpt lat="44.04073" lon="5.34017">
        <ele>720</ele>
        <time>2015-11-14T20:52:43Z</time>
      </trkpt>
      <trkpt lat="44.04087" lon="5.34008">
        <ele>719</ele>
        <time>2015-11-14T20:54:43Z</time>
      </trkpt>
      <trkpt lat="44.04096" lon="5.34001">
        <ele>719</ele>
        <time>2015-11-14T20:56:43Z</time>
      </trkpt>
      <trkpt lat="44.04108" lon="5.33992">
        <ele>718</ele>
        <time>2015-11-14T20:58:43Z</time>
      </trkpt>
      <trkpt lat="44.04119" lon="5.33982">
        <ele>717</ele>
        <time>2015-11-14T21:00:43Z</time>
      </trkpt>
      <trkpt lat="44.04142" lon="5.3396">
        <ele>716</ele>
        <time>2015-11-14T21:02:43Z</time>
      </trkpt>
      <trkpt lat="44.04148" lon="5.33953">
        <ele>716</ele>
        <time>2015-11-14T21:04:43Z</time>
      </trkpt>
      <trkpt lat="44.04161" lon="5.33939">
        <ele>717</ele>
        <time>2015-11-14T21:06:43Z</time>
      </trkpt>
      <trkpt lat="44.04165" lon="5.33935">
        <ele>717</ele>
        <time>2015-11-14T21:08:43Z</time>
      </trkpt>
      <trkpt lat="44.04173" lon="5.33927">
        <ele>717</ele>
        <time>2015-11-14T21:10:43Z</time>
      </trkpt>
      <trkpt lat="44.04181" lon="5.33921">
        <ele>717</ele>
        <time>2015-11-14T21:12:43Z</time>
      </trkpt>
      <trkpt lat="44.04188" lon="5.33914">
        <ele>717</ele>
        <time>2015-11-14T21:14:43Z</time>
      </trkpt>
      <trkpt lat="44.04199" lon="5.33907">
        <ele>717</ele>
        <time>2015-11-14T21:16:43Z</time>
      </trkpt>
      <trkpt lat="44.04206" lon="5.33902">
        <ele>716</ele>
        <time>2015-11-14T21:18:43Z</time>
      </trkpt>
      <trkpt lat="44.04228" lon="5.3389">
        <ele>717</ele>
        <time>2015-11-14T21:20:43Z</time>
      </trkpt>
      <trkpt lat="44.04242" lon="5.33882">
        <ele>717</ele>
        <time>2015-11-14T21:22:43Z</time>
      </trkpt>
      <trkpt lat="44.04258" lon="5.33873">
        <ele>717</ele>
        <time>2015-11-14T21:24:43Z</time>
      </trkpt>
      <trkpt lat="44.04274" lon="5.33862">
        <ele>715</ele>
        <time>2015-11-14T21:26:43Z</time>
      </trkpt>
      <trkpt lat="44.04287" lon="5.33852">
        <ele>714</ele>
        <time>2015-11-14T21:28:43Z</time>
      </trkpt>
      <trkpt lat="44.04291" lon="5.3385">
        <ele>713</ele>
        <time>2015-11-14T21:30:43Z</time>
      </trkpt>
      <trkpt lat="44.04296" lon="5.33849">
        <ele>713</ele>
        <time>2015-11-14T21:32:43Z</time>
      </trkpt>
      <trkpt lat="44.04304" lon="5.33847">
        <ele>712</ele>
        <time>2015-11-14T21:34:43Z</time>
      </trkpt>
      <trkpt lat="44.04308" lon="5.33847">
        <ele>712</ele>
        <time>2015-11-14T21:36:43Z</time>
      </trkpt>
      <trkpt lat="44.04312" lon="5.33848">
        <ele>711</ele>
        <time>2015-11-14T21:38:43Z</time>
      </trkpt>
      <trkpt lat="44.0432" lon="5.3385">
        <ele>710</ele>
        <time>2015-11-14T21:40:43Z</time>
      </trkpt>
      <trkpt lat="44.04332" lon="5.33855">
        <ele>709</ele>
        <time>2015-11-14T21:42:43Z</time>
      </trkpt>
      <trkpt lat="44.04339" lon="5.33857">
        <ele>705</ele>
        <time>2015-11-14T21:44:43Z</time>
      </trkpt>
      <trkpt lat="44.04346" lon="5.33858">
        <ele>701</ele>
        <time>2015-11-14T21:46:43Z</time>
      </trkpt>
      <trkpt lat="44.04351" lon="5.33858">
        <ele>699</ele>
        <time>2015-11-14T21:48:43Z</time>
      </trkpt>
      <trkpt lat="44.04357" lon="5.33858">
        <ele>695</ele>
        <time>2015-11-14T21:50:43Z</time>
      </trkpt>
      <trkpt lat="44.04365" lon="5.33858">
        <ele>691</ele>
        <time>2015-11-14T21:52:43Z</time>
      </trkpt>
      <trkpt lat="44.04376" lon="5.33855">
        <ele>685</ele>
        <time>2015-11-14T21:54:43Z</time>
      </trkpt>
      <trkpt lat="44.04381" lon="5.33853">
        <ele>683</ele>
        <time>2015-11-14T21:56:43Z</time>
      </trkpt>
      <trkpt lat="44.04389" lon="5.33849">
        <ele>678</ele>
        <time>2015-11-14T21:58:43Z</time>
      </trkpt>
      <trkpt lat="44.04402" lon="5.33842">
        <ele>672</ele>
        <time>2015-11-14T22:00:43Z</time>
      </trkpt>
      <trkpt lat="44.0441" lon="5.33836">
        <ele>668</ele>
        <time>2015-11-14T22:02:43Z</time>
      </trkpt>
      <trkpt lat="44.04422" lon="5.33827">
        <ele>660</ele>
        <time>2015-11-14T22:04:43Z</time>
      </trkpt>
      <trkpt lat="44.04425" lon="5.33826">
        <ele>658</ele>
        <time>2015-11-14T22:06:43Z</time>
      </trkpt>
      <trkpt lat="44.04429" lon="5.33827">
        <ele>655</ele>
        <time>2015-11-14T22:08:43Z</time>
      </trkpt>
      <trkpt lat="44.04427" lon="5.33835">
        <ele>658</ele>
        <time>2015-11-14T22:10:43Z</time>
      </trkpt>
      <trkpt lat="44.04426" lon="5.33839">
        <ele>658</ele>
        <time>2015-11-14T22:12:43Z</time>
      </trkpt>
      <trkpt lat="44.0442" lon="5.33852">
        <ele>661</ele>
        <time>2015-11-14T22:14:43Z</time>
      </trkpt>
      <trkpt lat="44.04414" lon="5.33865">
        <ele>663</ele>
        <time>2015-11-14T22:16:43Z</time>
      </trkpt>
      <trkpt lat="44.0441" lon="5.33876">
        <ele>665</ele>
        <time>2015-11-14T22:18:43Z</time>
      </trkpt>
      <trkpt lat="44.04407" lon="5.33882">
        <ele>666</ele>
        <time>2015-11-14T22:20:43Z</time>
      </trkpt>
      <trkpt lat="44.04405" lon="5.33892">
        <ele>666</ele>
        <time>2015-11-14T22:22:43Z</time>
      </trkpt>
      <trkpt lat="44.04404" lon="5.33899">
        <ele>666</ele>
        <time>2015-11-14T22:24:43Z</time>
      </trkpt>
      <trkpt lat="44.04403" lon="5.33905">
        <ele>666</ele>
        <time>2015-11-14T22:26:43Z</time>
      </trkpt>
      <trkpt lat="44.04403" lon="5.33917">
        <ele>665</ele>
        <time>2015-11-14T22:28:43Z</time>
      </trkpt>
      <trkpt lat="44.04404" lon="5.3393">
        <ele>661</ele>
        <time>2015-11-14T22:30:43Z</time>
      </trkpt>
      <trkpt lat="44.04407" lon="5.33956">
        <ele>652</ele>
        <time>2015-11-14T22:32:43Z</time>
      </trkpt>
      <trkpt lat="44.04408" lon="5.3396">
        <ele>651</ele>
        <time>2015-11-14T22:34:43Z</time>
      </trkpt>
      <trkpt lat="44.04408" lon="5.33967">
        <ele>649</ele>
        <time>2015-11-14T22:36:43Z</time>
      </trkpt>
      <trkpt lat="44.04409" lon="5.33979">
        <ele>645</ele>
        <time>2015-11-14T22:38:43Z</time>
      </trkpt>
      <trkpt lat="44.04409" lon="5.33987">
        <ele>643</ele>
        <time>2015-11-14T22:40:43Z</time>
      </trkpt>
      <trkpt lat="44.04408" lon="5.33994">
        <ele>642</ele>
        <time>2015-11-14T22:42:43Z</time>
      </trkpt>
      <trkpt lat="44.04406" lon="5.34007">
        <ele>640</ele>
        <time>2015-11-14T22:44:43Z</time>
      </trkpt>
      <trkpt lat="44.04402" lon="5.34018">
        <ele>641</ele>
        <time>2015-11-14T22:46:43Z</time>
      </trkpt>
      <trkpt lat="44.04397" lon="5.34028">
        <ele>643</ele>
        <time>2015-11-14T22:48:43Z</time>
      </trkpt>
      <trkpt lat="44.04384" lon="5.34048">
        <ele>648</ele>
        <time>2015-11-14T22:50:43Z</time>
      </trkpt>
      <trkpt lat="44.04377" lon="5.34063">
        <ele>650</ele>
        <time>2015-11-14T22:52:43Z</time>
      </trkpt>
      <trkpt lat="44.04374" lon="5.34069">
        <ele>651</ele>
        <time>2015-11-14T22:54:43Z</time>
      </trkpt>
      <trkpt lat="44.04371" lon="5.34077">
        <ele>651</ele>
        <time>2015-11-14T22:56:43Z</time>
      </trkpt>
      <trkpt lat="44.04366" lon="5.3409">
        <ele>653</ele>
        <time>2015-11-14T22:58:43Z</time>
      </trkpt>
      <trkpt lat="44.04363" lon="5.34103">
        <ele>654</ele>
        <time>2015-11-14T23:00:43Z</time>
      </trkpt>
      <trkpt lat="44.04362" lon="5.34107">
        <ele>655</ele>
        <time>2015-11-14T23:02:43Z</time>
      </trkpt>
      <trkpt lat="44.0436" lon="5.3412">
        <ele>655</ele>
        <time>2015-11-14T23:04:43Z</time>
      </trkpt>
      <trkpt lat="44.04359" lon="5.34132">
        <ele>655</ele>
        <time>2015-11-14T23:06:43Z</time>
      </trkpt>
      <trkpt lat="44.04359" lon="5.34149">
        <ele>654</ele>
        <time>2015-11-14T23:08:43Z</time>
      </trkpt>
      <trkpt lat="44.0436" lon="5.34175">
        <ele>653</ele>
        <time>2015-11-14T23:10:43Z</time>
      </trkpt>
      <trkpt lat="44.04361" lon="5.34179">
        <ele>652</ele>
        <time>2015-11-14T23:12:43Z</time>
      </trkpt>
      <trkpt lat="44.04361" lon="5.34194">
        <ele>653</ele>
        <time>2015-11-14T23:14:43Z</time>
      </trkpt>
      <trkpt lat="44.04361" lon="5.34218">
        <ele>654</ele>
        <time>2015-11-14T23:16:43Z</time>
      </trkpt>
      <trkpt lat="44.04361" lon="5.34221">
        <ele>654</ele>
        <time>2015-11-14T23:18:43Z</time>
      </trkpt>
      <trkpt lat="44.04362" lon="5.34227">
        <ele>654</ele>
        <time>2015-11-14T23:20:43Z</time>
      </trkpt>
      <trkpt lat="44.04363" lon="5.34233">
        <ele>653</ele>
        <time>2015-11-14T23:22:43Z</time>
      </trkpt>
      <trkpt lat="44.04365" lon="5.34238">
        <ele>653</ele>
        <time>2015-11-14T23:24:43Z</time>
      </trkpt>
      <trkpt lat="44.04367" lon="5.34242">
        <ele>652</ele>
        <time>2015-11-14T23:26:43Z</time>
      </trkpt>
      <trkpt lat="44.0437" lon="5.34247">
        <ele>652</ele>
        <time>2015-11-14T23:28:43Z</time>
      </trkpt>
      <trkpt lat="44.04376" lon="5.34254">
        <ele>650</ele>
        <time>2015-11-14T23:30:43Z</time>
      </trkpt>
      <trkpt lat="44.04388" lon="5.34265">
        <ele>646</ele>
        <time>2015-11-14T23:32:43Z</time>
      </trkpt>
      <trkpt lat="44.04395" lon="5.34273">
        <ele>644</ele>
        <time>2015-11-14T23:34:43Z</time>
      </trkpt>
      <trkpt lat="44.04403" lon="5.34282">
        <ele>642</ele>
        <time>2015-11-14T23:36:43Z</time>
      </trkpt>
      <trkpt lat="44.04409" lon="5.34291">
        <ele>640</ele>
        <time>2015-11-14T23:38:43Z</time>
      </trkpt>
      <trkpt lat="44.04411" lon="5.34292">
        <ele>639</ele>
        <time>2015-11-14T23:40:43Z</time>
      </trkpt>
      <trkpt lat="44.04415" lon="5.3429">
        <ele>638</ele>
        <time>2015-11-14T23:42:43Z</time>
      </trkpt>
      <trkpt lat="44.04416" lon="5.34287">
        <ele>637</ele>
        <time>2015-11-14T23:44:43Z</time>
      </trkpt>
      <trkpt lat="44.04417" lon="5.34282">
        <ele>637</ele>
        <time>2015-11-14T23:46:43Z</time>
      </trkpt>
      <trkpt lat="44.04419" lon="5.3427">
        <ele>637</ele>
        <time>2015-11-14T23:48:43Z</time>
      </trkpt>
      <trkpt lat="44.04422" lon="5.34232">
        <ele>636</ele>
        <time>2015-11-14T23:50:43Z</time>
      </trkpt>
      <trkpt lat="44.04423" lon="5.34224">
        <ele>637</ele>
        <time>2015-11-14T23:52:43Z</time>
      </trkpt>
      <trkpt lat="44.04424" lon="5.34217">
        <ele>637</ele>
        <time>2015-11-14T23:54:43Z</time>
      </trkpt>
      <trkpt lat="44.04427" lon="5.34203">
        <ele>637</ele>
        <time>2015-11-14T23:56:43Z</time>
      </trkpt>
      <trkpt lat="44.04431" lon="5.34192">
        <ele>639</ele>
        <time>2015-11-14T23:58:43Z</time>
      </trkpt>
      <trkpt lat="44.04433" lon="5.34185">
        <ele>640</ele>
        <time>2015-11-15T00:00:43Z</time>
      </trkpt>
      <trkpt lat="44.04438" lon="5.34176">
        <ele>642</ele>
        <time>2015-11-15T00:02:43Z</time>
      </trkpt>
      <trkpt lat="44.04444" lon="5.34165">
        <ele>645</ele>
        <time>2015-11-15T00:04:43Z</time>
      </trkpt>
      <trkpt lat="44.04448" lon="5.3416">
        <ele>646</ele>
        <time>2015-11-15T00:06:43Z</time>
      </trkpt>
      <trkpt lat="44.04452" lon="5.34156">
        <ele>647</ele>
        <time>2015-11-15T00:08:43Z</time>
      </trkpt>
      <trkpt lat="44.04461" lon="5.34148">
        <ele>649</ele>
        <time>2015-11-15T00:10:43Z</time>
      </trkpt>
      <trkpt lat="44.04465" lon="5.34144">
        <ele>650</ele>
        <time>2015-11-15T00:12:43Z</time>
      </trkpt>
      <trkpt lat="44.04473" lon="5.34139">
        <ele>652</ele>
        <time>2015-11-15T00:14:43Z</time>
      </trkpt>
      <trkpt lat="44.04476" lon="5.34137">
        <ele>653</ele>
        <time>2015-11-15T00:16:43Z</time>
      </trkpt>
      <trkpt lat="44.04481" lon="5.34134">
        <ele>654</ele>
        <time>2015-11-15T00:18:43Z</time>
      </trkpt>
      <trkpt lat="44.04487" lon="5.34131">
        <ele>655</ele>
        <time>2015-11-15T00:20:43Z</time>
      </trkpt>
      <trkpt lat="44.04496" lon="5.34125">
        <ele>657</ele>
        <time>2015-11-15T00:22:43Z</time>
      </trkpt>
      <trkpt lat="44.04503" lon="5.34119">
        <ele>658</ele>
        <time>2015-11-15T00:24:43Z</time>
      </trkpt>
      <trkpt lat="44.04512" lon="5.34109">
        <ele>660</ele>
        <time>2015-11-15T00:26:43Z</time>
      </trkpt>
      <trkpt lat="44.04515" lon="5.34104">
        <ele>661</ele>
        <time>2015-11-15T00:28:43Z</time>
      </trkpt>
      <trkpt lat="44.04522" lon="5.34093">
        <ele>663</ele>
        <time>2015-11-15T00:30:43Z</time>
      </trkpt>
      <trkpt lat="44.04532" lon="5.34075">
        <ele>665</ele>
        <time>2015-11-15T00:32:43Z</time>
      </trkpt>
      <trkpt lat="44.04539" lon="5.34063">
        <ele>664</ele>
        <time>2015-11-15T00:34:43Z</time>
      </trkpt>
      <trkpt lat="44.04548" lon="5.3405">
        <ele>665</ele>
        <time>2015-11-15T00:36:43Z</time>
      </trkpt>
      <trkpt lat="44.04557" lon="5.3404">
        <ele>666</ele>
        <time>2015-11-15T00:38:43Z</time>
      </trkpt>
      <trkpt lat="44.04565" lon="5.34032">
        <ele>667</ele>
        <time>2015-11-15T00:40:43Z</time>
      </trkpt>
      <trkpt lat="44.04572" lon="5.34027">
        <ele>669</ele>
        <time>2015-11-15T00:42:43Z</time>
      </trkpt>
      <trkpt lat="44.04581" lon="5.34023">
        <ele>673</ele>
        <time>2015-11-15T00:44:43Z</time>
      </trkpt>
      <trkpt lat="44.04585" lon="5.34022">
        <ele>674</ele>
        <time>2015-11-15T00:46:43Z</time>
      </trkpt>
      <trkpt lat="44.04593" lon="5.3402">
        <ele>677</ele>
        <time>2015-11-15T00:48:43Z</time>
      </trkpt>
      <trkpt lat="44.04604" lon="5.3402">
        <ele>682</ele>
        <time>2015-11-15T00:50:43Z</time>
      </trkpt>
      <trkpt lat="44.04614" lon="5.34022">
        <ele>687</ele>
        <time>2015-11-15T00:52:43Z</time>
      </trkpt>
      <trkpt lat="44.04629" lon="5.34025">
        <ele>695</ele>
        <time>2015-11-15T00:54:43Z</time>
      </trkpt>
      <trkpt lat="44.04635" lon="5.34027">
        <ele>699</ele>
        <time>2015-11-15T00:56:43Z</time>
      </trkpt>
      <trkpt lat="44.04644" lon="5.3403">
        <ele>703</ele>
        <time>2015-11-15T00:58:43Z</time>
      </trkpt>
      <trkpt lat="44.04651" lon="5.34033">
        <ele>707</ele>
        <time>2015-11-15T01:00:43Z</time>
      </trkpt>
      <trkpt lat="44.04658" lon="5.34037">
        <ele>711</ele>
        <time>2015-11-15T01:02:43Z</time>
      </trkpt>
      <trkpt lat="44.04665" lon="5.34041">
        <ele>715</ele>
        <time>2015-11-15T01:04:43Z</time>
      </trkpt>
      <trkpt lat="44.04681" lon="5.34052">
        <ele>721</ele>
        <time>2015-11-15T01:06:43Z</time>
      </trkpt>
      <trkpt lat="44.04685" lon="5.34056">
        <ele>723</ele>
        <time>2015-11-15T01:08:43Z</time>
      </trkpt>
      <trkpt lat="44.04689" lon="5.34058">
        <ele>724</ele>
        <time>2015-11-15T01:10:43Z</time>
      </trkpt>
      <trkpt lat="44.04693" lon="5.3406">
        <ele>725</ele>
        <time>2015-11-15T01:12:43Z</time>
      </trkpt>
      <trkpt lat="44.04696" lon="5.3406">
        <ele>726</ele>
        <time>2015-11-15T01:14:43Z</time>
      </trkpt>
      <trkpt lat="44.047" lon="5.3406">
        <ele>727</ele>
        <time>2015-11-15T01:16:43Z</time>
      </trkpt>
      <trkpt lat="44.04703" lon="5.34058">
        <ele>727</ele>
        <time>2015-11-15T01:18:43Z</time>
      </trkpt>
      <trkpt lat="44.04706" lon="5.34056">
        <ele>728</ele>
        <time>2015-11-15T01:20:43Z</time>
      </trkpt>
      <trkpt lat="44.04713" lon="5.3405">
        <ele>728</ele>
        <time>2015-11-15T01:22:43Z</time>
      </trkpt>
      <trkpt lat="44.04723" lon="5.34039">
        <ele>729</ele>
        <time>2015-11-15T01:24:43Z</time>
      </trkpt>
      <trkpt lat="44.04726" lon="5.34036">
        <ele>730</ele>
        <time>2015-11-15T01:26:43Z</time>
      </trkpt>
      <trkpt lat="44.0473" lon="5.34032">
        <ele>730</ele>
        <time>2015-11-15T01:28:43Z</time>
      </trkpt>
      <trkpt lat="44.04733" lon="5.34028">
        <ele>731</ele>
        <time>2015-11-15T01:30:43Z</time>
      </trkpt>
      <trkpt lat="44.04737" lon="5.34025">
        <ele>732</ele>
        <time>2015-11-15T01:32:43Z</time>
      </trkpt>
      <trkpt lat="44.04745" lon="5.3402">
        <ele>734</ele>
        <time>2015-11-15T01:34:43Z</time>
      </trkpt>
      <trkpt lat="44.04753" lon="5.34017">
        <ele>736</ele>
        <time>2015-11-15T01:36:43Z</time>
      </trkpt>
      <trkpt lat="44.04761" lon="5.34016">
        <ele>737</ele>
        <time>2015-11-15T01:38:43Z</time>
      </trkpt>
      <trkpt lat="44.04768" lon="5.34016">
        <ele>738</ele>
        <time>2015-11-15T01:40:43Z</time>
      </trkpt>
      <trkpt lat="44.04775" lon="5.34017">
        <ele>740</ele>
        <time>2015-11-15T01:42:43Z</time>
      </trkpt>
      <trkpt lat="44.04786" lon="5.34022">
        <ele>742</ele>
        <time>2015-11-15T01:44:43Z</time>
      </trkpt>
      <trkpt lat="44.04793" lon="5.34026">
        <ele>743</ele>
        <time>2015-11-15T01:46:43Z</time>
      </trkpt>
      <trkpt lat="44.04805" lon="5.34033">
        <ele>745</ele>
        <time>2015-11-15T01:48:43Z</time>
      </trkpt>
      <trkpt lat="44.04813" lon="5.34037">
        <ele>746</ele>
        <time>2015-11-15T01:50:43Z</time>
      </trkpt>
      <trkpt lat="44.04817" lon="5.34038">
        <ele>747</ele>
        <time>2015-11-15T01:52:43Z</time>
      </trkpt>
      <trkpt lat="44.04824" lon="5.34041">
        <ele>748</ele>
        <time>2015-11-15T01:54:43Z</time>
      </trkpt>
      <trkpt lat="44.04832" lon="5.34042">
        <ele>749</ele>
        <time>2015-11-15T01:56:43Z</time>
      </trkpt>
      <trkpt lat="44.04839" lon="5.34042">
        <ele>750</ele>
        <time>2015-11-15T01:58:43Z</time>
      </trkpt>
      <trkpt lat="44.04846" lon="5.34041">
        <ele>750</ele>
        <time>2015-11-15T02:00:43Z</time>
      </trkpt>
      <trkpt lat="44.04853" lon="5.3404">
        <ele>751</ele>
        <time>2015-11-15T02:02:43Z</time>
      </trkpt>
      <trkpt lat="44.0486" lon="5.34038">
        <ele>752</ele>
        <time>2015-11-15T02:04:43Z</time>
      </trkpt>
      <trkpt lat="44.04874" lon="5.34033">
        <ele>753</ele>
        <time>2015-11-15T02:06:43Z</time>
      </trkpt>
      <trkpt lat="44.04888" lon="5.34028">
        <ele>755</ele>
        <time>2015-11-15T02:08:43Z</time>
      </trkpt>
      <trkpt lat="44.04904" lon="5.34022">
        <ele>757</ele>
        <time>2015-11-15T02:10:43Z</time>
      </trkpt>
      <trkpt lat="44.04917" lon="5.34019">
        <ele>759</ele>
        <time>2015-11-15T02:12:43Z</time>
      </trkpt>
      <trkpt lat="44.04926" lon="5.34017">
        <ele>760</ele>
        <time>2015-11-15T02:14:43Z</time>
      </trkpt>
      <trkpt lat="44.04935" lon="5.34016">
        <ele>761</ele>
        <time>2015-11-15T02:16:43Z</time>
      </trkpt>
      <trkpt lat="44.04944" lon="5.34016">
        <ele>762</ele>
        <time>2015-11-15T02:18:43Z</time>
      </trkpt>
      <trkpt lat="44.04952" lon="5.34017">
        <ele>763</ele>
        <time>2015-11-15T02:20:43Z</time>
      </trkpt>
      <trkpt lat="44.0496" lon="5.34019">
        <ele>764</ele>
        <time>2015-11-15T02:22:43Z</time>
      </trkpt>
      <trkpt lat="44.04971" lon="5.34023">
        <ele>764</ele>
        <time>2015-11-15T02:24:43Z</time>
      </trkpt>
      <trkpt lat="44.04978" lon="5.34026">
        <ele>765</ele>
        <time>2015-11-15T02:26:43Z</time>
      </trkpt>
      <trkpt lat="44.04985" lon="5.3403">
        <ele>765</ele>
        <time>2015-11-15T02:28:43Z</time>
      </trkpt>
      <trkpt lat="44.04996" lon="5.34037">
        <ele>765</ele>
        <time>2015-11-15T02:30:43Z</time>
      </trkpt>
      <trkpt lat="44.05006" lon="5.34045">
        <ele>765</ele>
        <time>2015-11-15T02:32:43Z</time>
      </trkpt>
      <trkpt lat="44.05049" lon="5.3408">
        <ele>766</ele>
        <time>2015-11-15T02:34:43Z</time>
      </trkpt>
      <trkpt lat="44.05053" lon="5.34083">
        <ele>766</ele>
        <time>2015-11-15T02:36:43Z</time>
      </trkpt>
      <trkpt lat="44.05078" lon="5.34103">
        <ele>766</ele>
        <time>2015-11-15T02:38:43Z</time>
      </trkpt>
      <trkpt lat="44.05106" lon="5.34127">
        <ele>768</ele>
        <time>2015-11-15T02:40:43Z</time>
      </trkpt>
      <trkpt lat="44.05109" lon="5.34131">
        <ele>768</ele>
        <time>2015-11-15T02:42:43Z</time>
      </trkpt>
      <trkpt lat="44.0513" lon="5.34149">
        <ele>769</ele>
        <time>2015-11-15T02:44:43Z</time>
      </trkpt>
      <trkpt lat="44.05166" lon="5.34182">
        <ele>771</ele>
        <time>2015-11-15T02:46:43Z</time>
      </trkpt>
      <trkpt lat="44.05182" lon="5.34196">
        <ele>773</ele>
        <time>2015-11-15T02:48:43Z</time>
      </trkpt>
      <trkpt lat="44.05198" lon="5.34209">
        <ele>774</ele>
        <time>2015-11-15T02:50:43Z</time>
      </trkpt>
      <trkpt lat="44.05222" lon="5.34226">
        <ele>777</ele>
        <time>2015-11-15T02:52:43Z</time>
      </trkpt>
      <trkpt lat="44.05255" lon="5.34246">
        <ele>780</ele>
        <time>2015-11-15T02:54:43Z</time>
      </trkpt>
      <trkpt lat="44.05259" lon="5.34249">
        <ele>781</ele>
        <time>2015-11-15T02:56:43Z</time>
      </trkpt>
      <trkpt lat="44.05279" lon="5.34261">
        <ele>783</ele>
        <time>2015-11-15T02:58:43Z</time>
      </trkpt>
      <trkpt lat="44.05304" lon="5.34278">
        <ele>786</ele>
        <time>2015-11-15T03:00:43Z</time>
      </trkpt>
      <trkpt lat="44.0532" lon="5.34291">
        <ele>787</ele>
        <time>2015-11-15T03:02:43Z</time>
      </trkpt>
      <trkpt lat="44.05326" lon="5.34296">
        <ele>787</ele>
        <time>2015-11-15T03:04:43Z</time>
      </trkpt>
      <trkpt lat="44.05334" lon="5.34302">
        <ele>788</ele>
        <time>2015-11-15T03:06:43Z</time>
      </trkpt>
      <trkpt lat="44.05338" lon="5.34304">
        <ele>788</ele>
        <time>2015-11-15T03:08:43Z</time>
      </trkpt>
      <trkpt lat="44.05346" lon="5.34308">
        <ele>789</ele>
        <time>2015-11-15T03:10:43Z</time>
      </trkpt>
      <trkpt lat="44.0535" lon="5.34309">
        <ele>789</ele>
        <time>2015-11-15T03:12:43Z</time>
      </trkpt>
      <trkpt lat="44.05358" lon="5.34311">
        <ele>790</ele>
        <time>2015-11-15T03:14:43Z</time>
      </trkpt>
      <trkpt lat="44.05362" lon="5.34311">
        <ele>791</ele>
        <time>2015-11-15T03:16:43Z</time>
      </trkpt>
      <trkpt lat="44.05369" lon="5.34311">
        <ele>793</ele>
        <time>2015-11-15T03:18:43Z</time>
      </trkpt>
      <trkpt lat="44.05377" lon="5.34311">
        <ele>794</ele>
        <time>2015-11-15T03:20:43Z</time>
      </trkpt>
      <trkpt lat="44.05384" lon="5.34309">
        <ele>796</ele>
        <time>2015-11-15T03:22:43Z</time>
      </trkpt>
      <trkpt lat="44.05392" lon="5.34307">
        <ele>798</ele>
        <time>2015-11-15T03:24:43Z</time>
      </trkpt>
      <trkpt lat="44.054" lon="5.34304">
        <ele>800</ele>
        <time>2015-11-15T03:26:43Z</time>
      </trkpt>
      <trkpt lat="44.05432" lon="5.3429">
        <ele>810</ele>
        <time>2015-11-15T03:28:43Z</time>
      </trkpt>
      <trkpt lat="44.05445" lon="5.34286">
        <ele>813</ele>
        <time>2015-11-15T03:30:43Z</time>
      </trkpt>
      <trkpt lat="44.05457" lon="5.34282">
        <ele>816</ele>
        <time>2015-11-15T03:32:43Z</time>
      </trkpt>
      <trkpt lat="44.05462" lon="5.34282">
        <ele>817</ele>
        <time>2015-11-15T03:34:43Z</time>
      </trkpt>
      <trkpt lat="44.05467" lon="5.34282">
        <ele>818</ele>
        <time>2015-11-15T03:36:43Z</time>
      </trkpt>
      <trkpt lat="44.05473" lon="5.34285">
        <ele>819</ele>
        <time>2015-11-15T03:38:43Z</time>
      </trkpt>
      <trkpt lat="44.05477" lon="5.34288">
        <ele>819</ele>
        <time>2015-11-15T03:40:43Z</time>
      </trkpt>
      <trkpt lat="44.05481" lon="5.34291">
        <ele>820</ele>
        <time>2015-11-15T03:42:43Z</time>
      </trkpt>
      <trkpt lat="44.05488" lon="5.34299">
        <ele>820</ele>
        <time>2015-11-15T03:44:43Z</time>
      </trkpt>
      <trkpt lat="44.05495" lon="5.34309">
        <ele>820</ele>
        <time>2015-11-15T03:46:43Z</time>
      </trkpt>
      <trkpt lat="44.05498" lon="5.34315">
        <ele>820</ele>
        <time>2015-11-15T03:48:43Z</time>
      </trkpt>
      <trkpt lat="44.05507" lon="5.34333">
        <ele>820</ele>
        <time>2015-11-15T03:50:43Z</time>
      </trkpt>
      <trkpt lat="44.05514" lon="5.34345">
        <ele>820</ele>
        <time>2015-11-15T03:52:43Z</time>
      </trkpt>
      <trkpt lat="44.0552" lon="5.34355">
        <ele>821</ele>
        <time>2015-11-15T03:54:43Z</time>
      </trkpt>
      <trkpt lat="44.05523" lon="5.3436">
        <ele>821</ele>
        <time>2015-11-15T03:56:43Z</time>
      </trkpt>
      <trkpt lat="44.05529" lon="5.34369">
        <ele>821</ele>
        <time>2015-11-15T03:58:43Z</time>
      </trkpt>
      <trkpt lat="44.05536" lon="5.34376">
        <ele>823</ele>
        <time>2015-11-15T04:00:43Z</time>
      </trkpt>
      <trkpt lat="44.05543" lon="5.34382">
        <ele>824</ele>
        <time>2015-11-15T04:02:43Z</time>
      </trkpt>
      <trkpt lat="44.0555" lon="5.34388">
        <ele>826</ele>
        <time>2015-11-15T04:04:43Z</time>
      </trkpt>
      <trkpt lat="44.05557" lon="5.34392">
        <ele>827</ele>
        <time>2015-11-15T04:06:43Z</time>
      </trkpt>
      <trkpt lat="44.05568" lon="5.34398">
        <ele>830</ele>
        <time>2015-11-15T04:08:43Z</time>
      </trkpt>
      <trkpt lat="44.05587" lon="5.34407">
        <ele>836</ele>
        <time>2015-11-15T04:10:43Z</time>
      </trkpt>
      <trkpt lat="44.05596" lon="5.34409">
        <ele>837</ele>
        <time>2015-11-15T04:12:43Z</time>
      </trkpt>
      <trkpt lat="44.05617" lon="5.34418">
        <ele>840</ele>
        <time>2015-11-15T04:14:43Z</time>
      </trkpt>
      <trkpt lat="44.05626" lon="5.34422">
        <ele>841</ele>
        <time>2015-11-15T04:16:43Z</time>
      </trkpt>
      <trkpt lat="44.05645" lon="5.34432">
        <ele>843</ele>
        <time>2015-11-15T04:18:43Z</time>
      </trkpt>
      <trkpt lat="44.05654" lon="5.34436">
        <ele>844</ele>
        <time>2015-11-15T04:20:43Z</time>
      </trkpt>
      <trkpt lat="44.05671" lon="5.34443">
        <ele>846</ele>
        <time>2015-11-15T04:22:43Z</time>
      </trkpt>
      <trkpt lat="44.05679" lon="5.34446">
        <ele>846</ele>
        <time>2015-11-15T04:24:43Z</time>
      </trkpt>
      <trkpt lat="44.05699" lon="5.34451">
        <ele>848</ele>
        <time>2015-11-15T04:26:43Z</time>
      </trkpt>
      <trkpt lat="44.05707" lon="5.34453">
        <ele>849</ele>
        <time>2015-11-15T04:28:43Z</time>
      </trkpt>
      <trkpt lat="44.05719" lon="5.34456">
        <ele>850</ele>
        <time>2015-11-15T04:30:43Z</time>
      </trkpt>
      <trkpt lat="44.05723" lon="5.34456">
        <ele>851</ele>
        <time>2015-11-15T04:32:43Z</time>
      </trkpt>
      <trkpt lat="44.05735" lon="5.34459">
        <ele>853</ele>
        <time>2015-11-15T04:34:43Z</time>
      </trkpt>
      <trkpt lat="44.0574" lon="5.34459">
        <ele>853</ele>
        <time>2015-11-15T04:36:43Z</time>
      </trkpt>
      <trkpt lat="44.05768" lon="5.34464">
        <ele>858</ele>
        <time>2015-11-15T04:38:43Z</time>
      </trkpt>
      <trkpt lat="44.05773" lon="5.34465">
        <ele>859</ele>
        <time>2015-11-15T04:40:43Z</time>
      </trkpt>
      <trkpt lat="44.0578" lon="5.34466">
        <ele>860</ele>
        <time>2015-11-15T04:42:43Z</time>
      </trkpt>
      <trkpt lat="44.05783" lon="5.34465">
        <ele>860</ele>
        <time>2015-11-15T04:44:43Z</time>
      </trkpt>
      <trkpt lat="44.05783" lon="5.34461">
        <ele>861</ele>
        <time>2015-11-15T04:46:43Z</time>
      </trkpt>
      <trkpt lat="44.05784" lon="5.34459">
        <ele>861</ele>
        <time>2015-11-15T04:48:43Z</time>
      </trkpt>
      <trkpt lat="44.05786" lon="5.34459">
        <ele>861</ele>
        <time>2015-11-15T04:50:43Z</time>
      </trkpt>
      <trkpt lat="44.05792" lon="5.3446">
        <ele>862</ele>
        <time>2015-11-15T04:52:43Z</time>
      </trkpt>
      <trkpt lat="44.05803" lon="5.34464">
        <ele>864</ele>
        <time>2015-11-15T04:54:43Z</time>
      </trkpt>
      <trkpt lat="44.05805" lon="5.34466">
        <ele>864</ele>
        <time>2015-11-15T04:56:43Z</time>
      </trkpt>
      <trkpt lat="44.05809" lon="5.34472">
        <ele>865</ele>
        <time>2015-11-15T04:58:43Z</time>
      </trkpt>
      <trkpt lat="44.0581" lon="5.34476">
        <ele>865</ele>
        <time>2015-11-15T05:00:43Z</time>
      </trkpt>
      <trkpt lat="44.05811" lon="5.34481">
        <ele>866</ele>
        <time>2015-11-15T05:02:43Z</time>
      </trkpt>
      <trkpt lat="44.05812" lon="5.34486">
        <ele>866</ele>
        <time>2015-11-15T05:04:43Z</time>
      </trkpt>
      <trkpt lat="44.05812" lon="5.34492">
        <ele>866</ele>
        <time>2015-11-15T05:06:43Z</time>
      </trkpt>
      <trkpt lat="44.05812" lon="5.34499">
        <ele>866</ele>
        <time>2015-11-15T05:08:43Z</time>
      </trkpt>
      <trkpt lat="44.05811" lon="5.34513">
        <ele>866</ele>
        <time>2015-11-15T05:10:43Z</time>
      </trkpt>
      <trkpt lat="44.0581" lon="5.3453">
        <ele>867</ele>
        <time>2015-11-15T05:12:43Z</time>
      </trkpt>
      <trkpt lat="44.05801" lon="5.34604">
        <ele>864</ele>
        <time>2015-11-15T05:14:43Z</time>
      </trkpt>
      <trkpt lat="44.05799" lon="5.34629">
        <ele>862</ele>
        <time>2015-11-15T05:16:43Z</time>
      </trkpt>
      <trkpt lat="44.05797" lon="5.34655">
        <ele>860</ele>
        <time>2015-11-15T05:18:43Z</time>
      </trkpt>
      <trkpt lat="44.05796" lon="5.34683">
        <ele>858</ele>
        <time>2015-11-15T05:20:43Z</time>
      </trkpt>
      <trkpt lat="44.05795" lon="5.34711">
        <ele>855</ele>
        <time>2015-11-15T05:22:43Z</time>
      </trkpt>
      <trkpt lat="44.05796" lon="5.34741">
        <ele>853</ele>
        <time>2015-11-15T05:24:43Z</time>
      </trkpt>
      <trkpt lat="44.05797" lon="5.34756">
        <ele>852</ele>
        <time>2015-11-15T05:26:43Z</time>
      </trkpt>
      <trkpt lat="44.05799" lon="5.3478">
        <ele>849</ele>
        <time>2015-11-15T05:28:43Z</time>
      </trkpt>
      <trkpt lat="44.058" lon="5.34788">
        <ele>848</ele>
        <time>2015-11-15T05:30:43Z</time>
      </trkpt>
      <trkpt lat="44.05801" lon="5.34795">
        <ele>848</ele>
        <time>2015-11-15T05:32:43Z</time>
      </trkpt>
      <trkpt lat="44.05805" lon="5.34809">
        <ele>847</ele>
        <time>2015-11-15T05:34:43Z</time>
      </trkpt>
      <trkpt lat="44.05807" lon="5.34815">
        <ele>847</ele>
        <time>2015-11-15T05:36:43Z</time>
      </trkpt>
      <trkpt lat="44.0581" lon="5.34821">
        <ele>847</ele>
        <time>2015-11-15T05:38:43Z</time>
      </trkpt>
      <trkpt lat="44.05815" lon="5.34831">
        <ele>846</ele>
        <time>2015-11-15T05:40:43Z</time>
      </trkpt>
      <trkpt lat="44.05818" lon="5.34836">
        <ele>846</ele>
        <time>2015-11-15T05:42:43Z</time>
      </trkpt>
      <trkpt lat="44.05823" lon="5.34844">
        <ele>846</ele>
        <time>2015-11-15T05:44:43Z</time>
      </trkpt>
      <trkpt lat="44.05829" lon="5.34851">
        <ele>847</ele>
        <time>2015-11-15T05:46:43Z</time>
      </trkpt>
      <trkpt lat="44.05835" lon="5.34858">
        <ele>847</ele>
        <time>2015-11-15T05:48:43Z</time>
      </trkpt>
      <trkpt lat="44.05841" lon="5.34863">
        <ele>848</ele>
        <time>2015-11-15T05:50:43Z</time>
      </trkpt>
      <trkpt lat="44.05854" lon="5.34875">
        <ele>850</ele>
        <time>2015-11-15T05:52:43Z</time>
      </trkpt>
      <trkpt lat="44.0586" lon="5.34881">
        <ele>850</ele>
        <time>2015-11-15T05:54:43Z</time>
      </trkpt>
      <trkpt lat="44.05863" lon="5.34885">
        <ele>851</ele>
        <time>2015-11-15T05:56:43Z</time>
      </trkpt>
      <trkpt lat="44.05865" lon="5.34889">
        <ele>851</ele>
        <time>2015-11-15T05:58:43Z</time>
      </trkpt>
      <trkpt lat="44.05866" lon="5.34894">
        <ele>850</ele>
        <time>2015-11-15T06:00:43Z</time>
      </trkpt>
      <trkpt lat="44.05866" lon="5.34902">
        <ele>849</ele>
        <time>2015-11-15T06:02:43Z</time>
      </trkpt>
      <trkpt lat="44.05865" lon="5.34923">
        <ele>846</ele>
        <time>2015-11-15T06:04:43Z</time>
      </trkpt>
      <trkpt lat="44.05865" lon="5.34929">
        <ele>845</ele>
        <time>2015-11-15T06:06:43Z</time>
      </trkpt>
      <trkpt lat="44.05866" lon="5.34948">
        <ele>843</ele>
        <time>2015-11-15T06:08:43Z</time>
      </trkpt>
      <trkpt lat="44.05868" lon="5.34965">
        <ele>841</ele>
        <time>2015-11-15T06:10:43Z</time>
      </trkpt>
      <trkpt lat="44.05869" lon="5.34975">
        <ele>839</ele>
        <time>2015-11-15T06:12:43Z</time>
      </trkpt>
      <trkpt lat="44.05872" lon="5.3499">
        <ele>838</ele>
        <time>2015-11-15T06:14:43Z</time>
      </trkpt>
      <trkpt lat="44.05875" lon="5.34999">
        <ele>838</ele>
        <time>2015-11-15T06:16:43Z</time>
      </trkpt>
      <trkpt lat="44.05878" lon="5.35008">
        <ele>835</ele>
        <time>2015-11-15T06:18:43Z</time>
      </trkpt>
      <trkpt lat="44.05882" lon="5.35021">
        <ele>832</ele>
        <time>2015-11-15T06:20:43Z</time>
      </trkpt>
      <trkpt lat="44.05889" lon="5.35037">
        <ele>828</ele>
        <time>2015-11-15T06:22:43Z</time>
      </trkpt>
      <trkpt lat="44.05901" lon="5.35061">
        <ele>823</ele>
        <time>2015-11-15T06:24:43Z</time>
      </trkpt>
      <trkpt lat="44.05906" lon="5.35069">
        <ele>821</ele>
        <time>2015-11-15T06:26:43Z</time>
      </trkpt>
      <trkpt lat="44.05911" lon="5.35076">
        <ele>820</ele>
        <time>2015-11-15T06:28:43Z</time>
      </trkpt>
      <trkpt lat="44.05917" lon="5.35084">
        <ele>819</ele>
        <time>2015-11-15T06:30:43Z</time>
      </trkpt>
      <trkpt lat="44.05929" lon="5.35098">
        <ele>813</ele>
        <time>2015-11-15T06:32:43Z</time>
      </trkpt>
      <trkpt lat="44.05936" lon="5.35105">
        <ele>811</ele>
        <time>2015-11-15T06:34:43Z</time>
      </trkpt>
      <trkpt lat="44.05946" lon="5.35114">
        <ele>808</ele>
        <time>2015-11-15T06:36:43Z</time>
      </trkpt>
      <trkpt lat="44.05956" lon="5.35122">
        <ele>806</ele>
        <time>2015-11-15T06:38:43Z</time>
      </trkpt>
      <trkpt lat="44.05966" lon="5.3513">
        <ele>804</ele>
        <time>2015-11-15T06:40:43Z</time>
      </trkpt>
      <trkpt lat="44.05978" lon="5.35138">
        <ele>803</ele>
        <time>2015-11-15T06:42:43Z</time>
      </trkpt>
      <trkpt lat="44.05993" lon="5.35146">
        <ele>802</ele>
        <time>2015-11-15T06:44:43Z</time>
      </trkpt>
      <trkpt lat="44.05996" lon="5.35147">
        <ele>803</ele>
        <time>2015-11-15T06:46:43Z</time>
      </trkpt>
      <trkpt lat="44.06003" lon="5.35149">
        <ele>803</ele>
        <time>2015-11-15T06:48:43Z</time>
      </trkpt>
      <trkpt lat="44.06011" lon="5.35151">
        <ele>802</ele>
        <time>2015-11-15T06:50:43Z</time>
      </trkpt>
      <trkpt lat="44.06022" lon="5.35152">
        <ele>802</ele>
        <time>2015-11-15T06:52:43Z</time>
      </trkpt>
      <trkpt lat="44.06036" lon="5.35152">
        <ele>803</ele>
        <time>2015-11-15T06:54:43Z</time>
      </trkpt>
      <trkpt lat="44.06066" lon="5.35151">
        <ele>806</ele>
        <time>2015-11-15T06:56:43Z</time>
      </trkpt>
      <trkpt lat="44.0608" lon="5.35152">
        <ele>806</ele>
        <time>2015-11-15T06:58:43Z</time>
      </trkpt>
      <trkpt lat="44.06087" lon="5.35153">
        <ele>806</ele>
        <time>2015-11-15T07:00:43Z</time>
      </trkpt>
      <trkpt lat="44.06093" lon="5.35154">
        <ele>806</ele>
        <time>2015-11-15T07:02:43Z</time>
      </trkpt>
      <trkpt lat="44.06097" lon="5.35155">
        <ele>806</ele>
        <time>2015-11-15T07:04:43Z</time>
      </trkpt>
      <trkpt lat="44.06103" lon="5.35158">
        <ele>805</ele>
        <time>2015-11-15T07:06:43Z</time>
      </trkpt>
      <trkpt lat="44.06113" lon="5.35164">
        <ele>803</ele>
        <time>2015-11-15T07:08:43Z</time>
      </trkpt>
      <trkpt lat="44.0612" lon="5.35168">
        <ele>801</ele>
        <time>2015-11-15T07:10:43Z</time>
      </trkpt>
      <trkpt lat="44.06136" lon="5.35181">
        <ele>796</ele>
        <time>2015-11-15T07:12:43Z</time>
      </trkpt>
      <trkpt lat="44.06149" lon="5.35192">
        <ele>792</ele>
        <time>2015-11-15T07:14:43Z</time>
      </trkpt>
      <trkpt lat="44.06155" lon="5.35198">
        <ele>790</ele>
        <time>2015-11-15T07:16:43Z</time>
      </trkpt>
      <trkpt lat="44.06158" lon="5.35201">
        <ele>789</ele>
        <time>2015-11-15T07:18:43Z</time>
      </trkpt>
      <trkpt lat="44.06164" lon="5.35206">
        <ele>787</ele>
        <time>2015-11-15T07:20:43Z</time>
      </trkpt>
      <trkpt lat="44.06167" lon="5.35209">
        <ele>786</ele>
        <time>2015-11-15T07:22:43Z</time>
      </trkpt>
      <trkpt lat="44.06173" lon="5.35215">
        <ele>784</ele>
        <time>2015-11-15T07:24:43Z</time>
      </trkpt>
      <trkpt lat="44.06182" lon="5.35223">
        <ele>781</ele>
        <time>2015-11-15T07:26:43Z</time>
      </trkpt>
      <trkpt lat="44.06193" lon="5.35233">
        <ele>778</ele>
        <time>2015-11-15T07:28:43Z</time>
      </trkpt>
      <trkpt lat="44.06204" lon="5.35242">
        <ele>775</ele>
        <time>2015-11-15T07:30:43Z</time>
      </trkpt>
      <trkpt lat="44.06209" lon="5.35246">
        <ele>774</ele>
        <time>2015-11-15T07:32:43Z</time>
      </trkpt>
      <trkpt lat="44.06225" lon="5.35259">
        <ele>770</ele>
        <time>2015-11-15T07:34:43Z</time>
      </trkpt>
      <trkpt lat="44.06239" lon="5.35272">
        <ele>766</ele>
        <time>2015-11-15T07:36:43Z</time>
      </trkpt>
      <trkpt lat="44.06248" lon="5.35281">
        <ele>763</ele>
        <time>2015-11-15T07:38:43Z</time>
      </trkpt>
      <trkpt lat="44.0626" lon="5.35294">
        <ele>760</ele>
        <time>2015-11-15T07:40:43Z</time>
      </trkpt>
      <trkpt lat="44.06272" lon="5.35307">
        <ele>757</ele>
        <time>2015-11-15T07:42:43Z</time>
      </trkpt>
      <trkpt lat="44.06279" lon="5.35316">
        <ele>755</ele>
        <time>2015-11-15T07:44:43Z</time>
      </trkpt>
      <trkpt lat="44.06282" lon="5.3532">
        <ele>754</ele>
        <time>2015-11-15T07:46:43Z</time>
      </trkpt>
      <trkpt lat="44.06289" lon="5.35328">
        <ele>752</ele>
        <time>2015-11-15T07:48:43Z</time>
      </trkpt>
      <trkpt lat="44.06295" lon="5.35336">
        <ele>750</ele>
        <time>2015-11-15T07:50:43Z</time>
      </trkpt>
      <trkpt lat="44.06301" lon="5.35344">
        <ele>749</ele>
        <time>2015-11-15T07:52:43Z</time>
      </trkpt>
      <trkpt lat="44.06317" lon="5.35364">
        <ele>746</ele>
        <time>2015-11-15T07:54:43Z</time>
      </trkpt>
      <trkpt lat="44.06319" lon="5.35367">
        <ele>745</ele>
        <time>2015-11-15T07:56:43Z</time>
      </trkpt>
      <trkpt lat="44.06324" lon="5.35374">
        <ele>744</ele>
        <time>2015-11-15T07:58:43Z</time>
      </trkpt>
      <trkpt lat="44.06327" lon="5.35378">
        <ele>743</ele>
        <time>2015-11-15T08:00:43Z</time>
      </trkpt>
      <trkpt lat="44.06331" lon="5.35384">
        <ele>742</ele>
        <time>2015-11-15T08:02:43Z</time>
      </trkpt>
      <trkpt lat="44.06338" lon="5.35398">
        <ele>739</ele>
        <time>2015-11-15T08:04:43Z</time>
      </trkpt>
      <trkpt lat="44.06346" lon="5.35416">
        <ele>736</ele>
        <time>2015-11-15T08:06:43Z</time>
      </trkpt>
      <trkpt lat="44.06351" lon="5.35426">
        <ele>734</ele>
        <time>2015-11-15T08:08:43Z</time>
      </trkpt>
      <trkpt lat="44.06361" lon="5.35448">
        <ele>730</ele>
        <time>2015-11-15T08:10:43Z</time>
      </trkpt>
      <trkpt lat="44.06366" lon="5.35459">
        <ele>728</ele>
        <time>2015-11-15T08:12:43Z</time>
      </trkpt>
      <trkpt lat="44.06378" lon="5.35483">
        <ele>721</ele>
        <time>2015-11-15T08:14:43Z</time>
      </trkpt>
      <trkpt lat="44.06397" lon="5.3552">
        <ele>710</ele>
        <time>2015-11-15T08:16:43Z</time>
      </trkpt>
      <trkpt lat="44.0641" lon="5.35544">
        <ele>702</ele>
        <time>2015-11-15T08:18:43Z</time>
      </trkpt>
      <trkpt lat="44.06417" lon="5.35556">
        <ele>697</ele>
        <time>2015-11-15T08:20:43Z</time>
      </trkpt>
      <trkpt lat="44.06425" lon="5.35567">
        <ele>695</ele>
        <time>2015-11-15T08:22:43Z</time>
      </trkpt>
      <trkpt lat="44.06432" lon="5.35579">
        <ele>692</ele>
        <time>2015-11-15T08:24:43Z</time>
      </trkpt>
      <trkpt lat="44.0644" lon="5.35589">
        <ele>691</ele>
        <time>2015-11-15T08:26:43Z</time>
      </trkpt>
      <trkpt lat="44.06448" lon="5.35599">
        <ele>690</ele>
        <time>2015-11-15T08:28:43Z</time>
      </trkpt>
      <trkpt lat="44.06456" lon="5.35609">
        <ele>690</ele>
        <time>2015-11-15T08:30:43Z</time>
      </trkpt>
      <trkpt lat="44.06464" lon="5.35617">
        <ele>689</ele>
        <time>2015-11-15T08:32:43Z</time>
      </trkpt>
      <trkpt lat="44.06473" lon="5.35625">
        <ele>689</ele>
        <time>2015-11-15T08:34:43Z</time>
      </trkpt>
      <trkpt lat="44.06481" lon="5.35632">
        <ele>688</ele>
        <time>2015-11-15T08:36:43Z</time>
      </trkpt>
      <trkpt lat="44.0649" lon="5.35638">
        <ele>688</ele>
        <time>2015-11-15T08:38:43Z</time>
      </trkpt>
      <trkpt lat="44.06499" lon="5.35643">
        <ele>687</ele>
        <time>2015-11-15T08:40:43Z</time>
      </trkpt>
      <trkpt lat="44.06508" lon="5.35646">
        <ele>689</ele>
        <time>2015-11-15T08:42:43Z</time>
      </trkpt>
      <trkpt lat="44.06518" lon="5.35649">
        <ele>691</ele>
        <time>2015-11-15T08:44:43Z</time>
      </trkpt>
      <trkpt lat="44.06527" lon="5.3565">
        <ele>693</ele>
        <time>2015-11-15T08:46:43Z</time>
      </trkpt>
      <trkpt lat="44.06533" lon="5.35649">
        <ele>695</ele>
        <time>2015-11-15T08:48:43Z</time>
      </trkpt>
      <trkpt lat="44.06549" lon="5.35646">
        <ele>702</ele>
        <time>2015-11-15T08:50:43Z</time>
      </trkpt>
      <trkpt lat="44.06557" lon="5.35644">
        <ele>706</ele>
        <time>2015-11-15T08:52:43Z</time>
      </trkpt>
      <trkpt lat="44.06566" lon="5.35642">
        <ele>710</ele>
        <time>2015-11-15T08:54:43Z</time>
      </trkpt>
      <trkpt lat="44.06573" lon="5.35643">
        <ele>711</ele>
        <time>2015-11-15T08:56:43Z</time>
      </trkpt>
      <trkpt lat="44.06577" lon="5.35644">
        <ele>712</ele>
        <time>2015-11-15T08:58:43Z</time>
      </trkpt>
      <trkpt lat="44.06582" lon="5.35646">
        <ele>712</ele>
        <time>2015-11-15T09:00:43Z</time>
      </trkpt>
      <trkpt lat="44.06586" lon="5.35649">
        <ele>712</ele>
        <time>2015-11-15T09:02:43Z</time>
      </trkpt>
      <trkpt lat="44.06593" lon="5.35656">
        <ele>711</ele>
        <time>2015-11-15T09:04:43Z</time>
      </trkpt>
      <trkpt lat="44.06607" lon="5.35672">
        <ele>709</ele>
        <time>2015-11-15T09:06:43Z</time>
      </trkpt>
      <trkpt lat="44.06613" lon="5.35678">
        <ele>709</ele>
        <time>2015-11-15T09:08:43Z</time>
      </trkpt>
      <trkpt lat="44.0662" lon="5.35682">
        <ele>710</ele>
        <time>2015-11-15T09:10:43Z</time>
      </trkpt>
      <trkpt lat="44.06629" lon="5.35686">
        <ele>712</ele>
        <time>2015-11-15T09:12:43Z</time>
      </trkpt>
      <trkpt lat="44.06637" lon="5.35689">
        <ele>713</ele>
        <time>2015-11-15T09:14:43Z</time>
      </trkpt>
      <trkpt lat="44.06647" lon="5.3569">
        <ele>717</ele>
        <time>2015-11-15T09:16:43Z</time>
      </trkpt>
      <trkpt lat="44.06655" lon="5.35689">
        <ele>720</ele>
        <time>2015-11-15T09:18:43Z</time>
      </trkpt>
      <trkpt lat="44.0666" lon="5.35687">
        <ele>723</ele>
        <time>2015-11-15T09:20:43Z</time>
      </trkpt>
      <trkpt lat="44.06664" lon="5.35686">
        <ele>725</ele>
        <time>2015-11-15T09:22:43Z</time>
      </trkpt>
      <trkpt lat="44.06671" lon="5.35682">
        <ele>729</ele>
        <time>2015-11-15T09:24:43Z</time>
      </trkpt>
      <trkpt lat="44.06679" lon="5.35676">
        <ele>734</ele>
        <time>2015-11-15T09:26:43Z</time>
      </trkpt>
      <trkpt lat="44.06696" lon="5.35661">
        <ele>745</ele>
        <time>2015-11-15T09:28:43Z</time>
      </trkpt>
      <trkpt lat="44.06703" lon="5.35656">
        <ele>748</ele>
        <time>2015-11-15T09:30:43Z</time>
      </trkpt>
      <trkpt lat="44.06726" lon="5.35643">
        <ele>757</ele>
        <time>2015-11-15T09:32:43Z</time>
      </trkpt>
      <trkpt lat="44.06738" lon="5.35635">
        <ele>761</ele>
        <time>2015-11-15T09:34:43Z</time>
      </trkpt>
      <trkpt lat="44.06747" lon="5.35629">
        <ele>764</ele>
        <time>2015-11-15T09:36:43Z</time>
      </trkpt>
      <trkpt lat="44.0675" lon="5.35626">
        <ele>765</ele>
        <time>2015-11-15T09:38:43Z</time>
      </trkpt>
      <trkpt lat="44.06753" lon="5.35624">
        <ele>766</ele>
        <time>2015-11-15T09:40:43Z</time>
      </trkpt>
      <trkpt lat="44.06761" lon="5.35617">
        <ele>769</ele>
        <time>2015-11-15T09:42:43Z</time>
      </trkpt>
      <trkpt lat="44.06769" lon="5.35609">
        <ele>772</ele>
        <time>2015-11-15T09:44:43Z</time>
      </trkpt>
      <trkpt lat="44.06776" lon="5.356">
        <ele>775</ele>
        <time>2015-11-15T09:46:43Z</time>
      </trkpt>
      <trkpt lat="44.06784" lon="5.3559">
        <ele>777</ele>
        <time>2015-11-15T09:48:43Z</time>
      </trkpt>
      <trkpt lat="44.06788" lon="5.35582">
        <ele>779</ele>
        <time>2015-11-15T09:50:43Z</time>
      </trkpt>
      <trkpt lat="44.06795" lon="5.3557">
        <ele>784</ele>
        <time>2015-11-15T09:52:43Z</time>
      </trkpt>
      <trkpt lat="44.06802" lon="5.35555">
        <ele>788</ele>
        <time>2015-11-15T09:54:43Z</time>
      </trkpt>
      <trkpt lat="44.06809" lon="5.35539">
        <ele>793</ele>
        <time>2015-11-15T09:56:43Z</time>
      </trkpt>
      <trkpt lat="44.06826" lon="5.35496">
        <ele>801</ele>
        <time>2015-11-15T09:58:43Z</time>
      </trkpt>
      <trkpt lat="44.06829" lon="5.35487">
        <ele>803</ele>
        <time>2015-11-15T10:00:43Z</time>
      </trkpt>
      <trkpt lat="44.06845" lon="5.35442">
        <ele>817</ele>
        <time>2015-11-15T10:02:43Z</time>
      </trkpt>
      <trkpt lat="44.06851" lon="5.35424">
        <ele>823</ele>
        <time>2015-11-15T10:04:43Z</time>
      </trkpt>
      <trkpt lat="44.06858" lon="5.35407">
        <ele>828</ele>
        <time>2015-11-15T10:06:43Z</time>
      </trkpt>
      <trkpt lat="44.06868" lon="5.35383">
        <ele>834</ele>
        <time>2015-11-15T10:08:43Z</time>
      </trkpt>
      <trkpt lat="44.06871" lon="5.35375">
        <ele>836</ele>
        <time>2015-11-15T10:10:43Z</time>
      </trkpt>
      <trkpt lat="44.06881" lon="5.35354">
        <ele>840</ele>
        <time>2015-11-15T10:12:43Z</time>
      </trkpt>
      <trkpt lat="44.06888" lon="5.35341">
        <ele>841</ele>
        <time>2015-11-15T10:14:43Z</time>
      </trkpt>
      <trkpt lat="44.06895" lon="5.35331">
        <ele>842</ele>
        <time>2015-11-15T10:16:43Z</time>
      </trkpt>
      <trkpt lat="44.06902" lon="5.35322">
        <ele>844</ele>
        <time>2015-11-15T10:18:43Z</time>
      </trkpt>
      <trkpt lat="44.06905" lon="5.35319">
        <ele>844</ele>
        <time>2015-11-15T10:20:43Z</time>
      </trkpt>
      <trkpt lat="44.0691" lon="5.35317">
        <ele>844</ele>
        <time>2015-11-15T10:22:43Z</time>
      </trkpt>
      <trkpt lat="44.06926" lon="5.35308">
        <ele>847</ele>
        <time>2015-11-15T10:24:43Z</time>
      </trkpt>
      <trkpt lat="44.06949" lon="5.35299">
        <ele>851</ele>
        <time>2015-11-15T10:26:43Z</time>
      </trkpt>
      <trkpt lat="44.06975" lon="5.35287">
        <ele>855</ele>
        <time>2015-11-15T10:28:43Z</time>
      </trkpt>
      <trkpt lat="44.06985" lon="5.35283">
        <ele>856</ele>
        <time>2015-11-15T10:30:43Z</time>
      </trkpt>
      <trkpt lat="44.06995" lon="5.35277">
        <ele>857</ele>
        <time>2015-11-15T10:32:43Z</time>
      </trkpt>
      <trkpt lat="44.07009" lon="5.35269">
        <ele>859</ele>
        <time>2015-11-15T10:34:43Z</time>
      </trkpt>
      <trkpt lat="44.07018" lon="5.35263">
        <ele>860</ele>
        <time>2015-11-15T10:36:43Z</time>
      </trkpt>
      <trkpt lat="44.07025" lon="5.35258">
        <ele>861</ele>
        <time>2015-11-15T10:38:43Z</time>
      </trkpt>
      <trkpt lat="44.07031" lon="5.35252">
        <ele>862</ele>
        <time>2015-11-15T10:40:43Z</time>
      </trkpt>
      <trkpt lat="44.07035" lon="5.35247">
        <ele>862</ele>
        <time>2015-11-15T10:42:43Z</time>
      </trkpt>
      <trkpt lat="44.07065" lon="5.35212">
        <ele>870</ele>
        <time>2015-11-15T10:44:43Z</time>
      </trkpt>
      <trkpt lat="44.07108" lon="5.35163">
        <ele>877</ele>
        <time>2015-11-15T10:46:43Z</time>
      </trkpt>
      <trkpt lat="44.07116" lon="5.35155">
        <ele>879</ele>
        <time>2015-11-15T10:48:43Z</time>
      </trkpt>
      <trkpt lat="44.07133" lon="5.35136">
        <ele>882</ele>
        <time>2015-11-15T10:50:43Z</time>
      </trkpt>
      <trkpt lat="44.0714" lon="5.35128">
        <ele>883</ele>
        <time>2015-11-15T10:52:43Z</time>
      </trkpt>
      <trkpt lat="44.07152" lon="5.35116">
        <ele>884</ele>
        <time>2015-11-15T10:54:43Z</time>
      </trkpt>
      <trkpt lat="44.07157" lon="5.35113">
        <ele>885</ele>
        <time>2015-11-15T10:56:43Z</time>
      </trkpt>
      <trkpt lat="44.07161" lon="5.35111">
        <ele>885</ele>
        <time>2015-11-15T10:58:43Z</time>
      </trkpt>
      <trkpt lat="44.07165" lon="5.35109">
        <ele>885</ele>
        <time>2015-11-15T11:00:43Z</time>
      </trkpt>
      <trkpt lat="44.07173" lon="5.35106">
        <ele>886</ele>
        <time>2015-11-15T11:02:43Z</time>
      </trkpt>
      <trkpt lat="44.07181" lon="5.35104">
        <ele>886</ele>
        <time>2015-11-15T11:04:43Z</time>
      </trkpt>
      <trkpt lat="44.07189" lon="5.351">
        <ele>887</ele>
        <time>2015-11-15T11:06:43Z</time>
      </trkpt>
      <trkpt lat="44.07193" lon="5.35098">
        <ele>887</ele>
        <time>2015-11-15T11:08:43Z</time>
      </trkpt>
      <trkpt lat="44.072" lon="5.35091">
        <ele>888</ele>
        <time>2015-11-15T11:10:43Z</time>
      </trkpt>
      <trkpt lat="44.07204" lon="5.35086">
        <ele>888</ele>
        <time>2015-11-15T11:12:43Z</time>
      </trkpt>
      <trkpt lat="44.07208" lon="5.3508">
        <ele>889</ele>
        <time>2015-11-15T11:14:43Z</time>
      </trkpt>
      <trkpt lat="44.07212" lon="5.35073">
        <ele>890</ele>
        <time>2015-11-15T11:16:43Z</time>
      </trkpt>
      <trkpt lat="44.07215" lon="5.35067">
        <ele>891</ele>
        <time>2015-11-15T11:18:43Z</time>
      </trkpt>
      <trkpt lat="44.07224" lon="5.3505">
        <ele>893</ele>
        <time>2015-11-15T11:20:43Z</time>
      </trkpt>
      <trkpt lat="44.07232" lon="5.35037">
        <ele>895</ele>
        <time>2015-11-15T11:22:43Z</time>
      </trkpt>
      <trkpt lat="44.07237" lon="5.3503">
        <ele>896</ele>
        <time>2015-11-15T11:24:43Z</time>
      </trkpt>
      <trkpt lat="44.07244" lon="5.35021">
        <ele>897</ele>
        <time>2015-11-15T11:26:43Z</time>
      </trkpt>
      <trkpt lat="44.07249" lon="5.35017">
        <ele>898</ele>
        <time>2015-11-15T11:28:43Z</time>
      </trkpt>
      <trkpt lat="44.07253" lon="5.35013">
        <ele>899</ele>
        <time>2015-11-15T11:30:43Z</time>
      </trkpt>
      <trkpt lat="44.07262" lon="5.35008">
        <ele>900</ele>
        <time>2015-11-15T11:32:43Z</time>
      </trkpt>
      <trkpt lat="44.07287" lon="5.34997">
        <ele>903</ele>
        <time>2015-11-15T11:34:43Z</time>
      </trkpt>
      <trkpt lat="44.07291" lon="5.34994">
        <ele>903</ele>
        <time>2015-11-15T11:36:43Z</time>
      </trkpt>
      <trkpt lat="44.07295" lon="5.3499">
        <ele>904</ele>
        <time>2015-11-15T11:38:43Z</time>
      </trkpt>
      <trkpt lat="44.07299" lon="5.34986">
        <ele>904</ele>
        <time>2015-11-15T11:40:43Z</time>
      </trkpt>
      <trkpt lat="44.07302" lon="5.34982">
        <ele>905</ele>
        <time>2015-11-15T11:42:43Z</time>
      </trkpt>
      <trkpt lat="44.07306" lon="5.34971">
        <ele>906</ele>
        <time>2015-11-15T11:44:43Z</time>
      </trkpt>
      <trkpt lat="44.07307" lon="5.34965">
        <ele>906</ele>
        <time>2015-11-15T11:46:43Z</time>
      </trkpt>
      <trkpt lat="44.07308" lon="5.3496">
        <ele>907</ele>
        <time>2015-11-15T11:48:43Z</time>
      </trkpt>
      <trkpt lat="44.07309" lon="5.34947">
        <ele>907</ele>
        <time>2015-11-15T11:50:43Z</time>
      </trkpt>
      <trkpt lat="44.0731" lon="5.34933">
        <ele>908</ele>
        <time>2015-11-15T11:52:43Z</time>
      </trkpt>
      <trkpt lat="44.0731" lon="5.34919">
        <ele>909</ele>
        <time>2015-11-15T11:54:43Z</time>
      </trkpt>
      <trkpt lat="44.07309" lon="5.34912">
        <ele>909</ele>
        <time>2015-11-15T11:56:43Z</time>
      </trkpt>
      <trkpt lat="44.07309" lon="5.34892">
        <ele>909</ele>
        <time>2015-11-15T11:58:43Z</time>
      </trkpt>
      <trkpt lat="44.07309" lon="5.34885">
        <ele>909</ele>
        <time>2015-11-15T12:00:43Z</time>
      </trkpt>
      <trkpt lat="44.0731" lon="5.34872">
        <ele>908</ele>
        <time>2015-11-15T12:02:43Z</time>
      </trkpt>
      <trkpt lat="44.07311" lon="5.34866">
        <ele>908</ele>
        <time>2015-11-15T12:04:43Z</time>
      </trkpt>
      <trkpt lat="44.07312" lon="5.3486">
        <ele>908</ele>
        <time>2015-11-15T12:06:43Z</time>
      </trkpt>
      <trkpt lat="44.07314" lon="5.34855">
        <ele>908</ele>
        <time>2015-11-15T12:08:43Z</time>
      </trkpt>
      <trkpt lat="44.07316" lon="5.3485">
        <ele>908</ele>
        <time>2015-11-15T12:10:43Z</time>
      </trkpt>
      <trkpt lat="44.07319" lon="5.34846">
        <ele>908</ele>
        <time>2015-11-15T12:12:43Z</time>
      </trkpt>
      <trkpt lat="44.07322" lon="5.34842">
        <ele>908</ele>
        <time>2015-11-15T12:14:43Z</time>
      </trkpt>
      <trkpt lat="44.07325" lon="5.34838">
        <ele>908</ele>
        <time>2015-11-15T12:16:43Z</time>
      </trkpt>
      <trkpt lat="44.0733" lon="5.34835">
        <ele>908</ele>
        <time>2015-11-15T12:18:43Z</time>
      </trkpt>
      <trkpt lat="44.07335" lon="5.34833">
        <ele>908</ele>
        <time>2015-11-15T12:20:43Z</time>
      </trkpt>
      <trkpt lat="44.07341" lon="5.34831">
        <ele>908</ele>
        <time>2015-11-15T12:22:43Z</time>
      </trkpt>
      <trkpt lat="44.07367" lon="5.34827">
        <ele>909</ele>
        <time>2015-11-15T12:24:43Z</time>
      </trkpt>
      <trkpt lat="44.07388" lon="5.34823">
        <ele>910</ele>
        <time>2015-11-15T12:26:43Z</time>
      </trkpt>
      <trkpt lat="44.07408" lon="5.34818">
        <ele>910</ele>
        <time>2015-11-15T12:28:43Z</time>
      </trkpt>
      <trkpt lat="44.07429" lon="5.34812">
        <ele>910</ele>
        <time>2015-11-15T12:30:43Z</time>
      </trkpt>
      <trkpt lat="44.0745" lon="5.34804">
        <ele>910</ele>
        <time>2015-11-15T12:32:43Z</time>
      </trkpt>
      <trkpt lat="44.07471" lon="5.34796">
        <ele>910</ele>
        <time>2015-11-15T12:34:43Z</time>
      </trkpt>
      <trkpt lat="44.07492" lon="5.34788">
        <ele>909</ele>
        <time>2015-11-15T12:36:43Z</time>
      </trkpt>
      <trkpt lat="44.07513" lon="5.34779">
        <ele>909</ele>
        <time>2015-11-15T12:38:43Z</time>
      </trkpt>
      <trkpt lat="44.07615" lon="5.34734">
        <ele>907</ele>
        <time>2015-11-15T12:40:43Z</time>
      </trkpt>
      <trkpt lat="44.07634" lon="5.34725">
        <ele>906</ele>
        <time>2015-11-15T12:42:43Z</time>
      </trkpt>
      <trkpt lat="44.07654" lon="5.34718">
        <ele>906</ele>
        <time>2015-11-15T12:44:43Z</time>
      </trkpt>
      <trkpt lat="44.07673" lon="5.34711">
        <ele>904</ele>
        <time>2015-11-15T12:46:43Z</time>
      </trkpt>
      <trkpt lat="44.07691" lon="5.34705">
        <ele>902</ele>
        <time>2015-11-15T12:48:43Z</time>
      </trkpt>
      <trkpt lat="44.07709" lon="5.34699">
        <ele>899</ele>
        <time>2015-11-15T12:50:43Z</time>
      </trkpt>
      <trkpt lat="44.07727" lon="5.34696">
        <ele>897</ele>
        <time>2015-11-15T12:52:43Z</time>
      </trkpt>
      <trkpt lat="44.07743" lon="5.34693">
        <ele>894</ele>
        <time>2015-11-15T12:54:43Z</time>
      </trkpt>
      <trkpt lat="44.0776" lon="5.34693">
        <ele>893</ele>
        <time>2015-11-15T12:56:43Z</time>
      </trkpt>
      <trkpt lat="44.07775" lon="5.34693">
        <ele>892</ele>
        <time>2015-11-15T12:58:43Z</time>
      </trkpt>
      <trkpt lat="44.0779" lon="5.34696">
        <ele>892</ele>
        <time>2015-11-15T13:00:43Z</time>
      </trkpt>
      <trkpt lat="44.07804" lon="5.347">
        <ele>893</ele>
        <time>2015-11-15T13:02:43Z</time>
      </trkpt>
      <trkpt lat="44.07817" lon="5.34706">
        <ele>893</ele>
        <time>2015-11-15T13:04:43Z</time>
      </trkpt>
      <trkpt lat="44.07829" lon="5.34715">
        <ele>894</ele>
        <time>2015-11-15T13:06:43Z</time>
      </trkpt>
      <trkpt lat="44.07841" lon="5.34726">
        <ele>897</ele>
        <time>2015-11-15T13:08:43Z</time>
      </trkpt>
      <trkpt lat="44.07851" lon="5.3474">
        <ele>900</ele>
        <time>2015-11-15T13:10:43Z</time>
      </trkpt>
      <trkpt lat="44.07861" lon="5.34756">
        <ele>904</ele>
        <time>2015-11-15T13:12:43Z</time>
      </trkpt>
      <trkpt lat="44.07869" lon="5.34775">
        <ele>906</ele>
        <time>2015-11-15T13:14:43Z</time>
      </trkpt>
      <trkpt lat="44.07876" lon="5.34797">
        <ele>909</ele>
        <time>2015-11-15T13:16:43Z</time>
      </trkpt>
      <trkpt lat="44.07882" lon="5.34822">
        <ele>913</ele>
        <time>2015-11-15T13:18:43Z</time>
      </trkpt>
      <trkpt lat="44.07884" lon="5.3483">
        <ele>914</ele>
        <time>2015-11-15T13:20:43Z</time>
      </trkpt>
      <trkpt lat="44.0789" lon="5.34852">
        <ele>915</ele>
        <time>2015-11-15T13:22:43Z</time>
      </trkpt>
      <trkpt lat="44.07894" lon="5.34865">
        <ele>916</ele>
        <time>2015-11-15T13:24:43Z</time>
      </trkpt>
      <trkpt lat="44.07898" lon="5.34878">
        <ele>917</ele>
        <time>2015-11-15T13:26:43Z</time>
      </trkpt>
      <trkpt lat="44.07903" lon="5.3489">
        <ele>918</ele>
        <time>2015-11-15T13:28:43Z</time>
      </trkpt>
      <trkpt lat="44.07908" lon="5.34901">
        <ele>919</ele>
        <time>2015-11-15T13:30:43Z</time>
      </trkpt>
      <trkpt lat="44.07914" lon="5.34911">
        <ele>920</ele>
        <time>2015-11-15T13:32:43Z</time>
      </trkpt>
      <trkpt lat="44.0792" lon="5.34921">
        <ele>921</ele>
        <time>2015-11-15T13:34:43Z</time>
      </trkpt>
      <trkpt lat="44.07935" lon="5.34947">
        <ele>923</ele>
        <time>2015-11-15T13:36:43Z</time>
      </trkpt>
      <trkpt lat="44.07948" lon="5.34968">
        <ele>926</ele>
        <time>2015-11-15T13:38:43Z</time>
      </trkpt>
      <trkpt lat="44.07951" lon="5.34973">
        <ele>926</ele>
        <time>2015-11-15T13:40:43Z</time>
      </trkpt>
      <trkpt lat="44.07955" lon="5.34979">
        <ele>927</ele>
        <time>2015-11-15T13:42:43Z</time>
      </trkpt>
      <trkpt lat="44.07969" lon="5.35003">
        <ele>930</ele>
        <time>2015-11-15T13:44:43Z</time>
      </trkpt>
      <trkpt lat="44.07973" lon="5.3501">
        <ele>931</ele>
        <time>2015-11-15T13:46:43Z</time>
      </trkpt>
      <trkpt lat="44.07975" lon="5.35016">
        <ele>931</ele>
        <time>2015-11-15T13:48:43Z</time>
      </trkpt>
      <trkpt lat="44.07976" lon="5.35021">
        <ele>932</ele>
        <time>2015-11-15T13:50:43Z</time>
      </trkpt>
      <trkpt lat="44.07976" lon="5.35026">
        <ele>932</ele>
        <time>2015-11-15T13:52:43Z</time>
      </trkpt>
      <trkpt lat="44.07976" lon="5.35031">
        <ele>932</ele>
        <time>2015-11-15T13:54:43Z</time>
      </trkpt>
      <trkpt lat="44.07975" lon="5.35036">
        <ele>932</ele>
        <time>2015-11-15T13:56:43Z</time>
      </trkpt>
      <trkpt lat="44.07973" lon="5.3504">
        <ele>932</ele>
        <time>2015-11-15T13:58:43Z</time>
      </trkpt>
      <trkpt lat="44.07971" lon="5.35045">
        <ele>932</ele>
        <time>2015-11-15T14:00:43Z</time>
      </trkpt>
      <trkpt lat="44.07966" lon="5.35055">
        <ele>933</ele>
        <time>2015-11-15T14:02:43Z</time>
      </trkpt>
      <trkpt lat="44.07959" lon="5.35065">
        <ele>933</ele>
        <time>2015-11-15T14:04:43Z</time>
      </trkpt>
      <trkpt lat="44.07953" lon="5.35075">
        <ele>933</ele>
        <time>2015-11-15T14:06:43Z</time>
      </trkpt>
      <trkpt lat="44.0795" lon="5.3508">
        <ele>933</ele>
        <time>2015-11-15T14:08:43Z</time>
      </trkpt>
      <trkpt lat="44.07947" lon="5.35086">
        <ele>934</ele>
        <time>2015-11-15T14:10:43Z</time>
      </trkpt>
      <trkpt lat="44.07941" lon="5.35104">
        <ele>935</ele>
        <time>2015-11-15T14:12:43Z</time>
      </trkpt>
      <trkpt lat="44.07935" lon="5.35121">
        <ele>935</ele>
        <time>2015-11-15T14:14:43Z</time>
      </trkpt>
      <trkpt lat="44.0793" lon="5.35142">
        <ele>937</ele>
        <time>2015-11-15T14:16:43Z</time>
      </trkpt>
      <trkpt lat="44.07927" lon="5.35158">
        <ele>938</ele>
        <time>2015-11-15T14:18:43Z</time>
      </trkpt>
      <trkpt lat="44.07925" lon="5.35178">
        <ele>938</ele>
        <time>2015-11-15T14:20:43Z</time>
      </trkpt>
      <trkpt lat="44.07922" lon="5.35199">
        <ele>939</ele>
        <time>2015-11-15T14:22:43Z</time>
      </trkpt>
      <trkpt lat="44.07922" lon="5.35204">
        <ele>939</ele>
        <time>2015-11-15T14:24:43Z</time>
      </trkpt>
      <trkpt lat="44.0792" lon="5.3522">
        <ele>939</ele>
        <time>2015-11-15T14:26:43Z</time>
      </trkpt>
      <trkpt lat="44.0792" lon="5.35226">
        <ele>939</ele>
        <time>2015-11-15T14:28:43Z</time>
      </trkpt>
      <trkpt lat="44.07918" lon="5.3525">
        <ele>939</ele>
        <time>2015-11-15T14:30:43Z</time>
      </trkpt>
      <trkpt lat="44.07916" lon="5.35262">
        <ele>939</ele>
        <time>2015-11-15T14:32:43Z</time>
      </trkpt>
      <trkpt lat="44.07913" lon="5.35289">
        <ele>938</ele>
        <time>2015-11-15T14:34:43Z</time>
      </trkpt>
      <trkpt lat="44.07913" lon="5.35298">
        <ele>938</ele>
        <time>2015-11-15T14:36:43Z</time>
      </trkpt>
      <trkpt lat="44.07913" lon="5.35316">
        <ele>938</ele>
        <time>2015-11-15T14:38:43Z</time>
      </trkpt>
      <trkpt lat="44.07914" lon="5.35325">
        <ele>938</ele>
        <time>2015-11-15T14:40:43Z</time>
      </trkpt>
      <trkpt lat="44.07915" lon="5.35341">
        <ele>938</ele>
        <time>2015-11-15T14:42:43Z</time>
      </trkpt>
      <trkpt lat="44.07917" lon="5.35349">
        <ele>938</ele>
        <time>2015-11-15T14:44:43Z</time>
      </trkpt>
      <trkpt lat="44.0792" lon="5.35365">
        <ele>938</ele>
        <time>2015-11-15T14:46:43Z</time>
      </trkpt>
      <trkpt lat="44.07924" lon="5.3538">
        <ele>939</ele>
        <time>2015-11-15T14:48:43Z</time>
      </trkpt>
      <trkpt lat="44.07928" lon="5.35395">
        <ele>939</ele>
        <time>2015-11-15T14:50:43Z</time>
      </trkpt>
      <trkpt lat="44.07936" lon="5.35416">
        <ele>940</ele>
        <time>2015-11-15T14:52:43Z</time>
      </trkpt>
      <trkpt lat="44.07941" lon="5.35431">
        <ele>941</ele>
        <time>2015-11-15T14:54:43Z</time>
      </trkpt>
      <trkpt lat="44.07944" lon="5.35439">
        <ele>942</ele>
        <time>2015-11-15T14:56:43Z</time>
      </trkpt>
      <trkpt lat="44.07956" lon="5.3547">
        <ele>945</ele>
        <time>2015-11-15T14:58:43Z</time>
      </trkpt>
      <trkpt lat="44.07961" lon="5.35487">
        <ele>946</ele>
        <time>2015-11-15T15:00:43Z</time>
      </trkpt>
      <trkpt lat="44.07967" lon="5.35504">
        <ele>947</ele>
        <time>2015-11-15T15:02:43Z</time>
      </trkpt>
      <trkpt lat="44.07969" lon="5.35513">
        <ele>947</ele>
        <time>2015-11-15T15:04:43Z</time>
      </trkpt>
      <trkpt lat="44.07974" lon="5.35533">
        <ele>948</ele>
        <time>2015-11-15T15:06:43Z</time>
      </trkpt>
      <trkpt lat="44.07979" lon="5.35557">
        <ele>949</ele>
        <time>2015-11-15T15:08:43Z</time>
      </trkpt>
      <trkpt lat="44.07982" lon="5.35574">
        <ele>950</ele>
        <time>2015-11-15T15:10:43Z</time>
      </trkpt>
      <trkpt lat="44.07985" lon="5.35591">
        <ele>950</ele>
        <time>2015-11-15T15:12:43Z</time>
      </trkpt>
      <trkpt lat="44.07988" lon="5.35611">
        <ele>950</ele>
        <time>2015-11-15T15:14:43Z</time>
      </trkpt>
      <trkpt lat="44.07991" lon="5.35642">
        <ele>948</ele>
        <time>2015-11-15T15:16:43Z</time>
      </trkpt>
      <trkpt lat="44.07992" lon="5.35647">
        <ele>948</ele>
        <time>2015-11-15T15:18:43Z</time>
      </trkpt>
      <trkpt lat="44.07993" lon="5.35663">
        <ele>947</ele>
        <time>2015-11-15T15:20:43Z</time>
      </trkpt>
      <trkpt lat="44.07995" lon="5.35675">
        <ele>946</ele>
        <time>2015-11-15T15:22:43Z</time>
      </trkpt>
      <trkpt lat="44.07995" lon="5.3568">
        <ele>945</ele>
        <time>2015-11-15T15:24:43Z</time>
      </trkpt>
      <trkpt lat="44.07996" lon="5.35686">
        <ele>944</ele>
        <time>2015-11-15T15:26:43Z</time>
      </trkpt>
      <trkpt lat="44.07999" lon="5.35705">
        <ele>941</ele>
        <time>2015-11-15T15:28:43Z</time>
      </trkpt>
      <trkpt lat="44.08002" lon="5.35719">
        <ele>938</ele>
        <time>2015-11-15T15:30:43Z</time>
      </trkpt>
      <trkpt lat="44.08003" lon="5.35727">
        <ele>937</ele>
        <time>2015-11-15T15:32:43Z</time>
      </trkpt>
      <trkpt lat="44.08008" lon="5.35739">
        <ele>934</ele>
        <time>2015-11-15T15:34:43Z</time>
      </trkpt>
      <trkpt lat="44.08011" lon="5.35744">
        <ele>933</ele>
        <time>2015-11-15T15:36:43Z</time>
      </trkpt>
      <trkpt lat="44.08014" lon="5.35749">
        <ele>932</ele>
        <time>2015-11-15T15:38:43Z</time>
      </trkpt>
      <trkpt lat="44.08017" lon="5.35753">
        <ele>931</ele>
        <time>2015-11-15T15:40:43Z</time>
      </trkpt>
      <trkpt lat="44.08021" lon="5.35757">
        <ele>930</ele>
        <time>2015-11-15T15:42:43Z</time>
      </trkpt>
      <trkpt lat="44.08025" lon="5.3576">
        <ele>929</ele>
        <time>2015-11-15T15:44:43Z</time>
      </trkpt>
      <trkpt lat="44.08029" lon="5.35763">
        <ele>928</ele>
        <time>2015-11-15T15:46:43Z</time>
      </trkpt>
      <trkpt lat="44.08038" lon="5.35767">
        <ele>926</ele>
        <time>2015-11-15T15:48:43Z</time>
      </trkpt>
      <trkpt lat="44.08048" lon="5.3577">
        <ele>924</ele>
        <time>2015-11-15T15:50:43Z</time>
      </trkpt>
      <trkpt lat="44.08053" lon="5.35771">
        <ele>924</ele>
        <time>2015-11-15T15:52:43Z</time>
      </trkpt>
      <trkpt lat="44.08064" lon="5.35773">
        <ele>922</ele>
        <time>2015-11-15T15:54:43Z</time>
      </trkpt>
      <trkpt lat="44.0808" lon="5.35774">
        <ele>921</ele>
        <time>2015-11-15T15:56:43Z</time>
      </trkpt>
      <trkpt lat="44.0811" lon="5.35776">
        <ele>917</ele>
        <time>2015-11-15T15:58:43Z</time>
      </trkpt>
      <trkpt lat="44.08122" lon="5.35777">
        <ele>915</ele>
        <time>2015-11-15T16:00:43Z</time>
      </trkpt>
      <trkpt lat="44.08135" lon="5.35778">
        <ele>913</ele>
        <time>2015-11-15T16:02:43Z</time>
      </trkpt>
      <trkpt lat="44.08147" lon="5.35781">
        <ele>911</ele>
        <time>2015-11-15T16:04:43Z</time>
      </trkpt>
      <trkpt lat="44.08161" lon="5.35786">
        <ele>908</ele>
        <time>2015-11-15T16:06:43Z</time>
      </trkpt>
      <trkpt lat="44.08176" lon="5.35789">
        <ele>906</ele>
        <time>2015-11-15T16:08:43Z</time>
      </trkpt>
      <trkpt lat="44.0819" lon="5.35791">
        <ele>905</ele>
        <time>2015-11-15T16:10:43Z</time>
      </trkpt>
      <trkpt lat="44.08203" lon="5.35792">
        <ele>905</ele>
        <time>2015-11-15T16:12:43Z</time>
      </trkpt>
      <trkpt lat="44.0823" lon="5.3579">
        <ele>905</ele>
        <time>2015-11-15T16:14:43Z</time>
      </trkpt>
      <trkpt lat="44.0824" lon="5.35789">
        <ele>905</ele>
        <time>2015-11-15T16:16:43Z</time>
      </trkpt>
      <trkpt lat="44.08252" lon="5.35789">
        <ele>905</ele>
        <time>2015-11-15T16:18:43Z</time>
      </trkpt>
      <trkpt lat="44.08255" lon="5.35788">
        <ele>905</ele>
        <time>2015-11-15T16:20:43Z</time>
      </trkpt>
      <trkpt lat="44.08273" lon="5.35788">
        <ele>907</ele>
        <time>2015-11-15T16:22:43Z</time>
      </trkpt>
      <trkpt lat="44.08277" lon="5.35788">
        <ele>907</ele>
        <time>2015-11-15T16:24:43Z</time>
      </trkpt>
      <trkpt lat="44.08286" lon="5.35787">
        <ele>908</ele>
        <time>2015-11-15T16:26:43Z</time>
      </trkpt>
      <trkpt lat="44.08302" lon="5.35785">
        <ele>910</ele>
        <time>2015-11-15T16:28:43Z</time>
      </trkpt>
      <trkpt lat="44.08316" lon="5.35783">
        <ele>912</ele>
        <time>2015-11-15T16:30:43Z</time>
      </trkpt>
      <trkpt lat="44.08327" lon="5.35781">
        <ele>913</ele>
        <time>2015-11-15T16:32:43Z</time>
      </trkpt>
      <trkpt lat="44.0833" lon="5.35779">
        <ele>913</ele>
        <time>2015-11-15T16:34:43Z</time>
      </trkpt>
      <trkpt lat="44.08345" lon="5.35776">
        <ele>914</ele>
        <time>2015-11-15T16:36:43Z</time>
      </trkpt>
      <trkpt lat="44.08352" lon="5.35774">
        <ele>915</ele>
        <time>2015-11-15T16:38:43Z</time>
      </trkpt>
      <trkpt lat="44.08355" lon="5.35773">
        <ele>915</ele>
        <time>2015-11-15T16:40:43Z</time>
      </trkpt>
      <trkpt lat="44.08375" lon="5.35768">
        <ele>916</ele>
        <time>2015-11-15T16:42:43Z</time>
      </trkpt>
      <trkpt lat="44.08388" lon="5.35764">
        <ele>917</ele>
        <time>2015-11-15T16:44:43Z</time>
      </trkpt>
      <trkpt lat="44.08393" lon="5.35764">
        <ele>918</ele>
        <time>2015-11-15T16:46:43Z</time>
      </trkpt>
      <trkpt lat="44.08412" lon="5.35758">
        <ele>919</ele>
        <time>2015-11-15T16:48:43Z</time>
      </trkpt>
      <trkpt lat="44.08425" lon="5.35752">
        <ele>920</ele>
        <time>2015-11-15T16:50:43Z</time>
      </trkpt>
      <trkpt lat="44.08431" lon="5.3575">
        <ele>920</ele>
        <time>2015-11-15T16:52:43Z</time>
      </trkpt>
      <trkpt lat="44.08451" lon="5.35737">
        <ele>923</ele>
        <time>2015-11-15T16:54:43Z</time>
      </trkpt>
      <trkpt lat="44.08454" lon="5.35735">
        <ele>923</ele>
        <time>2015-11-15T16:56:43Z</time>
      </trkpt>
      <trkpt lat="44.08457" lon="5.35733">
        <ele>924</ele>
        <time>2015-11-15T16:58:43Z</time>
      </trkpt>
      <trkpt lat="44.08475" lon="5.35721">
        <ele>926</ele>
        <time>2015-11-15T17:00:43Z</time>
      </trkpt>
      <trkpt lat="44.08489" lon="5.35713">
        <ele>928</ele>
        <time>2015-11-15T17:02:43Z</time>
      </trkpt>
      <trkpt lat="44.08497" lon="5.35709">
        <ele>928</ele>
        <time>2015-11-15T17:04:43Z</time>
      </trkpt>
      <trkpt lat="44.08502" lon="5.35705">
        <ele>929</ele>
        <time>2015-11-15T17:06:43Z</time>
      </trkpt>
      <trkpt lat="44.08519" lon="5.35696">
        <ele>931</ele>
        <time>2015-11-15T17:08:43Z</time>
      </trkpt>
      <trkpt lat="44.0854" lon="5.35686">
        <ele>933</ele>
        <time>2015-11-15T17:10:43Z</time>
      </trkpt>
      <trkpt lat="44.08544" lon="5.35683">
        <ele>934</ele>
        <time>2015-11-15T17:12:43Z</time>
      </trkpt>
      <trkpt lat="44.08554" lon="5.35679">
        <ele>934</ele>
        <time>2015-11-15T17:14:43Z</time>
      </trkpt>
      <trkpt lat="44.08559" lon="5.35677">
        <ele>935</ele>
        <time>2015-11-15T17:16:43Z</time>
      </trkpt>
      <trkpt lat="44.08587" lon="5.35665">
        <ele>936</ele>
        <time>2015-11-15T17:18:43Z</time>
      </trkpt>
      <trkpt lat="44.08616" lon="5.35654">
        <ele>938</ele>
        <time>2015-11-15T17:20:43Z</time>
      </trkpt>
      <trkpt lat="44.08643" lon="5.35645">
        <ele>940</ele>
        <time>2015-11-15T17:22:43Z</time>
      </trkpt>
      <trkpt lat="44.08654" lon="5.3564">
        <ele>941</ele>
        <time>2015-11-15T17:24:43Z</time>
      </trkpt>
      <trkpt lat="44.08661" lon="5.35638">
        <ele>941</ele>
        <time>2015-11-15T17:26:43Z</time>
      </trkpt>
      <trkpt lat="44.08667" lon="5.35636">
        <ele>941</ele>
        <time>2015-11-15T17:28:43Z</time>
      </trkpt>
      <trkpt lat="44.08673" lon="5.35634">
        <ele>942</ele>
        <time>2015-11-15T17:30:43Z</time>
      </trkpt>
      <trkpt lat="44.08701" lon="5.35624">
        <ele>944</ele>
        <time>2015-11-15T17:32:43Z</time>
      </trkpt>
      <trkpt lat="44.08707" lon="5.35622">
        <ele>944</ele>
        <time>2015-11-15T17:34:43Z</time>
      </trkpt>
      <trkpt lat="44.08722" lon="5.35616">
        <ele>946</ele>
        <time>2015-11-15T17:36:43Z</time>
      </trkpt>
      <trkpt lat="44.08746" lon="5.35606">
        <ele>947</ele>
        <time>2015-11-15T17:38:43Z</time>
      </trkpt>
      <trkpt lat="44.0876" lon="5.356">
        <ele>948</ele>
        <time>2015-11-15T17:40:43Z</time>
      </trkpt>
      <trkpt lat="44.08769" lon="5.35594">
        <ele>949</ele>
        <time>2015-11-15T17:42:43Z</time>
      </trkpt>
      <trkpt lat="44.08778" lon="5.35588">
        <ele>950</ele>
        <time>2015-11-15T17:44:43Z</time>
      </trkpt>
      <trkpt lat="44.08788" lon="5.35582">
        <ele>951</ele>
        <time>2015-11-15T17:46:43Z</time>
      </trkpt>
      <trkpt lat="44.08798" lon="5.35575">
        <ele>952</ele>
        <time>2015-11-15T17:48:43Z</time>
      </trkpt>
      <trkpt lat="44.08808" lon="5.35566">
        <ele>953</ele>
        <time>2015-11-15T17:50:43Z</time>
      </trkpt>
      <trkpt lat="44.08823" lon="5.35552">
        <ele>955</ele>
        <time>2015-11-15T17:52:43Z</time>
      </trkpt>
      <trkpt lat="44.08835" lon="5.3554">
        <ele>957</ele>
        <time>2015-11-15T17:54:43Z</time>
      </trkpt>
      <trkpt lat="44.08852" lon="5.35524">
        <ele>960</ele>
        <time>2015-11-15T17:56:43Z</time>
      </trkpt>
      <trkpt lat="44.08879" lon="5.35497">
        <ele>963</ele>
        <time>2015-11-15T17:58:43Z</time>
      </trkpt>
      <trkpt lat="44.08884" lon="5.35492">
        <ele>964</ele>
        <time>2015-11-15T18:00:43Z</time>
      </trkpt>
      <trkpt lat="44.08895" lon="5.35481">
        <ele>965</ele>
        <time>2015-11-15T18:02:43Z</time>
      </trkpt>
      <trkpt lat="44.08914" lon="5.35459">
        <ele>966</ele>
        <time>2015-11-15T18:04:43Z</time>
      </trkpt>
      <trkpt lat="44.08929" lon="5.35442">
        <ele>968</ele>
        <time>2015-11-15T18:06:43Z</time>
      </trkpt>
      <trkpt lat="44.08933" lon="5.35436">
        <ele>968</ele>
        <time>2015-11-15T18:08:43Z</time>
      </trkpt>
      <trkpt lat="44.08938" lon="5.3543">
        <ele>969</ele>
        <time>2015-11-15T18:10:43Z</time>
      </trkpt>
      <trkpt lat="44.08953" lon="5.35411">
        <ele>970</ele>
        <time>2015-11-15T18:12:43Z</time>
      </trkpt>
      <trkpt lat="44.08962" lon="5.35398">
        <ele>970</ele>
        <time>2015-11-15T18:14:43Z</time>
      </trkpt>
      <trkpt lat="44.08987" lon="5.35362">
        <ele>970</ele>
        <time>2015-11-15T18:16:43Z</time>
      </trkpt>
      <trkpt lat="44.08991" lon="5.35355">
        <ele>970</ele>
        <time>2015-11-15T18:18:43Z</time>
      </trkpt>
      <trkpt lat="44.09004" lon="5.35337">
        <ele>970</ele>
        <time>2015-11-15T18:20:43Z</time>
      </trkpt>
      <trkpt lat="44.09009" lon="5.35332">
        <ele>970</ele>
        <time>2015-11-15T18:22:43Z</time>
      </trkpt>
      <trkpt lat="44.09021" lon="5.35317">
        <ele>970</ele>
        <time>2015-11-15T18:24:43Z</time>
      </trkpt>
      <trkpt lat="44.09033" lon="5.35306">
        <ele>971</ele>
        <time>2015-11-15T18:26:43Z</time>
      </trkpt>
      <trkpt lat="44.09046" lon="5.35297">
        <ele>971</ele>
        <time>2015-11-15T18:28:43Z</time>
      </trkpt>
      <trkpt lat="44.0905" lon="5.35294">
        <ele>971</ele>
        <time>2015-11-15T18:30:43Z</time>
      </trkpt>
      <trkpt lat="44.09063" lon="5.35287">
        <ele>971</ele>
        <time>2015-11-15T18:32:43Z</time>
      </trkpt>
      <trkpt lat="44.09077" lon="5.35281">
        <ele>971</ele>
        <time>2015-11-15T18:34:43Z</time>
      </trkpt>
      <trkpt lat="44.09082" lon="5.3528">
        <ele>971</ele>
        <time>2015-11-15T18:36:43Z</time>
      </trkpt>
      <trkpt lat="44.09087" lon="5.35278">
        <ele>971</ele>
        <time>2015-11-15T18:38:43Z</time>
      </trkpt>
      <trkpt lat="44.09097" lon="5.35274">
        <ele>971</ele>
        <time>2015-11-15T18:40:43Z</time>
      </trkpt>
      <trkpt lat="44.0912" lon="5.35267">
        <ele>973</ele>
        <time>2015-11-15T18:42:43Z</time>
      </trkpt>
      <trkpt lat="44.09126" lon="5.35265">
        <ele>973</ele>
        <time>2015-11-15T18:44:43Z</time>
      </trkpt>
      <trkpt lat="44.0914" lon="5.3526">
        <ele>974</ele>
        <time>2015-11-15T18:46:43Z</time>
      </trkpt>
      <trkpt lat="44.09143" lon="5.35259">
        <ele>974</ele>
        <time>2015-11-15T18:48:43Z</time>
      </trkpt>
      <trkpt lat="44.09154" lon="5.35256">
        <ele>974</ele>
        <time>2015-11-15T18:50:43Z</time>
      </trkpt>
      <trkpt lat="44.09162" lon="5.35255">
        <ele>975</ele>
        <time>2015-11-15T18:52:43Z</time>
      </trkpt>
      <trkpt lat="44.09173" lon="5.35255">
        <ele>976</ele>
        <time>2015-11-15T18:54:43Z</time>
      </trkpt>
      <trkpt lat="44.09188" lon="5.35257">
        <ele>977</ele>
        <time>2015-11-15T18:56:43Z</time>
      </trkpt>
      <trkpt lat="44.09192" lon="5.35258">
        <ele>978</ele>
        <time>2015-11-15T18:58:43Z</time>
      </trkpt>
      <trkpt lat="44.09203" lon="5.35261">
        <ele>979</ele>
        <time>2015-11-15T19:00:43Z</time>
      </trkpt>
      <trkpt lat="44.09217" lon="5.35267">
        <ele>980</ele>
        <time>2015-11-15T19:02:43Z</time>
      </trkpt>
      <trkpt lat="44.09228" lon="5.35272">
        <ele>982</ele>
        <time>2015-11-15T19:04:43Z</time>
      </trkpt>
      <trkpt lat="44.09239" lon="5.35278">
        <ele>983</ele>
        <time>2015-11-15T19:06:43Z</time>
      </trkpt>
      <trkpt lat="44.09253" lon="5.35288">
        <ele>985</ele>
        <time>2015-11-15T19:08:43Z</time>
      </trkpt>
      <trkpt lat="44.09256" lon="5.3529">
        <ele>985</ele>
        <time>2015-11-15T19:10:43Z</time>
      </trkpt>
      <trkpt lat="44.09267" lon="5.35296">
        <ele>987</ele>
        <time>2015-11-15T19:12:43Z</time>
      </trkpt>
      <trkpt lat="44.09273" lon="5.35299">
        <ele>988</ele>
        <time>2015-11-15T19:14:43Z</time>
      </trkpt>
      <trkpt lat="44.09286" lon="5.35303">
        <ele>989</ele>
        <time>2015-11-15T19:16:43Z</time>
      </trkpt>
      <trkpt lat="44.09292" lon="5.35305">
        <ele>990</ele>
        <time>2015-11-15T19:18:43Z</time>
      </trkpt>
      <trkpt lat="44.09307" lon="5.35307">
        <ele>991</ele>
        <time>2015-11-15T19:20:43Z</time>
      </trkpt>
      <trkpt lat="44.09322" lon="5.35308">
        <ele>992</ele>
        <time>2015-11-15T19:22:43Z</time>
      </trkpt>
      <trkpt lat="44.0933" lon="5.35309">
        <ele>993</ele>
        <time>2015-11-15T19:24:43Z</time>
      </trkpt>
      <trkpt lat="44.09346" lon="5.35309">
        <ele>995</ele>
        <time>2015-11-15T19:26:43Z</time>
      </trkpt>
      <trkpt lat="44.09364" lon="5.35308">
        <ele>997</ele>
        <time>2015-11-15T19:28:43Z</time>
      </trkpt>
      <trkpt lat="44.09392" lon="5.35305">
        <ele>1000</ele>
        <time>2015-11-15T19:30:43Z</time>
      </trkpt>
      <trkpt lat="44.09411" lon="5.35303">
        <ele>1002</ele>
        <time>2015-11-15T19:32:43Z</time>
      </trkpt>
      <trkpt lat="44.09441" lon="5.35298">
        <ele>1004</ele>
        <time>2015-11-15T19:34:43Z</time>
      </trkpt>
      <trkpt lat="44.09493" lon="5.3529">
        <ele>1009</ele>
        <time>2015-11-15T19:36:43Z</time>
      </trkpt>
      <trkpt lat="44.09504" lon="5.35288">
        <ele>1009</ele>
        <time>2015-11-15T19:38:43Z</time>
      </trkpt>
      <trkpt lat="44.09549" lon="5.3528">
        <ele>1012</ele>
        <time>2015-11-15T19:40:43Z</time>
      </trkpt>
      <trkpt lat="44.09567" lon="5.35279">
        <ele>1014</ele>
        <time>2015-11-15T19:42:43Z</time>
      </trkpt>
      <trkpt lat="44.09577" lon="5.35278">
        <ele>1014</ele>
        <time>2015-11-15T19:44:43Z</time>
      </trkpt>
      <trkpt lat="44.09588" lon="5.35278">
        <ele>1015</ele>
        <time>2015-11-15T19:46:43Z</time>
      </trkpt>
      <trkpt lat="44.09608" lon="5.35279">
        <ele>1016</ele>
        <time>2015-11-15T19:48:43Z</time>
      </trkpt>
      <trkpt lat="44.09637" lon="5.35282">
        <ele>1018</ele>
        <time>2015-11-15T19:50:43Z</time>
      </trkpt>
      <trkpt lat="44.09642" lon="5.35283">
        <ele>1018</ele>
        <time>2015-11-15T19:52:43Z</time>
      </trkpt>
      <trkpt lat="44.09652" lon="5.35284">
        <ele>1019</ele>
        <time>2015-11-15T19:54:43Z</time>
      </trkpt>
      <trkpt lat="44.09657" lon="5.35285">
        <ele>1019</ele>
        <time>2015-11-15T19:56:43Z</time>
      </trkpt>
      <trkpt lat="44.09667" lon="5.35286">
        <ele>1020</ele>
        <time>2015-11-15T19:58:43Z</time>
      </trkpt>
      <trkpt lat="44.09672" lon="5.35287">
        <ele>1020</ele>
        <time>2015-11-15T20:00:43Z</time>
      </trkpt>
      <trkpt lat="44.09684" lon="5.35288">
        <ele>1021</ele>
        <time>2015-11-15T20:02:43Z</time>
      </trkpt>
      <trkpt lat="44.09708" lon="5.3529">
        <ele>1022</ele>
        <time>2015-11-15T20:04:43Z</time>
      </trkpt>
      <trkpt lat="44.0973" lon="5.3529">
        <ele>1024</ele>
        <time>2015-11-15T20:06:43Z</time>
      </trkpt>
      <trkpt lat="44.09764" lon="5.35289">
        <ele>1026</ele>
        <time>2015-11-15T20:08:43Z</time>
      </trkpt>
      <trkpt lat="44.09802" lon="5.35286">
        <ele>1028</ele>
        <time>2015-11-15T20:10:43Z</time>
      </trkpt>
      <trkpt lat="44.09812" lon="5.35285">
        <ele>1029</ele>
        <time>2015-11-15T20:12:43Z</time>
      </trkpt>
      <trkpt lat="44.09832" lon="5.35283">
        <ele>1030</ele>
        <time>2015-11-15T20:14:43Z</time>
      </trkpt>
      <trkpt lat="44.09872" lon="5.35279">
        <ele>1031</ele>
        <time>2015-11-15T20:16:43Z</time>
      </trkpt>
      <trkpt lat="44.09921" lon="5.35271">
        <ele>1033</ele>
        <time>2015-11-15T20:18:43Z</time>
      </trkpt>
      <trkpt lat="44.0994" lon="5.35268">
        <ele>1033</ele>
        <time>2015-11-15T20:20:43Z</time>
      </trkpt>
      <trkpt lat="44.09981" lon="5.35259">
        <ele>1033</ele>
        <time>2015-11-15T20:22:43Z</time>
      </trkpt>
      <trkpt lat="44.09995" lon="5.35255">
        <ele>1034</ele>
        <time>2015-11-15T20:24:43Z</time>
      </trkpt>
      <trkpt lat="44.10026" lon="5.35246">
        <ele>1035</ele>
        <time>2015-11-15T20:26:43Z</time>
      </trkpt>
      <trkpt lat="44.10052" lon="5.35239">
        <ele>1035</ele>
        <time>2015-11-15T20:28:43Z</time>
      </trkpt>
      <trkpt lat="44.10086" lon="5.35231">
        <ele>1036</ele>
        <time>2015-11-15T20:30:43Z</time>
      </trkpt>
      <trkpt lat="44.10114" lon="5.35226">
        <ele>1038</ele>
        <time>2015-11-15T20:32:43Z</time>
      </trkpt>
      <trkpt lat="44.10131" lon="5.35224">
        <ele>1040</ele>
        <time>2015-11-15T20:34:43Z</time>
      </trkpt>
      <trkpt lat="44.10146" lon="5.35223">
        <ele>1041</ele>
        <time>2015-11-15T20:36:43Z</time>
      </trkpt>
      <trkpt lat="44.10168" lon="5.35222">
        <ele>1042</ele>
        <time>2015-11-15T20:38:43Z</time>
      </trkpt>
      <trkpt lat="44.10183" lon="5.35222">
        <ele>1043</ele>
        <time>2015-11-15T20:40:43Z</time>
      </trkpt>
      <trkpt lat="44.10208" lon="5.35223">
        <ele>1045</ele>
        <time>2015-11-15T20:42:43Z</time>
      </trkpt>
      <trkpt lat="44.10217" lon="5.35224">
        <ele>1045</ele>
        <time>2015-11-15T20:44:43Z</time>
      </trkpt>
      <trkpt lat="44.10248" lon="5.35225">
        <ele>1047</ele>
        <time>2015-11-15T20:46:43Z</time>
      </trkpt>
      <trkpt lat="44.10284" lon="5.35226">
        <ele>1050</ele>
        <time>2015-11-15T20:48:43Z</time>
      </trkpt>
      <trkpt lat="44.1033" lon="5.35226">
        <ele>1055</ele>
        <time>2015-11-15T20:50:43Z</time>
      </trkpt>
      <trkpt lat="44.10336" lon="5.35226">
        <ele>1055</ele>
        <time>2015-11-15T20:52:43Z</time>
      </trkpt>
      <trkpt lat="44.10418" lon="5.35225">
        <ele>1064</ele>
        <time>2015-11-15T20:54:43Z</time>
      </trkpt>
      <trkpt lat="44.10422" lon="5.35224">
        <ele>1065</ele>
        <time>2015-11-15T20:56:43Z</time>
      </trkpt>
      <trkpt lat="44.10453" lon="5.35224">
        <ele>1067</ele>
        <time>2015-11-15T20:58:43Z</time>
      </trkpt>
      <trkpt lat="44.10458" lon="5.35223">
        <ele>1068</ele>
        <time>2015-11-15T21:00:43Z</time>
      </trkpt>
      <trkpt lat="44.10475" lon="5.35223">
        <ele>1069</ele>
        <time>2015-11-15T21:02:43Z</time>
      </trkpt>
      <trkpt lat="44.10493" lon="5.35222">
        <ele>1070</ele>
        <time>2015-11-15T21:04:43Z</time>
      </trkpt>
      <trkpt lat="44.10505" lon="5.35222">
        <ele>1071</ele>
        <time>2015-11-15T21:06:43Z</time>
      </trkpt>
      <trkpt lat="44.10511" lon="5.35222">
        <ele>1072</ele>
        <time>2015-11-15T21:08:43Z</time>
      </trkpt>
      <trkpt lat="44.10518" lon="5.35222">
        <ele>1072</ele>
        <time>2015-11-15T21:10:43Z</time>
      </trkpt>
      <trkpt lat="44.10529" lon="5.35223">
        <ele>1072</ele>
        <time>2015-11-15T21:12:43Z</time>
      </trkpt>
      <trkpt lat="44.1054" lon="5.35225">
        <ele>1073</ele>
        <time>2015-11-15T21:14:43Z</time>
      </trkpt>
      <trkpt lat="44.1055" lon="5.35228">
        <ele>1074</ele>
        <time>2015-11-15T21:16:43Z</time>
      </trkpt>
      <trkpt lat="44.1056" lon="5.35231">
        <ele>1074</ele>
        <time>2015-11-15T21:18:43Z</time>
      </trkpt>
      <trkpt lat="44.10565" lon="5.35233">
        <ele>1074</ele>
        <time>2015-11-15T21:20:43Z</time>
      </trkpt>
      <trkpt lat="44.10574" lon="5.35238">
        <ele>1075</ele>
        <time>2015-11-15T21:22:43Z</time>
      </trkpt>
      <trkpt lat="44.10588" lon="5.35246">
        <ele>1076</ele>
        <time>2015-11-15T21:24:43Z</time>
      </trkpt>
      <trkpt lat="44.10601" lon="5.35255">
        <ele>1076</ele>
        <time>2015-11-15T21:26:43Z</time>
      </trkpt>
      <trkpt lat="44.1061" lon="5.35262">
        <ele>1077</ele>
        <time>2015-11-15T21:28:43Z</time>
      </trkpt>
      <trkpt lat="44.10639" lon="5.35282">
        <ele>1078</ele>
        <time>2015-11-15T21:30:43Z</time>
      </trkpt>
      <trkpt lat="44.10649" lon="5.35289">
        <ele>1078</ele>
        <time>2015-11-15T21:32:43Z</time>
      </trkpt>
      <trkpt lat="44.10666" lon="5.353">
        <ele>1079</ele>
        <time>2015-11-15T21:34:43Z</time>
      </trkpt>
      <trkpt lat="44.10679" lon="5.35306">
        <ele>1080</ele>
        <time>2015-11-15T21:36:43Z</time>
      </trkpt>
      <trkpt lat="44.10696" lon="5.35313">
        <ele>1080</ele>
        <time>2015-11-15T21:38:43Z</time>
      </trkpt>
      <trkpt lat="44.10713" lon="5.35318">
        <ele>1081</ele>
        <time>2015-11-15T21:40:43Z</time>
      </trkpt>
      <trkpt lat="44.10724" lon="5.3532">
        <ele>1082</ele>
        <time>2015-11-15T21:42:43Z</time>
      </trkpt>
      <trkpt lat="44.10735" lon="5.35321">
        <ele>1082</ele>
        <time>2015-11-15T21:44:43Z</time>
      </trkpt>
      <trkpt lat="44.1074" lon="5.35321">
        <ele>1082</ele>
        <time>2015-11-15T21:46:43Z</time>
      </trkpt>
      <trkpt lat="44.10756" lon="5.35321">
        <ele>1083</ele>
        <time>2015-11-15T21:48:43Z</time>
      </trkpt>
      <trkpt lat="44.10772" lon="5.3532">
        <ele>1083</ele>
        <time>2015-11-15T21:50:43Z</time>
      </trkpt>
      <trkpt lat="44.10783" lon="5.35318">
        <ele>1083</ele>
        <time>2015-11-15T21:52:43Z</time>
      </trkpt>
      <trkpt lat="44.10788" lon="5.35318">
        <ele>1083</ele>
        <time>2015-11-15T21:54:43Z</time>
      </trkpt>
      <trkpt lat="44.10811" lon="5.35315">
        <ele>1084</ele>
        <time>2015-11-15T21:56:43Z</time>
      </trkpt>
      <trkpt lat="44.10843" lon="5.35313">
        <ele>1085</ele>
        <time>2015-11-15T21:58:43Z</time>
      </trkpt>
      <trkpt lat="44.1085" lon="5.35313">
        <ele>1085</ele>
        <time>2015-11-15T22:00:43Z</time>
      </trkpt>
      <trkpt lat="44.10855" lon="5.35313">
        <ele>1086</ele>
        <time>2015-11-15T22:02:43Z</time>
      </trkpt>
      <trkpt lat="44.10859" lon="5.35314">
        <ele>1086</ele>
        <time>2015-11-15T22:04:43Z</time>
      </trkpt>
      <trkpt lat="44.10867" lon="5.35315">
        <ele>1087</ele>
        <time>2015-11-15T22:06:43Z</time>
      </trkpt>
      <trkpt lat="44.10871" lon="5.35316">
        <ele>1087</ele>
        <time>2015-11-15T22:08:43Z</time>
      </trkpt>
      <trkpt lat="44.10879" lon="5.35319">
        <ele>1088</ele>
        <time>2015-11-15T22:10:43Z</time>
      </trkpt>
      <trkpt lat="44.10886" lon="5.35323">
        <ele>1088</ele>
        <time>2015-11-15T22:12:43Z</time>
      </trkpt>
      <trkpt lat="44.10896" lon="5.35329">
        <ele>1089</ele>
        <time>2015-11-15T22:14:43Z</time>
      </trkpt>
      <trkpt lat="44.10912" lon="5.35343">
        <ele>1090</ele>
        <time>2015-11-15T22:16:43Z</time>
      </trkpt>
      <trkpt lat="44.10927" lon="5.35358">
        <ele>1091</ele>
        <time>2015-11-15T22:18:43Z</time>
      </trkpt>
      <trkpt lat="44.10931" lon="5.35361">
        <ele>1091</ele>
        <time>2015-11-15T22:20:43Z</time>
      </trkpt>
      <trkpt lat="44.1094" lon="5.35371">
        <ele>1092</ele>
        <time>2015-11-15T22:22:43Z</time>
      </trkpt>
      <trkpt lat="44.10944" lon="5.35374">
        <ele>1092</ele>
        <time>2015-11-15T22:24:43Z</time>
      </trkpt>
      <trkpt lat="44.10948" lon="5.35377">
        <ele>1092</ele>
        <time>2015-11-15T22:26:43Z</time>
      </trkpt>
      <trkpt lat="44.1096" lon="5.35386">
        <ele>1093</ele>
        <time>2015-11-15T22:28:43Z</time>
      </trkpt>
      <trkpt lat="44.10964" lon="5.35389">
        <ele>1093</ele>
        <time>2015-11-15T22:30:43Z</time>
      </trkpt>
      <trkpt lat="44.10988" lon="5.35403">
        <ele>1094</ele>
        <time>2015-11-15T22:32:43Z</time>
      </trkpt>
      <trkpt lat="44.11004" lon="5.35412">
        <ele>1095</ele>
        <time>2015-11-15T22:34:43Z</time>
      </trkpt>
      <trkpt lat="44.11015" lon="5.35416">
        <ele>1096</ele>
        <time>2015-11-15T22:36:43Z</time>
      </trkpt>
      <trkpt lat="44.11031" lon="5.35422">
        <ele>1097</ele>
        <time>2015-11-15T22:38:43Z</time>
      </trkpt>
      <trkpt lat="44.11051" lon="5.35428">
        <ele>1098</ele>
        <time>2015-11-15T22:40:43Z</time>
      </trkpt>
      <trkpt lat="44.11061" lon="5.3543">
        <ele>1098</ele>
        <time>2015-11-15T22:42:43Z</time>
      </trkpt>
      <trkpt lat="44.11093" lon="5.35437">
        <ele>1100</ele>
        <time>2015-11-15T22:44:43Z</time>
      </trkpt>
      <trkpt lat="44.11123" lon="5.35444">
        <ele>1101</ele>
        <time>2015-11-15T22:46:43Z</time>
      </trkpt>
      <trkpt lat="44.11142" lon="5.3545">
        <ele>1102</ele>
        <time>2015-11-15T22:48:43Z</time>
      </trkpt>
      <trkpt lat="44.11171" lon="5.35458">
        <ele>1104</ele>
        <time>2015-11-15T22:50:43Z</time>
      </trkpt>
      <trkpt lat="44.11188" lon="5.35462">
        <ele>1104</ele>
        <time>2015-11-15T22:52:43Z</time>
      </trkpt>
      <trkpt lat="44.11205" lon="5.35465">
        <ele>1105</ele>
        <time>2015-11-15T22:54:43Z</time>
      </trkpt>
      <trkpt lat="44.1123" lon="5.35468">
        <ele>1106</ele>
        <time>2015-11-15T22:56:43Z</time>
      </trkpt>
      <trkpt lat="44.11261" lon="5.35471">
        <ele>1108</ele>
        <time>2015-11-15T22:58:43Z</time>
      </trkpt>
      <trkpt lat="44.11283" lon="5.35472">
        <ele>1109</ele>
        <time>2015-11-15T23:00:43Z</time>
      </trkpt>
      <trkpt lat="44.11291" lon="5.35472">
        <ele>1110</ele>
        <time>2015-11-15T23:02:43Z</time>
      </trkpt>
      <trkpt lat="44.11307" lon="5.35473">
        <ele>1111</ele>
        <time>2015-11-15T23:04:43Z</time>
      </trkpt>
      <trkpt lat="44.1133" lon="5.35473">
        <ele>1112</ele>
        <time>2015-11-15T23:06:43Z</time>
      </trkpt>
      <trkpt lat="44.11355" lon="5.35474">
        <ele>1113</ele>
        <time>2015-11-15T23:08:43Z</time>
      </trkpt>
      <trkpt lat="44.11391" lon="5.35477">
        <ele>1115</ele>
        <time>2015-11-15T23:10:43Z</time>
      </trkpt>
      <trkpt lat="44.11411" lon="5.35479">
        <ele>1116</ele>
        <time>2015-11-15T23:12:43Z</time>
      </trkpt>
      <trkpt lat="44.11428" lon="5.35481">
        <ele>1117</ele>
        <time>2015-11-15T23:14:43Z</time>
      </trkpt>
      <trkpt lat="44.11433" lon="5.35482">
        <ele>1117</ele>
        <time>2015-11-15T23:16:43Z</time>
      </trkpt>
      <trkpt lat="44.11448" lon="5.35483">
        <ele>1119</ele>
        <time>2015-11-15T23:18:43Z</time>
      </trkpt>
      <trkpt lat="44.11452" lon="5.35483">
        <ele>1119</ele>
        <time>2015-11-15T23:20:43Z</time>
      </trkpt>
      <trkpt lat="44.11471" lon="5.35485">
        <ele>1121</ele>
        <time>2015-11-15T23:22:43Z</time>
      </trkpt>
      <trkpt lat="44.11488" lon="5.35486">
        <ele>1122</ele>
        <time>2015-11-15T23:24:43Z</time>
      </trkpt>
      <trkpt lat="44.11497" lon="5.35486">
        <ele>1123</ele>
        <time>2015-11-15T23:26:43Z</time>
      </trkpt>
      <trkpt lat="44.11515" lon="5.35485">
        <ele>1124</ele>
        <time>2015-11-15T23:28:43Z</time>
      </trkpt>
      <trkpt lat="44.11524" lon="5.35484">
        <ele>1125</ele>
        <time>2015-11-15T23:30:43Z</time>
      </trkpt>
      <trkpt lat="44.11529" lon="5.35484">
        <ele>1125</ele>
        <time>2015-11-15T23:32:43Z</time>
      </trkpt>
      <trkpt lat="44.11543" lon="5.35482">
        <ele>1126</ele>
        <time>2015-11-15T23:34:43Z</time>
      </trkpt>
      <trkpt lat="44.11549" lon="5.35482">
        <ele>1126</ele>
        <time>2015-11-15T23:36:43Z</time>
      </trkpt>
      <trkpt lat="44.11554" lon="5.35481">
        <ele>1126</ele>
        <time>2015-11-15T23:38:43Z</time>
      </trkpt>
      <trkpt lat="44.11565" lon="5.3548">
        <ele>1127</ele>
        <time>2015-11-15T23:40:43Z</time>
      </trkpt>
      <trkpt lat="44.11577" lon="5.35477">
        <ele>1127</ele>
        <time>2015-11-15T23:42:43Z</time>
      </trkpt>
      <trkpt lat="44.11588" lon="5.35474">
        <ele>1128</ele>
        <time>2015-11-15T23:44:43Z</time>
      </trkpt>
      <trkpt lat="44.11598" lon="5.3547">
        <ele>1128</ele>
        <time>2015-11-15T23:46:43Z</time>
      </trkpt>
      <trkpt lat="44.11608" lon="5.35466">
        <ele>1129</ele>
        <time>2015-11-15T23:48:43Z</time>
      </trkpt>
      <trkpt lat="44.11617" lon="5.35461">
        <ele>1129</ele>
        <time>2015-11-15T23:50:43Z</time>
      </trkpt>
      <trkpt lat="44.11626" lon="5.35455">
        <ele>1130</ele>
        <time>2015-11-15T23:52:43Z</time>
      </trkpt>
      <trkpt lat="44.11634" lon="5.35449">
        <ele>1130</ele>
        <time>2015-11-15T23:54:43Z</time>
      </trkpt>
      <trkpt lat="44.11642" lon="5.35442">
        <ele>1131</ele>
        <time>2015-11-15T23:56:43Z</time>
      </trkpt>
      <trkpt lat="44.11649" lon="5.35435">
        <ele>1131</ele>
        <time>2015-11-15T23:58:43Z</time>
      </trkpt>
      <trkpt lat="44.11657" lon="5.35427">
        <ele>1132</ele>
        <time>2015-11-16T00:00:43Z</time>
      </trkpt>
      <trkpt lat="44.11663" lon="5.35418">
        <ele>1133</ele>
        <time>2015-11-16T00:02:43Z</time>
      </trkpt>
      <trkpt lat="44.1167" lon="5.35409">
        <ele>1133</ele>
        <time>2015-11-16T00:04:43Z</time>
      </trkpt>
      <trkpt lat="44.11677" lon="5.354">
        <ele>1134</ele>
        <time>2015-11-16T00:06:43Z</time>
      </trkpt>
      <trkpt lat="44.11683" lon="5.35391">
        <ele>1135</ele>
        <time>2015-11-16T00:08:43Z</time>
      </trkpt>
      <trkpt lat="44.11695" lon="5.35371">
        <ele>1136</ele>
        <time>2015-11-16T00:10:43Z</time>
      </trkpt>
      <trkpt lat="44.11712" lon="5.35338">
        <ele>1138</ele>
        <time>2015-11-16T00:12:43Z</time>
      </trkpt>
      <trkpt lat="44.11724" lon="5.35316">
        <ele>1140</ele>
        <time>2015-11-16T00:14:43Z</time>
      </trkpt>
      <trkpt lat="44.1173" lon="5.35304">
        <ele>1141</ele>
        <time>2015-11-16T00:16:43Z</time>
      </trkpt>
      <trkpt lat="44.11748" lon="5.35269">
        <ele>1144</ele>
        <time>2015-11-16T00:18:43Z</time>
      </trkpt>
      <trkpt lat="44.11768" lon="5.35233">
        <ele>1147</ele>
        <time>2015-11-16T00:20:43Z</time>
      </trkpt>
      <trkpt lat="44.1179" lon="5.35198">
        <ele>1151</ele>
        <time>2015-11-16T00:22:43Z</time>
      </trkpt>
      <trkpt lat="44.11798" lon="5.35186">
        <ele>1152</ele>
        <time>2015-11-16T00:24:43Z</time>
      </trkpt>
      <trkpt lat="44.11802" lon="5.35181">
        <ele>1153</ele>
        <time>2015-11-16T00:26:43Z</time>
      </trkpt>
      <trkpt lat="44.11819" lon="5.35159">
        <ele>1155</ele>
        <time>2015-11-16T00:28:43Z</time>
      </trkpt>
      <trkpt lat="44.11828" lon="5.35148">
        <ele>1156</ele>
        <time>2015-11-16T00:30:43Z</time>
      </trkpt>
      <trkpt lat="44.11852" lon="5.3512">
        <ele>1159</ele>
        <time>2015-11-16T00:32:43Z</time>
      </trkpt>
      <trkpt lat="44.11873" lon="5.35095">
        <ele>1162</ele>
        <time>2015-11-16T00:34:43Z</time>
      </trkpt>
      <trkpt lat="44.1188" lon="5.35087">
        <ele>1163</ele>
        <time>2015-11-16T00:36:43Z</time>
      </trkpt>
      <trkpt lat="44.11904" lon="5.35054">
        <ele>1166</ele>
        <time>2015-11-16T00:38:43Z</time>
      </trkpt>
      <trkpt lat="44.11908" lon="5.35049">
        <ele>1167</ele>
        <time>2015-11-16T00:40:43Z</time>
      </trkpt>
      <trkpt lat="44.11912" lon="5.35045">
        <ele>1167</ele>
        <time>2015-11-16T00:42:43Z</time>
      </trkpt>
      <trkpt lat="44.11917" lon="5.35041">
        <ele>1168</ele>
        <time>2015-11-16T00:44:43Z</time>
      </trkpt>
      <trkpt lat="44.11921" lon="5.35038">
        <ele>1168</ele>
        <time>2015-11-16T00:46:43Z</time>
      </trkpt>
      <trkpt lat="44.11925" lon="5.35036">
        <ele>1168</ele>
        <time>2015-11-16T00:48:43Z</time>
      </trkpt>
      <trkpt lat="44.1193" lon="5.35034">
        <ele>1169</ele>
        <time>2015-11-16T00:50:43Z</time>
      </trkpt>
      <trkpt lat="44.11939" lon="5.35032">
        <ele>1169</ele>
        <time>2015-11-16T00:52:43Z</time>
      </trkpt>
      <trkpt lat="44.11948" lon="5.35032">
        <ele>1170</ele>
        <time>2015-11-16T00:54:43Z</time>
      </trkpt>
      <trkpt lat="44.11953" lon="5.35033">
        <ele>1170</ele>
        <time>2015-11-16T00:56:43Z</time>
      </trkpt>
      <trkpt lat="44.11968" lon="5.35037">
        <ele>1172</ele>
        <time>2015-11-16T00:58:43Z</time>
      </trkpt>
      <trkpt lat="44.11983" lon="5.35043">
        <ele>1173</ele>
        <time>2015-11-16T01:00:43Z</time>
      </trkpt>
      <trkpt lat="44.12004" lon="5.35054">
        <ele>1174</ele>
        <time>2015-11-16T01:02:43Z</time>
      </trkpt>
      <trkpt lat="44.12021" lon="5.35061">
        <ele>1175</ele>
        <time>2015-11-16T01:04:43Z</time>
      </trkpt>
      <trkpt lat="44.12032" lon="5.35065">
        <ele>1176</ele>
        <time>2015-11-16T01:06:43Z</time>
      </trkpt>
      <trkpt lat="44.12044" lon="5.35069">
        <ele>1177</ele>
        <time>2015-11-16T01:08:43Z</time>
      </trkpt>
      <trkpt lat="44.1205" lon="5.35071">
        <ele>1177</ele>
        <time>2015-11-16T01:10:43Z</time>
      </trkpt>
      <trkpt lat="44.12062" lon="5.35072">
        <ele>1178</ele>
        <time>2015-11-16T01:12:43Z</time>
      </trkpt>
      <trkpt lat="44.12083" lon="5.35073">
        <ele>1180</ele>
        <time>2015-11-16T01:14:43Z</time>
      </trkpt>
      <trkpt lat="44.12096" lon="5.35073">
        <ele>1181</ele>
        <time>2015-11-16T01:16:43Z</time>
      </trkpt>
      <trkpt lat="44.12109" lon="5.35072">
        <ele>1182</ele>
        <time>2015-11-16T01:18:43Z</time>
      </trkpt>
      <trkpt lat="44.12127" lon="5.35071">
        <ele>1183</ele>
        <time>2015-11-16T01:20:43Z</time>
      </trkpt>
      <trkpt lat="44.12138" lon="5.35069">
        <ele>1184</ele>
        <time>2015-11-16T01:22:43Z</time>
      </trkpt>
      <trkpt lat="44.12144" lon="5.35068">
        <ele>1184</ele>
        <time>2015-11-16T01:24:43Z</time>
      </trkpt>
      <trkpt lat="44.1216" lon="5.35064">
        <ele>1186</ele>
        <time>2015-11-16T01:26:43Z</time>
      </trkpt>
      <trkpt lat="44.122" lon="5.35055">
        <ele>1188</ele>
        <time>2015-11-16T01:28:43Z</time>
      </trkpt>
      <trkpt lat="44.12218" lon="5.35051">
        <ele>1190</ele>
        <time>2015-11-16T01:30:43Z</time>
      </trkpt>
      <trkpt lat="44.12238" lon="5.35048">
        <ele>1191</ele>
        <time>2015-11-16T01:32:43Z</time>
      </trkpt>
      <trkpt lat="44.12268" lon="5.35044">
        <ele>1193</ele>
        <time>2015-11-16T01:34:43Z</time>
      </trkpt>
      <trkpt lat="44.12276" lon="5.35043">
        <ele>1193</ele>
        <time>2015-11-16T01:36:43Z</time>
      </trkpt>
      <trkpt lat="44.12291" lon="5.35043">
        <ele>1194</ele>
        <time>2015-11-16T01:38:43Z</time>
      </trkpt>
      <trkpt lat="44.12306" lon="5.35044">
        <ele>1195</ele>
        <time>2015-11-16T01:40:43Z</time>
      </trkpt>
      <trkpt lat="44.1232" lon="5.35046">
        <ele>1196</ele>
        <time>2015-11-16T01:42:43Z</time>
      </trkpt>
      <trkpt lat="44.12334" lon="5.35049">
        <ele>1197</ele>
        <time>2015-11-16T01:44:43Z</time>
      </trkpt>
      <trkpt lat="44.12347" lon="5.35052">
        <ele>1197</ele>
        <time>2015-11-16T01:46:43Z</time>
      </trkpt>
      <trkpt lat="44.12353" lon="5.35055">
        <ele>1197</ele>
        <time>2015-11-16T01:48:43Z</time>
      </trkpt>
      <trkpt lat="44.12373" lon="5.35062">
        <ele>1198</ele>
        <time>2015-11-16T01:50:43Z</time>
      </trkpt>
      <trkpt lat="44.12392" lon="5.3507">
        <ele>1199</ele>
        <time>2015-11-16T01:52:43Z</time>
      </trkpt>
      <trkpt lat="44.12424" lon="5.35085">
        <ele>1201</ele>
        <time>2015-11-16T01:54:43Z</time>
      </trkpt>
      <trkpt lat="44.12438" lon="5.35091">
        <ele>1202</ele>
        <time>2015-11-16T01:56:43Z</time>
      </trkpt>
      <trkpt lat="44.12468" lon="5.35103">
        <ele>1203</ele>
        <time>2015-11-16T01:58:43Z</time>
      </trkpt>
      <trkpt lat="44.12485" lon="5.35108">
        <ele>1204</ele>
        <time>2015-11-16T02:00:43Z</time>
      </trkpt>
      <trkpt lat="44.12492" lon="5.35109">
        <ele>1204</ele>
        <time>2015-11-16T02:02:43Z</time>
      </trkpt>
      <trkpt lat="44.12506" lon="5.35112">
        <ele>1205</ele>
        <time>2015-11-16T02:04:43Z</time>
      </trkpt>
      <trkpt lat="44.12519" lon="5.35114">
        <ele>1205</ele>
        <time>2015-11-16T02:06:43Z</time>
      </trkpt>
      <trkpt lat="44.12532" lon="5.35115">
        <ele>1206</ele>
        <time>2015-11-16T02:08:43Z</time>
      </trkpt>
      <trkpt lat="44.12544" lon="5.35115">
        <ele>1206</ele>
        <time>2015-11-16T02:10:43Z</time>
      </trkpt>
      <trkpt lat="44.12556" lon="5.35114">
        <ele>1206</ele>
        <time>2015-11-16T02:12:43Z</time>
      </trkpt>
      <trkpt lat="44.12562" lon="5.35113">
        <ele>1206</ele>
        <time>2015-11-16T02:14:43Z</time>
      </trkpt>
      <trkpt lat="44.12579" lon="5.3511">
        <ele>1207</ele>
        <time>2015-11-16T02:16:43Z</time>
      </trkpt>
      <trkpt lat="44.12602" lon="5.35105">
        <ele>1208</ele>
        <time>2015-11-16T02:18:43Z</time>
      </trkpt>
      <trkpt lat="44.12614" lon="5.35102">
        <ele>1209</ele>
        <time>2015-11-16T02:20:43Z</time>
      </trkpt>
      <trkpt lat="44.1262" lon="5.351">
        <ele>1209</ele>
        <time>2015-11-16T02:22:43Z</time>
      </trkpt>
      <trkpt lat="44.12651" lon="5.35092">
        <ele>1211</ele>
        <time>2015-11-16T02:24:43Z</time>
      </trkpt>
      <trkpt lat="44.12679" lon="5.35087">
        <ele>1213</ele>
        <time>2015-11-16T02:26:43Z</time>
      </trkpt>
      <trkpt lat="44.12711" lon="5.35083">
        <ele>1215</ele>
        <time>2015-11-16T02:28:43Z</time>
      </trkpt>
      <trkpt lat="44.1274" lon="5.35077">
        <ele>1216</ele>
        <time>2015-11-16T02:30:43Z</time>
      </trkpt>
      <trkpt lat="44.12754" lon="5.35075">
        <ele>1217</ele>
        <time>2015-11-16T02:32:43Z</time>
      </trkpt>
      <trkpt lat="44.12786" lon="5.35067">
        <ele>1220</ele>
        <time>2015-11-16T02:34:43Z</time>
      </trkpt>
      <trkpt lat="44.12799" lon="5.35063">
        <ele>1221</ele>
        <time>2015-11-16T02:36:43Z</time>
      </trkpt>
      <trkpt lat="44.12824" lon="5.35055">
        <ele>1223</ele>
        <time>2015-11-16T02:38:43Z</time>
      </trkpt>
      <trkpt lat="44.12864" lon="5.35041">
        <ele>1226</ele>
        <time>2015-11-16T02:40:43Z</time>
      </trkpt>
      <trkpt lat="44.12871" lon="5.35038">
        <ele>1227</ele>
        <time>2015-11-16T02:42:43Z</time>
      </trkpt>
      <trkpt lat="44.1291" lon="5.35024">
        <ele>1230</ele>
        <time>2015-11-16T02:44:43Z</time>
      </trkpt>
      <trkpt lat="44.12941" lon="5.35011">
        <ele>1232</ele>
        <time>2015-11-16T02:46:43Z</time>
      </trkpt>
      <trkpt lat="44.12953" lon="5.35006">
        <ele>1232</ele>
        <time>2015-11-16T02:48:43Z</time>
      </trkpt>
      <trkpt lat="44.12968" lon="5.34997">
        <ele>1233</ele>
        <time>2015-11-16T02:50:43Z</time>
      </trkpt>
      <trkpt lat="44.12978" lon="5.34991">
        <ele>1234</ele>
        <time>2015-11-16T02:52:43Z</time>
      </trkpt>
      <trkpt lat="44.13002" lon="5.34975">
        <ele>1235</ele>
        <time>2015-11-16T02:54:43Z</time>
      </trkpt>
      <trkpt lat="44.13017" lon="5.34964">
        <ele>1237</ele>
        <time>2015-11-16T02:56:43Z</time>
      </trkpt>
      <trkpt lat="44.13051" lon="5.34936">
        <ele>1240</ele>
        <time>2015-11-16T02:58:43Z</time>
      </trkpt>
      <trkpt lat="44.13068" lon="5.34922">
        <ele>1242</ele>
        <time>2015-11-16T03:00:43Z</time>
      </trkpt>
      <trkpt lat="44.13079" lon="5.34912">
        <ele>1243</ele>
        <time>2015-11-16T03:02:43Z</time>
      </trkpt>
      <trkpt lat="44.13096" lon="5.34898">
        <ele>1244</ele>
        <time>2015-11-16T03:04:43Z</time>
      </trkpt>
      <trkpt lat="44.1311" lon="5.34884">
        <ele>1245</ele>
        <time>2015-11-16T03:06:43Z</time>
      </trkpt>
      <trkpt lat="44.13128" lon="5.34865">
        <ele>1246</ele>
        <time>2015-11-16T03:08:43Z</time>
      </trkpt>
      <trkpt lat="44.13131" lon="5.3486">
        <ele>1246</ele>
        <time>2015-11-16T03:10:43Z</time>
      </trkpt>
      <trkpt lat="44.13136" lon="5.34855">
        <ele>1246</ele>
        <time>2015-11-16T03:12:43Z</time>
      </trkpt>
      <trkpt lat="44.13163" lon="5.34823">
        <ele>1247</ele>
        <time>2015-11-16T03:14:43Z</time>
      </trkpt>
      <trkpt lat="44.13179" lon="5.34804">
        <ele>1247</ele>
        <time>2015-11-16T03:16:43Z</time>
      </trkpt>
      <trkpt lat="44.13188" lon="5.34795">
        <ele>1247</ele>
        <time>2015-11-16T03:18:43Z</time>
      </trkpt>
      <trkpt lat="44.13202" lon="5.34782">
        <ele>1248</ele>
        <time>2015-11-16T03:20:43Z</time>
      </trkpt>
      <trkpt lat="44.13218" lon="5.34768">
        <ele>1248</ele>
        <time>2015-11-16T03:22:43Z</time>
      </trkpt>
      <trkpt lat="44.1323" lon="5.34759">
        <ele>1249</ele>
        <time>2015-11-16T03:24:43Z</time>
      </trkpt>
      <trkpt lat="44.13242" lon="5.34753">
        <ele>1250</ele>
        <time>2015-11-16T03:26:43Z</time>
      </trkpt>
      <trkpt lat="44.13253" lon="5.34748">
        <ele>1250</ele>
        <time>2015-11-16T03:28:43Z</time>
      </trkpt>
      <trkpt lat="44.13259" lon="5.34747">
        <ele>1250</ele>
        <time>2015-11-16T03:30:43Z</time>
      </trkpt>
      <trkpt lat="44.13264" lon="5.34746">
        <ele>1250</ele>
        <time>2015-11-16T03:32:43Z</time>
      </trkpt>
      <trkpt lat="44.13275" lon="5.34746">
        <ele>1251</ele>
        <time>2015-11-16T03:34:43Z</time>
      </trkpt>
      <trkpt lat="44.13286" lon="5.34747">
        <ele>1252</ele>
        <time>2015-11-16T03:36:43Z</time>
      </trkpt>
      <trkpt lat="44.13292" lon="5.34747">
        <ele>1252</ele>
        <time>2015-11-16T03:38:43Z</time>
      </trkpt>
      <trkpt lat="44.13308" lon="5.34751">
        <ele>1254</ele>
        <time>2015-11-16T03:40:43Z</time>
      </trkpt>
      <trkpt lat="44.13324" lon="5.34756">
        <ele>1255</ele>
        <time>2015-11-16T03:42:43Z</time>
      </trkpt>
      <trkpt lat="44.13347" lon="5.34762">
        <ele>1257</ele>
        <time>2015-11-16T03:44:43Z</time>
      </trkpt>
      <trkpt lat="44.13352" lon="5.34763">
        <ele>1258</ele>
        <time>2015-11-16T03:46:43Z</time>
      </trkpt>
      <trkpt lat="44.13364" lon="5.34765">
        <ele>1259</ele>
        <time>2015-11-16T03:48:43Z</time>
      </trkpt>
      <trkpt lat="44.13376" lon="5.34766">
        <ele>1260</ele>
        <time>2015-11-16T03:50:43Z</time>
      </trkpt>
      <trkpt lat="44.13389" lon="5.34765">
        <ele>1262</ele>
        <time>2015-11-16T03:52:43Z</time>
      </trkpt>
      <trkpt lat="44.13395" lon="5.34763">
        <ele>1262</ele>
        <time>2015-11-16T03:54:43Z</time>
      </trkpt>
      <trkpt lat="44.13408" lon="5.3476">
        <ele>1263</ele>
        <time>2015-11-16T03:56:43Z</time>
      </trkpt>
      <trkpt lat="44.13465" lon="5.34739">
        <ele>1269</ele>
        <time>2015-11-16T03:58:43Z</time>
      </trkpt>
      <trkpt lat="44.13471" lon="5.34687">
        <ele>1269</ele>
        <time>2015-11-16T04:00:43Z</time>
      </trkpt>
      <trkpt lat="44.13466" lon="5.34638">
        <ele>1268</ele>
        <time>2015-11-16T04:02:43Z</time>
      </trkpt>
      <trkpt lat="44.13452" lon="5.3457">
        <ele>1268</ele>
        <time>2015-11-16T04:04:43Z</time>
      </trkpt>
      <trkpt lat="44.1344" lon="5.34498">
        <ele>1267</ele>
        <time>2015-11-16T04:06:43Z</time>
      </trkpt>
      <trkpt lat="44.13448" lon="5.34458">
        <ele>1267</ele>
        <time>2015-11-16T04:08:43Z</time>
      </trkpt>
      <trkpt lat="44.13472" lon="5.34425">
        <ele>1269</ele>
        <time>2015-11-16T04:10:43Z</time>
      </trkpt>
      <trkpt lat="44.13499" lon="5.34403">
        <ele>1269</ele>
        <time>2015-11-16T04:12:43Z</time>
      </trkpt>
      <trkpt lat="44.13568" lon="5.34373">
        <ele>1269</ele>
        <time>2015-11-16T04:14:43Z</time>
      </trkpt>
      <trkpt lat="44.13654" lon="5.34365">
        <ele>1271</ele>
        <time>2015-11-16T04:16:43Z</time>
      </trkpt>
      <trkpt lat="44.13676" lon="5.34365">
        <ele>1273</ele>
        <time>2015-11-16T04:18:43Z</time>
      </trkpt>
      <trkpt lat="44.13704" lon="5.34309">
        <ele>1269</ele>
        <time>2015-11-16T04:20:43Z</time>
      </trkpt>
      <trkpt lat="44.13797" lon="5.34257">
        <ele>1273</ele>
        <time>2015-11-16T04:22:43Z</time>
      </trkpt>
      <trkpt lat="44.1381" lon="5.34249">
        <ele>1274</ele>
        <time>2015-11-16T04:24:43Z</time>
      </trkpt>
      <trkpt lat="44.1381" lon="5.34233">
        <ele>1275</ele>
        <time>2015-11-16T04:26:43Z</time>
      </trkpt>
      <trkpt lat="44.13782" lon="5.34219">
        <ele>1273</ele>
        <time>2015-11-16T04:28:43Z</time>
      </trkpt>
      <trkpt lat="44.13732" lon="5.34202">
        <ele>1270</ele>
        <time>2015-11-16T04:30:43Z</time>
      </trkpt>
      <trkpt lat="44.1369" lon="5.34183">
        <ele>1268</ele>
        <time>2015-11-16T04:32:43Z</time>
      </trkpt>
      <trkpt lat="44.13649" lon="5.3414">
        <ele>1268</ele>
        <time>2015-11-16T04:34:43Z</time>
      </trkpt>
      <trkpt lat="44.13624" lon="5.34082">
        <ele>1270</ele>
        <time>2015-11-16T04:36:43Z</time>
      </trkpt>
      <trkpt lat="44.1361" lon="5.34031">
        <ele>1269</ele>
        <time>2015-11-16T04:38:43Z</time>
      </trkpt>
      <trkpt lat="44.13613" lon="5.33965">
        <ele>1270</ele>
        <time>2015-11-16T04:40:43Z</time>
      </trkpt>
      <trkpt lat="44.13613" lon="5.33902">
        <ele>1270</ele>
        <time>2015-11-16T04:42:43Z</time>
      </trkpt>
      <trkpt lat="44.13621" lon="5.33881">
        <ele>1270</ele>
        <time>2015-11-16T04:44:43Z</time>
      </trkpt>
      <trkpt lat="44.13643" lon="5.33882">
        <ele>1270</ele>
        <time>2015-11-16T04:46:43Z</time>
      </trkpt>
      <trkpt lat="44.1369" lon="5.33897">
        <ele>1270</ele>
        <time>2015-11-16T04:48:43Z</time>
      </trkpt>
      <trkpt lat="44.13744" lon="5.33901">
        <ele>1270</ele>
        <time>2015-11-16T04:50:43Z</time>
      </trkpt>
      <trkpt lat="44.13759" lon="5.33895">
        <ele>1270</ele>
        <time>2015-11-16T04:52:43Z</time>
      </trkpt>
      <trkpt lat="44.13769" lon="5.33879">
        <ele>1270</ele>
        <time>2015-11-16T04:54:43Z</time>
      </trkpt>
      <trkpt lat="44.13784" lon="5.33802">
        <ele>1266</ele>
        <time>2015-11-16T04:56:43Z</time>
      </trkpt>
      <trkpt lat="44.13794" lon="5.3378">
        <ele>1266</ele>
        <time>2015-11-16T04:58:43Z</time>
      </trkpt>
      <trkpt lat="44.13777" lon="5.33759">
        <ele>1263</ele>
        <time>2015-11-16T05:00:43Z</time>
      </trkpt>
      <trkpt lat="44.13769" lon="5.33706">
        <ele>1259</ele>
        <time>2015-11-16T05:02:43Z</time>
      </trkpt>
      <trkpt lat="44.13773" lon="5.33624">
        <ele>1256</ele>
        <time>2015-11-16T05:04:43Z</time>
      </trkpt>
      <trkpt lat="44.13783" lon="5.33612">
        <ele>1257</ele>
        <time>2015-11-16T05:06:43Z</time>
      </trkpt>
      <trkpt lat="44.13812" lon="5.33623">
        <ele>1261</ele>
        <time>2015-11-16T05:08:43Z</time>
      </trkpt>
      <trkpt lat="44.13829" lon="5.33621">
        <ele>1263</ele>
        <time>2015-11-16T05:10:43Z</time>
      </trkpt>
      <trkpt lat="44.13827" lon="5.33597">
        <ele>1262</ele>
        <time>2015-11-16T05:12:43Z</time>
      </trkpt>
      <trkpt lat="44.13809" lon="5.33583">
        <ele>1259</ele>
        <time>2015-11-16T05:14:43Z</time>
      </trkpt>
      <trkpt lat="44.1379" lon="5.33549">
        <ele>1255</ele>
        <time>2015-11-16T05:16:43Z</time>
      </trkpt>
      <trkpt lat="44.1378" lon="5.33523">
        <ele>1253</ele>
        <time>2015-11-16T05:18:43Z</time>
      </trkpt>
      <trkpt lat="44.13776" lon="5.3349">
        <ele>1251</ele>
        <time>2015-11-16T05:20:43Z</time>
      </trkpt>
      <trkpt lat="44.13778" lon="5.33401">
        <ele>1246</ele>
        <time>2015-11-16T05:22:43Z</time>
      </trkpt>
      <trkpt lat="44.13781" lon="5.33361">
        <ele>1243</ele>
        <time>2015-11-16T05:24:43Z</time>
      </trkpt>
      <trkpt lat="44.1379" lon="5.33327">
        <ele>1241</ele>
        <time>2015-11-16T05:26:43Z</time>
      </trkpt>
      <trkpt lat="44.13806" lon="5.33275">
        <ele>1238</ele>
        <time>2015-11-16T05:28:43Z</time>
      </trkpt>
      <trkpt lat="44.1382" lon="5.33239">
        <ele>1236</ele>
        <time>2015-11-16T05:30:43Z</time>
      </trkpt>
      <trkpt lat="44.13836" lon="5.33228">
        <ele>1239</ele>
        <time>2015-11-16T05:32:43Z</time>
      </trkpt>
      <trkpt lat="44.1387" lon="5.33226">
        <ele>1246</ele>
        <time>2015-11-16T05:34:43Z</time>
      </trkpt>
      <trkpt lat="44.13859" lon="5.33194">
        <ele>1243</ele>
        <time>2015-11-16T05:36:43Z</time>
      </trkpt>
      <trkpt lat="44.13855" lon="5.33148">
        <ele>1242</ele>
        <time>2015-11-16T05:38:43Z</time>
      </trkpt>
      <trkpt lat="44.13861" lon="5.33122">
        <ele>1244</ele>
        <time>2015-11-16T05:40:43Z</time>
      </trkpt>
      <trkpt lat="44.13864" lon="5.33045">
        <ele>1244</ele>
        <time>2015-11-16T05:42:43Z</time>
      </trkpt>
      <trkpt lat="44.13875" lon="5.32981">
        <ele>1248</ele>
        <time>2015-11-16T05:44:43Z</time>
      </trkpt>
      <trkpt lat="44.1387" lon="5.32903">
        <ele>1245</ele>
        <time>2015-11-16T05:46:43Z</time>
      </trkpt>
      <trkpt lat="44.13866" lon="5.32856">
        <ele>1245</ele>
        <time>2015-11-16T05:48:43Z</time>
      </trkpt>
      <trkpt lat="44.13859" lon="5.32811">
        <ele>1244</ele>
        <time>2015-11-16T05:50:43Z</time>
      </trkpt>
      <trkpt lat="44.13852" lon="5.32764">
        <ele>1244</ele>
        <time>2015-11-16T05:52:43Z</time>
      </trkpt>
      <trkpt lat="44.13831" lon="5.3266">
        <ele>1246</ele>
        <time>2015-11-16T05:54:43Z</time>
      </trkpt>
      <trkpt lat="44.13819" lon="5.32609">
        <ele>1241</ele>
        <time>2015-11-16T05:56:43Z</time>
      </trkpt>
      <trkpt lat="44.13794" lon="5.32538">
        <ele>1233</ele>
        <time>2015-11-16T05:58:43Z</time>
      </trkpt>
      <trkpt lat="44.13762" lon="5.32462">
        <ele>1233</ele>
        <time>2015-11-16T06:00:43Z</time>
      </trkpt>
      <trkpt lat="44.13749" lon="5.32383">
        <ele>1233</ele>
        <time>2015-11-16T06:02:43Z</time>
      </trkpt>
      <trkpt lat="44.13736" lon="5.32317">
        <ele>1230</ele>
        <time>2015-11-16T06:04:43Z</time>
      </trkpt>
      <trkpt lat="44.13718" lon="5.32266">
        <ele>1229</ele>
        <time>2015-11-16T06:06:43Z</time>
      </trkpt>
      <trkpt lat="44.13697" lon="5.3217">
        <ele>1220</ele>
        <time>2015-11-16T06:08:43Z</time>
      </trkpt>
      <trkpt lat="44.13663" lon="5.32088">
        <ele>1212</ele>
        <time>2015-11-16T06:10:43Z</time>
      </trkpt>
      <trkpt lat="44.13647" lon="5.32014">
        <ele>1206</ele>
        <time>2015-11-16T06:12:43Z</time>
      </trkpt>
      <trkpt lat="44.13672" lon="5.31947">
        <ele>1189</ele>
        <time>2015-11-16T06:14:43Z</time>
      </trkpt>
      <trkpt lat="44.13687" lon="5.31888">
        <ele>1184</ele>
        <time>2015-11-16T06:16:43Z</time>
      </trkpt>
      <trkpt lat="44.13692" lon="5.31899">
        <ele>1185</ele>
        <time>2015-11-16T06:18:43Z</time>
      </trkpt>
      <trkpt lat="44.13699" lon="5.31877">
        <ele>1185</ele>
        <time>2015-11-16T06:20:43Z</time>
      </trkpt>
      <trkpt lat="44.13693" lon="5.31822">
        <ele>1181</ele>
        <time>2015-11-16T06:22:43Z</time>
      </trkpt>
      <trkpt lat="44.13698" lon="5.31802">
        <ele>1183</ele>
        <time>2015-11-16T06:24:43Z</time>
      </trkpt>
      <trkpt lat="44.13696" lon="5.31769">
        <ele>1182</ele>
        <time>2015-11-16T06:26:43Z</time>
      </trkpt>
      <trkpt lat="44.13693" lon="5.31733">
        <ele>1185</ele>
        <time>2015-11-16T06:28:43Z</time>
      </trkpt>
      <trkpt lat="44.1368" lon="5.31707">
        <ele>1187</ele>
        <time>2015-11-16T06:30:43Z</time>
      </trkpt>
      <trkpt lat="44.13642" lon="5.31668">
        <ele>1184</ele>
        <time>2015-11-16T06:32:43Z</time>
      </trkpt>
      <trkpt lat="44.13523" lon="5.31589">
        <ele>1189</ele>
        <time>2015-11-16T06:34:43Z</time>
      </trkpt>
      <trkpt lat="44.13441" lon="5.31506">
        <ele>1204</ele>
        <time>2015-11-16T06:36:43Z</time>
      </trkpt>
      <trkpt lat="44.13429" lon="5.31479">
        <ele>1207</ele>
        <time>2015-11-16T06:38:43Z</time>
      </trkpt>
      <trkpt lat="44.13403" lon="5.31438">
        <ele>1208</ele>
        <time>2015-11-16T06:40:43Z</time>
      </trkpt>
      <trkpt lat="44.13411" lon="5.31367">
        <ele>1214</ele>
        <time>2015-11-16T06:42:43Z</time>
      </trkpt>
      <trkpt lat="44.13433" lon="5.31272">
        <ele>1214</ele>
        <time>2015-11-16T06:44:43Z</time>
      </trkpt>
      <trkpt lat="44.13442" lon="5.31192">
        <ele>1210</ele>
        <time>2015-11-16T06:46:43Z</time>
      </trkpt>
      <trkpt lat="44.13469" lon="5.31048">
        <ele>1206</ele>
        <time>2015-11-16T06:48:43Z</time>
      </trkpt>
      <trkpt lat="44.13488" lon="5.30882">
        <ele>1203</ele>
        <time>2015-11-16T06:50:43Z</time>
      </trkpt>
      <trkpt lat="44.13504" lon="5.30746">
        <ele>1200</ele>
        <time>2015-11-16T06:52:43Z</time>
      </trkpt>
      <trkpt lat="44.13529" lon="5.30679">
        <ele>1199</ele>
        <time>2015-11-16T06:54:43Z</time>
      </trkpt>
      <trkpt lat="44.13431" lon="5.30257">
        <ele>1177</ele>
        <time>2015-11-16T06:56:43Z</time>
      </trkpt>
      <trkpt lat="44.1347" lon="5.30052">
        <ele>1159</ele>
        <time>2015-11-16T06:58:43Z</time>
      </trkpt>
      <trkpt lat="44.13486" lon="5.29972">
        <ele>1151</ele>
        <time>2015-11-16T07:00:43Z</time>
      </trkpt>
      <trkpt lat="44.13501" lon="5.29929">
        <ele>1147</ele>
        <time>2015-11-16T07:02:43Z</time>
      </trkpt>
      <trkpt lat="44.13513" lon="5.29892">
        <ele>1149</ele>
        <time>2015-11-16T07:04:43Z</time>
      </trkpt>
      <trkpt lat="44.13518" lon="5.29846">
        <ele>1149</ele>
        <time>2015-11-16T07:06:43Z</time>
      </trkpt>
      <trkpt lat="44.13523" lon="5.29759">
        <ele>1147</ele>
        <time>2015-11-16T07:08:43Z</time>
      </trkpt>
      <trkpt lat="44.13536" lon="5.29676">
        <ele>1147</ele>
        <time>2015-11-16T07:10:43Z</time>
      </trkpt>
      <trkpt lat="44.13554" lon="5.29603">
        <ele>1147</ele>
        <time>2015-11-16T07:12:43Z</time>
      </trkpt>
      <trkpt lat="44.13568" lon="5.29603">
        <ele>1148</ele>
        <time>2015-11-16T07:14:43Z</time>
      </trkpt>
      <trkpt lat="44.136" lon="5.2962">
        <ele>1153</ele>
        <time>2015-11-16T07:16:43Z</time>
      </trkpt>
      <trkpt lat="44.13637" lon="5.29644">
        <ele>1157</ele>
        <time>2015-11-16T07:18:43Z</time>
      </trkpt>
      <trkpt lat="44.13646" lon="5.29636">
        <ele>1157</ele>
        <time>2015-11-16T07:20:43Z</time>
      </trkpt>
      <trkpt lat="44.13667" lon="5.29654">
        <ele>1159</ele>
        <time>2015-11-16T07:22:43Z</time>
      </trkpt>
      <trkpt lat="44.13684" lon="5.29668">
        <ele>1161</ele>
        <time>2015-11-16T07:24:43Z</time>
      </trkpt>
      <trkpt lat="44.13699" lon="5.29676">
        <ele>1164</ele>
        <time>2015-11-16T07:26:43Z</time>
      </trkpt>
      <trkpt lat="44.13743" lon="5.29702">
        <ele>1170</ele>
        <time>2015-11-16T07:28:43Z</time>
      </trkpt>
      <trkpt lat="44.13775" lon="5.29729">
        <ele>1175</ele>
        <time>2015-11-16T07:30:43Z</time>
      </trkpt>
      <trkpt lat="44.13815" lon="5.29779">
        <ele>1181</ele>
        <time>2015-11-16T07:32:43Z</time>
      </trkpt>
      <trkpt lat="44.13842" lon="5.29841">
        <ele>1188</ele>
        <time>2015-11-16T07:34:43Z</time>
      </trkpt>
      <trkpt lat="44.13901" lon="5.29949">
        <ele>1200</ele>
        <time>2015-11-16T07:36:43Z</time>
      </trkpt>
      <trkpt lat="44.13935" lon="5.29991">
        <ele>1204</ele>
        <time>2015-11-16T07:38:43Z</time>
      </trkpt>
      <trkpt lat="44.13968" lon="5.30047">
        <ele>1211</ele>
        <time>2015-11-16T07:40:43Z</time>
      </trkpt>
      <trkpt lat="44.13984" lon="5.30069">
        <ele>1211</ele>
        <time>2015-11-16T07:42:43Z</time>
      </trkpt>
      <trkpt lat="44.14" lon="5.30079">
        <ele>1210</ele>
        <time>2015-11-16T07:44:43Z</time>
      </trkpt>
      <trkpt lat="44.14021" lon="5.301">
        <ele>1217</ele>
        <time>2015-11-16T07:46:43Z</time>
      </trkpt>
      <trkpt lat="44.14034" lon="5.30123">
        <ele>1221</ele>
        <time>2015-11-16T07:48:43Z</time>
      </trkpt>
      <trkpt lat="44.1406" lon="5.30173">
        <ele>1223</ele>
        <time>2015-11-16T07:50:43Z</time>
      </trkpt>
      <trkpt lat="44.14074" lon="5.30212">
        <ele>1225</ele>
        <time>2015-11-16T07:52:43Z</time>
      </trkpt>
      <trkpt lat="44.14089" lon="5.30236">
        <ele>1226</ele>
        <time>2015-11-16T07:54:43Z</time>
      </trkpt>
      <trkpt lat="44.14145" lon="5.30333">
        <ele>1237</ele>
        <time>2015-11-16T07:56:43Z</time>
      </trkpt>
      <trkpt lat="44.14189" lon="5.30429">
        <ele>1249</ele>
        <time>2015-11-16T07:58:43Z</time>
      </trkpt>
      <trkpt lat="44.14218" lon="5.3052">
        <ele>1259</ele>
        <time>2015-11-16T08:00:43Z</time>
      </trkpt>
      <trkpt lat="44.14222" lon="5.30552">
        <ele>1260</ele>
        <time>2015-11-16T08:02:43Z</time>
      </trkpt>
      <trkpt lat="44.1422" lon="5.30592">
        <ele>1262</ele>
        <time>2015-11-16T08:04:43Z</time>
      </trkpt>
      <trkpt lat="44.14208" lon="5.30615">
        <ele>1263</ele>
        <time>2015-11-16T08:06:43Z</time>
      </trkpt>
      <trkpt lat="44.14211" lon="5.30658">
        <ele>1265</ele>
        <time>2015-11-16T08:08:43Z</time>
      </trkpt>
      <trkpt lat="44.1421" lon="5.30733">
        <ele>1271</ele>
        <time>2015-11-16T08:10:43Z</time>
      </trkpt>
      <trkpt lat="44.14202" lon="5.30804">
        <ele>1275</ele>
        <time>2015-11-16T08:12:43Z</time>
      </trkpt>
      <trkpt lat="44.14216" lon="5.30845">
        <ele>1277</ele>
        <time>2015-11-16T08:14:43Z</time>
      </trkpt>
      <trkpt lat="44.14242" lon="5.3089">
        <ele>1278</ele>
        <time>2015-11-16T08:16:43Z</time>
      </trkpt>
      <trkpt lat="44.14271" lon="5.3097">
        <ele>1290</ele>
        <time>2015-11-16T08:18:43Z</time>
      </trkpt>
      <trkpt lat="44.1428" lon="5.31004">
        <ele>1294</ele>
        <time>2015-11-16T08:20:43Z</time>
      </trkpt>
      <trkpt lat="44.143" lon="5.31028">
        <ele>1298</ele>
        <time>2015-11-16T08:22:43Z</time>
      </trkpt>
      <trkpt lat="44.14309" lon="5.31044">
        <ele>1299</ele>
        <time>2015-11-16T08:24:43Z</time>
      </trkpt>
      <trkpt lat="44.14321" lon="5.31064">
        <ele>1300</ele>
        <time>2015-11-16T08:26:43Z</time>
      </trkpt>
      <trkpt lat="44.14335" lon="5.31077">
        <ele>1300</ele>
        <time>2015-11-16T08:28:43Z</time>
      </trkpt>
      <trkpt lat="44.1436" lon="5.31083">
        <ele>1302</ele>
        <time>2015-11-16T08:30:43Z</time>
      </trkpt>
      <trkpt lat="44.14388" lon="5.3108">
        <ele>1304</ele>
        <time>2015-11-16T08:32:43Z</time>
      </trkpt>
      <trkpt lat="44.14406" lon="5.3109">
        <ele>1305</ele>
        <time>2015-11-16T08:34:43Z</time>
      </trkpt>
      <trkpt lat="44.14424" lon="5.31104">
        <ele>1309</ele>
        <time>2015-11-16T08:36:43Z</time>
      </trkpt>
      <trkpt lat="44.14457" lon="5.31136">
        <ele>1316</ele>
        <time>2015-11-16T08:38:43Z</time>
      </trkpt>
      <trkpt lat="44.14484" lon="5.31198">
        <ele>1322</ele>
        <time>2015-11-16T08:40:43Z</time>
      </trkpt>
      <trkpt lat="44.14495" lon="5.31222">
        <ele>1324</ele>
        <time>2015-11-16T08:42:43Z</time>
      </trkpt>
      <trkpt lat="44.14508" lon="5.31241">
        <ele>1327</ele>
        <time>2015-11-16T08:44:43Z</time>
      </trkpt>
      <trkpt lat="44.14527" lon="5.31274">
        <ele>1333</ele>
        <time>2015-11-16T08:46:43Z</time>
      </trkpt>
      <trkpt lat="44.14565" lon="5.31309">
        <ele>1339</ele>
        <time>2015-11-16T08:48:43Z</time>
      </trkpt>
      <trkpt lat="44.14602" lon="5.31361">
        <ele>1347</ele>
        <time>2015-11-16T08:50:43Z</time>
      </trkpt>
      <trkpt lat="44.1464" lon="5.31403">
        <ele>1352</ele>
        <time>2015-11-16T08:52:43Z</time>
      </trkpt>
      <trkpt lat="44.14727" lon="5.31477">
        <ele>1364</ele>
        <time>2015-11-16T08:54:43Z</time>
      </trkpt>
      <trkpt lat="44.14796" lon="5.31501">
        <ele>1370</ele>
        <time>2015-11-16T08:56:43Z</time>
      </trkpt>
      <trkpt lat="44.14805" lon="5.31501">
        <ele>1371</ele>
        <time>2015-11-16T08:58:43Z</time>
      </trkpt>
      <trkpt lat="44.14823" lon="5.31518">
        <ele>1374</ele>
        <time>2015-11-16T09:00:43Z</time>
      </trkpt>
      <trkpt lat="44.14844" lon="5.3153">
        <ele>1377</ele>
        <time>2015-11-16T09:02:43Z</time>
      </trkpt>
      <trkpt lat="44.14943" lon="5.31597">
        <ele>1387</ele>
        <time>2015-11-16T09:04:43Z</time>
      </trkpt>
      <trkpt lat="44.14951" lon="5.31601">
        <ele>1389</ele>
        <time>2015-11-16T09:06:43Z</time>
      </trkpt>
      <trkpt lat="44.14959" lon="5.31614">
        <ele>1391</ele>
        <time>2015-11-16T09:08:43Z</time>
      </trkpt>
      <trkpt lat="44.14971" lon="5.31629">
        <ele>1393</ele>
        <time>2015-11-16T09:10:43Z</time>
      </trkpt>
      <trkpt lat="44.14984" lon="5.31642">
        <ele>1394</ele>
        <time>2015-11-16T09:12:43Z</time>
      </trkpt>
      <trkpt lat="44.15004" lon="5.31661">
        <ele>1395</ele>
        <time>2015-11-16T09:14:43Z</time>
      </trkpt>
      <trkpt lat="44.15028" lon="5.31686">
        <ele>1400</ele>
        <time>2015-11-16T09:16:43Z</time>
      </trkpt>
      <trkpt lat="44.15051" lon="5.31695">
        <ele>1403</ele>
        <time>2015-11-16T09:18:43Z</time>
      </trkpt>
      <trkpt lat="44.15065" lon="5.31707">
        <ele>1404</ele>
        <time>2015-11-16T09:20:43Z</time>
      </trkpt>
      <trkpt lat="44.15119" lon="5.31771">
        <ele>1414</ele>
        <time>2015-11-16T09:22:43Z</time>
      </trkpt>
      <trkpt lat="44.15137" lon="5.31783">
        <ele>1417</ele>
        <time>2015-11-16T09:24:43Z</time>
      </trkpt>
      <trkpt lat="44.15151" lon="5.31792">
        <ele>1418</ele>
        <time>2015-11-16T09:26:43Z</time>
      </trkpt>
      <trkpt lat="44.15167" lon="5.31797">
        <ele>1419</ele>
        <time>2015-11-16T09:28:43Z</time>
      </trkpt>
      <trkpt lat="44.15184" lon="5.31808">
        <ele>1423</ele>
        <time>2015-11-16T09:30:43Z</time>
      </trkpt>
      <trkpt lat="44.15193" lon="5.31819">
        <ele>1425</ele>
        <time>2015-11-16T09:32:43Z</time>
      </trkpt>
      <trkpt lat="44.15203" lon="5.31831">
        <ele>1427</ele>
        <time>2015-11-16T09:34:43Z</time>
      </trkpt>
      <trkpt lat="44.15212" lon="5.31846">
        <ele>1429</ele>
        <time>2015-11-16T09:36:43Z</time>
      </trkpt>
      <trkpt lat="44.15239" lon="5.31983">
        <ele>1437</ele>
        <time>2015-11-16T09:38:43Z</time>
      </trkpt>
      <trkpt lat="44.15242" lon="5.31992">
        <ele>1438</ele>
        <time>2015-11-16T09:40:43Z</time>
      </trkpt>
      <trkpt lat="44.15244" lon="5.32006">
        <ele>1439</ele>
        <time>2015-11-16T09:42:43Z</time>
      </trkpt>
      <trkpt lat="44.15246" lon="5.32018">
        <ele>1440</ele>
        <time>2015-11-16T09:44:43Z</time>
      </trkpt>
      <trkpt lat="44.15247" lon="5.32035">
        <ele>1443</ele>
        <time>2015-11-16T09:46:43Z</time>
      </trkpt>
      <trkpt lat="44.15247" lon="5.32055">
        <ele>1445</ele>
        <time>2015-11-16T09:48:43Z</time>
      </trkpt>
      <trkpt lat="44.15247" lon="5.32059">
        <ele>1446</ele>
        <time>2015-11-16T09:50:43Z</time>
      </trkpt>
      <trkpt lat="44.15247" lon="5.32076">
        <ele>1448</ele>
        <time>2015-11-16T09:52:43Z</time>
      </trkpt>
      <trkpt lat="44.15246" lon="5.3208">
        <ele>1449</ele>
        <time>2015-11-16T09:54:43Z</time>
      </trkpt>
      <trkpt lat="44.15246" lon="5.32093">
        <ele>1450</ele>
        <time>2015-11-16T09:56:43Z</time>
      </trkpt>
      <trkpt lat="44.15246" lon="5.32112">
        <ele>1452</ele>
        <time>2015-11-16T09:58:43Z</time>
      </trkpt>
      <trkpt lat="44.15247" lon="5.32123">
        <ele>1453</ele>
        <time>2015-11-16T10:00:43Z</time>
      </trkpt>
      <trkpt lat="44.15247" lon="5.32128">
        <ele>1453</ele>
        <time>2015-11-16T10:02:43Z</time>
      </trkpt>
      <trkpt lat="44.15248" lon="5.32148">
        <ele>1455</ele>
        <time>2015-11-16T10:04:43Z</time>
      </trkpt>
      <trkpt lat="44.15249" lon="5.32175">
        <ele>1457</ele>
        <time>2015-11-16T10:06:43Z</time>
      </trkpt>
      <trkpt lat="44.15249" lon="5.32179">
        <ele>1457</ele>
        <time>2015-11-16T10:08:43Z</time>
      </trkpt>
      <trkpt lat="44.15249" lon="5.32188">
        <ele>1458</ele>
        <time>2015-11-16T10:10:43Z</time>
      </trkpt>
      <trkpt lat="44.15249" lon="5.32204">
        <ele>1459</ele>
        <time>2015-11-16T10:12:43Z</time>
      </trkpt>
      <trkpt lat="44.15249" lon="5.32217">
        <ele>1460</ele>
        <time>2015-11-16T10:14:43Z</time>
      </trkpt>
      <trkpt lat="44.15249" lon="5.32226">
        <ele>1461</ele>
        <time>2015-11-16T10:16:43Z</time>
      </trkpt>
      <trkpt lat="44.15249" lon="5.32244">
        <ele>1463</ele>
        <time>2015-11-16T10:18:43Z</time>
      </trkpt>
      <trkpt lat="44.1525" lon="5.32279">
        <ele>1466</ele>
        <time>2015-11-16T10:20:43Z</time>
      </trkpt>
      <trkpt lat="44.15252" lon="5.32291">
        <ele>1468</ele>
        <time>2015-11-16T10:22:43Z</time>
      </trkpt>
      <trkpt lat="44.15253" lon="5.32295">
        <ele>1468</ele>
        <time>2015-11-16T10:24:43Z</time>
      </trkpt>
      <trkpt lat="44.15254" lon="5.32298">
        <ele>1469</ele>
        <time>2015-11-16T10:26:43Z</time>
      </trkpt>
      <trkpt lat="44.15256" lon="5.32305">
        <ele>1469</ele>
        <time>2015-11-16T10:28:43Z</time>
      </trkpt>
      <trkpt lat="44.1526" lon="5.32314">
        <ele>1471</ele>
        <time>2015-11-16T10:30:43Z</time>
      </trkpt>
      <trkpt lat="44.15264" lon="5.3232">
        <ele>1472</ele>
        <time>2015-11-16T10:32:43Z</time>
      </trkpt>
      <trkpt lat="44.15271" lon="5.32331">
        <ele>1473</ele>
        <time>2015-11-16T10:34:43Z</time>
      </trkpt>
      <trkpt lat="44.15284" lon="5.32347">
        <ele>1475</ele>
        <time>2015-11-16T10:36:43Z</time>
      </trkpt>
      <trkpt lat="44.15294" lon="5.32362">
        <ele>1476</ele>
        <time>2015-11-16T10:38:43Z</time>
      </trkpt>
      <trkpt lat="44.15296" lon="5.32366">
        <ele>1477</ele>
        <time>2015-11-16T10:40:43Z</time>
      </trkpt>
      <trkpt lat="44.15302" lon="5.32377">
        <ele>1478</ele>
        <time>2015-11-16T10:42:43Z</time>
      </trkpt>
      <trkpt lat="44.15309" lon="5.32387">
        <ele>1480</ele>
        <time>2015-11-16T10:44:43Z</time>
      </trkpt>
      <trkpt lat="44.15313" lon="5.32393">
        <ele>1481</ele>
        <time>2015-11-16T10:46:43Z</time>
      </trkpt>
      <trkpt lat="44.15322" lon="5.32404">
        <ele>1483</ele>
        <time>2015-11-16T10:48:43Z</time>
      </trkpt>
      <trkpt lat="44.15329" lon="5.3241">
        <ele>1485</ele>
        <time>2015-11-16T10:50:43Z</time>
      </trkpt>
      <trkpt lat="44.15335" lon="5.32416">
        <ele>1486</ele>
        <time>2015-11-16T10:52:43Z</time>
      </trkpt>
      <trkpt lat="44.15348" lon="5.32426">
        <ele>1488</ele>
        <time>2015-11-16T10:54:43Z</time>
      </trkpt>
      <trkpt lat="44.15358" lon="5.32433">
        <ele>1489</ele>
        <time>2015-11-16T10:56:43Z</time>
      </trkpt>
      <trkpt lat="44.15371" lon="5.32444">
        <ele>1491</ele>
        <time>2015-11-16T10:58:43Z</time>
      </trkpt>
      <trkpt lat="44.15377" lon="5.3245">
        <ele>1492</ele>
        <time>2015-11-16T11:00:43Z</time>
      </trkpt>
      <trkpt lat="44.15385" lon="5.32457">
        <ele>1494</ele>
        <time>2015-11-16T11:02:43Z</time>
      </trkpt>
      <trkpt lat="44.15393" lon="5.32463">
        <ele>1495</ele>
        <time>2015-11-16T11:04:43Z</time>
      </trkpt>
      <trkpt lat="44.15398" lon="5.32466">
        <ele>1496</ele>
        <time>2015-11-16T11:06:43Z</time>
      </trkpt>
      <trkpt lat="44.15412" lon="5.32474">
        <ele>1499</ele>
        <time>2015-11-16T11:08:43Z</time>
      </trkpt>
      <trkpt lat="44.15435" lon="5.32483">
        <ele>1503</ele>
        <time>2015-11-16T11:10:43Z</time>
      </trkpt>
      <trkpt lat="44.15445" lon="5.32488">
        <ele>1505</ele>
        <time>2015-11-16T11:12:43Z</time>
      </trkpt>
      <trkpt lat="44.15457" lon="5.32494">
        <ele>1508</ele>
        <time>2015-11-16T11:14:43Z</time>
      </trkpt>
      <trkpt lat="44.1546" lon="5.32496">
        <ele>1509</ele>
        <time>2015-11-16T11:16:43Z</time>
      </trkpt>
      <trkpt lat="44.15466" lon="5.325">
        <ele>1510</ele>
        <time>2015-11-16T11:18:43Z</time>
      </trkpt>
      <trkpt lat="44.15476" lon="5.32503">
        <ele>1511</ele>
        <time>2015-11-16T11:20:43Z</time>
      </trkpt>
      <trkpt lat="44.15482" lon="5.32505">
        <ele>1512</ele>
        <time>2015-11-16T11:22:43Z</time>
      </trkpt>
      <trkpt lat="44.15488" lon="5.32506">
        <ele>1513</ele>
        <time>2015-11-16T11:24:43Z</time>
      </trkpt>
      <trkpt lat="44.15496" lon="5.32506">
        <ele>1515</ele>
        <time>2015-11-16T11:26:43Z</time>
      </trkpt>
      <trkpt lat="44.15508" lon="5.32505">
        <ele>1517</ele>
        <time>2015-11-16T11:28:43Z</time>
      </trkpt>
      <trkpt lat="44.15516" lon="5.32503">
        <ele>1519</ele>
        <time>2015-11-16T11:30:43Z</time>
      </trkpt>
      <trkpt lat="44.15537" lon="5.32498">
        <ele>1523</ele>
        <time>2015-11-16T11:32:43Z</time>
      </trkpt>
      <trkpt lat="44.15551" lon="5.32497">
        <ele>1526</ele>
        <time>2015-11-16T11:34:43Z</time>
      </trkpt>
      <trkpt lat="44.15573" lon="5.32495">
        <ele>1530</ele>
        <time>2015-11-16T11:36:43Z</time>
      </trkpt>
      <trkpt lat="44.15583" lon="5.32494">
        <ele>1532</ele>
        <time>2015-11-16T11:38:43Z</time>
      </trkpt>
      <trkpt lat="44.15592" lon="5.32492">
        <ele>1533</ele>
        <time>2015-11-16T11:40:43Z</time>
      </trkpt>
      <trkpt lat="44.156" lon="5.3249">
        <ele>1534</ele>
        <time>2015-11-16T11:42:43Z</time>
      </trkpt>
      <trkpt lat="44.15617" lon="5.32486">
        <ele>1537</ele>
        <time>2015-11-16T11:44:43Z</time>
      </trkpt>
      <trkpt lat="44.15637" lon="5.32479">
        <ele>1540</ele>
        <time>2015-11-16T11:46:43Z</time>
      </trkpt>
      <trkpt lat="44.1564" lon="5.32478">
        <ele>1541</ele>
        <time>2015-11-16T11:48:43Z</time>
      </trkpt>
      <trkpt lat="44.15648" lon="5.32475">
        <ele>1542</ele>
        <time>2015-11-16T11:50:43Z</time>
      </trkpt>
      <trkpt lat="44.1567" lon="5.32466">
        <ele>1546</ele>
        <time>2015-11-16T11:52:43Z</time>
      </trkpt>
      <trkpt lat="44.15693" lon="5.32457">
        <ele>1550</ele>
        <time>2015-11-16T11:54:43Z</time>
      </trkpt>
      <trkpt lat="44.15698" lon="5.32456">
        <ele>1551</ele>
        <time>2015-11-16T11:56:43Z</time>
      </trkpt>
      <trkpt lat="44.15703" lon="5.32454">
        <ele>1552</ele>
        <time>2015-11-16T11:58:43Z</time>
      </trkpt>
      <trkpt lat="44.15712" lon="5.32451">
        <ele>1554</ele>
        <time>2015-11-16T12:00:43Z</time>
      </trkpt>
      <trkpt lat="44.1573" lon="5.32446">
        <ele>1557</ele>
        <time>2015-11-16T12:02:43Z</time>
      </trkpt>
      <trkpt lat="44.15746" lon="5.32443">
        <ele>1560</ele>
        <time>2015-11-16T12:04:43Z</time>
      </trkpt>
      <trkpt lat="44.15761" lon="5.32441">
        <ele>1564</ele>
        <time>2015-11-16T12:06:43Z</time>
      </trkpt>
      <trkpt lat="44.1578" lon="5.32441">
        <ele>1568</ele>
        <time>2015-11-16T12:08:43Z</time>
      </trkpt>
      <trkpt lat="44.15796" lon="5.32441">
        <ele>1572</ele>
        <time>2015-11-16T12:10:43Z</time>
      </trkpt>
      <trkpt lat="44.15805" lon="5.32441">
        <ele>1575</ele>
        <time>2015-11-16T12:12:43Z</time>
      </trkpt>
      <trkpt lat="44.15809" lon="5.32441">
        <ele>1575</ele>
        <time>2015-11-16T12:14:43Z</time>
      </trkpt>
      <trkpt lat="44.15818" lon="5.32441">
        <ele>1578</ele>
        <time>2015-11-16T12:16:43Z</time>
      </trkpt>
      <trkpt lat="44.15823" lon="5.32441">
        <ele>1579</ele>
        <time>2015-11-16T12:18:43Z</time>
      </trkpt>
      <trkpt lat="44.15833" lon="5.32441">
        <ele>1581</ele>
        <time>2015-11-16T12:20:43Z</time>
      </trkpt>
      <trkpt lat="44.15846" lon="5.32441">
        <ele>1584</ele>
        <time>2015-11-16T12:22:43Z</time>
      </trkpt>
      <trkpt lat="44.15883" lon="5.32443">
        <ele>1593</ele>
        <time>2015-11-16T12:24:43Z</time>
      </trkpt>
      <trkpt lat="44.15886" lon="5.32443">
        <ele>1594</ele>
        <time>2015-11-16T12:26:43Z</time>
      </trkpt>
      <trkpt lat="44.15893" lon="5.32444">
        <ele>1596</ele>
        <time>2015-11-16T12:28:43Z</time>
      </trkpt>
      <trkpt lat="44.15906" lon="5.32445">
        <ele>1599</ele>
        <time>2015-11-16T12:30:43Z</time>
      </trkpt>
      <trkpt lat="44.15913" lon="5.32446">
        <ele>1600</ele>
        <time>2015-11-16T12:32:43Z</time>
      </trkpt>
      <trkpt lat="44.15917" lon="5.32446">
        <ele>1601</ele>
        <time>2015-11-16T12:34:43Z</time>
      </trkpt>
      <trkpt lat="44.15948" lon="5.3245">
        <ele>1606</ele>
        <time>2015-11-16T12:36:43Z</time>
      </trkpt>
      <trkpt lat="44.15953" lon="5.3245">
        <ele>1607</ele>
        <time>2015-11-16T12:38:43Z</time>
      </trkpt>
      <trkpt lat="44.1596" lon="5.32451">
        <ele>1608</ele>
        <time>2015-11-16T12:40:43Z</time>
      </trkpt>
      <trkpt lat="44.15966" lon="5.3245">
        <ele>1608</ele>
        <time>2015-11-16T12:42:43Z</time>
      </trkpt>
      <trkpt lat="44.15972" lon="5.32448">
        <ele>1609</ele>
        <time>2015-11-16T12:44:43Z</time>
      </trkpt>
      <trkpt lat="44.15978" lon="5.32446">
        <ele>1610</ele>
        <time>2015-11-16T12:46:43Z</time>
      </trkpt>
      <trkpt lat="44.15983" lon="5.32443">
        <ele>1611</ele>
        <time>2015-11-16T12:48:43Z</time>
      </trkpt>
      <trkpt lat="44.15987" lon="5.32439">
        <ele>1611</ele>
        <time>2015-11-16T12:50:43Z</time>
      </trkpt>
      <trkpt lat="44.1599" lon="5.32434">
        <ele>1611</ele>
        <time>2015-11-16T12:52:43Z</time>
      </trkpt>
      <trkpt lat="44.15994" lon="5.32428">
        <ele>1612</ele>
        <time>2015-11-16T12:54:43Z</time>
      </trkpt>
      <trkpt lat="44.15996" lon="5.32422">
        <ele>1612</ele>
        <time>2015-11-16T12:56:43Z</time>
      </trkpt>
      <trkpt lat="44.16001" lon="5.32407">
        <ele>1611</ele>
        <time>2015-11-16T12:58:43Z</time>
      </trkpt>
      <trkpt lat="44.16004" lon="5.3239">
        <ele>1609</ele>
        <time>2015-11-16T13:00:43Z</time>
      </trkpt>
      <trkpt lat="44.16005" lon="5.3238">
        <ele>1608</ele>
        <time>2015-11-16T13:02:43Z</time>
      </trkpt>
      <trkpt lat="44.16006" lon="5.32361">
        <ele>1607</ele>
        <time>2015-11-16T13:04:43Z</time>
      </trkpt>
      <trkpt lat="44.16007" lon="5.32339">
        <ele>1605</ele>
        <time>2015-11-16T13:06:43Z</time>
      </trkpt>
      <trkpt lat="44.16007" lon="5.32317">
        <ele>1605</ele>
        <time>2015-11-16T13:08:43Z</time>
      </trkpt>
      <trkpt lat="44.16006" lon="5.32259">
        <ele>1608</ele>
        <time>2015-11-16T13:10:43Z</time>
      </trkpt>
      <trkpt lat="44.16006" lon="5.32236">
        <ele>1609</ele>
        <time>2015-11-16T13:12:43Z</time>
      </trkpt>
      <trkpt lat="44.16006" lon="5.32225">
        <ele>1610</ele>
        <time>2015-11-16T13:14:43Z</time>
      </trkpt>
      <trkpt lat="44.16007" lon="5.32202">
        <ele>1613</ele>
        <time>2015-11-16T13:16:43Z</time>
      </trkpt>
      <trkpt lat="44.16008" lon="5.32191">
        <ele>1614</ele>
        <time>2015-11-16T13:18:43Z</time>
      </trkpt>
      <trkpt lat="44.1601" lon="5.3217">
        <ele>1616</ele>
        <time>2015-11-16T13:20:43Z</time>
      </trkpt>
      <trkpt lat="44.16015" lon="5.32141">
        <ele>1618</ele>
        <time>2015-11-16T13:22:43Z</time>
      </trkpt>
      <trkpt lat="44.16016" lon="5.32132">
        <ele>1619</ele>
        <time>2015-11-16T13:24:43Z</time>
      </trkpt>
      <trkpt lat="44.16021" lon="5.32112">
        <ele>1620</ele>
        <time>2015-11-16T13:26:43Z</time>
      </trkpt>
      <trkpt lat="44.16023" lon="5.32104">
        <ele>1621</ele>
        <time>2015-11-16T13:28:43Z</time>
      </trkpt>
      <trkpt lat="44.16034" lon="5.32071">
        <ele>1625</ele>
        <time>2015-11-16T13:30:43Z</time>
      </trkpt>
      <trkpt lat="44.16035" lon="5.32067">
        <ele>1625</ele>
        <time>2015-11-16T13:32:43Z</time>
      </trkpt>
      <trkpt lat="44.16038" lon="5.32058">
        <ele>1626</ele>
        <time>2015-11-16T13:34:43Z</time>
      </trkpt>
      <trkpt lat="44.16045" lon="5.32039">
        <ele>1627</ele>
        <time>2015-11-16T13:36:43Z</time>
      </trkpt>
      <trkpt lat="44.16048" lon="5.3203">
        <ele>1628</ele>
        <time>2015-11-16T13:38:43Z</time>
      </trkpt>
      <trkpt lat="44.16054" lon="5.3201">
        <ele>1630</ele>
        <time>2015-11-16T13:40:43Z</time>
      </trkpt>
      <trkpt lat="44.16057" lon="5.31998">
        <ele>1632</ele>
        <time>2015-11-16T13:42:43Z</time>
      </trkpt>
      <trkpt lat="44.16059" lon="5.31983">
        <ele>1632</ele>
        <time>2015-11-16T13:44:43Z</time>
      </trkpt>
      <trkpt lat="44.1606" lon="5.31971">
        <ele>1632</ele>
        <time>2015-11-16T13:46:43Z</time>
      </trkpt>
      <trkpt lat="44.1606" lon="5.31963">
        <ele>1632</ele>
        <time>2015-11-16T13:48:43Z</time>
      </trkpt>
      <trkpt lat="44.16061" lon="5.31948">
        <ele>1632</ele>
        <time>2015-11-16T13:50:43Z</time>
      </trkpt>
      <trkpt lat="44.1606" lon="5.31931">
        <ele>1632</ele>
        <time>2015-11-16T13:52:43Z</time>
      </trkpt>
      <trkpt lat="44.1606" lon="5.31926">
        <ele>1632</ele>
        <time>2015-11-16T13:54:43Z</time>
      </trkpt>
      <trkpt lat="44.1606" lon="5.31917">
        <ele>1632</ele>
        <time>2015-11-16T13:56:43Z</time>
      </trkpt>
      <trkpt lat="44.16059" lon="5.31902">
        <ele>1631</ele>
        <time>2015-11-16T13:58:43Z</time>
      </trkpt>
      <trkpt lat="44.16059" lon="5.3189">
        <ele>1631</ele>
        <time>2015-11-16T14:00:43Z</time>
      </trkpt>
      <trkpt lat="44.16059" lon="5.31885">
        <ele>1631</ele>
        <time>2015-11-16T14:02:43Z</time>
      </trkpt>
      <trkpt lat="44.1606" lon="5.31874">
        <ele>1630</ele>
        <time>2015-11-16T14:04:43Z</time>
      </trkpt>
      <trkpt lat="44.16061" lon="5.31865">
        <ele>1630</ele>
        <time>2015-11-16T14:06:43Z</time>
      </trkpt>
      <trkpt lat="44.16062" lon="5.31855">
        <ele>1630</ele>
        <time>2015-11-16T14:08:43Z</time>
      </trkpt>
      <trkpt lat="44.16065" lon="5.31842">
        <ele>1630</ele>
        <time>2015-11-16T14:10:43Z</time>
      </trkpt>
      <trkpt lat="44.16069" lon="5.31829">
        <ele>1629</ele>
        <time>2015-11-16T14:12:43Z</time>
      </trkpt>
      <trkpt lat="44.16072" lon="5.3182">
        <ele>1629</ele>
        <time>2015-11-16T14:14:43Z</time>
      </trkpt>
      <trkpt lat="44.16073" lon="5.31816">
        <ele>1629</ele>
        <time>2015-11-16T14:16:43Z</time>
      </trkpt>
      <trkpt lat="44.16075" lon="5.31812">
        <ele>1629</ele>
        <time>2015-11-16T14:18:43Z</time>
      </trkpt>
      <trkpt lat="44.16078" lon="5.31803">
        <ele>1629</ele>
        <time>2015-11-16T14:20:43Z</time>
      </trkpt>
      <trkpt lat="44.16079" lon="5.31799">
        <ele>1629</ele>
        <time>2015-11-16T14:22:43Z</time>
      </trkpt>
      <trkpt lat="44.16085" lon="5.3178">
        <ele>1628</ele>
        <time>2015-11-16T14:24:43Z</time>
      </trkpt>
      <trkpt lat="44.16093" lon="5.31753">
        <ele>1625</ele>
        <time>2015-11-16T14:26:43Z</time>
      </trkpt>
      <trkpt lat="44.16095" lon="5.31747">
        <ele>1625</ele>
        <time>2015-11-16T14:28:43Z</time>
      </trkpt>
      <trkpt lat="44.161" lon="5.31729">
        <ele>1623</ele>
        <time>2015-11-16T14:30:43Z</time>
      </trkpt>
      <trkpt lat="44.16107" lon="5.31708">
        <ele>1621</ele>
        <time>2015-11-16T14:32:43Z</time>
      </trkpt>
      <trkpt lat="44.16113" lon="5.31694">
        <ele>1620</ele>
        <time>2015-11-16T14:34:43Z</time>
      </trkpt>
      <trkpt lat="44.16117" lon="5.31685">
        <ele>1619</ele>
        <time>2015-11-16T14:36:43Z</time>
      </trkpt>
      <trkpt lat="44.16123" lon="5.31672">
        <ele>1618</ele>
        <time>2015-11-16T14:38:43Z</time>
      </trkpt>
      <trkpt lat="44.16132" lon="5.31655">
        <ele>1618</ele>
        <time>2015-11-16T14:40:43Z</time>
      </trkpt>
      <trkpt lat="44.16142" lon="5.31638">
        <ele>1618</ele>
        <time>2015-11-16T14:42:43Z</time>
      </trkpt>
      <trkpt lat="44.1616" lon="5.31611">
        <ele>1621</ele>
        <time>2015-11-16T14:44:43Z</time>
      </trkpt>
      <trkpt lat="44.1617" lon="5.31597">
        <ele>1622</ele>
        <time>2015-11-16T14:46:43Z</time>
      </trkpt>
      <trkpt lat="44.16172" lon="5.31595">
        <ele>1622</ele>
        <time>2015-11-16T14:48:43Z</time>
      </trkpt>
      <trkpt lat="44.16176" lon="5.31598">
        <ele>1621</ele>
        <time>2015-11-16T14:50:43Z</time>
      </trkpt>
      <trkpt lat="44.16177" lon="5.31603">
        <ele>1620</ele>
        <time>2015-11-16T14:52:43Z</time>
      </trkpt>
      <trkpt lat="44.16178" lon="5.31612">
        <ele>1619</ele>
        <time>2015-11-16T14:54:43Z</time>
      </trkpt>
      <trkpt lat="44.16179" lon="5.31625">
        <ele>1617</ele>
        <time>2015-11-16T14:56:43Z</time>
      </trkpt>
      <trkpt lat="44.16179" lon="5.31634">
        <ele>1616</ele>
        <time>2015-11-16T14:58:43Z</time>
      </trkpt>
      <trkpt lat="44.16178" lon="5.31685">
        <ele>1613</ele>
        <time>2015-11-16T15:00:43Z</time>
      </trkpt>
      <trkpt lat="44.16178" lon="5.31698">
        <ele>1613</ele>
        <time>2015-11-16T15:02:43Z</time>
      </trkpt>
      <trkpt lat="44.16178" lon="5.31703">
        <ele>1612</ele>
        <time>2015-11-16T15:04:43Z</time>
      </trkpt>
      <trkpt lat="44.16179" lon="5.31708">
        <ele>1612</ele>
        <time>2015-11-16T15:06:43Z</time>
      </trkpt>
      <trkpt lat="44.16183" lon="5.3171">
        <ele>1610</ele>
        <time>2015-11-16T15:08:43Z</time>
      </trkpt>
      <trkpt lat="44.16187" lon="5.31709">
        <ele>1608</ele>
        <time>2015-11-16T15:10:43Z</time>
      </trkpt>
      <trkpt lat="44.16189" lon="5.31708">
        <ele>1607</ele>
        <time>2015-11-16T15:12:43Z</time>
      </trkpt>
      <trkpt lat="44.16195" lon="5.31705">
        <ele>1604</ele>
        <time>2015-11-16T15:14:43Z</time>
      </trkpt>
      <trkpt lat="44.16197" lon="5.31703">
        <ele>1603</ele>
        <time>2015-11-16T15:16:43Z</time>
      </trkpt>
      <trkpt lat="44.16202" lon="5.31697">
        <ele>1601</ele>
        <time>2015-11-16T15:18:43Z</time>
      </trkpt>
      <trkpt lat="44.16204" lon="5.31694">
        <ele>1600</ele>
        <time>2015-11-16T15:20:43Z</time>
      </trkpt>
      <trkpt lat="44.16208" lon="5.31688">
        <ele>1599</ele>
        <time>2015-11-16T15:22:43Z</time>
      </trkpt>
      <trkpt lat="44.16209" lon="5.31685">
        <ele>1599</ele>
        <time>2015-11-16T15:24:43Z</time>
      </trkpt>
      <trkpt lat="44.1621" lon="5.31681">
        <ele>1599</ele>
        <time>2015-11-16T15:26:43Z</time>
      </trkpt>
      <trkpt lat="44.16214" lon="5.31672">
        <ele>1598</ele>
        <time>2015-11-16T15:28:43Z</time>
      </trkpt>
      <trkpt lat="44.16217" lon="5.31667">
        <ele>1597</ele>
        <time>2015-11-16T15:30:43Z</time>
      </trkpt>
      <trkpt lat="44.16221" lon="5.31662">
        <ele>1596</ele>
        <time>2015-11-16T15:32:43Z</time>
      </trkpt>
      <trkpt lat="44.16228" lon="5.31655">
        <ele>1595</ele>
        <time>2015-11-16T15:34:43Z</time>
      </trkpt>
      <trkpt lat="44.16232" lon="5.31652">
        <ele>1595</ele>
        <time>2015-11-16T15:36:43Z</time>
      </trkpt>
      <trkpt lat="44.16244" lon="5.31644">
        <ele>1592</ele>
        <time>2015-11-16T15:38:43Z</time>
      </trkpt>
      <trkpt lat="44.16249" lon="5.31642">
        <ele>1591</ele>
        <time>2015-11-16T15:40:43Z</time>
      </trkpt>
      <trkpt lat="44.16258" lon="5.31636">
        <ele>1589</ele>
        <time>2015-11-16T15:42:43Z</time>
      </trkpt>
      <trkpt lat="44.16267" lon="5.31629">
        <ele>1587</ele>
        <time>2015-11-16T15:44:43Z</time>
      </trkpt>
      <trkpt lat="44.16272" lon="5.31625">
        <ele>1586</ele>
        <time>2015-11-16T15:46:43Z</time>
      </trkpt>
      <trkpt lat="44.16293" lon="5.31603">
        <ele>1584</ele>
        <time>2015-11-16T15:48:43Z</time>
      </trkpt>
      <trkpt lat="44.1631" lon="5.31583">
        <ele>1583</ele>
        <time>2015-11-16T15:50:43Z</time>
      </trkpt>
      <trkpt lat="44.16332" lon="5.31554">
        <ele>1580</ele>
        <time>2015-11-16T15:52:43Z</time>
      </trkpt>
      <trkpt lat="44.16338" lon="5.31545">
        <ele>1578</ele>
        <time>2015-11-16T15:54:43Z</time>
      </trkpt>
      <trkpt lat="44.16342" lon="5.31538">
        <ele>1578</ele>
        <time>2015-11-16T15:56:43Z</time>
      </trkpt>
      <trkpt lat="44.16346" lon="5.3153">
        <ele>1577</ele>
        <time>2015-11-16T15:58:43Z</time>
      </trkpt>
      <trkpt lat="44.1635" lon="5.31522">
        <ele>1577</ele>
        <time>2015-11-16T16:00:43Z</time>
      </trkpt>
      <trkpt lat="44.16356" lon="5.31506">
        <ele>1576</ele>
        <time>2015-11-16T16:02:43Z</time>
      </trkpt>
      <trkpt lat="44.16358" lon="5.31497">
        <ele>1577</ele>
        <time>2015-11-16T16:04:43Z</time>
      </trkpt>
      <trkpt lat="44.16361" lon="5.31485">
        <ele>1576</ele>
        <time>2015-11-16T16:06:43Z</time>
      </trkpt>
      <trkpt lat="44.16368" lon="5.31454">
        <ele>1575</ele>
        <time>2015-11-16T16:08:43Z</time>
      </trkpt>
      <trkpt lat="44.16373" lon="5.31436">
        <ele>1574</ele>
        <time>2015-11-16T16:10:43Z</time>
      </trkpt>
      <trkpt lat="44.16376" lon="5.31426">
        <ele>1573</ele>
        <time>2015-11-16T16:12:43Z</time>
      </trkpt>
      <trkpt lat="44.16382" lon="5.3141">
        <ele>1570</ele>
        <time>2015-11-16T16:14:43Z</time>
      </trkpt>
      <trkpt lat="44.16384" lon="5.31406">
        <ele>1569</ele>
        <time>2015-11-16T16:16:43Z</time>
      </trkpt>
      <trkpt lat="44.16387" lon="5.31401">
        <ele>1566</ele>
        <time>2015-11-16T16:18:43Z</time>
      </trkpt>
      <trkpt lat="44.1639" lon="5.31406">
        <ele>1565</ele>
        <time>2015-11-16T16:20:43Z</time>
      </trkpt>
      <trkpt lat="44.16391" lon="5.3141">
        <ele>1565</ele>
        <time>2015-11-16T16:22:43Z</time>
      </trkpt>
      <trkpt lat="44.16391" lon="5.31414">
        <ele>1565</ele>
        <time>2015-11-16T16:24:43Z</time>
      </trkpt>
      <trkpt lat="44.16392" lon="5.31433">
        <ele>1563</ele>
        <time>2015-11-16T16:26:43Z</time>
      </trkpt>
      <trkpt lat="44.16392" lon="5.3144">
        <ele>1562</ele>
        <time>2015-11-16T16:28:43Z</time>
      </trkpt>
      <trkpt lat="44.1639" lon="5.31475">
        <ele>1559</ele>
        <time>2015-11-16T16:30:43Z</time>
      </trkpt>
      <trkpt lat="44.16382" lon="5.31599">
        <ele>1540</ele>
        <time>2015-11-16T16:32:43Z</time>
      </trkpt>
      <trkpt lat="44.16382" lon="5.31606">
        <ele>1538</ele>
        <time>2015-11-16T16:34:43Z</time>
      </trkpt>
      <trkpt lat="44.16381" lon="5.31611">
        <ele>1537</ele>
        <time>2015-11-16T16:36:43Z</time>
      </trkpt>
      <trkpt lat="44.16381" lon="5.31615">
        <ele>1536</ele>
        <time>2015-11-16T16:38:43Z</time>
      </trkpt>
      <trkpt lat="44.16382" lon="5.31619">
        <ele>1534</ele>
        <time>2015-11-16T16:40:43Z</time>
      </trkpt>
      <trkpt lat="44.16386" lon="5.31618">
        <ele>1533</ele>
        <time>2015-11-16T16:42:43Z</time>
      </trkpt>
      <trkpt lat="44.1639" lon="5.3161">
        <ele>1532</ele>
        <time>2015-11-16T16:44:43Z</time>
      </trkpt>
      <trkpt lat="44.16397" lon="5.31591">
        <ele>1533</ele>
        <time>2015-11-16T16:46:43Z</time>
      </trkpt>
      <trkpt lat="44.16408" lon="5.3156">
        <ele>1534</ele>
        <time>2015-11-16T16:48:43Z</time>
      </trkpt>
      <trkpt lat="44.16419" lon="5.31525">
        <ele>1534</ele>
        <time>2015-11-16T16:50:43Z</time>
      </trkpt>
      <trkpt lat="44.1643" lon="5.31494">
        <ele>1532</ele>
        <time>2015-11-16T16:52:43Z</time>
      </trkpt>
      <trkpt lat="44.16437" lon="5.31478">
        <ele>1530</ele>
        <time>2015-11-16T16:54:43Z</time>
      </trkpt>
      <trkpt lat="44.16442" lon="5.31466">
        <ele>1528</ele>
        <time>2015-11-16T16:56:43Z</time>
      </trkpt>
      <trkpt lat="44.16447" lon="5.31456">
        <ele>1527</ele>
        <time>2015-11-16T16:58:43Z</time>
      </trkpt>
      <trkpt lat="44.16454" lon="5.31442">
        <ele>1524</ele>
        <time>2015-11-16T17:00:43Z</time>
      </trkpt>
      <trkpt lat="44.16462" lon="5.31428">
        <ele>1522</ele>
        <time>2015-11-16T17:02:43Z</time>
      </trkpt>
      <trkpt lat="44.16467" lon="5.31418">
        <ele>1520</ele>
        <time>2015-11-16T17:04:43Z</time>
      </trkpt>
      <trkpt lat="44.16475" lon="5.314">
        <ele>1513</ele>
        <time>2015-11-16T17:06:43Z</time>
      </trkpt>
      <trkpt lat="44.16478" lon="5.31393">
        <ele>1511</ele>
        <time>2015-11-16T17:08:43Z</time>
      </trkpt>
      <trkpt lat="44.16479" lon="5.31389">
        <ele>1510</ele>
        <time>2015-11-16T17:10:43Z</time>
      </trkpt>
      <trkpt lat="44.1648" lon="5.31379">
        <ele>1508</ele>
        <time>2015-11-16T17:12:43Z</time>
      </trkpt>
      <trkpt lat="44.16481" lon="5.31376">
        <ele>1507</ele>
        <time>2015-11-16T17:14:43Z</time>
      </trkpt>
      <trkpt lat="44.1648" lon="5.31369">
        <ele>1507</ele>
        <time>2015-11-16T17:16:43Z</time>
      </trkpt>
      <trkpt lat="44.16479" lon="5.31362">
        <ele>1507</ele>
        <time>2015-11-16T17:18:43Z</time>
      </trkpt>
      <trkpt lat="44.16478" lon="5.31355">
        <ele>1507</ele>
        <time>2015-11-16T17:20:43Z</time>
      </trkpt>
      <trkpt lat="44.16473" lon="5.31342">
        <ele>1508</ele>
        <time>2015-11-16T17:22:43Z</time>
      </trkpt>
      <trkpt lat="44.16469" lon="5.31333">
        <ele>1510</ele>
        <time>2015-11-16T17:24:43Z</time>
      </trkpt>
      <trkpt lat="44.16467" lon="5.31329">
        <ele>1511</ele>
        <time>2015-11-16T17:26:43Z</time>
      </trkpt>
      <trkpt lat="44.16466" lon="5.31326">
        <ele>1511</ele>
        <time>2015-11-16T17:28:43Z</time>
      </trkpt>
      <trkpt lat="44.16464" lon="5.31323">
        <ele>1512</ele>
        <time>2015-11-16T17:30:43Z</time>
      </trkpt>
      <trkpt lat="44.16452" lon="5.31298">
        <ele>1516</ele>
        <time>2015-11-16T17:32:43Z</time>
      </trkpt>
      <trkpt lat="44.1645" lon="5.3129">
        <ele>1516</ele>
        <time>2015-11-16T17:34:43Z</time>
      </trkpt>
      <trkpt lat="44.16448" lon="5.31284">
        <ele>1517</ele>
        <time>2015-11-16T17:36:43Z</time>
      </trkpt>
      <trkpt lat="44.16446" lon="5.31278">
        <ele>1517</ele>
        <time>2015-11-16T17:38:43Z</time>
      </trkpt>
      <trkpt lat="44.16445" lon="5.31272">
        <ele>1517</ele>
        <time>2015-11-16T17:40:43Z</time>
      </trkpt>
      <trkpt lat="44.16445" lon="5.31267">
        <ele>1516</ele>
        <time>2015-11-16T17:42:43Z</time>
      </trkpt>
      <trkpt lat="44.16445" lon="5.31261">
        <ele>1515</ele>
        <time>2015-11-16T17:44:43Z</time>
      </trkpt>
      <trkpt lat="44.16447" lon="5.3125">
        <ele>1512</ele>
        <time>2015-11-16T17:46:43Z</time>
      </trkpt>
      <trkpt lat="44.1645" lon="5.31239">
        <ele>1512</ele>
        <time>2015-11-16T17:48:43Z</time>
      </trkpt>
      <trkpt lat="44.16454" lon="5.31228">
        <ele>1512</ele>
        <time>2015-11-16T17:50:43Z</time>
      </trkpt>
      <trkpt lat="44.16456" lon="5.31223">
        <ele>1512</ele>
        <time>2015-11-16T17:52:43Z</time>
      </trkpt>
      <trkpt lat="44.16461" lon="5.31211">
        <ele>1511</ele>
        <time>2015-11-16T17:54:43Z</time>
      </trkpt>
      <trkpt lat="44.16465" lon="5.31198">
        <ele>1511</ele>
        <time>2015-11-16T17:56:43Z</time>
      </trkpt>
      <trkpt lat="44.16467" lon="5.31194">
        <ele>1510</ele>
        <time>2015-11-16T17:58:43Z</time>
      </trkpt>
      <trkpt lat="44.16468" lon="5.3119">
        <ele>1510</ele>
        <time>2015-11-16T18:00:43Z</time>
      </trkpt>
      <trkpt lat="44.16471" lon="5.31183">
        <ele>1510</ele>
        <time>2015-11-16T18:02:43Z</time>
      </trkpt>
      <trkpt lat="44.16475" lon="5.31176">
        <ele>1508</ele>
        <time>2015-11-16T18:04:43Z</time>
      </trkpt>
      <trkpt lat="44.16478" lon="5.3117">
        <ele>1508</ele>
        <time>2015-11-16T18:06:43Z</time>
      </trkpt>
      <trkpt lat="44.16482" lon="5.31165">
        <ele>1507</ele>
        <time>2015-11-16T18:08:43Z</time>
      </trkpt>
      <trkpt lat="44.16486" lon="5.31161">
        <ele>1506</ele>
        <time>2015-11-16T18:10:43Z</time>
      </trkpt>
      <trkpt lat="44.16491" lon="5.31156">
        <ele>1505</ele>
        <time>2015-11-16T18:12:43Z</time>
      </trkpt>
      <trkpt lat="44.16498" lon="5.3115">
        <ele>1503</ele>
        <time>2015-11-16T18:14:43Z</time>
      </trkpt>
      <trkpt lat="44.1651" lon="5.31141">
        <ele>1500</ele>
        <time>2015-11-16T18:16:43Z</time>
      </trkpt>
      <trkpt lat="44.16515" lon="5.31138">
        <ele>1498</ele>
        <time>2015-11-16T18:18:43Z</time>
      </trkpt>
      <trkpt lat="44.16526" lon="5.31129">
        <ele>1496</ele>
        <time>2015-11-16T18:20:43Z</time>
      </trkpt>
      <trkpt lat="44.16537" lon="5.3112">
        <ele>1493</ele>
        <time>2015-11-16T18:22:43Z</time>
      </trkpt>
      <trkpt lat="44.1654" lon="5.31116">
        <ele>1493</ele>
        <time>2015-11-16T18:24:43Z</time>
      </trkpt>
      <trkpt lat="44.16562" lon="5.31095">
        <ele>1490</ele>
        <time>2015-11-16T18:26:43Z</time>
      </trkpt>
      <trkpt lat="44.16565" lon="5.31093">
        <ele>1489</ele>
        <time>2015-11-16T18:28:43Z</time>
      </trkpt>
      <trkpt lat="44.16568" lon="5.3109">
        <ele>1489</ele>
        <time>2015-11-16T18:30:43Z</time>
      </trkpt>
      <trkpt lat="44.16595" lon="5.31066">
        <ele>1482</ele>
        <time>2015-11-16T18:32:43Z</time>
      </trkpt>
      <trkpt lat="44.16607" lon="5.31056">
        <ele>1477</ele>
        <time>2015-11-16T18:34:43Z</time>
      </trkpt>
      <trkpt lat="44.16609" lon="5.31053">
        <ele>1477</ele>
        <time>2015-11-16T18:36:43Z</time>
      </trkpt>
      <trkpt lat="44.16612" lon="5.3105">
        <ele>1476</ele>
        <time>2015-11-16T18:38:43Z</time>
      </trkpt>
      <trkpt lat="44.16621" lon="5.31041">
        <ele>1473</ele>
        <time>2015-11-16T18:40:43Z</time>
      </trkpt>
      <trkpt lat="44.16624" lon="5.31037">
        <ele>1472</ele>
        <time>2015-11-16T18:42:43Z</time>
      </trkpt>
      <trkpt lat="44.16631" lon="5.3103">
        <ele>1470</ele>
        <time>2015-11-16T18:44:43Z</time>
      </trkpt>
      <trkpt lat="44.16638" lon="5.3102">
        <ele>1468</ele>
        <time>2015-11-16T18:46:43Z</time>
      </trkpt>
      <trkpt lat="44.16644" lon="5.31011">
        <ele>1467</ele>
        <time>2015-11-16T18:48:43Z</time>
      </trkpt>
      <trkpt lat="44.16646" lon="5.31006">
        <ele>1467</ele>
        <time>2015-11-16T18:50:43Z</time>
      </trkpt>
      <trkpt lat="44.1665" lon="5.30996">
        <ele>1467</ele>
        <time>2015-11-16T18:52:43Z</time>
      </trkpt>
      <trkpt lat="44.16653" lon="5.30985">
        <ele>1467</ele>
        <time>2015-11-16T18:54:43Z</time>
      </trkpt>
      <trkpt lat="44.16661" lon="5.30952">
        <ele>1468</ele>
        <time>2015-11-16T18:56:43Z</time>
      </trkpt>
      <trkpt lat="44.16665" lon="5.30937">
        <ele>1468</ele>
        <time>2015-11-16T18:58:43Z</time>
      </trkpt>
      <trkpt lat="44.16667" lon="5.30932">
        <ele>1468</ele>
        <time>2015-11-16T19:00:43Z</time>
      </trkpt>
      <trkpt lat="44.1667" lon="5.30928">
        <ele>1468</ele>
        <time>2015-11-16T19:02:43Z</time>
      </trkpt>
      <trkpt lat="44.16673" lon="5.30925">
        <ele>1467</ele>
        <time>2015-11-16T19:04:43Z</time>
      </trkpt>
      <trkpt lat="44.16679" lon="5.3092">
        <ele>1466</ele>
        <time>2015-11-16T19:06:43Z</time>
      </trkpt>
      <trkpt lat="44.16682" lon="5.30918">
        <ele>1465</ele>
        <time>2015-11-16T19:08:43Z</time>
      </trkpt>
      <trkpt lat="44.16686" lon="5.30917">
        <ele>1464</ele>
        <time>2015-11-16T19:10:43Z</time>
      </trkpt>
      <trkpt lat="44.1669" lon="5.30916">
        <ele>1463</ele>
        <time>2015-11-16T19:12:43Z</time>
      </trkpt>
      <trkpt lat="44.16711" lon="5.30912">
        <ele>1457</ele>
        <time>2015-11-16T19:14:43Z</time>
      </trkpt>
      <trkpt lat="44.1672" lon="5.3091">
        <ele>1455</ele>
        <time>2015-11-16T19:16:43Z</time>
      </trkpt>
      <trkpt lat="44.16726" lon="5.30908">
        <ele>1454</ele>
        <time>2015-11-16T19:18:43Z</time>
      </trkpt>
      <trkpt lat="44.16737" lon="5.30906">
        <ele>1451</ele>
        <time>2015-11-16T19:20:43Z</time>
      </trkpt>
      <trkpt lat="44.16742" lon="5.30905">
        <ele>1450</ele>
        <time>2015-11-16T19:22:43Z</time>
      </trkpt>
      <trkpt lat="44.16754" lon="5.30906">
        <ele>1445</ele>
        <time>2015-11-16T19:24:43Z</time>
      </trkpt>
      <trkpt lat="44.16759" lon="5.30906">
        <ele>1443</ele>
        <time>2015-11-16T19:26:43Z</time>
      </trkpt>
      <trkpt lat="44.16771" lon="5.30908">
        <ele>1437</ele>
        <time>2015-11-16T19:28:43Z</time>
      </trkpt>
      <trkpt lat="44.16774" lon="5.30909">
        <ele>1436</ele>
        <time>2015-11-16T19:30:43Z</time>
      </trkpt>
      <trkpt lat="44.16795" lon="5.30912">
        <ele>1427</ele>
        <time>2015-11-16T19:32:43Z</time>
      </trkpt>
      <trkpt lat="44.16801" lon="5.30913">
        <ele>1425</ele>
        <time>2015-11-16T19:34:43Z</time>
      </trkpt>
      <trkpt lat="44.16804" lon="5.30913">
        <ele>1423</ele>
        <time>2015-11-16T19:36:43Z</time>
      </trkpt>
      <trkpt lat="44.16809" lon="5.30912">
        <ele>1422</ele>
        <time>2015-11-16T19:38:43Z</time>
      </trkpt>
      <trkpt lat="44.16813" lon="5.3091">
        <ele>1421</ele>
        <time>2015-11-16T19:40:43Z</time>
      </trkpt>
      <trkpt lat="44.16816" lon="5.30907">
        <ele>1420</ele>
        <time>2015-11-16T19:42:43Z</time>
      </trkpt>
      <trkpt lat="44.1682" lon="5.30903">
        <ele>1419</ele>
        <time>2015-11-16T19:44:43Z</time>
      </trkpt>
      <trkpt lat="44.16829" lon="5.30888">
        <ele>1418</ele>
        <time>2015-11-16T19:46:43Z</time>
      </trkpt>
      <trkpt lat="44.16833" lon="5.30883">
        <ele>1417</ele>
        <time>2015-11-16T19:48:43Z</time>
      </trkpt>
      <trkpt lat="44.16838" lon="5.30875">
        <ele>1415</ele>
        <time>2015-11-16T19:50:43Z</time>
      </trkpt>
      <trkpt lat="44.16842" lon="5.30866">
        <ele>1414</ele>
        <time>2015-11-16T19:52:43Z</time>
      </trkpt>
      <trkpt lat="44.16846" lon="5.30857">
        <ele>1412</ele>
        <time>2015-11-16T19:54:43Z</time>
      </trkpt>
      <trkpt lat="44.16847" lon="5.30853">
        <ele>1412</ele>
        <time>2015-11-16T19:56:43Z</time>
      </trkpt>
      <trkpt lat="44.16849" lon="5.30844">
        <ele>1412</ele>
        <time>2015-11-16T19:58:43Z</time>
      </trkpt>
      <trkpt lat="44.16849" lon="5.30839">
        <ele>1412</ele>
        <time>2015-11-16T20:00:43Z</time>
      </trkpt>
      <trkpt lat="44.1685" lon="5.3083">
        <ele>1413</ele>
        <time>2015-11-16T20:02:43Z</time>
      </trkpt>
      <trkpt lat="44.1685" lon="5.30825">
        <ele>1413</ele>
        <time>2015-11-16T20:04:43Z</time>
      </trkpt>
      <trkpt lat="44.1685" lon="5.30816">
        <ele>1414</ele>
        <time>2015-11-16T20:06:43Z</time>
      </trkpt>
      <trkpt lat="44.16849" lon="5.30806">
        <ele>1416</ele>
        <time>2015-11-16T20:08:43Z</time>
      </trkpt>
      <trkpt lat="44.16848" lon="5.30796">
        <ele>1417</ele>
        <time>2015-11-16T20:10:43Z</time>
      </trkpt>
      <trkpt lat="44.16847" lon="5.30791">
        <ele>1418</ele>
        <time>2015-11-16T20:12:43Z</time>
      </trkpt>
      <trkpt lat="44.16845" lon="5.3077">
        <ele>1421</ele>
        <time>2015-11-16T20:14:43Z</time>
      </trkpt>
      <trkpt lat="44.16844" lon="5.30753">
        <ele>1423</ele>
        <time>2015-11-16T20:16:43Z</time>
      </trkpt>
      <trkpt lat="44.16844" lon="5.30736">
        <ele>1428</ele>
        <time>2015-11-16T20:18:43Z</time>
      </trkpt>
      <trkpt lat="44.16845" lon="5.3072">
        <ele>1433</ele>
        <time>2015-11-16T20:20:43Z</time>
      </trkpt>
      <trkpt lat="44.16845" lon="5.30716">
        <ele>1434</ele>
        <time>2015-11-16T20:22:43Z</time>
      </trkpt>
      <trkpt lat="44.16847" lon="5.3071">
        <ele>1436</ele>
        <time>2015-11-16T20:24:43Z</time>
      </trkpt>
      <trkpt lat="44.1685" lon="5.30704">
        <ele>1437</ele>
        <time>2015-11-16T20:26:43Z</time>
      </trkpt>
      <trkpt lat="44.16853" lon="5.307">
        <ele>1437</ele>
        <time>2015-11-16T20:28:43Z</time>
      </trkpt>
      <trkpt lat="44.16857" lon="5.30696">
        <ele>1437</ele>
        <time>2015-11-16T20:30:43Z</time>
      </trkpt>
      <trkpt lat="44.16861" lon="5.30693">
        <ele>1437</ele>
        <time>2015-11-16T20:32:43Z</time>
      </trkpt>
      <trkpt lat="44.16869" lon="5.3069">
        <ele>1435</ele>
        <time>2015-11-16T20:34:43Z</time>
      </trkpt>
      <trkpt lat="44.16875" lon="5.30688">
        <ele>1434</ele>
        <time>2015-11-16T20:36:43Z</time>
      </trkpt>
      <trkpt lat="44.16883" lon="5.30686">
        <ele>1432</ele>
        <time>2015-11-16T20:38:43Z</time>
      </trkpt>
      <trkpt lat="44.16896" lon="5.30684">
        <ele>1429</ele>
        <time>2015-11-16T20:40:43Z</time>
      </trkpt>
      <trkpt lat="44.16911" lon="5.3068">
        <ele>1426</ele>
        <time>2015-11-16T20:42:43Z</time>
      </trkpt>
      <trkpt lat="44.16921" lon="5.30677">
        <ele>1425</ele>
        <time>2015-11-16T20:44:43Z</time>
      </trkpt>
      <trkpt lat="44.1693" lon="5.30673">
        <ele>1426</ele>
        <time>2015-11-16T20:46:43Z</time>
      </trkpt>
      <trkpt lat="44.16934" lon="5.30671">
        <ele>1427</ele>
        <time>2015-11-16T20:48:43Z</time>
      </trkpt>
      <trkpt lat="44.16938" lon="5.3067">
        <ele>1427</ele>
        <time>2015-11-16T20:50:43Z</time>
      </trkpt>
      <trkpt lat="44.1695" lon="5.30666">
        <ele>1427</ele>
        <time>2015-11-16T20:52:43Z</time>
      </trkpt>
      <trkpt lat="44.1697" lon="5.30663">
        <ele>1426</ele>
        <time>2015-11-16T20:54:43Z</time>
      </trkpt>
      <trkpt lat="44.16988" lon="5.3066">
        <ele>1425</ele>
        <time>2015-11-16T20:56:43Z</time>
      </trkpt>
      <trkpt lat="44.16992" lon="5.3066">
        <ele>1424</ele>
        <time>2015-11-16T20:58:43Z</time>
      </trkpt>
      <trkpt lat="44.16998" lon="5.30657">
        <ele>1424</ele>
        <time>2015-11-16T21:00:43Z</time>
      </trkpt>
      <trkpt lat="44.17001" lon="5.30655">
        <ele>1424</ele>
        <time>2015-11-16T21:02:43Z</time>
      </trkpt>
      <trkpt lat="44.17003" lon="5.30652">
        <ele>1424</ele>
        <time>2015-11-16T21:04:43Z</time>
      </trkpt>
      <trkpt lat="44.17005" lon="5.3065">
        <ele>1423</ele>
        <time>2015-11-16T21:06:43Z</time>
      </trkpt>
      <trkpt lat="44.17009" lon="5.30644">
        <ele>1422</ele>
        <time>2015-11-16T21:08:43Z</time>
      </trkpt>
      <trkpt lat="44.17011" lon="5.30641">
        <ele>1421</ele>
        <time>2015-11-16T21:10:43Z</time>
      </trkpt>
      <trkpt lat="44.17012" lon="5.30637">
        <ele>1422</ele>
        <time>2015-11-16T21:12:43Z</time>
      </trkpt>
      <trkpt lat="44.17013" lon="5.30633">
        <ele>1422</ele>
        <time>2015-11-16T21:14:43Z</time>
      </trkpt>
      <trkpt lat="44.17014" lon="5.30624">
        <ele>1424</ele>
        <time>2015-11-16T21:16:43Z</time>
      </trkpt>
      <trkpt lat="44.17015" lon="5.30615">
        <ele>1426</ele>
        <time>2015-11-16T21:18:43Z</time>
      </trkpt>
      <trkpt lat="44.17016" lon="5.30605">
        <ele>1429</ele>
        <time>2015-11-16T21:20:43Z</time>
      </trkpt>
      <trkpt lat="44.17016" lon="5.30589">
        <ele>1433</ele>
        <time>2015-11-16T21:22:43Z</time>
      </trkpt>
      <trkpt lat="44.17016" lon="5.30572">
        <ele>1437</ele>
        <time>2015-11-16T21:24:43Z</time>
      </trkpt>
      <trkpt lat="44.17015" lon="5.30566">
        <ele>1439</ele>
        <time>2015-11-16T21:26:43Z</time>
      </trkpt>
      <trkpt lat="44.17015" lon="5.30555">
        <ele>1440</ele>
        <time>2015-11-16T21:28:43Z</time>
      </trkpt>
      <trkpt lat="44.17015" lon="5.30532">
        <ele>1444</ele>
        <time>2015-11-16T21:30:43Z</time>
      </trkpt>
      <trkpt lat="44.17017" lon="5.30514">
        <ele>1445</ele>
        <time>2015-11-16T21:32:43Z</time>
      </trkpt>
      <trkpt lat="44.17018" lon="5.30508">
        <ele>1445</ele>
        <time>2015-11-16T21:34:43Z</time>
      </trkpt>
      <trkpt lat="44.1702" lon="5.30502">
        <ele>1445</ele>
        <time>2015-11-16T21:36:43Z</time>
      </trkpt>
      <trkpt lat="44.17022" lon="5.30497">
        <ele>1444</ele>
        <time>2015-11-16T21:38:43Z</time>
      </trkpt>
      <trkpt lat="44.17024" lon="5.30492">
        <ele>1444</ele>
        <time>2015-11-16T21:40:43Z</time>
      </trkpt>
      <trkpt lat="44.17027" lon="5.30487">
        <ele>1443</ele>
        <time>2015-11-16T21:42:43Z</time>
      </trkpt>
      <trkpt lat="44.1703" lon="5.30483">
        <ele>1442</ele>
        <time>2015-11-16T21:44:43Z</time>
      </trkpt>
      <trkpt lat="44.17037" lon="5.30475">
        <ele>1438</ele>
        <time>2015-11-16T21:46:43Z</time>
      </trkpt>
      <trkpt lat="44.17049" lon="5.30465">
        <ele>1432</ele>
        <time>2015-11-16T21:48:43Z</time>
      </trkpt>
      <trkpt lat="44.17058" lon="5.3046">
        <ele>1426</ele>
        <time>2015-11-16T21:50:43Z</time>
      </trkpt>
      <trkpt lat="44.17068" lon="5.30454">
        <ele>1420</ele>
        <time>2015-11-16T21:52:43Z</time>
      </trkpt>
      <trkpt lat="44.17071" lon="5.30452">
        <ele>1419</ele>
        <time>2015-11-16T21:54:43Z</time>
      </trkpt>
      <trkpt lat="44.17074" lon="5.30449">
        <ele>1417</ele>
        <time>2015-11-16T21:56:43Z</time>
      </trkpt>
      <trkpt lat="44.17079" lon="5.30443">
        <ele>1415</ele>
        <time>2015-11-16T21:58:43Z</time>
      </trkpt>
      <trkpt lat="44.17081" lon="5.30439">
        <ele>1415</ele>
        <time>2015-11-16T22:00:43Z</time>
      </trkpt>
      <trkpt lat="44.17083" lon="5.30432">
        <ele>1416</ele>
        <time>2015-11-16T22:02:43Z</time>
      </trkpt>
      <trkpt lat="44.17085" lon="5.30428">
        <ele>1416</ele>
        <time>2015-11-16T22:04:43Z</time>
      </trkpt>
      <trkpt lat="44.17086" lon="5.30419">
        <ele>1418</ele>
        <time>2015-11-16T22:06:43Z</time>
      </trkpt>
      <trkpt lat="44.17087" lon="5.30409">
        <ele>1421</ele>
        <time>2015-11-16T22:08:43Z</time>
      </trkpt>
      <trkpt lat="44.17088" lon="5.30394">
        <ele>1426</ele>
        <time>2015-11-16T22:10:43Z</time>
      </trkpt>
      <trkpt lat="44.17089" lon="5.30383">
        <ele>1430</ele>
        <time>2015-11-16T22:12:43Z</time>
      </trkpt>
      <trkpt lat="44.17091" lon="5.30377">
        <ele>1431</ele>
        <time>2015-11-16T22:14:43Z</time>
      </trkpt>
      <trkpt lat="44.17093" lon="5.30373">
        <ele>1432</ele>
        <time>2015-11-16T22:16:43Z</time>
      </trkpt>
      <trkpt lat="44.17095" lon="5.30369">
        <ele>1432</ele>
        <time>2015-11-16T22:18:43Z</time>
      </trkpt>
      <trkpt lat="44.17098" lon="5.30366">
        <ele>1432</ele>
        <time>2015-11-16T22:20:43Z</time>
      </trkpt>
      <trkpt lat="44.17105" lon="5.30361">
        <ele>1430</ele>
        <time>2015-11-16T22:22:43Z</time>
      </trkpt>
      <trkpt lat="44.17109" lon="5.30359">
        <ele>1429</ele>
        <time>2015-11-16T22:24:43Z</time>
      </trkpt>
      <trkpt lat="44.17117" lon="5.30357">
        <ele>1426</ele>
        <time>2015-11-16T22:26:43Z</time>
      </trkpt>
      <trkpt lat="44.17124" lon="5.30355">
        <ele>1423</ele>
        <time>2015-11-16T22:28:43Z</time>
      </trkpt>
      <trkpt lat="44.17126" lon="5.30354">
        <ele>1422</ele>
        <time>2015-11-16T22:30:43Z</time>
      </trkpt>
      <trkpt lat="44.17134" lon="5.30353">
        <ele>1418</ele>
        <time>2015-11-16T22:32:43Z</time>
      </trkpt>
      <trkpt lat="44.17136" lon="5.30352">
        <ele>1418</ele>
        <time>2015-11-16T22:34:43Z</time>
      </trkpt>
      <trkpt lat="44.17138" lon="5.30351">
        <ele>1417</ele>
        <time>2015-11-16T22:36:43Z</time>
      </trkpt>
      <trkpt lat="44.17146" lon="5.30349">
        <ele>1414</ele>
        <time>2015-11-16T22:38:43Z</time>
      </trkpt>
      <trkpt lat="44.17148" lon="5.30347">
        <ele>1413</ele>
        <time>2015-11-16T22:40:43Z</time>
      </trkpt>
      <trkpt lat="44.17151" lon="5.30344">
        <ele>1413</ele>
        <time>2015-11-16T22:42:43Z</time>
      </trkpt>
      <trkpt lat="44.17153" lon="5.30339">
        <ele>1413</ele>
        <time>2015-11-16T22:44:43Z</time>
      </trkpt>
      <trkpt lat="44.17154" lon="5.30335">
        <ele>1414</ele>
        <time>2015-11-16T22:46:43Z</time>
      </trkpt>
      <trkpt lat="44.17153" lon="5.30327">
        <ele>1417</ele>
        <time>2015-11-16T22:48:43Z</time>
      </trkpt>
      <trkpt lat="44.17152" lon="5.30318">
        <ele>1420</ele>
        <time>2015-11-16T22:50:43Z</time>
      </trkpt>
      <trkpt lat="44.1715" lon="5.30308">
        <ele>1424</ele>
        <time>2015-11-16T22:52:43Z</time>
      </trkpt>
      <trkpt lat="44.17148" lon="5.30298">
        <ele>1428</ele>
        <time>2015-11-16T22:54:43Z</time>
      </trkpt>
      <trkpt lat="44.17147" lon="5.30287">
        <ele>1432</ele>
        <time>2015-11-16T22:56:43Z</time>
      </trkpt>
      <trkpt lat="44.17147" lon="5.30275">
        <ele>1435</ele>
        <time>2015-11-16T22:58:43Z</time>
      </trkpt>
      <trkpt lat="44.17148" lon="5.30264">
        <ele>1438</ele>
        <time>2015-11-16T23:00:43Z</time>
      </trkpt>
      <trkpt lat="44.17151" lon="5.30255">
        <ele>1439</ele>
        <time>2015-11-16T23:02:43Z</time>
      </trkpt>
      <trkpt lat="44.17154" lon="5.30243">
        <ele>1438</ele>
        <time>2015-11-16T23:04:43Z</time>
      </trkpt>
      <trkpt lat="44.17157" lon="5.30238">
        <ele>1437</ele>
        <time>2015-11-16T23:06:43Z</time>
      </trkpt>
      <trkpt lat="44.17162" lon="5.30227">
        <ele>1434</ele>
        <time>2015-11-16T23:08:43Z</time>
      </trkpt>
      <trkpt lat="44.17174" lon="5.30206">
        <ele>1425</ele>
        <time>2015-11-16T23:10:43Z</time>
      </trkpt>
      <trkpt lat="44.1718" lon="5.30194">
        <ele>1419</ele>
        <time>2015-11-16T23:12:43Z</time>
      </trkpt>
      <trkpt lat="44.17182" lon="5.30187">
        <ele>1417</ele>
        <time>2015-11-16T23:14:43Z</time>
      </trkpt>
      <trkpt lat="44.17184" lon="5.30182">
        <ele>1416</ele>
        <time>2015-11-16T23:16:43Z</time>
      </trkpt>
      <trkpt lat="44.17187" lon="5.30173">
        <ele>1413</ele>
        <time>2015-11-16T23:18:43Z</time>
      </trkpt>
      <trkpt lat="44.17188" lon="5.30164">
        <ele>1411</ele>
        <time>2015-11-16T23:20:43Z</time>
      </trkpt>
      <trkpt lat="44.17188" lon="5.30155">
        <ele>1410</ele>
        <time>2015-11-16T23:22:43Z</time>
      </trkpt>
      <trkpt lat="44.17188" lon="5.30146">
        <ele>1409</ele>
        <time>2015-11-16T23:24:43Z</time>
      </trkpt>
      <trkpt lat="44.17186" lon="5.30138">
        <ele>1410</ele>
        <time>2015-11-16T23:26:43Z</time>
      </trkpt>
      <trkpt lat="44.17184" lon="5.3013">
        <ele>1411</ele>
        <time>2015-11-16T23:28:43Z</time>
      </trkpt>
      <trkpt lat="44.17183" lon="5.30126">
        <ele>1411</ele>
        <time>2015-11-16T23:30:43Z</time>
      </trkpt>
      <trkpt lat="44.17178" lon="5.30113">
        <ele>1414</ele>
        <time>2015-11-16T23:32:43Z</time>
      </trkpt>
      <trkpt lat="44.17175" lon="5.30105">
        <ele>1415</ele>
        <time>2015-11-16T23:34:43Z</time>
      </trkpt>
      <trkpt lat="44.17171" lon="5.30097">
        <ele>1417</ele>
        <time>2015-11-16T23:36:43Z</time>
      </trkpt>
      <trkpt lat="44.17169" lon="5.30092">
        <ele>1418</ele>
        <time>2015-11-16T23:38:43Z</time>
      </trkpt>
      <trkpt lat="44.17162" lon="5.30075">
        <ele>1424</ele>
        <time>2015-11-16T23:40:43Z</time>
      </trkpt>
      <trkpt lat="44.17155" lon="5.30056">
        <ele>1432</ele>
        <time>2015-11-16T23:42:43Z</time>
      </trkpt>
      <trkpt lat="44.17152" lon="5.30046">
        <ele>1436</ele>
        <time>2015-11-16T23:44:43Z</time>
      </trkpt>
      <trkpt lat="44.17151" lon="5.3004">
        <ele>1437</ele>
        <time>2015-11-16T23:46:43Z</time>
      </trkpt>
      <trkpt lat="44.17151" lon="5.30036">
        <ele>1438</ele>
        <time>2015-11-16T23:48:43Z</time>
      </trkpt>
      <trkpt lat="44.17152" lon="5.30033">
        <ele>1437</ele>
        <time>2015-11-16T23:50:43Z</time>
      </trkpt>
      <trkpt lat="44.17154" lon="5.3003">
        <ele>1436</ele>
        <time>2015-11-16T23:52:43Z</time>
      </trkpt>
      <trkpt lat="44.17156" lon="5.30028">
        <ele>1434</ele>
        <time>2015-11-16T23:54:43Z</time>
      </trkpt>
      <trkpt lat="44.17163" lon="5.30025">
        <ele>1429</ele>
        <time>2015-11-16T23:56:43Z</time>
      </trkpt>
      <trkpt lat="44.17167" lon="5.30024">
        <ele>1426</ele>
        <time>2015-11-16T23:58:43Z</time>
      </trkpt>
      <trkpt lat="44.17182" lon="5.30023">
        <ele>1415</ele>
        <time>2015-11-17T00:00:43Z</time>
      </trkpt>
      <trkpt lat="44.17184" lon="5.30023">
        <ele>1414</ele>
        <time>2015-11-17T00:02:43Z</time>
      </trkpt>
      <trkpt lat="44.17201" lon="5.30022">
        <ele>1401</ele>
        <time>2015-11-17T00:04:43Z</time>
      </trkpt>
      <trkpt lat="44.17206" lon="5.30021">
        <ele>1398</ele>
        <time>2015-11-17T00:06:43Z</time>
      </trkpt>
      <trkpt lat="44.17209" lon="5.30019">
        <ele>1396</ele>
        <time>2015-11-17T00:08:43Z</time>
      </trkpt>
      <trkpt lat="44.17212" lon="5.30017">
        <ele>1394</ele>
        <time>2015-11-17T00:10:43Z</time>
      </trkpt>
      <trkpt lat="44.17213" lon="5.30014">
        <ele>1394</ele>
        <time>2015-11-17T00:12:43Z</time>
      </trkpt>
      <trkpt lat="44.17213" lon="5.3001">
        <ele>1395</ele>
        <time>2015-11-17T00:14:43Z</time>
      </trkpt>
      <trkpt lat="44.17212" lon="5.30006">
        <ele>1396</ele>
        <time>2015-11-17T00:16:43Z</time>
      </trkpt>
      <trkpt lat="44.1721" lon="5.30001">
        <ele>1399</ele>
        <time>2015-11-17T00:18:43Z</time>
      </trkpt>
      <trkpt lat="44.17206" lon="5.29996">
        <ele>1403</ele>
        <time>2015-11-17T00:20:43Z</time>
      </trkpt>
      <trkpt lat="44.17199" lon="5.29985">
        <ele>1411</ele>
        <time>2015-11-17T00:22:43Z</time>
      </trkpt>
      <trkpt lat="44.17192" lon="5.29976">
        <ele>1418</ele>
        <time>2015-11-17T00:24:43Z</time>
      </trkpt>
      <trkpt lat="44.1719" lon="5.29973">
        <ele>1421</ele>
        <time>2015-11-17T00:26:43Z</time>
      </trkpt>
      <trkpt lat="44.17181" lon="5.2996">
        <ele>1429</ele>
        <time>2015-11-17T00:28:43Z</time>
      </trkpt>
      <trkpt lat="44.17177" lon="5.29954">
        <ele>1433</ele>
        <time>2015-11-17T00:30:43Z</time>
      </trkpt>
      <trkpt lat="44.17174" lon="5.29948">
        <ele>1436</ele>
        <time>2015-11-17T00:32:43Z</time>
      </trkpt>
      <trkpt lat="44.17171" lon="5.29942">
        <ele>1439</ele>
        <time>2015-11-17T00:34:43Z</time>
      </trkpt>
      <trkpt lat="44.17169" lon="5.29936">
        <ele>1441</ele>
        <time>2015-11-17T00:36:43Z</time>
      </trkpt>
      <trkpt lat="44.17168" lon="5.29932">
        <ele>1442</ele>
        <time>2015-11-17T00:38:43Z</time>
      </trkpt>
      <trkpt lat="44.17169" lon="5.29928">
        <ele>1443</ele>
        <time>2015-11-17T00:40:43Z</time>
      </trkpt>
      <trkpt lat="44.17171" lon="5.29925">
        <ele>1442</ele>
        <time>2015-11-17T00:42:43Z</time>
      </trkpt>
      <trkpt lat="44.17174" lon="5.29923">
        <ele>1442</ele>
        <time>2015-11-17T00:44:43Z</time>
      </trkpt>
      <trkpt lat="44.17178" lon="5.2992">
        <ele>1441</ele>
        <time>2015-11-17T00:46:43Z</time>
      </trkpt>
      <trkpt lat="44.17185" lon="5.29919">
        <ele>1438</ele>
        <time>2015-11-17T00:48:43Z</time>
      </trkpt>
      <trkpt lat="44.17193" lon="5.29918">
        <ele>1435</ele>
        <time>2015-11-17T00:50:43Z</time>
      </trkpt>
      <trkpt lat="44.17209" lon="5.29917">
        <ele>1429</ele>
        <time>2015-11-17T00:52:43Z</time>
      </trkpt>
      <trkpt lat="44.17218" lon="5.29918">
        <ele>1425</ele>
        <time>2015-11-17T00:54:43Z</time>
      </trkpt>
      <trkpt lat="44.17221" lon="5.29918">
        <ele>1424</ele>
        <time>2015-11-17T00:56:43Z</time>
      </trkpt>
      <trkpt lat="44.17227" lon="5.29918">
        <ele>1422</ele>
        <time>2015-11-17T00:58:43Z</time>
      </trkpt>
      <trkpt lat="44.17233" lon="5.29917">
        <ele>1420</ele>
        <time>2015-11-17T01:00:43Z</time>
      </trkpt>
      <trkpt lat="44.17236" lon="5.29917">
        <ele>1418</ele>
        <time>2015-11-17T01:02:43Z</time>
      </trkpt>
      <trkpt lat="44.17243" lon="5.29916">
        <ele>1416</ele>
        <time>2015-11-17T01:04:43Z</time>
      </trkpt>
      <trkpt lat="44.17249" lon="5.29914">
        <ele>1415</ele>
        <time>2015-11-17T01:06:43Z</time>
      </trkpt>
      <trkpt lat="44.17253" lon="5.29912">
        <ele>1414</ele>
        <time>2015-11-17T01:08:43Z</time>
      </trkpt>
      <trkpt lat="44.17261" lon="5.29907">
        <ele>1412</ele>
        <time>2015-11-17T01:10:43Z</time>
      </trkpt>
      <trkpt lat="44.17267" lon="5.29901">
        <ele>1412</ele>
        <time>2015-11-17T01:12:43Z</time>
      </trkpt>
      <trkpt lat="44.1728" lon="5.29886">
        <ele>1412</ele>
        <time>2015-11-17T01:14:43Z</time>
      </trkpt>
      <trkpt lat="44.17284" lon="5.29882">
        <ele>1411</ele>
        <time>2015-11-17T01:16:43Z</time>
      </trkpt>
      <trkpt lat="44.17295" lon="5.29869">
        <ele>1410</ele>
        <time>2015-11-17T01:18:43Z</time>
      </trkpt>
      <trkpt lat="44.17299" lon="5.29864">
        <ele>1410</ele>
        <time>2015-11-17T01:20:43Z</time>
      </trkpt>
      <trkpt lat="44.17302" lon="5.29859">
        <ele>1410</ele>
        <time>2015-11-17T01:22:43Z</time>
      </trkpt>
      <trkpt lat="44.17304" lon="5.29854">
        <ele>1410</ele>
        <time>2015-11-17T01:24:43Z</time>
      </trkpt>
      <trkpt lat="44.17305" lon="5.29848">
        <ele>1412</ele>
        <time>2015-11-17T01:26:43Z</time>
      </trkpt>
      <trkpt lat="44.17305" lon="5.29842">
        <ele>1414</ele>
        <time>2015-11-17T01:28:43Z</time>
      </trkpt>
      <trkpt lat="44.17303" lon="5.29832">
        <ele>1419</ele>
        <time>2015-11-17T01:30:43Z</time>
      </trkpt>
      <trkpt lat="44.17299" lon="5.29819">
        <ele>1427</ele>
        <time>2015-11-17T01:32:43Z</time>
      </trkpt>
      <trkpt lat="44.17298" lon="5.29815">
        <ele>1429</ele>
        <time>2015-11-17T01:34:43Z</time>
      </trkpt>
      <trkpt lat="44.1729" lon="5.29798">
        <ele>1441</ele>
        <time>2015-11-17T01:36:43Z</time>
      </trkpt>
      <trkpt lat="44.17278" lon="5.29774">
        <ele>1458</ele>
        <time>2015-11-17T01:38:43Z</time>
      </trkpt>
      <trkpt lat="44.17274" lon="5.29764">
        <ele>1464</ele>
        <time>2015-11-17T01:40:43Z</time>
      </trkpt>
      <trkpt lat="44.17273" lon="5.2976">
        <ele>1466</ele>
        <time>2015-11-17T01:42:43Z</time>
      </trkpt>
      <trkpt lat="44.17273" lon="5.29757">
        <ele>1467</ele>
        <time>2015-11-17T01:44:43Z</time>
      </trkpt>
      <trkpt lat="44.17274" lon="5.29754">
        <ele>1468</ele>
        <time>2015-11-17T01:46:43Z</time>
      </trkpt>
      <trkpt lat="44.17277" lon="5.29748">
        <ele>1468</ele>
        <time>2015-11-17T01:48:43Z</time>
      </trkpt>
      <trkpt lat="44.17279" lon="5.29745">
        <ele>1468</ele>
        <time>2015-11-17T01:50:43Z</time>
      </trkpt>
      <trkpt lat="44.17285" lon="5.2974">
        <ele>1466</ele>
        <time>2015-11-17T01:52:43Z</time>
      </trkpt>
      <trkpt lat="44.17288" lon="5.29738">
        <ele>1464</ele>
        <time>2015-11-17T01:54:43Z</time>
      </trkpt>
      <trkpt lat="44.17299" lon="5.29733">
        <ele>1459</ele>
        <time>2015-11-17T01:56:43Z</time>
      </trkpt>
      <trkpt lat="44.17309" lon="5.2973">
        <ele>1454</ele>
        <time>2015-11-17T01:58:43Z</time>
      </trkpt>
      <trkpt lat="44.17315" lon="5.29727">
        <ele>1452</ele>
        <time>2015-11-17T02:00:43Z</time>
      </trkpt>
      <trkpt lat="44.1732" lon="5.29722">
        <ele>1451</ele>
        <time>2015-11-17T02:02:43Z</time>
      </trkpt>
      <trkpt lat="44.17322" lon="5.2972">
        <ele>1451</ele>
        <time>2015-11-17T02:04:43Z</time>
      </trkpt>
      <trkpt lat="44.17323" lon="5.29716">
        <ele>1452</ele>
        <time>2015-11-17T02:06:43Z</time>
      </trkpt>
      <trkpt lat="44.17326" lon="5.29709">
        <ele>1453</ele>
        <time>2015-11-17T02:08:43Z</time>
      </trkpt>
      <trkpt lat="44.17327" lon="5.29705">
        <ele>1454</ele>
        <time>2015-11-17T02:10:43Z</time>
      </trkpt>
      <trkpt lat="44.17331" lon="5.29682">
        <ele>1462</ele>
        <time>2015-11-17T02:12:43Z</time>
      </trkpt>
      <trkpt lat="44.17332" lon="5.29677">
        <ele>1464</ele>
        <time>2015-11-17T02:14:43Z</time>
      </trkpt>
      <trkpt lat="44.17334" lon="5.29668">
        <ele>1467</ele>
        <time>2015-11-17T02:16:43Z</time>
      </trkpt>
      <trkpt lat="44.17335" lon="5.29664">
        <ele>1469</ele>
        <time>2015-11-17T02:18:43Z</time>
      </trkpt>
      <trkpt lat="44.17337" lon="5.2966">
        <ele>1471</ele>
        <time>2015-11-17T02:20:43Z</time>
      </trkpt>
      <trkpt lat="44.17339" lon="5.29657">
        <ele>1472</ele>
        <time>2015-11-17T02:22:43Z</time>
      </trkpt>
      <trkpt lat="44.17343" lon="5.29653">
        <ele>1474</ele>
        <time>2015-11-17T02:24:43Z</time>
      </trkpt>
      <trkpt lat="44.17345" lon="5.2965">
        <ele>1475</ele>
        <time>2015-11-17T02:26:43Z</time>
      </trkpt>
      <trkpt lat="44.17348" lon="5.29649">
        <ele>1475</ele>
        <time>2015-11-17T02:28:43Z</time>
      </trkpt>
      <trkpt lat="44.17353" lon="5.29647">
        <ele>1476</ele>
        <time>2015-11-17T02:30:43Z</time>
      </trkpt>
      <trkpt lat="44.17359" lon="5.29647">
        <ele>1475</ele>
        <time>2015-11-17T02:32:43Z</time>
      </trkpt>
      <trkpt lat="44.17365" lon="5.29647">
        <ele>1474</ele>
        <time>2015-11-17T02:34:43Z</time>
      </trkpt>
      <trkpt lat="44.17375" lon="5.29649">
        <ele>1472</ele>
        <time>2015-11-17T02:36:43Z</time>
      </trkpt>
      <trkpt lat="44.17382" lon="5.29651">
        <ele>1470</ele>
        <time>2015-11-17T02:38:43Z</time>
      </trkpt>
      <trkpt lat="44.17397" lon="5.29656">
        <ele>1465</ele>
        <time>2015-11-17T02:40:43Z</time>
      </trkpt>
      <trkpt lat="44.17416" lon="5.29662">
        <ele>1459</ele>
        <time>2015-11-17T02:42:43Z</time>
      </trkpt>
      <trkpt lat="44.17427" lon="5.29665">
        <ele>1454</ele>
        <time>2015-11-17T02:44:43Z</time>
      </trkpt>
      <trkpt lat="44.17431" lon="5.29665">
        <ele>1453</ele>
        <time>2015-11-17T02:46:43Z</time>
      </trkpt>
      <trkpt lat="44.1744" lon="5.29665">
        <ele>1451</ele>
        <time>2015-11-17T02:48:43Z</time>
      </trkpt>
      <trkpt lat="44.17448" lon="5.29663">
        <ele>1450</ele>
        <time>2015-11-17T02:50:43Z</time>
      </trkpt>
      <trkpt lat="44.17451" lon="5.29662">
        <ele>1450</ele>
        <time>2015-11-17T02:52:43Z</time>
      </trkpt>
      <trkpt lat="44.17455" lon="5.2966">
        <ele>1450</ele>
        <time>2015-11-17T02:54:43Z</time>
      </trkpt>
      <trkpt lat="44.17458" lon="5.29657">
        <ele>1450</ele>
        <time>2015-11-17T02:56:43Z</time>
      </trkpt>
      <trkpt lat="44.17464" lon="5.29652">
        <ele>1451</ele>
        <time>2015-11-17T02:58:43Z</time>
      </trkpt>
      <trkpt lat="44.17469" lon="5.29645">
        <ele>1453</ele>
        <time>2015-11-17T03:00:43Z</time>
      </trkpt>
      <trkpt lat="44.17472" lon="5.29642">
        <ele>1454</ele>
        <time>2015-11-17T03:02:43Z</time>
      </trkpt>
      <trkpt lat="44.17479" lon="5.29629">
        <ele>1457</ele>
        <time>2015-11-17T03:04:43Z</time>
      </trkpt>
      <trkpt lat="44.1749" lon="5.29605">
        <ele>1463</ele>
        <time>2015-11-17T03:06:43Z</time>
      </trkpt>
      <trkpt lat="44.17496" lon="5.29589">
        <ele>1468</ele>
        <time>2015-11-17T03:08:43Z</time>
      </trkpt>
      <trkpt lat="44.17502" lon="5.29572">
        <ele>1472</ele>
        <time>2015-11-17T03:10:43Z</time>
      </trkpt>
      <trkpt lat="44.17509" lon="5.29556">
        <ele>1474</ele>
        <time>2015-11-17T03:12:43Z</time>
      </trkpt>
      <trkpt lat="44.17514" lon="5.29545">
        <ele>1476</ele>
        <time>2015-11-17T03:14:43Z</time>
      </trkpt>
      <trkpt lat="44.17517" lon="5.2954">
        <ele>1476</ele>
        <time>2015-11-17T03:16:43Z</time>
      </trkpt>
      <trkpt lat="44.17523" lon="5.29529">
        <ele>1476</ele>
        <time>2015-11-17T03:18:43Z</time>
      </trkpt>
      <trkpt lat="44.17527" lon="5.29519">
        <ele>1478</ele>
        <time>2015-11-17T03:20:43Z</time>
      </trkpt>
      <trkpt lat="44.17528" lon="5.29513">
        <ele>1479</ele>
        <time>2015-11-17T03:22:43Z</time>
      </trkpt>
      <trkpt lat="44.17529" lon="5.29504">
        <ele>1482</ele>
        <time>2015-11-17T03:24:43Z</time>
      </trkpt>
      <trkpt lat="44.1753" lon="5.29498">
        <ele>1484</ele>
        <time>2015-11-17T03:26:43Z</time>
      </trkpt>
      <trkpt lat="44.17529" lon="5.29489">
        <ele>1487</ele>
        <time>2015-11-17T03:28:43Z</time>
      </trkpt>
      <trkpt lat="44.1753" lon="5.2948">
        <ele>1490</ele>
        <time>2015-11-17T03:30:43Z</time>
      </trkpt>
      <trkpt lat="44.17531" lon="5.29472">
        <ele>1492</ele>
        <time>2015-11-17T03:32:43Z</time>
      </trkpt>
      <trkpt lat="44.17532" lon="5.29468">
        <ele>1492</ele>
        <time>2015-11-17T03:34:43Z</time>
      </trkpt>
      <trkpt lat="44.17536" lon="5.2946">
        <ele>1492</ele>
        <time>2015-11-17T03:36:43Z</time>
      </trkpt>
      <trkpt lat="44.17537" lon="5.29457">
        <ele>1492</ele>
        <time>2015-11-17T03:38:43Z</time>
      </trkpt>
      <trkpt lat="44.17542" lon="5.29451">
        <ele>1490</ele>
        <time>2015-11-17T03:40:43Z</time>
      </trkpt>
      <trkpt lat="44.17544" lon="5.29448">
        <ele>1490</ele>
        <time>2015-11-17T03:42:43Z</time>
      </trkpt>
      <trkpt lat="44.17553" lon="5.2944">
        <ele>1485</ele>
        <time>2015-11-17T03:44:43Z</time>
      </trkpt>
      <trkpt lat="44.17556" lon="5.29437">
        <ele>1484</ele>
        <time>2015-11-17T03:46:43Z</time>
      </trkpt>
      <trkpt lat="44.17558" lon="5.29435">
        <ele>1483</ele>
        <time>2015-11-17T03:48:43Z</time>
      </trkpt>
      <trkpt lat="44.1756" lon="5.29432">
        <ele>1482</ele>
        <time>2015-11-17T03:50:43Z</time>
      </trkpt>
      <trkpt lat="44.17563" lon="5.29427">
        <ele>1481</ele>
        <time>2015-11-17T03:52:43Z</time>
      </trkpt>
      <trkpt lat="44.17564" lon="5.29423">
        <ele>1482</ele>
        <time>2015-11-17T03:54:43Z</time>
      </trkpt>
      <trkpt lat="44.17565" lon="5.29416">
        <ele>1483</ele>
        <time>2015-11-17T03:56:43Z</time>
      </trkpt>
      <trkpt lat="44.17566" lon="5.29413">
        <ele>1483</ele>
        <time>2015-11-17T03:58:43Z</time>
      </trkpt>
      <trkpt lat="44.17565" lon="5.29388">
        <ele>1488</ele>
        <time>2015-11-17T04:00:43Z</time>
      </trkpt>
      <trkpt lat="44.17565" lon="5.29384">
        <ele>1488</ele>
        <time>2015-11-17T04:02:43Z</time>
      </trkpt>
      <trkpt lat="44.17567" lon="5.29347">
        <ele>1493</ele>
        <time>2015-11-17T04:04:43Z</time>
      </trkpt>
      <trkpt lat="44.17568" lon="5.29342">
        <ele>1493</ele>
        <time>2015-11-17T04:06:43Z</time>
      </trkpt>
      <trkpt lat="44.17568" lon="5.29328">
        <ele>1496</ele>
        <time>2015-11-17T04:08:43Z</time>
      </trkpt>
      <trkpt lat="44.17569" lon="5.29324">
        <ele>1495</ele>
        <time>2015-11-17T04:10:43Z</time>
      </trkpt>
      <trkpt lat="44.17569" lon="5.29315">
        <ele>1497</ele>
        <time>2015-11-17T04:12:43Z</time>
      </trkpt>
      <trkpt lat="44.1757" lon="5.29302">
        <ele>1499</ele>
        <time>2015-11-17T04:14:43Z</time>
      </trkpt>
      <trkpt lat="44.1757" lon="5.29293">
        <ele>1500</ele>
        <time>2015-11-17T04:16:43Z</time>
      </trkpt>
      <trkpt lat="44.17571" lon="5.2928">
        <ele>1502</ele>
        <time>2015-11-17T04:18:43Z</time>
      </trkpt>
      <trkpt lat="44.17571" lon="5.2927">
        <ele>1504</ele>
        <time>2015-11-17T04:20:43Z</time>
      </trkpt>
      <trkpt lat="44.17572" lon="5.29266">
        <ele>1504</ele>
        <time>2015-11-17T04:22:43Z</time>
      </trkpt>
      <trkpt lat="44.17573" lon="5.29246">
        <ele>1507</ele>
        <time>2015-11-17T04:24:43Z</time>
      </trkpt>
      <trkpt lat="44.17573" lon="5.29241">
        <ele>1509</ele>
        <time>2015-11-17T04:26:43Z</time>
      </trkpt>
      <trkpt lat="44.17574" lon="5.2923">
        <ele>1511</ele>
        <time>2015-11-17T04:28:43Z</time>
      </trkpt>
      <trkpt lat="44.17575" lon="5.29217">
        <ele>1514</ele>
        <time>2015-11-17T04:30:43Z</time>
      </trkpt>
      <trkpt lat="44.17576" lon="5.29213">
        <ele>1515</ele>
        <time>2015-11-17T04:32:43Z</time>
      </trkpt>
      <trkpt lat="44.17578" lon="5.29207">
        <ele>1515</ele>
        <time>2015-11-17T04:34:43Z</time>
      </trkpt>
      <trkpt lat="44.17579" lon="5.29204">
        <ele>1515</ele>
        <time>2015-11-17T04:36:43Z</time>
      </trkpt>
      <trkpt lat="44.17582" lon="5.29198">
        <ele>1515</ele>
        <time>2015-11-17T04:38:43Z</time>
      </trkpt>
      <trkpt lat="44.17585" lon="5.29193">
        <ele>1515</ele>
        <time>2015-11-17T04:40:43Z</time>
      </trkpt>
      <trkpt lat="44.1759" lon="5.2919">
        <ele>1514</ele>
        <time>2015-11-17T04:42:43Z</time>
      </trkpt>
      <trkpt lat="44.17592" lon="5.29188">
        <ele>1513</ele>
        <time>2015-11-17T04:44:43Z</time>
      </trkpt>
      <trkpt lat="44.17597" lon="5.29187">
        <ele>1511</ele>
        <time>2015-11-17T04:46:43Z</time>
      </trkpt>
      <trkpt lat="44.17612" lon="5.29185">
        <ele>1505</ele>
        <time>2015-11-17T04:48:43Z</time>
      </trkpt>
      <trkpt lat="44.17631" lon="5.29182">
        <ele>1497</ele>
        <time>2015-11-17T04:50:43Z</time>
      </trkpt>
      <trkpt lat="44.17638" lon="5.2918">
        <ele>1494</ele>
        <time>2015-11-17T04:52:43Z</time>
      </trkpt>
      <trkpt lat="44.17655" lon="5.29174">
        <ele>1489</ele>
        <time>2015-11-17T04:54:43Z</time>
      </trkpt>
      <trkpt lat="44.17657" lon="5.29173">
        <ele>1489</ele>
        <time>2015-11-17T04:56:43Z</time>
      </trkpt>
      <trkpt lat="44.17662" lon="5.29171">
        <ele>1488</ele>
        <time>2015-11-17T04:58:43Z</time>
      </trkpt>
      <trkpt lat="44.17665" lon="5.2917">
        <ele>1487</ele>
        <time>2015-11-17T05:00:43Z</time>
      </trkpt>
      <trkpt lat="44.17667" lon="5.29169">
        <ele>1487</ele>
        <time>2015-11-17T05:02:43Z</time>
      </trkpt>
      <trkpt lat="44.17675" lon="5.29166">
        <ele>1485</ele>
        <time>2015-11-17T05:04:43Z</time>
      </trkpt>
      <trkpt lat="44.17685" lon="5.29163">
        <ele>1483</ele>
        <time>2015-11-17T05:06:43Z</time>
      </trkpt>
      <trkpt lat="44.177" lon="5.29156">
        <ele>1481</ele>
        <time>2015-11-17T05:08:43Z</time>
      </trkpt>
      <trkpt lat="44.17703" lon="5.29154">
        <ele>1481</ele>
        <time>2015-11-17T05:10:43Z</time>
      </trkpt>
      <trkpt lat="44.17713" lon="5.29149">
        <ele>1479</ele>
        <time>2015-11-17T05:12:43Z</time>
      </trkpt>
      <trkpt lat="44.17722" lon="5.29141">
        <ele>1478</ele>
        <time>2015-11-17T05:14:43Z</time>
      </trkpt>
      <trkpt lat="44.17728" lon="5.29136">
        <ele>1478</ele>
        <time>2015-11-17T05:16:43Z</time>
      </trkpt>
      <trkpt lat="44.17738" lon="5.29126">
        <ele>1477</ele>
        <time>2015-11-17T05:18:43Z</time>
      </trkpt>
      <trkpt lat="44.17745" lon="5.29118">
        <ele>1477</ele>
        <time>2015-11-17T05:20:43Z</time>
      </trkpt>
      <trkpt lat="44.17748" lon="5.29114">
        <ele>1477</ele>
        <time>2015-11-17T05:22:43Z</time>
      </trkpt>
      <trkpt lat="44.1775" lon="5.2911">
        <ele>1477</ele>
        <time>2015-11-17T05:24:43Z</time>
      </trkpt>
      <trkpt lat="44.17755" lon="5.29101">
        <ele>1475</ele>
        <time>2015-11-17T05:26:43Z</time>
      </trkpt>
      <trkpt lat="44.17756" lon="5.29097">
        <ele>1475</ele>
        <time>2015-11-17T05:28:43Z</time>
      </trkpt>
      <trkpt lat="44.17759" lon="5.29088">
        <ele>1474</ele>
        <time>2015-11-17T05:30:43Z</time>
      </trkpt>
      <trkpt lat="44.1776" lon="5.29083">
        <ele>1474</ele>
        <time>2015-11-17T05:32:43Z</time>
      </trkpt>
      <trkpt lat="44.17762" lon="5.29073">
        <ele>1473</ele>
        <time>2015-11-17T05:34:43Z</time>
      </trkpt>
      <trkpt lat="44.17762" lon="5.29063">
        <ele>1473</ele>
        <time>2015-11-17T05:36:43Z</time>
      </trkpt>
      <trkpt lat="44.17763" lon="5.29053">
        <ele>1472</ele>
        <time>2015-11-17T05:38:43Z</time>
      </trkpt>
      <trkpt lat="44.17763" lon="5.29009">
        <ele>1473</ele>
        <time>2015-11-17T05:40:43Z</time>
      </trkpt>
      <trkpt lat="44.17763" lon="5.28997">
        <ele>1473</ele>
        <time>2015-11-17T05:42:43Z</time>
      </trkpt>
      <trkpt lat="44.17764" lon="5.28985">
        <ele>1471</ele>
        <time>2015-11-17T05:44:43Z</time>
      </trkpt>
      <trkpt lat="44.17765" lon="5.28973">
        <ele>1469</ele>
        <time>2015-11-17T05:46:43Z</time>
      </trkpt>
      <trkpt lat="44.17766" lon="5.28966">
        <ele>1467</ele>
        <time>2015-11-17T05:48:43Z</time>
      </trkpt>
      <trkpt lat="44.17767" lon="5.28961">
        <ele>1465</ele>
        <time>2015-11-17T05:50:43Z</time>
      </trkpt>
      <trkpt lat="44.17767" lon="5.28957">
        <ele>1465</ele>
        <time>2015-11-17T05:52:43Z</time>
      </trkpt>
      <trkpt lat="44.17768" lon="5.28947">
        <ele>1463</ele>
        <time>2015-11-17T05:54:43Z</time>
      </trkpt>
      <trkpt lat="44.17768" lon="5.28935">
        <ele>1462</ele>
        <time>2015-11-17T05:56:43Z</time>
      </trkpt>
      <trkpt lat="44.17767" lon="5.28929">
        <ele>1463</ele>
        <time>2015-11-17T05:58:43Z</time>
      </trkpt>
      <trkpt lat="44.17764" lon="5.28918">
        <ele>1465</ele>
        <time>2015-11-17T06:00:43Z</time>
      </trkpt>
      <trkpt lat="44.17761" lon="5.28907">
        <ele>1466</ele>
        <time>2015-11-17T06:02:43Z</time>
      </trkpt>
      <trkpt lat="44.17752" lon="5.28886">
        <ele>1470</ele>
        <time>2015-11-17T06:04:43Z</time>
      </trkpt>
      <trkpt lat="44.17748" lon="5.28873">
        <ele>1471</ele>
        <time>2015-11-17T06:06:43Z</time>
      </trkpt>
      <trkpt lat="44.17745" lon="5.28862">
        <ele>1472</ele>
        <time>2015-11-17T06:08:43Z</time>
      </trkpt>
      <trkpt lat="44.17743" lon="5.28851">
        <ele>1471</ele>
        <time>2015-11-17T06:10:43Z</time>
      </trkpt>
      <trkpt lat="44.17743" lon="5.28844">
        <ele>1470</ele>
        <time>2015-11-17T06:12:43Z</time>
      </trkpt>
      <trkpt lat="44.17743" lon="5.28833">
        <ele>1468</ele>
        <time>2015-11-17T06:14:43Z</time>
      </trkpt>
      <trkpt lat="44.17744" lon="5.28823">
        <ele>1468</ele>
        <time>2015-11-17T06:16:43Z</time>
      </trkpt>
      <trkpt lat="44.17745" lon="5.2882">
        <ele>1467</ele>
        <time>2015-11-17T06:18:43Z</time>
      </trkpt>
      <trkpt lat="44.17746" lon="5.28817">
        <ele>1467</ele>
        <time>2015-11-17T06:20:43Z</time>
      </trkpt>
      <trkpt lat="44.17747" lon="5.28814">
        <ele>1466</ele>
        <time>2015-11-17T06:22:43Z</time>
      </trkpt>
      <trkpt lat="44.17747" lon="5.2881">
        <ele>1467</ele>
        <time>2015-11-17T06:24:43Z</time>
      </trkpt>
      <trkpt lat="44.1775" lon="5.28801">
        <ele>1465</ele>
        <time>2015-11-17T06:26:43Z</time>
      </trkpt>
      <trkpt lat="44.17753" lon="5.28794">
        <ele>1464</ele>
        <time>2015-11-17T06:28:43Z</time>
      </trkpt>
      <trkpt lat="44.17754" lon="5.28791">
        <ele>1464</ele>
        <time>2015-11-17T06:30:43Z</time>
      </trkpt>
      <trkpt lat="44.17757" lon="5.28781">
        <ele>1463</ele>
        <time>2015-11-17T06:32:43Z</time>
      </trkpt>
      <trkpt lat="44.17759" lon="5.28777">
        <ele>1463</ele>
        <time>2015-11-17T06:34:43Z</time>
      </trkpt>
      <trkpt lat="44.17762" lon="5.28766">
        <ele>1463</ele>
        <time>2015-11-17T06:36:43Z</time>
      </trkpt>
      <trkpt lat="44.17767" lon="5.28748">
        <ele>1464</ele>
        <time>2015-11-17T06:38:43Z</time>
      </trkpt>
      <trkpt lat="44.1777" lon="5.28744">
        <ele>1464</ele>
        <time>2015-11-17T06:40:43Z</time>
      </trkpt>
      <trkpt lat="44.17773" lon="5.2874">
        <ele>1465</ele>
        <time>2015-11-17T06:42:43Z</time>
      </trkpt>
      <trkpt lat="44.17776" lon="5.28737">
        <ele>1465</ele>
        <time>2015-11-17T06:44:43Z</time>
      </trkpt>
      <trkpt lat="44.17779" lon="5.28735">
        <ele>1465</ele>
        <time>2015-11-17T06:46:43Z</time>
      </trkpt>
      <trkpt lat="44.17782" lon="5.28733">
        <ele>1465</ele>
        <time>2015-11-17T06:48:43Z</time>
      </trkpt>
      <trkpt lat="44.17791" lon="5.28731">
        <ele>1462</ele>
        <time>2015-11-17T06:50:43Z</time>
      </trkpt>
      <trkpt lat="44.17799" lon="5.2873">
        <ele>1460</ele>
        <time>2015-11-17T06:52:43Z</time>
      </trkpt>
      <trkpt lat="44.17811" lon="5.2873">
        <ele>1455</ele>
        <time>2015-11-17T06:54:43Z</time>
      </trkpt>
      <trkpt lat="44.17813" lon="5.28729">
        <ele>1455</ele>
        <time>2015-11-17T06:56:43Z</time>
      </trkpt>
      <trkpt lat="44.17818" lon="5.28729">
        <ele>1453</ele>
        <time>2015-11-17T06:58:43Z</time>
      </trkpt>
      <trkpt lat="44.17828" lon="5.28726">
        <ele>1452</ele>
        <time>2015-11-17T07:00:43Z</time>
      </trkpt>
      <trkpt lat="44.17834" lon="5.28723">
        <ele>1452</ele>
        <time>2015-11-17T07:02:43Z</time>
      </trkpt>
      <trkpt lat="44.17853" lon="5.28715">
        <ele>1452</ele>
        <time>2015-11-17T07:04:43Z</time>
      </trkpt>
      <trkpt lat="44.17866" lon="5.28711">
        <ele>1451</ele>
        <time>2015-11-17T07:06:43Z</time>
      </trkpt>
      <trkpt lat="44.1787" lon="5.28708">
        <ele>1452</ele>
        <time>2015-11-17T07:08:43Z</time>
      </trkpt>
      <trkpt lat="44.17873" lon="5.28707">
        <ele>1451</ele>
        <time>2015-11-17T07:10:43Z</time>
      </trkpt>
      <trkpt lat="44.17888" lon="5.287">
        <ele>1452</ele>
        <time>2015-11-17T07:12:43Z</time>
      </trkpt>
      <trkpt lat="44.17901" lon="5.28693">
        <ele>1453</ele>
        <time>2015-11-17T07:14:43Z</time>
      </trkpt>
      <trkpt lat="44.17916" lon="5.28684">
        <ele>1455</ele>
        <time>2015-11-17T07:16:43Z</time>
      </trkpt>
      <trkpt lat="44.1792" lon="5.28683">
        <ele>1455</ele>
        <time>2015-11-17T07:18:43Z</time>
      </trkpt>
      <trkpt lat="44.17927" lon="5.28681">
        <ele>1455</ele>
        <time>2015-11-17T07:20:43Z</time>
      </trkpt>
      <trkpt lat="44.17931" lon="5.2868">
        <ele>1455</ele>
        <time>2015-11-17T07:22:43Z</time>
      </trkpt>
      <trkpt lat="44.17937" lon="5.28681">
        <ele>1453</ele>
        <time>2015-11-17T07:24:43Z</time>
      </trkpt>
      <trkpt lat="44.17944" lon="5.28682">
        <ele>1451</ele>
        <time>2015-11-17T07:26:43Z</time>
      </trkpt>
      <trkpt lat="44.17963" lon="5.28687">
        <ele>1444</ele>
        <time>2015-11-17T07:28:43Z</time>
      </trkpt>
      <trkpt lat="44.17971" lon="5.28689">
        <ele>1442</ele>
        <time>2015-11-17T07:30:43Z</time>
      </trkpt>
      <trkpt lat="44.17987" lon="5.28692">
        <ele>1438</ele>
        <time>2015-11-17T07:32:43Z</time>
      </trkpt>
      <trkpt lat="44.17989" lon="5.28692">
        <ele>1437</ele>
        <time>2015-11-17T07:34:43Z</time>
      </trkpt>
      <trkpt lat="44.17993" lon="5.28693">
        <ele>1436</ele>
        <time>2015-11-17T07:36:43Z</time>
      </trkpt>
      <trkpt lat="44.18005" lon="5.28694">
        <ele>1434</ele>
        <time>2015-11-17T07:38:43Z</time>
      </trkpt>
      <trkpt lat="44.18013" lon="5.28694">
        <ele>1432</ele>
        <time>2015-11-17T07:40:43Z</time>
      </trkpt>
      <trkpt lat="44.18017" lon="5.28694">
        <ele>1431</ele>
        <time>2015-11-17T07:42:43Z</time>
      </trkpt>
      <trkpt lat="44.18026" lon="5.28693">
        <ele>1430</ele>
        <time>2015-11-17T07:44:43Z</time>
      </trkpt>
      <trkpt lat="44.18036" lon="5.28691">
        <ele>1429</ele>
        <time>2015-11-17T07:46:43Z</time>
      </trkpt>
      <trkpt lat="44.18044" lon="5.28689">
        <ele>1428</ele>
        <time>2015-11-17T07:48:43Z</time>
      </trkpt>
      <trkpt lat="44.18046" lon="5.28688">
        <ele>1428</ele>
        <time>2015-11-17T07:50:43Z</time>
      </trkpt>
      <trkpt lat="44.18055" lon="5.28685">
        <ele>1427</ele>
        <time>2015-11-17T07:52:43Z</time>
      </trkpt>
      <trkpt lat="44.18059" lon="5.28683">
        <ele>1427</ele>
        <time>2015-11-17T07:54:43Z</time>
      </trkpt>
      <trkpt lat="44.18066" lon="5.28678">
        <ele>1427</ele>
        <time>2015-11-17T07:56:43Z</time>
      </trkpt>
      <trkpt lat="44.18069" lon="5.28676">
        <ele>1427</ele>
        <time>2015-11-17T07:58:43Z</time>
      </trkpt>
      <trkpt lat="44.18076" lon="5.2867">
        <ele>1427</ele>
        <time>2015-11-17T08:00:43Z</time>
      </trkpt>
      <trkpt lat="44.18081" lon="5.28663">
        <ele>1428</ele>
        <time>2015-11-17T08:02:43Z</time>
      </trkpt>
      <trkpt lat="44.18086" lon="5.28656">
        <ele>1429</ele>
        <time>2015-11-17T08:04:43Z</time>
      </trkpt>
      <trkpt lat="44.18091" lon="5.28648">
        <ele>1430</ele>
        <time>2015-11-17T08:06:43Z</time>
      </trkpt>
      <trkpt lat="44.18095" lon="5.28639">
        <ele>1431</ele>
        <time>2015-11-17T08:08:43Z</time>
      </trkpt>
      <trkpt lat="44.18101" lon="5.28626">
        <ele>1434</ele>
        <time>2015-11-17T08:10:43Z</time>
      </trkpt>
      <trkpt lat="44.18116" lon="5.28592">
        <ele>1440</ele>
        <time>2015-11-17T08:12:43Z</time>
      </trkpt>
      <trkpt lat="44.18121" lon="5.28583">
        <ele>1441</ele>
        <time>2015-11-17T08:14:43Z</time>
      </trkpt>
      <trkpt lat="44.1813" lon="5.28568">
        <ele>1443</ele>
        <time>2015-11-17T08:16:43Z</time>
      </trkpt>
      <trkpt lat="44.18133" lon="5.28564">
        <ele>1443</ele>
        <time>2015-11-17T08:18:43Z</time>
      </trkpt>
      <trkpt lat="44.18138" lon="5.28555">
        <ele>1443</ele>
        <time>2015-11-17T08:20:43Z</time>
      </trkpt>
      <trkpt lat="44.18164" lon="5.28519">
        <ele>1442</ele>
        <time>2015-11-17T08:22:43Z</time>
      </trkpt>
      <trkpt lat="44.18167" lon="5.28516">
        <ele>1441</ele>
        <time>2015-11-17T08:24:43Z</time>
      </trkpt>
      <trkpt lat="44.18169" lon="5.28512">
        <ele>1442</ele>
        <time>2015-11-17T08:26:43Z</time>
      </trkpt>
      <trkpt lat="44.18172" lon="5.28509">
        <ele>1442</ele>
        <time>2015-11-17T08:28:43Z</time>
      </trkpt>
      <trkpt lat="44.18176" lon="5.28503">
        <ele>1442</ele>
        <time>2015-11-17T08:30:43Z</time>
      </trkpt>
      <trkpt lat="44.18179" lon="5.285">
        <ele>1442</ele>
        <time>2015-11-17T08:32:43Z</time>
      </trkpt>
      <trkpt lat="44.18207" lon="5.28462">
        <ele>1440</ele>
        <time>2015-11-17T08:34:43Z</time>
      </trkpt>
      <trkpt lat="44.18213" lon="5.28454">
        <ele>1439</ele>
        <time>2015-11-17T08:36:43Z</time>
      </trkpt>
      <trkpt lat="44.18216" lon="5.2845">
        <ele>1439</ele>
        <time>2015-11-17T08:38:43Z</time>
      </trkpt>
      <trkpt lat="44.18219" lon="5.28444">
        <ele>1439</ele>
        <time>2015-11-17T08:40:43Z</time>
      </trkpt>
      <trkpt lat="44.18217" lon="5.28441">
        <ele>1440</ele>
        <time>2015-11-17T08:42:43Z</time>
      </trkpt>
      <trkpt lat="44.18212" lon="5.2844">
        <ele>1442</ele>
        <time>2015-11-17T08:44:43Z</time>
      </trkpt>
      <trkpt lat="44.18204" lon="5.28441">
        <ele>1444</ele>
        <time>2015-11-17T08:46:43Z</time>
      </trkpt>
      <trkpt lat="44.18194" lon="5.28443">
        <ele>1447</ele>
        <time>2015-11-17T08:48:43Z</time>
      </trkpt>
      <trkpt lat="44.18181" lon="5.28447">
        <ele>1451</ele>
        <time>2015-11-17T08:50:43Z</time>
      </trkpt>
      <trkpt lat="44.18179" lon="5.28448">
        <ele>1452</ele>
        <time>2015-11-17T08:52:43Z</time>
      </trkpt>
      <trkpt lat="44.18161" lon="5.28454">
        <ele>1458</ele>
        <time>2015-11-17T08:54:43Z</time>
      </trkpt>
      <trkpt lat="44.18157" lon="5.28456">
        <ele>1460</ele>
        <time>2015-11-17T08:56:43Z</time>
      </trkpt>
      <trkpt lat="44.18149" lon="5.28461">
        <ele>1463</ele>
        <time>2015-11-17T08:58:43Z</time>
      </trkpt>
      <trkpt lat="44.18146" lon="5.28464">
        <ele>1464</ele>
        <time>2015-11-17T09:00:43Z</time>
      </trkpt>
      <trkpt lat="44.18139" lon="5.28471">
        <ele>1467</ele>
        <time>2015-11-17T09:02:43Z</time>
      </trkpt>
      <trkpt lat="44.18124" lon="5.2849">
        <ele>1470</ele>
        <time>2015-11-17T09:04:43Z</time>
      </trkpt>
      <trkpt lat="44.18117" lon="5.28497">
        <ele>1472</ele>
        <time>2015-11-17T09:06:43Z</time>
      </trkpt>
      <trkpt lat="44.18109" lon="5.28504">
        <ele>1474</ele>
        <time>2015-11-17T09:08:43Z</time>
      </trkpt>
      <trkpt lat="44.18094" lon="5.28516">
        <ele>1477</ele>
        <time>2015-11-17T09:10:43Z</time>
      </trkpt>
      <trkpt lat="44.18087" lon="5.28521">
        <ele>1479</ele>
        <time>2015-11-17T09:12:43Z</time>
      </trkpt>
      <trkpt lat="44.18083" lon="5.28524">
        <ele>1480</ele>
        <time>2015-11-17T09:14:43Z</time>
      </trkpt>
      <trkpt lat="44.18059" lon="5.28544">
        <ele>1483</ele>
        <time>2015-11-17T09:16:43Z</time>
      </trkpt>
      <trkpt lat="44.18056" lon="5.28546">
        <ele>1483</ele>
        <time>2015-11-17T09:18:43Z</time>
      </trkpt>
      <trkpt lat="44.18044" lon="5.28556">
        <ele>1485</ele>
        <time>2015-11-17T09:20:43Z</time>
      </trkpt>
      <trkpt lat="44.18041" lon="5.28559">
        <ele>1485</ele>
        <time>2015-11-17T09:22:43Z</time>
      </trkpt>
      <trkpt lat="44.18038" lon="5.28561">
        <ele>1485</ele>
        <time>2015-11-17T09:24:43Z</time>
      </trkpt>
      <trkpt lat="44.18026" lon="5.28572">
        <ele>1486</ele>
        <time>2015-11-17T09:26:43Z</time>
      </trkpt>
      <trkpt lat="44.18004" lon="5.28589">
        <ele>1487</ele>
        <time>2015-11-17T09:28:43Z</time>
      </trkpt>
      <trkpt lat="44.17999" lon="5.28593">
        <ele>1487</ele>
        <time>2015-11-17T09:30:43Z</time>
      </trkpt>
      <trkpt lat="44.17996" lon="5.28593">
        <ele>1488</ele>
        <time>2015-11-17T09:32:43Z</time>
      </trkpt>
      <trkpt lat="44.17997" lon="5.2859">
        <ele>1489</ele>
        <time>2015-11-17T09:34:43Z</time>
      </trkpt>
      <trkpt lat="44.17999" lon="5.28586">
        <ele>1491</ele>
        <time>2015-11-17T09:36:43Z</time>
      </trkpt>
      <trkpt lat="44.18002" lon="5.2858">
        <ele>1493</ele>
        <time>2015-11-17T09:38:43Z</time>
      </trkpt>
      <trkpt lat="44.18015" lon="5.28562">
        <ele>1495</ele>
        <time>2015-11-17T09:40:43Z</time>
      </trkpt>
      <trkpt lat="44.18025" lon="5.28549">
        <ele>1497</ele>
        <time>2015-11-17T09:42:43Z</time>
      </trkpt>
      <trkpt lat="44.18035" lon="5.28536">
        <ele>1498</ele>
        <time>2015-11-17T09:44:43Z</time>
      </trkpt>
      <trkpt lat="44.18045" lon="5.28522">
        <ele>1499</ele>
        <time>2015-11-17T09:46:43Z</time>
      </trkpt>
      <trkpt lat="44.18054" lon="5.28509">
        <ele>1500</ele>
        <time>2015-11-17T09:48:43Z</time>
      </trkpt>
      <trkpt lat="44.18059" lon="5.28502">
        <ele>1500</ele>
        <time>2015-11-17T09:50:43Z</time>
      </trkpt>
      <trkpt lat="44.18061" lon="5.28499">
        <ele>1501</ele>
        <time>2015-11-17T09:52:43Z</time>
      </trkpt>
      <trkpt lat="44.18069" lon="5.28485">
        <ele>1500</ele>
        <time>2015-11-17T09:54:43Z</time>
      </trkpt>
      <trkpt lat="44.18071" lon="5.28481">
        <ele>1501</ele>
        <time>2015-11-17T09:56:43Z</time>
      </trkpt>
      <trkpt lat="44.18076" lon="5.28468">
        <ele>1501</ele>
        <time>2015-11-17T09:58:43Z</time>
      </trkpt>
      <trkpt lat="44.18078" lon="5.28463">
        <ele>1502</ele>
        <time>2015-11-17T10:00:43Z</time>
      </trkpt>
      <trkpt lat="44.1808" lon="5.28455">
        <ele>1503</ele>
        <time>2015-11-17T10:02:43Z</time>
      </trkpt>
      <trkpt lat="44.18082" lon="5.28446">
        <ele>1504</ele>
        <time>2015-11-17T10:04:43Z</time>
      </trkpt>
      <trkpt lat="44.18083" lon="5.28432">
        <ele>1507</ele>
        <time>2015-11-17T10:06:43Z</time>
      </trkpt>
      <trkpt lat="44.18084" lon="5.28418">
        <ele>1510</ele>
        <time>2015-11-17T10:08:43Z</time>
      </trkpt>
      <trkpt lat="44.18085" lon="5.28408">
        <ele>1511</ele>
        <time>2015-11-17T10:10:43Z</time>
      </trkpt>
      <trkpt lat="44.18086" lon="5.28367">
        <ele>1513</ele>
        <time>2015-11-17T10:12:43Z</time>
      </trkpt>
      <trkpt lat="44.18087" lon="5.2835">
        <ele>1514</ele>
        <time>2015-11-17T10:14:43Z</time>
      </trkpt>
      <trkpt lat="44.18088" lon="5.28339">
        <ele>1514</ele>
        <time>2015-11-17T10:16:43Z</time>
      </trkpt>
      <trkpt lat="44.18088" lon="5.28326">
        <ele>1515</ele>
        <time>2015-11-17T10:18:43Z</time>
      </trkpt>
      <trkpt lat="44.18088" lon="5.28313">
        <ele>1515</ele>
        <time>2015-11-17T10:20:43Z</time>
      </trkpt>
      <trkpt lat="44.18086" lon="5.28297">
        <ele>1517</ele>
        <time>2015-11-17T10:22:43Z</time>
      </trkpt>
      <trkpt lat="44.18084" lon="5.28286">
        <ele>1519</ele>
        <time>2015-11-17T10:24:43Z</time>
      </trkpt>
      <trkpt lat="44.18079" lon="5.28265">
        <ele>1523</ele>
        <time>2015-11-17T10:26:43Z</time>
      </trkpt>
      <trkpt lat="44.18077" lon="5.28257">
        <ele>1525</ele>
        <time>2015-11-17T10:28:43Z</time>
      </trkpt>
      <trkpt lat="44.18076" lon="5.28253">
        <ele>1526</ele>
        <time>2015-11-17T10:30:43Z</time>
      </trkpt>
      <trkpt lat="44.18073" lon="5.28242">
        <ele>1529</ele>
        <time>2015-11-17T10:32:43Z</time>
      </trkpt>
      <trkpt lat="44.18068" lon="5.2822">
        <ele>1535</ele>
        <time>2015-11-17T10:34:43Z</time>
      </trkpt>
      <trkpt lat="44.18066" lon="5.2821">
        <ele>1537</ele>
        <time>2015-11-17T10:36:43Z</time>
      </trkpt>
      <trkpt lat="44.18065" lon="5.282">
        <ele>1539</ele>
        <time>2015-11-17T10:38:43Z</time>
      </trkpt>
      <trkpt lat="44.18063" lon="5.2819">
        <ele>1542</ele>
        <time>2015-11-17T10:40:43Z</time>
      </trkpt>
      <trkpt lat="44.18063" lon="5.28181">
        <ele>1543</ele>
        <time>2015-11-17T10:42:43Z</time>
      </trkpt>
      <trkpt lat="44.18062" lon="5.28168">
        <ele>1545</ele>
        <time>2015-11-17T10:44:43Z</time>
      </trkpt>
      <trkpt lat="44.18063" lon="5.2815">
        <ele>1546</ele>
        <time>2015-11-17T10:46:43Z</time>
      </trkpt>
      <trkpt lat="44.18065" lon="5.28134">
        <ele>1547</ele>
        <time>2015-11-17T10:48:43Z</time>
      </trkpt>
      <trkpt lat="44.18072" lon="5.28094">
        <ele>1547</ele>
        <time>2015-11-17T10:50:43Z</time>
      </trkpt>
      <trkpt lat="44.18073" lon="5.28089">
        <ele>1547</ele>
        <time>2015-11-17T10:52:43Z</time>
      </trkpt>
      <trkpt lat="44.18075" lon="5.28074">
        <ele>1546</ele>
        <time>2015-11-17T10:54:43Z</time>
      </trkpt>
      <trkpt lat="44.18076" lon="5.28068">
        <ele>1546</ele>
        <time>2015-11-17T10:56:43Z</time>
      </trkpt>
      <trkpt lat="44.18077" lon="5.28061">
        <ele>1545</ele>
        <time>2015-11-17T10:58:43Z</time>
      </trkpt>
      <trkpt lat="44.18076" lon="5.28057">
        <ele>1546</ele>
        <time>2015-11-17T11:00:43Z</time>
      </trkpt>
      <trkpt lat="44.18073" lon="5.28057">
        <ele>1548</ele>
        <time>2015-11-17T11:02:43Z</time>
      </trkpt>
      <trkpt lat="44.1807" lon="5.2806">
        <ele>1549</ele>
        <time>2015-11-17T11:04:43Z</time>
      </trkpt>
      <trkpt lat="44.18066" lon="5.28065">
        <ele>1552</ele>
        <time>2015-11-17T11:06:43Z</time>
      </trkpt>
      <trkpt lat="44.1806" lon="5.28076">
        <ele>1555</ele>
        <time>2015-11-17T11:08:43Z</time>
      </trkpt>
      <trkpt lat="44.18055" lon="5.28084">
        <ele>1558</ele>
        <time>2015-11-17T11:10:43Z</time>
      </trkpt>
      <trkpt lat="44.18046" lon="5.28103">
        <ele>1562</ele>
        <time>2015-11-17T11:12:43Z</time>
      </trkpt>
      <trkpt lat="44.18041" lon="5.28113">
        <ele>1564</ele>
        <time>2015-11-17T11:14:43Z</time>
      </trkpt>
      <trkpt lat="44.18039" lon="5.28118">
        <ele>1564</ele>
        <time>2015-11-17T11:16:43Z</time>
      </trkpt>
      <trkpt lat="44.18036" lon="5.28123">
        <ele>1566</ele>
        <time>2015-11-17T11:18:43Z</time>
      </trkpt>
      <trkpt lat="44.1803" lon="5.28138">
        <ele>1568</ele>
        <time>2015-11-17T11:20:43Z</time>
      </trkpt>
      <trkpt lat="44.18025" lon="5.28151">
        <ele>1569</ele>
        <time>2015-11-17T11:22:43Z</time>
      </trkpt>
      <trkpt lat="44.18024" lon="5.28155">
        <ele>1570</ele>
        <time>2015-11-17T11:24:43Z</time>
      </trkpt>
      <trkpt lat="44.1802" lon="5.28166">
        <ele>1571</ele>
        <time>2015-11-17T11:26:43Z</time>
      </trkpt>
      <trkpt lat="44.18015" lon="5.2818">
        <ele>1573</ele>
        <time>2015-11-17T11:28:43Z</time>
      </trkpt>
      <trkpt lat="44.18011" lon="5.28189">
        <ele>1574</ele>
        <time>2015-11-17T11:30:43Z</time>
      </trkpt>
      <trkpt lat="44.18001" lon="5.28209">
        <ele>1579</ele>
        <time>2015-11-17T11:32:43Z</time>
      </trkpt>
      <trkpt lat="44.17994" lon="5.28223">
        <ele>1582</ele>
        <time>2015-11-17T11:34:43Z</time>
      </trkpt>
      <trkpt lat="44.1799" lon="5.28232">
        <ele>1583</ele>
        <time>2015-11-17T11:36:43Z</time>
      </trkpt>
      <trkpt lat="44.17989" lon="5.28235">
        <ele>1583</ele>
        <time>2015-11-17T11:38:43Z</time>
      </trkpt>
      <trkpt lat="44.17989" lon="5.28239">
        <ele>1583</ele>
        <time>2015-11-17T11:40:43Z</time>
      </trkpt>
      <trkpt lat="44.1799" lon="5.28243">
        <ele>1582</ele>
        <time>2015-11-17T11:42:43Z</time>
      </trkpt>
      <trkpt lat="44.17992" lon="5.28255">
        <ele>1580</ele>
        <time>2015-11-17T11:44:43Z</time>
      </trkpt>
      <trkpt lat="44.17995" lon="5.28262">
        <ele>1578</ele>
        <time>2015-11-17T11:46:43Z</time>
      </trkpt>
      <trkpt lat="44.17997" lon="5.28271">
        <ele>1577</ele>
        <time>2015-11-17T11:48:43Z</time>
      </trkpt>
      <trkpt lat="44.17998" lon="5.28283">
        <ele>1576</ele>
        <time>2015-11-17T11:50:43Z</time>
      </trkpt>
      <trkpt lat="44.17999" lon="5.28294">
        <ele>1575</ele>
        <time>2015-11-17T11:52:43Z</time>
      </trkpt>
      <trkpt lat="44.18" lon="5.2831">
        <ele>1574</ele>
        <time>2015-11-17T11:54:43Z</time>
      </trkpt>
      <trkpt lat="44.17999" lon="5.28321">
        <ele>1574</ele>
        <time>2015-11-17T11:56:43Z</time>
      </trkpt>
      <trkpt lat="44.18" lon="5.28339">
        <ele>1572</ele>
        <time>2015-11-17T11:58:43Z</time>
      </trkpt>
      <trkpt lat="44.18" lon="5.28349">
        <ele>1571</ele>
        <time>2015-11-17T12:00:43Z</time>
      </trkpt>
      <trkpt lat="44.18" lon="5.28352">
        <ele>1571</ele>
        <time>2015-11-17T12:02:43Z</time>
      </trkpt>
      <trkpt lat="44.18" lon="5.28357">
        <ele>1570</ele>
        <time>2015-11-17T12:04:43Z</time>
      </trkpt>
      <trkpt lat="44.18" lon="5.28365">
        <ele>1569</ele>
        <time>2015-11-17T12:06:43Z</time>
      </trkpt>
      <trkpt lat="44.18" lon="5.28369">
        <ele>1568</ele>
        <time>2015-11-17T12:08:43Z</time>
      </trkpt>
      <trkpt lat="44.17998" lon="5.28376">
        <ele>1568</ele>
        <time>2015-11-17T12:10:43Z</time>
      </trkpt>
      <trkpt lat="44.17996" lon="5.28383">
        <ele>1569</ele>
        <time>2015-11-17T12:12:43Z</time>
      </trkpt>
      <trkpt lat="44.17993" lon="5.28389">
        <ele>1569</ele>
        <time>2015-11-17T12:14:43Z</time>
      </trkpt>
      <trkpt lat="44.17989" lon="5.28395">
        <ele>1571</ele>
        <time>2015-11-17T12:16:43Z</time>
      </trkpt>
      <trkpt lat="44.17985" lon="5.284">
        <ele>1572</ele>
        <time>2015-11-17T12:18:43Z</time>
      </trkpt>
      <trkpt lat="44.17981" lon="5.28405">
        <ele>1573</ele>
        <time>2015-11-17T12:20:43Z</time>
      </trkpt>
      <trkpt lat="44.1797" lon="5.28414">
        <ele>1578</ele>
        <time>2015-11-17T12:22:43Z</time>
      </trkpt>
      <trkpt lat="44.17959" lon="5.28422">
        <ele>1580</ele>
        <time>2015-11-17T12:24:43Z</time>
      </trkpt>
      <trkpt lat="44.17956" lon="5.28425">
        <ele>1581</ele>
        <time>2015-11-17T12:26:43Z</time>
      </trkpt>
      <trkpt lat="44.17951" lon="5.28429">
        <ele>1581</ele>
        <time>2015-11-17T12:28:43Z</time>
      </trkpt>
      <trkpt lat="44.17942" lon="5.28437">
        <ele>1582</ele>
        <time>2015-11-17T12:30:43Z</time>
      </trkpt>
      <trkpt lat="44.17933" lon="5.28447">
        <ele>1582</ele>
        <time>2015-11-17T12:32:43Z</time>
      </trkpt>
      <trkpt lat="44.17923" lon="5.28457">
        <ele>1583</ele>
        <time>2015-11-17T12:34:43Z</time>
      </trkpt>
      <trkpt lat="44.17915" lon="5.28461">
        <ele>1584</ele>
        <time>2015-11-17T12:36:43Z</time>
      </trkpt>
      <trkpt lat="44.17908" lon="5.28465">
        <ele>1584</ele>
        <time>2015-11-17T12:38:43Z</time>
      </trkpt>
      <trkpt lat="44.17901" lon="5.28467">
        <ele>1584</ele>
        <time>2015-11-17T12:40:43Z</time>
      </trkpt>
      <trkpt lat="44.1789" lon="5.2847">
        <ele>1585</ele>
        <time>2015-11-17T12:42:43Z</time>
      </trkpt>
      <trkpt lat="44.17875" lon="5.28471">
        <ele>1588</ele>
        <time>2015-11-17T12:44:43Z</time>
      </trkpt>
      <trkpt lat="44.17868" lon="5.2847">
        <ele>1589</ele>
        <time>2015-11-17T12:46:43Z</time>
      </trkpt>
      <trkpt lat="44.17864" lon="5.28471">
        <ele>1590</ele>
        <time>2015-11-17T12:48:43Z</time>
      </trkpt>
      <trkpt lat="44.17848" lon="5.2847">
        <ele>1594</ele>
        <time>2015-11-17T12:50:43Z</time>
      </trkpt>
      <trkpt lat="44.17836" lon="5.2847">
        <ele>1596</ele>
        <time>2015-11-17T12:52:43Z</time>
      </trkpt>
      <trkpt lat="44.17823" lon="5.28471">
        <ele>1597</ele>
        <time>2015-11-17T12:54:43Z</time>
      </trkpt>
      <trkpt lat="44.17813" lon="5.28473">
        <ele>1596</ele>
        <time>2015-11-17T12:56:43Z</time>
      </trkpt>
      <trkpt lat="44.17808" lon="5.28474">
        <ele>1596</ele>
        <time>2015-11-17T12:58:43Z</time>
      </trkpt>
      <trkpt lat="44.17805" lon="5.28473">
        <ele>1597</ele>
        <time>2015-11-17T13:00:43Z</time>
      </trkpt>
      <trkpt lat="44.17806" lon="5.28469">
        <ele>1599</ele>
        <time>2015-11-17T13:02:43Z</time>
      </trkpt>
      <trkpt lat="44.17809" lon="5.28466">
        <ele>1601</ele>
        <time>2015-11-17T13:04:43Z</time>
      </trkpt>
      <trkpt lat="44.17817" lon="5.2846">
        <ele>1603</ele>
        <time>2015-11-17T13:06:43Z</time>
      </trkpt>
      <trkpt lat="44.17835" lon="5.28448">
        <ele>1607</ele>
        <time>2015-11-17T13:08:43Z</time>
      </trkpt>
      <trkpt lat="44.17839" lon="5.28446">
        <ele>1608</ele>
        <time>2015-11-17T13:10:43Z</time>
      </trkpt>
      <trkpt lat="44.17843" lon="5.28443">
        <ele>1608</ele>
        <time>2015-11-17T13:12:43Z</time>
      </trkpt>
      <trkpt lat="44.17857" lon="5.28436">
        <ele>1609</ele>
        <time>2015-11-17T13:14:43Z</time>
      </trkpt>
      <trkpt lat="44.1787" lon="5.28429">
        <ele>1609</ele>
        <time>2015-11-17T13:16:43Z</time>
      </trkpt>
      <trkpt lat="44.1789" lon="5.28419">
        <ele>1609</ele>
        <time>2015-11-17T13:18:43Z</time>
      </trkpt>
      <trkpt lat="44.17893" lon="5.28418">
        <ele>1609</ele>
        <time>2015-11-17T13:20:43Z</time>
      </trkpt>
      <trkpt lat="44.17901" lon="5.28413">
        <ele>1609</ele>
        <time>2015-11-17T13:22:43Z</time>
      </trkpt>
      <trkpt lat="44.17904" lon="5.28409">
        <ele>1609</ele>
        <time>2015-11-17T13:24:43Z</time>
      </trkpt>
      <trkpt lat="44.17906" lon="5.28405">
        <ele>1610</ele>
        <time>2015-11-17T13:26:43Z</time>
      </trkpt>
      <trkpt lat="44.17908" lon="5.28401">
        <ele>1610</ele>
        <time>2015-11-17T13:28:43Z</time>
      </trkpt>
      <trkpt lat="44.1791" lon="5.28396">
        <ele>1611</ele>
        <time>2015-11-17T13:30:43Z</time>
      </trkpt>
      <trkpt lat="44.17911" lon="5.28391">
        <ele>1611</ele>
        <time>2015-11-17T13:32:43Z</time>
      </trkpt>
      <trkpt lat="44.17912" lon="5.28385">
        <ele>1612</ele>
        <time>2015-11-17T13:34:43Z</time>
      </trkpt>
      <trkpt lat="44.17914" lon="5.28373">
        <ele>1614</ele>
        <time>2015-11-17T13:36:43Z</time>
      </trkpt>
      <trkpt lat="44.17914" lon="5.2837">
        <ele>1615</ele>
        <time>2015-11-17T13:38:43Z</time>
      </trkpt>
      <trkpt lat="44.17914" lon="5.28363">
        <ele>1617</ele>
        <time>2015-11-17T13:40:43Z</time>
      </trkpt>
      <trkpt lat="44.17914" lon="5.2836">
        <ele>1617</ele>
        <time>2015-11-17T13:42:43Z</time>
      </trkpt>
      <trkpt lat="44.17915" lon="5.28354">
        <ele>1618</ele>
        <time>2015-11-17T13:44:43Z</time>
      </trkpt>
      <trkpt lat="44.17915" lon="5.2835">
        <ele>1619</ele>
        <time>2015-11-17T13:46:43Z</time>
      </trkpt>
      <trkpt lat="44.17916" lon="5.2834">
        <ele>1621</ele>
        <time>2015-11-17T13:48:43Z</time>
      </trkpt>
      <trkpt lat="44.17917" lon="5.28334">
        <ele>1622</ele>
        <time>2015-11-17T13:50:43Z</time>
      </trkpt>
      <trkpt lat="44.17918" lon="5.28325">
        <ele>1621</ele>
        <time>2015-11-17T13:52:43Z</time>
      </trkpt>
      <trkpt lat="44.17918" lon="5.2832">
        <ele>1621</ele>
        <time>2015-11-17T13:54:43Z</time>
      </trkpt>
      <trkpt lat="44.17917" lon="5.28313">
        <ele>1622</ele>
        <time>2015-11-17T13:56:43Z</time>
      </trkpt>
      <trkpt lat="44.17916" lon="5.28305">
        <ele>1623</ele>
        <time>2015-11-17T13:58:43Z</time>
      </trkpt>
      <trkpt lat="44.17915" lon="5.28298">
        <ele>1623</ele>
        <time>2015-11-17T14:00:43Z</time>
      </trkpt>
      <trkpt lat="44.17911" lon="5.28288">
        <ele>1626</ele>
        <time>2015-11-17T14:02:43Z</time>
      </trkpt>
      <trkpt lat="44.17908" lon="5.28282">
        <ele>1628</ele>
        <time>2015-11-17T14:04:43Z</time>
      </trkpt>
      <trkpt lat="44.17901" lon="5.2827">
        <ele>1632</ele>
        <time>2015-11-17T14:06:43Z</time>
      </trkpt>
      <trkpt lat="44.17887" lon="5.28248">
        <ele>1641</ele>
        <time>2015-11-17T14:08:43Z</time>
      </trkpt>
      <trkpt lat="44.1788" lon="5.28235">
        <ele>1646</ele>
        <time>2015-11-17T14:10:43Z</time>
      </trkpt>
      <trkpt lat="44.17876" lon="5.28227">
        <ele>1649</ele>
        <time>2015-11-17T14:12:43Z</time>
      </trkpt>
      <trkpt lat="44.17872" lon="5.28218">
        <ele>1652</ele>
        <time>2015-11-17T14:14:43Z</time>
      </trkpt>
      <trkpt lat="44.17871" lon="5.28213">
        <ele>1653</ele>
        <time>2015-11-17T14:16:43Z</time>
      </trkpt>
      <trkpt lat="44.17869" lon="5.28203">
        <ele>1655</ele>
        <time>2015-11-17T14:18:43Z</time>
      </trkpt>
      <trkpt lat="44.17869" lon="5.28194">
        <ele>1656</ele>
        <time>2015-11-17T14:20:43Z</time>
      </trkpt>
      <trkpt lat="44.17869" lon="5.2819">
        <ele>1656</ele>
        <time>2015-11-17T14:22:43Z</time>
      </trkpt>
      <trkpt lat="44.17869" lon="5.28185">
        <ele>1657</ele>
        <time>2015-11-17T14:24:43Z</time>
      </trkpt>
      <trkpt lat="44.17871" lon="5.28176">
        <ele>1656</ele>
        <time>2015-11-17T14:26:43Z</time>
      </trkpt>
      <trkpt lat="44.17872" lon="5.28172">
        <ele>1656</ele>
        <time>2015-11-17T14:28:43Z</time>
      </trkpt>
      <trkpt lat="44.17878" lon="5.2816">
        <ele>1653</ele>
        <time>2015-11-17T14:30:43Z</time>
      </trkpt>
      <trkpt lat="44.17882" lon="5.28152">
        <ele>1652</ele>
        <time>2015-11-17T14:32:43Z</time>
      </trkpt>
      <trkpt lat="44.1789" lon="5.28139">
        <ele>1650</ele>
        <time>2015-11-17T14:34:43Z</time>
      </trkpt>
      <trkpt lat="44.17909" lon="5.2811">
        <ele>1644</ele>
        <time>2015-11-17T14:36:43Z</time>
      </trkpt>
      <trkpt lat="44.17915" lon="5.28101">
        <ele>1642</ele>
        <time>2015-11-17T14:38:43Z</time>
      </trkpt>
      <trkpt lat="44.17923" lon="5.28087">
        <ele>1640</ele>
        <time>2015-11-17T14:40:43Z</time>
      </trkpt>
      <trkpt lat="44.17925" lon="5.28082">
        <ele>1640</ele>
        <time>2015-11-17T14:42:43Z</time>
      </trkpt>
      <trkpt lat="44.17926" lon="5.28077">
        <ele>1639</ele>
        <time>2015-11-17T14:44:43Z</time>
      </trkpt>
      <trkpt lat="44.17927" lon="5.28075">
        <ele>1639</ele>
        <time>2015-11-17T14:46:43Z</time>
      </trkpt>
      <trkpt lat="44.17924" lon="5.28073">
        <ele>1641</ele>
        <time>2015-11-17T14:48:43Z</time>
      </trkpt>
      <trkpt lat="44.17922" lon="5.28073">
        <ele>1642</ele>
        <time>2015-11-17T14:50:43Z</time>
      </trkpt>
      <trkpt lat="44.17915" lon="5.28077">
        <ele>1646</ele>
        <time>2015-11-17T14:52:43Z</time>
      </trkpt>
      <trkpt lat="44.17901" lon="5.28088">
        <ele>1653</ele>
        <time>2015-11-17T14:54:43Z</time>
      </trkpt>
      <trkpt lat="44.17893" lon="5.28094">
        <ele>1657</ele>
        <time>2015-11-17T14:56:43Z</time>
      </trkpt>
      <trkpt lat="44.17888" lon="5.28099">
        <ele>1659</ele>
        <time>2015-11-17T14:58:43Z</time>
      </trkpt>
      <trkpt lat="44.17886" lon="5.28101">
        <ele>1660</ele>
        <time>2015-11-17T15:00:43Z</time>
      </trkpt>
      <trkpt lat="44.17877" lon="5.2811">
        <ele>1663</ele>
        <time>2015-11-17T15:02:43Z</time>
      </trkpt>
      <trkpt lat="44.17866" lon="5.28124">
        <ele>1667</ele>
        <time>2015-11-17T15:04:43Z</time>
      </trkpt>
      <trkpt lat="44.17849" lon="5.28141">
        <ele>1675</ele>
        <time>2015-11-17T15:06:43Z</time>
      </trkpt>
      <trkpt lat="44.17839" lon="5.28153">
        <ele>1679</ele>
        <time>2015-11-17T15:08:43Z</time>
      </trkpt>
      <trkpt lat="44.17834" lon="5.2816">
        <ele>1681</ele>
        <time>2015-11-17T15:10:43Z</time>
      </trkpt>
      <trkpt lat="44.17831" lon="5.28163">
        <ele>1682</ele>
        <time>2015-11-17T15:12:43Z</time>
      </trkpt>
      <trkpt lat="44.17827" lon="5.28171">
        <ele>1684</ele>
        <time>2015-11-17T15:14:43Z</time>
      </trkpt>
      <trkpt lat="44.17825" lon="5.28174">
        <ele>1685</ele>
        <time>2015-11-17T15:16:43Z</time>
      </trkpt>
      <trkpt lat="44.17822" lon="5.28182">
        <ele>1686</ele>
        <time>2015-11-17T15:18:43Z</time>
      </trkpt>
      <trkpt lat="44.1782" lon="5.2819">
        <ele>1687</ele>
        <time>2015-11-17T15:20:43Z</time>
      </trkpt>
      <trkpt lat="44.1782" lon="5.28199">
        <ele>1686</ele>
        <time>2015-11-17T15:22:43Z</time>
      </trkpt>
      <trkpt lat="44.1782" lon="5.28208">
        <ele>1685</ele>
        <time>2015-11-17T15:24:43Z</time>
      </trkpt>
      <trkpt lat="44.1782" lon="5.28212">
        <ele>1685</ele>
        <time>2015-11-17T15:26:43Z</time>
      </trkpt>
      <trkpt lat="44.17822" lon="5.28221">
        <ele>1683</ele>
        <time>2015-11-17T15:28:43Z</time>
      </trkpt>
      <trkpt lat="44.17825" lon="5.2824">
        <ele>1679</ele>
        <time>2015-11-17T15:30:43Z</time>
      </trkpt>
      <trkpt lat="44.17827" lon="5.28244">
        <ele>1678</ele>
        <time>2015-11-17T15:32:43Z</time>
      </trkpt>
      <trkpt lat="44.1783" lon="5.28259">
        <ele>1675</ele>
        <time>2015-11-17T15:34:43Z</time>
      </trkpt>
      <trkpt lat="44.17833" lon="5.28275">
        <ele>1672</ele>
        <time>2015-11-17T15:36:43Z</time>
      </trkpt>
      <trkpt lat="44.17835" lon="5.2829">
        <ele>1670</ele>
        <time>2015-11-17T15:38:43Z</time>
      </trkpt>
      <trkpt lat="44.17836" lon="5.28296">
        <ele>1669</ele>
        <time>2015-11-17T15:40:43Z</time>
      </trkpt>
      <trkpt lat="44.17837" lon="5.28307">
        <ele>1667</ele>
        <time>2015-11-17T15:42:43Z</time>
      </trkpt>
      <trkpt lat="44.17836" lon="5.28299">
        <ele>1668</ele>
        <time>2015-11-17T15:44:43Z</time>
      </trkpt>
      <trkpt lat="44.17836" lon="5.28295">
        <ele>1669</ele>
        <time>2015-11-17T15:46:43Z</time>
      </trkpt>
      <trkpt lat="44.17837" lon="5.28288">
        <ele>1669</ele>
        <time>2015-11-17T15:48:43Z</time>
      </trkpt>
      <trkpt lat="44.17837" lon="5.28277">
        <ele>1670</ele>
        <time>2015-11-17T15:50:43Z</time>
      </trkpt>
      <trkpt lat="44.17836" lon="5.28268">
        <ele>1671</ele>
        <time>2015-11-17T15:52:43Z</time>
      </trkpt>
      <trkpt lat="44.17835" lon="5.28262">
        <ele>1672</ele>
        <time>2015-11-17T15:54:43Z</time>
      </trkpt>
      <trkpt lat="44.17833" lon="5.28257">
        <ele>1674</ele>
        <time>2015-11-17T15:56:43Z</time>
      </trkpt>
      <trkpt lat="44.1783" lon="5.28252">
        <ele>1676</ele>
        <time>2015-11-17T15:58:43Z</time>
      </trkpt>
      <trkpt lat="44.17825" lon="5.28243">
        <ele>1679</ele>
        <time>2015-11-17T16:00:43Z</time>
      </trkpt>
      <trkpt lat="44.17818" lon="5.28234">
        <ele>1684</ele>
        <time>2015-11-17T16:02:43Z</time>
      </trkpt>
      <trkpt lat="44.17814" lon="5.2823">
        <ele>1687</ele>
        <time>2015-11-17T16:04:43Z</time>
      </trkpt>
      <trkpt lat="44.17807" lon="5.2822">
        <ele>1692</ele>
        <time>2015-11-17T16:06:43Z</time>
      </trkpt>
      <trkpt lat="44.178" lon="5.2821">
        <ele>1697</ele>
        <time>2015-11-17T16:08:43Z</time>
      </trkpt>
      <trkpt lat="44.17797" lon="5.28204">
        <ele>1700</ele>
        <time>2015-11-17T16:10:43Z</time>
      </trkpt>
      <trkpt lat="44.17795" lon="5.282">
        <ele>1702</ele>
        <time>2015-11-17T16:12:43Z</time>
      </trkpt>
      <trkpt lat="44.17791" lon="5.28193">
        <ele>1705</ele>
        <time>2015-11-17T16:14:43Z</time>
      </trkpt>
      <trkpt lat="44.1779" lon="5.28189">
        <ele>1706</ele>
        <time>2015-11-17T16:16:43Z</time>
      </trkpt>
      <trkpt lat="44.17789" lon="5.28182">
        <ele>1708</ele>
        <time>2015-11-17T16:18:43Z</time>
      </trkpt>
      <trkpt lat="44.17789" lon="5.28174">
        <ele>1709</ele>
        <time>2015-11-17T16:20:43Z</time>
      </trkpt>
      <trkpt lat="44.17789" lon="5.2817">
        <ele>1710</ele>
        <time>2015-11-17T16:22:43Z</time>
      </trkpt>
      <trkpt lat="44.17791" lon="5.28163">
        <ele>1710</ele>
        <time>2015-11-17T16:24:43Z</time>
      </trkpt>
      <trkpt lat="44.17793" lon="5.28155">
        <ele>1709</ele>
        <time>2015-11-17T16:26:43Z</time>
      </trkpt>
      <trkpt lat="44.17797" lon="5.28144">
        <ele>1708</ele>
        <time>2015-11-17T16:28:43Z</time>
      </trkpt>
      <trkpt lat="44.178" lon="5.28136">
        <ele>1708</ele>
        <time>2015-11-17T16:30:43Z</time>
      </trkpt>
      <trkpt lat="44.17812" lon="5.28113">
        <ele>1703</ele>
        <time>2015-11-17T16:32:43Z</time>
      </trkpt>
      <trkpt lat="44.17815" lon="5.28104">
        <ele>1703</ele>
        <time>2015-11-17T16:34:43Z</time>
      </trkpt>
      <trkpt lat="44.1782" lon="5.28091">
        <ele>1701</ele>
        <time>2015-11-17T16:36:43Z</time>
      </trkpt>
      <trkpt lat="44.17823" lon="5.28082">
        <ele>1701</ele>
        <time>2015-11-17T16:38:43Z</time>
      </trkpt>
      <trkpt lat="44.17824" lon="5.28078">
        <ele>1701</ele>
        <time>2015-11-17T16:40:43Z</time>
      </trkpt>
      <trkpt lat="44.17825" lon="5.28072">
        <ele>1701</ele>
        <time>2015-11-17T16:42:43Z</time>
      </trkpt>
      <trkpt lat="44.17825" lon="5.28069">
        <ele>1701</ele>
        <time>2015-11-17T16:44:43Z</time>
      </trkpt>
      <trkpt lat="44.17823" lon="5.28068">
        <ele>1702</ele>
        <time>2015-11-17T16:46:43Z</time>
      </trkpt>
      <trkpt lat="44.1782" lon="5.28071">
        <ele>1704</ele>
        <time>2015-11-17T16:48:43Z</time>
      </trkpt>
      <trkpt lat="44.17813" lon="5.28078">
        <ele>1708</ele>
        <time>2015-11-17T16:50:43Z</time>
      </trkpt>
      <trkpt lat="44.17807" lon="5.28087">
        <ele>1710</ele>
        <time>2015-11-17T16:52:43Z</time>
      </trkpt>
      <trkpt lat="44.17805" lon="5.2809">
        <ele>1711</ele>
        <time>2015-11-17T16:54:43Z</time>
      </trkpt>
      <trkpt lat="44.17791" lon="5.2811">
        <ele>1717</ele>
        <time>2015-11-17T16:56:43Z</time>
      </trkpt>
      <trkpt lat="44.17777" lon="5.28129">
        <ele>1724</ele>
        <time>2015-11-17T16:58:43Z</time>
      </trkpt>
      <trkpt lat="44.17769" lon="5.28139">
        <ele>1728</ele>
        <time>2015-11-17T17:00:43Z</time>
      </trkpt>
      <trkpt lat="44.17766" lon="5.28144">
        <ele>1729</ele>
        <time>2015-11-17T17:02:43Z</time>
      </trkpt>
      <trkpt lat="44.17763" lon="5.2815">
        <ele>1730</ele>
        <time>2015-11-17T17:04:43Z</time>
      </trkpt>
      <trkpt lat="44.17762" lon="5.28156">
        <ele>1730</ele>
        <time>2015-11-17T17:06:43Z</time>
      </trkpt>
      <trkpt lat="44.17761" lon="5.28162">
        <ele>1730</ele>
        <time>2015-11-17T17:08:43Z</time>
      </trkpt>
      <trkpt lat="44.1776" lon="5.28165">
        <ele>1730</ele>
        <time>2015-11-17T17:10:43Z</time>
      </trkpt>
      <trkpt lat="44.1776" lon="5.28171">
        <ele>1729</ele>
        <time>2015-11-17T17:12:43Z</time>
      </trkpt>
      <trkpt lat="44.17761" lon="5.28181">
        <ele>1727</ele>
        <time>2015-11-17T17:14:43Z</time>
      </trkpt>
      <trkpt lat="44.17763" lon="5.28199">
        <ele>1722</ele>
        <time>2015-11-17T17:16:43Z</time>
      </trkpt>
      <trkpt lat="44.17763" lon="5.28203">
        <ele>1721</ele>
        <time>2015-11-17T17:18:43Z</time>
      </trkpt>
      <trkpt lat="44.17765" lon="5.28222">
        <ele>1717</ele>
        <time>2015-11-17T17:20:43Z</time>
      </trkpt>
      <trkpt lat="44.17765" lon="5.2823">
        <ele>1715</ele>
        <time>2015-11-17T17:22:43Z</time>
      </trkpt>
      <trkpt lat="44.17765" lon="5.28242">
        <ele>1713</ele>
        <time>2015-11-17T17:24:43Z</time>
      </trkpt>
      <trkpt lat="44.17762" lon="5.28246">
        <ele>1714</ele>
        <time>2015-11-17T17:26:43Z</time>
      </trkpt>
      <trkpt lat="44.1776" lon="5.28243">
        <ele>1716</ele>
        <time>2015-11-17T17:28:43Z</time>
      </trkpt>
      <trkpt lat="44.17757" lon="5.28239">
        <ele>1718</ele>
        <time>2015-11-17T17:30:43Z</time>
      </trkpt>
      <trkpt lat="44.17742" lon="5.28204">
        <ele>1733</ele>
        <time>2015-11-17T17:32:43Z</time>
      </trkpt>
      <trkpt lat="44.17738" lon="5.28195">
        <ele>1736</ele>
        <time>2015-11-17T17:34:43Z</time>
      </trkpt>
      <trkpt lat="44.17737" lon="5.2819">
        <ele>1738</ele>
        <time>2015-11-17T17:36:43Z</time>
      </trkpt>
      <trkpt lat="44.17736" lon="5.28181">
        <ele>1741</ele>
        <time>2015-11-17T17:38:43Z</time>
      </trkpt>
      <trkpt lat="44.17735" lon="5.28172">
        <ele>1743</ele>
        <time>2015-11-17T17:40:43Z</time>
      </trkpt>
      <trkpt lat="44.17735" lon="5.28167">
        <ele>1744</ele>
        <time>2015-11-17T17:42:43Z</time>
      </trkpt>
      <trkpt lat="44.17735" lon="5.28158">
        <ele>1746</ele>
        <time>2015-11-17T17:44:43Z</time>
      </trkpt>
      <trkpt lat="44.17736" lon="5.28148">
        <ele>1747</ele>
        <time>2015-11-17T17:46:43Z</time>
      </trkpt>
      <trkpt lat="44.17737" lon="5.28139">
        <ele>1748</ele>
        <time>2015-11-17T17:48:43Z</time>
      </trkpt>
      <trkpt lat="44.1774" lon="5.28125">
        <ele>1748</ele>
        <time>2015-11-17T17:50:43Z</time>
      </trkpt>
      <trkpt lat="44.17744" lon="5.28104">
        <ele>1749</ele>
        <time>2015-11-17T17:52:43Z</time>
      </trkpt>
      <trkpt lat="44.17747" lon="5.28084">
        <ele>1750</ele>
        <time>2015-11-17T17:54:43Z</time>
      </trkpt>
      <trkpt lat="44.17748" lon="5.28072">
        <ele>1749</ele>
        <time>2015-11-17T17:56:43Z</time>
      </trkpt>
      <trkpt lat="44.17749" lon="5.28055">
        <ele>1749</ele>
        <time>2015-11-17T17:58:43Z</time>
      </trkpt>
      <trkpt lat="44.17749" lon="5.28046">
        <ele>1749</ele>
        <time>2015-11-17T18:00:43Z</time>
      </trkpt>
      <trkpt lat="44.17749" lon="5.28041">
        <ele>1749</ele>
        <time>2015-11-17T18:02:43Z</time>
      </trkpt>
      <trkpt lat="44.17745" lon="5.28043">
        <ele>1752</ele>
        <time>2015-11-17T18:04:43Z</time>
      </trkpt>
      <trkpt lat="44.17743" lon="5.28049">
        <ele>1753</ele>
        <time>2015-11-17T18:06:43Z</time>
      </trkpt>
      <trkpt lat="44.1774" lon="5.28058">
        <ele>1755</ele>
        <time>2015-11-17T18:08:43Z</time>
      </trkpt>
      <trkpt lat="44.17734" lon="5.28081">
        <ele>1758</ele>
        <time>2015-11-17T18:10:43Z</time>
      </trkpt>
      <trkpt lat="44.17729" lon="5.28103">
        <ele>1758</ele>
        <time>2015-11-17T18:12:43Z</time>
      </trkpt>
      <trkpt lat="44.17727" lon="5.28111">
        <ele>1758</ele>
        <time>2015-11-17T18:14:43Z</time>
      </trkpt>
      <trkpt lat="44.17723" lon="5.28126">
        <ele>1757</ele>
        <time>2015-11-17T18:16:43Z</time>
      </trkpt>
      <trkpt lat="44.17721" lon="5.28134">
        <ele>1757</ele>
        <time>2015-11-17T18:18:43Z</time>
      </trkpt>
      <trkpt lat="44.17712" lon="5.28172">
        <ele>1754</ele>
        <time>2015-11-17T18:20:43Z</time>
      </trkpt>
      <trkpt lat="44.17705" lon="5.28197">
        <ele>1750</ele>
        <time>2015-11-17T18:22:43Z</time>
      </trkpt>
      <trkpt lat="44.17702" lon="5.28205">
        <ele>1749</ele>
        <time>2015-11-17T18:24:43Z</time>
      </trkpt>
      <trkpt lat="44.17699" lon="5.28209">
        <ele>1749</ele>
        <time>2015-11-17T18:26:43Z</time>
      </trkpt>
      <trkpt lat="44.17696" lon="5.28205">
        <ele>1752</ele>
        <time>2015-11-17T18:28:43Z</time>
      </trkpt>
      <trkpt lat="44.17695" lon="5.28202">
        <ele>1753</ele>
        <time>2015-11-17T18:30:43Z</time>
      </trkpt>
      <trkpt lat="44.17694" lon="5.28189">
        <ele>1758</ele>
        <time>2015-11-17T18:32:43Z</time>
      </trkpt>
      <trkpt lat="44.17694" lon="5.28164">
        <ele>1765</ele>
        <time>2015-11-17T18:34:43Z</time>
      </trkpt>
      <trkpt lat="44.17695" lon="5.28079">
        <ele>1782</ele>
        <time>2015-11-17T18:36:43Z</time>
      </trkpt>
      <trkpt lat="44.17695" lon="5.28064">
        <ele>1783</ele>
        <time>2015-11-17T18:38:43Z</time>
      </trkpt>
      <trkpt lat="44.17694" lon="5.28045">
        <ele>1784</ele>
        <time>2015-11-17T18:40:43Z</time>
      </trkpt>
      <trkpt lat="44.17693" lon="5.28039">
        <ele>1784</ele>
        <time>2015-11-17T18:42:43Z</time>
      </trkpt>
      <trkpt lat="44.17692" lon="5.28036">
        <ele>1785</ele>
        <time>2015-11-17T18:44:43Z</time>
      </trkpt>
      <trkpt lat="44.1769" lon="5.28038">
        <ele>1786</ele>
        <time>2015-11-17T18:46:43Z</time>
      </trkpt>
      <trkpt lat="44.17689" lon="5.28041">
        <ele>1787</ele>
        <time>2015-11-17T18:48:43Z</time>
      </trkpt>
      <trkpt lat="44.17686" lon="5.2805">
        <ele>1789</ele>
        <time>2015-11-17T18:50:43Z</time>
      </trkpt>
      <trkpt lat="44.17681" lon="5.2807">
        <ele>1791</ele>
        <time>2015-11-17T18:52:43Z</time>
      </trkpt>
      <trkpt lat="44.17673" lon="5.28108">
        <ele>1790</ele>
        <time>2015-11-17T18:54:43Z</time>
      </trkpt>
      <trkpt lat="44.17667" lon="5.28133">
        <ele>1787</ele>
        <time>2015-11-17T18:56:43Z</time>
      </trkpt>
      <trkpt lat="44.17664" lon="5.28138">
        <ele>1787</ele>
        <time>2015-11-17T18:58:43Z</time>
      </trkpt>
      <trkpt lat="44.17661" lon="5.28138">
        <ele>1788</ele>
        <time>2015-11-17T19:00:43Z</time>
      </trkpt>
      <trkpt lat="44.17657" lon="5.28135">
        <ele>1791</ele>
        <time>2015-11-17T19:02:43Z</time>
      </trkpt>
      <trkpt lat="44.17653" lon="5.28129">
        <ele>1794</ele>
        <time>2015-11-17T19:04:43Z</time>
      </trkpt>
      <trkpt lat="44.17649" lon="5.2812">
        <ele>1798</ele>
        <time>2015-11-17T19:06:43Z</time>
      </trkpt>
      <trkpt lat="44.17645" lon="5.28111">
        <ele>1803</ele>
        <time>2015-11-17T19:08:43Z</time>
      </trkpt>
      <trkpt lat="44.17642" lon="5.28102">
        <ele>1807</ele>
        <time>2015-11-17T19:10:43Z</time>
      </trkpt>
      <trkpt lat="44.17638" lon="5.28088">
        <ele>1812</ele>
        <time>2015-11-17T19:12:43Z</time>
      </trkpt>
      <trkpt lat="44.17633" lon="5.28068">
        <ele>1816</ele>
        <time>2015-11-17T19:14:43Z</time>
      </trkpt>
      <trkpt lat="44.17626" lon="5.28043">
        <ele>1821</ele>
        <time>2015-11-17T19:16:43Z</time>
      </trkpt>
      <trkpt lat="44.17618" lon="5.28019">
        <ele>1826</ele>
        <time>2015-11-17T19:18:43Z</time>
      </trkpt>
      <trkpt lat="44.17609" lon="5.27992">
        <ele>1832</ele>
        <time>2015-11-17T19:20:43Z</time>
      </trkpt>
      <trkpt lat="44.17607" lon="5.27988">
        <ele>1832</ele>
        <time>2015-11-17T19:22:43Z</time>
      </trkpt>
      <trkpt lat="44.17604" lon="5.27979">
        <ele>1834</ele>
        <time>2015-11-17T19:24:43Z</time>
      </trkpt>
      <trkpt lat="44.17595" lon="5.27956">
        <ele>1838</ele>
        <time>2015-11-17T19:26:43Z</time>
      </trkpt>
      <trkpt lat="44.17593" lon="5.27951">
        <ele>1839</ele>
        <time>2015-11-17T19:28:43Z</time>
      </trkpt>
      <trkpt lat="44.17591" lon="5.27948">
        <ele>1840</ele>
        <time>2015-11-17T19:30:43Z</time>
      </trkpt>
      <trkpt lat="44.17588" lon="5.27946">
        <ele>1842</ele>
        <time>2015-11-17T19:32:43Z</time>
      </trkpt>
      <trkpt lat="44.17585" lon="5.27944">
        <ele>1843</ele>
        <time>2015-11-17T19:34:43Z</time>
      </trkpt>
      <trkpt lat="44.17581" lon="5.27943">
        <ele>1845</ele>
        <time>2015-11-17T19:36:43Z</time>
      </trkpt>
      <trkpt lat="44.17574" lon="5.27943">
        <ele>1849</ele>
        <time>2015-11-17T19:38:43Z</time>
      </trkpt>
      <trkpt lat="44.1757" lon="5.27944">
        <ele>1851</ele>
        <time>2015-11-17T19:40:43Z</time>
      </trkpt>
      <trkpt lat="44.17567" lon="5.27945">
        <ele>1852</ele>
        <time>2015-11-17T19:42:43Z</time>
      </trkpt>
      <trkpt lat="44.17563" lon="5.27947">
        <ele>1854</ele>
        <time>2015-11-17T19:44:43Z</time>
      </trkpt>
      <trkpt lat="44.1756" lon="5.2795">
        <ele>1855</ele>
        <time>2015-11-17T19:46:43Z</time>
      </trkpt>
      <trkpt lat="44.17556" lon="5.27953">
        <ele>1857</ele>
        <time>2015-11-17T19:48:43Z</time>
      </trkpt>
      <trkpt lat="44.17553" lon="5.27956">
        <ele>1859</ele>
        <time>2015-11-17T19:50:43Z</time>
      </trkpt>
      <trkpt lat="44.17551" lon="5.2796">
        <ele>1859</ele>
        <time>2015-11-17T19:52:43Z</time>
      </trkpt>
      <trkpt lat="44.17549" lon="5.27965">
        <ele>1860</ele>
        <time>2015-11-17T19:54:43Z</time>
      </trkpt>
      <trkpt lat="44.17547" lon="5.27969">
        <ele>1861</ele>
        <time>2015-11-17T19:56:43Z</time>
      </trkpt>
      <trkpt lat="44.17545" lon="5.27974">
        <ele>1862</ele>
        <time>2015-11-17T19:58:43Z</time>
      </trkpt>
      <trkpt lat="44.17544" lon="5.27977">
        <ele>1863</ele>
        <time>2015-11-17T20:00:43Z</time>
      </trkpt>
      <trkpt lat="44.1754" lon="5.27975">
        <ele>1864</ele>
        <time>2015-11-17T20:02:43Z</time>
      </trkpt>
      <trkpt lat="44.17537" lon="5.27963">
        <ele>1866</ele>
        <time>2015-11-17T20:04:43Z</time>
      </trkpt>
      <trkpt lat="44.17535" lon="5.27952">
        <ele>1867</ele>
        <time>2015-11-17T20:06:43Z</time>
      </trkpt>
      <trkpt lat="44.17533" lon="5.27939">
        <ele>1868</ele>
        <time>2015-11-17T20:08:43Z</time>
      </trkpt>
      <trkpt lat="44.17531" lon="5.27925">
        <ele>1869</ele>
        <time>2015-11-17T20:10:43Z</time>
      </trkpt>
      <trkpt lat="44.17529" lon="5.27911">
        <ele>1869</ele>
        <time>2015-11-17T20:12:43Z</time>
      </trkpt>
      <trkpt lat="44.17528" lon="5.27902">
        <ele>1869</ele>
        <time>2015-11-17T20:14:43Z</time>
      </trkpt>
      <trkpt lat="44.17526" lon="5.27894">
        <ele>1869</ele>
        <time>2015-11-17T20:16:43Z</time>
      </trkpt>
      <trkpt lat="44.17525" lon="5.2789">
        <ele>1869</ele>
        <time>2015-11-17T20:18:43Z</time>
      </trkpt>
      <trkpt lat="44.17524" lon="5.27883">
        <ele>1869</ele>
        <time>2015-11-17T20:20:43Z</time>
      </trkpt>
      <trkpt lat="44.17522" lon="5.27877">
        <ele>1869</ele>
        <time>2015-11-17T20:22:43Z</time>
      </trkpt>
      <trkpt lat="44.17521" lon="5.27873">
        <ele>1869</ele>
        <time>2015-11-17T20:24:43Z</time>
      </trkpt>
      <trkpt lat="44.17519" lon="5.27868">
        <ele>1870</ele>
        <time>2015-11-17T20:26:43Z</time>
      </trkpt>
      <trkpt lat="44.17516" lon="5.27872">
        <ele>1872</ele>
        <time>2015-11-17T20:28:43Z</time>
      </trkpt>
      <trkpt lat="44.17515" lon="5.27885">
        <ele>1873</ele>
        <time>2015-11-17T20:30:43Z</time>
      </trkpt>
      <trkpt lat="44.17514" lon="5.27912">
        <ele>1877</ele>
        <time>2015-11-17T20:32:43Z</time>
      </trkpt>
      <trkpt lat="44.17514" lon="5.27955">
        <ele>1877</ele>
        <time>2015-11-17T20:34:43Z</time>
      </trkpt>
      <trkpt lat="44.17515" lon="5.27984">
        <ele>1876</ele>
        <time>2015-11-17T20:36:43Z</time>
      </trkpt>
      <trkpt lat="44.17515" lon="5.28003">
        <ele>1875</ele>
        <time>2015-11-17T20:38:43Z</time>
      </trkpt>
      <trkpt lat="44.17515" lon="5.28012">
        <ele>1874</ele>
        <time>2015-11-17T20:40:43Z</time>
      </trkpt>
      <trkpt lat="44.17515" lon="5.28046">
        <ele>1871</ele>
        <time>2015-11-17T20:42:43Z</time>
      </trkpt>
      <trkpt lat="44.17515" lon="5.28061">
        <ele>1870</ele>
        <time>2015-11-17T20:44:43Z</time>
      </trkpt>
      <trkpt lat="44.17514" lon="5.28066">
        <ele>1870</ele>
        <time>2015-11-17T20:46:43Z</time>
      </trkpt>
      <trkpt lat="44.17513" lon="5.2807">
        <ele>1870</ele>
        <time>2015-11-17T20:48:43Z</time>
      </trkpt>
      <trkpt lat="44.17509" lon="5.28074">
        <ele>1871</ele>
        <time>2015-11-17T20:50:43Z</time>
      </trkpt>
      <trkpt lat="44.17506" lon="5.28075">
        <ele>1872</ele>
        <time>2015-11-17T20:52:43Z</time>
      </trkpt>
      <trkpt lat="44.17503" lon="5.28076">
        <ele>1873</ele>
        <time>2015-11-17T20:54:43Z</time>
      </trkpt>
      <trkpt lat="44.17496" lon="5.28075">
        <ele>1874</ele>
        <time>2015-11-17T20:56:43Z</time>
      </trkpt>
      <trkpt lat="44.17487" lon="5.28073">
        <ele>1874</ele>
        <time>2015-11-17T20:58:43Z</time>
      </trkpt>
      <trkpt lat="44.17474" lon="5.28069">
        <ele>1873</ele>
        <time>2015-11-17T21:00:43Z</time>
      </trkpt>
      <trkpt lat="44.17466" lon="5.28067">
        <ele>1872</ele>
        <time>2015-11-17T21:02:43Z</time>
      </trkpt>
      <trkpt lat="44.17462" lon="5.28067">
        <ele>1872</ele>
        <time>2015-11-17T21:04:43Z</time>
      </trkpt>
      <trkpt lat="44.17456" lon="5.28066">
        <ele>1871</ele>
        <time>2015-11-17T21:06:43Z</time>
      </trkpt>
      <trkpt lat="44.17451" lon="5.28064">
        <ele>1871</ele>
        <time>2015-11-17T21:08:43Z</time>
      </trkpt>
      <trkpt lat="44.17446" lon="5.28061">
        <ele>1871</ele>
        <time>2015-11-17T21:10:43Z</time>
      </trkpt>
      <trkpt lat="44.17442" lon="5.28058">
        <ele>1871</ele>
        <time>2015-11-17T21:12:43Z</time>
      </trkpt>
      <trkpt lat="44.17439" lon="5.28053">
        <ele>1872</ele>
        <time>2015-11-17T21:14:43Z</time>
      </trkpt>
      <trkpt lat="44.17436" lon="5.28049">
        <ele>1872</ele>
        <time>2015-11-17T21:16:43Z</time>
      </trkpt>
      <trkpt lat="44.17433" lon="5.28043">
        <ele>1873</ele>
        <time>2015-11-17T21:18:43Z</time>
      </trkpt>
      <trkpt lat="44.17426" lon="5.28027">
        <ele>1874</ele>
        <time>2015-11-17T21:20:43Z</time>
      </trkpt>
      <trkpt lat="44.17425" lon="5.28024">
        <ele>1875</ele>
        <time>2015-11-17T21:22:43Z</time>
      </trkpt>
      <trkpt lat="44.17417" lon="5.28003">
        <ele>1878</ele>
        <time>2015-11-17T21:24:43Z</time>
      </trkpt>
      <trkpt lat="44.17414" lon="5.27996">
        <ele>1878</ele>
        <time>2015-11-17T21:26:43Z</time>
      </trkpt>
      <trkpt lat="44.17409" lon="5.27986">
        <ele>1879</ele>
        <time>2015-11-17T21:28:43Z</time>
      </trkpt>
      <trkpt lat="44.174" lon="5.27971">
        <ele>1881</ele>
        <time>2015-11-17T21:30:43Z</time>
      </trkpt>
      <trkpt lat="44.1739" lon="5.27955">
        <ele>1882</ele>
        <time>2015-11-17T21:32:43Z</time>
      </trkpt>
      <trkpt lat="44.17382" lon="5.27941">
        <ele>1883</ele>
        <time>2015-11-17T21:34:43Z</time>
      </trkpt>
      <trkpt lat="44.17371" lon="5.2792">
        <ele>1886</ele>
        <time>2015-11-17T21:36:43Z</time>
      </trkpt>
      <trkpt lat="44.17357" lon="5.27892">
        <ele>1887</ele>
        <time>2015-11-17T21:38:43Z</time>
      </trkpt>
      <trkpt lat="44.17355" lon="5.27887">
        <ele>1887</ele>
        <time>2015-11-17T21:40:43Z</time>
      </trkpt>
      <trkpt lat="44.17351" lon="5.27875">
        <ele>1889</ele>
        <time>2015-11-17T21:42:43Z</time>
      </trkpt>
      <trkpt lat="44.17349" lon="5.27867">
        <ele>1890</ele>
        <time>2015-11-17T21:44:43Z</time>
      </trkpt>
      <trkpt lat="44.17347" lon="5.2786">
        <ele>1890</ele>
        <time>2015-11-17T21:46:43Z</time>
      </trkpt>
      <trkpt lat="44.17346" lon="5.27852">
        <ele>1892</ele>
        <time>2015-11-17T21:48:43Z</time>
      </trkpt>
      <trkpt lat="44.17345" lon="5.27844">
        <ele>1893</ele>
        <time>2015-11-17T21:50:43Z</time>
      </trkpt>
      <trkpt lat="44.17344" lon="5.27829">
        <ele>1894</ele>
        <time>2015-11-17T21:52:43Z</time>
      </trkpt>
      <trkpt lat="44.17345" lon="5.27787">
        <ele>1891</ele>
        <time>2015-11-17T21:54:43Z</time>
      </trkpt>
      <trkpt lat="44.17345" lon="5.27763">
        <ele>1889</ele>
        <time>2015-11-17T21:56:43Z</time>
      </trkpt>
      <trkpt lat="44.17344" lon="5.27752">
        <ele>1888</ele>
        <time>2015-11-17T21:58:43Z</time>
      </trkpt>
      <trkpt lat="44.17342" lon="5.27733">
        <ele>1884</ele>
        <time>2015-11-17T22:00:43Z</time>
      </trkpt>
      <trkpt lat="44.17341" lon="5.2772">
        <ele>1881</ele>
        <time>2015-11-17T22:02:43Z</time>
      </trkpt>
      <trkpt lat="44.17338" lon="5.27704">
        <ele>1878</ele>
        <time>2015-11-17T22:04:43Z</time>
      </trkpt>
      <trkpt lat="44.17334" lon="5.27684">
        <ele>1874</ele>
        <time>2015-11-17T22:06:43Z</time>
      </trkpt>
      <trkpt lat="44.17328" lon="5.2766">
        <ele>1867</ele>
        <time>2015-11-17T22:08:43Z</time>
      </trkpt>
      <trkpt lat="44.17317" lon="5.27611">
        <ele>1856</ele>
        <time>2015-11-17T22:10:43Z</time>
      </trkpt>
      <trkpt lat="44.17317" lon="5.27607">
        <ele>1856</ele>
        <time>2015-11-17T22:12:43Z</time>
      </trkpt>
      <trkpt lat="44.1731" lon="5.2758">
        <ele>1850</ele>
        <time>2015-11-17T22:14:43Z</time>
      </trkpt>
      <trkpt lat="44.17307" lon="5.27566">
        <ele>1849</ele>
        <time>2015-11-17T22:16:43Z</time>
      </trkpt>
      <trkpt lat="44.17305" lon="5.27556">
        <ele>1847</ele>
        <time>2015-11-17T22:18:43Z</time>
      </trkpt>
      <trkpt lat="44.17302" lon="5.27536">
        <ele>1845</ele>
        <time>2015-11-17T22:20:43Z</time>
      </trkpt>
      <trkpt lat="44.17301" lon="5.27528">
        <ele>1845</ele>
        <time>2015-11-17T22:22:43Z</time>
      </trkpt>
      <trkpt lat="44.173" lon="5.27523">
        <ele>1844</ele>
        <time>2015-11-17T22:24:43Z</time>
      </trkpt>
      <trkpt lat="44.17298" lon="5.27514">
        <ele>1843</ele>
        <time>2015-11-17T22:26:43Z</time>
      </trkpt>
      <trkpt lat="44.17294" lon="5.27506">
        <ele>1843</ele>
        <time>2015-11-17T22:28:43Z</time>
      </trkpt>
      <trkpt lat="44.17288" lon="5.27496">
        <ele>1842</ele>
        <time>2015-11-17T22:30:43Z</time>
      </trkpt>
      <trkpt lat="44.17282" lon="5.27487">
        <ele>1841</ele>
        <time>2015-11-17T22:32:43Z</time>
      </trkpt>
      <trkpt lat="44.17278" lon="5.27482">
        <ele>1841</ele>
        <time>2015-11-17T22:34:43Z</time>
      </trkpt>
      <trkpt lat="44.17275" lon="5.27477">
        <ele>1840</ele>
        <time>2015-11-17T22:36:43Z</time>
      </trkpt>
      <trkpt lat="44.17268" lon="5.27468">
        <ele>1840</ele>
        <time>2015-11-17T22:38:43Z</time>
      </trkpt>
      <trkpt lat="44.17256" lon="5.27452">
        <ele>1838</ele>
        <time>2015-11-17T22:40:43Z</time>
      </trkpt>
      <trkpt lat="44.17249" lon="5.27441">
        <ele>1837</ele>
        <time>2015-11-17T22:42:43Z</time>
      </trkpt>
      <trkpt lat="44.17241" lon="5.27429">
        <ele>1834</ele>
        <time>2015-11-17T22:44:43Z</time>
      </trkpt>
      <trkpt lat="44.17232" lon="5.2741">
        <ele>1830</ele>
        <time>2015-11-17T22:46:43Z</time>
      </trkpt>
      <trkpt lat="44.17229" lon="5.27403">
        <ele>1828</ele>
        <time>2015-11-17T22:48:43Z</time>
      </trkpt>
      <trkpt lat="44.17226" lon="5.27396">
        <ele>1827</ele>
        <time>2015-11-17T22:50:43Z</time>
      </trkpt>
      <trkpt lat="44.17224" lon="5.27389">
        <ele>1826</ele>
        <time>2015-11-17T22:52:43Z</time>
      </trkpt>
      <trkpt lat="44.17221" lon="5.27373">
        <ele>1824</ele>
        <time>2015-11-17T22:54:43Z</time>
      </trkpt>
      <trkpt lat="44.1722" lon="5.27366">
        <ele>1824</ele>
        <time>2015-11-17T22:56:43Z</time>
      </trkpt>
      <trkpt lat="44.17219" lon="5.27357">
        <ele>1823</ele>
        <time>2015-11-17T22:58:43Z</time>
      </trkpt>
      <trkpt lat="44.17219" lon="5.27349">
        <ele>1822</ele>
        <time>2015-11-17T23:00:43Z</time>
      </trkpt>
      <trkpt lat="44.17219" lon="5.2734">
        <ele>1822</ele>
        <time>2015-11-17T23:02:43Z</time>
      </trkpt>
      <trkpt lat="44.17219" lon="5.27329">
        <ele>1821</ele>
        <time>2015-11-17T23:04:43Z</time>
      </trkpt>
      <trkpt lat="44.17218" lon="5.27302">
        <ele>1819</ele>
        <time>2015-11-17T23:06:43Z</time>
      </trkpt>
      <trkpt lat="44.17215" lon="5.27251">
        <ele>1814</ele>
        <time>2015-11-17T23:08:43Z</time>
      </trkpt>
      <trkpt lat="44.17214" lon="5.27222">
        <ele>1811</ele>
        <time>2015-11-17T23:10:43Z</time>
      </trkpt>
      <trkpt lat="44.17214" lon="5.27218">
        <ele>1811</ele>
        <time>2015-11-17T23:12:43Z</time>
      </trkpt>
      <trkpt lat="44.17214" lon="5.27207">
        <ele>1810</ele>
        <time>2015-11-17T23:14:43Z</time>
      </trkpt>
      <trkpt lat="44.17214" lon="5.27201">
        <ele>1809</ele>
        <time>2015-11-17T23:16:43Z</time>
      </trkpt>
      <trkpt lat="44.17214" lon="5.27173">
        <ele>1807</ele>
        <time>2015-11-17T23:18:43Z</time>
      </trkpt>
      <trkpt lat="44.17212" lon="5.2714">
        <ele>1802</ele>
        <time>2015-11-17T23:20:43Z</time>
      </trkpt>
      <trkpt lat="44.1721" lon="5.27114">
        <ele>1799</ele>
        <time>2015-11-17T23:22:43Z</time>
      </trkpt>
      <trkpt lat="44.17208" lon="5.27096">
        <ele>1796</ele>
        <time>2015-11-17T23:24:43Z</time>
      </trkpt>
      <trkpt lat="44.17205" lon="5.27078">
        <ele>1794</ele>
        <time>2015-11-17T23:26:43Z</time>
      </trkpt>
      <trkpt lat="44.17204" lon="5.27069">
        <ele>1793</ele>
        <time>2015-11-17T23:28:43Z</time>
      </trkpt>
      <trkpt lat="44.172" lon="5.27051">
        <ele>1791</ele>
        <time>2015-11-17T23:30:43Z</time>
      </trkpt>
      <trkpt lat="44.17198" lon="5.27043">
        <ele>1790</ele>
        <time>2015-11-17T23:32:43Z</time>
      </trkpt>
      <trkpt lat="44.17193" lon="5.27026">
        <ele>1787</ele>
        <time>2015-11-17T23:34:43Z</time>
      </trkpt>
      <trkpt lat="44.1719" lon="5.27018">
        <ele>1786</ele>
        <time>2015-11-17T23:36:43Z</time>
      </trkpt>
      <trkpt lat="44.17187" lon="5.27011">
        <ele>1785</ele>
        <time>2015-11-17T23:38:43Z</time>
      </trkpt>
      <trkpt lat="44.1718" lon="5.26997">
        <ele>1783</ele>
        <time>2015-11-17T23:40:43Z</time>
      </trkpt>
      <trkpt lat="44.17176" lon="5.26991">
        <ele>1782</ele>
        <time>2015-11-17T23:42:43Z</time>
      </trkpt>
      <trkpt lat="44.17172" lon="5.26985">
        <ele>1781</ele>
        <time>2015-11-17T23:44:43Z</time>
      </trkpt>
      <trkpt lat="44.17168" lon="5.2698">
        <ele>1780</ele>
        <time>2015-11-17T23:46:43Z</time>
      </trkpt>
      <trkpt lat="44.17163" lon="5.26975">
        <ele>1779</ele>
        <time>2015-11-17T23:48:43Z</time>
      </trkpt>
      <trkpt lat="44.1716" lon="5.26973">
        <ele>1778</ele>
        <time>2015-11-17T23:50:43Z</time>
      </trkpt>
      <trkpt lat="44.17156" lon="5.26971">
        <ele>1777</ele>
        <time>2015-11-17T23:52:43Z</time>
      </trkpt>
      <trkpt lat="44.17153" lon="5.26971">
        <ele>1777</ele>
        <time>2015-11-17T23:54:43Z</time>
      </trkpt>
      <trkpt lat="44.17149" lon="5.26973">
        <ele>1777</ele>
        <time>2015-11-17T23:56:43Z</time>
      </trkpt>
      <trkpt lat="44.17145" lon="5.26975">
        <ele>1776</ele>
        <time>2015-11-17T23:58:43Z</time>
      </trkpt>
      <trkpt lat="44.17142" lon="5.26978">
        <ele>1776</ele>
        <time>2015-11-18T00:00:43Z</time>
      </trkpt>
      <trkpt lat="44.17138" lon="5.26982">
        <ele>1776</ele>
        <time>2015-11-18T00:02:43Z</time>
      </trkpt>
      <trkpt lat="44.17134" lon="5.26987">
        <ele>1776</ele>
        <time>2015-11-18T00:04:43Z</time>
      </trkpt>
      <trkpt lat="44.17131" lon="5.26994">
        <ele>1776</ele>
        <time>2015-11-18T00:06:43Z</time>
      </trkpt>
      <trkpt lat="44.17123" lon="5.27008">
        <ele>1776</ele>
        <time>2015-11-18T00:08:43Z</time>
      </trkpt>
      <trkpt lat="44.1712" lon="5.27016">
        <ele>1776</ele>
        <time>2015-11-18T00:10:43Z</time>
      </trkpt>
      <trkpt lat="44.17112" lon="5.27034">
        <ele>1775</ele>
        <time>2015-11-18T00:12:43Z</time>
      </trkpt>
      <trkpt lat="44.17105" lon="5.27053">
        <ele>1775</ele>
        <time>2015-11-18T00:14:43Z</time>
      </trkpt>
      <trkpt lat="44.17101" lon="5.27064">
        <ele>1774</ele>
        <time>2015-11-18T00:16:43Z</time>
      </trkpt>
      <trkpt lat="44.17088" lon="5.27107">
        <ele>1773</ele>
        <time>2015-11-18T00:18:43Z</time>
      </trkpt>
      <trkpt lat="44.17079" lon="5.27139">
        <ele>1772</ele>
        <time>2015-11-18T00:20:43Z</time>
      </trkpt>
      <trkpt lat="44.17068" lon="5.27178">
        <ele>1769</ele>
        <time>2015-11-18T00:22:43Z</time>
      </trkpt>
      <trkpt lat="44.17064" lon="5.27195">
        <ele>1768</ele>
        <time>2015-11-18T00:24:43Z</time>
      </trkpt>
      <trkpt lat="44.17061" lon="5.27203">
        <ele>1767</ele>
        <time>2015-11-18T00:26:43Z</time>
      </trkpt>
      <trkpt lat="44.1706" lon="5.2721">
        <ele>1767</ele>
        <time>2015-11-18T00:28:43Z</time>
      </trkpt>
      <trkpt lat="44.17056" lon="5.27224">
        <ele>1766</ele>
        <time>2015-11-18T00:30:43Z</time>
      </trkpt>
      <trkpt lat="44.17053" lon="5.27234">
        <ele>1765</ele>
        <time>2015-11-18T00:32:43Z</time>
      </trkpt>
      <trkpt lat="44.17052" lon="5.27233">
        <ele>1765</ele>
        <time>2015-11-18T00:34:43Z</time>
      </trkpt>
      <trkpt lat="44.17051" lon="5.27231">
        <ele>1764</ele>
        <time>2015-11-18T00:36:43Z</time>
      </trkpt>
      <trkpt lat="44.17046" lon="5.27233">
        <ele>1763</ele>
        <time>2015-11-18T00:38:43Z</time>
      </trkpt>
      <trkpt lat="44.1704" lon="5.27239">
        <ele>1761</ele>
        <time>2015-11-18T00:40:43Z</time>
      </trkpt>
      <trkpt lat="44.17037" lon="5.27242">
        <ele>1760</ele>
        <time>2015-11-18T00:42:43Z</time>
      </trkpt>
      <trkpt lat="44.17034" lon="5.27246">
        <ele>1759</ele>
        <time>2015-11-18T00:44:43Z</time>
      </trkpt>
      <trkpt lat="44.17027" lon="5.27256">
        <ele>1757</ele>
        <time>2015-11-18T00:46:43Z</time>
      </trkpt>
      <trkpt lat="44.17021" lon="5.27265">
        <ele>1755</ele>
        <time>2015-11-18T00:48:43Z</time>
      </trkpt>
      <trkpt lat="44.17018" lon="5.27273">
        <ele>1755</ele>
        <time>2015-11-18T00:50:43Z</time>
      </trkpt>
      <trkpt lat="44.17014" lon="5.27285">
        <ele>1754</ele>
        <time>2015-11-18T00:52:43Z</time>
      </trkpt>
      <trkpt lat="44.17013" lon="5.2729">
        <ele>1754</ele>
        <time>2015-11-18T00:54:43Z</time>
      </trkpt>
      <trkpt lat="44.17009" lon="5.27299">
        <ele>1753</ele>
        <time>2015-11-18T00:56:43Z</time>
      </trkpt>
      <trkpt lat="44.17006" lon="5.2731">
        <ele>1752</ele>
        <time>2015-11-18T00:58:43Z</time>
      </trkpt>
      <trkpt lat="44.17001" lon="5.27327">
        <ele>1751</ele>
        <time>2015-11-18T01:00:43Z</time>
      </trkpt>
      <trkpt lat="44.16999" lon="5.27333">
        <ele>1751</ele>
        <time>2015-11-18T01:02:43Z</time>
      </trkpt>
      <trkpt lat="44.16997" lon="5.27339">
        <ele>1750</ele>
        <time>2015-11-18T01:04:43Z</time>
      </trkpt>
      <trkpt lat="44.1699" lon="5.27357">
        <ele>1749</ele>
        <time>2015-11-18T01:06:43Z</time>
      </trkpt>
      <trkpt lat="44.16982" lon="5.27375">
        <ele>1747</ele>
        <time>2015-11-18T01:08:43Z</time>
      </trkpt>
      <trkpt lat="44.16979" lon="5.27381">
        <ele>1747</ele>
        <time>2015-11-18T01:10:43Z</time>
      </trkpt>
      <trkpt lat="44.1697" lon="5.27398">
        <ele>1745</ele>
        <time>2015-11-18T01:12:43Z</time>
      </trkpt>
      <trkpt lat="44.16967" lon="5.27403">
        <ele>1744</ele>
        <time>2015-11-18T01:14:43Z</time>
      </trkpt>
      <trkpt lat="44.16956" lon="5.27417">
        <ele>1741</ele>
        <time>2015-11-18T01:16:43Z</time>
      </trkpt>
      <trkpt lat="44.16953" lon="5.27421">
        <ele>1740</ele>
        <time>2015-11-18T01:18:43Z</time>
      </trkpt>
      <trkpt lat="44.16949" lon="5.27426">
        <ele>1739</ele>
        <time>2015-11-18T01:20:43Z</time>
      </trkpt>
      <trkpt lat="44.16938" lon="5.27441">
        <ele>1736</ele>
        <time>2015-11-18T01:22:43Z</time>
      </trkpt>
      <trkpt lat="44.16927" lon="5.27459">
        <ele>1733</ele>
        <time>2015-11-18T01:24:43Z</time>
      </trkpt>
      <trkpt lat="44.16919" lon="5.27472">
        <ele>1731</ele>
        <time>2015-11-18T01:26:43Z</time>
      </trkpt>
      <trkpt lat="44.16911" lon="5.27487">
        <ele>1729</ele>
        <time>2015-11-18T01:28:43Z</time>
      </trkpt>
      <trkpt lat="44.16892" lon="5.27525">
        <ele>1723</ele>
        <time>2015-11-18T01:30:43Z</time>
      </trkpt>
      <trkpt lat="44.16878" lon="5.27557">
        <ele>1719</ele>
        <time>2015-11-18T01:32:43Z</time>
      </trkpt>
      <trkpt lat="44.1686" lon="5.27599">
        <ele>1713</ele>
        <time>2015-11-18T01:34:43Z</time>
      </trkpt>
      <trkpt lat="44.16847" lon="5.27631">
        <ele>1708</ele>
        <time>2015-11-18T01:36:43Z</time>
      </trkpt>
      <trkpt lat="44.16843" lon="5.27639">
        <ele>1707</ele>
        <time>2015-11-18T01:38:43Z</time>
      </trkpt>
      <trkpt lat="44.16841" lon="5.27647">
        <ele>1706</ele>
        <time>2015-11-18T01:40:43Z</time>
      </trkpt>
      <trkpt lat="44.16829" lon="5.27676">
        <ele>1701</ele>
        <time>2015-11-18T01:42:43Z</time>
      </trkpt>
      <trkpt lat="44.16824" lon="5.2769">
        <ele>1699</ele>
        <time>2015-11-18T01:44:43Z</time>
      </trkpt>
      <trkpt lat="44.16815" lon="5.27718">
        <ele>1695</ele>
        <time>2015-11-18T01:46:43Z</time>
      </trkpt>
      <trkpt lat="44.16802" lon="5.27759">
        <ele>1689</ele>
        <time>2015-11-18T01:48:43Z</time>
      </trkpt>
      <trkpt lat="44.1679" lon="5.27797">
        <ele>1683</ele>
        <time>2015-11-18T01:50:43Z</time>
      </trkpt>
      <trkpt lat="44.16772" lon="5.2786">
        <ele>1674</ele>
        <time>2015-11-18T01:52:43Z</time>
      </trkpt>
      <trkpt lat="44.16764" lon="5.27884">
        <ele>1670</ele>
        <time>2015-11-18T01:54:43Z</time>
      </trkpt>
      <trkpt lat="44.16759" lon="5.27897">
        <ele>1668</ele>
        <time>2015-11-18T01:56:43Z</time>
      </trkpt>
      <trkpt lat="44.16754" lon="5.27907">
        <ele>1666</ele>
        <time>2015-11-18T01:58:43Z</time>
      </trkpt>
      <trkpt lat="44.16752" lon="5.27911">
        <ele>1665</ele>
        <time>2015-11-18T02:00:43Z</time>
      </trkpt>
      <trkpt lat="44.1675" lon="5.27914">
        <ele>1664</ele>
        <time>2015-11-18T02:02:43Z</time>
      </trkpt>
      <trkpt lat="44.16745" lon="5.27918">
        <ele>1662</ele>
        <time>2015-11-18T02:04:43Z</time>
      </trkpt>
      <trkpt lat="44.16741" lon="5.27918">
        <ele>1661</ele>
        <time>2015-11-18T02:06:43Z</time>
      </trkpt>
      <trkpt lat="44.16739" lon="5.27917">
        <ele>1661</ele>
        <time>2015-11-18T02:08:43Z</time>
      </trkpt>
      <trkpt lat="44.16736" lon="5.27915">
        <ele>1660</ele>
        <time>2015-11-18T02:10:43Z</time>
      </trkpt>
      <trkpt lat="44.16728" lon="5.27904">
        <ele>1657</ele>
        <time>2015-11-18T02:12:43Z</time>
      </trkpt>
      <trkpt lat="44.16722" lon="5.27893">
        <ele>1656</ele>
        <time>2015-11-18T02:14:43Z</time>
      </trkpt>
      <trkpt lat="44.16719" lon="5.27888">
        <ele>1655</ele>
        <time>2015-11-18T02:16:43Z</time>
      </trkpt>
      <trkpt lat="44.16713" lon="5.27873">
        <ele>1654</ele>
        <time>2015-11-18T02:18:43Z</time>
      </trkpt>
      <trkpt lat="44.16705" lon="5.27858">
        <ele>1651</ele>
        <time>2015-11-18T02:20:43Z</time>
      </trkpt>
      <trkpt lat="44.167" lon="5.27849">
        <ele>1650</ele>
        <time>2015-11-18T02:22:43Z</time>
      </trkpt>
      <trkpt lat="44.16693" lon="5.2784">
        <ele>1648</ele>
        <time>2015-11-18T02:24:43Z</time>
      </trkpt>
      <trkpt lat="44.16689" lon="5.27835">
        <ele>1647</ele>
        <time>2015-11-18T02:26:43Z</time>
      </trkpt>
      <trkpt lat="44.16686" lon="5.27833">
        <ele>1646</ele>
        <time>2015-11-18T02:28:43Z</time>
      </trkpt>
      <trkpt lat="44.16683" lon="5.27832">
        <ele>1645</ele>
        <time>2015-11-18T02:30:43Z</time>
      </trkpt>
      <trkpt lat="44.16676" lon="5.27832">
        <ele>1643</ele>
        <time>2015-11-18T02:32:43Z</time>
      </trkpt>
      <trkpt lat="44.16672" lon="5.27833">
        <ele>1642</ele>
        <time>2015-11-18T02:34:43Z</time>
      </trkpt>
      <trkpt lat="44.1666" lon="5.27838">
        <ele>1638</ele>
        <time>2015-11-18T02:36:43Z</time>
      </trkpt>
      <trkpt lat="44.16656" lon="5.2784">
        <ele>1637</ele>
        <time>2015-11-18T02:38:43Z</time>
      </trkpt>
      <trkpt lat="44.16651" lon="5.27841">
        <ele>1635</ele>
        <time>2015-11-18T02:40:43Z</time>
      </trkpt>
      <trkpt lat="44.16647" lon="5.27843">
        <ele>1634</ele>
        <time>2015-11-18T02:42:43Z</time>
      </trkpt>
      <trkpt lat="44.16644" lon="5.27844">
        <ele>1633</ele>
        <time>2015-11-18T02:44:43Z</time>
      </trkpt>
      <trkpt lat="44.16638" lon="5.27845">
        <ele>1632</ele>
        <time>2015-11-18T02:46:43Z</time>
      </trkpt>
      <trkpt lat="44.16634" lon="5.27843">
        <ele>1631</ele>
        <time>2015-11-18T02:48:43Z</time>
      </trkpt>
      <trkpt lat="44.16621" lon="5.27828">
        <ele>1627</ele>
        <time>2015-11-18T02:50:43Z</time>
      </trkpt>
      <trkpt lat="44.16597" lon="5.27803">
        <ele>1620</ele>
        <time>2015-11-18T02:52:43Z</time>
      </trkpt>
      <trkpt lat="44.16592" lon="5.27798">
        <ele>1619</ele>
        <time>2015-11-18T02:54:43Z</time>
      </trkpt>
      <trkpt lat="44.16589" lon="5.27795">
        <ele>1618</ele>
        <time>2015-11-18T02:56:43Z</time>
      </trkpt>
      <trkpt lat="44.16573" lon="5.27781">
        <ele>1614</ele>
        <time>2015-11-18T02:58:43Z</time>
      </trkpt>
      <trkpt lat="44.1657" lon="5.27779">
        <ele>1613</ele>
        <time>2015-11-18T03:00:43Z</time>
      </trkpt>
      <trkpt lat="44.16566" lon="5.2778">
        <ele>1612</ele>
        <time>2015-11-18T03:02:43Z</time>
      </trkpt>
      <trkpt lat="44.16562" lon="5.27782">
        <ele>1612</ele>
        <time>2015-11-18T03:04:43Z</time>
      </trkpt>
      <trkpt lat="44.16558" lon="5.27787">
        <ele>1611</ele>
        <time>2015-11-18T03:06:43Z</time>
      </trkpt>
      <trkpt lat="44.16553" lon="5.27792">
        <ele>1609</ele>
        <time>2015-11-18T03:08:43Z</time>
      </trkpt>
      <trkpt lat="44.16544" lon="5.27805">
        <ele>1607</ele>
        <time>2015-11-18T03:10:43Z</time>
      </trkpt>
      <trkpt lat="44.16539" lon="5.27812">
        <ele>1606</ele>
        <time>2015-11-18T03:12:43Z</time>
      </trkpt>
      <trkpt lat="44.16534" lon="5.27818">
        <ele>1604</ele>
        <time>2015-11-18T03:14:43Z</time>
      </trkpt>
      <trkpt lat="44.1653" lon="5.27825">
        <ele>1603</ele>
        <time>2015-11-18T03:16:43Z</time>
      </trkpt>
      <trkpt lat="44.16521" lon="5.27834">
        <ele>1600</ele>
        <time>2015-11-18T03:18:43Z</time>
      </trkpt>
      <trkpt lat="44.16518" lon="5.27836">
        <ele>1599</ele>
        <time>2015-11-18T03:20:43Z</time>
      </trkpt>
      <trkpt lat="44.16515" lon="5.27837">
        <ele>1599</ele>
        <time>2015-11-18T03:22:43Z</time>
      </trkpt>
      <trkpt lat="44.16512" lon="5.27835">
        <ele>1598</ele>
        <time>2015-11-18T03:24:43Z</time>
      </trkpt>
      <trkpt lat="44.1651" lon="5.27832">
        <ele>1598</ele>
        <time>2015-11-18T03:26:43Z</time>
      </trkpt>
      <trkpt lat="44.16508" lon="5.27827">
        <ele>1597</ele>
        <time>2015-11-18T03:28:43Z</time>
      </trkpt>
      <trkpt lat="44.16506" lon="5.27821">
        <ele>1597</ele>
        <time>2015-11-18T03:30:43Z</time>
      </trkpt>
      <trkpt lat="44.16503" lon="5.27817">
        <ele>1597</ele>
        <time>2015-11-18T03:32:43Z</time>
      </trkpt>
      <trkpt lat="44.16499" lon="5.27812">
        <ele>1596</ele>
        <time>2015-11-18T03:34:43Z</time>
      </trkpt>
      <trkpt lat="44.16493" lon="5.27806">
        <ele>1594</ele>
        <time>2015-11-18T03:36:43Z</time>
      </trkpt>
      <trkpt lat="44.16464" lon="5.27779">
        <ele>1587</ele>
        <time>2015-11-18T03:38:43Z</time>
      </trkpt>
      <trkpt lat="44.16456" lon="5.27771">
        <ele>1585</ele>
        <time>2015-11-18T03:40:43Z</time>
      </trkpt>
      <trkpt lat="44.16452" lon="5.27765">
        <ele>1584</ele>
        <time>2015-11-18T03:42:43Z</time>
      </trkpt>
      <trkpt lat="44.16447" lon="5.27759">
        <ele>1583</ele>
        <time>2015-11-18T03:44:43Z</time>
      </trkpt>
      <trkpt lat="44.16443" lon="5.27752">
        <ele>1582</ele>
        <time>2015-11-18T03:46:43Z</time>
      </trkpt>
      <trkpt lat="44.16438" lon="5.27744">
        <ele>1581</ele>
        <time>2015-11-18T03:48:43Z</time>
      </trkpt>
      <trkpt lat="44.16435" lon="5.27738">
        <ele>1580</ele>
        <time>2015-11-18T03:50:43Z</time>
      </trkpt>
      <trkpt lat="44.16428" lon="5.27722">
        <ele>1578</ele>
        <time>2015-11-18T03:52:43Z</time>
      </trkpt>
      <trkpt lat="44.16424" lon="5.27711">
        <ele>1577</ele>
        <time>2015-11-18T03:54:43Z</time>
      </trkpt>
      <trkpt lat="44.16422" lon="5.27705">
        <ele>1576</ele>
        <time>2015-11-18T03:56:43Z</time>
      </trkpt>
      <trkpt lat="44.1642" lon="5.27699">
        <ele>1575</ele>
        <time>2015-11-18T03:58:43Z</time>
      </trkpt>
      <trkpt lat="44.16411" lon="5.27669">
        <ele>1572</ele>
        <time>2015-11-18T04:00:43Z</time>
      </trkpt>
      <trkpt lat="44.16404" lon="5.27638">
        <ele>1568</ele>
        <time>2015-11-18T04:02:43Z</time>
      </trkpt>
      <trkpt lat="44.16396" lon="5.27604">
        <ele>1563</ele>
        <time>2015-11-18T04:04:43Z</time>
      </trkpt>
      <trkpt lat="44.16395" lon="5.27598">
        <ele>1562</ele>
        <time>2015-11-18T04:06:43Z</time>
      </trkpt>
      <trkpt lat="44.16392" lon="5.27582">
        <ele>1560</ele>
        <time>2015-11-18T04:08:43Z</time>
      </trkpt>
      <trkpt lat="44.16386" lon="5.2756">
        <ele>1557</ele>
        <time>2015-11-18T04:10:43Z</time>
      </trkpt>
      <trkpt lat="44.16384" lon="5.27549">
        <ele>1555</ele>
        <time>2015-11-18T04:12:43Z</time>
      </trkpt>
      <trkpt lat="44.16378" lon="5.27519">
        <ele>1551</ele>
        <time>2015-11-18T04:14:43Z</time>
      </trkpt>
      <trkpt lat="44.16375" lon="5.27508">
        <ele>1550</ele>
        <time>2015-11-18T04:16:43Z</time>
      </trkpt>
      <trkpt lat="44.16374" lon="5.27504">
        <ele>1549</ele>
        <time>2015-11-18T04:18:43Z</time>
      </trkpt>
      <trkpt lat="44.16372" lon="5.275">
        <ele>1548</ele>
        <time>2015-11-18T04:20:43Z</time>
      </trkpt>
      <trkpt lat="44.1637" lon="5.27497">
        <ele>1548</ele>
        <time>2015-11-18T04:22:43Z</time>
      </trkpt>
      <trkpt lat="44.16366" lon="5.27492">
        <ele>1547</ele>
        <time>2015-11-18T04:24:43Z</time>
      </trkpt>
      <trkpt lat="44.16364" lon="5.27491">
        <ele>1546</ele>
        <time>2015-11-18T04:26:43Z</time>
      </trkpt>
      <trkpt lat="44.16361" lon="5.2749">
        <ele>1546</ele>
        <time>2015-11-18T04:28:43Z</time>
      </trkpt>
      <trkpt lat="44.16353" lon="5.27491">
        <ele>1544</ele>
        <time>2015-11-18T04:30:43Z</time>
      </trkpt>
      <trkpt lat="44.16346" lon="5.27494">
        <ele>1542</ele>
        <time>2015-11-18T04:32:43Z</time>
      </trkpt>
      <trkpt lat="44.16339" lon="5.275">
        <ele>1541</ele>
        <time>2015-11-18T04:34:43Z</time>
      </trkpt>
      <trkpt lat="44.16333" lon="5.27506">
        <ele>1540</ele>
        <time>2015-11-18T04:36:43Z</time>
      </trkpt>
      <trkpt lat="44.16327" lon="5.27515">
        <ele>1539</ele>
        <time>2015-11-18T04:38:43Z</time>
      </trkpt>
      <trkpt lat="44.16322" lon="5.27526">
        <ele>1538</ele>
        <time>2015-11-18T04:40:43Z</time>
      </trkpt>
      <trkpt lat="44.16317" lon="5.27538">
        <ele>1537</ele>
        <time>2015-11-18T04:42:43Z</time>
      </trkpt>
      <trkpt lat="44.16313" lon="5.27551">
        <ele>1537</ele>
        <time>2015-11-18T04:44:43Z</time>
      </trkpt>
      <trkpt lat="44.16309" lon="5.27565">
        <ele>1536</ele>
        <time>2015-11-18T04:46:43Z</time>
      </trkpt>
      <trkpt lat="44.16306" lon="5.2758">
        <ele>1535</ele>
        <time>2015-11-18T04:48:43Z</time>
      </trkpt>
      <trkpt lat="44.16303" lon="5.27596">
        <ele>1534</ele>
        <time>2015-11-18T04:50:43Z</time>
      </trkpt>
      <trkpt lat="44.16301" lon="5.27612">
        <ele>1534</ele>
        <time>2015-11-18T04:52:43Z</time>
      </trkpt>
      <trkpt lat="44.16297" lon="5.27646">
        <ele>1532</ele>
        <time>2015-11-18T04:54:43Z</time>
      </trkpt>
      <trkpt lat="44.16294" lon="5.2768">
        <ele>1530</ele>
        <time>2015-11-18T04:56:43Z</time>
      </trkpt>
      <trkpt lat="44.16292" lon="5.27713">
        <ele>1528</ele>
        <time>2015-11-18T04:58:43Z</time>
      </trkpt>
      <trkpt lat="44.16289" lon="5.27801">
        <ele>1524</ele>
        <time>2015-11-18T05:00:43Z</time>
      </trkpt>
      <trkpt lat="44.16287" lon="5.27813">
        <ele>1523</ele>
        <time>2015-11-18T05:02:43Z</time>
      </trkpt>
      <trkpt lat="44.16287" lon="5.27815">
        <ele>1523</ele>
        <time>2015-11-18T05:04:43Z</time>
      </trkpt>
      <trkpt lat="44.16285" lon="5.27814">
        <ele>1522</ele>
        <time>2015-11-18T05:06:43Z</time>
      </trkpt>
      <trkpt lat="44.16283" lon="5.27809">
        <ele>1522</ele>
        <time>2015-11-18T05:08:43Z</time>
      </trkpt>
      <trkpt lat="44.16281" lon="5.27796">
        <ele>1522</ele>
        <time>2015-11-18T05:10:43Z</time>
      </trkpt>
      <trkpt lat="44.16273" lon="5.27768">
        <ele>1520</ele>
        <time>2015-11-18T05:12:43Z</time>
      </trkpt>
      <trkpt lat="44.16255" lon="5.27716">
        <ele>1515</ele>
        <time>2015-11-18T05:14:43Z</time>
      </trkpt>
      <trkpt lat="44.16218" lon="5.27613">
        <ele>1505</ele>
        <time>2015-11-18T05:16:43Z</time>
      </trkpt>
      <trkpt lat="44.16205" lon="5.27574">
        <ele>1503</ele>
        <time>2015-11-18T05:18:43Z</time>
      </trkpt>
      <trkpt lat="44.16194" lon="5.27537">
        <ele>1502</ele>
        <time>2015-11-18T05:20:43Z</time>
      </trkpt>
      <trkpt lat="44.16184" lon="5.27504">
        <ele>1501</ele>
        <time>2015-11-18T05:22:43Z</time>
      </trkpt>
      <trkpt lat="44.1618" lon="5.27486">
        <ele>1501</ele>
        <time>2015-11-18T05:24:43Z</time>
      </trkpt>
      <trkpt lat="44.16177" lon="5.2747">
        <ele>1500</ele>
        <time>2015-11-18T05:26:43Z</time>
      </trkpt>
      <trkpt lat="44.16176" lon="5.27461">
        <ele>1500</ele>
        <time>2015-11-18T05:28:43Z</time>
      </trkpt>
      <trkpt lat="44.16174" lon="5.27437">
        <ele>1500</ele>
        <time>2015-11-18T05:30:43Z</time>
      </trkpt>
      <trkpt lat="44.16172" lon="5.27395">
        <ele>1498</ele>
        <time>2015-11-18T05:32:43Z</time>
      </trkpt>
      <trkpt lat="44.16171" lon="5.27378">
        <ele>1498</ele>
        <time>2015-11-18T05:34:43Z</time>
      </trkpt>
      <trkpt lat="44.16171" lon="5.2737">
        <ele>1497</ele>
        <time>2015-11-18T05:36:43Z</time>
      </trkpt>
      <trkpt lat="44.1617" lon="5.27353">
        <ele>1496</ele>
        <time>2015-11-18T05:38:43Z</time>
      </trkpt>
      <trkpt lat="44.1617" lon="5.27327">
        <ele>1495</ele>
        <time>2015-11-18T05:40:43Z</time>
      </trkpt>
      <trkpt lat="44.16171" lon="5.2731">
        <ele>1494</ele>
        <time>2015-11-18T05:42:43Z</time>
      </trkpt>
      <trkpt lat="44.16171" lon="5.27294">
        <ele>1493</ele>
        <time>2015-11-18T05:44:43Z</time>
      </trkpt>
      <trkpt lat="44.16173" lon="5.27278">
        <ele>1492</ele>
        <time>2015-11-18T05:46:43Z</time>
      </trkpt>
      <trkpt lat="44.16174" lon="5.27264">
        <ele>1491</ele>
        <time>2015-11-18T05:48:43Z</time>
      </trkpt>
      <trkpt lat="44.16177" lon="5.27252">
        <ele>1490</ele>
        <time>2015-11-18T05:50:43Z</time>
      </trkpt>
      <trkpt lat="44.16178" lon="5.27246">
        <ele>1490</ele>
        <time>2015-11-18T05:52:43Z</time>
      </trkpt>
      <trkpt lat="44.16181" lon="5.27236">
        <ele>1489</ele>
        <time>2015-11-18T05:54:43Z</time>
      </trkpt>
      <trkpt lat="44.16183" lon="5.27233">
        <ele>1489</ele>
        <time>2015-11-18T05:56:43Z</time>
      </trkpt>
      <trkpt lat="44.16187" lon="5.27228">
        <ele>1489</ele>
        <time>2015-11-18T05:58:43Z</time>
      </trkpt>
      <trkpt lat="44.1619" lon="5.27226">
        <ele>1490</ele>
        <time>2015-11-18T06:00:43Z</time>
      </trkpt>
      <trkpt lat="44.16192" lon="5.27224">
        <ele>1490</ele>
        <time>2015-11-18T06:02:43Z</time>
      </trkpt>
      <trkpt lat="44.16197" lon="5.27223">
        <ele>1491</ele>
        <time>2015-11-18T06:04:43Z</time>
      </trkpt>
      <trkpt lat="44.16203" lon="5.27223">
        <ele>1492</ele>
        <time>2015-11-18T06:06:43Z</time>
      </trkpt>
      <trkpt lat="44.16209" lon="5.27224">
        <ele>1493</ele>
        <time>2015-11-18T06:08:43Z</time>
      </trkpt>
      <trkpt lat="44.16227" lon="5.2723">
        <ele>1497</ele>
        <time>2015-11-18T06:10:43Z</time>
      </trkpt>
      <trkpt lat="44.1623" lon="5.27231">
        <ele>1498</ele>
        <time>2015-11-18T06:12:43Z</time>
      </trkpt>
      <trkpt lat="44.16234" lon="5.27231">
        <ele>1499</ele>
        <time>2015-11-18T06:14:43Z</time>
      </trkpt>
      <trkpt lat="44.16238" lon="5.2723">
        <ele>1500</ele>
        <time>2015-11-18T06:16:43Z</time>
      </trkpt>
      <trkpt lat="44.1624" lon="5.27227">
        <ele>1500</ele>
        <time>2015-11-18T06:18:43Z</time>
      </trkpt>
      <trkpt lat="44.16242" lon="5.27222">
        <ele>1500</ele>
        <time>2015-11-18T06:20:43Z</time>
      </trkpt>
      <trkpt lat="44.16243" lon="5.27218">
        <ele>1499</ele>
        <time>2015-11-18T06:22:43Z</time>
      </trkpt>
      <trkpt lat="44.16243" lon="5.27214">
        <ele>1499</ele>
        <time>2015-11-18T06:24:43Z</time>
      </trkpt>
      <trkpt lat="44.16242" lon="5.27204">
        <ele>1498</ele>
        <time>2015-11-18T06:26:43Z</time>
      </trkpt>
      <trkpt lat="44.16241" lon="5.27198">
        <ele>1497</ele>
        <time>2015-11-18T06:28:43Z</time>
      </trkpt>
      <trkpt lat="44.16237" lon="5.27174">
        <ele>1494</ele>
        <time>2015-11-18T06:30:43Z</time>
      </trkpt>
      <trkpt lat="44.16234" lon="5.27161">
        <ele>1492</ele>
        <time>2015-11-18T06:32:43Z</time>
      </trkpt>
      <trkpt lat="44.16227" lon="5.27136">
        <ele>1491</ele>
        <time>2015-11-18T06:34:43Z</time>
      </trkpt>
      <trkpt lat="44.16223" lon="5.27123">
        <ele>1490</ele>
        <time>2015-11-18T06:36:43Z</time>
      </trkpt>
      <trkpt lat="44.16216" lon="5.27102">
        <ele>1487</ele>
        <time>2015-11-18T06:38:43Z</time>
      </trkpt>
      <trkpt lat="44.16198" lon="5.27058">
        <ele>1483</ele>
        <time>2015-11-18T06:40:43Z</time>
      </trkpt>
      <trkpt lat="44.16195" lon="5.2705">
        <ele>1482</ele>
        <time>2015-11-18T06:42:43Z</time>
      </trkpt>
      <trkpt lat="44.16188" lon="5.27034">
        <ele>1481</ele>
        <time>2015-11-18T06:44:43Z</time>
      </trkpt>
      <trkpt lat="44.16162" lon="5.26974">
        <ele>1477</ele>
        <time>2015-11-18T06:46:43Z</time>
      </trkpt>
      <trkpt lat="44.1616" lon="5.26968">
        <ele>1477</ele>
        <time>2015-11-18T06:48:43Z</time>
      </trkpt>
      <trkpt lat="44.16158" lon="5.26962">
        <ele>1477</ele>
        <time>2015-11-18T06:50:43Z</time>
      </trkpt>
      <trkpt lat="44.16157" lon="5.26956">
        <ele>1477</ele>
        <time>2015-11-18T06:52:43Z</time>
      </trkpt>
      <trkpt lat="44.16156" lon="5.26949">
        <ele>1476</ele>
        <time>2015-11-18T06:54:43Z</time>
      </trkpt>
      <trkpt lat="44.16155" lon="5.26936">
        <ele>1477</ele>
        <time>2015-11-18T06:56:43Z</time>
      </trkpt>
      <trkpt lat="44.16156" lon="5.26922">
        <ele>1477</ele>
        <time>2015-11-18T06:58:43Z</time>
      </trkpt>
      <trkpt lat="44.16157" lon="5.26916">
        <ele>1477</ele>
        <time>2015-11-18T07:00:43Z</time>
      </trkpt>
      <trkpt lat="44.1616" lon="5.26902">
        <ele>1477</ele>
        <time>2015-11-18T07:02:43Z</time>
      </trkpt>
      <trkpt lat="44.16162" lon="5.26895">
        <ele>1477</ele>
        <time>2015-11-18T07:04:43Z</time>
      </trkpt>
      <trkpt lat="44.16165" lon="5.26881">
        <ele>1476</ele>
        <time>2015-11-18T07:06:43Z</time>
      </trkpt>
      <trkpt lat="44.16168" lon="5.26873">
        <ele>1476</ele>
        <time>2015-11-18T07:08:43Z</time>
      </trkpt>
      <trkpt lat="44.16173" lon="5.2686">
        <ele>1476</ele>
        <time>2015-11-18T07:10:43Z</time>
      </trkpt>
      <trkpt lat="44.16179" lon="5.26846">
        <ele>1476</ele>
        <time>2015-11-18T07:12:43Z</time>
      </trkpt>
      <trkpt lat="44.16185" lon="5.26833">
        <ele>1476</ele>
        <time>2015-11-18T07:14:43Z</time>
      </trkpt>
      <trkpt lat="44.16191" lon="5.26821">
        <ele>1475</ele>
        <time>2015-11-18T07:16:43Z</time>
      </trkpt>
      <trkpt lat="44.16201" lon="5.26803">
        <ele>1474</ele>
        <time>2015-11-18T07:18:43Z</time>
      </trkpt>
      <trkpt lat="44.1621" lon="5.26788">
        <ele>1473</ele>
        <time>2015-11-18T07:20:43Z</time>
      </trkpt>
      <trkpt lat="44.16213" lon="5.26784">
        <ele>1473</ele>
        <time>2015-11-18T07:22:43Z</time>
      </trkpt>
      <trkpt lat="44.16215" lon="5.2678">
        <ele>1473</ele>
        <time>2015-11-18T07:24:43Z</time>
      </trkpt>
      <trkpt lat="44.16218" lon="5.26776">
        <ele>1473</ele>
        <time>2015-11-18T07:26:43Z</time>
      </trkpt>
      <trkpt lat="44.16221" lon="5.26773">
        <ele>1472</ele>
        <time>2015-11-18T07:28:43Z</time>
      </trkpt>
      <trkpt lat="44.16225" lon="5.26773">
        <ele>1473</ele>
        <time>2015-11-18T07:30:43Z</time>
      </trkpt>
      <trkpt lat="44.16229" lon="5.26774">
        <ele>1473</ele>
        <time>2015-11-18T07:32:43Z</time>
      </trkpt>
      <trkpt lat="44.16233" lon="5.26777">
        <ele>1474</ele>
        <time>2015-11-18T07:34:43Z</time>
      </trkpt>
      <trkpt lat="44.16235" lon="5.26779">
        <ele>1475</ele>
        <time>2015-11-18T07:36:43Z</time>
      </trkpt>
      <trkpt lat="44.16248" lon="5.26792">
        <ele>1478</ele>
        <time>2015-11-18T07:38:43Z</time>
      </trkpt>
      <trkpt lat="44.16255" lon="5.268">
        <ele>1480</ele>
        <time>2015-11-18T07:40:43Z</time>
      </trkpt>
      <trkpt lat="44.16262" lon="5.26806">
        <ele>1482</ele>
        <time>2015-11-18T07:42:43Z</time>
      </trkpt>
      <trkpt lat="44.16266" lon="5.26809">
        <ele>1483</ele>
        <time>2015-11-18T07:44:43Z</time>
      </trkpt>
      <trkpt lat="44.1627" lon="5.2681">
        <ele>1484</ele>
        <time>2015-11-18T07:46:43Z</time>
      </trkpt>
      <trkpt lat="44.16273" lon="5.2681">
        <ele>1485</ele>
        <time>2015-11-18T07:48:43Z</time>
      </trkpt>
      <trkpt lat="44.16275" lon="5.26806">
        <ele>1484</ele>
        <time>2015-11-18T07:50:43Z</time>
      </trkpt>
      <trkpt lat="44.16277" lon="5.26801">
        <ele>1484</ele>
        <time>2015-11-18T07:52:43Z</time>
      </trkpt>
      <trkpt lat="44.16278" lon="5.26792">
        <ele>1483</ele>
        <time>2015-11-18T07:54:43Z</time>
      </trkpt>
      <trkpt lat="44.16278" lon="5.26786">
        <ele>1482</ele>
        <time>2015-11-18T07:56:43Z</time>
      </trkpt>
      <trkpt lat="44.1628" lon="5.26777">
        <ele>1480</ele>
        <time>2015-11-18T07:58:43Z</time>
      </trkpt>
      <trkpt lat="44.16281" lon="5.2677">
        <ele>1479</ele>
        <time>2015-11-18T08:00:43Z</time>
      </trkpt>
      <trkpt lat="44.16285" lon="5.2676">
        <ele>1479</ele>
        <time>2015-11-18T08:02:43Z</time>
      </trkpt>
      <trkpt lat="44.16289" lon="5.26749">
        <ele>1477</ele>
        <time>2015-11-18T08:04:43Z</time>
      </trkpt>
      <trkpt lat="44.16292" lon="5.26742">
        <ele>1477</ele>
        <time>2015-11-18T08:06:43Z</time>
      </trkpt>
      <trkpt lat="44.16298" lon="5.26734">
        <ele>1477</ele>
        <time>2015-11-18T08:08:43Z</time>
      </trkpt>
      <trkpt lat="44.16302" lon="5.26728">
        <ele>1477</ele>
        <time>2015-11-18T08:10:43Z</time>
      </trkpt>
      <trkpt lat="44.16307" lon="5.26724">
        <ele>1478</ele>
        <time>2015-11-18T08:12:43Z</time>
      </trkpt>
      <trkpt lat="44.16311" lon="5.26718">
        <ele>1478</ele>
        <time>2015-11-18T08:14:43Z</time>
      </trkpt>
      <trkpt lat="44.16315" lon="5.26713">
        <ele>1478</ele>
        <time>2015-11-18T08:16:43Z</time>
      </trkpt>
      <trkpt lat="44.16318" lon="5.26708">
        <ele>1478</ele>
        <time>2015-11-18T08:18:43Z</time>
      </trkpt>
      <trkpt lat="44.16319" lon="5.26705">
        <ele>1478</ele>
        <time>2015-11-18T08:20:43Z</time>
      </trkpt>
      <trkpt lat="44.16321" lon="5.26698">
        <ele>1478</ele>
        <time>2015-11-18T08:22:43Z</time>
      </trkpt>
      <trkpt lat="44.16321" lon="5.26694">
        <ele>1478</ele>
        <time>2015-11-18T08:24:43Z</time>
      </trkpt>
      <trkpt lat="44.16322" lon="5.2668">
        <ele>1476</ele>
        <time>2015-11-18T08:26:43Z</time>
      </trkpt>
      <trkpt lat="44.16321" lon="5.26659">
        <ele>1475</ele>
        <time>2015-11-18T08:28:43Z</time>
      </trkpt>
      <trkpt lat="44.16318" lon="5.26637">
        <ele>1474</ele>
        <time>2015-11-18T08:30:43Z</time>
      </trkpt>
      <trkpt lat="44.16316" lon="5.2663">
        <ele>1474</ele>
        <time>2015-11-18T08:32:43Z</time>
      </trkpt>
      <trkpt lat="44.16314" lon="5.26615">
        <ele>1473</ele>
        <time>2015-11-18T08:34:43Z</time>
      </trkpt>
      <trkpt lat="44.16307" lon="5.26584">
        <ele>1470</ele>
        <time>2015-11-18T08:36:43Z</time>
      </trkpt>
      <trkpt lat="44.16305" lon="5.26577">
        <ele>1469</ele>
        <time>2015-11-18T08:38:43Z</time>
      </trkpt>
      <trkpt lat="44.16297" lon="5.2654">
        <ele>1466</ele>
        <time>2015-11-18T08:40:43Z</time>
      </trkpt>
      <trkpt lat="44.16294" lon="5.26525">
        <ele>1465</ele>
        <time>2015-11-18T08:42:43Z</time>
      </trkpt>
      <trkpt lat="44.16292" lon="5.26512">
        <ele>1464</ele>
        <time>2015-11-18T08:44:43Z</time>
      </trkpt>
      <trkpt lat="44.16289" lon="5.26492">
        <ele>1463</ele>
        <time>2015-11-18T08:46:43Z</time>
      </trkpt>
      <trkpt lat="44.16288" lon="5.2648">
        <ele>1462</ele>
        <time>2015-11-18T08:48:43Z</time>
      </trkpt>
      <trkpt lat="44.16289" lon="5.26474">
        <ele>1463</ele>
        <time>2015-11-18T08:50:43Z</time>
      </trkpt>
      <trkpt lat="44.16289" lon="5.26462">
        <ele>1463</ele>
        <time>2015-11-18T08:52:43Z</time>
      </trkpt>
      <trkpt lat="44.1629" lon="5.26457">
        <ele>1463</ele>
        <time>2015-11-18T08:54:43Z</time>
      </trkpt>
      <trkpt lat="44.16293" lon="5.26442">
        <ele>1464</ele>
        <time>2015-11-18T08:56:43Z</time>
      </trkpt>
      <trkpt lat="44.16298" lon="5.26425">
        <ele>1466</ele>
        <time>2015-11-18T08:58:43Z</time>
      </trkpt>
      <trkpt lat="44.16302" lon="5.26414">
        <ele>1467</ele>
        <time>2015-11-18T09:00:43Z</time>
      </trkpt>
      <trkpt lat="44.16303" lon="5.26409">
        <ele>1468</ele>
        <time>2015-11-18T09:02:43Z</time>
      </trkpt>
      <trkpt lat="44.16304" lon="5.26404">
        <ele>1469</ele>
        <time>2015-11-18T09:04:43Z</time>
      </trkpt>
      <trkpt lat="44.16304" lon="5.264">
        <ele>1469</ele>
        <time>2015-11-18T09:06:43Z</time>
      </trkpt>
      <trkpt lat="44.16303" lon="5.26391">
        <ele>1469</ele>
        <time>2015-11-18T09:08:43Z</time>
      </trkpt>
      <trkpt lat="44.16301" lon="5.26386">
        <ele>1469</ele>
        <time>2015-11-18T09:10:43Z</time>
      </trkpt>
      <trkpt lat="44.16298" lon="5.26382">
        <ele>1469</ele>
        <time>2015-11-18T09:12:43Z</time>
      </trkpt>
      <trkpt lat="44.16294" lon="5.2638">
        <ele>1468</ele>
        <time>2015-11-18T09:14:43Z</time>
      </trkpt>
      <trkpt lat="44.1629" lon="5.26378">
        <ele>1466</ele>
        <time>2015-11-18T09:16:43Z</time>
      </trkpt>
      <trkpt lat="44.16282" lon="5.26376">
        <ele>1464</ele>
        <time>2015-11-18T09:18:43Z</time>
      </trkpt>
      <trkpt lat="44.16273" lon="5.26375">
        <ele>1462</ele>
        <time>2015-11-18T09:20:43Z</time>
      </trkpt>
      <trkpt lat="44.16262" lon="5.26376">
        <ele>1458</ele>
        <time>2015-11-18T09:22:43Z</time>
      </trkpt>
      <trkpt lat="44.1626" lon="5.26376">
        <ele>1457</ele>
        <time>2015-11-18T09:24:43Z</time>
      </trkpt>
      <trkpt lat="44.16258" lon="5.26375">
        <ele>1457</ele>
        <time>2015-11-18T09:26:43Z</time>
      </trkpt>
      <trkpt lat="44.16257" lon="5.26368">
        <ele>1457</ele>
        <time>2015-11-18T09:28:43Z</time>
      </trkpt>
      <trkpt lat="44.16256" lon="5.26364">
        <ele>1457</ele>
        <time>2015-11-18T09:30:43Z</time>
      </trkpt>
      <trkpt lat="44.1625" lon="5.26349">
        <ele>1457</ele>
        <time>2015-11-18T09:32:43Z</time>
      </trkpt>
      <trkpt lat="44.16248" lon="5.26345">
        <ele>1457</ele>
        <time>2015-11-18T09:34:43Z</time>
      </trkpt>
      <trkpt lat="44.16246" lon="5.26337">
        <ele>1457</ele>
        <time>2015-11-18T09:36:43Z</time>
      </trkpt>
      <trkpt lat="44.16245" lon="5.26332">
        <ele>1458</ele>
        <time>2015-11-18T09:38:43Z</time>
      </trkpt>
      <trkpt lat="44.16245" lon="5.2632">
        <ele>1458</ele>
        <time>2015-11-18T09:40:43Z</time>
      </trkpt>
      <trkpt lat="44.16245" lon="5.26313">
        <ele>1458</ele>
        <time>2015-11-18T09:42:43Z</time>
      </trkpt>
      <trkpt lat="44.16249" lon="5.26277">
        <ele>1460</ele>
        <time>2015-11-18T09:44:43Z</time>
      </trkpt>
      <trkpt lat="44.16255" lon="5.26235">
        <ele>1461</ele>
        <time>2015-11-18T09:46:43Z</time>
      </trkpt>
      <trkpt lat="44.16262" lon="5.26188">
        <ele>1459</ele>
        <time>2015-11-18T09:48:43Z</time>
      </trkpt>
      <trkpt lat="44.16276" lon="5.26102">
        <ele>1455</ele>
        <time>2015-11-18T09:50:43Z</time>
      </trkpt>
      <trkpt lat="44.16285" lon="5.26039">
        <ele>1452</ele>
        <time>2015-11-18T09:52:43Z</time>
      </trkpt>
      <trkpt lat="44.16288" lon="5.26015">
        <ele>1451</ele>
        <time>2015-11-18T09:54:43Z</time>
      </trkpt>
      <trkpt lat="44.16291" lon="5.25991">
        <ele>1450</ele>
        <time>2015-11-18T09:56:43Z</time>
      </trkpt>
      <trkpt lat="44.16293" lon="5.25968">
        <ele>1449</ele>
        <time>2015-11-18T09:58:43Z</time>
      </trkpt>
      <trkpt lat="44.16296" lon="5.25935">
        <ele>1448</ele>
        <time>2015-11-18T10:00:43Z</time>
      </trkpt>
      <trkpt lat="44.16297" lon="5.259">
        <ele>1446</ele>
        <time>2015-11-18T10:02:43Z</time>
      </trkpt>
      <trkpt lat="44.16298" lon="5.25866">
        <ele>1445</ele>
        <time>2015-11-18T10:04:43Z</time>
      </trkpt>
      <trkpt lat="44.16298" lon="5.25824">
        <ele>1444</ele>
        <time>2015-11-18T10:06:43Z</time>
      </trkpt>
      <trkpt lat="44.16297" lon="5.25794">
        <ele>1442</ele>
        <time>2015-11-18T10:08:43Z</time>
      </trkpt>
      <trkpt lat="44.16294" lon="5.25741">
        <ele>1439</ele>
        <time>2015-11-18T10:10:43Z</time>
      </trkpt>
      <trkpt lat="44.16293" lon="5.25718">
        <ele>1437</ele>
        <time>2015-11-18T10:12:43Z</time>
      </trkpt>
      <trkpt lat="44.16292" lon="5.25684">
        <ele>1435</ele>
        <time>2015-11-18T10:14:43Z</time>
      </trkpt>
      <trkpt lat="44.16292" lon="5.25661">
        <ele>1433</ele>
        <time>2015-11-18T10:16:43Z</time>
      </trkpt>
      <trkpt lat="44.16292" lon="5.25657">
        <ele>1433</ele>
        <time>2015-11-18T10:18:43Z</time>
      </trkpt>
      <trkpt lat="44.16292" lon="5.25645">
        <ele>1432</ele>
        <time>2015-11-18T10:20:43Z</time>
      </trkpt>
      <trkpt lat="44.16294" lon="5.25621">
        <ele>1431</ele>
        <time>2015-11-18T10:22:43Z</time>
      </trkpt>
      <trkpt lat="44.16295" lon="5.25609">
        <ele>1430</ele>
        <time>2015-11-18T10:24:43Z</time>
      </trkpt>
      <trkpt lat="44.16295" lon="5.25602">
        <ele>1430</ele>
        <time>2015-11-18T10:26:43Z</time>
      </trkpt>
      <trkpt lat="44.16296" lon="5.25596">
        <ele>1430</ele>
        <time>2015-11-18T10:28:43Z</time>
      </trkpt>
      <trkpt lat="44.16298" lon="5.25576">
        <ele>1429</ele>
        <time>2015-11-18T10:30:43Z</time>
      </trkpt>
      <trkpt lat="44.16301" lon="5.25556">
        <ele>1427</ele>
        <time>2015-11-18T10:32:43Z</time>
      </trkpt>
      <trkpt lat="44.16303" lon="5.25543">
        <ele>1427</ele>
        <time>2015-11-18T10:34:43Z</time>
      </trkpt>
      <trkpt lat="44.16306" lon="5.25524">
        <ele>1425</ele>
        <time>2015-11-18T10:36:43Z</time>
      </trkpt>
      <trkpt lat="44.1631" lon="5.25506">
        <ele>1424</ele>
        <time>2015-11-18T10:38:43Z</time>
      </trkpt>
      <trkpt lat="44.16313" lon="5.25496">
        <ele>1424</ele>
        <time>2015-11-18T10:40:43Z</time>
      </trkpt>
      <trkpt lat="44.16317" lon="5.25485">
        <ele>1424</ele>
        <time>2015-11-18T10:42:43Z</time>
      </trkpt>
      <trkpt lat="44.16323" lon="5.25471">
        <ele>1425</ele>
        <time>2015-11-18T10:44:43Z</time>
      </trkpt>
      <trkpt lat="44.16327" lon="5.25464">
        <ele>1425</ele>
        <time>2015-11-18T10:46:43Z</time>
      </trkpt>
      <trkpt lat="44.16334" lon="5.2545">
        <ele>1426</ele>
        <time>2015-11-18T10:48:43Z</time>
      </trkpt>
      <trkpt lat="44.16346" lon="5.25431">
        <ele>1428</ele>
        <time>2015-11-18T10:50:43Z</time>
      </trkpt>
      <trkpt lat="44.16351" lon="5.25421">
        <ele>1428</ele>
        <time>2015-11-18T10:52:43Z</time>
      </trkpt>
      <trkpt lat="44.16353" lon="5.25416">
        <ele>1428</ele>
        <time>2015-11-18T10:54:43Z</time>
      </trkpt>
      <trkpt lat="44.16357" lon="5.25407">
        <ele>1429</ele>
        <time>2015-11-18T10:56:43Z</time>
      </trkpt>
      <trkpt lat="44.16358" lon="5.25403">
        <ele>1430</ele>
        <time>2015-11-18T10:58:43Z</time>
      </trkpt>
      <trkpt lat="44.16359" lon="5.25394">
        <ele>1430</ele>
        <time>2015-11-18T11:00:43Z</time>
      </trkpt>
      <trkpt lat="44.16359" lon="5.25384">
        <ele>1430</ele>
        <time>2015-11-18T11:02:43Z</time>
      </trkpt>
      <trkpt lat="44.16356" lon="5.25357">
        <ele>1428</ele>
        <time>2015-11-18T11:04:43Z</time>
      </trkpt>
      <trkpt lat="44.16355" lon="5.2534">
        <ele>1428</ele>
        <time>2015-11-18T11:06:43Z</time>
      </trkpt>
      <trkpt lat="44.16354" lon="5.25324">
        <ele>1428</ele>
        <time>2015-11-18T11:08:43Z</time>
      </trkpt>
      <trkpt lat="44.16355" lon="5.25301">
        <ele>1428</ele>
        <time>2015-11-18T11:10:43Z</time>
      </trkpt>
      <trkpt lat="44.16356" lon="5.25286">
        <ele>1429</ele>
        <time>2015-11-18T11:12:43Z</time>
      </trkpt>
      <trkpt lat="44.16357" lon="5.25279">
        <ele>1429</ele>
        <time>2015-11-18T11:14:43Z</time>
      </trkpt>
      <trkpt lat="44.16359" lon="5.25266">
        <ele>1430</ele>
        <time>2015-11-18T11:16:43Z</time>
      </trkpt>
      <trkpt lat="44.1636" lon="5.25259">
        <ele>1430</ele>
        <time>2015-11-18T11:18:43Z</time>
      </trkpt>
      <trkpt lat="44.16363" lon="5.25247">
        <ele>1432</ele>
        <time>2015-11-18T11:20:43Z</time>
      </trkpt>
      <trkpt lat="44.16367" lon="5.25235">
        <ele>1432</ele>
        <time>2015-11-18T11:22:43Z</time>
      </trkpt>
      <trkpt lat="44.16369" lon="5.25229">
        <ele>1433</ele>
        <time>2015-11-18T11:24:43Z</time>
      </trkpt>
      <trkpt lat="44.16374" lon="5.25218">
        <ele>1434</ele>
        <time>2015-11-18T11:26:43Z</time>
      </trkpt>
      <trkpt lat="44.1638" lon="5.25207">
        <ele>1436</ele>
        <time>2015-11-18T11:28:43Z</time>
      </trkpt>
      <trkpt lat="44.16389" lon="5.25192">
        <ele>1438</ele>
        <time>2015-11-18T11:30:43Z</time>
      </trkpt>
      <trkpt lat="44.16401" lon="5.25179">
        <ele>1442</ele>
        <time>2015-11-18T11:32:43Z</time>
      </trkpt>
      <trkpt lat="44.16405" lon="5.25175">
        <ele>1443</ele>
        <time>2015-11-18T11:34:43Z</time>
      </trkpt>
      <trkpt lat="44.16416" lon="5.25161">
        <ele>1445</ele>
        <time>2015-11-18T11:36:43Z</time>
      </trkpt>
      <trkpt lat="44.16428" lon="5.25146">
        <ele>1447</ele>
        <time>2015-11-18T11:38:43Z</time>
      </trkpt>
      <trkpt lat="44.16465" lon="5.25096">
        <ele>1453</ele>
        <time>2015-11-18T11:40:43Z</time>
      </trkpt>
      <trkpt lat="44.16518" lon="5.25021">
        <ele>1458</ele>
        <time>2015-11-18T11:42:43Z</time>
      </trkpt>
      <trkpt lat="44.16546" lon="5.24983">
        <ele>1461</ele>
        <time>2015-11-18T11:44:43Z</time>
      </trkpt>
      <trkpt lat="44.16572" lon="5.24947">
        <ele>1465</ele>
        <time>2015-11-18T11:46:43Z</time>
      </trkpt>
      <trkpt lat="44.16588" lon="5.24926">
        <ele>1468</ele>
        <time>2015-11-18T11:48:43Z</time>
      </trkpt>
      <trkpt lat="44.16609" lon="5.249">
        <ele>1469</ele>
        <time>2015-11-18T11:50:43Z</time>
      </trkpt>
      <trkpt lat="44.1662" lon="5.24888">
        <ele>1471</ele>
        <time>2015-11-18T11:52:43Z</time>
      </trkpt>
      <trkpt lat="44.16628" lon="5.24879">
        <ele>1471</ele>
        <time>2015-11-18T11:54:43Z</time>
      </trkpt>
      <trkpt lat="44.16638" lon="5.24874">
        <ele>1474</ele>
        <time>2015-11-18T11:56:43Z</time>
      </trkpt>
      <trkpt lat="44.16643" lon="5.24871">
        <ele>1475</ele>
        <time>2015-11-18T11:58:43Z</time>
      </trkpt>
      <trkpt lat="44.16653" lon="5.24866">
        <ele>1477</ele>
        <time>2015-11-18T12:00:43Z</time>
      </trkpt>
      <trkpt lat="44.16657" lon="5.24865">
        <ele>1479</ele>
        <time>2015-11-18T12:02:43Z</time>
      </trkpt>
      <trkpt lat="44.16665" lon="5.24863">
        <ele>1481</ele>
        <time>2015-11-18T12:04:43Z</time>
      </trkpt>
      <trkpt lat="44.16671" lon="5.24862">
        <ele>1483</ele>
        <time>2015-11-18T12:06:43Z</time>
      </trkpt>
      <trkpt lat="44.16679" lon="5.24862">
        <ele>1486</ele>
        <time>2015-11-18T12:08:43Z</time>
      </trkpt>
      <trkpt lat="44.16685" lon="5.24864">
        <ele>1488</ele>
        <time>2015-11-18T12:10:43Z</time>
      </trkpt>
      <trkpt lat="44.1669" lon="5.24864">
        <ele>1490</ele>
        <time>2015-11-18T12:12:43Z</time>
      </trkpt>
      <trkpt lat="44.16693" lon="5.2486">
        <ele>1490</ele>
        <time>2015-11-18T12:14:43Z</time>
      </trkpt>
      <trkpt lat="44.16695" lon="5.24856">
        <ele>1490</ele>
        <time>2015-11-18T12:16:43Z</time>
      </trkpt>
      <trkpt lat="44.16698" lon="5.24845">
        <ele>1490</ele>
        <time>2015-11-18T12:18:43Z</time>
      </trkpt>
      <trkpt lat="44.16703" lon="5.24829">
        <ele>1490</ele>
        <time>2015-11-18T12:20:43Z</time>
      </trkpt>
      <trkpt lat="44.16705" lon="5.2482">
        <ele>1490</ele>
        <time>2015-11-18T12:22:43Z</time>
      </trkpt>
      <trkpt lat="44.1671" lon="5.248">
        <ele>1492</ele>
        <time>2015-11-18T12:24:43Z</time>
      </trkpt>
      <trkpt lat="44.16713" lon="5.24785">
        <ele>1492</ele>
        <time>2015-11-18T12:26:43Z</time>
      </trkpt>
      <trkpt lat="44.16716" lon="5.24773">
        <ele>1493</ele>
        <time>2015-11-18T12:28:43Z</time>
      </trkpt>
      <trkpt lat="44.16716" lon="5.2477">
        <ele>1493</ele>
        <time>2015-11-18T12:30:43Z</time>
      </trkpt>
      <trkpt lat="44.16716" lon="5.24763">
        <ele>1493</ele>
        <time>2015-11-18T12:32:43Z</time>
      </trkpt>
      <trkpt lat="44.16716" lon="5.2476">
        <ele>1493</ele>
        <time>2015-11-18T12:34:43Z</time>
      </trkpt>
      <trkpt lat="44.16715" lon="5.24753">
        <ele>1492</ele>
        <time>2015-11-18T12:36:43Z</time>
      </trkpt>
      <trkpt lat="44.16714" lon="5.24746">
        <ele>1492</ele>
        <time>2015-11-18T12:38:43Z</time>
      </trkpt>
      <trkpt lat="44.16707" lon="5.24713">
        <ele>1491</ele>
        <time>2015-11-18T12:40:43Z</time>
      </trkpt>
      <trkpt lat="44.16702" lon="5.24687">
        <ele>1492</ele>
        <time>2015-11-18T12:42:43Z</time>
      </trkpt>
      <trkpt lat="44.16701" lon="5.24676">
        <ele>1492</ele>
        <time>2015-11-18T12:44:43Z</time>
      </trkpt>
      <trkpt lat="44.16699" lon="5.24664">
        <ele>1492</ele>
        <time>2015-11-18T12:46:43Z</time>
      </trkpt>
      <trkpt lat="44.16693" lon="5.24623">
        <ele>1492</ele>
        <time>2015-11-18T12:48:43Z</time>
      </trkpt>
      <trkpt lat="44.16693" lon="5.24615">
        <ele>1493</ele>
        <time>2015-11-18T12:50:43Z</time>
      </trkpt>
      <trkpt lat="44.16693" lon="5.2461">
        <ele>1493</ele>
        <time>2015-11-18T12:52:43Z</time>
      </trkpt>
      <trkpt lat="44.16693" lon="5.24599">
        <ele>1494</ele>
        <time>2015-11-18T12:54:43Z</time>
      </trkpt>
      <trkpt lat="44.16694" lon="5.24593">
        <ele>1494</ele>
        <time>2015-11-18T12:56:43Z</time>
      </trkpt>
      <trkpt lat="44.16698" lon="5.24574">
        <ele>1495</ele>
        <time>2015-11-18T12:58:43Z</time>
      </trkpt>
      <trkpt lat="44.16704" lon="5.24544">
        <ele>1495</ele>
        <time>2015-11-18T13:00:43Z</time>
      </trkpt>
      <trkpt lat="44.16712" lon="5.24509">
        <ele>1495</ele>
        <time>2015-11-18T13:02:43Z</time>
      </trkpt>
      <trkpt lat="44.16715" lon="5.245">
        <ele>1495</ele>
        <time>2015-11-18T13:04:43Z</time>
      </trkpt>
      <trkpt lat="44.16726" lon="5.2445">
        <ele>1493</ele>
        <time>2015-11-18T13:06:43Z</time>
      </trkpt>
      <trkpt lat="44.16736" lon="5.24408">
        <ele>1493</ele>
        <time>2015-11-18T13:08:43Z</time>
      </trkpt>
      <trkpt lat="44.1674" lon="5.24386">
        <ele>1492</ele>
        <time>2015-11-18T13:10:43Z</time>
      </trkpt>
      <trkpt lat="44.16747" lon="5.24352">
        <ele>1492</ele>
        <time>2015-11-18T13:12:43Z</time>
      </trkpt>
      <trkpt lat="44.16748" lon="5.2434">
        <ele>1492</ele>
        <time>2015-11-18T13:14:43Z</time>
      </trkpt>
      <trkpt lat="44.16753" lon="5.24316">
        <ele>1492</ele>
        <time>2015-11-18T13:16:43Z</time>
      </trkpt>
      <trkpt lat="44.16761" lon="5.24262">
        <ele>1490</ele>
        <time>2015-11-18T13:18:43Z</time>
      </trkpt>
      <trkpt lat="44.16763" lon="5.24252">
        <ele>1490</ele>
        <time>2015-11-18T13:20:43Z</time>
      </trkpt>
      <trkpt lat="44.16769" lon="5.24214">
        <ele>1490</ele>
        <time>2015-11-18T13:22:43Z</time>
      </trkpt>
      <trkpt lat="44.16771" lon="5.24205">
        <ele>1490</ele>
        <time>2015-11-18T13:24:43Z</time>
      </trkpt>
      <trkpt lat="44.16782" lon="5.24132">
        <ele>1491</ele>
        <time>2015-11-18T13:26:43Z</time>
      </trkpt>
      <trkpt lat="44.16787" lon="5.241">
        <ele>1491</ele>
        <time>2015-11-18T13:28:43Z</time>
      </trkpt>
      <trkpt lat="44.16788" lon="5.24097">
        <ele>1491</ele>
        <time>2015-11-18T13:30:43Z</time>
      </trkpt>
      <trkpt lat="44.16789" lon="5.2409">
        <ele>1491</ele>
        <time>2015-11-18T13:32:43Z</time>
      </trkpt>
      <trkpt lat="44.16802" lon="5.24017">
        <ele>1490</ele>
        <time>2015-11-18T13:34:43Z</time>
      </trkpt>
      <trkpt lat="44.16804" lon="5.24005">
        <ele>1490</ele>
        <time>2015-11-18T13:36:43Z</time>
      </trkpt>
      <trkpt lat="44.16807" lon="5.23992">
        <ele>1490</ele>
        <time>2015-11-18T13:38:43Z</time>
      </trkpt>
      <trkpt lat="44.16817" lon="5.23938">
        <ele>1488</ele>
        <time>2015-11-18T13:40:43Z</time>
      </trkpt>
      <trkpt lat="44.1682" lon="5.23925">
        <ele>1488</ele>
        <time>2015-11-18T13:42:43Z</time>
      </trkpt>
      <trkpt lat="44.16823" lon="5.23911">
        <ele>1488</ele>
        <time>2015-11-18T13:44:43Z</time>
      </trkpt>
      <trkpt lat="44.16838" lon="5.23843">
        <ele>1487</ele>
        <time>2015-11-18T13:46:43Z</time>
      </trkpt>
      <trkpt lat="44.16847" lon="5.23805">
        <ele>1487</ele>
        <time>2015-11-18T13:48:43Z</time>
      </trkpt>
      <trkpt lat="44.16853" lon="5.23782">
        <ele>1486</ele>
        <time>2015-11-18T13:50:43Z</time>
      </trkpt>
      <trkpt lat="44.16859" lon="5.23761">
        <ele>1486</ele>
        <time>2015-11-18T13:52:43Z</time>
      </trkpt>
      <trkpt lat="44.16864" lon="5.23743">
        <ele>1485</ele>
        <time>2015-11-18T13:54:43Z</time>
      </trkpt>
      <trkpt lat="44.16867" lon="5.23735">
        <ele>1485</ele>
        <time>2015-11-18T13:56:43Z</time>
      </trkpt>
      <trkpt lat="44.16869" lon="5.23728">
        <ele>1484</ele>
        <time>2015-11-18T13:58:43Z</time>
      </trkpt>
      <trkpt lat="44.16874" lon="5.23715">
        <ele>1484</ele>
        <time>2015-11-18T14:00:43Z</time>
      </trkpt>
      <trkpt lat="44.16884" lon="5.23691">
        <ele>1483</ele>
        <time>2015-11-18T14:02:43Z</time>
      </trkpt>
      <trkpt lat="44.16889" lon="5.23681">
        <ele>1482</ele>
        <time>2015-11-18T14:04:43Z</time>
      </trkpt>
      <trkpt lat="44.16896" lon="5.23669">
        <ele>1482</ele>
        <time>2015-11-18T14:06:43Z</time>
      </trkpt>
      <trkpt lat="44.16902" lon="5.23661">
        <ele>1482</ele>
        <time>2015-11-18T14:08:43Z</time>
      </trkpt>
      <trkpt lat="44.16907" lon="5.23656">
        <ele>1482</ele>
        <time>2015-11-18T14:10:43Z</time>
      </trkpt>
      <trkpt lat="44.16911" lon="5.23653">
        <ele>1482</ele>
        <time>2015-11-18T14:12:43Z</time>
      </trkpt>
      <trkpt lat="44.16917" lon="5.23649">
        <ele>1482</ele>
        <time>2015-11-18T14:14:43Z</time>
      </trkpt>
      <trkpt lat="44.16924" lon="5.23646">
        <ele>1482</ele>
        <time>2015-11-18T14:16:43Z</time>
      </trkpt>
      <trkpt lat="44.16931" lon="5.23644">
        <ele>1481</ele>
        <time>2015-11-18T14:18:43Z</time>
      </trkpt>
      <trkpt lat="44.16939" lon="5.23644">
        <ele>1481</ele>
        <time>2015-11-18T14:20:43Z</time>
      </trkpt>
      <trkpt lat="44.16943" lon="5.23644">
        <ele>1481</ele>
        <time>2015-11-18T14:22:43Z</time>
      </trkpt>
      <trkpt lat="44.16953" lon="5.23645">
        <ele>1482</ele>
        <time>2015-11-18T14:24:43Z</time>
      </trkpt>
      <trkpt lat="44.16963" lon="5.23647">
        <ele>1482</ele>
        <time>2015-11-18T14:26:43Z</time>
      </trkpt>
      <trkpt lat="44.16973" lon="5.23651">
        <ele>1483</ele>
        <time>2015-11-18T14:28:43Z</time>
      </trkpt>
      <trkpt lat="44.16993" lon="5.23658">
        <ele>1485</ele>
        <time>2015-11-18T14:30:43Z</time>
      </trkpt>
      <trkpt lat="44.17014" lon="5.23668">
        <ele>1487</ele>
        <time>2015-11-18T14:32:43Z</time>
      </trkpt>
      <trkpt lat="44.17034" lon="5.23677">
        <ele>1488</ele>
        <time>2015-11-18T14:34:43Z</time>
      </trkpt>
      <trkpt lat="44.17036" lon="5.23679">
        <ele>1488</ele>
        <time>2015-11-18T14:36:43Z</time>
      </trkpt>
      <trkpt lat="44.17076" lon="5.237">
        <ele>1492</ele>
        <time>2015-11-18T14:38:43Z</time>
      </trkpt>
      <trkpt lat="44.17093" lon="5.23708">
        <ele>1494</ele>
        <time>2015-11-18T14:40:43Z</time>
      </trkpt>
      <trkpt lat="44.17116" lon="5.23718">
        <ele>1497</ele>
        <time>2015-11-18T14:42:43Z</time>
      </trkpt>
      <trkpt lat="44.1713" lon="5.23723">
        <ele>1498</ele>
        <time>2015-11-18T14:44:43Z</time>
      </trkpt>
      <trkpt lat="44.17158" lon="5.23733">
        <ele>1499</ele>
        <time>2015-11-18T14:46:43Z</time>
      </trkpt>
      <trkpt lat="44.17162" lon="5.23734">
        <ele>1500</ele>
        <time>2015-11-18T14:48:43Z</time>
      </trkpt>
      <trkpt lat="44.17169" lon="5.23737">
        <ele>1500</ele>
        <time>2015-11-18T14:50:43Z</time>
      </trkpt>
      <trkpt lat="44.17173" lon="5.23738">
        <ele>1500</ele>
        <time>2015-11-18T14:52:43Z</time>
      </trkpt>
      <trkpt lat="44.17198" lon="5.23747">
        <ele>1501</ele>
        <time>2015-11-18T14:54:43Z</time>
      </trkpt>
      <trkpt lat="44.17203" lon="5.23748">
        <ele>1500</ele>
        <time>2015-11-18T14:56:43Z</time>
      </trkpt>
      <trkpt lat="44.17207" lon="5.23749">
        <ele>1500</ele>
        <time>2015-11-18T14:58:43Z</time>
      </trkpt>
      <trkpt lat="44.1721" lon="5.23749">
        <ele>1500</ele>
        <time>2015-11-18T15:00:43Z</time>
      </trkpt>
      <trkpt lat="44.17213" lon="5.23748">
        <ele>1500</ele>
        <time>2015-11-18T15:02:43Z</time>
      </trkpt>
      <trkpt lat="44.17216" lon="5.23746">
        <ele>1499</ele>
        <time>2015-11-18T15:04:43Z</time>
      </trkpt>
      <trkpt lat="44.17219" lon="5.23743">
        <ele>1499</ele>
        <time>2015-11-18T15:06:43Z</time>
      </trkpt>
      <trkpt lat="44.1722" lon="5.2374">
        <ele>1498</ele>
        <time>2015-11-18T15:08:43Z</time>
      </trkpt>
      <trkpt lat="44.17222" lon="5.23737">
        <ele>1497</ele>
        <time>2015-11-18T15:10:43Z</time>
      </trkpt>
      <trkpt lat="44.17223" lon="5.23732">
        <ele>1496</ele>
        <time>2015-11-18T15:12:43Z</time>
      </trkpt>
      <trkpt lat="44.17225" lon="5.23722">
        <ele>1494</ele>
        <time>2015-11-18T15:14:43Z</time>
      </trkpt>
      <trkpt lat="44.17225" lon="5.23711">
        <ele>1492</ele>
        <time>2015-11-18T15:16:43Z</time>
      </trkpt>
      <trkpt lat="44.17225" lon="5.23697">
        <ele>1490</ele>
        <time>2015-11-18T15:18:43Z</time>
      </trkpt>
      <trkpt lat="44.17224" lon="5.23675">
        <ele>1486</ele>
        <time>2015-11-18T15:20:43Z</time>
      </trkpt>
      <trkpt lat="44.17218" lon="5.23627">
        <ele>1478</ele>
        <time>2015-11-18T15:22:43Z</time>
      </trkpt>
      <trkpt lat="44.17217" lon="5.23611">
        <ele>1475</ele>
        <time>2015-11-18T15:24:43Z</time>
      </trkpt>
      <trkpt lat="44.17216" lon="5.23595">
        <ele>1472</ele>
        <time>2015-11-18T15:26:43Z</time>
      </trkpt>
      <trkpt lat="44.17216" lon="5.23579">
        <ele>1470</ele>
        <time>2015-11-18T15:28:43Z</time>
      </trkpt>
      <trkpt lat="44.17216" lon="5.23552">
        <ele>1466</ele>
        <time>2015-11-18T15:30:43Z</time>
      </trkpt>
      <trkpt lat="44.17216" lon="5.23547">
        <ele>1465</ele>
        <time>2015-11-18T15:32:43Z</time>
      </trkpt>
      <trkpt lat="44.17215" lon="5.23535">
        <ele>1463</ele>
        <time>2015-11-18T15:34:43Z</time>
      </trkpt>
      <trkpt lat="44.17214" lon="5.23525">
        <ele>1462</ele>
        <time>2015-11-18T15:36:43Z</time>
      </trkpt>
      <trkpt lat="44.17212" lon="5.23514">
        <ele>1460</ele>
        <time>2015-11-18T15:38:43Z</time>
      </trkpt>
      <trkpt lat="44.17208" lon="5.235">
        <ele>1459</ele>
        <time>2015-11-18T15:40:43Z</time>
      </trkpt>
      <trkpt lat="44.17204" lon="5.23491">
        <ele>1457</ele>
        <time>2015-11-18T15:42:43Z</time>
      </trkpt>
      <trkpt lat="44.17196" lon="5.23474">
        <ele>1456</ele>
        <time>2015-11-18T15:44:43Z</time>
      </trkpt>
      <trkpt lat="44.17186" lon="5.23451">
        <ele>1453</ele>
        <time>2015-11-18T15:46:43Z</time>
      </trkpt>
      <trkpt lat="44.17183" lon="5.23446">
        <ele>1453</ele>
        <time>2015-11-18T15:48:43Z</time>
      </trkpt>
      <trkpt lat="44.17176" lon="5.23431">
        <ele>1452</ele>
        <time>2015-11-18T15:50:43Z</time>
      </trkpt>
      <trkpt lat="44.1717" lon="5.23416">
        <ele>1451</ele>
        <time>2015-11-18T15:52:43Z</time>
      </trkpt>
      <trkpt lat="44.17164" lon="5.23398">
        <ele>1449</ele>
        <time>2015-11-18T15:54:43Z</time>
      </trkpt>
      <trkpt lat="44.17155" lon="5.23372">
        <ele>1447</ele>
        <time>2015-11-18T15:56:43Z</time>
      </trkpt>
      <trkpt lat="44.17149" lon="5.23358">
        <ele>1446</ele>
        <time>2015-11-18T15:58:43Z</time>
      </trkpt>
      <trkpt lat="44.1714" lon="5.23337">
        <ele>1444</ele>
        <time>2015-11-18T16:00:43Z</time>
      </trkpt>
      <trkpt lat="44.1713" lon="5.23317">
        <ele>1442</ele>
        <time>2015-11-18T16:02:43Z</time>
      </trkpt>
      <trkpt lat="44.17122" lon="5.23301">
        <ele>1441</ele>
        <time>2015-11-18T16:04:43Z</time>
      </trkpt>
      <trkpt lat="44.1712" lon="5.23296">
        <ele>1440</ele>
        <time>2015-11-18T16:06:43Z</time>
      </trkpt>
      <trkpt lat="44.17118" lon="5.23292">
        <ele>1440</ele>
        <time>2015-11-18T16:08:43Z</time>
      </trkpt>
      <trkpt lat="44.17102" lon="5.23258">
        <ele>1439</ele>
        <time>2015-11-18T16:10:43Z</time>
      </trkpt>
      <trkpt lat="44.171" lon="5.23254">
        <ele>1440</ele>
        <time>2015-11-18T16:12:43Z</time>
      </trkpt>
      <trkpt lat="44.171" lon="5.2325">
        <ele>1439</ele>
        <time>2015-11-18T16:14:43Z</time>
      </trkpt>
      <trkpt lat="44.17103" lon="5.23247">
        <ele>1439</ele>
        <time>2015-11-18T16:16:43Z</time>
      </trkpt>
      <trkpt lat="44.17105" lon="5.23245">
        <ele>1439</ele>
        <time>2015-11-18T16:18:43Z</time>
      </trkpt>
      <trkpt lat="44.17112" lon="5.23245">
        <ele>1438</ele>
        <time>2015-11-18T16:20:43Z</time>
      </trkpt>
      <trkpt lat="44.17119" lon="5.23247">
        <ele>1437</ele>
        <time>2015-11-18T16:22:43Z</time>
      </trkpt>
      <trkpt lat="44.17134" lon="5.23251">
        <ele>1436</ele>
        <time>2015-11-18T16:24:43Z</time>
      </trkpt>
      <trkpt lat="44.17149" lon="5.23257">
        <ele>1435</ele>
        <time>2015-11-18T16:26:43Z</time>
      </trkpt>
      <trkpt lat="44.17179" lon="5.2327">
        <ele>1431</ele>
        <time>2015-11-18T16:28:43Z</time>
      </trkpt>
      <trkpt lat="44.17182" lon="5.23272">
        <ele>1431</ele>
        <time>2015-11-18T16:30:43Z</time>
      </trkpt>
      <trkpt lat="44.17185" lon="5.23273">
        <ele>1430</ele>
        <time>2015-11-18T16:32:43Z</time>
      </trkpt>
      <trkpt lat="44.17193" lon="5.23277">
        <ele>1428</ele>
        <time>2015-11-18T16:34:43Z</time>
      </trkpt>
      <trkpt lat="44.17196" lon="5.23278">
        <ele>1427</ele>
        <time>2015-11-18T16:36:43Z</time>
      </trkpt>
      <trkpt lat="44.17202" lon="5.23281">
        <ele>1425</ele>
        <time>2015-11-18T16:38:43Z</time>
      </trkpt>
      <trkpt lat="44.17205" lon="5.23282">
        <ele>1425</ele>
        <time>2015-11-18T16:40:43Z</time>
      </trkpt>
      <trkpt lat="44.17207" lon="5.23283">
        <ele>1424</ele>
        <time>2015-11-18T16:42:43Z</time>
      </trkpt>
      <trkpt lat="44.17216" lon="5.23287">
        <ele>1422</ele>
        <time>2015-11-18T16:44:43Z</time>
      </trkpt>
      <trkpt lat="44.17231" lon="5.23293">
        <ele>1418</ele>
        <time>2015-11-18T16:46:43Z</time>
      </trkpt>
      <trkpt lat="44.17234" lon="5.23295">
        <ele>1418</ele>
        <time>2015-11-18T16:48:43Z</time>
      </trkpt>
      <trkpt lat="44.17255" lon="5.23303">
        <ele>1413</ele>
        <time>2015-11-18T16:50:43Z</time>
      </trkpt>
      <trkpt lat="44.17258" lon="5.23304">
        <ele>1412</ele>
        <time>2015-11-18T16:52:43Z</time>
      </trkpt>
      <trkpt lat="44.17261" lon="5.23305">
        <ele>1411</ele>
        <time>2015-11-18T16:54:43Z</time>
      </trkpt>
      <trkpt lat="44.17265" lon="5.23304">
        <ele>1409</ele>
        <time>2015-11-18T16:56:43Z</time>
      </trkpt>
      <trkpt lat="44.17266" lon="5.23302">
        <ele>1408</ele>
        <time>2015-11-18T16:58:43Z</time>
      </trkpt>
      <trkpt lat="44.17266" lon="5.23297">
        <ele>1407</ele>
        <time>2015-11-18T17:00:43Z</time>
      </trkpt>
      <trkpt lat="44.17262" lon="5.23288">
        <ele>1406</ele>
        <time>2015-11-18T17:02:43Z</time>
      </trkpt>
      <trkpt lat="44.17258" lon="5.2328">
        <ele>1406</ele>
        <time>2015-11-18T17:04:43Z</time>
      </trkpt>
      <trkpt lat="44.17251" lon="5.23267">
        <ele>1405</ele>
        <time>2015-11-18T17:06:43Z</time>
      </trkpt>
      <trkpt lat="44.17221" lon="5.2322">
        <ele>1406</ele>
        <time>2015-11-18T17:08:43Z</time>
      </trkpt>
      <trkpt lat="44.17211" lon="5.23204">
        <ele>1407</ele>
        <time>2015-11-18T17:10:43Z</time>
      </trkpt>
      <trkpt lat="44.17203" lon="5.23189">
        <ele>1408</ele>
        <time>2015-11-18T17:12:43Z</time>
      </trkpt>
      <trkpt lat="44.17197" lon="5.23174">
        <ele>1407</ele>
        <time>2015-11-18T17:14:43Z</time>
      </trkpt>
      <trkpt lat="44.17191" lon="5.23158">
        <ele>1406</ele>
        <time>2015-11-18T17:16:43Z</time>
      </trkpt>
      <trkpt lat="44.17189" lon="5.23153">
        <ele>1406</ele>
        <time>2015-11-18T17:18:43Z</time>
      </trkpt>
      <trkpt lat="44.17188" lon="5.23149">
        <ele>1405</ele>
        <time>2015-11-18T17:20:43Z</time>
      </trkpt>
      <trkpt lat="44.17186" lon="5.23143">
        <ele>1405</ele>
        <time>2015-11-18T17:22:43Z</time>
      </trkpt>
      <trkpt lat="44.17185" lon="5.23139">
        <ele>1404</ele>
        <time>2015-11-18T17:24:43Z</time>
      </trkpt>
      <trkpt lat="44.1718" lon="5.2312">
        <ele>1402</ele>
        <time>2015-11-18T17:26:43Z</time>
      </trkpt>
      <trkpt lat="44.1718" lon="5.23115">
        <ele>1400</ele>
        <time>2015-11-18T17:28:43Z</time>
      </trkpt>
      <trkpt lat="44.17177" lon="5.23106">
        <ele>1399</ele>
        <time>2015-11-18T17:30:43Z</time>
      </trkpt>
      <trkpt lat="44.17176" lon="5.23096">
        <ele>1397</ele>
        <time>2015-11-18T17:32:43Z</time>
      </trkpt>
      <trkpt lat="44.17175" lon="5.23092">
        <ele>1397</ele>
        <time>2015-11-18T17:34:43Z</time>
      </trkpt>
      <trkpt lat="44.17171" lon="5.23072">
        <ele>1394</ele>
        <time>2015-11-18T17:36:43Z</time>
      </trkpt>
      <trkpt lat="44.17169" lon="5.23062">
        <ele>1392</ele>
        <time>2015-11-18T17:38:43Z</time>
      </trkpt>
      <trkpt lat="44.17168" lon="5.23057">
        <ele>1392</ele>
        <time>2015-11-18T17:40:43Z</time>
      </trkpt>
      <trkpt lat="44.17167" lon="5.23052">
        <ele>1391</ele>
        <time>2015-11-18T17:42:43Z</time>
      </trkpt>
      <trkpt lat="44.17163" lon="5.23035">
        <ele>1389</ele>
        <time>2015-11-18T17:44:43Z</time>
      </trkpt>
      <trkpt lat="44.1716" lon="5.23024">
        <ele>1388</ele>
        <time>2015-11-18T17:46:43Z</time>
      </trkpt>
      <trkpt lat="44.17155" lon="5.23006">
        <ele>1385</ele>
        <time>2015-11-18T17:48:43Z</time>
      </trkpt>
      <trkpt lat="44.17149" lon="5.22992">
        <ele>1384</ele>
        <time>2015-11-18T17:50:43Z</time>
      </trkpt>
      <trkpt lat="44.17144" lon="5.22982">
        <ele>1384</ele>
        <time>2015-11-18T17:52:43Z</time>
      </trkpt>
      <trkpt lat="44.17137" lon="5.22966">
        <ele>1383</ele>
        <time>2015-11-18T17:54:43Z</time>
      </trkpt>
      <trkpt lat="44.17127" lon="5.22948">
        <ele>1382</ele>
        <time>2015-11-18T17:56:43Z</time>
      </trkpt>
      <trkpt lat="44.17122" lon="5.22939">
        <ele>1382</ele>
        <time>2015-11-18T17:58:43Z</time>
      </trkpt>
      <trkpt lat="44.1712" lon="5.22935">
        <ele>1382</ele>
        <time>2015-11-18T18:00:43Z</time>
      </trkpt>
      <trkpt lat="44.17111" lon="5.22917">
        <ele>1381</ele>
        <time>2015-11-18T18:02:43Z</time>
      </trkpt>
      <trkpt lat="44.17099" lon="5.2289">
        <ele>1380</ele>
        <time>2015-11-18T18:04:43Z</time>
      </trkpt>
      <trkpt lat="44.17084" lon="5.22857">
        <ele>1380</ele>
        <time>2015-11-18T18:06:43Z</time>
      </trkpt>
      <trkpt lat="44.17082" lon="5.2285">
        <ele>1379</ele>
        <time>2015-11-18T18:08:43Z</time>
      </trkpt>
      <trkpt lat="44.17076" lon="5.22838">
        <ele>1379</ele>
        <time>2015-11-18T18:10:43Z</time>
      </trkpt>
      <trkpt lat="44.17074" lon="5.22831">
        <ele>1378</ele>
        <time>2015-11-18T18:12:43Z</time>
      </trkpt>
      <trkpt lat="44.17064" lon="5.22807">
        <ele>1377</ele>
        <time>2015-11-18T18:14:43Z</time>
      </trkpt>
      <trkpt lat="44.1705" lon="5.2277">
        <ele>1374</ele>
        <time>2015-11-18T18:16:43Z</time>
      </trkpt>
      <trkpt lat="44.17034" lon="5.2273">
        <ele>1371</ele>
        <time>2015-11-18T18:18:43Z</time>
      </trkpt>
      <trkpt lat="44.17018" lon="5.22692">
        <ele>1368</ele>
        <time>2015-11-18T18:20:43Z</time>
      </trkpt>
      <trkpt lat="44.17009" lon="5.22671">
        <ele>1367</ele>
        <time>2015-11-18T18:22:43Z</time>
      </trkpt>
      <trkpt lat="44.17004" lon="5.22657">
        <ele>1365</ele>
        <time>2015-11-18T18:24:43Z</time>
      </trkpt>
      <trkpt lat="44.17002" lon="5.22651">
        <ele>1365</ele>
        <time>2015-11-18T18:26:43Z</time>
      </trkpt>
      <trkpt lat="44.16989" lon="5.22614">
        <ele>1360</ele>
        <time>2015-11-18T18:28:43Z</time>
      </trkpt>
      <trkpt lat="44.16976" lon="5.22572">
        <ele>1354</ele>
        <time>2015-11-18T18:30:43Z</time>
      </trkpt>
      <trkpt lat="44.16974" lon="5.22566">
        <ele>1353</ele>
        <time>2015-11-18T18:32:43Z</time>
      </trkpt>
      <trkpt lat="44.16972" lon="5.22559">
        <ele>1352</ele>
        <time>2015-11-18T18:34:43Z</time>
      </trkpt>
      <trkpt lat="44.16963" lon="5.22534">
        <ele>1350</ele>
        <time>2015-11-18T18:36:43Z</time>
      </trkpt>
      <trkpt lat="44.16956" lon="5.22513">
        <ele>1348</ele>
        <time>2015-11-18T18:38:43Z</time>
      </trkpt>
      <trkpt lat="44.16947" lon="5.22491">
        <ele>1346</ele>
        <time>2015-11-18T18:40:43Z</time>
      </trkpt>
      <trkpt lat="44.1694" lon="5.22475">
        <ele>1344</ele>
        <time>2015-11-18T18:42:43Z</time>
      </trkpt>
      <trkpt lat="44.16933" lon="5.22462">
        <ele>1343</ele>
        <time>2015-11-18T18:44:43Z</time>
      </trkpt>
      <trkpt lat="44.16928" lon="5.22454">
        <ele>1342</ele>
        <time>2015-11-18T18:46:43Z</time>
      </trkpt>
      <trkpt lat="44.16926" lon="5.2245">
        <ele>1342</ele>
        <time>2015-11-18T18:48:43Z</time>
      </trkpt>
      <trkpt lat="44.16923" lon="5.22446">
        <ele>1342</ele>
        <time>2015-11-18T18:50:43Z</time>
      </trkpt>
      <trkpt lat="44.16913" lon="5.22433">
        <ele>1342</ele>
        <time>2015-11-18T18:52:43Z</time>
      </trkpt>
      <trkpt lat="44.1691" lon="5.2243">
        <ele>1341</ele>
        <time>2015-11-18T18:54:43Z</time>
      </trkpt>
      <trkpt lat="44.16907" lon="5.22427">
        <ele>1341</ele>
        <time>2015-11-18T18:56:43Z</time>
      </trkpt>
      <trkpt lat="44.16893" lon="5.22412">
        <ele>1340</ele>
        <time>2015-11-18T18:58:43Z</time>
      </trkpt>
      <trkpt lat="44.16887" lon="5.22406">
        <ele>1340</ele>
        <time>2015-11-18T19:00:43Z</time>
      </trkpt>
      <trkpt lat="44.16881" lon="5.224">
        <ele>1340</ele>
        <time>2015-11-18T19:02:43Z</time>
      </trkpt>
      <trkpt lat="44.16877" lon="5.22397">
        <ele>1340</ele>
        <time>2015-11-18T19:04:43Z</time>
      </trkpt>
      <trkpt lat="44.16874" lon="5.22393">
        <ele>1340</ele>
        <time>2015-11-18T19:06:43Z</time>
      </trkpt>
      <trkpt lat="44.16868" lon="5.22387">
        <ele>1340</ele>
        <time>2015-11-18T19:08:43Z</time>
      </trkpt>
      <trkpt lat="44.16858" lon="5.22375">
        <ele>1339</ele>
        <time>2015-11-18T19:10:43Z</time>
      </trkpt>
      <trkpt lat="44.16854" lon="5.22369">
        <ele>1338</ele>
        <time>2015-11-18T19:12:43Z</time>
      </trkpt>
      <trkpt lat="44.16852" lon="5.22366">
        <ele>1338</ele>
        <time>2015-11-18T19:14:43Z</time>
      </trkpt>
      <trkpt lat="44.16855" lon="5.22361">
        <ele>1336</ele>
        <time>2015-11-18T19:16:43Z</time>
      </trkpt>
      <trkpt lat="44.16859" lon="5.22361">
        <ele>1335</ele>
        <time>2015-11-18T19:18:43Z</time>
      </trkpt>
      <trkpt lat="44.16862" lon="5.22361">
        <ele>1335</ele>
        <time>2015-11-18T19:20:43Z</time>
      </trkpt>
      <trkpt lat="44.16868" lon="5.22362">
        <ele>1334</ele>
        <time>2015-11-18T19:22:43Z</time>
      </trkpt>
      <trkpt lat="44.16875" lon="5.22363">
        <ele>1333</ele>
        <time>2015-11-18T19:24:43Z</time>
      </trkpt>
      <trkpt lat="44.16883" lon="5.22365">
        <ele>1332</ele>
        <time>2015-11-18T19:26:43Z</time>
      </trkpt>
      <trkpt lat="44.16896" lon="5.2237">
        <ele>1330</ele>
        <time>2015-11-18T19:28:43Z</time>
      </trkpt>
      <trkpt lat="44.16904" lon="5.22373">
        <ele>1329</ele>
        <time>2015-11-18T19:30:43Z</time>
      </trkpt>
      <trkpt lat="44.16922" lon="5.22381">
        <ele>1327</ele>
        <time>2015-11-18T19:32:43Z</time>
      </trkpt>
      <trkpt lat="44.16934" lon="5.22387">
        <ele>1324</ele>
        <time>2015-11-18T19:34:43Z</time>
      </trkpt>
      <trkpt lat="44.16941" lon="5.22392">
        <ele>1323</ele>
        <time>2015-11-18T19:36:43Z</time>
      </trkpt>
      <trkpt lat="44.16963" lon="5.22409">
        <ele>1319</ele>
        <time>2015-11-18T19:38:43Z</time>
      </trkpt>
      <trkpt lat="44.16975" lon="5.22419">
        <ele>1317</ele>
        <time>2015-11-18T19:40:43Z</time>
      </trkpt>
      <trkpt lat="44.16985" lon="5.22429">
        <ele>1316</ele>
        <time>2015-11-18T19:42:43Z</time>
      </trkpt>
      <trkpt lat="44.17" lon="5.22445">
        <ele>1315</ele>
        <time>2015-11-18T19:44:43Z</time>
      </trkpt>
      <trkpt lat="44.17019" lon="5.22466">
        <ele>1314</ele>
        <time>2015-11-18T19:46:43Z</time>
      </trkpt>
      <trkpt lat="44.17028" lon="5.22477">
        <ele>1314</ele>
        <time>2015-11-18T19:48:43Z</time>
      </trkpt>
      <trkpt lat="44.17032" lon="5.22483">
        <ele>1314</ele>
        <time>2015-11-18T19:50:43Z</time>
      </trkpt>
      <trkpt lat="44.17036" lon="5.22488">
        <ele>1313</ele>
        <time>2015-11-18T19:52:43Z</time>
      </trkpt>
      <trkpt lat="44.17045" lon="5.225">
        <ele>1313</ele>
        <time>2015-11-18T19:54:43Z</time>
      </trkpt>
      <trkpt lat="44.17054" lon="5.22511">
        <ele>1312</ele>
        <time>2015-11-18T19:56:43Z</time>
      </trkpt>
      <trkpt lat="44.17058" lon="5.22518">
        <ele>1312</ele>
        <time>2015-11-18T19:58:43Z</time>
      </trkpt>
      <trkpt lat="44.17072" lon="5.22536">
        <ele>1311</ele>
        <time>2015-11-18T20:00:43Z</time>
      </trkpt>
      <trkpt lat="44.17088" lon="5.22555">
        <ele>1310</ele>
        <time>2015-11-18T20:02:43Z</time>
      </trkpt>
      <trkpt lat="44.17099" lon="5.22568">
        <ele>1309</ele>
        <time>2015-11-18T20:04:43Z</time>
      </trkpt>
      <trkpt lat="44.17129" lon="5.22602">
        <ele>1303</ele>
        <time>2015-11-18T20:06:43Z</time>
      </trkpt>
      <trkpt lat="44.17165" lon="5.22646">
        <ele>1296</ele>
        <time>2015-11-18T20:08:43Z</time>
      </trkpt>
      <trkpt lat="44.17168" lon="5.2265">
        <ele>1296</ele>
        <time>2015-11-18T20:10:43Z</time>
      </trkpt>
      <trkpt lat="44.1718" lon="5.22663">
        <ele>1294</ele>
        <time>2015-11-18T20:12:43Z</time>
      </trkpt>
      <trkpt lat="44.17183" lon="5.22667">
        <ele>1294</ele>
        <time>2015-11-18T20:14:43Z</time>
      </trkpt>
      <trkpt lat="44.17186" lon="5.22671">
        <ele>1293</ele>
        <time>2015-11-18T20:16:43Z</time>
      </trkpt>
      <trkpt lat="44.17192" lon="5.22679">
        <ele>1293</ele>
        <time>2015-11-18T20:18:43Z</time>
      </trkpt>
      <trkpt lat="44.17206" lon="5.22694">
        <ele>1290</ele>
        <time>2015-11-18T20:20:43Z</time>
      </trkpt>
      <trkpt lat="44.17208" lon="5.22697">
        <ele>1290</ele>
        <time>2015-11-18T20:22:43Z</time>
      </trkpt>
      <trkpt lat="44.17211" lon="5.22699">
        <ele>1289</ele>
        <time>2015-11-18T20:24:43Z</time>
      </trkpt>
      <trkpt lat="44.17213" lon="5.22694">
        <ele>1288</ele>
        <time>2015-11-18T20:26:43Z</time>
      </trkpt>
      <trkpt lat="44.17211" lon="5.22687">
        <ele>1287</ele>
        <time>2015-11-18T20:28:43Z</time>
      </trkpt>
      <trkpt lat="44.17203" lon="5.22664">
        <ele>1285</ele>
        <time>2015-11-18T20:30:43Z</time>
      </trkpt>
      <trkpt lat="44.17193" lon="5.22638">
        <ele>1283</ele>
        <time>2015-11-18T20:32:43Z</time>
      </trkpt>
      <trkpt lat="44.17177" lon="5.22597">
        <ele>1281</ele>
        <time>2015-11-18T20:34:43Z</time>
      </trkpt>
      <trkpt lat="44.17167" lon="5.22571">
        <ele>1279</ele>
        <time>2015-11-18T20:36:43Z</time>
      </trkpt>
      <trkpt lat="44.17163" lon="5.22559">
        <ele>1278</ele>
        <time>2015-11-18T20:38:43Z</time>
      </trkpt>
      <trkpt lat="44.17158" lon="5.22544">
        <ele>1277</ele>
        <time>2015-11-18T20:40:43Z</time>
      </trkpt>
      <trkpt lat="44.17149" lon="5.22516">
        <ele>1275</ele>
        <time>2015-11-18T20:42:43Z</time>
      </trkpt>
      <trkpt lat="44.1714" lon="5.22491">
        <ele>1272</ele>
        <time>2015-11-18T20:44:43Z</time>
      </trkpt>
      <trkpt lat="44.17134" lon="5.22476">
        <ele>1271</ele>
        <time>2015-11-18T20:46:43Z</time>
      </trkpt>
      <trkpt lat="44.1713" lon="5.22468">
        <ele>1271</ele>
        <time>2015-11-18T20:48:43Z</time>
      </trkpt>
      <trkpt lat="44.17127" lon="5.22461">
        <ele>1270</ele>
        <time>2015-11-18T20:50:43Z</time>
      </trkpt>
      <trkpt lat="44.17111" lon="5.22426">
        <ele>1267</ele>
        <time>2015-11-18T20:52:43Z</time>
      </trkpt>
      <trkpt lat="44.17108" lon="5.22419">
        <ele>1266</ele>
        <time>2015-11-18T20:54:43Z</time>
      </trkpt>
      <trkpt lat="44.17105" lon="5.22412">
        <ele>1266</ele>
        <time>2015-11-18T20:56:43Z</time>
      </trkpt>
      <trkpt lat="44.17083" lon="5.2237">
        <ele>1263</ele>
        <time>2015-11-18T20:58:43Z</time>
      </trkpt>
      <trkpt lat="44.1708" lon="5.22362">
        <ele>1263</ele>
        <time>2015-11-18T21:00:43Z</time>
      </trkpt>
      <trkpt lat="44.17068" lon="5.22339">
        <ele>1261</ele>
        <time>2015-11-18T21:02:43Z</time>
      </trkpt>
      <trkpt lat="44.17064" lon="5.22331">
        <ele>1261</ele>
        <time>2015-11-18T21:04:43Z</time>
      </trkpt>
      <trkpt lat="44.17056" lon="5.22314">
        <ele>1261</ele>
        <time>2015-11-18T21:06:43Z</time>
      </trkpt>
      <trkpt lat="44.17047" lon="5.22296">
        <ele>1261</ele>
        <time>2015-11-18T21:08:43Z</time>
      </trkpt>
      <trkpt lat="44.17039" lon="5.22277">
        <ele>1261</ele>
        <time>2015-11-18T21:10:43Z</time>
      </trkpt>
      <trkpt lat="44.17029" lon="5.22251">
        <ele>1260</ele>
        <time>2015-11-18T21:12:43Z</time>
      </trkpt>
      <trkpt lat="44.17021" lon="5.22225">
        <ele>1257</ele>
        <time>2015-11-18T21:14:43Z</time>
      </trkpt>
      <trkpt lat="44.17016" lon="5.22209">
        <ele>1255</ele>
        <time>2015-11-18T21:16:43Z</time>
      </trkpt>
      <trkpt lat="44.1701" lon="5.22184">
        <ele>1252</ele>
        <time>2015-11-18T21:18:43Z</time>
      </trkpt>
      <trkpt lat="44.17001" lon="5.22142">
        <ele>1247</ele>
        <time>2015-11-18T21:20:43Z</time>
      </trkpt>
      <trkpt lat="44.16996" lon="5.22116">
        <ele>1243</ele>
        <time>2015-11-18T21:22:43Z</time>
      </trkpt>
      <trkpt lat="44.16987" lon="5.22081">
        <ele>1239</ele>
        <time>2015-11-18T21:24:43Z</time>
      </trkpt>
      <trkpt lat="44.1698" lon="5.22053">
        <ele>1236</ele>
        <time>2015-11-18T21:26:43Z</time>
      </trkpt>
      <trkpt lat="44.16971" lon="5.22023">
        <ele>1234</ele>
        <time>2015-11-18T21:28:43Z</time>
      </trkpt>
      <trkpt lat="44.1697" lon="5.22017">
        <ele>1233</ele>
        <time>2015-11-18T21:30:43Z</time>
      </trkpt>
      <trkpt lat="44.16969" lon="5.22013">
        <ele>1233</ele>
        <time>2015-11-18T21:32:43Z</time>
      </trkpt>
      <trkpt lat="44.1697" lon="5.22009">
        <ele>1232</ele>
        <time>2015-11-18T21:34:43Z</time>
      </trkpt>
      <trkpt lat="44.16972" lon="5.22005">
        <ele>1230</ele>
        <time>2015-11-18T21:36:43Z</time>
      </trkpt>
      <trkpt lat="44.16974" lon="5.22002">
        <ele>1229</ele>
        <time>2015-11-18T21:38:43Z</time>
      </trkpt>
      <trkpt lat="44.16977" lon="5.21999">
        <ele>1227</ele>
        <time>2015-11-18T21:40:43Z</time>
      </trkpt>
      <trkpt lat="44.1698" lon="5.21997">
        <ele>1226</ele>
        <time>2015-11-18T21:42:43Z</time>
      </trkpt>
      <trkpt lat="44.16984" lon="5.21995">
        <ele>1224</ele>
        <time>2015-11-18T21:44:43Z</time>
      </trkpt>
      <trkpt lat="44.16988" lon="5.21993">
        <ele>1222</ele>
        <time>2015-11-18T21:46:43Z</time>
      </trkpt>
      <trkpt lat="44.16997" lon="5.21991">
        <ele>1219</ele>
        <time>2015-11-18T21:48:43Z</time>
      </trkpt>
      <trkpt lat="44.17001" lon="5.21991">
        <ele>1217</ele>
        <time>2015-11-18T21:50:43Z</time>
      </trkpt>
      <trkpt lat="44.17011" lon="5.21991">
        <ele>1213</ele>
        <time>2015-11-18T21:52:43Z</time>
      </trkpt>
      <trkpt lat="44.17015" lon="5.21992">
        <ele>1212</ele>
        <time>2015-11-18T21:54:43Z</time>
      </trkpt>
      <trkpt lat="44.17019" lon="5.21993">
        <ele>1210</ele>
        <time>2015-11-18T21:56:43Z</time>
      </trkpt>
      <trkpt lat="44.17024" lon="5.21995">
        <ele>1209</ele>
        <time>2015-11-18T21:58:43Z</time>
      </trkpt>
      <trkpt lat="44.17028" lon="5.21994">
        <ele>1207</ele>
        <time>2015-11-18T22:00:43Z</time>
      </trkpt>
      <trkpt lat="44.1703" lon="5.21991">
        <ele>1205</ele>
        <time>2015-11-18T22:02:43Z</time>
      </trkpt>
      <trkpt lat="44.1703" lon="5.21987">
        <ele>1205</ele>
        <time>2015-11-18T22:04:43Z</time>
      </trkpt>
      <trkpt lat="44.17029" lon="5.21981">
        <ele>1204</ele>
        <time>2015-11-18T22:06:43Z</time>
      </trkpt>
      <trkpt lat="44.17026" lon="5.21974">
        <ele>1204</ele>
        <time>2015-11-18T22:08:43Z</time>
      </trkpt>
      <trkpt lat="44.17018" lon="5.21957">
        <ele>1204</ele>
        <time>2015-11-18T22:10:43Z</time>
      </trkpt>
      <trkpt lat="44.17011" lon="5.21942">
        <ele>1204</ele>
        <time>2015-11-18T22:12:43Z</time>
      </trkpt>
      <trkpt lat="44.17008" lon="5.21937">
        <ele>1205</ele>
        <time>2015-11-18T22:14:43Z</time>
      </trkpt>
      <trkpt lat="44.17005" lon="5.21931">
        <ele>1205</ele>
        <time>2015-11-18T22:16:43Z</time>
      </trkpt>
      <trkpt lat="44.16997" lon="5.21915">
        <ele>1206</ele>
        <time>2015-11-18T22:18:43Z</time>
      </trkpt>
      <trkpt lat="44.16987" lon="5.21894">
        <ele>1205</ele>
        <time>2015-11-18T22:20:43Z</time>
      </trkpt>
      <trkpt lat="44.16981" lon="5.2188">
        <ele>1205</ele>
        <time>2015-11-18T22:22:43Z</time>
      </trkpt>
      <trkpt lat="44.16979" lon="5.21875">
        <ele>1205</ele>
        <time>2015-11-18T22:24:43Z</time>
      </trkpt>
      <trkpt lat="44.16978" lon="5.2187">
        <ele>1204</ele>
        <time>2015-11-18T22:26:43Z</time>
      </trkpt>
      <trkpt lat="44.16977" lon="5.21864">
        <ele>1203</ele>
        <time>2015-11-18T22:28:43Z</time>
      </trkpt>
      <trkpt lat="44.16978" lon="5.21855">
        <ele>1201</ele>
        <time>2015-11-18T22:30:43Z</time>
      </trkpt>
      <trkpt lat="44.16978" lon="5.21851">
        <ele>1200</ele>
        <time>2015-11-18T22:32:43Z</time>
      </trkpt>
      <trkpt lat="44.16979" lon="5.21845">
        <ele>1199</ele>
        <time>2015-11-18T22:34:43Z</time>
      </trkpt>
      <trkpt lat="44.16981" lon="5.21835">
        <ele>1196</ele>
        <time>2015-11-18T22:36:43Z</time>
      </trkpt>
      <trkpt lat="44.16984" lon="5.21826">
        <ele>1193</ele>
        <time>2015-11-18T22:38:43Z</time>
      </trkpt>
      <trkpt lat="44.16986" lon="5.2182">
        <ele>1190</ele>
        <time>2015-11-18T22:40:43Z</time>
      </trkpt>
      <trkpt lat="44.16991" lon="5.21812">
        <ele>1186</ele>
        <time>2015-11-18T22:42:43Z</time>
      </trkpt>
      <trkpt lat="44.16994" lon="5.2181">
        <ele>1184</ele>
        <time>2015-11-18T22:44:43Z</time>
      </trkpt>
      <trkpt lat="44.16996" lon="5.21808">
        <ele>1183</ele>
        <time>2015-11-18T22:46:43Z</time>
      </trkpt>
      <trkpt lat="44.16999" lon="5.21808">
        <ele>1182</ele>
        <time>2015-11-18T22:48:43Z</time>
      </trkpt>
      <trkpt lat="44.17003" lon="5.21814">
        <ele>1181</ele>
        <time>2015-11-18T22:50:43Z</time>
      </trkpt>
      <trkpt lat="44.17012" lon="5.21834">
        <ele>1181</ele>
        <time>2015-11-18T22:52:43Z</time>
      </trkpt>
      <trkpt lat="44.17022" lon="5.21851">
        <ele>1180</ele>
        <time>2015-11-18T22:54:43Z</time>
      </trkpt>
      <trkpt lat="44.17033" lon="5.21866">
        <ele>1177</ele>
        <time>2015-11-18T22:56:43Z</time>
      </trkpt>
      <trkpt lat="44.17038" lon="5.21872">
        <ele>1176</ele>
        <time>2015-11-18T22:58:43Z</time>
      </trkpt>
      <trkpt lat="44.17047" lon="5.21882">
        <ele>1174</ele>
        <time>2015-11-18T23:00:43Z</time>
      </trkpt>
      <trkpt lat="44.17058" lon="5.21894">
        <ele>1171</ele>
        <time>2015-11-18T23:02:43Z</time>
      </trkpt>
      <trkpt lat="44.17078" lon="5.21912">
        <ele>1166</ele>
        <time>2015-11-18T23:04:43Z</time>
      </trkpt>
      <trkpt lat="44.17107" lon="5.21942">
        <ele>1163</ele>
        <time>2015-11-18T23:06:43Z</time>
      </trkpt>
      <trkpt lat="44.17121" lon="5.21955">
        <ele>1161</ele>
        <time>2015-11-18T23:08:43Z</time>
      </trkpt>
      <trkpt lat="44.17136" lon="5.21968">
        <ele>1159</ele>
        <time>2015-11-18T23:10:43Z</time>
      </trkpt>
      <trkpt lat="44.17149" lon="5.21978">
        <ele>1157</ele>
        <time>2015-11-18T23:12:43Z</time>
      </trkpt>
      <trkpt lat="44.17152" lon="5.21979">
        <ele>1156</ele>
        <time>2015-11-18T23:14:43Z</time>
      </trkpt>
      <trkpt lat="44.17155" lon="5.21981">
        <ele>1156</ele>
        <time>2015-11-18T23:16:43Z</time>
      </trkpt>
      <trkpt lat="44.1717" lon="5.2199">
        <ele>1153</ele>
        <time>2015-11-18T23:18:43Z</time>
      </trkpt>
      <trkpt lat="44.17202" lon="5.22009">
        <ele>1152</ele>
        <time>2015-11-18T23:20:43Z</time>
      </trkpt>
      <trkpt lat="44.17221" lon="5.2202">
        <ele>1150</ele>
        <time>2015-11-18T23:22:43Z</time>
      </trkpt>
      <trkpt lat="44.17247" lon="5.22037">
        <ele>1148</ele>
        <time>2015-11-18T23:24:43Z</time>
      </trkpt>
      <trkpt lat="44.17251" lon="5.2204">
        <ele>1148</ele>
        <time>2015-11-18T23:26:43Z</time>
      </trkpt>
      <trkpt lat="44.17255" lon="5.22043">
        <ele>1148</ele>
        <time>2015-11-18T23:28:43Z</time>
      </trkpt>
      <trkpt lat="44.17259" lon="5.22046">
        <ele>1149</ele>
        <time>2015-11-18T23:30:43Z</time>
      </trkpt>
      <trkpt lat="44.17284" lon="5.22063">
        <ele>1150</ele>
        <time>2015-11-18T23:32:43Z</time>
      </trkpt>
      <trkpt lat="44.17307" lon="5.22077">
        <ele>1150</ele>
        <time>2015-11-18T23:34:43Z</time>
      </trkpt>
      <trkpt lat="44.17316" lon="5.22082">
        <ele>1150</ele>
        <time>2015-11-18T23:36:43Z</time>
      </trkpt>
      <trkpt lat="44.17333" lon="5.22091">
        <ele>1149</ele>
        <time>2015-11-18T23:38:43Z</time>
      </trkpt>
      <trkpt lat="44.17337" lon="5.22092">
        <ele>1148</ele>
        <time>2015-11-18T23:40:43Z</time>
      </trkpt>
      <trkpt lat="44.17338" lon="5.22088">
        <ele>1148</ele>
        <time>2015-11-18T23:42:43Z</time>
      </trkpt>
      <trkpt lat="44.17338" lon="5.22085">
        <ele>1148</ele>
        <time>2015-11-18T23:44:43Z</time>
      </trkpt>
      <trkpt lat="44.17338" lon="5.22082">
        <ele>1147</ele>
        <time>2015-11-18T23:46:43Z</time>
      </trkpt>
      <trkpt lat="44.17336" lon="5.22077">
        <ele>1147</ele>
        <time>2015-11-18T23:48:43Z</time>
      </trkpt>
      <trkpt lat="44.17333" lon="5.22068">
        <ele>1147</ele>
        <time>2015-11-18T23:50:43Z</time>
      </trkpt>
      <trkpt lat="44.17326" lon="5.22053">
        <ele>1146</ele>
        <time>2015-11-18T23:52:43Z</time>
      </trkpt>
      <trkpt lat="44.17322" lon="5.22044">
        <ele>1145</ele>
        <time>2015-11-18T23:54:43Z</time>
      </trkpt>
      <trkpt lat="44.17313" lon="5.2203">
        <ele>1144</ele>
        <time>2015-11-18T23:56:43Z</time>
      </trkpt>
      <trkpt lat="44.17308" lon="5.22019">
        <ele>1143</ele>
        <time>2015-11-18T23:58:43Z</time>
      </trkpt>
      <trkpt lat="44.17306" lon="5.22013">
        <ele>1142</ele>
        <time>2015-11-19T00:00:43Z</time>
      </trkpt>
      <trkpt lat="44.17305" lon="5.22007">
        <ele>1141</ele>
        <time>2015-11-19T00:02:43Z</time>
      </trkpt>
      <trkpt lat="44.17303" lon="5.22001">
        <ele>1140</ele>
        <time>2015-11-19T00:04:43Z</time>
      </trkpt>
      <trkpt lat="44.17302" lon="5.2199">
        <ele>1139</ele>
        <time>2015-11-19T00:06:43Z</time>
      </trkpt>
      <trkpt lat="44.17302" lon="5.21978">
        <ele>1137</ele>
        <time>2015-11-19T00:08:43Z</time>
      </trkpt>
      <trkpt lat="44.17302" lon="5.21972">
        <ele>1136</ele>
        <time>2015-11-19T00:10:43Z</time>
      </trkpt>
      <trkpt lat="44.17304" lon="5.2196">
        <ele>1135</ele>
        <time>2015-11-19T00:12:43Z</time>
      </trkpt>
      <trkpt lat="44.17307" lon="5.21948">
        <ele>1133</ele>
        <time>2015-11-19T00:14:43Z</time>
      </trkpt>
      <trkpt lat="44.17313" lon="5.21924">
        <ele>1131</ele>
        <time>2015-11-19T00:16:43Z</time>
      </trkpt>
      <trkpt lat="44.17321" lon="5.21898">
        <ele>1128</ele>
        <time>2015-11-19T00:18:43Z</time>
      </trkpt>
      <trkpt lat="44.17327" lon="5.21878">
        <ele>1126</ele>
        <time>2015-11-19T00:20:43Z</time>
      </trkpt>
      <trkpt lat="44.17328" lon="5.21871">
        <ele>1125</ele>
        <time>2015-11-19T00:22:43Z</time>
      </trkpt>
      <trkpt lat="44.17333" lon="5.21849">
        <ele>1122</ele>
        <time>2015-11-19T00:24:43Z</time>
      </trkpt>
      <trkpt lat="44.17336" lon="5.21824">
        <ele>1119</ele>
        <time>2015-11-19T00:26:43Z</time>
      </trkpt>
      <trkpt lat="44.17337" lon="5.2182">
        <ele>1118</ele>
        <time>2015-11-19T00:28:43Z</time>
      </trkpt>
      <trkpt lat="44.1734" lon="5.21811">
        <ele>1117</ele>
        <time>2015-11-19T00:30:43Z</time>
      </trkpt>
      <trkpt lat="44.17343" lon="5.21803">
        <ele>1116</ele>
        <time>2015-11-19T00:32:43Z</time>
      </trkpt>
      <trkpt lat="44.17344" lon="5.21799">
        <ele>1116</ele>
        <time>2015-11-19T00:34:43Z</time>
      </trkpt>
      <trkpt lat="44.1735" lon="5.21789">
        <ele>1115</ele>
        <time>2015-11-19T00:36:43Z</time>
      </trkpt>
      <trkpt lat="44.17356" lon="5.2178">
        <ele>1115</ele>
        <time>2015-11-19T00:38:43Z</time>
      </trkpt>
      <trkpt lat="44.17363" lon="5.21771">
        <ele>1115</ele>
        <time>2015-11-19T00:40:43Z</time>
      </trkpt>
      <trkpt lat="44.17378" lon="5.21754">
        <ele>1114</ele>
        <time>2015-11-19T00:42:43Z</time>
      </trkpt>
      <trkpt lat="44.1738" lon="5.21751">
        <ele>1114</ele>
        <time>2015-11-19T00:44:43Z</time>
      </trkpt>
      <trkpt lat="44.17383" lon="5.21748">
        <ele>1115</ele>
        <time>2015-11-19T00:46:43Z</time>
      </trkpt>
      <trkpt lat="44.17388" lon="5.21741">
        <ele>1115</ele>
        <time>2015-11-19T00:48:43Z</time>
      </trkpt>
      <trkpt lat="44.17392" lon="5.21733">
        <ele>1115</ele>
        <time>2015-11-19T00:50:43Z</time>
      </trkpt>
      <trkpt lat="44.17399" lon="5.21721">
        <ele>1115</ele>
        <time>2015-11-19T00:52:43Z</time>
      </trkpt>
      <trkpt lat="44.17401" lon="5.21714">
        <ele>1114</ele>
        <time>2015-11-19T00:54:43Z</time>
      </trkpt>
      <trkpt lat="44.17402" lon="5.21709">
        <ele>1114</ele>
        <time>2015-11-19T00:56:43Z</time>
      </trkpt>
      <trkpt lat="44.17398" lon="5.21705">
        <ele>1113</ele>
        <time>2015-11-19T00:58:43Z</time>
      </trkpt>
      <trkpt lat="44.17394" lon="5.21706">
        <ele>1112</ele>
        <time>2015-11-19T01:00:43Z</time>
      </trkpt>
      <trkpt lat="44.17389" lon="5.21707">
        <ele>1112</ele>
        <time>2015-11-19T01:02:43Z</time>
      </trkpt>
      <trkpt lat="44.17386" lon="5.21709">
        <ele>1111</ele>
        <time>2015-11-19T01:04:43Z</time>
      </trkpt>
      <trkpt lat="44.17383" lon="5.2171">
        <ele>1111</ele>
        <time>2015-11-19T01:06:43Z</time>
      </trkpt>
      <trkpt lat="44.17368" lon="5.21717">
        <ele>1109</ele>
        <time>2015-11-19T01:08:43Z</time>
      </trkpt>
      <trkpt lat="44.17352" lon="5.21727">
        <ele>1107</ele>
        <time>2015-11-19T01:10:43Z</time>
      </trkpt>
      <trkpt lat="44.17348" lon="5.21729">
        <ele>1107</ele>
        <time>2015-11-19T01:12:43Z</time>
      </trkpt>
      <trkpt lat="44.17324" lon="5.21743">
        <ele>1104</ele>
        <time>2015-11-19T01:14:43Z</time>
      </trkpt>
      <trkpt lat="44.17317" lon="5.21747">
        <ele>1103</ele>
        <time>2015-11-19T01:16:43Z</time>
      </trkpt>
      <trkpt lat="44.17314" lon="5.21749">
        <ele>1103</ele>
        <time>2015-11-19T01:18:43Z</time>
      </trkpt>
      <trkpt lat="44.17312" lon="5.21747">
        <ele>1102</ele>
        <time>2015-11-19T01:20:43Z</time>
      </trkpt>
      <trkpt lat="44.17312" lon="5.21744">
        <ele>1102</ele>
        <time>2015-11-19T01:22:43Z</time>
      </trkpt>
      <trkpt lat="44.17313" lon="5.21739">
        <ele>1101</ele>
        <time>2015-11-19T01:24:43Z</time>
      </trkpt>
      <trkpt lat="44.17316" lon="5.21735">
        <ele>1101</ele>
        <time>2015-11-19T01:26:43Z</time>
      </trkpt>
      <trkpt lat="44.17321" lon="5.21725">
        <ele>1101</ele>
        <time>2015-11-19T01:28:43Z</time>
      </trkpt>
      <trkpt lat="44.17323" lon="5.21722">
        <ele>1101</ele>
        <time>2015-11-19T01:30:43Z</time>
      </trkpt>
      <trkpt lat="44.17329" lon="5.21711">
        <ele>1100</ele>
        <time>2015-11-19T01:32:43Z</time>
      </trkpt>
      <trkpt lat="44.17332" lon="5.21705">
        <ele>1100</ele>
        <time>2015-11-19T01:34:43Z</time>
      </trkpt>
      <trkpt lat="44.17334" lon="5.217">
        <ele>1100</ele>
        <time>2015-11-19T01:36:43Z</time>
      </trkpt>
      <trkpt lat="44.17336" lon="5.21689">
        <ele>1099</ele>
        <time>2015-11-19T01:38:43Z</time>
      </trkpt>
      <trkpt lat="44.17337" lon="5.21684">
        <ele>1098</ele>
        <time>2015-11-19T01:40:43Z</time>
      </trkpt>
      <trkpt lat="44.17337" lon="5.21673">
        <ele>1097</ele>
        <time>2015-11-19T01:42:43Z</time>
      </trkpt>
      <trkpt lat="44.17336" lon="5.21667">
        <ele>1096</ele>
        <time>2015-11-19T01:44:43Z</time>
      </trkpt>
      <trkpt lat="44.17335" lon="5.21656">
        <ele>1095</ele>
        <time>2015-11-19T01:46:43Z</time>
      </trkpt>
      <trkpt lat="44.17332" lon="5.21645">
        <ele>1094</ele>
        <time>2015-11-19T01:48:43Z</time>
      </trkpt>
      <trkpt lat="44.1733" lon="5.21639">
        <ele>1093</ele>
        <time>2015-11-19T01:50:43Z</time>
      </trkpt>
      <trkpt lat="44.17324" lon="5.21622">
        <ele>1090</ele>
        <time>2015-11-19T01:52:43Z</time>
      </trkpt>
      <trkpt lat="44.17302" lon="5.21573">
        <ele>1081</ele>
        <time>2015-11-19T01:54:43Z</time>
      </trkpt>
      <trkpt lat="44.17294" lon="5.21554">
        <ele>1078</ele>
        <time>2015-11-19T01:56:43Z</time>
      </trkpt>
      <trkpt lat="44.1729" lon="5.21541">
        <ele>1076</ele>
        <time>2015-11-19T01:58:43Z</time>
      </trkpt>
      <trkpt lat="44.17286" lon="5.21528">
        <ele>1074</ele>
        <time>2015-11-19T02:00:43Z</time>
      </trkpt>
      <trkpt lat="44.17279" lon="5.21505">
        <ele>1071</ele>
        <time>2015-11-19T02:02:43Z</time>
      </trkpt>
      <trkpt lat="44.17277" lon="5.215">
        <ele>1070</ele>
        <time>2015-11-19T02:04:43Z</time>
      </trkpt>
      <trkpt lat="44.17274" lon="5.2149">
        <ele>1069</ele>
        <time>2015-11-19T02:06:43Z</time>
      </trkpt>
      <trkpt lat="44.17263" lon="5.21461">
        <ele>1065</ele>
        <time>2015-11-19T02:08:43Z</time>
      </trkpt>
      <trkpt lat="44.17255" lon="5.21439">
        <ele>1063</ele>
        <time>2015-11-19T02:10:43Z</time>
      </trkpt>
      <trkpt lat="44.17247" lon="5.2142">
        <ele>1060</ele>
        <time>2015-11-19T02:12:43Z</time>
      </trkpt>
      <trkpt lat="44.17238" lon="5.21395">
        <ele>1056</ele>
        <time>2015-11-19T02:14:43Z</time>
      </trkpt>
      <trkpt lat="44.17234" lon="5.21384">
        <ele>1054</ele>
        <time>2015-11-19T02:16:43Z</time>
      </trkpt>
      <trkpt lat="44.17232" lon="5.21378">
        <ele>1053</ele>
        <time>2015-11-19T02:18:43Z</time>
      </trkpt>
      <trkpt lat="44.17226" lon="5.21362">
        <ele>1050</ele>
        <time>2015-11-19T02:20:43Z</time>
      </trkpt>
      <trkpt lat="44.17224" lon="5.21357">
        <ele>1049</ele>
        <time>2015-11-19T02:22:43Z</time>
      </trkpt>
      <trkpt lat="44.17223" lon="5.21352">
        <ele>1049</ele>
        <time>2015-11-19T02:24:43Z</time>
      </trkpt>
      <trkpt lat="44.17219" lon="5.21337">
        <ele>1047</ele>
        <time>2015-11-19T02:26:43Z</time>
      </trkpt>
      <trkpt lat="44.17216" lon="5.21323">
        <ele>1045</ele>
        <time>2015-11-19T02:28:43Z</time>
      </trkpt>
      <trkpt lat="44.17213" lon="5.2131">
        <ele>1043</ele>
        <time>2015-11-19T02:30:43Z</time>
      </trkpt>
      <trkpt lat="44.17212" lon="5.21301">
        <ele>1043</ele>
        <time>2015-11-19T02:32:43Z</time>
      </trkpt>
      <trkpt lat="44.17209" lon="5.21283">
        <ele>1041</ele>
        <time>2015-11-19T02:34:43Z</time>
      </trkpt>
      <trkpt lat="44.17209" lon="5.21278">
        <ele>1041</ele>
        <time>2015-11-19T02:36:43Z</time>
      </trkpt>
      <trkpt lat="44.17208" lon="5.21269">
        <ele>1040</ele>
        <time>2015-11-19T02:38:43Z</time>
      </trkpt>
      <trkpt lat="44.17207" lon="5.21264">
        <ele>1040</ele>
        <time>2015-11-19T02:40:43Z</time>
      </trkpt>
      <trkpt lat="44.17206" lon="5.21254">
        <ele>1039</ele>
        <time>2015-11-19T02:42:43Z</time>
      </trkpt>
      <trkpt lat="44.17206" lon="5.21249">
        <ele>1039</ele>
        <time>2015-11-19T02:44:43Z</time>
      </trkpt>
      <trkpt lat="44.17204" lon="5.21228">
        <ele>1037</ele>
        <time>2015-11-19T02:46:43Z</time>
      </trkpt>
      <trkpt lat="44.17199" lon="5.21192">
        <ele>1034</ele>
        <time>2015-11-19T02:48:43Z</time>
      </trkpt>
      <trkpt lat="44.17197" lon="5.21169">
        <ele>1032</ele>
        <time>2015-11-19T02:50:43Z</time>
      </trkpt>
      <trkpt lat="44.17195" lon="5.21148">
        <ele>1031</ele>
        <time>2015-11-19T02:52:43Z</time>
      </trkpt>
      <trkpt lat="44.17194" lon="5.21127">
        <ele>1030</ele>
        <time>2015-11-19T02:54:43Z</time>
      </trkpt>
      <trkpt lat="44.17192" lon="5.21078">
        <ele>1029</ele>
        <time>2015-11-19T02:56:43Z</time>
      </trkpt>
      <trkpt lat="44.17191" lon="5.21059">
        <ele>1028</ele>
        <time>2015-11-19T02:58:43Z</time>
      </trkpt>
      <trkpt lat="44.17191" lon="5.21012">
        <ele>1027</ele>
        <time>2015-11-19T03:00:43Z</time>
      </trkpt>
      <trkpt lat="44.17192" lon="5.2094">
        <ele>1024</ele>
        <time>2015-11-19T03:02:43Z</time>
      </trkpt>
      <trkpt lat="44.17192" lon="5.20882">
        <ele>1020</ele>
        <time>2015-11-19T03:04:43Z</time>
      </trkpt>
      <trkpt lat="44.17193" lon="5.20876">
        <ele>1020</ele>
        <time>2015-11-19T03:06:43Z</time>
      </trkpt>
      <trkpt lat="44.17195" lon="5.20872">
        <ele>1020</ele>
        <time>2015-11-19T03:08:43Z</time>
      </trkpt>
      <trkpt lat="44.17199" lon="5.20869">
        <ele>1020</ele>
        <time>2015-11-19T03:10:43Z</time>
      </trkpt>
      <trkpt lat="44.17207" lon="5.20864">
        <ele>1020</ele>
        <time>2015-11-19T03:12:43Z</time>
      </trkpt>
      <trkpt lat="44.1721" lon="5.20861">
        <ele>1020</ele>
        <time>2015-11-19T03:14:43Z</time>
      </trkpt>
      <trkpt lat="44.17212" lon="5.20857">
        <ele>1019</ele>
        <time>2015-11-19T03:16:43Z</time>
      </trkpt>
      <trkpt lat="44.17212" lon="5.20852">
        <ele>1019</ele>
        <time>2015-11-19T03:18:43Z</time>
      </trkpt>
      <trkpt lat="44.17211" lon="5.20838">
        <ele>1017</ele>
        <time>2015-11-19T03:20:43Z</time>
      </trkpt>
      <trkpt lat="44.17207" lon="5.20815">
        <ele>1016</ele>
        <time>2015-11-19T03:22:43Z</time>
      </trkpt>
      <trkpt lat="44.17201" lon="5.20788">
        <ele>1015</ele>
        <time>2015-11-19T03:24:43Z</time>
      </trkpt>
      <trkpt lat="44.17196" lon="5.20769">
        <ele>1014</ele>
        <time>2015-11-19T03:26:43Z</time>
      </trkpt>
      <trkpt lat="44.17195" lon="5.20764">
        <ele>1014</ele>
        <time>2015-11-19T03:28:43Z</time>
      </trkpt>
      <trkpt lat="44.1719" lon="5.20745">
        <ele>1014</ele>
        <time>2015-11-19T03:30:43Z</time>
      </trkpt>
      <trkpt lat="44.17182" lon="5.20719">
        <ele>1014</ele>
        <time>2015-11-19T03:32:43Z</time>
      </trkpt>
      <trkpt lat="44.17181" lon="5.20714">
        <ele>1014</ele>
        <time>2015-11-19T03:34:43Z</time>
      </trkpt>
      <trkpt lat="44.17179" lon="5.20709">
        <ele>1014</ele>
        <time>2015-11-19T03:36:43Z</time>
      </trkpt>
      <trkpt lat="44.17177" lon="5.20703">
        <ele>1014</ele>
        <time>2015-11-19T03:38:43Z</time>
      </trkpt>
      <trkpt lat="44.17169" lon="5.20674">
        <ele>1015</ele>
        <time>2015-11-19T03:40:43Z</time>
      </trkpt>
      <trkpt lat="44.1716" lon="5.20638">
        <ele>1011</ele>
        <time>2015-11-19T03:42:43Z</time>
      </trkpt>
      <trkpt lat="44.17158" lon="5.20633">
        <ele>1010</ele>
        <time>2015-11-19T03:44:43Z</time>
      </trkpt>
      <trkpt lat="44.17147" lon="5.20594">
        <ele>1005</ele>
        <time>2015-11-19T03:46:43Z</time>
      </trkpt>
      <trkpt lat="44.17146" lon="5.2059">
        <ele>1004</ele>
        <time>2015-11-19T03:48:43Z</time>
      </trkpt>
      <trkpt lat="44.17144" lon="5.20586">
        <ele>1004</ele>
        <time>2015-11-19T03:50:43Z</time>
      </trkpt>
      <trkpt lat="44.17131" lon="5.2055">
        <ele>998</ele>
        <time>2015-11-19T03:52:43Z</time>
      </trkpt>
      <trkpt lat="44.1712" lon="5.2052">
        <ele>995</ele>
        <time>2015-11-19T03:54:43Z</time>
      </trkpt>
      <trkpt lat="44.17117" lon="5.2051">
        <ele>995</ele>
        <time>2015-11-19T03:56:43Z</time>
      </trkpt>
      <trkpt lat="44.17113" lon="5.20497">
        <ele>994</ele>
        <time>2015-11-19T03:58:43Z</time>
      </trkpt>
      <trkpt lat="44.1711" lon="5.20479">
        <ele>993</ele>
        <time>2015-11-19T04:00:43Z</time>
      </trkpt>
      <trkpt lat="44.17107" lon="5.20462">
        <ele>992</ele>
        <time>2015-11-19T04:02:43Z</time>
      </trkpt>
      <trkpt lat="44.17104" lon="5.20431">
        <ele>990</ele>
        <time>2015-11-19T04:04:43Z</time>
      </trkpt>
      <trkpt lat="44.17102" lon="5.20417">
        <ele>990</ele>
        <time>2015-11-19T04:06:43Z</time>
      </trkpt>
      <trkpt lat="44.17098" lon="5.20392">
        <ele>988</ele>
        <time>2015-11-19T04:08:43Z</time>
      </trkpt>
      <trkpt lat="44.17097" lon="5.20387">
        <ele>987</ele>
        <time>2015-11-19T04:10:43Z</time>
      </trkpt>
      <trkpt lat="44.17096" lon="5.20381">
        <ele>987</ele>
        <time>2015-11-19T04:12:43Z</time>
      </trkpt>
      <trkpt lat="44.17095" lon="5.20377">
        <ele>987</ele>
        <time>2015-11-19T04:14:43Z</time>
      </trkpt>
      <trkpt lat="44.17093" lon="5.20366">
        <ele>986</ele>
        <time>2015-11-19T04:16:43Z</time>
      </trkpt>
      <trkpt lat="44.17093" lon="5.20362">
        <ele>986</ele>
        <time>2015-11-19T04:18:43Z</time>
      </trkpt>
      <trkpt lat="44.17092" lon="5.20352">
        <ele>986</ele>
        <time>2015-11-19T04:20:43Z</time>
      </trkpt>
      <trkpt lat="44.17092" lon="5.20345">
        <ele>985</ele>
        <time>2015-11-19T04:22:43Z</time>
      </trkpt>
      <trkpt lat="44.17094" lon="5.20329">
        <ele>983</ele>
        <time>2015-11-19T04:24:43Z</time>
      </trkpt>
      <trkpt lat="44.17099" lon="5.20296">
        <ele>975</ele>
        <time>2015-11-19T04:26:43Z</time>
      </trkpt>
      <trkpt lat="44.171" lon="5.20289">
        <ele>974</ele>
        <time>2015-11-19T04:28:43Z</time>
      </trkpt>
      <trkpt lat="44.17101" lon="5.20277">
        <ele>971</ele>
        <time>2015-11-19T04:30:43Z</time>
      </trkpt>
      <trkpt lat="44.17101" lon="5.20269">
        <ele>970</ele>
        <time>2015-11-19T04:32:43Z</time>
      </trkpt>
      <trkpt lat="44.17101" lon="5.20265">
        <ele>969</ele>
        <time>2015-11-19T04:34:43Z</time>
      </trkpt>
      <trkpt lat="44.17101" lon="5.20252">
        <ele>967</ele>
        <time>2015-11-19T04:36:43Z</time>
      </trkpt>
      <trkpt lat="44.17101" lon="5.20237">
        <ele>965</ele>
        <time>2015-11-19T04:38:43Z</time>
      </trkpt>
      <trkpt lat="44.171" lon="5.2022">
        <ele>963</ele>
        <time>2015-11-19T04:40:43Z</time>
      </trkpt>
      <trkpt lat="44.17098" lon="5.20198">
        <ele>961</ele>
        <time>2015-11-19T04:42:43Z</time>
      </trkpt>
      <trkpt lat="44.17094" lon="5.20164">
        <ele>960</ele>
        <time>2015-11-19T04:44:43Z</time>
      </trkpt>
      <trkpt lat="44.17093" lon="5.2016">
        <ele>960</ele>
        <time>2015-11-19T04:46:43Z</time>
      </trkpt>
      <trkpt lat="44.17092" lon="5.20145">
        <ele>959</ele>
        <time>2015-11-19T04:48:43Z</time>
      </trkpt>
      <trkpt lat="44.17092" lon="5.20142">
        <ele>959</ele>
        <time>2015-11-19T04:50:43Z</time>
      </trkpt>
      <trkpt lat="44.1709" lon="5.20132">
        <ele>959</ele>
        <time>2015-11-19T04:52:43Z</time>
      </trkpt>
      <trkpt lat="44.1709" lon="5.20129">
        <ele>959</ele>
        <time>2015-11-19T04:54:43Z</time>
      </trkpt>
      <trkpt lat="44.17089" lon="5.20117">
        <ele>959</ele>
        <time>2015-11-19T04:56:43Z</time>
      </trkpt>
      <trkpt lat="44.17088" lon="5.2011">
        <ele>959</ele>
        <time>2015-11-19T04:58:43Z</time>
      </trkpt>
      <trkpt lat="44.17086" lon="5.20095">
        <ele>959</ele>
        <time>2015-11-19T05:00:43Z</time>
      </trkpt>
      <trkpt lat="44.17081" lon="5.20066">
        <ele>958</ele>
        <time>2015-11-19T05:02:43Z</time>
      </trkpt>
      <trkpt lat="44.17079" lon="5.20056">
        <ele>958</ele>
        <time>2015-11-19T05:04:43Z</time>
      </trkpt>
      <trkpt lat="44.17072" lon="5.2002">
        <ele>956</ele>
        <time>2015-11-19T05:06:43Z</time>
      </trkpt>
      <trkpt lat="44.17071" lon="5.20014">
        <ele>956</ele>
        <time>2015-11-19T05:08:43Z</time>
      </trkpt>
      <trkpt lat="44.17067" lon="5.19993">
        <ele>955</ele>
        <time>2015-11-19T05:10:43Z</time>
      </trkpt>
      <trkpt lat="44.17065" lon="5.19973">
        <ele>953</ele>
        <time>2015-11-19T05:12:43Z</time>
      </trkpt>
      <trkpt lat="44.17063" lon="5.19963">
        <ele>952</ele>
        <time>2015-11-19T05:14:43Z</time>
      </trkpt>
      <trkpt lat="44.17062" lon="5.19953">
        <ele>951</ele>
        <time>2015-11-19T05:16:43Z</time>
      </trkpt>
      <trkpt lat="44.17058" lon="5.19926">
        <ele>949</ele>
        <time>2015-11-19T05:18:43Z</time>
      </trkpt>
      <trkpt lat="44.17058" lon="5.1992">
        <ele>948</ele>
        <time>2015-11-19T05:20:43Z</time>
      </trkpt>
      <trkpt lat="44.17053" lon="5.19883">
        <ele>943</ele>
        <time>2015-11-19T05:22:43Z</time>
      </trkpt>
      <trkpt lat="44.17049" lon="5.1986">
        <ele>941</ele>
        <time>2015-11-19T05:24:43Z</time>
      </trkpt>
      <trkpt lat="44.17047" lon="5.19846">
        <ele>939</ele>
        <time>2015-11-19T05:26:43Z</time>
      </trkpt>
      <trkpt lat="44.17044" lon="5.19833">
        <ele>938</ele>
        <time>2015-11-19T05:28:43Z</time>
      </trkpt>
      <trkpt lat="44.1704" lon="5.19821">
        <ele>937</ele>
        <time>2015-11-19T05:30:43Z</time>
      </trkpt>
      <trkpt lat="44.17035" lon="5.19803">
        <ele>935</ele>
        <time>2015-11-19T05:32:43Z</time>
      </trkpt>
      <trkpt lat="44.17028" lon="5.19787">
        <ele>935</ele>
        <time>2015-11-19T05:34:43Z</time>
      </trkpt>
      <trkpt lat="44.17024" lon="5.19776">
        <ele>935</ele>
        <time>2015-11-19T05:36:43Z</time>
      </trkpt>
      <trkpt lat="44.1701" lon="5.1975">
        <ele>935</ele>
        <time>2015-11-19T05:38:43Z</time>
      </trkpt>
      <trkpt lat="44.17002" lon="5.19734">
        <ele>937</ele>
        <time>2015-11-19T05:40:43Z</time>
      </trkpt>
      <trkpt lat="44.16978" lon="5.19693">
        <ele>931</ele>
        <time>2015-11-19T05:42:43Z</time>
      </trkpt>
      <trkpt lat="44.16975" lon="5.19687">
        <ele>930</ele>
        <time>2015-11-19T05:44:43Z</time>
      </trkpt>
      <trkpt lat="44.16973" lon="5.19681">
        <ele>929</ele>
        <time>2015-11-19T05:46:43Z</time>
      </trkpt>
      <trkpt lat="44.16971" lon="5.19675">
        <ele>928</ele>
        <time>2015-11-19T05:48:43Z</time>
      </trkpt>
      <trkpt lat="44.1697" lon="5.19669">
        <ele>927</ele>
        <time>2015-11-19T05:50:43Z</time>
      </trkpt>
      <trkpt lat="44.16969" lon="5.19663">
        <ele>926</ele>
        <time>2015-11-19T05:52:43Z</time>
      </trkpt>
      <trkpt lat="44.16969" lon="5.19651">
        <ele>925</ele>
        <time>2015-11-19T05:54:43Z</time>
      </trkpt>
      <trkpt lat="44.16969" lon="5.19622">
        <ele>923</ele>
        <time>2015-11-19T05:56:43Z</time>
      </trkpt>
      <trkpt lat="44.16968" lon="5.19609">
        <ele>922</ele>
        <time>2015-11-19T05:58:43Z</time>
      </trkpt>
      <trkpt lat="44.16966" lon="5.19599">
        <ele>921</ele>
        <time>2015-11-19T06:00:43Z</time>
      </trkpt>
      <trkpt lat="44.16962" lon="5.19584">
        <ele>921</ele>
        <time>2015-11-19T06:02:43Z</time>
      </trkpt>
      <trkpt lat="44.16959" lon="5.19574">
        <ele>921</ele>
        <time>2015-11-19T06:04:43Z</time>
      </trkpt>
      <trkpt lat="44.16958" lon="5.19563">
        <ele>922</ele>
        <time>2015-11-19T06:06:43Z</time>
      </trkpt>
      <trkpt lat="44.16958" lon="5.1955">
        <ele>922</ele>
        <time>2015-11-19T06:08:43Z</time>
      </trkpt>
      <trkpt lat="44.16958" lon="5.19543">
        <ele>923</ele>
        <time>2015-11-19T06:10:43Z</time>
      </trkpt>
      <trkpt lat="44.1696" lon="5.19524">
        <ele>923</ele>
        <time>2015-11-19T06:12:43Z</time>
      </trkpt>
      <trkpt lat="44.16961" lon="5.19514">
        <ele>923</ele>
        <time>2015-11-19T06:14:43Z</time>
      </trkpt>
      <trkpt lat="44.16963" lon="5.19492">
        <ele>923</ele>
        <time>2015-11-19T06:16:43Z</time>
      </trkpt>
      <trkpt lat="44.16963" lon="5.1948">
        <ele>923</ele>
        <time>2015-11-19T06:18:43Z</time>
      </trkpt>
      <trkpt lat="44.16963" lon="5.19471">
        <ele>923</ele>
        <time>2015-11-19T06:20:43Z</time>
      </trkpt>
      <trkpt lat="44.16963" lon="5.19456">
        <ele>923</ele>
        <time>2015-11-19T06:22:43Z</time>
      </trkpt>
      <trkpt lat="44.16962" lon="5.19428">
        <ele>923</ele>
        <time>2015-11-19T06:24:43Z</time>
      </trkpt>
      <trkpt lat="44.16959" lon="5.19396">
        <ele>922</ele>
        <time>2015-11-19T06:26:43Z</time>
      </trkpt>
      <trkpt lat="44.16958" lon="5.1939">
        <ele>921</ele>
        <time>2015-11-19T06:28:43Z</time>
      </trkpt>
      <trkpt lat="44.16957" lon="5.19378">
        <ele>920</ele>
        <time>2015-11-19T06:30:43Z</time>
      </trkpt>
      <trkpt lat="44.16953" lon="5.19348">
        <ele>918</ele>
        <time>2015-11-19T06:32:43Z</time>
      </trkpt>
      <trkpt lat="44.16953" lon="5.19342">
        <ele>917</ele>
        <time>2015-11-19T06:34:43Z</time>
      </trkpt>
      <trkpt lat="44.1695" lon="5.19316">
        <ele>914</ele>
        <time>2015-11-19T06:36:43Z</time>
      </trkpt>
      <trkpt lat="44.16949" lon="5.19309">
        <ele>913</ele>
        <time>2015-11-19T06:38:43Z</time>
      </trkpt>
      <trkpt lat="44.16947" lon="5.19288">
        <ele>910</ele>
        <time>2015-11-19T06:40:43Z</time>
      </trkpt>
      <trkpt lat="44.16944" lon="5.19251">
        <ele>904</ele>
        <time>2015-11-19T06:42:43Z</time>
      </trkpt>
      <trkpt lat="44.16944" lon="5.19246">
        <ele>903</ele>
        <time>2015-11-19T06:44:43Z</time>
      </trkpt>
      <trkpt lat="44.16942" lon="5.19226">
        <ele>900</ele>
        <time>2015-11-19T06:46:43Z</time>
      </trkpt>
      <trkpt lat="44.16942" lon="5.19218">
        <ele>899</ele>
        <time>2015-11-19T06:48:43Z</time>
      </trkpt>
      <trkpt lat="44.16941" lon="5.19214">
        <ele>898</ele>
        <time>2015-11-19T06:50:43Z</time>
      </trkpt>
      <trkpt lat="44.1694" lon="5.19173">
        <ele>891</ele>
        <time>2015-11-19T06:52:43Z</time>
      </trkpt>
      <trkpt lat="44.1694" lon="5.19168">
        <ele>890</ele>
        <time>2015-11-19T06:54:43Z</time>
      </trkpt>
      <trkpt lat="44.1694" lon="5.1916">
        <ele>889</ele>
        <time>2015-11-19T06:56:43Z</time>
      </trkpt>
      <trkpt lat="44.1694" lon="5.19156">
        <ele>888</ele>
        <time>2015-11-19T06:58:43Z</time>
      </trkpt>
      <trkpt lat="44.16939" lon="5.19147">
        <ele>887</ele>
        <time>2015-11-19T07:00:43Z</time>
      </trkpt>
      <trkpt lat="44.16939" lon="5.19128">
        <ele>885</ele>
        <time>2015-11-19T07:02:43Z</time>
      </trkpt>
      <trkpt lat="44.1694" lon="5.1911">
        <ele>882</ele>
        <time>2015-11-19T07:04:43Z</time>
      </trkpt>
      <trkpt lat="44.16941" lon="5.19097">
        <ele>880</ele>
        <time>2015-11-19T07:06:43Z</time>
      </trkpt>
      <trkpt lat="44.16943" lon="5.19085">
        <ele>878</ele>
        <time>2015-11-19T07:08:43Z</time>
      </trkpt>
      <trkpt lat="44.16944" lon="5.19078">
        <ele>878</ele>
        <time>2015-11-19T07:10:43Z</time>
      </trkpt>
      <trkpt lat="44.16949" lon="5.19052">
        <ele>877</ele>
        <time>2015-11-19T07:12:43Z</time>
      </trkpt>
      <trkpt lat="44.1695" lon="5.19048">
        <ele>876</ele>
        <time>2015-11-19T07:14:43Z</time>
      </trkpt>
      <trkpt lat="44.16952" lon="5.19041">
        <ele>876</ele>
        <time>2015-11-19T07:16:43Z</time>
      </trkpt>
      <trkpt lat="44.16953" lon="5.19037">
        <ele>876</ele>
        <time>2015-11-19T07:18:43Z</time>
      </trkpt>
      <trkpt lat="44.16959" lon="5.19002">
        <ele>874</ele>
        <time>2015-11-19T07:20:43Z</time>
      </trkpt>
      <trkpt lat="44.16961" lon="5.18997">
        <ele>873</ele>
        <time>2015-11-19T07:22:43Z</time>
      </trkpt>
      <trkpt lat="44.16965" lon="5.18996">
        <ele>872</ele>
        <time>2015-11-19T07:24:43Z</time>
      </trkpt>
      <trkpt lat="44.16973" lon="5.18997">
        <ele>870</ele>
        <time>2015-11-19T07:26:43Z</time>
      </trkpt>
      <trkpt lat="44.16976" lon="5.18999">
        <ele>869</ele>
        <time>2015-11-19T07:28:43Z</time>
      </trkpt>
      <trkpt lat="44.1698" lon="5.19">
        <ele>868</ele>
        <time>2015-11-19T07:30:43Z</time>
      </trkpt>
      <trkpt lat="44.16985" lon="5.18998">
        <ele>866</ele>
        <time>2015-11-19T07:32:43Z</time>
      </trkpt>
      <trkpt lat="44.16989" lon="5.18996">
        <ele>865</ele>
        <time>2015-11-19T07:34:43Z</time>
      </trkpt>
      <trkpt lat="44.16993" lon="5.18992">
        <ele>864</ele>
        <time>2015-11-19T07:36:43Z</time>
      </trkpt>
      <trkpt lat="44.16998" lon="5.18982">
        <ele>862</ele>
        <time>2015-11-19T07:38:43Z</time>
      </trkpt>
      <trkpt lat="44.17001" lon="5.18978">
        <ele>860</ele>
        <time>2015-11-19T07:40:43Z</time>
      </trkpt>
      <trkpt lat="44.17004" lon="5.18968">
        <ele>857</ele>
        <time>2015-11-19T07:42:43Z</time>
      </trkpt>
      <trkpt lat="44.17005" lon="5.18964">
        <ele>856</ele>
        <time>2015-11-19T07:44:43Z</time>
      </trkpt>
      <trkpt lat="44.17006" lon="5.18959">
        <ele>855</ele>
        <time>2015-11-19T07:46:43Z</time>
      </trkpt>
      <trkpt lat="44.17006" lon="5.18954">
        <ele>855</ele>
        <time>2015-11-19T07:48:43Z</time>
      </trkpt>
      <trkpt lat="44.17006" lon="5.18944">
        <ele>854</ele>
        <time>2015-11-19T07:50:43Z</time>
      </trkpt>
      <trkpt lat="44.17005" lon="5.18934">
        <ele>855</ele>
        <time>2015-11-19T07:52:43Z</time>
      </trkpt>
      <trkpt lat="44.17003" lon="5.18923">
        <ele>855</ele>
        <time>2015-11-19T07:54:43Z</time>
      </trkpt>
      <trkpt lat="44.16997" lon="5.18902">
        <ele>855</ele>
        <time>2015-11-19T07:56:43Z</time>
      </trkpt>
      <trkpt lat="44.16985" lon="5.18868">
        <ele>854</ele>
        <time>2015-11-19T07:58:43Z</time>
      </trkpt>
      <trkpt lat="44.16983" lon="5.18862">
        <ele>854</ele>
        <time>2015-11-19T08:00:43Z</time>
      </trkpt>
      <trkpt lat="44.16981" lon="5.18857">
        <ele>853</ele>
        <time>2015-11-19T08:02:43Z</time>
      </trkpt>
      <trkpt lat="44.16975" lon="5.18839">
        <ele>853</ele>
        <time>2015-11-19T08:04:43Z</time>
      </trkpt>
      <trkpt lat="44.16972" lon="5.18826">
        <ele>852</ele>
        <time>2015-11-19T08:06:43Z</time>
      </trkpt>
      <trkpt lat="44.1697" lon="5.18815">
        <ele>852</ele>
        <time>2015-11-19T08:08:43Z</time>
      </trkpt>
      <trkpt lat="44.16968" lon="5.188">
        <ele>851</ele>
        <time>2015-11-19T08:10:43Z</time>
      </trkpt>
      <trkpt lat="44.16967" lon="5.18787">
        <ele>850</ele>
        <time>2015-11-19T08:12:43Z</time>
      </trkpt>
      <trkpt lat="44.16967" lon="5.18783">
        <ele>850</ele>
        <time>2015-11-19T08:14:43Z</time>
      </trkpt>
      <trkpt lat="44.16967" lon="5.18766">
        <ele>848</ele>
        <time>2015-11-19T08:16:43Z</time>
      </trkpt>
      <trkpt lat="44.16968" lon="5.18758">
        <ele>846</ele>
        <time>2015-11-19T08:18:43Z</time>
      </trkpt>
      <trkpt lat="44.1697" lon="5.18742">
        <ele>844</ele>
        <time>2015-11-19T08:20:43Z</time>
      </trkpt>
      <trkpt lat="44.1697" lon="5.18738">
        <ele>844</ele>
        <time>2015-11-19T08:22:43Z</time>
      </trkpt>
      <trkpt lat="44.16971" lon="5.1873">
        <ele>843</ele>
        <time>2015-11-19T08:24:43Z</time>
      </trkpt>
      <trkpt lat="44.16973" lon="5.18722">
        <ele>841</ele>
        <time>2015-11-19T08:26:43Z</time>
      </trkpt>
      <trkpt lat="44.16973" lon="5.18718">
        <ele>841</ele>
        <time>2015-11-19T08:28:43Z</time>
      </trkpt>
      <trkpt lat="44.16976" lon="5.18704">
        <ele>838</ele>
        <time>2015-11-19T08:30:43Z</time>
      </trkpt>
      <trkpt lat="44.16976" lon="5.187">
        <ele>838</ele>
        <time>2015-11-19T08:32:43Z</time>
      </trkpt>
      <trkpt lat="44.16978" lon="5.1869">
        <ele>836</ele>
        <time>2015-11-19T08:34:43Z</time>
      </trkpt>
      <trkpt lat="44.16979" lon="5.18681">
        <ele>835</ele>
        <time>2015-11-19T08:36:43Z</time>
      </trkpt>
      <trkpt lat="44.1698" lon="5.18674">
        <ele>834</ele>
        <time>2015-11-19T08:38:43Z</time>
      </trkpt>
      <trkpt lat="44.16983" lon="5.18649">
        <ele>830</ele>
        <time>2015-11-19T08:40:43Z</time>
      </trkpt>
      <trkpt lat="44.16992" lon="5.1859">
        <ele>820</ele>
        <time>2015-11-19T08:42:43Z</time>
      </trkpt>
      <trkpt lat="44.16994" lon="5.18569">
        <ele>816</ele>
        <time>2015-11-19T08:44:43Z</time>
      </trkpt>
      <trkpt lat="44.16995" lon="5.18553">
        <ele>814</ele>
        <time>2015-11-19T08:46:43Z</time>
      </trkpt>
      <trkpt lat="44.16996" lon="5.18536">
        <ele>811</ele>
        <time>2015-11-19T08:48:43Z</time>
      </trkpt>
      <trkpt lat="44.16996" lon="5.18524">
        <ele>810</ele>
        <time>2015-11-19T08:50:43Z</time>
      </trkpt>
      <trkpt lat="44.16995" lon="5.18505">
        <ele>808</ele>
        <time>2015-11-19T08:52:43Z</time>
      </trkpt>
      <trkpt lat="44.16991" lon="5.1847">
        <ele>805</ele>
        <time>2015-11-19T08:54:43Z</time>
      </trkpt>
      <trkpt lat="44.1699" lon="5.18463">
        <ele>804</ele>
        <time>2015-11-19T08:56:43Z</time>
      </trkpt>
      <trkpt lat="44.16988" lon="5.18444">
        <ele>803</ele>
        <time>2015-11-19T08:58:43Z</time>
      </trkpt>
      <trkpt lat="44.16983" lon="5.18409">
        <ele>800</ele>
        <time>2015-11-19T09:00:43Z</time>
      </trkpt>
      <trkpt lat="44.16982" lon="5.18397">
        <ele>799</ele>
        <time>2015-11-19T09:02:43Z</time>
      </trkpt>
      <trkpt lat="44.16979" lon="5.18368">
        <ele>797</ele>
        <time>2015-11-19T09:04:43Z</time>
      </trkpt>
      <trkpt lat="44.16978" lon="5.18351">
        <ele>795</ele>
        <time>2015-11-19T09:06:43Z</time>
      </trkpt>
      <trkpt lat="44.16977" lon="5.18325">
        <ele>792</ele>
        <time>2015-11-19T09:08:43Z</time>
      </trkpt>
      <trkpt lat="44.16978" lon="5.18311">
        <ele>789</ele>
        <time>2015-11-19T09:10:43Z</time>
      </trkpt>
      <trkpt lat="44.1698" lon="5.1827">
        <ele>782</ele>
        <time>2015-11-19T09:12:43Z</time>
      </trkpt>
      <trkpt lat="44.16984" lon="5.1821">
        <ele>771</ele>
        <time>2015-11-19T09:14:43Z</time>
      </trkpt>
      <trkpt lat="44.16986" lon="5.18189">
        <ele>766</ele>
        <time>2015-11-19T09:16:43Z</time>
      </trkpt>
      <trkpt lat="44.16986" lon="5.18183">
        <ele>765</ele>
        <time>2015-11-19T09:18:43Z</time>
      </trkpt>
      <trkpt lat="44.16988" lon="5.18155">
        <ele>760</ele>
        <time>2015-11-19T09:20:43Z</time>
      </trkpt>
      <trkpt lat="44.16989" lon="5.18149">
        <ele>759</ele>
        <time>2015-11-19T09:22:43Z</time>
      </trkpt>
      <trkpt lat="44.1699" lon="5.18135">
        <ele>756</ele>
        <time>2015-11-19T09:24:43Z</time>
      </trkpt>
      <trkpt lat="44.16993" lon="5.1809">
        <ele>748</ele>
        <time>2015-11-19T09:26:43Z</time>
      </trkpt>
      <trkpt lat="44.16994" lon="5.18065">
        <ele>746</ele>
        <time>2015-11-19T09:28:43Z</time>
      </trkpt>
      <trkpt lat="44.16995" lon="5.18056">
        <ele>746</ele>
        <time>2015-11-19T09:30:43Z</time>
      </trkpt>
      <trkpt lat="44.16995" lon="5.18051">
        <ele>746</ele>
        <time>2015-11-19T09:32:43Z</time>
      </trkpt>
      <trkpt lat="44.16995" lon="5.18047">
        <ele>745</ele>
        <time>2015-11-19T09:34:43Z</time>
      </trkpt>
      <trkpt lat="44.16997" lon="5.18038">
        <ele>744</ele>
        <time>2015-11-19T09:36:43Z</time>
      </trkpt>
      <trkpt lat="44.16998" lon="5.18034">
        <ele>744</ele>
        <time>2015-11-19T09:38:43Z</time>
      </trkpt>
      <trkpt lat="44.17" lon="5.18027">
        <ele>743</ele>
        <time>2015-11-19T09:40:43Z</time>
      </trkpt>
      <trkpt lat="44.17001" lon="5.18024">
        <ele>742</ele>
        <time>2015-11-19T09:42:43Z</time>
      </trkpt>
      <trkpt lat="44.17005" lon="5.18018">
        <ele>742</ele>
        <time>2015-11-19T09:44:43Z</time>
      </trkpt>
      <trkpt lat="44.17008" lon="5.18012">
        <ele>741</ele>
        <time>2015-11-19T09:46:43Z</time>
      </trkpt>
      <trkpt lat="44.17013" lon="5.18007">
        <ele>740</ele>
        <time>2015-11-19T09:48:43Z</time>
      </trkpt>
      <trkpt lat="44.17022" lon="5.17997">
        <ele>738</ele>
        <time>2015-11-19T09:50:43Z</time>
      </trkpt>
      <trkpt lat="44.17039" lon="5.17985">
        <ele>736</ele>
        <time>2015-11-19T09:52:43Z</time>
      </trkpt>
      <trkpt lat="44.17054" lon="5.17974">
        <ele>733</ele>
        <time>2015-11-19T09:54:43Z</time>
      </trkpt>
      <trkpt lat="44.17063" lon="5.17968">
        <ele>731</ele>
        <time>2015-11-19T09:56:43Z</time>
      </trkpt>
      <trkpt lat="44.17068" lon="5.17963">
        <ele>730</ele>
        <time>2015-11-19T09:58:43Z</time>
      </trkpt>
      <trkpt lat="44.17073" lon="5.17958">
        <ele>729</ele>
        <time>2015-11-19T10:00:43Z</time>
      </trkpt>
      <trkpt lat="44.17077" lon="5.17952">
        <ele>729</ele>
        <time>2015-11-19T10:02:43Z</time>
      </trkpt>
      <trkpt lat="44.1708" lon="5.17947">
        <ele>728</ele>
        <time>2015-11-19T10:04:43Z</time>
      </trkpt>
      <trkpt lat="44.17083" lon="5.17941">
        <ele>727</ele>
        <time>2015-11-19T10:06:43Z</time>
      </trkpt>
      <trkpt lat="44.17086" lon="5.17935">
        <ele>727</ele>
        <time>2015-11-19T10:08:43Z</time>
      </trkpt>
      <trkpt lat="44.17089" lon="5.17925">
        <ele>726</ele>
        <time>2015-11-19T10:10:43Z</time>
      </trkpt>
      <trkpt lat="44.17098" lon="5.17894">
        <ele>723</ele>
        <time>2015-11-19T10:12:43Z</time>
      </trkpt>
      <trkpt lat="44.17103" lon="5.17879">
        <ele>721</ele>
        <time>2015-11-19T10:14:43Z</time>
      </trkpt>
      <trkpt lat="44.17106" lon="5.17871">
        <ele>721</ele>
        <time>2015-11-19T10:16:43Z</time>
      </trkpt>
      <trkpt lat="44.17116" lon="5.17849">
        <ele>718</ele>
        <time>2015-11-19T10:18:43Z</time>
      </trkpt>
      <trkpt lat="44.17136" lon="5.17809">
        <ele>713</ele>
        <time>2015-11-19T10:20:43Z</time>
      </trkpt>
      <trkpt lat="44.17141" lon="5.17797">
        <ele>712</ele>
        <time>2015-11-19T10:22:43Z</time>
      </trkpt>
      <trkpt lat="44.17146" lon="5.17785">
        <ele>710</ele>
        <time>2015-11-19T10:24:43Z</time>
      </trkpt>
      <trkpt lat="44.17158" lon="5.17758">
        <ele>707</ele>
        <time>2015-11-19T10:26:43Z</time>
      </trkpt>
      <trkpt lat="44.17161" lon="5.17753">
        <ele>706</ele>
        <time>2015-11-19T10:28:43Z</time>
      </trkpt>
      <trkpt lat="44.17164" lon="5.17748">
        <ele>705</ele>
        <time>2015-11-19T10:30:43Z</time>
      </trkpt>
      <trkpt lat="44.17171" lon="5.17741">
        <ele>703</ele>
        <time>2015-11-19T10:32:43Z</time>
      </trkpt>
      <trkpt lat="44.17174" lon="5.17737">
        <ele>702</ele>
        <time>2015-11-19T10:34:43Z</time>
      </trkpt>
      <trkpt lat="44.17181" lon="5.17732">
        <ele>700</ele>
        <time>2015-11-19T10:36:43Z</time>
      </trkpt>
      <trkpt lat="44.17188" lon="5.17726">
        <ele>698</ele>
        <time>2015-11-19T10:38:43Z</time>
      </trkpt>
      <trkpt lat="44.17199" lon="5.17717">
        <ele>695</ele>
        <time>2015-11-19T10:40:43Z</time>
      </trkpt>
      <trkpt lat="44.17203" lon="5.17713">
        <ele>694</ele>
        <time>2015-11-19T10:42:43Z</time>
      </trkpt>
      <trkpt lat="44.17211" lon="5.17705">
        <ele>692</ele>
        <time>2015-11-19T10:44:43Z</time>
      </trkpt>
      <trkpt lat="44.17214" lon="5.177">
        <ele>691</ele>
        <time>2015-11-19T10:46:43Z</time>
      </trkpt>
      <trkpt lat="44.17217" lon="5.17695">
        <ele>690</ele>
        <time>2015-11-19T10:48:43Z</time>
      </trkpt>
      <trkpt lat="44.17219" lon="5.1769">
        <ele>689</ele>
        <time>2015-11-19T10:50:43Z</time>
      </trkpt>
      <trkpt lat="44.1722" lon="5.17684">
        <ele>689</ele>
        <time>2015-11-19T10:52:43Z</time>
      </trkpt>
      <trkpt lat="44.17221" lon="5.17674">
        <ele>688</ele>
        <time>2015-11-19T10:54:43Z</time>
      </trkpt>
      <trkpt lat="44.17221" lon="5.17662">
        <ele>688</ele>
        <time>2015-11-19T10:56:43Z</time>
      </trkpt>
      <trkpt lat="44.17216" lon="5.17619">
        <ele>686</ele>
        <time>2015-11-19T10:58:43Z</time>
      </trkpt>
      <trkpt lat="44.17216" lon="5.17607">
        <ele>685</ele>
        <time>2015-11-19T11:00:43Z</time>
      </trkpt>
      <trkpt lat="44.17216" lon="5.17602">
        <ele>685</ele>
        <time>2015-11-19T11:02:43Z</time>
      </trkpt>
      <trkpt lat="44.17217" lon="5.17598">
        <ele>684</ele>
        <time>2015-11-19T11:04:43Z</time>
      </trkpt>
      <trkpt lat="44.17219" lon="5.17595">
        <ele>684</ele>
        <time>2015-11-19T11:06:43Z</time>
      </trkpt>
      <trkpt lat="44.17221" lon="5.17592">
        <ele>683</ele>
        <time>2015-11-19T11:08:43Z</time>
      </trkpt>
      <trkpt lat="44.17223" lon="5.17589">
        <ele>683</ele>
        <time>2015-11-19T11:10:43Z</time>
      </trkpt>
      <trkpt lat="44.17229" lon="5.17584">
        <ele>682</ele>
        <time>2015-11-19T11:12:43Z</time>
      </trkpt>
      <trkpt lat="44.17232" lon="5.17582">
        <ele>681</ele>
        <time>2015-11-19T11:14:43Z</time>
      </trkpt>
      <trkpt lat="44.17235" lon="5.1758">
        <ele>681</ele>
        <time>2015-11-19T11:16:43Z</time>
      </trkpt>
      <trkpt lat="44.17243" lon="5.17577">
        <ele>680</ele>
        <time>2015-11-19T11:18:43Z</time>
      </trkpt>
      <trkpt lat="44.17254" lon="5.17575">
        <ele>679</ele>
        <time>2015-11-19T11:20:43Z</time>
      </trkpt>
      <trkpt lat="44.17258" lon="5.17574">
        <ele>678</ele>
        <time>2015-11-19T11:22:43Z</time>
      </trkpt>
      <trkpt lat="44.17263" lon="5.17573">
        <ele>678</ele>
        <time>2015-11-19T11:24:43Z</time>
      </trkpt>
      <trkpt lat="44.17267" lon="5.17572">
        <ele>678</ele>
        <time>2015-11-19T11:26:43Z</time>
      </trkpt>
      <trkpt lat="44.17276" lon="5.17568">
        <ele>678</ele>
        <time>2015-11-19T11:28:43Z</time>
      </trkpt>
      <trkpt lat="44.17283" lon="5.17563">
        <ele>678</ele>
        <time>2015-11-19T11:30:43Z</time>
      </trkpt>
      <trkpt lat="44.17291" lon="5.17558">
        <ele>678</ele>
        <time>2015-11-19T11:32:43Z</time>
      </trkpt>
      <trkpt lat="44.17297" lon="5.17552">
        <ele>678</ele>
        <time>2015-11-19T11:34:43Z</time>
      </trkpt>
      <trkpt lat="44.17304" lon="5.17545">
        <ele>678</ele>
        <time>2015-11-19T11:36:43Z</time>
      </trkpt>
      <trkpt lat="44.17315" lon="5.17532">
        <ele>677</ele>
        <time>2015-11-19T11:38:43Z</time>
      </trkpt>
      <trkpt lat="44.17319" lon="5.17528">
        <ele>677</ele>
        <time>2015-11-19T11:40:43Z</time>
      </trkpt>
      <trkpt lat="44.17323" lon="5.17523">
        <ele>677</ele>
        <time>2015-11-19T11:42:43Z</time>
      </trkpt>
      <trkpt lat="44.17332" lon="5.17516">
        <ele>677</ele>
        <time>2015-11-19T11:44:43Z</time>
      </trkpt>
      <trkpt lat="44.17336" lon="5.17513">
        <ele>676</ele>
        <time>2015-11-19T11:46:43Z</time>
      </trkpt>
      <trkpt lat="44.17348" lon="5.17505">
        <ele>675</ele>
        <time>2015-11-19T11:48:43Z</time>
      </trkpt>
      <trkpt lat="44.1736" lon="5.17499">
        <ele>673</ele>
        <time>2015-11-19T11:50:43Z</time>
      </trkpt>
      <trkpt lat="44.17373" lon="5.17492">
        <ele>671</ele>
        <time>2015-11-19T11:52:43Z</time>
      </trkpt>
      <trkpt lat="44.17379" lon="5.17488">
        <ele>670</ele>
        <time>2015-11-19T11:54:43Z</time>
      </trkpt>
      <trkpt lat="44.17387" lon="5.17482">
        <ele>668</ele>
        <time>2015-11-19T11:56:43Z</time>
      </trkpt>
      <trkpt lat="44.1739" lon="5.17479">
        <ele>668</ele>
        <time>2015-11-19T11:58:43Z</time>
      </trkpt>
      <trkpt lat="44.17393" lon="5.17475">
        <ele>667</ele>
        <time>2015-11-19T12:00:43Z</time>
      </trkpt>
      <trkpt lat="44.17395" lon="5.17471">
        <ele>666</ele>
        <time>2015-11-19T12:02:43Z</time>
      </trkpt>
      <trkpt lat="44.17398" lon="5.17463">
        <ele>665</ele>
        <time>2015-11-19T12:04:43Z</time>
      </trkpt>
      <trkpt lat="44.17399" lon="5.17458">
        <ele>665</ele>
        <time>2015-11-19T12:06:43Z</time>
      </trkpt>
      <trkpt lat="44.174" lon="5.17453">
        <ele>664</ele>
        <time>2015-11-19T12:08:43Z</time>
      </trkpt>
      <trkpt lat="44.174" lon="5.17442">
        <ele>663</ele>
        <time>2015-11-19T12:10:43Z</time>
      </trkpt>
      <trkpt lat="44.17399" lon="5.17432">
        <ele>663</ele>
        <time>2015-11-19T12:12:43Z</time>
      </trkpt>
      <trkpt lat="44.17397" lon="5.1742">
        <ele>662</ele>
        <time>2015-11-19T12:14:43Z</time>
      </trkpt>
      <trkpt lat="44.17388" lon="5.17367">
        <ele>657</ele>
        <time>2015-11-19T12:16:43Z</time>
      </trkpt>
      <trkpt lat="44.17387" lon="5.17361">
        <ele>657</ele>
        <time>2015-11-19T12:18:43Z</time>
      </trkpt>
      <trkpt lat="44.17386" lon="5.17356">
        <ele>656</ele>
        <time>2015-11-19T12:20:43Z</time>
      </trkpt>
      <trkpt lat="44.17384" lon="5.1734">
        <ele>654</ele>
        <time>2015-11-19T12:22:43Z</time>
      </trkpt>
      <trkpt lat="44.17379" lon="5.1731">
        <ele>649</ele>
        <time>2015-11-19T12:24:43Z</time>
      </trkpt>
      <trkpt lat="44.17378" lon="5.17305">
        <ele>649</ele>
        <time>2015-11-19T12:26:43Z</time>
      </trkpt>
      <trkpt lat="44.17377" lon="5.173">
        <ele>648</ele>
        <time>2015-11-19T12:28:43Z</time>
      </trkpt>
      <trkpt lat="44.1737" lon="5.1727">
        <ele>642</ele>
        <time>2015-11-19T12:30:43Z</time>
      </trkpt>
      <trkpt lat="44.17369" lon="5.17265">
        <ele>641</ele>
        <time>2015-11-19T12:32:43Z</time>
      </trkpt>
      <trkpt lat="44.17368" lon="5.17259">
        <ele>640</ele>
        <time>2015-11-19T12:34:43Z</time>
      </trkpt>
      <trkpt lat="44.17363" lon="5.17242">
        <ele>637</ele>
        <time>2015-11-19T12:36:43Z</time>
      </trkpt>
      <trkpt lat="44.17358" lon="5.17223">
        <ele>633</ele>
        <time>2015-11-19T12:38:43Z</time>
      </trkpt>
      <trkpt lat="44.17355" lon="5.17212">
        <ele>631</ele>
        <time>2015-11-19T12:40:43Z</time>
      </trkpt>
      <trkpt lat="44.17352" lon="5.17196">
        <ele>627</ele>
        <time>2015-11-19T12:42:43Z</time>
      </trkpt>
      <trkpt lat="44.1735" lon="5.17185">
        <ele>625</ele>
        <time>2015-11-19T12:44:43Z</time>
      </trkpt>
      <trkpt lat="44.17349" lon="5.17179">
        <ele>624</ele>
        <time>2015-11-19T12:46:43Z</time>
      </trkpt>
      <trkpt lat="44.17347" lon="5.17167">
        <ele>621</ele>
        <time>2015-11-19T12:48:43Z</time>
      </trkpt>
      <trkpt lat="44.17347" lon="5.17161">
        <ele>620</ele>
        <time>2015-11-19T12:50:43Z</time>
      </trkpt>
      <trkpt lat="44.17343" lon="5.17142">
        <ele>616</ele>
        <time>2015-11-19T12:52:43Z</time>
      </trkpt>
      <trkpt lat="44.1734" lon="5.17128">
        <ele>612</ele>
        <time>2015-11-19T12:54:43Z</time>
      </trkpt>
      <trkpt lat="44.17336" lon="5.17114">
        <ele>609</ele>
        <time>2015-11-19T12:56:43Z</time>
      </trkpt>
      <trkpt lat="44.17333" lon="5.17106">
        <ele>607</ele>
        <time>2015-11-19T12:58:43Z</time>
      </trkpt>
      <trkpt lat="44.17327" lon="5.1709">
        <ele>604</ele>
        <time>2015-11-19T13:00:43Z</time>
      </trkpt>
      <trkpt lat="44.17312" lon="5.17056">
        <ele>598</ele>
        <time>2015-11-19T13:02:43Z</time>
      </trkpt>
      <trkpt lat="44.17308" lon="5.17045">
        <ele>596</ele>
        <time>2015-11-19T13:04:43Z</time>
      </trkpt>
      <trkpt lat="44.17303" lon="5.1703">
        <ele>594</ele>
        <time>2015-11-19T13:06:43Z</time>
      </trkpt>
      <trkpt lat="44.173" lon="5.17017">
        <ele>592</ele>
        <time>2015-11-19T13:08:43Z</time>
      </trkpt>
      <trkpt lat="44.17298" lon="5.17008">
        <ele>591</ele>
        <time>2015-11-19T13:10:43Z</time>
      </trkpt>
      <trkpt lat="44.17298" lon="5.17003">
        <ele>590</ele>
        <time>2015-11-19T13:12:43Z</time>
      </trkpt>
      <trkpt lat="44.17294" lon="5.16981">
        <ele>587</ele>
        <time>2015-11-19T13:14:43Z</time>
      </trkpt>
      <trkpt lat="44.17291" lon="5.16971">
        <ele>586</ele>
        <time>2015-11-19T13:16:43Z</time>
      </trkpt>
      <trkpt lat="44.17288" lon="5.16963">
        <ele>585</ele>
        <time>2015-11-19T13:18:43Z</time>
      </trkpt>
      <trkpt lat="44.17285" lon="5.16954">
        <ele>584</ele>
        <time>2015-11-19T13:20:43Z</time>
      </trkpt>
      <trkpt lat="44.1728" lon="5.16942">
        <ele>582</ele>
        <time>2015-11-19T13:22:43Z</time>
      </trkpt>
      <trkpt lat="44.17276" lon="5.16935">
        <ele>581</ele>
        <time>2015-11-19T13:24:43Z</time>
      </trkpt>
      <trkpt lat="44.17274" lon="5.16931">
        <ele>580</ele>
        <time>2015-11-19T13:26:43Z</time>
      </trkpt>
      <trkpt lat="44.17272" lon="5.16927">
        <ele>580</ele>
        <time>2015-11-19T13:28:43Z</time>
      </trkpt>
      <trkpt lat="44.1727" lon="5.16924">
        <ele>579</ele>
        <time>2015-11-19T13:30:43Z</time>
      </trkpt>
      <trkpt lat="44.17267" lon="5.1692">
        <ele>579</ele>
        <time>2015-11-19T13:32:43Z</time>
      </trkpt>
      <trkpt lat="44.17263" lon="5.16914">
        <ele>578</ele>
        <time>2015-11-19T13:34:43Z</time>
      </trkpt>
      <trkpt lat="44.17252" lon="5.169">
        <ele>577</ele>
        <time>2015-11-19T13:36:43Z</time>
      </trkpt>
      <trkpt lat="44.1724" lon="5.16887">
        <ele>577</ele>
        <time>2015-11-19T13:38:43Z</time>
      </trkpt>
      <trkpt lat="44.17237" lon="5.16884">
        <ele>577</ele>
        <time>2015-11-19T13:40:43Z</time>
      </trkpt>
      <trkpt lat="44.17234" lon="5.1688">
        <ele>577</ele>
        <time>2015-11-19T13:42:43Z</time>
      </trkpt>
      <trkpt lat="44.1723" lon="5.16877">
        <ele>577</ele>
        <time>2015-11-19T13:44:43Z</time>
      </trkpt>
      <trkpt lat="44.17227" lon="5.16873">
        <ele>577</ele>
        <time>2015-11-19T13:46:43Z</time>
      </trkpt>
      <trkpt lat="44.17224" lon="5.16868">
        <ele>577</ele>
        <time>2015-11-19T13:48:43Z</time>
      </trkpt>
      <trkpt lat="44.17221" lon="5.16864">
        <ele>577</ele>
        <time>2015-11-19T13:50:43Z</time>
      </trkpt>
      <trkpt lat="44.17219" lon="5.16859">
        <ele>576</ele>
        <time>2015-11-19T13:52:43Z</time>
      </trkpt>
      <trkpt lat="44.17218" lon="5.16854">
        <ele>576</ele>
        <time>2015-11-19T13:54:43Z</time>
      </trkpt>
      <trkpt lat="44.17216" lon="5.16843">
        <ele>574</ele>
        <time>2015-11-19T13:56:43Z</time>
      </trkpt>
      <trkpt lat="44.17215" lon="5.16838">
        <ele>573</ele>
        <time>2015-11-19T13:58:43Z</time>
      </trkpt>
      <trkpt lat="44.17215" lon="5.16826">
        <ele>572</ele>
        <time>2015-11-19T14:00:43Z</time>
      </trkpt>
      <trkpt lat="44.17215" lon="5.16811">
        <ele>571</ele>
        <time>2015-11-19T14:02:43Z</time>
      </trkpt>
      <trkpt lat="44.17214" lon="5.16795">
        <ele>570</ele>
        <time>2015-11-19T14:04:43Z</time>
      </trkpt>
      <trkpt lat="44.17213" lon="5.16788">
        <ele>570</ele>
        <time>2015-11-19T14:06:43Z</time>
      </trkpt>
      <trkpt lat="44.17213" lon="5.16784">
        <ele>569</ele>
        <time>2015-11-19T14:08:43Z</time>
      </trkpt>
      <trkpt lat="44.17212" lon="5.16776">
        <ele>569</ele>
        <time>2015-11-19T14:10:43Z</time>
      </trkpt>
      <trkpt lat="44.17212" lon="5.16769">
        <ele>568</ele>
        <time>2015-11-19T14:12:43Z</time>
      </trkpt>
      <trkpt lat="44.17213" lon="5.16759">
        <ele>567</ele>
        <time>2015-11-19T14:14:43Z</time>
      </trkpt>
      <trkpt lat="44.17215" lon="5.16749">
        <ele>566</ele>
        <time>2015-11-19T14:16:43Z</time>
      </trkpt>
      <trkpt lat="44.17218" lon="5.16733">
        <ele>564</ele>
        <time>2015-11-19T14:18:43Z</time>
      </trkpt>
      <trkpt lat="44.1722" lon="5.16727">
        <ele>563</ele>
        <time>2015-11-19T14:20:43Z</time>
      </trkpt>
      <trkpt lat="44.17223" lon="5.16714">
        <ele>561</ele>
        <time>2015-11-19T14:22:43Z</time>
      </trkpt>
      <trkpt lat="44.17223" lon="5.16711">
        <ele>561</ele>
        <time>2015-11-19T14:24:43Z</time>
      </trkpt>
      <trkpt lat="44.17224" lon="5.16708">
        <ele>560</ele>
        <time>2015-11-19T14:26:43Z</time>
      </trkpt>
      <trkpt lat="44.17225" lon="5.16697">
        <ele>559</ele>
        <time>2015-11-19T14:28:43Z</time>
      </trkpt>
      <trkpt lat="44.17225" lon="5.16686">
        <ele>558</ele>
        <time>2015-11-19T14:30:43Z</time>
      </trkpt>
      <trkpt lat="44.17225" lon="5.16679">
        <ele>557</ele>
        <time>2015-11-19T14:32:43Z</time>
      </trkpt>
      <trkpt lat="44.17224" lon="5.16674">
        <ele>557</ele>
        <time>2015-11-19T14:34:43Z</time>
      </trkpt>
      <trkpt lat="44.17224" lon="5.16669">
        <ele>556</ele>
        <time>2015-11-19T14:36:43Z</time>
      </trkpt>
      <trkpt lat="44.17224" lon="5.16665">
        <ele>556</ele>
        <time>2015-11-19T14:38:43Z</time>
      </trkpt>
      <trkpt lat="44.17224" lon="5.16657">
        <ele>554</ele>
        <time>2015-11-19T14:40:43Z</time>
      </trkpt>
      <trkpt lat="44.17224" lon="5.16644">
        <ele>553</ele>
        <time>2015-11-19T14:42:43Z</time>
      </trkpt>
      <trkpt lat="44.17226" lon="5.16634">
        <ele>551</ele>
        <time>2015-11-19T14:44:43Z</time>
      </trkpt>
      <trkpt lat="44.17227" lon="5.16626">
        <ele>550</ele>
        <time>2015-11-19T14:46:43Z</time>
      </trkpt>
      <trkpt lat="44.17231" lon="5.16613">
        <ele>548</ele>
        <time>2015-11-19T14:48:43Z</time>
      </trkpt>
      <trkpt lat="44.17234" lon="5.16606">
        <ele>546</ele>
        <time>2015-11-19T14:50:43Z</time>
      </trkpt>
      <trkpt lat="44.17239" lon="5.16592">
        <ele>543</ele>
        <time>2015-11-19T14:52:43Z</time>
      </trkpt>
      <trkpt lat="44.1725" lon="5.16572">
        <ele>538</ele>
        <time>2015-11-19T14:54:43Z</time>
      </trkpt>
      <trkpt lat="44.17256" lon="5.16561">
        <ele>536</ele>
        <time>2015-11-19T14:56:43Z</time>
      </trkpt>
      <trkpt lat="44.17261" lon="5.16549">
        <ele>534</ele>
        <time>2015-11-19T14:58:43Z</time>
      </trkpt>
      <trkpt lat="44.17265" lon="5.16537">
        <ele>532</ele>
        <time>2015-11-19T15:00:43Z</time>
      </trkpt>
      <trkpt lat="44.17266" lon="5.16531">
        <ele>531</ele>
        <time>2015-11-19T15:02:43Z</time>
      </trkpt>
      <trkpt lat="44.17268" lon="5.1652">
        <ele>529</ele>
        <time>2015-11-19T15:04:43Z</time>
      </trkpt>
      <trkpt lat="44.17269" lon="5.16508">
        <ele>527</ele>
        <time>2015-11-19T15:06:43Z</time>
      </trkpt>
      <trkpt lat="44.17268" lon="5.16496">
        <ele>525</ele>
        <time>2015-11-19T15:08:43Z</time>
      </trkpt>
      <trkpt lat="44.17265" lon="5.1648">
        <ele>523</ele>
        <time>2015-11-19T15:10:43Z</time>
      </trkpt>
      <trkpt lat="44.17257" lon="5.1645">
        <ele>521</ele>
        <time>2015-11-19T15:12:43Z</time>
      </trkpt>
      <trkpt lat="44.17255" lon="5.16436">
        <ele>519</ele>
        <time>2015-11-19T15:14:43Z</time>
      </trkpt>
      <trkpt lat="44.17254" lon="5.16423">
        <ele>518</ele>
        <time>2015-11-19T15:16:43Z</time>
      </trkpt>
      <trkpt lat="44.17254" lon="5.1641">
        <ele>517</ele>
        <time>2015-11-19T15:18:43Z</time>
      </trkpt>
      <trkpt lat="44.17256" lon="5.16398">
        <ele>515</ele>
        <time>2015-11-19T15:20:43Z</time>
      </trkpt>
      <trkpt lat="44.17258" lon="5.16386">
        <ele>514</ele>
        <time>2015-11-19T15:22:43Z</time>
      </trkpt>
      <trkpt lat="44.17261" lon="5.16374">
        <ele>512</ele>
        <time>2015-11-19T15:24:43Z</time>
      </trkpt>
      <trkpt lat="44.17263" lon="5.16368">
        <ele>511</ele>
        <time>2015-11-19T15:26:43Z</time>
      </trkpt>
      <trkpt lat="44.17268" lon="5.1635">
        <ele>508</ele>
        <time>2015-11-19T15:28:43Z</time>
      </trkpt>
      <trkpt lat="44.17287" lon="5.16301">
        <ele>495</ele>
        <time>2015-11-19T15:30:43Z</time>
      </trkpt>
      <trkpt lat="44.17294" lon="5.1628">
        <ele>489</ele>
        <time>2015-11-19T15:32:43Z</time>
      </trkpt>
      <trkpt lat="44.173" lon="5.16258">
        <ele>483</ele>
        <time>2015-11-19T15:34:43Z</time>
      </trkpt>
      <trkpt lat="44.17304" lon="5.1624">
        <ele>479</ele>
        <time>2015-11-19T15:36:43Z</time>
      </trkpt>
      <trkpt lat="44.17305" lon="5.16236">
        <ele>478</ele>
        <time>2015-11-19T15:38:43Z</time>
      </trkpt>
      <trkpt lat="44.17305" lon="5.16232">
        <ele>478</ele>
        <time>2015-11-19T15:40:43Z</time>
      </trkpt>
      <trkpt lat="44.17311" lon="5.16205">
        <ele>472</ele>
        <time>2015-11-19T15:42:43Z</time>
      </trkpt>
      <trkpt lat="44.17314" lon="5.16182">
        <ele>468</ele>
        <time>2015-11-19T15:44:43Z</time>
      </trkpt>
      <trkpt lat="44.17315" lon="5.16167">
        <ele>466</ele>
        <time>2015-11-19T15:46:43Z</time>
      </trkpt>
      <trkpt lat="44.17318" lon="5.16127">
        <ele>461</ele>
        <time>2015-11-19T15:48:43Z</time>
      </trkpt>
      <trkpt lat="44.17318" lon="5.16117">
        <ele>460</ele>
        <time>2015-11-19T15:50:43Z</time>
      </trkpt>
      <trkpt lat="44.17318" lon="5.16112">
        <ele>459</ele>
        <time>2015-11-19T15:52:43Z</time>
      </trkpt>
      <trkpt lat="44.17317" lon="5.16103">
        <ele>459</ele>
        <time>2015-11-19T15:54:43Z</time>
      </trkpt>
      <trkpt lat="44.17316" lon="5.16095">
        <ele>458</ele>
        <time>2015-11-19T15:56:43Z</time>
      </trkpt>
      <trkpt lat="44.17315" lon="5.16091">
        <ele>458</ele>
        <time>2015-11-19T15:58:43Z</time>
      </trkpt>
      <trkpt lat="44.17313" lon="5.16083">
        <ele>458</ele>
        <time>2015-11-19T16:00:43Z</time>
      </trkpt>
      <trkpt lat="44.1731" lon="5.16072">
        <ele>457</ele>
        <time>2015-11-19T16:02:43Z</time>
      </trkpt>
      <trkpt lat="44.17308" lon="5.16068">
        <ele>457</ele>
        <time>2015-11-19T16:04:43Z</time>
      </trkpt>
      <trkpt lat="44.17301" lon="5.16055">
        <ele>457</ele>
        <time>2015-11-19T16:06:43Z</time>
      </trkpt>
      <trkpt lat="44.17295" lon="5.16045">
        <ele>457</ele>
        <time>2015-11-19T16:08:43Z</time>
      </trkpt>
      <trkpt lat="44.17286" lon="5.16031">
        <ele>456</ele>
        <time>2015-11-19T16:10:43Z</time>
      </trkpt>
      <trkpt lat="44.17284" lon="5.16028">
        <ele>456</ele>
        <time>2015-11-19T16:12:43Z</time>
      </trkpt>
      <trkpt lat="44.17272" lon="5.1601">
        <ele>454</ele>
        <time>2015-11-19T16:14:43Z</time>
      </trkpt>
      <trkpt lat="44.17267" lon="5.16001">
        <ele>452</ele>
        <time>2015-11-19T16:16:43Z</time>
      </trkpt>
      <trkpt lat="44.17262" lon="5.15992">
        <ele>452</ele>
        <time>2015-11-19T16:18:43Z</time>
      </trkpt>
      <trkpt lat="44.17258" lon="5.15983">
        <ele>450</ele>
        <time>2015-11-19T16:20:43Z</time>
      </trkpt>
      <trkpt lat="44.17255" lon="5.15974">
        <ele>449</ele>
        <time>2015-11-19T16:22:43Z</time>
      </trkpt>
      <trkpt lat="44.17252" lon="5.1596">
        <ele>447</ele>
        <time>2015-11-19T16:24:43Z</time>
      </trkpt>
      <trkpt lat="44.17251" lon="5.15956">
        <ele>447</ele>
        <time>2015-11-19T16:26:43Z</time>
      </trkpt>
      <trkpt lat="44.1725" lon="5.15946">
        <ele>445</ele>
        <time>2015-11-19T16:28:43Z</time>
      </trkpt>
      <trkpt lat="44.17249" lon="5.15932">
        <ele>443</ele>
        <time>2015-11-19T16:30:43Z</time>
      </trkpt>
      <trkpt lat="44.17249" lon="5.15917">
        <ele>441</ele>
        <time>2015-11-19T16:32:43Z</time>
      </trkpt>
      <trkpt lat="44.17249" lon="5.15902">
        <ele>440</ele>
        <time>2015-11-19T16:34:43Z</time>
      </trkpt>
      <trkpt lat="44.17249" lon="5.15897">
        <ele>440</ele>
        <time>2015-11-19T16:36:43Z</time>
      </trkpt>
      <trkpt lat="44.1725" lon="5.15886">
        <ele>439</ele>
        <time>2015-11-19T16:38:43Z</time>
      </trkpt>
      <trkpt lat="44.1725" lon="5.15881">
        <ele>439</ele>
        <time>2015-11-19T16:40:43Z</time>
      </trkpt>
      <trkpt lat="44.1725" lon="5.1587">
        <ele>439</ele>
        <time>2015-11-19T16:42:43Z</time>
      </trkpt>
      <trkpt lat="44.17251" lon="5.15864">
        <ele>439</ele>
        <time>2015-11-19T16:44:43Z</time>
      </trkpt>
      <trkpt lat="44.1725" lon="5.15859">
        <ele>439</ele>
        <time>2015-11-19T16:46:43Z</time>
      </trkpt>
      <trkpt lat="44.17251" lon="5.15835">
        <ele>438</ele>
        <time>2015-11-19T16:48:43Z</time>
      </trkpt>
      <trkpt lat="44.17251" lon="5.15829">
        <ele>438</ele>
        <time>2015-11-19T16:50:43Z</time>
      </trkpt>
      <trkpt lat="44.17253" lon="5.15812">
        <ele>436</ele>
        <time>2015-11-19T16:52:43Z</time>
      </trkpt>
      <trkpt lat="44.17256" lon="5.15798">
        <ele>435</ele>
        <time>2015-11-19T16:54:43Z</time>
      </trkpt>
      <trkpt lat="44.17258" lon="5.15789">
        <ele>435</ele>
        <time>2015-11-19T16:56:43Z</time>
      </trkpt>
      <trkpt lat="44.17261" lon="5.1578">
        <ele>434</ele>
        <time>2015-11-19T16:58:43Z</time>
      </trkpt>
      <trkpt lat="44.17264" lon="5.15771">
        <ele>434</ele>
        <time>2015-11-19T17:00:43Z</time>
      </trkpt>
      <trkpt lat="44.17266" lon="5.15767">
        <ele>433</ele>
        <time>2015-11-19T17:02:43Z</time>
      </trkpt>
      <trkpt lat="44.1727" lon="5.15758">
        <ele>433</ele>
        <time>2015-11-19T17:04:43Z</time>
      </trkpt>
      <trkpt lat="44.17272" lon="5.15754">
        <ele>433</ele>
        <time>2015-11-19T17:06:43Z</time>
      </trkpt>
      <trkpt lat="44.17278" lon="5.15741">
        <ele>433</ele>
        <time>2015-11-19T17:08:43Z</time>
      </trkpt>
      <trkpt lat="44.17287" lon="5.15724">
        <ele>432</ele>
        <time>2015-11-19T17:10:43Z</time>
      </trkpt>
      <trkpt lat="44.17301" lon="5.15694">
        <ele>430</ele>
        <time>2015-11-19T17:12:43Z</time>
      </trkpt>
      <trkpt lat="44.17304" lon="5.15687">
        <ele>430</ele>
        <time>2015-11-19T17:14:43Z</time>
      </trkpt>
      <trkpt lat="44.1731" lon="5.15675">
        <ele>429</ele>
        <time>2015-11-19T17:16:43Z</time>
      </trkpt>
      <trkpt lat="44.17312" lon="5.15669">
        <ele>428</ele>
        <time>2015-11-19T17:18:43Z</time>
      </trkpt>
      <trkpt lat="44.17317" lon="5.15658">
        <ele>429</ele>
        <time>2015-11-19T17:20:43Z</time>
      </trkpt>
      <trkpt lat="44.1734" lon="5.15603">
        <ele>430</ele>
        <time>2015-11-19T17:22:43Z</time>
      </trkpt>
      <trkpt lat="44.17341" lon="5.15599">
        <ele>430</ele>
        <time>2015-11-19T17:24:43Z</time>
      </trkpt>
      <trkpt lat="44.17343" lon="5.15584">
        <ele>430</ele>
        <time>2015-11-19T17:26:43Z</time>
      </trkpt>
      <trkpt lat="44.17299" lon="5.15607">
        <ele>432</ele>
        <time>2015-11-19T17:28:43Z</time>
      </trkpt>
      <trkpt lat="44.1726" lon="5.15604">
        <ele>435</ele>
        <time>2015-11-19T17:30:43Z</time>
      </trkpt>
      <trkpt lat="44.17185" lon="5.15571">
        <ele>442</ele>
        <time>2015-11-19T17:32:43Z</time>
      </trkpt>
      <trkpt lat="44.17173" lon="5.15556">
        <ele>445</ele>
        <time>2015-11-19T17:34:43Z</time>
      </trkpt>
      <trkpt lat="44.17143" lon="5.15505">
        <ele>455</ele>
        <time>2015-11-19T17:36:43Z</time>
      </trkpt>
      <trkpt lat="44.17126" lon="5.15466">
        <ele>462</ele>
        <time>2015-11-19T17:38:43Z</time>
      </trkpt>
      <trkpt lat="44.17102" lon="5.1544">
        <ele>464</ele>
        <time>2015-11-19T17:40:43Z</time>
      </trkpt>
      <trkpt lat="44.1707" lon="5.15443">
        <ele>462</ele>
        <time>2015-11-19T17:42:43Z</time>
      </trkpt>
      <trkpt lat="44.17045" lon="5.15421">
        <ele>467</ele>
        <time>2015-11-19T17:44:43Z</time>
      </trkpt>
      <trkpt lat="44.17015" lon="5.1538">
        <ele>471</ele>
        <time>2015-11-19T17:46:43Z</time>
      </trkpt>
      <trkpt lat="44.17008" lon="5.15369">
        <ele>471</ele>
        <time>2015-11-19T17:48:43Z</time>
      </trkpt>
      <trkpt lat="44.16996" lon="5.15361">
        <ele>471</ele>
        <time>2015-11-19T17:50:43Z</time>
      </trkpt>
      <trkpt lat="44.16977" lon="5.15366">
        <ele>474</ele>
        <time>2015-11-19T17:52:43Z</time>
      </trkpt>
      <trkpt lat="44.16964" lon="5.1535">
        <ele>475</ele>
        <time>2015-11-19T17:54:43Z</time>
      </trkpt>
      <trkpt lat="44.16945" lon="5.15285">
        <ele>467</ele>
        <time>2015-11-19T17:56:43Z</time>
      </trkpt>
      <trkpt lat="44.16932" lon="5.15244">
        <ele>460</ele>
        <time>2015-11-19T17:58:43Z</time>
      </trkpt>
      <trkpt lat="44.1692" lon="5.15227">
        <ele>457</ele>
        <time>2015-11-19T18:00:43Z</time>
      </trkpt>
      <trkpt lat="44.16913" lon="5.15226">
        <ele>457</ele>
        <time>2015-11-19T18:02:43Z</time>
      </trkpt>
      <trkpt lat="44.16892" lon="5.15248">
        <ele>459</ele>
        <time>2015-11-19T18:04:43Z</time>
      </trkpt>
      <trkpt lat="44.16888" lon="5.15261">
        <ele>462</ele>
        <time>2015-11-19T18:06:43Z</time>
      </trkpt>
      <trkpt lat="44.16876" lon="5.15248">
        <ele>459</ele>
        <time>2015-11-19T18:08:43Z</time>
      </trkpt>
      <trkpt lat="44.16873" lon="5.15224">
        <ele>455</ele>
        <time>2015-11-19T18:10:43Z</time>
      </trkpt>
      <trkpt lat="44.16873" lon="5.15199">
        <ele>451</ele>
        <time>2015-11-19T18:12:43Z</time>
      </trkpt>
      <trkpt lat="44.16876" lon="5.15172">
        <ele>446</ele>
        <time>2015-11-19T18:14:43Z</time>
      </trkpt>
      <trkpt lat="44.16869" lon="5.15143">
        <ele>442</ele>
        <time>2015-11-19T18:16:43Z</time>
      </trkpt>
      <trkpt lat="44.16862" lon="5.15122">
        <ele>439</ele>
        <time>2015-11-19T18:18:43Z</time>
      </trkpt>
      <trkpt lat="44.16858" lon="5.15096">
        <ele>436</ele>
        <time>2015-11-19T18:20:43Z</time>
      </trkpt>
      <trkpt lat="44.1686" lon="5.15067">
        <ele>433</ele>
        <time>2015-11-19T18:22:43Z</time>
      </trkpt>
      <trkpt lat="44.16874" lon="5.15039">
        <ele>433</ele>
        <time>2015-11-19T18:24:43Z</time>
      </trkpt>
      <trkpt lat="44.16871" lon="5.15009">
        <ele>430</ele>
        <time>2015-11-19T18:26:43Z</time>
      </trkpt>
      <trkpt lat="44.16861" lon="5.14943">
        <ele>425</ele>
        <time>2015-11-19T18:28:43Z</time>
      </trkpt>
      <trkpt lat="44.16862" lon="5.14899">
        <ele>424</ele>
        <time>2015-11-19T18:30:43Z</time>
      </trkpt>
      <trkpt lat="44.16856" lon="5.14847">
        <ele>423</ele>
        <time>2015-11-19T18:32:43Z</time>
      </trkpt>
      <trkpt lat="44.16847" lon="5.14867">
        <ele>420</ele>
        <time>2015-11-19T18:34:43Z</time>
      </trkpt>
      <trkpt lat="44.16851" lon="5.14917">
        <ele>421</ele>
        <time>2015-11-19T18:36:43Z</time>
      </trkpt>
      <trkpt lat="44.16841" lon="5.14943">
        <ele>419</ele>
        <time>2015-11-19T18:38:43Z</time>
      </trkpt>
      <trkpt lat="44.16835" lon="5.14962">
        <ele>418</ele>
        <time>2015-11-19T18:40:43Z</time>
      </trkpt>
      <trkpt lat="44.16826" lon="5.1498">
        <ele>419</ele>
        <time>2015-11-19T18:42:43Z</time>
      </trkpt>
      <trkpt lat="44.16816" lon="5.14987">
        <ele>420</ele>
        <time>2015-11-19T18:44:43Z</time>
      </trkpt>
      <trkpt lat="44.16803" lon="5.14985">
        <ele>420</ele>
        <time>2015-11-19T18:46:43Z</time>
      </trkpt>
      <trkpt lat="44.16789" lon="5.1496">
        <ele>417</ele>
        <time>2015-11-19T18:48:43Z</time>
      </trkpt>
      <trkpt lat="44.16783" lon="5.14922">
        <ele>412</ele>
        <time>2015-11-19T18:50:43Z</time>
      </trkpt>
      <trkpt lat="44.16776" lon="5.14906">
        <ele>410</ele>
        <time>2015-11-19T18:52:43Z</time>
      </trkpt>
      <trkpt lat="44.1676" lon="5.14895">
        <ele>408</ele>
        <time>2015-11-19T18:54:43Z</time>
      </trkpt>
      <trkpt lat="44.16736" lon="5.14874">
        <ele>406</ele>
        <time>2015-11-19T18:56:43Z</time>
      </trkpt>
      <trkpt lat="44.16642" lon="5.14885">
        <ele>423</ele>
        <time>2015-11-19T18:58:43Z</time>
      </trkpt>
      <trkpt lat="44.16635" lon="5.14875">
        <ele>425</ele>
        <time>2015-11-19T19:00:43Z</time>
      </trkpt>
      <trkpt lat="44.16631" lon="5.14869">
        <ele>425</ele>
        <time>2015-11-19T19:02:43Z</time>
      </trkpt>
      <trkpt lat="44.16627" lon="5.14862">
        <ele>425</ele>
        <time>2015-11-19T19:04:43Z</time>
      </trkpt>
      <trkpt lat="44.16621" lon="5.14849">
        <ele>425</ele>
        <time>2015-11-19T19:06:43Z</time>
      </trkpt>
      <trkpt lat="44.16618" lon="5.14843">
        <ele>425</ele>
        <time>2015-11-19T19:08:43Z</time>
      </trkpt>
      <trkpt lat="44.16605" lon="5.1481">
        <ele>423</ele>
        <time>2015-11-19T19:10:43Z</time>
      </trkpt>
      <trkpt lat="44.16598" lon="5.14792">
        <ele>423</ele>
        <time>2015-11-19T19:12:43Z</time>
      </trkpt>
      <trkpt lat="44.1659" lon="5.14778">
        <ele>423</ele>
        <time>2015-11-19T19:14:43Z</time>
      </trkpt>
      <trkpt lat="44.16586" lon="5.14772">
        <ele>423</ele>
        <time>2015-11-19T19:16:43Z</time>
      </trkpt>
      <trkpt lat="44.16579" lon="5.14762">
        <ele>424</ele>
        <time>2015-11-19T19:18:43Z</time>
      </trkpt>
      <trkpt lat="44.16572" lon="5.14753">
        <ele>426</ele>
        <time>2015-11-19T19:20:43Z</time>
      </trkpt>
      <trkpt lat="44.16554" lon="5.14734">
        <ele>432</ele>
        <time>2015-11-19T19:22:43Z</time>
      </trkpt>
      <trkpt lat="44.16548" lon="5.14726">
        <ele>434</ele>
        <time>2015-11-19T19:24:43Z</time>
      </trkpt>
      <trkpt lat="44.16541" lon="5.14716">
        <ele>436</ele>
        <time>2015-11-19T19:26:43Z</time>
      </trkpt>
      <trkpt lat="44.16538" lon="5.14711">
        <ele>436</ele>
        <time>2015-11-19T19:28:43Z</time>
      </trkpt>
      <trkpt lat="44.16532" lon="5.147">
        <ele>437</ele>
        <time>2015-11-19T19:30:43Z</time>
      </trkpt>
      <trkpt lat="44.16525" lon="5.14686">
        <ele>437</ele>
        <time>2015-11-19T19:32:43Z</time>
      </trkpt>
      <trkpt lat="44.1652" lon="5.14673">
        <ele>437</ele>
        <time>2015-11-19T19:34:43Z</time>
      </trkpt>
      <trkpt lat="44.16518" lon="5.14664">
        <ele>436</ele>
        <time>2015-11-19T19:36:43Z</time>
      </trkpt>
      <trkpt lat="44.16514" lon="5.14651">
        <ele>438</ele>
        <time>2015-11-19T19:38:43Z</time>
      </trkpt>
      <trkpt lat="44.16512" lon="5.14637">
        <ele>438</ele>
        <time>2015-11-19T19:40:43Z</time>
      </trkpt>
      <trkpt lat="44.16511" lon="5.14633">
        <ele>439</ele>
        <time>2015-11-19T19:42:43Z</time>
      </trkpt>
      <trkpt lat="44.16509" lon="5.14624">
        <ele>439</ele>
        <time>2015-11-19T19:44:43Z</time>
      </trkpt>
      <trkpt lat="44.16507" lon="5.14606">
        <ele>439</ele>
        <time>2015-11-19T19:46:43Z</time>
      </trkpt>
      <trkpt lat="44.16506" lon="5.14601">
        <ele>440</ele>
        <time>2015-11-19T19:48:43Z</time>
      </trkpt>
      <trkpt lat="44.16504" lon="5.14581">
        <ele>440</ele>
        <time>2015-11-19T19:50:43Z</time>
      </trkpt>
      <trkpt lat="44.16499" lon="5.14554">
        <ele>440</ele>
        <time>2015-11-19T19:52:43Z</time>
      </trkpt>
      <trkpt lat="44.16495" lon="5.14532">
        <ele>441</ele>
        <time>2015-11-19T19:54:43Z</time>
      </trkpt>
      <trkpt lat="44.16491" lon="5.14517">
        <ele>443</ele>
        <time>2015-11-19T19:56:43Z</time>
      </trkpt>
      <trkpt lat="44.16491" lon="5.14513">
        <ele>442</ele>
        <time>2015-11-19T19:58:43Z</time>
      </trkpt>
      <trkpt lat="44.16485" lon="5.14488">
        <ele>445</ele>
        <time>2015-11-19T20:00:43Z</time>
      </trkpt>
      <trkpt lat="44.16484" lon="5.14485">
        <ele>445</ele>
        <time>2015-11-19T20:02:43Z</time>
      </trkpt>
      <trkpt lat="44.16479" lon="5.14463">
        <ele>449</ele>
        <time>2015-11-19T20:04:43Z</time>
      </trkpt>
      <trkpt lat="44.16469" lon="5.14406">
        <ele>457</ele>
        <time>2015-11-19T20:06:43Z</time>
      </trkpt>
      <trkpt lat="44.16465" lon="5.1439">
        <ele>459</ele>
        <time>2015-11-19T20:08:43Z</time>
      </trkpt>
      <trkpt lat="44.1646" lon="5.1437">
        <ele>461</ele>
        <time>2015-11-19T20:10:43Z</time>
      </trkpt>
      <trkpt lat="44.16457" lon="5.1436">
        <ele>463</ele>
        <time>2015-11-19T20:12:43Z</time>
      </trkpt>
      <trkpt lat="44.16451" lon="5.14343">
        <ele>465</ele>
        <time>2015-11-19T20:14:43Z</time>
      </trkpt>
      <trkpt lat="44.16446" lon="5.14329">
        <ele>466</ele>
        <time>2015-11-19T20:16:43Z</time>
      </trkpt>
      <trkpt lat="44.16441" lon="5.14316">
        <ele>466</ele>
        <time>2015-11-19T20:18:43Z</time>
      </trkpt>
      <trkpt lat="44.16432" lon="5.14298">
        <ele>465</ele>
        <time>2015-11-19T20:20:43Z</time>
      </trkpt>
      <trkpt lat="44.16417" lon="5.14269">
        <ele>464</ele>
        <time>2015-11-19T20:22:43Z</time>
      </trkpt>
      <trkpt lat="44.16411" lon="5.14258">
        <ele>463</ele>
        <time>2015-11-19T20:24:43Z</time>
      </trkpt>
      <trkpt lat="44.16402" lon="5.14241">
        <ele>463</ele>
        <time>2015-11-19T20:26:43Z</time>
      </trkpt>
      <trkpt lat="44.16396" lon="5.14232">
        <ele>463</ele>
        <time>2015-11-19T20:28:43Z</time>
      </trkpt>
      <trkpt lat="44.16375" lon="5.14191">
        <ele>461</ele>
        <time>2015-11-19T20:30:43Z</time>
      </trkpt>
      <trkpt lat="44.16358" lon="5.14161">
        <ele>459</ele>
        <time>2015-11-19T20:32:43Z</time>
      </trkpt>
      <trkpt lat="44.16351" lon="5.14148">
        <ele>458</ele>
        <time>2015-11-19T20:34:43Z</time>
      </trkpt>
      <trkpt lat="44.16344" lon="5.14136">
        <ele>457</ele>
        <time>2015-11-19T20:36:43Z</time>
      </trkpt>
      <trkpt lat="44.16332" lon="5.1412">
        <ele>456</ele>
        <time>2015-11-19T20:38:43Z</time>
      </trkpt>
      <trkpt lat="44.1632" lon="5.14105">
        <ele>454</ele>
        <time>2015-11-19T20:40:43Z</time>
      </trkpt>
      <trkpt lat="44.16312" lon="5.14097">
        <ele>453</ele>
        <time>2015-11-19T20:42:43Z</time>
      </trkpt>
      <trkpt lat="44.16309" lon="5.14094">
        <ele>453</ele>
        <time>2015-11-19T20:44:43Z</time>
      </trkpt>
      <trkpt lat="44.16288" lon="5.14076">
        <ele>450</ele>
        <time>2015-11-19T20:46:43Z</time>
      </trkpt>
      <trkpt lat="44.16278" lon="5.14068">
        <ele>449</ele>
        <time>2015-11-19T20:48:43Z</time>
      </trkpt>
      <trkpt lat="44.16272" lon="5.14063">
        <ele>449</ele>
        <time>2015-11-19T20:50:43Z</time>
      </trkpt>
      <trkpt lat="44.16264" lon="5.14059">
        <ele>449</ele>
        <time>2015-11-19T20:52:43Z</time>
      </trkpt>
      <trkpt lat="44.16259" lon="5.14058">
        <ele>449</ele>
        <time>2015-11-19T20:54:43Z</time>
      </trkpt>
      <trkpt lat="44.16257" lon="5.14057">
        <ele>449</ele>
        <time>2015-11-19T20:56:43Z</time>
      </trkpt>
      <trkpt lat="44.16252" lon="5.14057">
        <ele>449</ele>
        <time>2015-11-19T20:58:43Z</time>
      </trkpt>
      <trkpt lat="44.16247" lon="5.14057">
        <ele>450</ele>
        <time>2015-11-19T21:00:43Z</time>
      </trkpt>
      <trkpt lat="44.1624" lon="5.1406">
        <ele>452</ele>
        <time>2015-11-19T21:02:43Z</time>
      </trkpt>
      <trkpt lat="44.16233" lon="5.14063">
        <ele>453</ele>
        <time>2015-11-19T21:04:43Z</time>
      </trkpt>
      <trkpt lat="44.16221" lon="5.14071">
        <ele>457</ele>
        <time>2015-11-19T21:06:43Z</time>
      </trkpt>
      <trkpt lat="44.16207" lon="5.14084">
        <ele>460</ele>
        <time>2015-11-19T21:08:43Z</time>
      </trkpt>
      <trkpt lat="44.16205" lon="5.14086">
        <ele>462</ele>
        <time>2015-11-19T21:10:43Z</time>
      </trkpt>
      <trkpt lat="44.16202" lon="5.14089">
        <ele>463</ele>
        <time>2015-11-19T21:12:43Z</time>
      </trkpt>
      <trkpt lat="44.16197" lon="5.14093">
        <ele>465</ele>
        <time>2015-11-19T21:14:43Z</time>
      </trkpt>
      <trkpt lat="44.16189" lon="5.14099">
        <ele>469</ele>
        <time>2015-11-19T21:16:43Z</time>
      </trkpt>
      <trkpt lat="44.16186" lon="5.14101">
        <ele>470</ele>
        <time>2015-11-19T21:18:43Z</time>
      </trkpt>
      <trkpt lat="44.16182" lon="5.14102">
        <ele>471</ele>
        <time>2015-11-19T21:20:43Z</time>
      </trkpt>
      <trkpt lat="44.16179" lon="5.14102">
        <ele>471</ele>
        <time>2015-11-19T21:22:43Z</time>
      </trkpt>
      <trkpt lat="44.16175" lon="5.14102">
        <ele>472</ele>
        <time>2015-11-19T21:24:43Z</time>
      </trkpt>
      <trkpt lat="44.16172" lon="5.14102">
        <ele>472</ele>
        <time>2015-11-19T21:26:43Z</time>
      </trkpt>
      <trkpt lat="44.16168" lon="5.141">
        <ele>472</ele>
        <time>2015-11-19T21:28:43Z</time>
      </trkpt>
      <trkpt lat="44.16165" lon="5.14098">
        <ele>471</ele>
        <time>2015-11-19T21:30:43Z</time>
      </trkpt>
      <trkpt lat="44.16159" lon="5.14093">
        <ele>470</ele>
        <time>2015-11-19T21:32:43Z</time>
      </trkpt>
      <trkpt lat="44.16156" lon="5.1409">
        <ele>469</ele>
        <time>2015-11-19T21:34:43Z</time>
      </trkpt>
      <trkpt lat="44.1615" lon="5.14083">
        <ele>467</ele>
        <time>2015-11-19T21:36:43Z</time>
      </trkpt>
      <trkpt lat="44.16141" lon="5.14069">
        <ele>467</ele>
        <time>2015-11-19T21:38:43Z</time>
      </trkpt>
      <trkpt lat="44.16135" lon="5.14059">
        <ele>467</ele>
        <time>2015-11-19T21:40:43Z</time>
      </trkpt>
      <trkpt lat="44.16129" lon="5.14048">
        <ele>467</ele>
        <time>2015-11-19T21:42:43Z</time>
      </trkpt>
      <trkpt lat="44.16126" lon="5.14042">
        <ele>467</ele>
        <time>2015-11-19T21:44:43Z</time>
      </trkpt>
      <trkpt lat="44.1612" lon="5.14031">
        <ele>467</ele>
        <time>2015-11-19T21:46:43Z</time>
      </trkpt>
      <trkpt lat="44.16117" lon="5.14025">
        <ele>467</ele>
        <time>2015-11-19T21:48:43Z</time>
      </trkpt>
      <trkpt lat="44.16108" lon="5.14008">
        <ele>467</ele>
        <time>2015-11-19T21:50:43Z</time>
      </trkpt>
      <trkpt lat="44.16098" lon="5.13993">
        <ele>467</ele>
        <time>2015-11-19T21:52:43Z</time>
      </trkpt>
      <trkpt lat="44.16078" lon="5.13965">
        <ele>471</ele>
        <time>2015-11-19T21:54:43Z</time>
      </trkpt>
      <trkpt lat="44.16066" lon="5.13948">
        <ele>473</ele>
        <time>2015-11-19T21:56:43Z</time>
      </trkpt>
      <trkpt lat="44.16064" lon="5.13944">
        <ele>474</ele>
        <time>2015-11-19T21:58:43Z</time>
      </trkpt>
      <trkpt lat="44.16061" lon="5.13941">
        <ele>474</ele>
        <time>2015-11-19T22:00:43Z</time>
      </trkpt>
      <trkpt lat="44.16046" lon="5.13918">
        <ele>477</ele>
        <time>2015-11-19T22:02:43Z</time>
      </trkpt>
      <trkpt lat="44.16044" lon="5.13914">
        <ele>477</ele>
        <time>2015-11-19T22:04:43Z</time>
      </trkpt>
      <trkpt lat="44.16033" lon="5.13896">
        <ele>477</ele>
        <time>2015-11-19T22:06:43Z</time>
      </trkpt>
      <trkpt lat="44.16028" lon="5.13888">
        <ele>477</ele>
        <time>2015-11-19T22:08:43Z</time>
      </trkpt>
      <trkpt lat="44.16007" lon="5.13852">
        <ele>475</ele>
        <time>2015-11-19T22:10:43Z</time>
      </trkpt>
      <trkpt lat="44.15997" lon="5.13834">
        <ele>475</ele>
        <time>2015-11-19T22:12:43Z</time>
      </trkpt>
      <trkpt lat="44.15993" lon="5.13829">
        <ele>475</ele>
        <time>2015-11-19T22:14:43Z</time>
      </trkpt>
      <trkpt lat="44.15979" lon="5.13801">
        <ele>475</ele>
        <time>2015-11-19T22:16:43Z</time>
      </trkpt>
      <trkpt lat="44.15969" lon="5.1378">
        <ele>474</ele>
        <time>2015-11-19T22:18:43Z</time>
      </trkpt>
      <trkpt lat="44.15959" lon="5.13758">
        <ele>471</ele>
        <time>2015-11-19T22:20:43Z</time>
      </trkpt>
      <trkpt lat="44.15955" lon="5.13746">
        <ele>470</ele>
        <time>2015-11-19T22:22:43Z</time>
      </trkpt>
      <trkpt lat="44.15948" lon="5.13728">
        <ele>468</ele>
        <time>2015-11-19T22:24:43Z</time>
      </trkpt>
      <trkpt lat="44.15937" lon="5.13693">
        <ele>464</ele>
        <time>2015-11-19T22:26:43Z</time>
      </trkpt>
      <trkpt lat="44.1593" lon="5.13667">
        <ele>460</ele>
        <time>2015-11-19T22:28:43Z</time>
      </trkpt>
      <trkpt lat="44.15927" lon="5.13656">
        <ele>459</ele>
        <time>2015-11-19T22:30:43Z</time>
      </trkpt>
      <trkpt lat="44.15926" lon="5.13651">
        <ele>459</ele>
        <time>2015-11-19T22:32:43Z</time>
      </trkpt>
      <trkpt lat="44.15925" lon="5.13646">
        <ele>459</ele>
        <time>2015-11-19T22:34:43Z</time>
      </trkpt>
      <trkpt lat="44.15922" lon="5.13636">
        <ele>459</ele>
        <time>2015-11-19T22:36:43Z</time>
      </trkpt>
      <trkpt lat="44.15917" lon="5.13612">
        <ele>458</ele>
        <time>2015-11-19T22:38:43Z</time>
      </trkpt>
      <trkpt lat="44.15909" lon="5.13576">
        <ele>459</ele>
        <time>2015-11-19T22:40:43Z</time>
      </trkpt>
      <trkpt lat="44.15902" lon="5.13553">
        <ele>461</ele>
        <time>2015-11-19T22:42:43Z</time>
      </trkpt>
      <trkpt lat="44.15895" lon="5.13533">
        <ele>462</ele>
        <time>2015-11-19T22:44:43Z</time>
      </trkpt>
      <trkpt lat="44.15882" lon="5.13496">
        <ele>464</ele>
        <time>2015-11-19T22:46:43Z</time>
      </trkpt>
      <trkpt lat="44.15874" lon="5.13473">
        <ele>464</ele>
        <time>2015-11-19T22:48:43Z</time>
      </trkpt>
      <trkpt lat="44.15873" lon="5.13469">
        <ele>464</ele>
        <time>2015-11-19T22:50:43Z</time>
      </trkpt>
      <trkpt lat="44.15867" lon="5.13452">
        <ele>464</ele>
        <time>2015-11-19T22:52:43Z</time>
      </trkpt>
      <trkpt lat="44.15864" lon="5.13444">
        <ele>464</ele>
        <time>2015-11-19T22:54:43Z</time>
      </trkpt>
      <trkpt lat="44.15859" lon="5.13431">
        <ele>464</ele>
        <time>2015-11-19T22:56:43Z</time>
      </trkpt>
      <trkpt lat="44.15854" lon="5.13419">
        <ele>464</ele>
        <time>2015-11-19T22:58:43Z</time>
      </trkpt>
      <trkpt lat="44.15848" lon="5.13406">
        <ele>463</ele>
        <time>2015-11-19T23:00:43Z</time>
      </trkpt>
      <trkpt lat="44.15844" lon="5.13398">
        <ele>462</ele>
        <time>2015-11-19T23:02:43Z</time>
      </trkpt>
      <trkpt lat="44.15834" lon="5.13379">
        <ele>461</ele>
        <time>2015-11-19T23:04:43Z</time>
      </trkpt>
      <trkpt lat="44.15831" lon="5.13373">
        <ele>461</ele>
        <time>2015-11-19T23:06:43Z</time>
      </trkpt>
      <trkpt lat="44.15829" lon="5.13367">
        <ele>460</ele>
        <time>2015-11-19T23:08:43Z</time>
      </trkpt>
      <trkpt lat="44.15828" lon="5.1336">
        <ele>460</ele>
        <time>2015-11-19T23:10:43Z</time>
      </trkpt>
      <trkpt lat="44.15828" lon="5.13354">
        <ele>460</ele>
        <time>2015-11-19T23:12:43Z</time>
      </trkpt>
      <trkpt lat="44.15829" lon="5.13348">
        <ele>461</ele>
        <time>2015-11-19T23:14:43Z</time>
      </trkpt>
      <trkpt lat="44.15831" lon="5.13342">
        <ele>461</ele>
        <time>2015-11-19T23:16:43Z</time>
      </trkpt>
      <trkpt lat="44.15833" lon="5.13336">
        <ele>462</ele>
        <time>2015-11-19T23:18:43Z</time>
      </trkpt>
      <trkpt lat="44.1584" lon="5.13324">
        <ele>462</ele>
        <time>2015-11-19T23:20:43Z</time>
      </trkpt>
      <trkpt lat="44.15844" lon="5.13318">
        <ele>462</ele>
        <time>2015-11-19T23:22:43Z</time>
      </trkpt>
      <trkpt lat="44.15853" lon="5.13307">
        <ele>463</ele>
        <time>2015-11-19T23:24:43Z</time>
      </trkpt>
      <trkpt lat="44.15871" lon="5.13284">
        <ele>462</ele>
        <time>2015-11-19T23:26:43Z</time>
      </trkpt>
      <trkpt lat="44.15876" lon="5.13276">
        <ele>462</ele>
        <time>2015-11-19T23:28:43Z</time>
      </trkpt>
      <trkpt lat="44.15887" lon="5.13255">
        <ele>460</ele>
        <time>2015-11-19T23:30:43Z</time>
      </trkpt>
      <trkpt lat="44.15892" lon="5.13247">
        <ele>459</ele>
        <time>2015-11-19T23:32:43Z</time>
      </trkpt>
      <trkpt lat="44.15894" lon="5.13244">
        <ele>459</ele>
        <time>2015-11-19T23:34:43Z</time>
      </trkpt>
      <trkpt lat="44.15897" lon="5.13242">
        <ele>459</ele>
        <time>2015-11-19T23:36:43Z</time>
      </trkpt>
      <trkpt lat="44.15899" lon="5.13239">
        <ele>459</ele>
        <time>2015-11-19T23:38:43Z</time>
      </trkpt>
      <trkpt lat="44.15902" lon="5.13238">
        <ele>459</ele>
        <time>2015-11-19T23:40:43Z</time>
      </trkpt>
      <trkpt lat="44.15909" lon="5.13236">
        <ele>458</ele>
        <time>2015-11-19T23:42:43Z</time>
      </trkpt>
      <trkpt lat="44.15913" lon="5.13237">
        <ele>459</ele>
        <time>2015-11-19T23:44:43Z</time>
      </trkpt>
      <trkpt lat="44.15932" lon="5.1324">
        <ele>459</ele>
        <time>2015-11-19T23:46:43Z</time>
      </trkpt>
      <trkpt lat="44.15936" lon="5.13241">
        <ele>460</ele>
        <time>2015-11-19T23:48:43Z</time>
      </trkpt>
      <trkpt lat="44.15964" lon="5.13247">
        <ele>460</ele>
        <time>2015-11-19T23:50:43Z</time>
      </trkpt>
      <trkpt lat="44.1598" lon="5.13249">
        <ele>460</ele>
        <time>2015-11-19T23:52:43Z</time>
      </trkpt>
      <trkpt lat="44.15995" lon="5.1325">
        <ele>460</ele>
        <time>2015-11-19T23:54:43Z</time>
      </trkpt>
      <trkpt lat="44.16011" lon="5.13249">
        <ele>460</ele>
        <time>2015-11-19T23:56:43Z</time>
      </trkpt>
      <trkpt lat="44.16019" lon="5.13248">
        <ele>460</ele>
        <time>2015-11-19T23:58:43Z</time>
      </trkpt>
      <trkpt lat="44.16028" lon="5.13246">
        <ele>460</ele>
        <time>2015-11-20T00:00:43Z</time>
      </trkpt>
      <trkpt lat="44.16046" lon="5.13242">
        <ele>461</ele>
        <time>2015-11-20T00:02:43Z</time>
      </trkpt>
      <trkpt lat="44.16049" lon="5.13241">
        <ele>461</ele>
        <time>2015-11-20T00:04:43Z</time>
      </trkpt>
      <trkpt lat="44.16051" lon="5.13239">
        <ele>461</ele>
        <time>2015-11-20T00:06:43Z</time>
      </trkpt>
      <trkpt lat="44.16055" lon="5.13236">
        <ele>461</ele>
        <time>2015-11-20T00:08:43Z</time>
      </trkpt>
      <trkpt lat="44.16058" lon="5.13231">
        <ele>461</ele>
        <time>2015-11-20T00:10:43Z</time>
      </trkpt>
      <trkpt lat="44.16061" lon="5.13225">
        <ele>461</ele>
        <time>2015-11-20T00:12:43Z</time>
      </trkpt>
      <trkpt lat="44.16063" lon="5.13218">
        <ele>462</ele>
        <time>2015-11-20T00:14:43Z</time>
      </trkpt>
      <trkpt lat="44.16065" lon="5.13211">
        <ele>462</ele>
        <time>2015-11-20T00:16:43Z</time>
      </trkpt>
      <trkpt lat="44.16065" lon="5.13204">
        <ele>462</ele>
        <time>2015-11-20T00:18:43Z</time>
      </trkpt>
      <trkpt lat="44.16065" lon="5.13199">
        <ele>462</ele>
        <time>2015-11-20T00:20:43Z</time>
      </trkpt>
      <trkpt lat="44.16065" lon="5.13192">
        <ele>463</ele>
        <time>2015-11-20T00:22:43Z</time>
      </trkpt>
      <trkpt lat="44.16065" lon="5.13188">
        <ele>463</ele>
        <time>2015-11-20T00:24:43Z</time>
      </trkpt>
      <trkpt lat="44.16063" lon="5.13179">
        <ele>463</ele>
        <time>2015-11-20T00:26:43Z</time>
      </trkpt>
      <trkpt lat="44.16062" lon="5.13171">
        <ele>463</ele>
        <time>2015-11-20T00:28:43Z</time>
      </trkpt>
      <trkpt lat="44.1606" lon="5.13164">
        <ele>463</ele>
        <time>2015-11-20T00:30:43Z</time>
      </trkpt>
      <trkpt lat="44.16056" lon="5.13157">
        <ele>462</ele>
        <time>2015-11-20T00:32:43Z</time>
      </trkpt>
      <trkpt lat="44.16053" lon="5.1315">
        <ele>462</ele>
        <time>2015-11-20T00:34:43Z</time>
      </trkpt>
      <trkpt lat="44.16049" lon="5.13145">
        <ele>462</ele>
        <time>2015-11-20T00:36:43Z</time>
      </trkpt>
      <trkpt lat="44.16041" lon="5.13137">
        <ele>461</ele>
        <time>2015-11-20T00:38:43Z</time>
      </trkpt>
      <trkpt lat="44.16033" lon="5.13131">
        <ele>460</ele>
        <time>2015-11-20T00:40:43Z</time>
      </trkpt>
      <trkpt lat="44.16019" lon="5.13119">
        <ele>460</ele>
        <time>2015-11-20T00:42:43Z</time>
      </trkpt>
      <trkpt lat="44.16006" lon="5.13108">
        <ele>459</ele>
        <time>2015-11-20T00:44:43Z</time>
      </trkpt>
      <trkpt lat="44.16003" lon="5.13106">
        <ele>459</ele>
        <time>2015-11-20T00:46:43Z</time>
      </trkpt>
      <trkpt lat="44.16" lon="5.13103">
        <ele>459</ele>
        <time>2015-11-20T00:48:43Z</time>
      </trkpt>
      <trkpt lat="44.1599" lon="5.13096">
        <ele>457</ele>
        <time>2015-11-20T00:50:43Z</time>
      </trkpt>
      <trkpt lat="44.15987" lon="5.13094">
        <ele>457</ele>
        <time>2015-11-20T00:52:43Z</time>
      </trkpt>
      <trkpt lat="44.15984" lon="5.13092">
        <ele>457</ele>
        <time>2015-11-20T00:54:43Z</time>
      </trkpt>
      <trkpt lat="44.15964" lon="5.1308">
        <ele>454</ele>
        <time>2015-11-20T00:56:43Z</time>
      </trkpt>
      <trkpt lat="44.15957" lon="5.13076">
        <ele>453</ele>
        <time>2015-11-20T00:58:43Z</time>
      </trkpt>
      <trkpt lat="44.15945" lon="5.13071">
        <ele>451</ele>
        <time>2015-11-20T01:00:43Z</time>
      </trkpt>
      <trkpt lat="44.15932" lon="5.13066">
        <ele>448</ele>
        <time>2015-11-20T01:02:43Z</time>
      </trkpt>
      <trkpt lat="44.15923" lon="5.13061">
        <ele>447</ele>
        <time>2015-11-20T01:04:43Z</time>
      </trkpt>
      <trkpt lat="44.15919" lon="5.13058">
        <ele>446</ele>
        <time>2015-11-20T01:06:43Z</time>
      </trkpt>
      <trkpt lat="44.15916" lon="5.13055">
        <ele>446</ele>
        <time>2015-11-20T01:08:43Z</time>
      </trkpt>
      <trkpt lat="44.15912" lon="5.13051">
        <ele>445</ele>
        <time>2015-11-20T01:10:43Z</time>
      </trkpt>
      <trkpt lat="44.1591" lon="5.13047">
        <ele>445</ele>
        <time>2015-11-20T01:12:43Z</time>
      </trkpt>
      <trkpt lat="44.15907" lon="5.13043">
        <ele>445</ele>
        <time>2015-11-20T01:14:43Z</time>
      </trkpt>
      <trkpt lat="44.15905" lon="5.13039">
        <ele>444</ele>
        <time>2015-11-20T01:16:43Z</time>
      </trkpt>
      <trkpt lat="44.15903" lon="5.13034">
        <ele>444</ele>
        <time>2015-11-20T01:18:43Z</time>
      </trkpt>
      <trkpt lat="44.15902" lon="5.13029">
        <ele>444</ele>
        <time>2015-11-20T01:20:43Z</time>
      </trkpt>
      <trkpt lat="44.159" lon="5.13023">
        <ele>443</ele>
        <time>2015-11-20T01:22:43Z</time>
      </trkpt>
      <trkpt lat="44.15899" lon="5.13018">
        <ele>443</ele>
        <time>2015-11-20T01:24:43Z</time>
      </trkpt>
      <trkpt lat="44.15899" lon="5.13012">
        <ele>443</ele>
        <time>2015-11-20T01:26:43Z</time>
      </trkpt>
      <trkpt lat="44.15897" lon="5.13">
        <ele>443</ele>
        <time>2015-11-20T01:28:43Z</time>
      </trkpt>
      <trkpt lat="44.15897" lon="5.12993">
        <ele>442</ele>
        <time>2015-11-20T01:30:43Z</time>
      </trkpt>
      <trkpt lat="44.15897" lon="5.1298">
        <ele>441</ele>
        <time>2015-11-20T01:32:43Z</time>
      </trkpt>
      <trkpt lat="44.15897" lon="5.12966">
        <ele>441</ele>
        <time>2015-11-20T01:34:43Z</time>
      </trkpt>
      <trkpt lat="44.15898" lon="5.12959">
        <ele>441</ele>
        <time>2015-11-20T01:36:43Z</time>
      </trkpt>
      <trkpt lat="44.15898" lon="5.12945">
        <ele>440</ele>
        <time>2015-11-20T01:38:43Z</time>
      </trkpt>
      <trkpt lat="44.15898" lon="5.12938">
        <ele>439</ele>
        <time>2015-11-20T01:40:43Z</time>
      </trkpt>
      <trkpt lat="44.15899" lon="5.12908">
        <ele>437</ele>
        <time>2015-11-20T01:42:43Z</time>
      </trkpt>
      <trkpt lat="44.15899" lon="5.12901">
        <ele>437</ele>
        <time>2015-11-20T01:44:43Z</time>
      </trkpt>
      <trkpt lat="44.15898" lon="5.12886">
        <ele>435</ele>
        <time>2015-11-20T01:46:43Z</time>
      </trkpt>
      <trkpt lat="44.15897" lon="5.12875">
        <ele>433</ele>
        <time>2015-11-20T01:48:43Z</time>
      </trkpt>
      <trkpt lat="44.15897" lon="5.12868">
        <ele>432</ele>
        <time>2015-11-20T01:50:43Z</time>
      </trkpt>
      <trkpt lat="44.15897" lon="5.12857">
        <ele>431</ele>
        <time>2015-11-20T01:52:43Z</time>
      </trkpt>
      <trkpt lat="44.15897" lon="5.12854">
        <ele>431</ele>
        <time>2015-11-20T01:54:43Z</time>
      </trkpt>
      <trkpt lat="44.15899" lon="5.12844">
        <ele>430</ele>
        <time>2015-11-20T01:56:43Z</time>
      </trkpt>
      <trkpt lat="44.15902" lon="5.12832">
        <ele>429</ele>
        <time>2015-11-20T01:58:43Z</time>
      </trkpt>
      <trkpt lat="44.15904" lon="5.12826">
        <ele>429</ele>
        <time>2015-11-20T02:00:43Z</time>
      </trkpt>
      <trkpt lat="44.15912" lon="5.12809">
        <ele>428</ele>
        <time>2015-11-20T02:02:43Z</time>
      </trkpt>
      <trkpt lat="44.15925" lon="5.12785">
        <ele>426</ele>
        <time>2015-11-20T02:04:43Z</time>
      </trkpt>
      <trkpt lat="44.15928" lon="5.12779">
        <ele>425</ele>
        <time>2015-11-20T02:06:43Z</time>
      </trkpt>
      <trkpt lat="44.1593" lon="5.12776">
        <ele>424</ele>
        <time>2015-11-20T02:08:43Z</time>
      </trkpt>
      <trkpt lat="44.15936" lon="5.12767">
        <ele>423</ele>
        <time>2015-11-20T02:10:43Z</time>
      </trkpt>
      <trkpt lat="44.15945" lon="5.12757">
        <ele>421</ele>
        <time>2015-11-20T02:12:43Z</time>
      </trkpt>
      <trkpt lat="44.1595" lon="5.12753">
        <ele>421</ele>
        <time>2015-11-20T02:14:43Z</time>
      </trkpt>
      <trkpt lat="44.15954" lon="5.1275">
        <ele>420</ele>
        <time>2015-11-20T02:16:43Z</time>
      </trkpt>
      <trkpt lat="44.15963" lon="5.12744">
        <ele>420</ele>
        <time>2015-11-20T02:18:43Z</time>
      </trkpt>
      <trkpt lat="44.15968" lon="5.12742">
        <ele>420</ele>
        <time>2015-11-20T02:20:43Z</time>
      </trkpt>
      <trkpt lat="44.1597" lon="5.1274">
        <ele>419</ele>
        <time>2015-11-20T02:22:43Z</time>
      </trkpt>
      <trkpt lat="44.15983" lon="5.12734">
        <ele>419</ele>
        <time>2015-11-20T02:24:43Z</time>
      </trkpt>
      <trkpt lat="44.15991" lon="5.1273">
        <ele>418</ele>
        <time>2015-11-20T02:26:43Z</time>
      </trkpt>
      <trkpt lat="44.16005" lon="5.12721">
        <ele>417</ele>
        <time>2015-11-20T02:28:43Z</time>
      </trkpt>
      <trkpt lat="44.16011" lon="5.12715">
        <ele>415</ele>
        <time>2015-11-20T02:30:43Z</time>
      </trkpt>
      <trkpt lat="44.16013" lon="5.12713">
        <ele>415</ele>
        <time>2015-11-20T02:32:43Z</time>
      </trkpt>
      <trkpt lat="44.16018" lon="5.12706">
        <ele>413</ele>
        <time>2015-11-20T02:34:43Z</time>
      </trkpt>
      <trkpt lat="44.16021" lon="5.12699">
        <ele>412</ele>
        <time>2015-11-20T02:36:43Z</time>
      </trkpt>
      <trkpt lat="44.16023" lon="5.12691">
        <ele>410</ele>
        <time>2015-11-20T02:38:43Z</time>
      </trkpt>
      <trkpt lat="44.16025" lon="5.12683">
        <ele>409</ele>
        <time>2015-11-20T02:40:43Z</time>
      </trkpt>
      <trkpt lat="44.16026" lon="5.12675">
        <ele>408</ele>
        <time>2015-11-20T02:42:43Z</time>
      </trkpt>
      <trkpt lat="44.16026" lon="5.1267">
        <ele>407</ele>
        <time>2015-11-20T02:44:43Z</time>
      </trkpt>
      <trkpt lat="44.16026" lon="5.12661">
        <ele>406</ele>
        <time>2015-11-20T02:46:43Z</time>
      </trkpt>
      <trkpt lat="44.16025" lon="5.12656">
        <ele>406</ele>
        <time>2015-11-20T02:48:43Z</time>
      </trkpt>
      <trkpt lat="44.16024" lon="5.12647">
        <ele>405</ele>
        <time>2015-11-20T02:50:43Z</time>
      </trkpt>
      <trkpt lat="44.16023" lon="5.12642">
        <ele>404</ele>
        <time>2015-11-20T02:52:43Z</time>
      </trkpt>
      <trkpt lat="44.16021" lon="5.12633">
        <ele>404</ele>
        <time>2015-11-20T02:54:43Z</time>
      </trkpt>
      <trkpt lat="44.16019" lon="5.12624">
        <ele>403</ele>
        <time>2015-11-20T02:56:43Z</time>
      </trkpt>
      <trkpt lat="44.16016" lon="5.12614">
        <ele>402</ele>
        <time>2015-11-20T02:58:43Z</time>
      </trkpt>
      <trkpt lat="44.16011" lon="5.12601">
        <ele>401</ele>
        <time>2015-11-20T03:00:43Z</time>
      </trkpt>
      <trkpt lat="44.16005" lon="5.12588">
        <ele>400</ele>
        <time>2015-11-20T03:02:43Z</time>
      </trkpt>
      <trkpt lat="44.16001" lon="5.12582">
        <ele>400</ele>
        <time>2015-11-20T03:04:43Z</time>
      </trkpt>
      <trkpt lat="44.15998" lon="5.12577">
        <ele>400</ele>
        <time>2015-11-20T03:06:43Z</time>
      </trkpt>
      <trkpt lat="44.15994" lon="5.12572">
        <ele>400</ele>
        <time>2015-11-20T03:08:43Z</time>
      </trkpt>
      <trkpt lat="44.15989" lon="5.12568">
        <ele>400</ele>
        <time>2015-11-20T03:10:43Z</time>
      </trkpt>
      <trkpt lat="44.15985" lon="5.12565">
        <ele>401</ele>
        <time>2015-11-20T03:12:43Z</time>
      </trkpt>
      <trkpt lat="44.15981" lon="5.12563">
        <ele>401</ele>
        <time>2015-11-20T03:14:43Z</time>
      </trkpt>
      <trkpt lat="44.15976" lon="5.12561">
        <ele>401</ele>
        <time>2015-11-20T03:16:43Z</time>
      </trkpt>
      <trkpt lat="44.15967" lon="5.12558">
        <ele>401</ele>
        <time>2015-11-20T03:18:43Z</time>
      </trkpt>
      <trkpt lat="44.15962" lon="5.12557">
        <ele>401</ele>
        <time>2015-11-20T03:20:43Z</time>
      </trkpt>
      <trkpt lat="44.15959" lon="5.12557">
        <ele>402</ele>
        <time>2015-11-20T03:22:43Z</time>
      </trkpt>
      <trkpt lat="44.15943" lon="5.12554">
        <ele>402</ele>
        <time>2015-11-20T03:24:43Z</time>
      </trkpt>
      <trkpt lat="44.15929" lon="5.12551">
        <ele>403</ele>
        <time>2015-11-20T03:26:43Z</time>
      </trkpt>
      <trkpt lat="44.15915" lon="5.12546">
        <ele>404</ele>
        <time>2015-11-20T03:28:43Z</time>
      </trkpt>
      <trkpt lat="44.15903" lon="5.12543">
        <ele>404</ele>
        <time>2015-11-20T03:30:43Z</time>
      </trkpt>
      <trkpt lat="44.15871" lon="5.12536">
        <ele>404</ele>
        <time>2015-11-20T03:32:43Z</time>
      </trkpt>
      <trkpt lat="44.15868" lon="5.12536">
        <ele>404</ele>
        <time>2015-11-20T03:34:43Z</time>
      </trkpt>
      <trkpt lat="44.15845" lon="5.12531">
        <ele>404</ele>
        <time>2015-11-20T03:36:43Z</time>
      </trkpt>
      <trkpt lat="44.15826" lon="5.12526">
        <ele>404</ele>
        <time>2015-11-20T03:38:43Z</time>
      </trkpt>
      <trkpt lat="44.15814" lon="5.12521">
        <ele>403</ele>
        <time>2015-11-20T03:40:43Z</time>
      </trkpt>
      <trkpt lat="44.158" lon="5.12515">
        <ele>401</ele>
        <time>2015-11-20T03:42:43Z</time>
      </trkpt>
      <trkpt lat="44.15792" lon="5.12511">
        <ele>400</ele>
        <time>2015-11-20T03:44:43Z</time>
      </trkpt>
      <trkpt lat="44.15778" lon="5.12503">
        <ele>399</ele>
        <time>2015-11-20T03:46:43Z</time>
      </trkpt>
      <trkpt lat="44.1576" lon="5.12491">
        <ele>397</ele>
        <time>2015-11-20T03:48:43Z</time>
      </trkpt>
      <trkpt lat="44.15751" lon="5.12485">
        <ele>396</ele>
        <time>2015-11-20T03:50:43Z</time>
      </trkpt>
      <trkpt lat="44.15748" lon="5.12483">
        <ele>395</ele>
        <time>2015-11-20T03:52:43Z</time>
      </trkpt>
      <trkpt lat="44.15743" lon="5.12479">
        <ele>395</ele>
        <time>2015-11-20T03:54:43Z</time>
      </trkpt>
      <trkpt lat="44.15718" lon="5.12464">
        <ele>392</ele>
        <time>2015-11-20T03:56:43Z</time>
      </trkpt>
      <trkpt lat="44.15704" lon="5.12457">
        <ele>390</ele>
        <time>2015-11-20T03:58:43Z</time>
      </trkpt>
      <trkpt lat="44.15697" lon="5.12454">
        <ele>389</ele>
        <time>2015-11-20T04:00:43Z</time>
      </trkpt>
      <trkpt lat="44.15684" lon="5.12447">
        <ele>387</ele>
        <time>2015-11-20T04:02:43Z</time>
      </trkpt>
      <trkpt lat="44.15681" lon="5.12444">
        <ele>387</ele>
        <time>2015-11-20T04:04:43Z</time>
      </trkpt>
      <trkpt lat="44.15671" lon="5.12435">
        <ele>385</ele>
        <time>2015-11-20T04:06:43Z</time>
      </trkpt>
      <trkpt lat="44.15665" lon="5.12428">
        <ele>385</ele>
        <time>2015-11-20T04:08:43Z</time>
      </trkpt>
      <trkpt lat="44.1566" lon="5.12421">
        <ele>384</ele>
        <time>2015-11-20T04:10:43Z</time>
      </trkpt>
      <trkpt lat="44.15658" lon="5.12418">
        <ele>384</ele>
        <time>2015-11-20T04:12:43Z</time>
      </trkpt>
      <trkpt lat="44.15654" lon="5.1241">
        <ele>384</ele>
        <time>2015-11-20T04:14:43Z</time>
      </trkpt>
      <trkpt lat="44.15648" lon="5.12397">
        <ele>384</ele>
        <time>2015-11-20T04:16:43Z</time>
      </trkpt>
      <trkpt lat="44.15646" lon="5.12392">
        <ele>384</ele>
        <time>2015-11-20T04:18:43Z</time>
      </trkpt>
      <trkpt lat="44.15644" lon="5.12388">
        <ele>384</ele>
        <time>2015-11-20T04:20:43Z</time>
      </trkpt>
      <trkpt lat="44.15642" lon="5.12383">
        <ele>384</ele>
        <time>2015-11-20T04:22:43Z</time>
      </trkpt>
      <trkpt lat="44.15641" lon="5.12378">
        <ele>384</ele>
        <time>2015-11-20T04:24:43Z</time>
      </trkpt>
      <trkpt lat="44.15639" lon="5.12373">
        <ele>384</ele>
        <time>2015-11-20T04:26:43Z</time>
      </trkpt>
      <trkpt lat="44.1563" lon="5.12341">
        <ele>386</ele>
        <time>2015-11-20T04:28:43Z</time>
      </trkpt>
      <trkpt lat="44.15628" lon="5.12336">
        <ele>386</ele>
        <time>2015-11-20T04:30:43Z</time>
      </trkpt>
      <trkpt lat="44.15623" lon="5.12319">
        <ele>386</ele>
        <time>2015-11-20T04:32:43Z</time>
      </trkpt>
      <trkpt lat="44.15622" lon="5.12315">
        <ele>385</ele>
        <time>2015-11-20T04:34:43Z</time>
      </trkpt>
      <trkpt lat="44.15622" lon="5.12312">
        <ele>386</ele>
        <time>2015-11-20T04:36:43Z</time>
      </trkpt>
      <trkpt lat="44.15623" lon="5.12306">
        <ele>386</ele>
        <time>2015-11-20T04:38:43Z</time>
      </trkpt>
      <trkpt lat="44.15625" lon="5.12301">
        <ele>386</ele>
        <time>2015-11-20T04:40:43Z</time>
      </trkpt>
      <trkpt lat="44.15629" lon="5.12296">
        <ele>387</ele>
        <time>2015-11-20T04:42:43Z</time>
      </trkpt>
      <trkpt lat="44.15633" lon="5.12292">
        <ele>387</ele>
        <time>2015-11-20T04:44:43Z</time>
      </trkpt>
      <trkpt lat="44.15638" lon="5.1229">
        <ele>388</ele>
        <time>2015-11-20T04:46:43Z</time>
      </trkpt>
      <trkpt lat="44.15644" lon="5.12288">
        <ele>389</ele>
        <time>2015-11-20T04:48:43Z</time>
      </trkpt>
      <trkpt lat="44.15646" lon="5.12289">
        <ele>389</ele>
        <time>2015-11-20T04:50:43Z</time>
      </trkpt>
      <trkpt lat="44.15656" lon="5.1229">
        <ele>391</ele>
        <time>2015-11-20T04:52:43Z</time>
      </trkpt>
      <trkpt lat="44.15662" lon="5.1229">
        <ele>391</ele>
        <time>2015-11-20T04:54:43Z</time>
      </trkpt>
      <trkpt lat="44.15668" lon="5.12289">
        <ele>392</ele>
        <time>2015-11-20T04:56:43Z</time>
      </trkpt>
      <trkpt lat="44.1567" lon="5.12288">
        <ele>392</ele>
        <time>2015-11-20T04:58:43Z</time>
      </trkpt>
      <trkpt lat="44.15676" lon="5.12286">
        <ele>393</ele>
        <time>2015-11-20T05:00:43Z</time>
      </trkpt>
      <trkpt lat="44.15678" lon="5.12284">
        <ele>393</ele>
        <time>2015-11-20T05:02:43Z</time>
      </trkpt>
      <trkpt lat="44.15686" lon="5.12279">
        <ele>394</ele>
        <time>2015-11-20T05:04:43Z</time>
      </trkpt>
      <trkpt lat="44.15693" lon="5.12272">
        <ele>395</ele>
        <time>2015-11-20T05:06:43Z</time>
      </trkpt>
      <trkpt lat="44.15697" lon="5.12266">
        <ele>395</ele>
        <time>2015-11-20T05:08:43Z</time>
      </trkpt>
      <trkpt lat="44.15706" lon="5.12255">
        <ele>396</ele>
        <time>2015-11-20T05:10:43Z</time>
      </trkpt>
      <trkpt lat="44.15714" lon="5.12241">
        <ele>397</ele>
        <time>2015-11-20T05:12:43Z</time>
      </trkpt>
      <trkpt lat="44.15716" lon="5.12237">
        <ele>397</ele>
        <time>2015-11-20T05:14:43Z</time>
      </trkpt>
      <trkpt lat="44.15726" lon="5.12219">
        <ele>398</ele>
        <time>2015-11-20T05:16:43Z</time>
      </trkpt>
      <trkpt lat="44.15729" lon="5.12214">
        <ele>399</ele>
        <time>2015-11-20T05:18:43Z</time>
      </trkpt>
      <trkpt lat="44.15737" lon="5.12195">
        <ele>401</ele>
        <time>2015-11-20T05:20:43Z</time>
      </trkpt>
      <trkpt lat="44.15739" lon="5.1219">
        <ele>401</ele>
        <time>2015-11-20T05:22:43Z</time>
      </trkpt>
      <trkpt lat="44.15753" lon="5.12162">
        <ele>404</ele>
        <time>2015-11-20T05:24:43Z</time>
      </trkpt>
      <trkpt lat="44.15765" lon="5.12134">
        <ele>406</ele>
        <time>2015-11-20T05:26:43Z</time>
      </trkpt>
      <trkpt lat="44.15779" lon="5.121">
        <ele>407</ele>
        <time>2015-11-20T05:28:43Z</time>
      </trkpt>
      <trkpt lat="44.15793" lon="5.12063">
        <ele>409</ele>
        <time>2015-11-20T05:30:43Z</time>
      </trkpt>
      <trkpt lat="44.158" lon="5.12049">
        <ele>410</ele>
        <time>2015-11-20T05:32:43Z</time>
      </trkpt>
      <trkpt lat="44.15805" lon="5.1204">
        <ele>411</ele>
        <time>2015-11-20T05:34:43Z</time>
      </trkpt>
      <trkpt lat="44.1581" lon="5.12032">
        <ele>412</ele>
        <time>2015-11-20T05:36:43Z</time>
      </trkpt>
      <trkpt lat="44.15816" lon="5.12025">
        <ele>413</ele>
        <time>2015-11-20T05:38:43Z</time>
      </trkpt>
      <trkpt lat="44.15821" lon="5.12018">
        <ele>414</ele>
        <time>2015-11-20T05:40:43Z</time>
      </trkpt>
      <trkpt lat="44.15824" lon="5.12015">
        <ele>415</ele>
        <time>2015-11-20T05:42:43Z</time>
      </trkpt>
      <trkpt lat="44.15827" lon="5.12012">
        <ele>416</ele>
        <time>2015-11-20T05:44:43Z</time>
      </trkpt>
      <trkpt lat="44.1583" lon="5.12009">
        <ele>417</ele>
        <time>2015-11-20T05:46:43Z</time>
      </trkpt>
      <trkpt lat="44.15833" lon="5.12006">
        <ele>418</ele>
        <time>2015-11-20T05:48:43Z</time>
      </trkpt>
      <trkpt lat="44.15836" lon="5.12003">
        <ele>418</ele>
        <time>2015-11-20T05:50:43Z</time>
      </trkpt>
      <trkpt lat="44.15842" lon="5.11997">
        <ele>419</ele>
        <time>2015-11-20T05:52:43Z</time>
      </trkpt>
      <trkpt lat="44.15864" lon="5.11981">
        <ele>421</ele>
        <time>2015-11-20T05:54:43Z</time>
      </trkpt>
      <trkpt lat="44.15883" lon="5.11967">
        <ele>424</ele>
        <time>2015-11-20T05:56:43Z</time>
      </trkpt>
      <trkpt lat="44.159" lon="5.11954">
        <ele>427</ele>
        <time>2015-11-20T05:58:43Z</time>
      </trkpt>
      <trkpt lat="44.15904" lon="5.11951">
        <ele>428</ele>
        <time>2015-11-20T06:00:43Z</time>
      </trkpt>
      <trkpt lat="44.15918" lon="5.1194">
        <ele>431</ele>
        <time>2015-11-20T06:02:43Z</time>
      </trkpt>
      <trkpt lat="44.15926" lon="5.11933">
        <ele>433</ele>
        <time>2015-11-20T06:04:43Z</time>
      </trkpt>
      <trkpt lat="44.15945" lon="5.11914">
        <ele>438</ele>
        <time>2015-11-20T06:06:43Z</time>
      </trkpt>
      <trkpt lat="44.15958" lon="5.11899">
        <ele>439</ele>
        <time>2015-11-20T06:08:43Z</time>
      </trkpt>
      <trkpt lat="44.15965" lon="5.1189">
        <ele>440</ele>
        <time>2015-11-20T06:10:43Z</time>
      </trkpt>
      <trkpt lat="44.15969" lon="5.11883">
        <ele>441</ele>
        <time>2015-11-20T06:12:43Z</time>
      </trkpt>
      <trkpt lat="44.1598" lon="5.11865">
        <ele>443</ele>
        <time>2015-11-20T06:14:43Z</time>
      </trkpt>
      <trkpt lat="44.15982" lon="5.11862">
        <ele>443</ele>
        <time>2015-11-20T06:16:43Z</time>
      </trkpt>
      <trkpt lat="44.15987" lon="5.11853">
        <ele>444</ele>
        <time>2015-11-20T06:18:43Z</time>
      </trkpt>
      <trkpt lat="44.15993" lon="5.11842">
        <ele>446</ele>
        <time>2015-11-20T06:20:43Z</time>
      </trkpt>
      <trkpt lat="44.16007" lon="5.11812">
        <ele>447</ele>
        <time>2015-11-20T06:22:43Z</time>
      </trkpt>
      <trkpt lat="44.16009" lon="5.11808">
        <ele>447</ele>
        <time>2015-11-20T06:24:43Z</time>
      </trkpt>
      <trkpt lat="44.16011" lon="5.11804">
        <ele>447</ele>
        <time>2015-11-20T06:26:43Z</time>
      </trkpt>
      <trkpt lat="44.16016" lon="5.11795">
        <ele>447</ele>
        <time>2015-11-20T06:28:43Z</time>
      </trkpt>
      <trkpt lat="44.1602" lon="5.1179">
        <ele>448</ele>
        <time>2015-11-20T06:30:43Z</time>
      </trkpt>
      <trkpt lat="44.16023" lon="5.11785">
        <ele>448</ele>
        <time>2015-11-20T06:32:43Z</time>
      </trkpt>
      <trkpt lat="44.16031" lon="5.11777">
        <ele>450</ele>
        <time>2015-11-20T06:34:43Z</time>
      </trkpt>
      <trkpt lat="44.1604" lon="5.1177">
        <ele>452</ele>
        <time>2015-11-20T06:36:43Z</time>
      </trkpt>
      <trkpt lat="44.16049" lon="5.11766">
        <ele>455</ele>
        <time>2015-11-20T06:38:43Z</time>
      </trkpt>
      <trkpt lat="44.16057" lon="5.11765">
        <ele>457</ele>
        <time>2015-11-20T06:40:43Z</time>
      </trkpt>
      <trkpt lat="44.16065" lon="5.11764">
        <ele>460</ele>
        <time>2015-11-20T06:42:43Z</time>
      </trkpt>
      <trkpt lat="44.1607" lon="5.11764">
        <ele>462</ele>
        <time>2015-11-20T06:44:43Z</time>
      </trkpt>
      <trkpt lat="44.16075" lon="5.11765">
        <ele>464</ele>
        <time>2015-11-20T06:46:43Z</time>
      </trkpt>
      <trkpt lat="44.16084" lon="5.11767">
        <ele>467</ele>
        <time>2015-11-20T06:48:43Z</time>
      </trkpt>
      <trkpt lat="44.16086" lon="5.11767">
        <ele>467</ele>
        <time>2015-11-20T06:50:43Z</time>
      </trkpt>
      <trkpt lat="44.16091" lon="5.11767">
        <ele>468</ele>
        <time>2015-11-20T06:52:43Z</time>
      </trkpt>
      <trkpt lat="44.16095" lon="5.11765">
        <ele>468</ele>
        <time>2015-11-20T06:54:43Z</time>
      </trkpt>
      <trkpt lat="44.16098" lon="5.11763">
        <ele>469</ele>
        <time>2015-11-20T06:56:43Z</time>
      </trkpt>
      <trkpt lat="44.16102" lon="5.11759">
        <ele>469</ele>
        <time>2015-11-20T06:58:43Z</time>
      </trkpt>
      <trkpt lat="44.16105" lon="5.11755">
        <ele>470</ele>
        <time>2015-11-20T07:00:43Z</time>
      </trkpt>
      <trkpt lat="44.16107" lon="5.1175">
        <ele>470</ele>
        <time>2015-11-20T07:02:43Z</time>
      </trkpt>
      <trkpt lat="44.1611" lon="5.11745">
        <ele>470</ele>
        <time>2015-11-20T07:04:43Z</time>
      </trkpt>
      <trkpt lat="44.16115" lon="5.11732">
        <ele>470</ele>
        <time>2015-11-20T07:06:43Z</time>
      </trkpt>
      <trkpt lat="44.16118" lon="5.11722">
        <ele>469</ele>
        <time>2015-11-20T07:08:43Z</time>
      </trkpt>
      <trkpt lat="44.16119" lon="5.11719">
        <ele>469</ele>
        <time>2015-11-20T07:10:43Z</time>
      </trkpt>
      <trkpt lat="44.16124" lon="5.11705">
        <ele>469</ele>
        <time>2015-11-20T07:12:43Z</time>
      </trkpt>
      <trkpt lat="44.16128" lon="5.11695">
        <ele>470</ele>
        <time>2015-11-20T07:14:43Z</time>
      </trkpt>
      <trkpt lat="44.1613" lon="5.11692">
        <ele>470</ele>
        <time>2015-11-20T07:16:43Z</time>
      </trkpt>
      <trkpt lat="44.16132" lon="5.11687">
        <ele>470</ele>
        <time>2015-11-20T07:18:43Z</time>
      </trkpt>
      <trkpt lat="44.16138" lon="5.11672">
        <ele>472</ele>
        <time>2015-11-20T07:20:43Z</time>
      </trkpt>
      <trkpt lat="44.16154" lon="5.11633">
        <ele>475</ele>
        <time>2015-11-20T07:22:43Z</time>
      </trkpt>
      <trkpt lat="44.16157" lon="5.11625">
        <ele>476</ele>
        <time>2015-11-20T07:24:43Z</time>
      </trkpt>
      <trkpt lat="44.16162" lon="5.11613">
        <ele>477</ele>
        <time>2015-11-20T07:26:43Z</time>
      </trkpt>
      <trkpt lat="44.16163" lon="5.11609">
        <ele>478</ele>
        <time>2015-11-20T07:28:43Z</time>
      </trkpt>
      <trkpt lat="44.16165" lon="5.11605">
        <ele>478</ele>
        <time>2015-11-20T07:30:43Z</time>
      </trkpt>
      <trkpt lat="44.16166" lon="5.116">
        <ele>479</ele>
        <time>2015-11-20T07:32:43Z</time>
      </trkpt>
      <trkpt lat="44.16175" lon="5.11579">
        <ele>479</ele>
        <time>2015-11-20T07:34:43Z</time>
      </trkpt>
      <trkpt lat="44.16177" lon="5.11574">
        <ele>479</ele>
        <time>2015-11-20T07:36:43Z</time>
      </trkpt>
      <trkpt lat="44.16183" lon="5.1156">
        <ele>480</ele>
        <time>2015-11-20T07:38:43Z</time>
      </trkpt>
      <trkpt lat="44.16187" lon="5.1155">
        <ele>480</ele>
        <time>2015-11-20T07:40:43Z</time>
      </trkpt>
      <trkpt lat="44.16189" lon="5.11546">
        <ele>480</ele>
        <time>2015-11-20T07:42:43Z</time>
      </trkpt>
      <trkpt lat="44.16204" lon="5.11514">
        <ele>484</ele>
        <time>2015-11-20T07:44:43Z</time>
      </trkpt>
      <trkpt lat="44.16212" lon="5.11498">
        <ele>486</ele>
        <time>2015-11-20T07:46:43Z</time>
      </trkpt>
      <trkpt lat="44.16217" lon="5.11488">
        <ele>487</ele>
        <time>2015-11-20T07:48:43Z</time>
      </trkpt>
      <trkpt lat="44.16231" lon="5.11466">
        <ele>490</ele>
        <time>2015-11-20T07:50:43Z</time>
      </trkpt>
      <trkpt lat="44.16237" lon="5.11458">
        <ele>492</ele>
        <time>2015-11-20T07:52:43Z</time>
      </trkpt>
      <trkpt lat="44.1624" lon="5.11456">
        <ele>493</ele>
        <time>2015-11-20T07:54:43Z</time>
      </trkpt>
      <trkpt lat="44.16243" lon="5.11454">
        <ele>494</ele>
        <time>2015-11-20T07:56:43Z</time>
      </trkpt>
      <trkpt lat="44.16248" lon="5.11452">
        <ele>496</ele>
        <time>2015-11-20T07:58:43Z</time>
      </trkpt>
      <trkpt lat="44.16251" lon="5.11451">
        <ele>497</ele>
        <time>2015-11-20T08:00:43Z</time>
      </trkpt>
      <trkpt lat="44.16254" lon="5.11449">
        <ele>497</ele>
        <time>2015-11-20T08:02:43Z</time>
      </trkpt>
      <trkpt lat="44.16256" lon="5.11445">
        <ele>496</ele>
        <time>2015-11-20T08:04:43Z</time>
      </trkpt>
      <trkpt lat="44.16259" lon="5.1144">
        <ele>496</ele>
        <time>2015-11-20T08:06:43Z</time>
      </trkpt>
      <trkpt lat="44.16262" lon="5.11434">
        <ele>495</ele>
        <time>2015-11-20T08:08:43Z</time>
      </trkpt>
      <trkpt lat="44.16267" lon="5.11424">
        <ele>495</ele>
        <time>2015-11-20T08:10:43Z</time>
      </trkpt>
      <trkpt lat="44.1627" lon="5.11413">
        <ele>494</ele>
        <time>2015-11-20T08:12:43Z</time>
      </trkpt>
      <trkpt lat="44.16272" lon="5.11408">
        <ele>493</ele>
        <time>2015-11-20T08:14:43Z</time>
      </trkpt>
      <trkpt lat="44.16275" lon="5.11392">
        <ele>489</ele>
        <time>2015-11-20T08:16:43Z</time>
      </trkpt>
      <trkpt lat="44.16278" lon="5.11381">
        <ele>488</ele>
        <time>2015-11-20T08:18:43Z</time>
      </trkpt>
      <trkpt lat="44.16284" lon="5.11363">
        <ele>485</ele>
        <time>2015-11-20T08:20:43Z</time>
      </trkpt>
      <trkpt lat="44.1629" lon="5.1135">
        <ele>484</ele>
        <time>2015-11-20T08:22:43Z</time>
      </trkpt>
      <trkpt lat="44.16297" lon="5.11337">
        <ele>484</ele>
        <time>2015-11-20T08:24:43Z</time>
      </trkpt>
      <trkpt lat="44.163" lon="5.11331">
        <ele>484</ele>
        <time>2015-11-20T08:26:43Z</time>
      </trkpt>
      <trkpt lat="44.16308" lon="5.1132">
        <ele>484</ele>
        <time>2015-11-20T08:28:43Z</time>
      </trkpt>
      <trkpt lat="44.16316" lon="5.11311">
        <ele>485</ele>
        <time>2015-11-20T08:30:43Z</time>
      </trkpt>
      <trkpt lat="44.16323" lon="5.11302">
        <ele>485</ele>
        <time>2015-11-20T08:32:43Z</time>
      </trkpt>
      <trkpt lat="44.16335" lon="5.11289">
        <ele>486</ele>
        <time>2015-11-20T08:34:43Z</time>
      </trkpt>
      <trkpt lat="44.16355" lon="5.1127">
        <ele>485</ele>
        <time>2015-11-20T08:36:43Z</time>
      </trkpt>
      <trkpt lat="44.16366" lon="5.11257">
        <ele>485</ele>
        <time>2015-11-20T08:38:43Z</time>
      </trkpt>
      <trkpt lat="44.16377" lon="5.11243">
        <ele>485</ele>
        <time>2015-11-20T08:40:43Z</time>
      </trkpt>
      <trkpt lat="44.16384" lon="5.11233">
        <ele>484</ele>
        <time>2015-11-20T08:42:43Z</time>
      </trkpt>
      <trkpt lat="44.16391" lon="5.11222">
        <ele>483</ele>
        <time>2015-11-20T08:44:43Z</time>
      </trkpt>
      <trkpt lat="44.16394" lon="5.11215">
        <ele>481</ele>
        <time>2015-11-20T08:46:43Z</time>
      </trkpt>
      <trkpt lat="44.164" lon="5.11202">
        <ele>480</ele>
        <time>2015-11-20T08:48:43Z</time>
      </trkpt>
      <trkpt lat="44.16403" lon="5.11194">
        <ele>478</ele>
        <time>2015-11-20T08:50:43Z</time>
      </trkpt>
      <trkpt lat="44.16405" lon="5.11187">
        <ele>477</ele>
        <time>2015-11-20T08:52:43Z</time>
      </trkpt>
      <trkpt lat="44.16411" lon="5.11175">
        <ele>476</ele>
        <time>2015-11-20T08:54:43Z</time>
      </trkpt>
      <trkpt lat="44.16413" lon="5.11169">
        <ele>475</ele>
        <time>2015-11-20T08:56:43Z</time>
      </trkpt>
      <trkpt lat="44.16416" lon="5.11164">
        <ele>474</ele>
        <time>2015-11-20T08:58:43Z</time>
      </trkpt>
      <trkpt lat="44.1642" lon="5.11159">
        <ele>473</ele>
        <time>2015-11-20T09:00:43Z</time>
      </trkpt>
      <trkpt lat="44.16426" lon="5.11151">
        <ele>471</ele>
        <time>2015-11-20T09:02:43Z</time>
      </trkpt>
      <trkpt lat="44.16433" lon="5.11143">
        <ele>469</ele>
        <time>2015-11-20T09:04:43Z</time>
      </trkpt>
      <trkpt lat="44.16441" lon="5.11137">
        <ele>468</ele>
        <time>2015-11-20T09:06:43Z</time>
      </trkpt>
      <trkpt lat="44.16449" lon="5.11131">
        <ele>467</ele>
        <time>2015-11-20T09:08:43Z</time>
      </trkpt>
      <trkpt lat="44.16457" lon="5.11125">
        <ele>466</ele>
        <time>2015-11-20T09:10:43Z</time>
      </trkpt>
      <trkpt lat="44.16469" lon="5.11118">
        <ele>466</ele>
        <time>2015-11-20T09:12:43Z</time>
      </trkpt>
      <trkpt lat="44.16478" lon="5.11113">
        <ele>466</ele>
        <time>2015-11-20T09:14:43Z</time>
      </trkpt>
      <trkpt lat="44.16483" lon="5.11111">
        <ele>466</ele>
        <time>2015-11-20T09:16:43Z</time>
      </trkpt>
      <trkpt lat="44.16487" lon="5.11108">
        <ele>466</ele>
        <time>2015-11-20T09:18:43Z</time>
      </trkpt>
      <trkpt lat="44.16501" lon="5.111">
        <ele>466</ele>
        <time>2015-11-20T09:20:43Z</time>
      </trkpt>
      <trkpt lat="44.1651" lon="5.11094">
        <ele>465</ele>
        <time>2015-11-20T09:22:43Z</time>
      </trkpt>
      <trkpt lat="44.1652" lon="5.11087">
        <ele>464</ele>
        <time>2015-11-20T09:24:43Z</time>
      </trkpt>
      <trkpt lat="44.16529" lon="5.11079">
        <ele>463</ele>
        <time>2015-11-20T09:26:43Z</time>
      </trkpt>
      <trkpt lat="44.16533" lon="5.11075">
        <ele>463</ele>
        <time>2015-11-20T09:28:43Z</time>
      </trkpt>
      <trkpt lat="44.16543" lon="5.11066">
        <ele>462</ele>
        <time>2015-11-20T09:30:43Z</time>
      </trkpt>
      <trkpt lat="44.16555" lon="5.11053">
        <ele>461</ele>
        <time>2015-11-20T09:32:43Z</time>
      </trkpt>
      <trkpt lat="44.16564" lon="5.11044">
        <ele>460</ele>
        <time>2015-11-20T09:34:43Z</time>
      </trkpt>
      <trkpt lat="44.16583" lon="5.11025">
        <ele>461</ele>
        <time>2015-11-20T09:36:43Z</time>
      </trkpt>
      <trkpt lat="44.16592" lon="5.11017">
        <ele>460</ele>
        <time>2015-11-20T09:38:43Z</time>
      </trkpt>
      <trkpt lat="44.16604" lon="5.11007">
        <ele>458</ele>
        <time>2015-11-20T09:40:43Z</time>
      </trkpt>
      <trkpt lat="44.16618" lon="5.10997">
        <ele>458</ele>
        <time>2015-11-20T09:42:43Z</time>
      </trkpt>
      <trkpt lat="44.16629" lon="5.1099">
        <ele>457</ele>
        <time>2015-11-20T09:44:43Z</time>
      </trkpt>
      <trkpt lat="44.16633" lon="5.10987">
        <ele>457</ele>
        <time>2015-11-20T09:46:43Z</time>
      </trkpt>
      <trkpt lat="44.16636" lon="5.10984">
        <ele>457</ele>
        <time>2015-11-20T09:48:43Z</time>
      </trkpt>
      <trkpt lat="44.16638" lon="5.1098">
        <ele>458</ele>
        <time>2015-11-20T09:50:43Z</time>
      </trkpt>
      <trkpt lat="44.1664" lon="5.10976">
        <ele>458</ele>
        <time>2015-11-20T09:52:43Z</time>
      </trkpt>
      <trkpt lat="44.16641" lon="5.10972">
        <ele>458</ele>
        <time>2015-11-20T09:54:43Z</time>
      </trkpt>
      <trkpt lat="44.16642" lon="5.10967">
        <ele>458</ele>
        <time>2015-11-20T09:56:43Z</time>
      </trkpt>
      <trkpt lat="44.16643" lon="5.10962">
        <ele>458</ele>
        <time>2015-11-20T09:58:43Z</time>
      </trkpt>
      <trkpt lat="44.16643" lon="5.10956">
        <ele>459</ele>
        <time>2015-11-20T10:00:43Z</time>
      </trkpt>
      <trkpt lat="44.16642" lon="5.10945">
        <ele>459</ele>
        <time>2015-11-20T10:02:43Z</time>
      </trkpt>
      <trkpt lat="44.16639" lon="5.10914">
        <ele>459</ele>
        <time>2015-11-20T10:04:43Z</time>
      </trkpt>
      <trkpt lat="44.16637" lon="5.10885">
        <ele>460</ele>
        <time>2015-11-20T10:06:43Z</time>
      </trkpt>
      <trkpt lat="44.16637" lon="5.10879">
        <ele>460</ele>
        <time>2015-11-20T10:08:43Z</time>
      </trkpt>
      <trkpt lat="44.16637" lon="5.10864">
        <ele>460</ele>
        <time>2015-11-20T10:10:43Z</time>
      </trkpt>
      <trkpt lat="44.16636" lon="5.10854">
        <ele>460</ele>
        <time>2015-11-20T10:12:43Z</time>
      </trkpt>
      <trkpt lat="44.16636" lon="5.10835">
        <ele>460</ele>
        <time>2015-11-20T10:14:43Z</time>
      </trkpt>
      <trkpt lat="44.16637" lon="5.10816">
        <ele>460</ele>
        <time>2015-11-20T10:16:43Z</time>
      </trkpt>
      <trkpt lat="44.16638" lon="5.10802">
        <ele>460</ele>
        <time>2015-11-20T10:18:43Z</time>
      </trkpt>
      <trkpt lat="44.1664" lon="5.10778">
        <ele>460</ele>
        <time>2015-11-20T10:20:43Z</time>
      </trkpt>
      <trkpt lat="44.16645" lon="5.10751">
        <ele>461</ele>
        <time>2015-11-20T10:22:43Z</time>
      </trkpt>
      <trkpt lat="44.16646" lon="5.10745">
        <ele>461</ele>
        <time>2015-11-20T10:24:43Z</time>
      </trkpt>
      <trkpt lat="44.1665" lon="5.1072">
        <ele>462</ele>
        <time>2015-11-20T10:26:43Z</time>
      </trkpt>
      <trkpt lat="44.16651" lon="5.10704">
        <ele>462</ele>
        <time>2015-11-20T10:28:43Z</time>
      </trkpt>
      <trkpt lat="44.16652" lon="5.10688">
        <ele>462</ele>
        <time>2015-11-20T10:30:43Z</time>
      </trkpt>
      <trkpt lat="44.16652" lon="5.10681">
        <ele>462</ele>
        <time>2015-11-20T10:32:43Z</time>
      </trkpt>
      <trkpt lat="44.16652" lon="5.10667">
        <ele>462</ele>
        <time>2015-11-20T10:34:43Z</time>
      </trkpt>
      <trkpt lat="44.16651" lon="5.10652">
        <ele>462</ele>
        <time>2015-11-20T10:36:43Z</time>
      </trkpt>
      <trkpt lat="44.16648" lon="5.10631">
        <ele>461</ele>
        <time>2015-11-20T10:38:43Z</time>
      </trkpt>
      <trkpt lat="44.16647" lon="5.10625">
        <ele>461</ele>
        <time>2015-11-20T10:40:43Z</time>
      </trkpt>
      <trkpt lat="44.16646" lon="5.10618">
        <ele>461</ele>
        <time>2015-11-20T10:42:43Z</time>
      </trkpt>
      <trkpt lat="44.16641" lon="5.1059">
        <ele>460</ele>
        <time>2015-11-20T10:44:43Z</time>
      </trkpt>
      <trkpt lat="44.16639" lon="5.10583">
        <ele>459</ele>
        <time>2015-11-20T10:46:43Z</time>
      </trkpt>
      <trkpt lat="44.1663" lon="5.10538">
        <ele>458</ele>
        <time>2015-11-20T10:48:43Z</time>
      </trkpt>
      <trkpt lat="44.16625" lon="5.10513">
        <ele>456</ele>
        <time>2015-11-20T10:50:43Z</time>
      </trkpt>
      <trkpt lat="44.16622" lon="5.10497">
        <ele>455</ele>
        <time>2015-11-20T10:52:43Z</time>
      </trkpt>
      <trkpt lat="44.1662" lon="5.10482">
        <ele>454</ele>
        <time>2015-11-20T10:54:43Z</time>
      </trkpt>
      <trkpt lat="44.16618" lon="5.10469">
        <ele>453</ele>
        <time>2015-11-20T10:56:43Z</time>
      </trkpt>
      <trkpt lat="44.16617" lon="5.10449">
        <ele>452</ele>
        <time>2015-11-20T10:58:43Z</time>
      </trkpt>
      <trkpt lat="44.16616" lon="5.10425">
        <ele>451</ele>
        <time>2015-11-20T11:00:43Z</time>
      </trkpt>
      <trkpt lat="44.16617" lon="5.10407">
        <ele>451</ele>
        <time>2015-11-20T11:02:43Z</time>
      </trkpt>
      <trkpt lat="44.16619" lon="5.10378">
        <ele>451</ele>
        <time>2015-11-20T11:04:43Z</time>
      </trkpt>
      <trkpt lat="44.16621" lon="5.10346">
        <ele>451</ele>
        <time>2015-11-20T11:06:43Z</time>
      </trkpt>
      <trkpt lat="44.16623" lon="5.10312">
        <ele>451</ele>
        <time>2015-11-20T11:08:43Z</time>
      </trkpt>
      <trkpt lat="44.16623" lon="5.10297">
        <ele>450</ele>
        <time>2015-11-20T11:10:43Z</time>
      </trkpt>
      <trkpt lat="44.16623" lon="5.10291">
        <ele>450</ele>
        <time>2015-11-20T11:12:43Z</time>
      </trkpt>
      <trkpt lat="44.16623" lon="5.10281">
        <ele>450</ele>
        <time>2015-11-20T11:14:43Z</time>
      </trkpt>
      <trkpt lat="44.16623" lon="5.10266">
        <ele>450</ele>
        <time>2015-11-20T11:16:43Z</time>
      </trkpt>
      <trkpt lat="44.16623" lon="5.10262">
        <ele>449</ele>
        <time>2015-11-20T11:18:43Z</time>
      </trkpt>
      <trkpt lat="44.16622" lon="5.10253">
        <ele>449</ele>
        <time>2015-11-20T11:20:43Z</time>
      </trkpt>
      <trkpt lat="44.16619" lon="5.10219">
        <ele>446</ele>
        <time>2015-11-20T11:22:43Z</time>
      </trkpt>
      <trkpt lat="44.16619" lon="5.10215">
        <ele>446</ele>
        <time>2015-11-20T11:24:43Z</time>
      </trkpt>
      <trkpt lat="44.16617" lon="5.10198">
        <ele>445</ele>
        <time>2015-11-20T11:26:43Z</time>
      </trkpt>
      <trkpt lat="44.16617" lon="5.10194">
        <ele>445</ele>
        <time>2015-11-20T11:28:43Z</time>
      </trkpt>
      <trkpt lat="44.16615" lon="5.10175">
        <ele>443</ele>
        <time>2015-11-20T11:30:43Z</time>
      </trkpt>
      <trkpt lat="44.16614" lon="5.1016">
        <ele>442</ele>
        <time>2015-11-20T11:32:43Z</time>
      </trkpt>
      <trkpt lat="44.16614" lon="5.10142">
        <ele>441</ele>
        <time>2015-11-20T11:34:43Z</time>
      </trkpt>
      <trkpt lat="44.16614" lon="5.10135">
        <ele>441</ele>
        <time>2015-11-20T11:36:43Z</time>
      </trkpt>
      <trkpt lat="44.16616" lon="5.10122">
        <ele>441</ele>
        <time>2015-11-20T11:38:43Z</time>
      </trkpt>
      <trkpt lat="44.16617" lon="5.10116">
        <ele>441</ele>
        <time>2015-11-20T11:40:43Z</time>
      </trkpt>
      <trkpt lat="44.1662" lon="5.10105">
        <ele>441</ele>
        <time>2015-11-20T11:42:43Z</time>
      </trkpt>
      <trkpt lat="44.16624" lon="5.10095">
        <ele>442</ele>
        <time>2015-11-20T11:44:43Z</time>
      </trkpt>
      <trkpt lat="44.16628" lon="5.10085">
        <ele>443</ele>
        <time>2015-11-20T11:46:43Z</time>
      </trkpt>
      <trkpt lat="44.16631" lon="5.10081">
        <ele>443</ele>
        <time>2015-11-20T11:48:43Z</time>
      </trkpt>
      <trkpt lat="44.16634" lon="5.10076">
        <ele>444</ele>
        <time>2015-11-20T11:50:43Z</time>
      </trkpt>
      <trkpt lat="44.16637" lon="5.10072">
        <ele>444</ele>
        <time>2015-11-20T11:52:43Z</time>
      </trkpt>
      <trkpt lat="44.16646" lon="5.10059">
        <ele>446</ele>
        <time>2015-11-20T11:54:43Z</time>
      </trkpt>
      <trkpt lat="44.16653" lon="5.10051">
        <ele>447</ele>
        <time>2015-11-20T11:56:43Z</time>
      </trkpt>
      <trkpt lat="44.16657" lon="5.10047">
        <ele>448</ele>
        <time>2015-11-20T11:58:43Z</time>
      </trkpt>
      <trkpt lat="44.16671" lon="5.1003">
        <ele>451</ele>
        <time>2015-11-20T12:00:43Z</time>
      </trkpt>
      <trkpt lat="44.16683" lon="5.10016">
        <ele>454</ele>
        <time>2015-11-20T12:02:43Z</time>
      </trkpt>
      <trkpt lat="44.16689" lon="5.10006">
        <ele>456</ele>
        <time>2015-11-20T12:04:43Z</time>
      </trkpt>
      <trkpt lat="44.16696" lon="5.09995">
        <ele>457</ele>
        <time>2015-11-20T12:06:43Z</time>
      </trkpt>
      <trkpt lat="44.16712" lon="5.09967">
        <ele>457</ele>
        <time>2015-11-20T12:08:43Z</time>
      </trkpt>
      <trkpt lat="44.16715" lon="5.09962">
        <ele>457</ele>
        <time>2015-11-20T12:10:43Z</time>
      </trkpt>
      <trkpt lat="44.16717" lon="5.09957">
        <ele>457</ele>
        <time>2015-11-20T12:12:43Z</time>
      </trkpt>
      <trkpt lat="44.16729" lon="5.09939">
        <ele>458</ele>
        <time>2015-11-20T12:14:43Z</time>
      </trkpt>
      <trkpt lat="44.16737" lon="5.09926">
        <ele>458</ele>
        <time>2015-11-20T12:16:43Z</time>
      </trkpt>
      <trkpt lat="44.16745" lon="5.09914">
        <ele>458</ele>
        <time>2015-11-20T12:18:43Z</time>
      </trkpt>
      <trkpt lat="44.16754" lon="5.09903">
        <ele>458</ele>
        <time>2015-11-20T12:20:43Z</time>
      </trkpt>
      <trkpt lat="44.16757" lon="5.09899">
        <ele>458</ele>
        <time>2015-11-20T12:22:43Z</time>
      </trkpt>
      <trkpt lat="44.1676" lon="5.09895">
        <ele>458</ele>
        <time>2015-11-20T12:24:43Z</time>
      </trkpt>
      <trkpt lat="44.16777" lon="5.09876">
        <ele>458</ele>
        <time>2015-11-20T12:26:43Z</time>
      </trkpt>
      <trkpt lat="44.16796" lon="5.09856">
        <ele>458</ele>
        <time>2015-11-20T12:28:43Z</time>
      </trkpt>
      <trkpt lat="44.168" lon="5.09851">
        <ele>457</ele>
        <time>2015-11-20T12:30:43Z</time>
      </trkpt>
      <trkpt lat="44.16823" lon="5.09827">
        <ele>455</ele>
        <time>2015-11-20T12:32:43Z</time>
      </trkpt>
      <trkpt lat="44.16831" lon="5.09817">
        <ele>454</ele>
        <time>2015-11-20T12:34:43Z</time>
      </trkpt>
      <trkpt lat="44.16839" lon="5.09807">
        <ele>453</ele>
        <time>2015-11-20T12:36:43Z</time>
      </trkpt>
      <trkpt lat="44.16844" lon="5.09801">
        <ele>453</ele>
        <time>2015-11-20T12:38:43Z</time>
      </trkpt>
      <trkpt lat="44.16846" lon="5.09798">
        <ele>452</ele>
        <time>2015-11-20T12:40:43Z</time>
      </trkpt>
      <trkpt lat="44.16853" lon="5.09787">
        <ele>451</ele>
        <time>2015-11-20T12:42:43Z</time>
      </trkpt>
      <trkpt lat="44.16856" lon="5.09784">
        <ele>451</ele>
        <time>2015-11-20T12:44:43Z</time>
      </trkpt>
      <trkpt lat="44.1687" lon="5.09761">
        <ele>447</ele>
        <time>2015-11-20T12:46:43Z</time>
      </trkpt>
      <trkpt lat="44.16877" lon="5.09749">
        <ele>445</ele>
        <time>2015-11-20T12:48:43Z</time>
      </trkpt>
      <trkpt lat="44.16882" lon="5.09739">
        <ele>444</ele>
        <time>2015-11-20T12:50:43Z</time>
      </trkpt>
      <trkpt lat="44.16885" lon="5.09734">
        <ele>443</ele>
        <time>2015-11-20T12:52:43Z</time>
      </trkpt>
      <trkpt lat="44.16889" lon="5.09727">
        <ele>442</ele>
        <time>2015-11-20T12:54:43Z</time>
      </trkpt>
      <trkpt lat="44.16893" lon="5.0972">
        <ele>441</ele>
        <time>2015-11-20T12:56:43Z</time>
      </trkpt>
      <trkpt lat="44.16902" lon="5.09708">
        <ele>439</ele>
        <time>2015-11-20T12:58:43Z</time>
      </trkpt>
      <trkpt lat="44.1691" lon="5.09696">
        <ele>437</ele>
        <time>2015-11-20T13:00:43Z</time>
      </trkpt>
      <trkpt lat="44.16918" lon="5.09686">
        <ele>436</ele>
        <time>2015-11-20T13:02:43Z</time>
      </trkpt>
      <trkpt lat="44.16927" lon="5.09677">
        <ele>436</ele>
        <time>2015-11-20T13:04:43Z</time>
      </trkpt>
      <trkpt lat="44.16936" lon="5.09668">
        <ele>435</ele>
        <time>2015-11-20T13:06:43Z</time>
      </trkpt>
      <trkpt lat="44.16949" lon="5.09657">
        <ele>436</ele>
        <time>2015-11-20T13:08:43Z</time>
      </trkpt>
      <trkpt lat="44.16976" lon="5.09634">
        <ele>436</ele>
        <time>2015-11-20T13:10:43Z</time>
      </trkpt>
      <trkpt lat="44.16981" lon="5.09631">
        <ele>436</ele>
        <time>2015-11-20T13:12:43Z</time>
      </trkpt>
      <trkpt lat="44.16985" lon="5.09627">
        <ele>436</ele>
        <time>2015-11-20T13:14:43Z</time>
      </trkpt>
      <trkpt lat="44.1699" lon="5.09623">
        <ele>436</ele>
        <time>2015-11-20T13:16:43Z</time>
      </trkpt>
      <trkpt lat="44.17009" lon="5.09604">
        <ele>434</ele>
        <time>2015-11-20T13:18:43Z</time>
      </trkpt>
      <trkpt lat="44.17019" lon="5.09594">
        <ele>433</ele>
        <time>2015-11-20T13:20:43Z</time>
      </trkpt>
      <trkpt lat="44.17039" lon="5.09571">
        <ele>431</ele>
        <time>2015-11-20T13:22:43Z</time>
      </trkpt>
      <trkpt lat="44.17048" lon="5.09562">
        <ele>430</ele>
        <time>2015-11-20T13:24:43Z</time>
      </trkpt>
      <trkpt lat="44.17053" lon="5.09558">
        <ele>430</ele>
        <time>2015-11-20T13:26:43Z</time>
      </trkpt>
      <trkpt lat="44.17058" lon="5.09554">
        <ele>430</ele>
        <time>2015-11-20T13:28:43Z</time>
      </trkpt>
      <trkpt lat="44.17068" lon="5.09549">
        <ele>431</ele>
        <time>2015-11-20T13:30:43Z</time>
      </trkpt>
      <trkpt lat="44.17073" lon="5.09546">
        <ele>431</ele>
        <time>2015-11-20T13:32:43Z</time>
      </trkpt>
      <trkpt lat="44.17082" lon="5.09543">
        <ele>431</ele>
        <time>2015-11-20T13:34:43Z</time>
      </trkpt>
      <trkpt lat="44.17092" lon="5.0954">
        <ele>432</ele>
        <time>2015-11-20T13:36:43Z</time>
      </trkpt>
      <trkpt lat="44.17102" lon="5.09538">
        <ele>433</ele>
        <time>2015-11-20T13:38:43Z</time>
      </trkpt>
      <trkpt lat="44.17118" lon="5.09537">
        <ele>436</ele>
        <time>2015-11-20T13:40:43Z</time>
      </trkpt>
      <trkpt lat="44.17139" lon="5.09536">
        <ele>440</ele>
        <time>2015-11-20T13:42:43Z</time>
      </trkpt>
      <trkpt lat="44.17145" lon="5.09536">
        <ele>441</ele>
        <time>2015-11-20T13:44:43Z</time>
      </trkpt>
      <trkpt lat="44.17174" lon="5.09536">
        <ele>446</ele>
        <time>2015-11-20T13:46:43Z</time>
      </trkpt>
      <trkpt lat="44.17186" lon="5.09535">
        <ele>447</ele>
        <time>2015-11-20T13:48:43Z</time>
      </trkpt>
      <trkpt lat="44.17199" lon="5.09534">
        <ele>447</ele>
        <time>2015-11-20T13:50:43Z</time>
      </trkpt>
      <trkpt lat="44.17221" lon="5.0953">
        <ele>448</ele>
        <time>2015-11-20T13:52:43Z</time>
      </trkpt>
      <trkpt lat="44.17237" lon="5.09526">
        <ele>448</ele>
        <time>2015-11-20T13:54:43Z</time>
      </trkpt>
      <trkpt lat="44.17244" lon="5.09524">
        <ele>448</ele>
        <time>2015-11-20T13:56:43Z</time>
      </trkpt>
      <trkpt lat="44.17248" lon="5.09522">
        <ele>447</ele>
        <time>2015-11-20T13:58:43Z</time>
      </trkpt>
      <trkpt lat="44.17258" lon="5.09519">
        <ele>448</ele>
        <time>2015-11-20T14:00:43Z</time>
      </trkpt>
      <trkpt lat="44.17269" lon="5.09514">
        <ele>447</ele>
        <time>2015-11-20T14:02:43Z</time>
      </trkpt>
      <trkpt lat="44.17282" lon="5.09507">
        <ele>447</ele>
        <time>2015-11-20T14:04:43Z</time>
      </trkpt>
      <trkpt lat="44.17297" lon="5.09499">
        <ele>446</ele>
        <time>2015-11-20T14:06:43Z</time>
      </trkpt>
      <trkpt lat="44.17309" lon="5.09491">
        <ele>446</ele>
        <time>2015-11-20T14:08:43Z</time>
      </trkpt>
      <trkpt lat="44.17321" lon="5.09484">
        <ele>446</ele>
        <time>2015-11-20T14:10:43Z</time>
      </trkpt>
      <trkpt lat="44.17325" lon="5.09481">
        <ele>446</ele>
        <time>2015-11-20T14:12:43Z</time>
      </trkpt>
      <trkpt lat="44.17336" lon="5.09475">
        <ele>446</ele>
        <time>2015-11-20T14:14:43Z</time>
      </trkpt>
      <trkpt lat="44.17349" lon="5.09469">
        <ele>447</ele>
        <time>2015-11-20T14:16:43Z</time>
      </trkpt>
      <trkpt lat="44.17362" lon="5.09465">
        <ele>447</ele>
        <time>2015-11-20T14:18:43Z</time>
      </trkpt>
      <trkpt lat="44.17371" lon="5.09462">
        <ele>448</ele>
        <time>2015-11-20T14:20:43Z</time>
      </trkpt>
      <trkpt lat="44.17374" lon="5.09462">
        <ele>448</ele>
        <time>2015-11-20T14:22:43Z</time>
      </trkpt>
      <trkpt lat="44.17399" lon="5.09455">
        <ele>450</ele>
        <time>2015-11-20T14:24:43Z</time>
      </trkpt>
      <trkpt lat="44.1741" lon="5.09452">
        <ele>450</ele>
        <time>2015-11-20T14:26:43Z</time>
      </trkpt>
      <trkpt lat="44.17417" lon="5.09449">
        <ele>451</ele>
        <time>2015-11-20T14:28:43Z</time>
      </trkpt>
      <trkpt lat="44.17428" lon="5.09444">
        <ele>451</ele>
        <time>2015-11-20T14:30:43Z</time>
      </trkpt>
      <trkpt lat="44.17434" lon="5.0944">
        <ele>451</ele>
        <time>2015-11-20T14:32:43Z</time>
      </trkpt>
      <trkpt lat="44.17443" lon="5.09436">
        <ele>452</ele>
        <time>2015-11-20T14:34:43Z</time>
      </trkpt>
      <trkpt lat="44.17457" lon="5.09429">
        <ele>452</ele>
        <time>2015-11-20T14:36:43Z</time>
      </trkpt>
      <trkpt lat="44.17476" lon="5.09417">
        <ele>452</ele>
        <time>2015-11-20T14:38:43Z</time>
      </trkpt>
      <trkpt lat="44.17483" lon="5.09412">
        <ele>452</ele>
        <time>2015-11-20T14:40:43Z</time>
      </trkpt>
      <trkpt lat="44.17498" lon="5.094">
        <ele>452</ele>
        <time>2015-11-20T14:42:43Z</time>
      </trkpt>
      <trkpt lat="44.17515" lon="5.09384">
        <ele>450</ele>
        <time>2015-11-20T14:44:43Z</time>
      </trkpt>
      <trkpt lat="44.17519" lon="5.09382">
        <ele>450</ele>
        <time>2015-11-20T14:46:43Z</time>
      </trkpt>
      <trkpt lat="44.17522" lon="5.09381">
        <ele>450</ele>
        <time>2015-11-20T14:48:43Z</time>
      </trkpt>
      <trkpt lat="44.17525" lon="5.09381">
        <ele>450</ele>
        <time>2015-11-20T14:50:43Z</time>
      </trkpt>
      <trkpt lat="44.17528" lon="5.09382">
        <ele>450</ele>
        <time>2015-11-20T14:52:43Z</time>
      </trkpt>
      <trkpt lat="44.17532" lon="5.09384">
        <ele>451</ele>
        <time>2015-11-20T14:54:43Z</time>
      </trkpt>
      <trkpt lat="44.17538" lon="5.0939">
        <ele>452</ele>
        <time>2015-11-20T14:56:43Z</time>
      </trkpt>
      <trkpt lat="44.17545" lon="5.09397">
        <ele>454</ele>
        <time>2015-11-20T14:58:43Z</time>
      </trkpt>
      <trkpt lat="44.17555" lon="5.0941">
        <ele>457</ele>
        <time>2015-11-20T15:00:43Z</time>
      </trkpt>
      <trkpt lat="44.17562" lon="5.09418">
        <ele>459</ele>
        <time>2015-11-20T15:02:43Z</time>
      </trkpt>
      <trkpt lat="44.17566" lon="5.09422">
        <ele>461</ele>
        <time>2015-11-20T15:04:43Z</time>
      </trkpt>
      <trkpt lat="44.17574" lon="5.09429">
        <ele>463</ele>
        <time>2015-11-20T15:06:43Z</time>
      </trkpt>
      <trkpt lat="44.17576" lon="5.0943">
        <ele>463</ele>
        <time>2015-11-20T15:08:43Z</time>
      </trkpt>
      <trkpt lat="44.17582" lon="5.09433">
        <ele>464</ele>
        <time>2015-11-20T15:10:43Z</time>
      </trkpt>
      <trkpt lat="44.1759" lon="5.09436">
        <ele>465</ele>
        <time>2015-11-20T15:12:43Z</time>
      </trkpt>
      <trkpt lat="44.17595" lon="5.09437">
        <ele>465</ele>
        <time>2015-11-20T15:14:43Z</time>
      </trkpt>
      <trkpt lat="44.17603" lon="5.09437">
        <ele>465</ele>
        <time>2015-11-20T15:16:43Z</time>
      </trkpt>
      <trkpt lat="44.17611" lon="5.09436">
        <ele>464</ele>
        <time>2015-11-20T15:18:43Z</time>
      </trkpt>
      <trkpt lat="44.17636" lon="5.09432">
        <ele>462</ele>
        <time>2015-11-20T15:20:43Z</time>
      </trkpt>
      <trkpt lat="44.17649" lon="5.0943">
        <ele>461</ele>
        <time>2015-11-20T15:22:43Z</time>
      </trkpt>
      <trkpt lat="44.17663" lon="5.09431">
        <ele>460</ele>
        <time>2015-11-20T15:24:43Z</time>
      </trkpt>
      <trkpt lat="44.17674" lon="5.09432">
        <ele>460</ele>
        <time>2015-11-20T15:26:43Z</time>
      </trkpt>
      <trkpt lat="44.1768" lon="5.09434">
        <ele>460</ele>
        <time>2015-11-20T15:28:43Z</time>
      </trkpt>
      <trkpt lat="44.17695" lon="5.09439">
        <ele>461</ele>
        <time>2015-11-20T15:30:43Z</time>
      </trkpt>
      <trkpt lat="44.177" lon="5.09442">
        <ele>461</ele>
        <time>2015-11-20T15:32:43Z</time>
      </trkpt>
      <trkpt lat="44.17703" lon="5.09443">
        <ele>462</ele>
        <time>2015-11-20T15:34:43Z</time>
      </trkpt>
      <trkpt lat="44.17706" lon="5.09445">
        <ele>462</ele>
        <time>2015-11-20T15:36:43Z</time>
      </trkpt>
      <trkpt lat="44.17711" lon="5.09448">
        <ele>463</ele>
        <time>2015-11-20T15:38:43Z</time>
      </trkpt>
      <trkpt lat="44.17714" lon="5.0945">
        <ele>463</ele>
        <time>2015-11-20T15:40:43Z</time>
      </trkpt>
      <trkpt lat="44.17717" lon="5.09452">
        <ele>463</ele>
        <time>2015-11-20T15:42:43Z</time>
      </trkpt>
      <trkpt lat="44.17731" lon="5.09462">
        <ele>465</ele>
        <time>2015-11-20T15:44:43Z</time>
      </trkpt>
      <trkpt lat="44.17734" lon="5.09464">
        <ele>466</ele>
        <time>2015-11-20T15:46:43Z</time>
      </trkpt>
      <trkpt lat="44.17737" lon="5.09466">
        <ele>466</ele>
        <time>2015-11-20T15:48:43Z</time>
      </trkpt>
      <trkpt lat="44.17759" lon="5.09482">
        <ele>468</ele>
        <time>2015-11-20T15:50:43Z</time>
      </trkpt>
      <trkpt lat="44.17768" lon="5.0949">
        <ele>469</ele>
        <time>2015-11-20T15:52:43Z</time>
      </trkpt>
      <trkpt lat="44.17775" lon="5.09499">
        <ele>470</ele>
        <time>2015-11-20T15:54:43Z</time>
      </trkpt>
      <trkpt lat="44.17779" lon="5.09505">
        <ele>471</ele>
        <time>2015-11-20T15:56:43Z</time>
      </trkpt>
      <trkpt lat="44.17783" lon="5.09511">
        <ele>471</ele>
        <time>2015-11-20T15:58:43Z</time>
      </trkpt>
      <trkpt lat="44.17788" lon="5.09521">
        <ele>472</ele>
        <time>2015-11-20T16:00:43Z</time>
      </trkpt>
      <trkpt lat="44.17793" lon="5.09531">
        <ele>473</ele>
        <time>2015-11-20T16:02:43Z</time>
      </trkpt>
      <trkpt lat="44.17796" lon="5.09539">
        <ele>474</ele>
        <time>2015-11-20T16:04:43Z</time>
      </trkpt>
      <trkpt lat="44.17804" lon="5.09563">
        <ele>476</ele>
        <time>2015-11-20T16:06:43Z</time>
      </trkpt>
      <trkpt lat="44.1781" lon="5.0958">
        <ele>477</ele>
        <time>2015-11-20T16:08:43Z</time>
      </trkpt>
      <trkpt lat="44.17818" lon="5.09598">
        <ele>477</ele>
        <time>2015-11-20T16:10:43Z</time>
      </trkpt>
      <trkpt lat="44.1782" lon="5.09603">
        <ele>476</ele>
        <time>2015-11-20T16:12:43Z</time>
      </trkpt>
      <trkpt lat="44.17824" lon="5.0961">
        <ele>476</ele>
        <time>2015-11-20T16:14:43Z</time>
      </trkpt>
      <trkpt lat="44.17832" lon="5.0962">
        <ele>475</ele>
        <time>2015-11-20T16:16:43Z</time>
      </trkpt>
      <trkpt lat="44.17837" lon="5.09625">
        <ele>475</ele>
        <time>2015-11-20T16:18:43Z</time>
      </trkpt>
      <trkpt lat="44.1784" lon="5.09627">
        <ele>475</ele>
        <time>2015-11-20T16:20:43Z</time>
      </trkpt>
      <trkpt lat="44.17849" lon="5.09633">
        <ele>474</ele>
        <time>2015-11-20T16:22:43Z</time>
      </trkpt>
      <trkpt lat="44.17855" lon="5.09636">
        <ele>474</ele>
        <time>2015-11-20T16:24:43Z</time>
      </trkpt>
      <trkpt lat="44.17861" lon="5.09639">
        <ele>474</ele>
        <time>2015-11-20T16:26:43Z</time>
      </trkpt>
      <trkpt lat="44.17864" lon="5.09641">
        <ele>474</ele>
        <time>2015-11-20T16:28:43Z</time>
      </trkpt>
      <trkpt lat="44.17878" lon="5.09646">
        <ele>473</ele>
        <time>2015-11-20T16:30:43Z</time>
      </trkpt>
      <trkpt lat="44.17895" lon="5.09654">
        <ele>471</ele>
        <time>2015-11-20T16:32:43Z</time>
      </trkpt>
      <trkpt lat="44.17903" lon="5.09658">
        <ele>471</ele>
        <time>2015-11-20T16:34:43Z</time>
      </trkpt>
      <trkpt lat="44.17914" lon="5.09666">
        <ele>470</ele>
        <time>2015-11-20T16:36:43Z</time>
      </trkpt>
      <trkpt lat="44.17918" lon="5.09667">
        <ele>470</ele>
        <time>2015-11-20T16:38:43Z</time>
      </trkpt>
      <trkpt lat="44.17925" lon="5.09669">
        <ele>470</ele>
        <time>2015-11-20T16:40:43Z</time>
      </trkpt>
      <trkpt lat="44.17931" lon="5.09669">
        <ele>470</ele>
        <time>2015-11-20T16:42:43Z</time>
      </trkpt>
      <trkpt lat="44.17938" lon="5.09666">
        <ele>471</ele>
        <time>2015-11-20T16:44:43Z</time>
      </trkpt>
      <trkpt lat="44.17944" lon="5.09663">
        <ele>471</ele>
        <time>2015-11-20T16:46:43Z</time>
      </trkpt>
      <trkpt lat="44.17947" lon="5.0966">
        <ele>471</ele>
        <time>2015-11-20T16:48:43Z</time>
      </trkpt>
      <trkpt lat="44.17952" lon="5.09654">
        <ele>471</ele>
        <time>2015-11-20T16:50:43Z</time>
      </trkpt>
      <trkpt lat="44.17958" lon="5.09646">
        <ele>471</ele>
        <time>2015-11-20T16:52:43Z</time>
      </trkpt>
      <trkpt lat="44.17963" lon="5.09638">
        <ele>472</ele>
        <time>2015-11-20T16:54:43Z</time>
      </trkpt>
      <trkpt lat="44.17973" lon="5.09619">
        <ele>473</ele>
        <time>2015-11-20T16:56:43Z</time>
      </trkpt>
      <trkpt lat="44.17983" lon="5.09598">
        <ele>475</ele>
        <time>2015-11-20T16:58:43Z</time>
      </trkpt>
      <trkpt lat="44.17991" lon="5.09583">
        <ele>477</ele>
        <time>2015-11-20T17:00:43Z</time>
      </trkpt>
      <trkpt lat="44.17997" lon="5.09572">
        <ele>476</ele>
        <time>2015-11-20T17:02:43Z</time>
      </trkpt>
      <trkpt lat="44.18002" lon="5.09563">
        <ele>476</ele>
        <time>2015-11-20T17:04:43Z</time>
      </trkpt>
      <trkpt lat="44.18005" lon="5.09559">
        <ele>477</ele>
        <time>2015-11-20T17:06:43Z</time>
      </trkpt>
      <trkpt lat="44.18007" lon="5.09555">
        <ele>477</ele>
        <time>2015-11-20T17:08:43Z</time>
      </trkpt>
      <trkpt lat="44.18016" lon="5.0954">
        <ele>479</ele>
        <time>2015-11-20T17:10:43Z</time>
      </trkpt>
      <trkpt lat="44.18022" lon="5.0953">
        <ele>480</ele>
        <time>2015-11-20T17:12:43Z</time>
      </trkpt>
      <trkpt lat="44.1803" lon="5.09512">
        <ele>482</ele>
        <time>2015-11-20T17:14:43Z</time>
      </trkpt>
      <trkpt lat="44.18035" lon="5.09502">
        <ele>484</ele>
        <time>2015-11-20T17:16:43Z</time>
      </trkpt>
      <trkpt lat="44.18048" lon="5.09467">
        <ele>488</ele>
        <time>2015-11-20T17:18:43Z</time>
      </trkpt>
      <trkpt lat="44.18051" lon="5.09459">
        <ele>489</ele>
        <time>2015-11-20T17:20:43Z</time>
      </trkpt>
      <trkpt lat="44.18054" lon="5.0945">
        <ele>490</ele>
        <time>2015-11-20T17:22:43Z</time>
      </trkpt>
      <trkpt lat="44.18055" lon="5.09445">
        <ele>490</ele>
        <time>2015-11-20T17:24:43Z</time>
      </trkpt>
      <trkpt lat="44.18057" lon="5.09441">
        <ele>491</ele>
        <time>2015-11-20T17:26:43Z</time>
      </trkpt>
      <trkpt lat="44.18059" lon="5.09435">
        <ele>492</ele>
        <time>2015-11-20T17:28:43Z</time>
      </trkpt>
      <trkpt lat="44.1806" lon="5.09426">
        <ele>492</ele>
        <time>2015-11-20T17:30:43Z</time>
      </trkpt>
      <trkpt lat="44.1806" lon="5.09416">
        <ele>491</ele>
        <time>2015-11-20T17:32:43Z</time>
      </trkpt>
      <trkpt lat="44.1806" lon="5.09412">
        <ele>491</ele>
        <time>2015-11-20T17:34:43Z</time>
      </trkpt>
      <trkpt lat="44.18058" lon="5.09403">
        <ele>491</ele>
        <time>2015-11-20T17:36:43Z</time>
      </trkpt>
      <trkpt lat="44.1805" lon="5.09375">
        <ele>489</ele>
        <time>2015-11-20T17:38:43Z</time>
      </trkpt>
      <trkpt lat="44.18047" lon="5.09364">
        <ele>489</ele>
        <time>2015-11-20T17:40:43Z</time>
      </trkpt>
      <trkpt lat="44.18046" lon="5.09359">
        <ele>489</ele>
        <time>2015-11-20T17:42:43Z</time>
      </trkpt>
      <trkpt lat="44.18046" lon="5.09353">
        <ele>489</ele>
        <time>2015-11-20T17:44:43Z</time>
      </trkpt>
      <trkpt lat="44.18046" lon="5.09344">
        <ele>489</ele>
        <time>2015-11-20T17:46:43Z</time>
      </trkpt>
      <trkpt lat="44.18048" lon="5.09335">
        <ele>490</ele>
        <time>2015-11-20T17:48:43Z</time>
      </trkpt>
      <trkpt lat="44.1805" lon="5.09331">
        <ele>491</ele>
        <time>2015-11-20T17:50:43Z</time>
      </trkpt>
      <trkpt lat="44.18053" lon="5.09322">
        <ele>491</ele>
        <time>2015-11-20T17:52:43Z</time>
      </trkpt>
      <trkpt lat="44.18064" lon="5.093">
        <ele>491</ele>
        <time>2015-11-20T17:54:43Z</time>
      </trkpt>
      <trkpt lat="44.18069" lon="5.0929">
        <ele>491</ele>
        <time>2015-11-20T17:56:43Z</time>
      </trkpt>
      <trkpt lat="44.18071" lon="5.09284">
        <ele>490</ele>
        <time>2015-11-20T17:58:43Z</time>
      </trkpt>
      <trkpt lat="44.18073" lon="5.09279">
        <ele>490</ele>
        <time>2015-11-20T18:00:43Z</time>
      </trkpt>
      <trkpt lat="44.18075" lon="5.09275">
        <ele>490</ele>
        <time>2015-11-20T18:02:43Z</time>
      </trkpt>
      <trkpt lat="44.18078" lon="5.09271">
        <ele>490</ele>
        <time>2015-11-20T18:04:43Z</time>
      </trkpt>
      <trkpt lat="44.18081" lon="5.09268">
        <ele>490</ele>
        <time>2015-11-20T18:06:43Z</time>
      </trkpt>
      <trkpt lat="44.18088" lon="5.09263">
        <ele>491</ele>
        <time>2015-11-20T18:08:43Z</time>
      </trkpt>
      <trkpt lat="44.18095" lon="5.09259">
        <ele>492</ele>
        <time>2015-11-20T18:10:43Z</time>
      </trkpt>
      <trkpt lat="44.18098" lon="5.09258">
        <ele>492</ele>
        <time>2015-11-20T18:12:43Z</time>
      </trkpt>
      <trkpt lat="44.18124" lon="5.09248">
        <ele>494</ele>
        <time>2015-11-20T18:14:43Z</time>
      </trkpt>
      <trkpt lat="44.18132" lon="5.09244">
        <ele>495</ele>
        <time>2015-11-20T18:16:43Z</time>
      </trkpt>
      <trkpt lat="44.18142" lon="5.09238">
        <ele>495</ele>
        <time>2015-11-20T18:18:43Z</time>
      </trkpt>
      <trkpt lat="44.18152" lon="5.09229">
        <ele>494</ele>
        <time>2015-11-20T18:20:43Z</time>
      </trkpt>
      <trkpt lat="44.18164" lon="5.09218">
        <ele>494</ele>
        <time>2015-11-20T18:22:43Z</time>
      </trkpt>
      <trkpt lat="44.18171" lon="5.09209">
        <ele>494</ele>
        <time>2015-11-20T18:24:43Z</time>
      </trkpt>
      <trkpt lat="44.18191" lon="5.09183">
        <ele>497</ele>
        <time>2015-11-20T18:26:43Z</time>
      </trkpt>
      <trkpt lat="44.18197" lon="5.09173">
        <ele>498</ele>
        <time>2015-11-20T18:28:43Z</time>
      </trkpt>
      <trkpt lat="44.18198" lon="5.0917">
        <ele>498</ele>
        <time>2015-11-20T18:30:43Z</time>
      </trkpt>
      <trkpt lat="44.18199" lon="5.09167">
        <ele>498</ele>
        <time>2015-11-20T18:32:43Z</time>
      </trkpt>
      <trkpt lat="44.18201" lon="5.0916">
        <ele>499</ele>
        <time>2015-11-20T18:34:43Z</time>
      </trkpt>
      <trkpt lat="44.18202" lon="5.09153">
        <ele>499</ele>
        <time>2015-11-20T18:36:43Z</time>
      </trkpt>
      <trkpt lat="44.18202" lon="5.09143">
        <ele>499</ele>
        <time>2015-11-20T18:38:43Z</time>
      </trkpt>
      <trkpt lat="44.18201" lon="5.09132">
        <ele>498</ele>
        <time>2015-11-20T18:40:43Z</time>
      </trkpt>
      <trkpt lat="44.182" lon="5.09128">
        <ele>498</ele>
        <time>2015-11-20T18:42:43Z</time>
      </trkpt>
      <trkpt lat="44.18198" lon="5.09117">
        <ele>496</ele>
        <time>2015-11-20T18:44:43Z</time>
      </trkpt>
      <trkpt lat="44.18195" lon="5.09105">
        <ele>494</ele>
        <time>2015-11-20T18:46:43Z</time>
      </trkpt>
      <trkpt lat="44.18194" lon="5.09101">
        <ele>494</ele>
        <time>2015-11-20T18:48:43Z</time>
      </trkpt>
      <trkpt lat="44.18191" lon="5.09089">
        <ele>491</ele>
        <time>2015-11-20T18:50:43Z</time>
      </trkpt>
      <trkpt lat="44.18189" lon="5.09084">
        <ele>490</ele>
        <time>2015-11-20T18:52:43Z</time>
      </trkpt>
      <trkpt lat="44.18186" lon="5.09072">
        <ele>488</ele>
        <time>2015-11-20T18:54:43Z</time>
      </trkpt>
      <trkpt lat="44.18184" lon="5.09058">
        <ele>487</ele>
        <time>2015-11-20T18:56:43Z</time>
      </trkpt>
      <trkpt lat="44.18182" lon="5.09048">
        <ele>486</ele>
        <time>2015-11-20T18:58:43Z</time>
      </trkpt>
      <trkpt lat="44.18181" lon="5.09039">
        <ele>485</ele>
        <time>2015-11-20T19:00:43Z</time>
      </trkpt>
      <trkpt lat="44.1818" lon="5.09031">
        <ele>484</ele>
        <time>2015-11-20T19:02:43Z</time>
      </trkpt>
      <trkpt lat="44.1818" lon="5.09018">
        <ele>484</ele>
        <time>2015-11-20T19:04:43Z</time>
      </trkpt>
      <trkpt lat="44.1818" lon="5.09006">
        <ele>484</ele>
        <time>2015-11-20T19:06:43Z</time>
      </trkpt>
      <trkpt lat="44.18181" lon="5.08986">
        <ele>485</ele>
        <time>2015-11-20T19:08:43Z</time>
      </trkpt>
      <trkpt lat="44.18184" lon="5.08966">
        <ele>487</ele>
        <time>2015-11-20T19:10:43Z</time>
      </trkpt>
      <trkpt lat="44.18185" lon="5.08962">
        <ele>487</ele>
        <time>2015-11-20T19:12:43Z</time>
      </trkpt>
      <trkpt lat="44.1819" lon="5.08925">
        <ele>490</ele>
        <time>2015-11-20T19:14:43Z</time>
      </trkpt>
      <trkpt lat="44.18191" lon="5.08915">
        <ele>491</ele>
        <time>2015-11-20T19:16:43Z</time>
      </trkpt>
      <trkpt lat="44.18192" lon="5.08905">
        <ele>492</ele>
        <time>2015-11-20T19:18:43Z</time>
      </trkpt>
      <trkpt lat="44.18194" lon="5.08897">
        <ele>494</ele>
        <time>2015-11-20T19:20:43Z</time>
      </trkpt>
      <trkpt lat="44.18194" lon="5.08892">
        <ele>494</ele>
        <time>2015-11-20T19:22:43Z</time>
      </trkpt>
      <trkpt lat="44.18198" lon="5.08868">
        <ele>497</ele>
        <time>2015-11-20T19:24:43Z</time>
      </trkpt>
      <trkpt lat="44.182" lon="5.08856">
        <ele>499</ele>
        <time>2015-11-20T19:26:43Z</time>
      </trkpt>
      <trkpt lat="44.18201" lon="5.08841">
        <ele>500</ele>
        <time>2015-11-20T19:28:43Z</time>
      </trkpt>
      <trkpt lat="44.18202" lon="5.08829">
        <ele>502</ele>
        <time>2015-11-20T19:30:43Z</time>
      </trkpt>
      <trkpt lat="44.18201" lon="5.08812">
        <ele>503</ele>
        <time>2015-11-20T19:32:43Z</time>
      </trkpt>
      <trkpt lat="44.18201" lon="5.08808">
        <ele>504</ele>
        <time>2015-11-20T19:34:43Z</time>
      </trkpt>
      <trkpt lat="44.18198" lon="5.08784">
        <ele>506</ele>
        <time>2015-11-20T19:36:43Z</time>
      </trkpt>
      <trkpt lat="44.18198" lon="5.0878">
        <ele>506</ele>
        <time>2015-11-20T19:38:43Z</time>
      </trkpt>
      <trkpt lat="44.18201" lon="5.08775">
        <ele>507</ele>
        <time>2015-11-20T19:40:43Z</time>
      </trkpt>
      <trkpt lat="44.18204" lon="5.08773">
        <ele>508</ele>
        <time>2015-11-20T19:42:43Z</time>
      </trkpt>
      <trkpt lat="44.18207" lon="5.08772">
        <ele>509</ele>
        <time>2015-11-20T19:44:43Z</time>
      </trkpt>
      <trkpt lat="44.18214" lon="5.08771">
        <ele>510</ele>
        <time>2015-11-20T19:46:43Z</time>
      </trkpt>
      <trkpt lat="44.18225" lon="5.08772">
        <ele>512</ele>
        <time>2015-11-20T19:48:43Z</time>
      </trkpt>
      <trkpt lat="44.18235" lon="5.08774">
        <ele>514</ele>
        <time>2015-11-20T19:50:43Z</time>
      </trkpt>
      <trkpt lat="44.1825" lon="5.08775">
        <ele>516</ele>
        <time>2015-11-20T19:52:43Z</time>
      </trkpt>
      <trkpt lat="44.18254" lon="5.08774">
        <ele>518</ele>
        <time>2015-11-20T19:54:43Z</time>
      </trkpt>
      <trkpt lat="44.18257" lon="5.08771">
        <ele>519</ele>
        <time>2015-11-20T19:56:43Z</time>
      </trkpt>
      <trkpt lat="44.1826" lon="5.08767">
        <ele>520</ele>
        <time>2015-11-20T19:58:43Z</time>
      </trkpt>
      <trkpt lat="44.18262" lon="5.08757">
        <ele>520</ele>
        <time>2015-11-20T20:00:43Z</time>
      </trkpt>
      <trkpt lat="44.18262" lon="5.08751">
        <ele>520</ele>
        <time>2015-11-20T20:02:43Z</time>
      </trkpt>
      <trkpt lat="44.18263" lon="5.08723">
        <ele>523</ele>
        <time>2015-11-20T20:04:43Z</time>
      </trkpt>
      <trkpt lat="44.18263" lon="5.08714">
        <ele>524</ele>
        <time>2015-11-20T20:06:43Z</time>
      </trkpt>
      <trkpt lat="44.18264" lon="5.08699">
        <ele>525</ele>
        <time>2015-11-20T20:08:43Z</time>
      </trkpt>
      <trkpt lat="44.18265" lon="5.08692">
        <ele>526</ele>
        <time>2015-11-20T20:10:43Z</time>
      </trkpt>
      <trkpt lat="44.18266" lon="5.08688">
        <ele>526</ele>
        <time>2015-11-20T20:12:43Z</time>
      </trkpt>
      <trkpt lat="44.18268" lon="5.08674">
        <ele>527</ele>
        <time>2015-11-20T20:14:43Z</time>
      </trkpt>
      <trkpt lat="44.18269" lon="5.0867">
        <ele>528</ele>
        <time>2015-11-20T20:16:43Z</time>
      </trkpt>
      <trkpt lat="44.18271" lon="5.08657">
        <ele>529</ele>
        <time>2015-11-20T20:18:43Z</time>
      </trkpt>
      <trkpt lat="44.18271" lon="5.08653">
        <ele>529</ele>
        <time>2015-11-20T20:20:43Z</time>
      </trkpt>
      <trkpt lat="44.18273" lon="5.08638">
        <ele>531</ele>
        <time>2015-11-20T20:22:43Z</time>
      </trkpt>
      <trkpt lat="44.18275" lon="5.08626">
        <ele>532</ele>
        <time>2015-11-20T20:24:43Z</time>
      </trkpt>
      <trkpt lat="44.18276" lon="5.08609">
        <ele>533</ele>
        <time>2015-11-20T20:26:43Z</time>
      </trkpt>
      <trkpt lat="44.18277" lon="5.08597">
        <ele>533</ele>
        <time>2015-11-20T20:28:43Z</time>
      </trkpt>
      <trkpt lat="44.18276" lon="5.08587">
        <ele>534</ele>
        <time>2015-11-20T20:30:43Z</time>
      </trkpt>
      <trkpt lat="44.18276" lon="5.08582">
        <ele>535</ele>
        <time>2015-11-20T20:32:43Z</time>
      </trkpt>
      <trkpt lat="44.18274" lon="5.08568">
        <ele>535</ele>
        <time>2015-11-20T20:34:43Z</time>
      </trkpt>
      <trkpt lat="44.18272" lon="5.08559">
        <ele>536</ele>
        <time>2015-11-20T20:36:43Z</time>
      </trkpt>
      <trkpt lat="44.18267" lon="5.0854">
        <ele>537</ele>
        <time>2015-11-20T20:38:43Z</time>
      </trkpt>
      <trkpt lat="44.18265" lon="5.08535">
        <ele>537</ele>
        <time>2015-11-20T20:40:43Z</time>
      </trkpt>
      <trkpt lat="44.18262" lon="5.08523">
        <ele>538</ele>
        <time>2015-11-20T20:42:43Z</time>
      </trkpt>
      <trkpt lat="44.1826" lon="5.08517">
        <ele>538</ele>
        <time>2015-11-20T20:44:43Z</time>
      </trkpt>
      <trkpt lat="44.1826" lon="5.08506">
        <ele>538</ele>
        <time>2015-11-20T20:46:43Z</time>
      </trkpt>
      <trkpt lat="44.1826" lon="5.08496">
        <ele>539</ele>
        <time>2015-11-20T20:48:43Z</time>
      </trkpt>
      <trkpt lat="44.18262" lon="5.08486">
        <ele>539</ele>
        <time>2015-11-20T20:50:43Z</time>
      </trkpt>
      <trkpt lat="44.18264" lon="5.08476">
        <ele>540</ele>
        <time>2015-11-20T20:52:43Z</time>
      </trkpt>
      <trkpt lat="44.1827" lon="5.08454">
        <ele>542</ele>
        <time>2015-11-20T20:54:43Z</time>
      </trkpt>
      <trkpt lat="44.18274" lon="5.08442">
        <ele>543</ele>
        <time>2015-11-20T20:56:43Z</time>
      </trkpt>
      <trkpt lat="44.18275" lon="5.08437">
        <ele>544</ele>
        <time>2015-11-20T20:58:43Z</time>
      </trkpt>
      <trkpt lat="44.18278" lon="5.08424">
        <ele>545</ele>
        <time>2015-11-20T21:00:43Z</time>
      </trkpt>
      <trkpt lat="44.18282" lon="5.08412">
        <ele>546</ele>
        <time>2015-11-20T21:02:43Z</time>
      </trkpt>
      <trkpt lat="44.18285" lon="5.08405">
        <ele>547</ele>
        <time>2015-11-20T21:04:43Z</time>
      </trkpt>
      <trkpt lat="44.18288" lon="5.08399">
        <ele>548</ele>
        <time>2015-11-20T21:06:43Z</time>
      </trkpt>
      <trkpt lat="44.18291" lon="5.08392">
        <ele>549</ele>
        <time>2015-11-20T21:08:43Z</time>
      </trkpt>
      <trkpt lat="44.183" lon="5.08377">
        <ele>551</ele>
        <time>2015-11-20T21:10:43Z</time>
      </trkpt>
      <trkpt lat="44.18308" lon="5.08365">
        <ele>554</ele>
        <time>2015-11-20T21:12:43Z</time>
      </trkpt>
      <trkpt lat="44.1833" lon="5.08333">
        <ele>560</ele>
        <time>2015-11-20T21:14:43Z</time>
      </trkpt>
      <trkpt lat="44.18341" lon="5.08316">
        <ele>563</ele>
        <time>2015-11-20T21:16:43Z</time>
      </trkpt>
      <trkpt lat="44.18354" lon="5.08294">
        <ele>567</ele>
        <time>2015-11-20T21:18:43Z</time>
      </trkpt>
      <trkpt lat="44.18356" lon="5.0829">
        <ele>567</ele>
        <time>2015-11-20T21:20:43Z</time>
      </trkpt>
      <trkpt lat="44.18358" lon="5.08287">
        <ele>568</ele>
        <time>2015-11-20T21:22:43Z</time>
      </trkpt>
      <trkpt lat="44.18368" lon="5.08269">
        <ele>571</ele>
        <time>2015-11-20T21:24:43Z</time>
      </trkpt>
      <trkpt lat="44.1838" lon="5.08249">
        <ele>573</ele>
        <time>2015-11-20T21:26:43Z</time>
      </trkpt>
      <trkpt lat="44.1839" lon="5.08235">
        <ele>576</ele>
        <time>2015-11-20T21:28:43Z</time>
      </trkpt>
      <trkpt lat="44.18398" lon="5.08224">
        <ele>577</ele>
        <time>2015-11-20T21:30:43Z</time>
      </trkpt>
      <trkpt lat="44.18404" lon="5.08216">
        <ele>579</ele>
        <time>2015-11-20T21:32:43Z</time>
      </trkpt>
      <trkpt lat="44.18413" lon="5.08205">
        <ele>581</ele>
        <time>2015-11-20T21:34:43Z</time>
      </trkpt>
      <trkpt lat="44.1842" lon="5.08194">
        <ele>582</ele>
        <time>2015-11-20T21:36:43Z</time>
      </trkpt>
      <trkpt lat="44.18429" lon="5.08177">
        <ele>584</ele>
        <time>2015-11-20T21:38:43Z</time>
      </trkpt>
      <trkpt lat="44.18434" lon="5.08166">
        <ele>585</ele>
        <time>2015-11-20T21:40:43Z</time>
      </trkpt>
      <trkpt lat="44.18439" lon="5.08154">
        <ele>586</ele>
        <time>2015-11-20T21:42:43Z</time>
      </trkpt>
      <trkpt lat="44.18443" lon="5.0814">
        <ele>586</ele>
        <time>2015-11-20T21:44:43Z</time>
      </trkpt>
      <trkpt lat="44.18445" lon="5.08137">
        <ele>586</ele>
        <time>2015-11-20T21:46:43Z</time>
      </trkpt>
      <trkpt lat="44.18447" lon="5.0813">
        <ele>587</ele>
        <time>2015-11-20T21:48:43Z</time>
      </trkpt>
      <trkpt lat="44.18452" lon="5.08119">
        <ele>587</ele>
        <time>2015-11-20T21:50:43Z</time>
      </trkpt>
      <trkpt lat="44.18455" lon="5.08108">
        <ele>588</ele>
        <time>2015-11-20T21:52:43Z</time>
      </trkpt>
      <trkpt lat="44.18457" lon="5.08098">
        <ele>588</ele>
        <time>2015-11-20T21:54:43Z</time>
      </trkpt>
      <trkpt lat="44.18458" lon="5.08085">
        <ele>589</ele>
        <time>2015-11-20T21:56:43Z</time>
      </trkpt>
      <trkpt lat="44.18458" lon="5.08059">
        <ele>585</ele>
        <time>2015-11-20T21:58:43Z</time>
      </trkpt>
      <trkpt lat="44.1846" lon="5.08052">
        <ele>584</ele>
        <time>2015-11-20T22:00:43Z</time>
      </trkpt>
      <trkpt lat="44.1846" lon="5.08049">
        <ele>584</ele>
        <time>2015-11-20T22:02:43Z</time>
      </trkpt>
      <trkpt lat="44.18463" lon="5.08044">
        <ele>583</ele>
        <time>2015-11-20T22:04:43Z</time>
      </trkpt>
      <trkpt lat="44.18466" lon="5.0804">
        <ele>583</ele>
        <time>2015-11-20T22:06:43Z</time>
      </trkpt>
      <trkpt lat="44.1847" lon="5.08037">
        <ele>583</ele>
        <time>2015-11-20T22:08:43Z</time>
      </trkpt>
      <trkpt lat="44.18475" lon="5.08035">
        <ele>583</ele>
        <time>2015-11-20T22:10:43Z</time>
      </trkpt>
      <trkpt lat="44.18483" lon="5.08033">
        <ele>583</ele>
        <time>2015-11-20T22:12:43Z</time>
      </trkpt>
      <trkpt lat="44.18488" lon="5.08032">
        <ele>583</ele>
        <time>2015-11-20T22:14:43Z</time>
      </trkpt>
      <trkpt lat="44.18491" lon="5.08031">
        <ele>583</ele>
        <time>2015-11-20T22:16:43Z</time>
      </trkpt>
      <trkpt lat="44.18497" lon="5.0803">
        <ele>584</ele>
        <time>2015-11-20T22:18:43Z</time>
      </trkpt>
      <trkpt lat="44.185" lon="5.0803">
        <ele>584</ele>
        <time>2015-11-20T22:20:43Z</time>
      </trkpt>
      <trkpt lat="44.18507" lon="5.08029">
        <ele>584</ele>
        <time>2015-11-20T22:22:43Z</time>
      </trkpt>
      <trkpt lat="44.18516" lon="5.08027">
        <ele>584</ele>
        <time>2015-11-20T22:24:43Z</time>
      </trkpt>
      <trkpt lat="44.18525" lon="5.08023">
        <ele>584</ele>
        <time>2015-11-20T22:26:43Z</time>
      </trkpt>
      <trkpt lat="44.18534" lon="5.08018">
        <ele>584</ele>
        <time>2015-11-20T22:28:43Z</time>
      </trkpt>
      <trkpt lat="44.18537" lon="5.08014">
        <ele>584</ele>
        <time>2015-11-20T22:30:43Z</time>
      </trkpt>
      <trkpt lat="44.18541" lon="5.0801">
        <ele>584</ele>
        <time>2015-11-20T22:32:43Z</time>
      </trkpt>
      <trkpt lat="44.18543" lon="5.08005">
        <ele>584</ele>
        <time>2015-11-20T22:34:43Z</time>
      </trkpt>
      <trkpt lat="44.18545" lon="5.08">
        <ele>584</ele>
        <time>2015-11-20T22:36:43Z</time>
      </trkpt>
      <trkpt lat="44.18547" lon="5.07995">
        <ele>584</ele>
        <time>2015-11-20T22:38:43Z</time>
      </trkpt>
      <trkpt lat="44.18548" lon="5.07989">
        <ele>583</ele>
        <time>2015-11-20T22:40:43Z</time>
      </trkpt>
      <trkpt lat="44.18549" lon="5.07977">
        <ele>582</ele>
        <time>2015-11-20T22:42:43Z</time>
      </trkpt>
      <trkpt lat="44.18549" lon="5.07964">
        <ele>581</ele>
        <time>2015-11-20T22:44:43Z</time>
      </trkpt>
      <trkpt lat="44.18549" lon="5.07961">
        <ele>581</ele>
        <time>2015-11-20T22:46:43Z</time>
      </trkpt>
      <trkpt lat="44.18549" lon="5.07951">
        <ele>580</ele>
        <time>2015-11-20T22:48:43Z</time>
      </trkpt>
      <trkpt lat="44.1855" lon="5.07937">
        <ele>579</ele>
        <time>2015-11-20T22:50:43Z</time>
      </trkpt>
      <trkpt lat="44.18551" lon="5.07927">
        <ele>579</ele>
        <time>2015-11-20T22:52:43Z</time>
      </trkpt>
      <trkpt lat="44.18552" lon="5.07923">
        <ele>579</ele>
        <time>2015-11-20T22:54:43Z</time>
      </trkpt>
      <trkpt lat="44.18558" lon="5.07896">
        <ele>580</ele>
        <time>2015-11-20T22:56:43Z</time>
      </trkpt>
      <trkpt lat="44.18564" lon="5.07865">
        <ele>582</ele>
        <time>2015-11-20T22:58:43Z</time>
      </trkpt>
      <trkpt lat="44.18568" lon="5.07838">
        <ele>583</ele>
        <time>2015-11-20T23:00:43Z</time>
      </trkpt>
      <trkpt lat="44.1857" lon="5.07813">
        <ele>585</ele>
        <time>2015-11-20T23:02:43Z</time>
      </trkpt>
      <trkpt lat="44.18572" lon="5.07794">
        <ele>587</ele>
        <time>2015-11-20T23:04:43Z</time>
      </trkpt>
      <trkpt lat="44.18572" lon="5.07789">
        <ele>588</ele>
        <time>2015-11-20T23:06:43Z</time>
      </trkpt>
      <trkpt lat="44.18572" lon="5.07785">
        <ele>588</ele>
        <time>2015-11-20T23:08:43Z</time>
      </trkpt>
      <trkpt lat="44.18573" lon="5.07773">
        <ele>589</ele>
        <time>2015-11-20T23:10:43Z</time>
      </trkpt>
      <trkpt lat="44.18576" lon="5.07753">
        <ele>591</ele>
        <time>2015-11-20T23:12:43Z</time>
      </trkpt>
      <trkpt lat="44.18582" lon="5.07729">
        <ele>593</ele>
        <time>2015-11-20T23:14:43Z</time>
      </trkpt>
      <trkpt lat="44.18587" lon="5.07704">
        <ele>594</ele>
        <time>2015-11-20T23:16:43Z</time>
      </trkpt>
      <trkpt lat="44.18588" lon="5.077">
        <ele>594</ele>
        <time>2015-11-20T23:18:43Z</time>
      </trkpt>
      <trkpt lat="44.18589" lon="5.07694">
        <ele>594</ele>
        <time>2015-11-20T23:20:43Z</time>
      </trkpt>
      <trkpt lat="44.1859" lon="5.0769">
        <ele>594</ele>
        <time>2015-11-20T23:22:43Z</time>
      </trkpt>
      <trkpt lat="44.18592" lon="5.07677">
        <ele>595</ele>
        <time>2015-11-20T23:24:43Z</time>
      </trkpt>
      <trkpt lat="44.18594" lon="5.07673">
        <ele>595</ele>
        <time>2015-11-20T23:26:43Z</time>
      </trkpt>
      <trkpt lat="44.18596" lon="5.07669">
        <ele>595</ele>
        <time>2015-11-20T23:28:43Z</time>
      </trkpt>
      <trkpt lat="44.18598" lon="5.07667">
        <ele>595</ele>
        <time>2015-11-20T23:30:43Z</time>
      </trkpt>
      <trkpt lat="44.18603" lon="5.07662">
        <ele>595</ele>
        <time>2015-11-20T23:32:43Z</time>
      </trkpt>
      <trkpt lat="44.18606" lon="5.0766">
        <ele>595</ele>
        <time>2015-11-20T23:34:43Z</time>
      </trkpt>
      <trkpt lat="44.18615" lon="5.07656">
        <ele>595</ele>
        <time>2015-11-20T23:36:43Z</time>
      </trkpt>
      <trkpt lat="44.18619" lon="5.07655">
        <ele>595</ele>
        <time>2015-11-20T23:38:43Z</time>
      </trkpt>
      <trkpt lat="44.18629" lon="5.07649">
        <ele>596</ele>
        <time>2015-11-20T23:40:43Z</time>
      </trkpt>
      <trkpt lat="44.18632" lon="5.07647">
        <ele>596</ele>
        <time>2015-11-20T23:42:43Z</time>
      </trkpt>
      <trkpt lat="44.18635" lon="5.07644">
        <ele>597</ele>
        <time>2015-11-20T23:44:43Z</time>
      </trkpt>
      <trkpt lat="44.18639" lon="5.07629">
        <ele>598</ele>
        <time>2015-11-20T23:46:43Z</time>
      </trkpt>
      <trkpt lat="44.18641" lon="5.07629">
        <ele>598</ele>
        <time>2015-11-20T23:48:43Z</time>
      </trkpt>
      <trkpt lat="44.18651" lon="5.07629">
        <ele>599</ele>
        <time>2015-11-20T23:50:43Z</time>
      </trkpt>
      <trkpt lat="44.18659" lon="5.07634">
        <ele>599</ele>
        <time>2015-11-20T23:52:43Z</time>
      </trkpt>
      <trkpt lat="44.1867" lon="5.07647">
        <ele>599</ele>
        <time>2015-11-20T23:54:43Z</time>
      </trkpt>
      <trkpt lat="44.18689" lon="5.07668">
        <ele>598</ele>
        <time>2015-11-20T23:56:43Z</time>
      </trkpt>
      <trkpt lat="44.18696" lon="5.07687">
        <ele>595</ele>
        <time>2015-11-20T23:58:43Z</time>
      </trkpt>
      <trkpt lat="44.18711" lon="5.07704">
        <ele>593</ele>
        <time>2015-11-21T00:00:43Z</time>
      </trkpt>
      <trkpt lat="44.18717" lon="5.07707">
        <ele>593</ele>
        <time>2015-11-21T00:02:43Z</time>
      </trkpt>
      <trkpt lat="44.18722" lon="5.07702">
        <ele>594</ele>
        <time>2015-11-21T00:04:43Z</time>
      </trkpt>
      <trkpt lat="44.18731" lon="5.07697">
        <ele>596</ele>
        <time>2015-11-21T00:06:43Z</time>
      </trkpt>
      <trkpt lat="44.18753" lon="5.07696">
        <ele>599</ele>
        <time>2015-11-21T00:08:43Z</time>
      </trkpt>
      <trkpt lat="44.1876" lon="5.07699">
        <ele>600</ele>
        <time>2015-11-21T00:10:43Z</time>
      </trkpt>
      <trkpt lat="44.18765" lon="5.07718">
        <ele>596</ele>
        <time>2015-11-21T00:12:43Z</time>
      </trkpt>
      <trkpt lat="44.18771" lon="5.07739">
        <ele>593</ele>
        <time>2015-11-21T00:14:43Z</time>
      </trkpt>
      <trkpt lat="44.18795" lon="5.07751">
        <ele>598</ele>
        <time>2015-11-21T00:16:43Z</time>
      </trkpt>
      <trkpt lat="44.18822" lon="5.07765">
        <ele>604</ele>
        <time>2015-11-21T00:18:43Z</time>
      </trkpt>
      <trkpt lat="44.18826" lon="5.07663">
        <ele>625</ele>
        <time>2015-11-21T00:20:43Z</time>
      </trkpt>
      <trkpt lat="44.18824" lon="5.07646">
        <ele>627</ele>
        <time>2015-11-21T00:22:43Z</time>
      </trkpt>
      <trkpt lat="44.18822" lon="5.0763">
        <ele>630</ele>
        <time>2015-11-21T00:24:43Z</time>
      </trkpt>
      <trkpt lat="44.18817" lon="5.07602">
        <ele>634</ele>
        <time>2015-11-21T00:26:43Z</time>
      </trkpt>
      <trkpt lat="44.18816" lon="5.07598">
        <ele>634</ele>
        <time>2015-11-21T00:28:43Z</time>
      </trkpt>
      <trkpt lat="44.18814" lon="5.07589">
        <ele>636</ele>
        <time>2015-11-21T00:30:43Z</time>
      </trkpt>
      <trkpt lat="44.18807" lon="5.07553">
        <ele>641</ele>
        <time>2015-11-21T00:32:43Z</time>
      </trkpt>
      <trkpt lat="44.18799" lon="5.07512">
        <ele>647</ele>
        <time>2015-11-21T00:34:43Z</time>
      </trkpt>
      <trkpt lat="44.18798" lon="5.07507">
        <ele>648</ele>
        <time>2015-11-21T00:36:43Z</time>
      </trkpt>
      <trkpt lat="44.18791" lon="5.07466">
        <ele>653</ele>
        <time>2015-11-21T00:38:43Z</time>
      </trkpt>
      <trkpt lat="44.18786" lon="5.07442">
        <ele>656</ele>
        <time>2015-11-21T00:40:43Z</time>
      </trkpt>
      <trkpt lat="44.18785" lon="5.07435">
        <ele>657</ele>
        <time>2015-11-21T00:42:43Z</time>
      </trkpt>
      <trkpt lat="44.18784" lon="5.0743">
        <ele>657</ele>
        <time>2015-11-21T00:44:43Z</time>
      </trkpt>
      <trkpt lat="44.18782" lon="5.07423">
        <ele>658</ele>
        <time>2015-11-21T00:46:43Z</time>
      </trkpt>
      <trkpt lat="44.18782" lon="5.07419">
        <ele>659</ele>
        <time>2015-11-21T00:48:43Z</time>
      </trkpt>
      <trkpt lat="44.18777" lon="5.07398">
        <ele>660</ele>
        <time>2015-11-21T00:50:43Z</time>
      </trkpt>
      <trkpt lat="44.18776" lon="5.07389">
        <ele>660</ele>
        <time>2015-11-21T00:52:43Z</time>
      </trkpt>
      <trkpt lat="44.18773" lon="5.07375">
        <ele>660</ele>
        <time>2015-11-21T00:54:43Z</time>
      </trkpt>
      <trkpt lat="44.18768" lon="5.0735">
        <ele>661</ele>
        <time>2015-11-21T00:56:43Z</time>
      </trkpt>
      <trkpt lat="44.18764" lon="5.07326">
        <ele>662</ele>
        <time>2015-11-21T00:58:43Z</time>
      </trkpt>
      <trkpt lat="44.1876" lon="5.07303">
        <ele>664</ele>
        <time>2015-11-21T01:00:43Z</time>
      </trkpt>
      <trkpt lat="44.18759" lon="5.07291">
        <ele>665</ele>
        <time>2015-11-21T01:02:43Z</time>
      </trkpt>
      <trkpt lat="44.18758" lon="5.07281">
        <ele>666</ele>
        <time>2015-11-21T01:04:43Z</time>
      </trkpt>
      <trkpt lat="44.18758" lon="5.07275">
        <ele>666</ele>
        <time>2015-11-21T01:06:43Z</time>
      </trkpt>
      <trkpt lat="44.18753" lon="5.07224">
        <ele>670</ele>
        <time>2015-11-21T01:08:43Z</time>
      </trkpt>
      <trkpt lat="44.1875" lon="5.07199">
        <ele>672</ele>
        <time>2015-11-21T01:10:43Z</time>
      </trkpt>
      <trkpt lat="44.18748" lon="5.07186">
        <ele>672</ele>
        <time>2015-11-21T01:12:43Z</time>
      </trkpt>
      <trkpt lat="44.18747" lon="5.07179">
        <ele>672</ele>
        <time>2015-11-21T01:14:43Z</time>
      </trkpt>
      <trkpt lat="44.18741" lon="5.07146">
        <ele>670</ele>
        <time>2015-11-21T01:16:43Z</time>
      </trkpt>
      <trkpt lat="44.18738" lon="5.07132">
        <ele>669</ele>
        <time>2015-11-21T01:18:43Z</time>
      </trkpt>
      <trkpt lat="44.18734" lon="5.07118">
        <ele>668</ele>
        <time>2015-11-21T01:20:43Z</time>
      </trkpt>
      <trkpt lat="44.1873" lon="5.07105">
        <ele>667</ele>
        <time>2015-11-21T01:22:43Z</time>
      </trkpt>
      <trkpt lat="44.18726" lon="5.07092">
        <ele>667</ele>
        <time>2015-11-21T01:24:43Z</time>
      </trkpt>
      <trkpt lat="44.18721" lon="5.0708">
        <ele>666</ele>
        <time>2015-11-21T01:26:43Z</time>
      </trkpt>
      <trkpt lat="44.18714" lon="5.07063">
        <ele>666</ele>
        <time>2015-11-21T01:28:43Z</time>
      </trkpt>
      <trkpt lat="44.18709" lon="5.07051">
        <ele>667</ele>
        <time>2015-11-21T01:30:43Z</time>
      </trkpt>
      <trkpt lat="44.18691" lon="5.07016">
        <ele>672</ele>
        <time>2015-11-21T01:32:43Z</time>
      </trkpt>
      <trkpt lat="44.18688" lon="5.0701">
        <ele>673</ele>
        <time>2015-11-21T01:34:43Z</time>
      </trkpt>
      <trkpt lat="44.18685" lon="5.07003">
        <ele>675</ele>
        <time>2015-11-21T01:36:43Z</time>
      </trkpt>
      <trkpt lat="44.18678" lon="5.0699">
        <ele>677</ele>
        <time>2015-11-21T01:38:43Z</time>
      </trkpt>
      <trkpt lat="44.18666" lon="5.06965">
        <ele>680</ele>
        <time>2015-11-21T01:40:43Z</time>
      </trkpt>
      <trkpt lat="44.18659" lon="5.06949">
        <ele>679</ele>
        <time>2015-11-21T01:42:43Z</time>
      </trkpt>
      <trkpt lat="44.18651" lon="5.06931">
        <ele>679</ele>
        <time>2015-11-21T01:44:43Z</time>
      </trkpt>
      <trkpt lat="44.18647" lon="5.0692">
        <ele>679</ele>
        <time>2015-11-21T01:46:43Z</time>
      </trkpt>
      <trkpt lat="44.18646" lon="5.06917">
        <ele>679</ele>
        <time>2015-11-21T01:48:43Z</time>
      </trkpt>
      <trkpt lat="44.18637" lon="5.06893">
        <ele>675</ele>
        <time>2015-11-21T01:50:43Z</time>
      </trkpt>
      <trkpt lat="44.18635" lon="5.0689">
        <ele>675</ele>
        <time>2015-11-21T01:52:43Z</time>
      </trkpt>
      <trkpt lat="44.18634" lon="5.06886">
        <ele>674</ele>
        <time>2015-11-21T01:54:43Z</time>
      </trkpt>
      <trkpt lat="44.18629" lon="5.06875">
        <ele>673</ele>
        <time>2015-11-21T01:56:43Z</time>
      </trkpt>
      <trkpt lat="44.18621" lon="5.06856">
        <ele>672</ele>
        <time>2015-11-21T01:58:43Z</time>
      </trkpt>
      <trkpt lat="44.18612" lon="5.0684">
        <ele>673</ele>
        <time>2015-11-21T02:00:43Z</time>
      </trkpt>
      <trkpt lat="44.18606" lon="5.06829">
        <ele>673</ele>
        <time>2015-11-21T02:02:43Z</time>
      </trkpt>
      <trkpt lat="44.18596" lon="5.06815">
        <ele>672</ele>
        <time>2015-11-21T02:04:43Z</time>
      </trkpt>
      <trkpt lat="44.1859" lon="5.06807">
        <ele>672</ele>
        <time>2015-11-21T02:06:43Z</time>
      </trkpt>
      <trkpt lat="44.1856" lon="5.06775">
        <ele>666</ele>
        <time>2015-11-21T02:08:43Z</time>
      </trkpt>
      <trkpt lat="44.18555" lon="5.06771">
        <ele>665</ele>
        <time>2015-11-21T02:10:43Z</time>
      </trkpt>
      <trkpt lat="44.18548" lon="5.06766">
        <ele>665</ele>
        <time>2015-11-21T02:12:43Z</time>
      </trkpt>
      <trkpt lat="44.18543" lon="5.06763">
        <ele>664</ele>
        <time>2015-11-21T02:14:43Z</time>
      </trkpt>
      <trkpt lat="44.18535" lon="5.0676">
        <ele>664</ele>
        <time>2015-11-21T02:16:43Z</time>
      </trkpt>
      <trkpt lat="44.18526" lon="5.06757">
        <ele>664</ele>
        <time>2015-11-21T02:18:43Z</time>
      </trkpt>
      <trkpt lat="44.18521" lon="5.06756">
        <ele>664</ele>
        <time>2015-11-21T02:20:43Z</time>
      </trkpt>
      <trkpt lat="44.18518" lon="5.06755">
        <ele>664</ele>
        <time>2015-11-21T02:22:43Z</time>
      </trkpt>
      <trkpt lat="44.18513" lon="5.06755">
        <ele>664</ele>
        <time>2015-11-21T02:24:43Z</time>
      </trkpt>
      <trkpt lat="44.18503" lon="5.06752">
        <ele>664</ele>
        <time>2015-11-21T02:26:43Z</time>
      </trkpt>
      <trkpt lat="44.18492" lon="5.06749">
        <ele>663</ele>
        <time>2015-11-21T02:28:43Z</time>
      </trkpt>
      <trkpt lat="44.18489" lon="5.06747">
        <ele>663</ele>
        <time>2015-11-21T02:30:43Z</time>
      </trkpt>
      <trkpt lat="44.18486" lon="5.06746">
        <ele>663</ele>
        <time>2015-11-21T02:32:43Z</time>
      </trkpt>
      <trkpt lat="44.1848" lon="5.06743">
        <ele>662</ele>
        <time>2015-11-21T02:34:43Z</time>
      </trkpt>
      <trkpt lat="44.18476" lon="5.0674">
        <ele>662</ele>
        <time>2015-11-21T02:36:43Z</time>
      </trkpt>
      <trkpt lat="44.18467" lon="5.06734">
        <ele>663</ele>
        <time>2015-11-21T02:38:43Z</time>
      </trkpt>
      <trkpt lat="44.18459" lon="5.06729">
        <ele>663</ele>
        <time>2015-11-21T02:40:43Z</time>
      </trkpt>
      <trkpt lat="44.18452" lon="5.06722">
        <ele>664</ele>
        <time>2015-11-21T02:42:43Z</time>
      </trkpt>
      <trkpt lat="44.18445" lon="5.06715">
        <ele>666</ele>
        <time>2015-11-21T02:44:43Z</time>
      </trkpt>
      <trkpt lat="44.18435" lon="5.06704">
        <ele>670</ele>
        <time>2015-11-21T02:46:43Z</time>
      </trkpt>
      <trkpt lat="44.18427" lon="5.06693">
        <ele>674</ele>
        <time>2015-11-21T02:48:43Z</time>
      </trkpt>
      <trkpt lat="44.18413" lon="5.06672">
        <ele>683</ele>
        <time>2015-11-21T02:50:43Z</time>
      </trkpt>
      <trkpt lat="44.184" lon="5.0665">
        <ele>683</ele>
        <time>2015-11-21T02:52:43Z</time>
      </trkpt>
      <trkpt lat="44.18397" lon="5.06645">
        <ele>683</ele>
        <time>2015-11-21T02:54:43Z</time>
      </trkpt>
      <trkpt lat="44.18394" lon="5.0664">
        <ele>682</ele>
        <time>2015-11-21T02:56:43Z</time>
      </trkpt>
      <trkpt lat="44.18384" lon="5.06626">
        <ele>683</ele>
        <time>2015-11-21T02:58:43Z</time>
      </trkpt>
      <trkpt lat="44.18374" lon="5.06613">
        <ele>684</ele>
        <time>2015-11-21T03:00:43Z</time>
      </trkpt>
      <trkpt lat="44.18365" lon="5.06601">
        <ele>686</ele>
        <time>2015-11-21T03:02:43Z</time>
      </trkpt>
      <trkpt lat="44.18354" lon="5.06589">
        <ele>689</ele>
        <time>2015-11-21T03:04:43Z</time>
      </trkpt>
      <trkpt lat="44.18345" lon="5.0658">
        <ele>692</ele>
        <time>2015-11-21T03:06:43Z</time>
      </trkpt>
      <trkpt lat="44.18341" lon="5.06576">
        <ele>692</ele>
        <time>2015-11-21T03:08:43Z</time>
      </trkpt>
      <trkpt lat="44.18329" lon="5.06562">
        <ele>693</ele>
        <time>2015-11-21T03:10:43Z</time>
      </trkpt>
      <trkpt lat="44.18318" lon="5.0655">
        <ele>693</ele>
        <time>2015-11-21T03:12:43Z</time>
      </trkpt>
      <trkpt lat="44.18314" lon="5.06544">
        <ele>694</ele>
        <time>2015-11-21T03:14:43Z</time>
      </trkpt>
      <trkpt lat="44.183" lon="5.06525">
        <ele>696</ele>
        <time>2015-11-21T03:16:43Z</time>
      </trkpt>
      <trkpt lat="44.18298" lon="5.06521">
        <ele>696</ele>
        <time>2015-11-21T03:18:43Z</time>
      </trkpt>
      <trkpt lat="44.18294" lon="5.06517">
        <ele>697</ele>
        <time>2015-11-21T03:20:43Z</time>
      </trkpt>
      <trkpt lat="44.18292" lon="5.06513">
        <ele>698</ele>
        <time>2015-11-21T03:22:43Z</time>
      </trkpt>
      <trkpt lat="44.1828" lon="5.06498">
        <ele>701</ele>
        <time>2015-11-21T03:24:43Z</time>
      </trkpt>
      <trkpt lat="44.18271" lon="5.06489">
        <ele>702</ele>
        <time>2015-11-21T03:26:43Z</time>
      </trkpt>
      <trkpt lat="44.18263" lon="5.0648">
        <ele>703</ele>
        <time>2015-11-21T03:28:43Z</time>
      </trkpt>
      <trkpt lat="44.18257" lon="5.06475">
        <ele>704</ele>
        <time>2015-11-21T03:30:43Z</time>
      </trkpt>
      <trkpt lat="44.18244" lon="5.06466">
        <ele>705</ele>
        <time>2015-11-21T03:32:43Z</time>
      </trkpt>
      <trkpt lat="44.18234" lon="5.0646">
        <ele>704</ele>
        <time>2015-11-21T03:34:43Z</time>
      </trkpt>
      <trkpt lat="44.18215" lon="5.06451">
        <ele>705</ele>
        <time>2015-11-21T03:36:43Z</time>
      </trkpt>
      <trkpt lat="44.18203" lon="5.06447">
        <ele>706</ele>
        <time>2015-11-21T03:38:43Z</time>
      </trkpt>
      <trkpt lat="44.182" lon="5.06446">
        <ele>706</ele>
        <time>2015-11-21T03:40:43Z</time>
      </trkpt>
      <trkpt lat="44.18197" lon="5.06444">
        <ele>706</ele>
        <time>2015-11-21T03:42:43Z</time>
      </trkpt>
      <trkpt lat="44.18193" lon="5.0644">
        <ele>707</ele>
        <time>2015-11-21T03:44:43Z</time>
      </trkpt>
      <trkpt lat="44.1819" lon="5.06435">
        <ele>707</ele>
        <time>2015-11-21T03:46:43Z</time>
      </trkpt>
      <trkpt lat="44.18187" lon="5.06426">
        <ele>707</ele>
        <time>2015-11-21T03:48:43Z</time>
      </trkpt>
      <trkpt lat="44.18183" lon="5.06416">
        <ele>708</ele>
        <time>2015-11-21T03:50:43Z</time>
      </trkpt>
      <trkpt lat="44.18179" lon="5.06406">
        <ele>706</ele>
        <time>2015-11-21T03:52:43Z</time>
      </trkpt>
      <trkpt lat="44.18174" lon="5.06397">
        <ele>705</ele>
        <time>2015-11-21T03:54:43Z</time>
      </trkpt>
      <trkpt lat="44.18171" lon="5.06392">
        <ele>705</ele>
        <time>2015-11-21T03:56:43Z</time>
      </trkpt>
      <trkpt lat="44.18167" lon="5.06388">
        <ele>705</ele>
        <time>2015-11-21T03:58:43Z</time>
      </trkpt>
      <trkpt lat="44.1816" lon="5.06381">
        <ele>703</ele>
        <time>2015-11-21T04:00:43Z</time>
      </trkpt>
      <trkpt lat="44.18151" lon="5.06377">
        <ele>702</ele>
        <time>2015-11-21T04:02:43Z</time>
      </trkpt>
      <trkpt lat="44.18147" lon="5.06375">
        <ele>702</ele>
        <time>2015-11-21T04:04:43Z</time>
      </trkpt>
      <trkpt lat="44.18143" lon="5.06374">
        <ele>702</ele>
        <time>2015-11-21T04:06:43Z</time>
      </trkpt>
      <trkpt lat="44.18127" lon="5.0637">
        <ele>701</ele>
        <time>2015-11-21T04:08:43Z</time>
      </trkpt>
      <trkpt lat="44.18112" lon="5.06365">
        <ele>701</ele>
        <time>2015-11-21T04:10:43Z</time>
      </trkpt>
      <trkpt lat="44.18103" lon="5.06361">
        <ele>702</ele>
        <time>2015-11-21T04:12:43Z</time>
      </trkpt>
      <trkpt lat="44.18098" lon="5.06357">
        <ele>702</ele>
        <time>2015-11-21T04:14:43Z</time>
      </trkpt>
      <trkpt lat="44.18096" lon="5.06355">
        <ele>703</ele>
        <time>2015-11-21T04:16:43Z</time>
      </trkpt>
      <trkpt lat="44.18093" lon="5.06352">
        <ele>703</ele>
        <time>2015-11-21T04:18:43Z</time>
      </trkpt>
      <trkpt lat="44.18089" lon="5.06347">
        <ele>705</ele>
        <time>2015-11-21T04:20:43Z</time>
      </trkpt>
      <trkpt lat="44.18086" lon="5.06341">
        <ele>706</ele>
        <time>2015-11-21T04:22:43Z</time>
      </trkpt>
      <trkpt lat="44.18083" lon="5.06334">
        <ele>708</ele>
        <time>2015-11-21T04:24:43Z</time>
      </trkpt>
      <trkpt lat="44.18081" lon="5.06327">
        <ele>708</ele>
        <time>2015-11-21T04:26:43Z</time>
      </trkpt>
      <trkpt lat="44.1808" lon="5.06323">
        <ele>708</ele>
        <time>2015-11-21T04:28:43Z</time>
      </trkpt>
      <trkpt lat="44.18078" lon="5.06316">
        <ele>708</ele>
        <time>2015-11-21T04:30:43Z</time>
      </trkpt>
      <trkpt lat="44.18072" lon="5.06282">
        <ele>711</ele>
        <time>2015-11-21T04:32:43Z</time>
      </trkpt>
      <trkpt lat="44.18068" lon="5.06269">
        <ele>713</ele>
        <time>2015-11-21T04:34:43Z</time>
      </trkpt>
      <trkpt lat="44.18065" lon="5.06255">
        <ele>715</ele>
        <time>2015-11-21T04:36:43Z</time>
      </trkpt>
      <trkpt lat="44.18052" lon="5.06222">
        <ele>713</ele>
        <time>2015-11-21T04:38:43Z</time>
      </trkpt>
      <trkpt lat="44.18043" lon="5.06198">
        <ele>713</ele>
        <time>2015-11-21T04:40:43Z</time>
      </trkpt>
      <trkpt lat="44.18036" lon="5.06183">
        <ele>714</ele>
        <time>2015-11-21T04:42:43Z</time>
      </trkpt>
      <trkpt lat="44.18024" lon="5.06156">
        <ele>715</ele>
        <time>2015-11-21T04:44:43Z</time>
      </trkpt>
      <trkpt lat="44.18003" lon="5.06111">
        <ele>716</ele>
        <time>2015-11-21T04:46:43Z</time>
      </trkpt>
      <trkpt lat="44.17993" lon="5.06095">
        <ele>715</ele>
        <time>2015-11-21T04:48:43Z</time>
      </trkpt>
      <trkpt lat="44.17984" lon="5.0608">
        <ele>714</ele>
        <time>2015-11-21T04:50:43Z</time>
      </trkpt>
      <trkpt lat="44.17978" lon="5.06072">
        <ele>713</ele>
        <time>2015-11-21T04:52:43Z</time>
      </trkpt>
      <trkpt lat="44.17969" lon="5.0606">
        <ele>712</ele>
        <time>2015-11-21T04:54:43Z</time>
      </trkpt>
      <trkpt lat="44.17959" lon="5.06049">
        <ele>711</ele>
        <time>2015-11-21T04:56:43Z</time>
      </trkpt>
      <trkpt lat="44.17949" lon="5.06039">
        <ele>710</ele>
        <time>2015-11-21T04:58:43Z</time>
      </trkpt>
      <trkpt lat="44.17931" lon="5.06022">
        <ele>709</ele>
        <time>2015-11-21T05:00:43Z</time>
      </trkpt>
      <trkpt lat="44.17924" lon="5.06016">
        <ele>709</ele>
        <time>2015-11-21T05:02:43Z</time>
      </trkpt>
      <trkpt lat="44.17912" lon="5.06004">
        <ele>705</ele>
        <time>2015-11-21T05:04:43Z</time>
      </trkpt>
      <trkpt lat="44.17896" lon="5.05986">
        <ele>690</ele>
        <time>2015-11-21T05:06:43Z</time>
      </trkpt>
      <trkpt lat="44.17894" lon="5.05982">
        <ele>688</ele>
        <time>2015-11-21T05:08:43Z</time>
      </trkpt>
      <trkpt lat="44.17894" lon="5.05978">
        <ele>686</ele>
        <time>2015-11-21T05:10:43Z</time>
      </trkpt>
      <trkpt lat="44.17896" lon="5.05974">
        <ele>686</ele>
        <time>2015-11-21T05:12:43Z</time>
      </trkpt>
      <trkpt lat="44.179" lon="5.0597">
        <ele>687</ele>
        <time>2015-11-21T05:14:43Z</time>
      </trkpt>
      <trkpt lat="44.17905" lon="5.05966">
        <ele>689</ele>
        <time>2015-11-21T05:16:43Z</time>
      </trkpt>
      <trkpt lat="44.1792" lon="5.05955">
        <ele>691</ele>
        <time>2015-11-21T05:18:43Z</time>
      </trkpt>
      <trkpt lat="44.17926" lon="5.05949">
        <ele>689</ele>
        <time>2015-11-21T05:20:43Z</time>
      </trkpt>
      <trkpt lat="44.17929" lon="5.05947">
        <ele>688</ele>
        <time>2015-11-21T05:22:43Z</time>
      </trkpt>
      <trkpt lat="44.1794" lon="5.05935">
        <ele>685</ele>
        <time>2015-11-21T05:24:43Z</time>
      </trkpt>
      <trkpt lat="44.17947" lon="5.05926">
        <ele>682</ele>
        <time>2015-11-21T05:26:43Z</time>
      </trkpt>
      <trkpt lat="44.17952" lon="5.0592">
        <ele>680</ele>
        <time>2015-11-21T05:28:43Z</time>
      </trkpt>
      <trkpt lat="44.17958" lon="5.05911">
        <ele>678</ele>
        <time>2015-11-21T05:30:43Z</time>
      </trkpt>
      <trkpt lat="44.17964" lon="5.05902">
        <ele>675</ele>
        <time>2015-11-21T05:32:43Z</time>
      </trkpt>
      <trkpt lat="44.17973" lon="5.05884">
        <ele>670</ele>
        <time>2015-11-21T05:34:43Z</time>
      </trkpt>
      <trkpt lat="44.17991" lon="5.05847">
        <ele>659</ele>
        <time>2015-11-21T05:36:43Z</time>
      </trkpt>
      <trkpt lat="44.17994" lon="5.05842">
        <ele>658</ele>
        <time>2015-11-21T05:38:43Z</time>
      </trkpt>
      <trkpt lat="44.17997" lon="5.05842">
        <ele>658</ele>
        <time>2015-11-21T05:40:43Z</time>
      </trkpt>
      <trkpt lat="44.18" lon="5.05848">
        <ele>660</ele>
        <time>2015-11-21T05:42:43Z</time>
      </trkpt>
      <trkpt lat="44.18002" lon="5.05852">
        <ele>660</ele>
        <time>2015-11-21T05:44:43Z</time>
      </trkpt>
      <trkpt lat="44.18005" lon="5.05862">
        <ele>662</ele>
        <time>2015-11-21T05:46:43Z</time>
      </trkpt>
      <trkpt lat="44.18012" lon="5.05885">
        <ele>666</ele>
        <time>2015-11-21T05:48:43Z</time>
      </trkpt>
      <trkpt lat="44.18016" lon="5.05895">
        <ele>668</ele>
        <time>2015-11-21T05:50:43Z</time>
      </trkpt>
      <trkpt lat="44.18021" lon="5.05905">
        <ele>668</ele>
        <time>2015-11-21T05:52:43Z</time>
      </trkpt>
      <trkpt lat="44.18028" lon="5.05921">
        <ele>669</ele>
        <time>2015-11-21T05:54:43Z</time>
      </trkpt>
      <trkpt lat="44.18032" lon="5.0593">
        <ele>669</ele>
        <time>2015-11-21T05:56:43Z</time>
      </trkpt>
      <trkpt lat="44.18034" lon="5.05935">
        <ele>669</ele>
        <time>2015-11-21T05:58:43Z</time>
      </trkpt>
      <trkpt lat="44.18046" lon="5.05964">
        <ele>669</ele>
        <time>2015-11-21T06:00:43Z</time>
      </trkpt>
      <trkpt lat="44.18054" lon="5.0598">
        <ele>668</ele>
        <time>2015-11-21T06:02:43Z</time>
      </trkpt>
      <trkpt lat="44.18057" lon="5.05986">
        <ele>668</ele>
        <time>2015-11-21T06:04:43Z</time>
      </trkpt>
      <trkpt lat="44.18059" lon="5.05988">
        <ele>667</ele>
        <time>2015-11-21T06:06:43Z</time>
      </trkpt>
      <trkpt lat="44.18062" lon="5.05985">
        <ele>665</ele>
        <time>2015-11-21T06:08:43Z</time>
      </trkpt>
      <trkpt lat="44.18063" lon="5.05976">
        <ele>663</ele>
        <time>2015-11-21T06:10:43Z</time>
      </trkpt>
      <trkpt lat="44.18063" lon="5.05959">
        <ele>659</ele>
        <time>2015-11-21T06:12:43Z</time>
      </trkpt>
      <trkpt lat="44.18061" lon="5.05931">
        <ele>654</ele>
        <time>2015-11-21T06:14:43Z</time>
      </trkpt>
      <trkpt lat="44.1806" lon="5.0592">
        <ele>652</ele>
        <time>2015-11-21T06:16:43Z</time>
      </trkpt>
      <trkpt lat="44.1806" lon="5.05914">
        <ele>651</ele>
        <time>2015-11-21T06:18:43Z</time>
      </trkpt>
      <trkpt lat="44.18058" lon="5.0589">
        <ele>647</ele>
        <time>2015-11-21T06:20:43Z</time>
      </trkpt>
      <trkpt lat="44.18056" lon="5.0587">
        <ele>644</ele>
        <time>2015-11-21T06:22:43Z</time>
      </trkpt>
      <trkpt lat="44.18056" lon="5.05858">
        <ele>642</ele>
        <time>2015-11-21T06:24:43Z</time>
      </trkpt>
      <trkpt lat="44.18057" lon="5.05853">
        <ele>641</ele>
        <time>2015-11-21T06:26:43Z</time>
      </trkpt>
      <trkpt lat="44.18059" lon="5.05848">
        <ele>639</ele>
        <time>2015-11-21T06:28:43Z</time>
      </trkpt>
      <trkpt lat="44.18061" lon="5.05845">
        <ele>638</ele>
        <time>2015-11-21T06:30:43Z</time>
      </trkpt>
      <trkpt lat="44.18065" lon="5.05842">
        <ele>636</ele>
        <time>2015-11-21T06:32:43Z</time>
      </trkpt>
      <trkpt lat="44.18068" lon="5.0584">
        <ele>635</ele>
        <time>2015-11-21T06:34:43Z</time>
      </trkpt>
      <trkpt lat="44.18072" lon="5.05839">
        <ele>633</ele>
        <time>2015-11-21T06:36:43Z</time>
      </trkpt>
      <trkpt lat="44.18085" lon="5.05836">
        <ele>629</ele>
        <time>2015-11-21T06:38:43Z</time>
      </trkpt>
      <trkpt lat="44.1809" lon="5.05836">
        <ele>628</ele>
        <time>2015-11-21T06:40:43Z</time>
      </trkpt>
      <trkpt lat="44.18096" lon="5.05834">
        <ele>626</ele>
        <time>2015-11-21T06:42:43Z</time>
      </trkpt>
      <trkpt lat="44.18099" lon="5.05834">
        <ele>626</ele>
        <time>2015-11-21T06:44:43Z</time>
      </trkpt>
      <trkpt lat="44.18104" lon="5.05833">
        <ele>625</ele>
        <time>2015-11-21T06:46:43Z</time>
      </trkpt>
      <trkpt lat="44.18112" lon="5.05831">
        <ele>623</ele>
        <time>2015-11-21T06:48:43Z</time>
      </trkpt>
      <trkpt lat="44.1812" lon="5.05828">
        <ele>621</ele>
        <time>2015-11-21T06:50:43Z</time>
      </trkpt>
      <trkpt lat="44.18123" lon="5.05825">
        <ele>619</ele>
        <time>2015-11-21T06:52:43Z</time>
      </trkpt>
      <trkpt lat="44.18129" lon="5.0582">
        <ele>618</ele>
        <time>2015-11-21T06:54:43Z</time>
      </trkpt>
      <trkpt lat="44.18132" lon="5.05817">
        <ele>616</ele>
        <time>2015-11-21T06:56:43Z</time>
      </trkpt>
      <trkpt lat="44.18137" lon="5.05812">
        <ele>615</ele>
        <time>2015-11-21T06:58:43Z</time>
      </trkpt>
      <trkpt lat="44.1814" lon="5.05805">
        <ele>613</ele>
        <time>2015-11-21T07:00:43Z</time>
      </trkpt>
      <trkpt lat="44.18143" lon="5.05797">
        <ele>612</ele>
        <time>2015-11-21T07:02:43Z</time>
      </trkpt>
      <trkpt lat="44.18146" lon="5.0579">
        <ele>610</ele>
        <time>2015-11-21T07:04:43Z</time>
      </trkpt>
      <trkpt lat="44.18147" lon="5.05786">
        <ele>610</ele>
        <time>2015-11-21T07:06:43Z</time>
      </trkpt>
      <trkpt lat="44.1815" lon="5.05768">
        <ele>607</ele>
        <time>2015-11-21T07:08:43Z</time>
      </trkpt>
      <trkpt lat="44.18151" lon="5.05759">
        <ele>605</ele>
        <time>2015-11-21T07:10:43Z</time>
      </trkpt>
      <trkpt lat="44.18151" lon="5.05754">
        <ele>605</ele>
        <time>2015-11-21T07:12:43Z</time>
      </trkpt>
      <trkpt lat="44.18152" lon="5.05745">
        <ele>603</ele>
        <time>2015-11-21T07:14:43Z</time>
      </trkpt>
      <trkpt lat="44.18153" lon="5.0574">
        <ele>602</ele>
        <time>2015-11-21T07:16:43Z</time>
      </trkpt>
      <trkpt lat="44.18155" lon="5.05719">
        <ele>596</ele>
        <time>2015-11-21T07:18:43Z</time>
      </trkpt>
      <trkpt lat="44.18156" lon="5.05709">
        <ele>594</ele>
        <time>2015-11-21T07:20:43Z</time>
      </trkpt>
      <trkpt lat="44.18158" lon="5.05699">
        <ele>591</ele>
        <time>2015-11-21T07:22:43Z</time>
      </trkpt>
      <trkpt lat="44.1816" lon="5.0569">
        <ele>589</ele>
        <time>2015-11-21T07:24:43Z</time>
      </trkpt>
      <trkpt lat="44.18161" lon="5.05683">
        <ele>587</ele>
        <time>2015-11-21T07:26:43Z</time>
      </trkpt>
      <trkpt lat="44.18162" lon="5.05677">
        <ele>586</ele>
        <time>2015-11-21T07:28:43Z</time>
      </trkpt>
      <trkpt lat="44.18162" lon="5.05668">
        <ele>584</ele>
        <time>2015-11-21T07:30:43Z</time>
      </trkpt>
      <trkpt lat="44.18161" lon="5.05656">
        <ele>580</ele>
        <time>2015-11-21T07:32:43Z</time>
      </trkpt>
      <trkpt lat="44.1816" lon="5.0565">
        <ele>579</ele>
        <time>2015-11-21T07:34:43Z</time>
      </trkpt>
      <trkpt lat="44.18153" lon="5.05621">
        <ele>571</ele>
        <time>2015-11-21T07:36:43Z</time>
      </trkpt>
      <trkpt lat="44.18151" lon="5.05611">
        <ele>569</ele>
        <time>2015-11-21T07:38:43Z</time>
      </trkpt>
      <trkpt lat="44.1815" lon="5.05601">
        <ele>566</ele>
        <time>2015-11-21T07:40:43Z</time>
      </trkpt>
      <trkpt lat="44.1815" lon="5.05589">
        <ele>563</ele>
        <time>2015-11-21T07:42:43Z</time>
      </trkpt>
      <trkpt lat="44.18149" lon="5.05585">
        <ele>562</ele>
        <time>2015-11-21T07:44:43Z</time>
      </trkpt>
      <trkpt lat="44.18147" lon="5.05578">
        <ele>561</ele>
        <time>2015-11-21T07:46:43Z</time>
      </trkpt>
      <trkpt lat="44.18146" lon="5.05574">
        <ele>560</ele>
        <time>2015-11-21T07:48:43Z</time>
      </trkpt>
      <trkpt lat="44.18145" lon="5.05571">
        <ele>560</ele>
        <time>2015-11-21T07:50:43Z</time>
      </trkpt>
      <trkpt lat="44.18142" lon="5.05566">
        <ele>559</ele>
        <time>2015-11-21T07:52:43Z</time>
      </trkpt>
      <trkpt lat="44.18138" lon="5.05561">
        <ele>558</ele>
        <time>2015-11-21T07:54:43Z</time>
      </trkpt>
      <trkpt lat="44.18133" lon="5.05556">
        <ele>558</ele>
        <time>2015-11-21T07:56:43Z</time>
      </trkpt>
      <trkpt lat="44.18126" lon="5.05552">
        <ele>558</ele>
        <time>2015-11-21T07:58:43Z</time>
      </trkpt>
      <trkpt lat="44.18112" lon="5.05545">
        <ele>559</ele>
        <time>2015-11-21T08:00:43Z</time>
      </trkpt>
      <trkpt lat="44.18093" lon="5.05538">
        <ele>561</ele>
        <time>2015-11-21T08:02:43Z</time>
      </trkpt>
      <trkpt lat="44.18089" lon="5.05536">
        <ele>561</ele>
        <time>2015-11-21T08:04:43Z</time>
      </trkpt>
      <trkpt lat="44.18086" lon="5.05534">
        <ele>561</ele>
        <time>2015-11-21T08:06:43Z</time>
      </trkpt>
      <trkpt lat="44.18077" lon="5.05529">
        <ele>561</ele>
        <time>2015-11-21T08:08:43Z</time>
      </trkpt>
      <trkpt lat="44.18071" lon="5.05525">
        <ele>561</ele>
        <time>2015-11-21T08:10:43Z</time>
      </trkpt>
      <trkpt lat="44.18069" lon="5.05524">
        <ele>561</ele>
        <time>2015-11-21T08:12:43Z</time>
      </trkpt>
      <trkpt lat="44.18065" lon="5.05519">
        <ele>560</ele>
        <time>2015-11-21T08:14:43Z</time>
      </trkpt>
      <trkpt lat="44.18062" lon="5.05514">
        <ele>559</ele>
        <time>2015-11-21T08:16:43Z</time>
      </trkpt>
      <trkpt lat="44.18059" lon="5.05509">
        <ele>558</ele>
        <time>2015-11-21T08:18:43Z</time>
      </trkpt>
      <trkpt lat="44.18057" lon="5.05503">
        <ele>557</ele>
        <time>2015-11-21T08:20:43Z</time>
      </trkpt>
      <trkpt lat="44.18055" lon="5.05494">
        <ele>556</ele>
        <time>2015-11-21T08:22:43Z</time>
      </trkpt>
      <trkpt lat="44.18054" lon="5.05488">
        <ele>555</ele>
        <time>2015-11-21T08:24:43Z</time>
      </trkpt>
      <trkpt lat="44.18054" lon="5.05477">
        <ele>553</ele>
        <time>2015-11-21T08:26:43Z</time>
      </trkpt>
      <trkpt lat="44.18054" lon="5.05459">
        <ele>550</ele>
        <time>2015-11-21T08:28:43Z</time>
      </trkpt>
      <trkpt lat="44.18055" lon="5.05435">
        <ele>546</ele>
        <time>2015-11-21T08:30:43Z</time>
      </trkpt>
      <trkpt lat="44.18056" lon="5.05427">
        <ele>544</ele>
        <time>2015-11-21T08:32:43Z</time>
      </trkpt>
      <trkpt lat="44.18056" lon="5.05424">
        <ele>544</ele>
        <time>2015-11-21T08:34:43Z</time>
      </trkpt>
      <trkpt lat="44.18056" lon="5.05409">
        <ele>542</ele>
        <time>2015-11-21T08:36:43Z</time>
      </trkpt>
      <trkpt lat="44.18054" lon="5.05398">
        <ele>541</ele>
        <time>2015-11-21T08:38:43Z</time>
      </trkpt>
      <trkpt lat="44.18052" lon="5.0539">
        <ele>541</ele>
        <time>2015-11-21T08:40:43Z</time>
      </trkpt>
      <trkpt lat="44.18049" lon="5.05383">
        <ele>540</ele>
        <time>2015-11-21T08:42:43Z</time>
      </trkpt>
      <trkpt lat="44.18046" lon="5.05376">
        <ele>539</ele>
        <time>2015-11-21T08:44:43Z</time>
      </trkpt>
      <trkpt lat="44.18039" lon="5.05367">
        <ele>538</ele>
        <time>2015-11-21T08:46:43Z</time>
      </trkpt>
      <trkpt lat="44.18033" lon="5.05358">
        <ele>537</ele>
        <time>2015-11-21T08:48:43Z</time>
      </trkpt>
      <trkpt lat="44.18025" lon="5.05349">
        <ele>536</ele>
        <time>2015-11-21T08:50:43Z</time>
      </trkpt>
      <trkpt lat="44.18017" lon="5.05341">
        <ele>534</ele>
        <time>2015-11-21T08:52:43Z</time>
      </trkpt>
      <trkpt lat="44.18009" lon="5.05335">
        <ele>533</ele>
        <time>2015-11-21T08:54:43Z</time>
      </trkpt>
      <trkpt lat="44.18001" lon="5.0533">
        <ele>532</ele>
        <time>2015-11-21T08:56:43Z</time>
      </trkpt>
      <trkpt lat="44.17986" lon="5.05322">
        <ele>530</ele>
        <time>2015-11-21T08:58:43Z</time>
      </trkpt>
      <trkpt lat="44.17979" lon="5.05318">
        <ele>528</ele>
        <time>2015-11-21T09:00:43Z</time>
      </trkpt>
      <trkpt lat="44.17972" lon="5.05314">
        <ele>527</ele>
        <time>2015-11-21T09:02:43Z</time>
      </trkpt>
      <trkpt lat="44.17969" lon="5.05313">
        <ele>526</ele>
        <time>2015-11-21T09:04:43Z</time>
      </trkpt>
      <trkpt lat="44.17966" lon="5.05311">
        <ele>525</ele>
        <time>2015-11-21T09:06:43Z</time>
      </trkpt>
      <trkpt lat="44.17964" lon="5.0531">
        <ele>525</ele>
        <time>2015-11-21T09:08:43Z</time>
      </trkpt>
      <trkpt lat="44.17961" lon="5.05304">
        <ele>524</ele>
        <time>2015-11-21T09:10:43Z</time>
      </trkpt>
      <trkpt lat="44.17959" lon="5.05299">
        <ele>524</ele>
        <time>2015-11-21T09:12:43Z</time>
      </trkpt>
      <trkpt lat="44.17959" lon="5.05295">
        <ele>524</ele>
        <time>2015-11-21T09:14:43Z</time>
      </trkpt>
      <trkpt lat="44.17958" lon="5.05285">
        <ele>524</ele>
        <time>2015-11-21T09:16:43Z</time>
      </trkpt>
      <trkpt lat="44.17957" lon="5.05273">
        <ele>524</ele>
        <time>2015-11-21T09:18:43Z</time>
      </trkpt>
      <trkpt lat="44.17956" lon="5.05261">
        <ele>523</ele>
        <time>2015-11-21T09:20:43Z</time>
      </trkpt>
      <trkpt lat="44.17954" lon="5.05253">
        <ele>523</ele>
        <time>2015-11-21T09:22:43Z</time>
      </trkpt>
      <trkpt lat="44.17951" lon="5.05247">
        <ele>522</ele>
        <time>2015-11-21T09:24:43Z</time>
      </trkpt>
      <trkpt lat="44.17948" lon="5.05243">
        <ele>522</ele>
        <time>2015-11-21T09:26:43Z</time>
      </trkpt>
      <trkpt lat="44.17944" lon="5.05239">
        <ele>521</ele>
        <time>2015-11-21T09:28:43Z</time>
      </trkpt>
      <trkpt lat="44.1794" lon="5.05236">
        <ele>521</ele>
        <time>2015-11-21T09:30:43Z</time>
      </trkpt>
      <trkpt lat="44.17933" lon="5.05233">
        <ele>519</ele>
        <time>2015-11-21T09:32:43Z</time>
      </trkpt>
      <trkpt lat="44.17931" lon="5.05232">
        <ele>519</ele>
        <time>2015-11-21T09:34:43Z</time>
      </trkpt>
      <trkpt lat="44.17917" lon="5.0523">
        <ele>516</ele>
        <time>2015-11-21T09:36:43Z</time>
      </trkpt>
      <trkpt lat="44.17909" lon="5.05229">
        <ele>514</ele>
        <time>2015-11-21T09:38:43Z</time>
      </trkpt>
      <trkpt lat="44.17903" lon="5.05228">
        <ele>512</ele>
        <time>2015-11-21T09:40:43Z</time>
      </trkpt>
      <trkpt lat="44.179" lon="5.05228">
        <ele>511</ele>
        <time>2015-11-21T09:42:43Z</time>
      </trkpt>
      <trkpt lat="44.17888" lon="5.05226">
        <ele>508</ele>
        <time>2015-11-21T09:44:43Z</time>
      </trkpt>
      <trkpt lat="44.17882" lon="5.05224">
        <ele>506</ele>
        <time>2015-11-21T09:46:43Z</time>
      </trkpt>
      <trkpt lat="44.17862" lon="5.05213">
        <ele>500</ele>
        <time>2015-11-21T09:48:43Z</time>
      </trkpt>
      <trkpt lat="44.17848" lon="5.05205">
        <ele>496</ele>
        <time>2015-11-21T09:50:43Z</time>
      </trkpt>
      <trkpt lat="44.17828" lon="5.05193">
        <ele>490</ele>
        <time>2015-11-21T09:52:43Z</time>
      </trkpt>
      <trkpt lat="44.17824" lon="5.05189">
        <ele>489</ele>
        <time>2015-11-21T09:54:43Z</time>
      </trkpt>
      <trkpt lat="44.17819" lon="5.05186">
        <ele>488</ele>
        <time>2015-11-21T09:56:43Z</time>
      </trkpt>
      <trkpt lat="44.17816" lon="5.05182">
        <ele>487</ele>
        <time>2015-11-21T09:58:43Z</time>
      </trkpt>
      <trkpt lat="44.1781" lon="5.05174">
        <ele>486</ele>
        <time>2015-11-21T10:00:43Z</time>
      </trkpt>
      <trkpt lat="44.17807" lon="5.05169">
        <ele>485</ele>
        <time>2015-11-21T10:02:43Z</time>
      </trkpt>
      <trkpt lat="44.17805" lon="5.05165">
        <ele>485</ele>
        <time>2015-11-21T10:04:43Z</time>
      </trkpt>
      <trkpt lat="44.17796" lon="5.05144">
        <ele>481</ele>
        <time>2015-11-21T10:06:43Z</time>
      </trkpt>
      <trkpt lat="44.17795" lon="5.05138">
        <ele>480</ele>
        <time>2015-11-21T10:08:43Z</time>
      </trkpt>
      <trkpt lat="44.17787" lon="5.05121">
        <ele>477</ele>
        <time>2015-11-21T10:10:43Z</time>
      </trkpt>
      <trkpt lat="44.17782" lon="5.05111">
        <ele>475</ele>
        <time>2015-11-21T10:12:43Z</time>
      </trkpt>
      <trkpt lat="44.1778" lon="5.05106">
        <ele>474</ele>
        <time>2015-11-21T10:14:43Z</time>
      </trkpt>
      <trkpt lat="44.17778" lon="5.05101">
        <ele>473</ele>
        <time>2015-11-21T10:16:43Z</time>
      </trkpt>
      <trkpt lat="44.17777" lon="5.05097">
        <ele>472</ele>
        <time>2015-11-21T10:18:43Z</time>
      </trkpt>
      <trkpt lat="44.17776" lon="5.05092">
        <ele>471</ele>
        <time>2015-11-21T10:20:43Z</time>
      </trkpt>
      <trkpt lat="44.17776" lon="5.05083">
        <ele>470</ele>
        <time>2015-11-21T10:22:43Z</time>
      </trkpt>
      <trkpt lat="44.17777" lon="5.05078">
        <ele>470</ele>
        <time>2015-11-21T10:24:43Z</time>
      </trkpt>
      <trkpt lat="44.17778" lon="5.05068">
        <ele>469</ele>
        <time>2015-11-21T10:26:43Z</time>
      </trkpt>
      <trkpt lat="44.1778" lon="5.05053">
        <ele>468</ele>
        <time>2015-11-21T10:28:43Z</time>
      </trkpt>
      <trkpt lat="44.17782" lon="5.05036">
        <ele>467</ele>
        <time>2015-11-21T10:30:43Z</time>
      </trkpt>
      <trkpt lat="44.17783" lon="5.05029">
        <ele>466</ele>
        <time>2015-11-21T10:32:43Z</time>
      </trkpt>
      <trkpt lat="44.17782" lon="5.05024">
        <ele>465</ele>
        <time>2015-11-21T10:34:43Z</time>
      </trkpt>
      <trkpt lat="44.1778" lon="5.05021">
        <ele>465</ele>
        <time>2015-11-21T10:36:43Z</time>
      </trkpt>
      <trkpt lat="44.17777" lon="5.05019">
        <ele>465</ele>
        <time>2015-11-21T10:38:43Z</time>
      </trkpt>
      <trkpt lat="44.17773" lon="5.05019">
        <ele>465</ele>
        <time>2015-11-21T10:40:43Z</time>
      </trkpt>
      <trkpt lat="44.17768" lon="5.0502">
        <ele>464</ele>
        <time>2015-11-21T10:42:43Z</time>
      </trkpt>
      <trkpt lat="44.1776" lon="5.05023">
        <ele>464</ele>
        <time>2015-11-21T10:44:43Z</time>
      </trkpt>
      <trkpt lat="44.17745" lon="5.05031">
        <ele>464</ele>
        <time>2015-11-21T10:46:43Z</time>
      </trkpt>
      <trkpt lat="44.17723" lon="5.05046">
        <ele>465</ele>
        <time>2015-11-21T10:48:43Z</time>
      </trkpt>
      <trkpt lat="44.17708" lon="5.05053">
        <ele>465</ele>
        <time>2015-11-21T10:50:43Z</time>
      </trkpt>
      <trkpt lat="44.17705" lon="5.05054">
        <ele>465</ele>
        <time>2015-11-21T10:52:43Z</time>
      </trkpt>
      <trkpt lat="44.17702" lon="5.05055">
        <ele>465</ele>
        <time>2015-11-21T10:54:43Z</time>
      </trkpt>
      <trkpt lat="44.17695" lon="5.05057">
        <ele>465</ele>
        <time>2015-11-21T10:56:43Z</time>
      </trkpt>
      <trkpt lat="44.17685" lon="5.0506">
        <ele>465</ele>
        <time>2015-11-21T10:58:43Z</time>
      </trkpt>
      <trkpt lat="44.17683" lon="5.0506">
        <ele>465</ele>
        <time>2015-11-21T11:00:43Z</time>
      </trkpt>
      <trkpt lat="44.17673" lon="5.05062">
        <ele>465</ele>
        <time>2015-11-21T11:02:43Z</time>
      </trkpt>
      <trkpt lat="44.17668" lon="5.05064">
        <ele>465</ele>
        <time>2015-11-21T11:04:43Z</time>
      </trkpt>
      <trkpt lat="44.17663" lon="5.05064">
        <ele>464</ele>
        <time>2015-11-21T11:06:43Z</time>
      </trkpt>
      <trkpt lat="44.1766" lon="5.05063">
        <ele>464</ele>
        <time>2015-11-21T11:08:43Z</time>
      </trkpt>
      <trkpt lat="44.17657" lon="5.05061">
        <ele>464</ele>
        <time>2015-11-21T11:10:43Z</time>
      </trkpt>
      <trkpt lat="44.17655" lon="5.05057">
        <ele>464</ele>
        <time>2015-11-21T11:12:43Z</time>
      </trkpt>
      <trkpt lat="44.17654" lon="5.05053">
        <ele>464</ele>
        <time>2015-11-21T11:14:43Z</time>
      </trkpt>
      <trkpt lat="44.17653" lon="5.05047">
        <ele>464</ele>
        <time>2015-11-21T11:16:43Z</time>
      </trkpt>
      <trkpt lat="44.17653" lon="5.05035">
        <ele>464</ele>
        <time>2015-11-21T11:18:43Z</time>
      </trkpt>
      <trkpt lat="44.17654" lon="5.05024">
        <ele>465</ele>
        <time>2015-11-21T11:20:43Z</time>
      </trkpt>
      <trkpt lat="44.17658" lon="5.04994">
        <ele>468</ele>
        <time>2015-11-21T11:22:43Z</time>
      </trkpt>
      <trkpt lat="44.1766" lon="5.04987">
        <ele>470</ele>
        <time>2015-11-21T11:24:43Z</time>
      </trkpt>
      <trkpt lat="44.1766" lon="5.04983">
        <ele>470</ele>
        <time>2015-11-21T11:26:43Z</time>
      </trkpt>
      <trkpt lat="44.17661" lon="5.04976">
        <ele>472</ele>
        <time>2015-11-21T11:28:43Z</time>
      </trkpt>
      <trkpt lat="44.1766" lon="5.04967">
        <ele>474</ele>
        <time>2015-11-21T11:30:43Z</time>
      </trkpt>
      <trkpt lat="44.17659" lon="5.04959">
        <ele>476</ele>
        <time>2015-11-21T11:32:43Z</time>
      </trkpt>
      <trkpt lat="44.17657" lon="5.04948">
        <ele>479</ele>
        <time>2015-11-21T11:34:43Z</time>
      </trkpt>
      <trkpt lat="44.17656" lon="5.04945">
        <ele>479</ele>
        <time>2015-11-21T11:36:43Z</time>
      </trkpt>
      <trkpt lat="44.17654" lon="5.04939">
        <ele>481</ele>
        <time>2015-11-21T11:38:43Z</time>
      </trkpt>
      <trkpt lat="44.17651" lon="5.04934">
        <ele>481</ele>
        <time>2015-11-21T11:40:43Z</time>
      </trkpt>
      <trkpt lat="44.17648" lon="5.04929">
        <ele>482</ele>
        <time>2015-11-21T11:42:43Z</time>
      </trkpt>
      <trkpt lat="44.17641" lon="5.04921">
        <ele>483</ele>
        <time>2015-11-21T11:44:43Z</time>
      </trkpt>
      <trkpt lat="44.17628" lon="5.04907">
        <ele>484</ele>
        <time>2015-11-21T11:46:43Z</time>
      </trkpt>
      <trkpt lat="44.17618" lon="5.04893">
        <ele>486</ele>
        <time>2015-11-21T11:48:43Z</time>
      </trkpt>
      <trkpt lat="44.17614" lon="5.04886">
        <ele>487</ele>
        <time>2015-11-21T11:50:43Z</time>
      </trkpt>
      <trkpt lat="44.17609" lon="5.04875">
        <ele>489</ele>
        <time>2015-11-21T11:52:43Z</time>
      </trkpt>
      <trkpt lat="44.17606" lon="5.04869">
        <ele>489</ele>
        <time>2015-11-21T11:54:43Z</time>
      </trkpt>
      <trkpt lat="44.17604" lon="5.04862">
        <ele>491</ele>
        <time>2015-11-21T11:56:43Z</time>
      </trkpt>
      <trkpt lat="44.17599" lon="5.04842">
        <ele>494</ele>
        <time>2015-11-21T11:58:43Z</time>
      </trkpt>
      <trkpt lat="44.17596" lon="5.04825">
        <ele>497</ele>
        <time>2015-11-21T12:00:43Z</time>
      </trkpt>
      <trkpt lat="44.17595" lon="5.04822">
        <ele>497</ele>
        <time>2015-11-21T12:02:43Z</time>
      </trkpt>
      <trkpt lat="44.17594" lon="5.04815">
        <ele>499</ele>
        <time>2015-11-21T12:04:43Z</time>
      </trkpt>
      <trkpt lat="44.17591" lon="5.04806">
        <ele>500</ele>
        <time>2015-11-21T12:06:43Z</time>
      </trkpt>
      <trkpt lat="44.17588" lon="5.04796">
        <ele>502</ele>
        <time>2015-11-21T12:08:43Z</time>
      </trkpt>
      <trkpt lat="44.17586" lon="5.0479">
        <ele>503</ele>
        <time>2015-11-21T12:10:43Z</time>
      </trkpt>
      <trkpt lat="44.17583" lon="5.04785">
        <ele>503</ele>
        <time>2015-11-21T12:12:43Z</time>
      </trkpt>
      <trkpt lat="44.17579" lon="5.04779">
        <ele>503</ele>
        <time>2015-11-21T12:14:43Z</time>
      </trkpt>
      <trkpt lat="44.17576" lon="5.04773">
        <ele>503</ele>
        <time>2015-11-21T12:16:43Z</time>
      </trkpt>
      <trkpt lat="44.17577" lon="5.04769">
        <ele>504</ele>
        <time>2015-11-21T12:18:43Z</time>
      </trkpt>
      <trkpt lat="44.17582" lon="5.04768">
        <ele>506</ele>
        <time>2015-11-21T12:20:43Z</time>
      </trkpt>
      <trkpt lat="44.17588" lon="5.04768">
        <ele>508</ele>
        <time>2015-11-21T12:22:43Z</time>
      </trkpt>
      <trkpt lat="44.17596" lon="5.04769">
        <ele>510</ele>
        <time>2015-11-21T12:24:43Z</time>
      </trkpt>
      <trkpt lat="44.17604" lon="5.04771">
        <ele>512</ele>
        <time>2015-11-21T12:26:43Z</time>
      </trkpt>
      <trkpt lat="44.17613" lon="5.04775">
        <ele>513</ele>
        <time>2015-11-21T12:28:43Z</time>
      </trkpt>
      <trkpt lat="44.1762" lon="5.04779">
        <ele>514</ele>
        <time>2015-11-21T12:30:43Z</time>
      </trkpt>
      <trkpt lat="44.17623" lon="5.04781">
        <ele>514</ele>
        <time>2015-11-21T12:32:43Z</time>
      </trkpt>
      <trkpt lat="44.17634" lon="5.04787">
        <ele>516</ele>
        <time>2015-11-21T12:34:43Z</time>
      </trkpt>
      <trkpt lat="44.17637" lon="5.04788">
        <ele>516</ele>
        <time>2015-11-21T12:36:43Z</time>
      </trkpt>
      <trkpt lat="44.17639" lon="5.0479">
        <ele>516</ele>
        <time>2015-11-21T12:38:43Z</time>
      </trkpt>
      <trkpt lat="44.1765" lon="5.04793">
        <ele>518</ele>
        <time>2015-11-21T12:40:43Z</time>
      </trkpt>
      <trkpt lat="44.17659" lon="5.04796">
        <ele>520</ele>
        <time>2015-11-21T12:42:43Z</time>
      </trkpt>
      <trkpt lat="44.17678" lon="5.04799">
        <ele>519</ele>
        <time>2015-11-21T12:44:43Z</time>
      </trkpt>
      <trkpt lat="44.17692" lon="5.04803">
        <ele>515</ele>
        <time>2015-11-21T12:46:43Z</time>
      </trkpt>
      <trkpt lat="44.17698" lon="5.04805">
        <ele>513</ele>
        <time>2015-11-21T12:48:43Z</time>
      </trkpt>
      <trkpt lat="44.17702" lon="5.04806">
        <ele>512</ele>
        <time>2015-11-21T12:50:43Z</time>
      </trkpt>
      <trkpt lat="44.17705" lon="5.04805">
        <ele>512</ele>
        <time>2015-11-21T12:52:43Z</time>
      </trkpt>
      <trkpt lat="44.17708" lon="5.04799">
        <ele>512</ele>
        <time>2015-11-21T12:54:43Z</time>
      </trkpt>
      <trkpt lat="44.17708" lon="5.04795">
        <ele>513</ele>
        <time>2015-11-21T12:56:43Z</time>
      </trkpt>
      <trkpt lat="44.17708" lon="5.04789">
        <ele>514</ele>
        <time>2015-11-21T12:58:43Z</time>
      </trkpt>
      <trkpt lat="44.17707" lon="5.04783">
        <ele>515</ele>
        <time>2015-11-21T13:00:43Z</time>
      </trkpt>
      <trkpt lat="44.17703" lon="5.04769">
        <ele>519</ele>
        <time>2015-11-21T13:02:43Z</time>
      </trkpt>
      <trkpt lat="44.177" lon="5.04761">
        <ele>521</ele>
        <time>2015-11-21T13:04:43Z</time>
      </trkpt>
      <trkpt lat="44.17694" lon="5.04746">
        <ele>526</ele>
        <time>2015-11-21T13:06:43Z</time>
      </trkpt>
      <trkpt lat="44.17688" lon="5.04732">
        <ele>529</ele>
        <time>2015-11-21T13:08:43Z</time>
      </trkpt>
      <trkpt lat="44.1768" lon="5.04717">
        <ele>534</ele>
        <time>2015-11-21T13:10:43Z</time>
      </trkpt>
      <trkpt lat="44.17675" lon="5.04707">
        <ele>538</ele>
        <time>2015-11-21T13:12:43Z</time>
      </trkpt>
      <trkpt lat="44.17672" lon="5.04701">
        <ele>540</ele>
        <time>2015-11-21T13:14:43Z</time>
      </trkpt>
      <trkpt lat="44.17671" lon="5.04697">
        <ele>541</ele>
        <time>2015-11-21T13:16:43Z</time>
      </trkpt>
      <trkpt lat="44.17669" lon="5.04691">
        <ele>543</ele>
        <time>2015-11-21T13:18:43Z</time>
      </trkpt>
      <trkpt lat="44.17659" lon="5.04656">
        <ele>548</ele>
        <time>2015-11-21T13:20:43Z</time>
      </trkpt>
      <trkpt lat="44.17655" lon="5.04643">
        <ele>548</ele>
        <time>2015-11-21T13:22:43Z</time>
      </trkpt>
      <trkpt lat="44.17649" lon="5.04631">
        <ele>549</ele>
        <time>2015-11-21T13:24:43Z</time>
      </trkpt>
      <trkpt lat="44.17646" lon="5.04625">
        <ele>549</ele>
        <time>2015-11-21T13:26:43Z</time>
      </trkpt>
      <trkpt lat="44.1763" lon="5.04601">
        <ele>551</ele>
        <time>2015-11-21T13:28:43Z</time>
      </trkpt>
      <trkpt lat="44.17621" lon="5.04586">
        <ele>553</ele>
        <time>2015-11-21T13:30:43Z</time>
      </trkpt>
      <trkpt lat="44.17616" lon="5.04576">
        <ele>554</ele>
        <time>2015-11-21T13:32:43Z</time>
      </trkpt>
      <trkpt lat="44.17614" lon="5.04572">
        <ele>555</ele>
        <time>2015-11-21T13:34:43Z</time>
      </trkpt>
      <trkpt lat="44.17612" lon="5.04568">
        <ele>556</ele>
        <time>2015-11-21T13:36:43Z</time>
      </trkpt>
      <trkpt lat="44.17607" lon="5.04556">
        <ele>558</ele>
        <time>2015-11-21T13:38:43Z</time>
      </trkpt>
      <trkpt lat="44.17597" lon="5.04529">
        <ele>563</ele>
        <time>2015-11-21T13:40:43Z</time>
      </trkpt>
      <trkpt lat="44.17591" lon="5.04517">
        <ele>566</ele>
        <time>2015-11-21T13:42:43Z</time>
      </trkpt>
      <trkpt lat="44.17587" lon="5.04507">
        <ele>568</ele>
        <time>2015-11-21T13:44:43Z</time>
      </trkpt>
      <trkpt lat="44.17576" lon="5.04486">
        <ele>569</ele>
        <time>2015-11-21T13:46:43Z</time>
      </trkpt>
      <trkpt lat="44.17569" lon="5.04474">
        <ele>569</ele>
        <time>2015-11-21T13:48:43Z</time>
      </trkpt>
      <trkpt lat="44.17555" lon="5.04452">
        <ele>569</ele>
        <time>2015-11-21T13:50:43Z</time>
      </trkpt>
      <trkpt lat="44.17549" lon="5.04441">
        <ele>569</ele>
        <time>2015-11-21T13:52:43Z</time>
      </trkpt>
      <trkpt lat="44.17545" lon="5.04434">
        <ele>570</ele>
        <time>2015-11-21T13:54:43Z</time>
      </trkpt>
      <trkpt lat="44.17535" lon="5.04418">
        <ele>572</ele>
        <time>2015-11-21T13:56:43Z</time>
      </trkpt>
      <trkpt lat="44.17512" lon="5.04379">
        <ele>573</ele>
        <time>2015-11-21T13:58:43Z</time>
      </trkpt>
      <trkpt lat="44.17507" lon="5.04372">
        <ele>575</ele>
        <time>2015-11-21T14:00:43Z</time>
      </trkpt>
      <trkpt lat="44.17505" lon="5.04369">
        <ele>575</ele>
        <time>2015-11-21T14:02:43Z</time>
      </trkpt>
      <trkpt lat="44.17496" lon="5.04354">
        <ele>577</ele>
        <time>2015-11-21T14:04:43Z</time>
      </trkpt>
      <trkpt lat="44.17493" lon="5.04349">
        <ele>576</ele>
        <time>2015-11-21T14:06:43Z</time>
      </trkpt>
      <trkpt lat="44.1749" lon="5.04344">
        <ele>576</ele>
        <time>2015-11-21T14:08:43Z</time>
      </trkpt>
      <trkpt lat="44.17488" lon="5.0434">
        <ele>576</ele>
        <time>2015-11-21T14:10:43Z</time>
      </trkpt>
      <trkpt lat="44.17487" lon="5.04335">
        <ele>576</ele>
        <time>2015-11-21T14:12:43Z</time>
      </trkpt>
      <trkpt lat="44.17485" lon="5.04325">
        <ele>574</ele>
        <time>2015-11-21T14:14:43Z</time>
      </trkpt>
      <trkpt lat="44.17483" lon="5.04313">
        <ele>572</ele>
        <time>2015-11-21T14:16:43Z</time>
      </trkpt>
      <trkpt lat="44.17479" lon="5.04295">
        <ele>569</ele>
        <time>2015-11-21T14:18:43Z</time>
      </trkpt>
      <trkpt lat="44.17476" lon="5.04284">
        <ele>567</ele>
        <time>2015-11-21T14:20:43Z</time>
      </trkpt>
      <trkpt lat="44.17472" lon="5.0427">
        <ele>565</ele>
        <time>2015-11-21T14:22:43Z</time>
      </trkpt>
      <trkpt lat="44.17468" lon="5.0426">
        <ele>564</ele>
        <time>2015-11-21T14:24:43Z</time>
      </trkpt>
      <trkpt lat="44.1746" lon="5.04239">
        <ele>563</ele>
        <time>2015-11-21T14:26:43Z</time>
      </trkpt>
      <trkpt lat="44.17448" lon="5.04213">
        <ele>564</ele>
        <time>2015-11-21T14:28:43Z</time>
      </trkpt>
      <trkpt lat="44.17446" lon="5.04209">
        <ele>564</ele>
        <time>2015-11-21T14:30:43Z</time>
      </trkpt>
      <trkpt lat="44.17434" lon="5.04182">
        <ele>567</ele>
        <time>2015-11-21T14:32:43Z</time>
      </trkpt>
      <trkpt lat="44.17429" lon="5.04171">
        <ele>569</ele>
        <time>2015-11-21T14:34:43Z</time>
      </trkpt>
      <trkpt lat="44.17416" lon="5.04135">
        <ele>569</ele>
        <time>2015-11-21T14:36:43Z</time>
      </trkpt>
      <trkpt lat="44.17414" lon="5.04131">
        <ele>568</ele>
        <time>2015-11-21T14:38:43Z</time>
      </trkpt>
      <trkpt lat="44.17409" lon="5.04117">
        <ele>564</ele>
        <time>2015-11-21T14:40:43Z</time>
      </trkpt>
      <trkpt lat="44.17403" lon="5.04105">
        <ele>562</ele>
        <time>2015-11-21T14:42:43Z</time>
      </trkpt>
      <trkpt lat="44.17402" lon="5.04101">
        <ele>561</ele>
        <time>2015-11-21T14:44:43Z</time>
      </trkpt>
      <trkpt lat="44.1739" lon="5.04073">
        <ele>557</ele>
        <time>2015-11-21T14:46:43Z</time>
      </trkpt>
      <trkpt lat="44.1738" lon="5.04048">
        <ele>556</ele>
        <time>2015-11-21T14:48:43Z</time>
      </trkpt>
      <trkpt lat="44.17373" lon="5.04034">
        <ele>556</ele>
        <time>2015-11-21T14:50:43Z</time>
      </trkpt>
      <trkpt lat="44.17367" lon="5.04019">
        <ele>558</ele>
        <time>2015-11-21T14:52:43Z</time>
      </trkpt>
      <trkpt lat="44.17364" lon="5.04012">
        <ele>558</ele>
        <time>2015-11-21T14:54:43Z</time>
      </trkpt>
      <trkpt lat="44.17357" lon="5.04001">
        <ele>561</ele>
        <time>2015-11-21T14:56:43Z</time>
      </trkpt>
      <trkpt lat="44.17354" lon="5.03996">
        <ele>561</ele>
        <time>2015-11-21T14:58:43Z</time>
      </trkpt>
      <trkpt lat="44.17347" lon="5.03988">
        <ele>563</ele>
        <time>2015-11-21T15:00:43Z</time>
      </trkpt>
      <trkpt lat="44.17339" lon="5.03982">
        <ele>565</ele>
        <time>2015-11-21T15:02:43Z</time>
      </trkpt>
      <trkpt lat="44.17335" lon="5.03979">
        <ele>566</ele>
        <time>2015-11-21T15:04:43Z</time>
      </trkpt>
      <trkpt lat="44.17326" lon="5.03974">
        <ele>565</ele>
        <time>2015-11-21T15:06:43Z</time>
      </trkpt>
      <trkpt lat="44.17324" lon="5.03972">
        <ele>565</ele>
        <time>2015-11-21T15:08:43Z</time>
      </trkpt>
      <trkpt lat="44.17312" lon="5.03965">
        <ele>563</ele>
        <time>2015-11-21T15:10:43Z</time>
      </trkpt>
      <trkpt lat="44.17302" lon="5.03958">
        <ele>562</ele>
        <time>2015-11-21T15:12:43Z</time>
      </trkpt>
      <trkpt lat="44.17292" lon="5.03949">
        <ele>562</ele>
        <time>2015-11-21T15:14:43Z</time>
      </trkpt>
      <trkpt lat="44.17283" lon="5.03941">
        <ele>562</ele>
        <time>2015-11-21T15:16:43Z</time>
      </trkpt>
      <trkpt lat="44.17275" lon="5.03932">
        <ele>562</ele>
        <time>2015-11-21T15:18:43Z</time>
      </trkpt>
      <trkpt lat="44.17264" lon="5.03917">
        <ele>564</ele>
        <time>2015-11-21T15:20:43Z</time>
      </trkpt>
      <trkpt lat="44.1725" lon="5.03896">
        <ele>561</ele>
        <time>2015-11-21T15:22:43Z</time>
      </trkpt>
      <trkpt lat="44.17242" lon="5.03885">
        <ele>558</ele>
        <time>2015-11-21T15:24:43Z</time>
      </trkpt>
      <trkpt lat="44.17238" lon="5.03879">
        <ele>556</ele>
        <time>2015-11-21T15:26:43Z</time>
      </trkpt>
      <trkpt lat="44.17231" lon="5.03871">
        <ele>555</ele>
        <time>2015-11-21T15:28:43Z</time>
      </trkpt>
      <trkpt lat="44.17224" lon="5.03864">
        <ele>553</ele>
        <time>2015-11-21T15:30:43Z</time>
      </trkpt>
      <trkpt lat="44.17221" lon="5.03861">
        <ele>552</ele>
        <time>2015-11-21T15:32:43Z</time>
      </trkpt>
      <trkpt lat="44.17215" lon="5.03856">
        <ele>552</ele>
        <time>2015-11-21T15:34:43Z</time>
      </trkpt>
      <trkpt lat="44.17207" lon="5.03853">
        <ele>551</ele>
        <time>2015-11-21T15:36:43Z</time>
      </trkpt>
      <trkpt lat="44.17204" lon="5.03852">
        <ele>551</ele>
        <time>2015-11-21T15:38:43Z</time>
      </trkpt>
      <trkpt lat="44.17196" lon="5.03851">
        <ele>550</ele>
        <time>2015-11-21T15:40:43Z</time>
      </trkpt>
      <trkpt lat="44.17193" lon="5.03851">
        <ele>550</ele>
        <time>2015-11-21T15:42:43Z</time>
      </trkpt>
      <trkpt lat="44.17184" lon="5.03853">
        <ele>549</ele>
        <time>2015-11-21T15:44:43Z</time>
      </trkpt>
      <trkpt lat="44.17177" lon="5.03856">
        <ele>549</ele>
        <time>2015-11-21T15:46:43Z</time>
      </trkpt>
      <trkpt lat="44.17175" lon="5.03857">
        <ele>549</ele>
        <time>2015-11-21T15:48:43Z</time>
      </trkpt>
      <trkpt lat="44.17171" lon="5.0386">
        <ele>548</ele>
        <time>2015-11-21T15:50:43Z</time>
      </trkpt>
      <trkpt lat="44.17168" lon="5.03864">
        <ele>548</ele>
        <time>2015-11-21T15:52:43Z</time>
      </trkpt>
      <trkpt lat="44.17165" lon="5.03869">
        <ele>546</ele>
        <time>2015-11-21T15:54:43Z</time>
      </trkpt>
      <trkpt lat="44.1716" lon="5.03879">
        <ele>543</ele>
        <time>2015-11-21T15:56:43Z</time>
      </trkpt>
      <trkpt lat="44.17153" lon="5.0389">
        <ele>539</ele>
        <time>2015-11-21T15:58:43Z</time>
      </trkpt>
      <trkpt lat="44.17149" lon="5.03894">
        <ele>537</ele>
        <time>2015-11-21T16:00:43Z</time>
      </trkpt>
      <trkpt lat="44.17146" lon="5.03896">
        <ele>536</ele>
        <time>2015-11-21T16:02:43Z</time>
      </trkpt>
      <trkpt lat="44.17142" lon="5.03896">
        <ele>534</ele>
        <time>2015-11-21T16:04:43Z</time>
      </trkpt>
      <trkpt lat="44.17139" lon="5.03894">
        <ele>533</ele>
        <time>2015-11-21T16:06:43Z</time>
      </trkpt>
      <trkpt lat="44.17136" lon="5.03891">
        <ele>532</ele>
        <time>2015-11-21T16:08:43Z</time>
      </trkpt>
      <trkpt lat="44.17134" lon="5.03886">
        <ele>532</ele>
        <time>2015-11-21T16:10:43Z</time>
      </trkpt>
      <trkpt lat="44.17131" lon="5.03881">
        <ele>531</ele>
        <time>2015-11-21T16:12:43Z</time>
      </trkpt>
      <trkpt lat="44.17126" lon="5.03867">
        <ele>531</ele>
        <time>2015-11-21T16:14:43Z</time>
      </trkpt>
      <trkpt lat="44.17117" lon="5.03838">
        <ele>532</ele>
        <time>2015-11-21T16:16:43Z</time>
      </trkpt>
      <trkpt lat="44.17113" lon="5.03826">
        <ele>532</ele>
        <time>2015-11-21T16:18:43Z</time>
      </trkpt>
      <trkpt lat="44.17109" lon="5.03816">
        <ele>532</ele>
        <time>2015-11-21T16:20:43Z</time>
      </trkpt>
      <trkpt lat="44.17098" lon="5.03792">
        <ele>532</ele>
        <time>2015-11-21T16:22:43Z</time>
      </trkpt>
      <trkpt lat="44.1709" lon="5.03776">
        <ele>532</ele>
        <time>2015-11-21T16:24:43Z</time>
      </trkpt>
      <trkpt lat="44.17067" lon="5.03732">
        <ele>529</ele>
        <time>2015-11-21T16:26:43Z</time>
      </trkpt>
      <trkpt lat="44.17064" lon="5.03726">
        <ele>528</ele>
        <time>2015-11-21T16:28:43Z</time>
      </trkpt>
      <trkpt lat="44.17061" lon="5.0372">
        <ele>527</ele>
        <time>2015-11-21T16:30:43Z</time>
      </trkpt>
      <trkpt lat="44.17058" lon="5.03715">
        <ele>526</ele>
        <time>2015-11-21T16:32:43Z</time>
      </trkpt>
      <trkpt lat="44.17055" lon="5.0371">
        <ele>525</ele>
        <time>2015-11-21T16:34:43Z</time>
      </trkpt>
      <trkpt lat="44.17052" lon="5.03707">
        <ele>524</ele>
        <time>2015-11-21T16:36:43Z</time>
      </trkpt>
      <trkpt lat="44.17045" lon="5.037">
        <ele>523</ele>
        <time>2015-11-21T16:38:43Z</time>
      </trkpt>
      <trkpt lat="44.17038" lon="5.03694">
        <ele>522</ele>
        <time>2015-11-21T16:40:43Z</time>
      </trkpt>
      <trkpt lat="44.17019" lon="5.03682">
        <ele>521</ele>
        <time>2015-11-21T16:42:43Z</time>
      </trkpt>
      <trkpt lat="44.17007" lon="5.03672">
        <ele>521</ele>
        <time>2015-11-21T16:44:43Z</time>
      </trkpt>
      <trkpt lat="44.17001" lon="5.03667">
        <ele>522</ele>
        <time>2015-11-21T16:46:43Z</time>
      </trkpt>
      <trkpt lat="44.16979" lon="5.0365">
        <ele>516</ele>
        <time>2015-11-21T16:48:43Z</time>
      </trkpt>
      <trkpt lat="44.16959" lon="5.03635">
        <ele>513</ele>
        <time>2015-11-21T16:50:43Z</time>
      </trkpt>
      <trkpt lat="44.1695" lon="5.03628">
        <ele>512</ele>
        <time>2015-11-21T16:52:43Z</time>
      </trkpt>
      <trkpt lat="44.16931" lon="5.03616">
        <ele>513</ele>
        <time>2015-11-21T16:54:43Z</time>
      </trkpt>
      <trkpt lat="44.16919" lon="5.03609">
        <ele>514</ele>
        <time>2015-11-21T16:56:43Z</time>
      </trkpt>
      <trkpt lat="44.16915" lon="5.03608">
        <ele>515</ele>
        <time>2015-11-21T16:58:43Z</time>
      </trkpt>
      <trkpt lat="44.16908" lon="5.03605">
        <ele>515</ele>
        <time>2015-11-21T17:00:43Z</time>
      </trkpt>
      <trkpt lat="44.16904" lon="5.03605">
        <ele>515</ele>
        <time>2015-11-21T17:02:43Z</time>
      </trkpt>
      <trkpt lat="44.16896" lon="5.03604">
        <ele>516</ele>
        <time>2015-11-21T17:04:43Z</time>
      </trkpt>
      <trkpt lat="44.1688" lon="5.03603">
        <ele>517</ele>
        <time>2015-11-21T17:06:43Z</time>
      </trkpt>
      <trkpt lat="44.1687" lon="5.03602">
        <ele>518</ele>
        <time>2015-11-21T17:08:43Z</time>
      </trkpt>
      <trkpt lat="44.16863" lon="5.03601">
        <ele>519</ele>
        <time>2015-11-21T17:10:43Z</time>
      </trkpt>
      <trkpt lat="44.16856" lon="5.03599">
        <ele>519</ele>
        <time>2015-11-21T17:12:43Z</time>
      </trkpt>
      <trkpt lat="44.16851" lon="5.03597">
        <ele>520</ele>
        <time>2015-11-21T17:14:43Z</time>
      </trkpt>
      <trkpt lat="44.16845" lon="5.03594">
        <ele>521</ele>
        <time>2015-11-21T17:16:43Z</time>
      </trkpt>
      <trkpt lat="44.16838" lon="5.0359">
        <ele>522</ele>
        <time>2015-11-21T17:18:43Z</time>
      </trkpt>
      <trkpt lat="44.16832" lon="5.03584">
        <ele>523</ele>
        <time>2015-11-21T17:20:43Z</time>
      </trkpt>
      <trkpt lat="44.16819" lon="5.03572">
        <ele>520</ele>
        <time>2015-11-21T17:22:43Z</time>
      </trkpt>
      <trkpt lat="44.16811" lon="5.03562">
        <ele>518</ele>
        <time>2015-11-21T17:24:43Z</time>
      </trkpt>
      <trkpt lat="44.16803" lon="5.03553">
        <ele>517</ele>
        <time>2015-11-21T17:26:43Z</time>
      </trkpt>
      <trkpt lat="44.16795" lon="5.03546">
        <ele>516</ele>
        <time>2015-11-21T17:28:43Z</time>
      </trkpt>
      <trkpt lat="44.1679" lon="5.03542">
        <ele>516</ele>
        <time>2015-11-21T17:30:43Z</time>
      </trkpt>
      <trkpt lat="44.16778" lon="5.03534">
        <ele>517</ele>
        <time>2015-11-21T17:32:43Z</time>
      </trkpt>
      <trkpt lat="44.16763" lon="5.03524">
        <ele>518</ele>
        <time>2015-11-21T17:34:43Z</time>
      </trkpt>
      <trkpt lat="44.1676" lon="5.03523">
        <ele>518</ele>
        <time>2015-11-21T17:36:43Z</time>
      </trkpt>
      <trkpt lat="44.16755" lon="5.03519">
        <ele>519</ele>
        <time>2015-11-21T17:38:43Z</time>
      </trkpt>
      <trkpt lat="44.16752" lon="5.03518">
        <ele>520</ele>
        <time>2015-11-21T17:40:43Z</time>
      </trkpt>
      <trkpt lat="44.16749" lon="5.03516">
        <ele>520</ele>
        <time>2015-11-21T17:42:43Z</time>
      </trkpt>
      <trkpt lat="44.16743" lon="5.03513">
        <ele>520</ele>
        <time>2015-11-21T17:44:43Z</time>
      </trkpt>
      <trkpt lat="44.16733" lon="5.03506">
        <ele>519</ele>
        <time>2015-11-21T17:46:43Z</time>
      </trkpt>
      <trkpt lat="44.16728" lon="5.03502">
        <ele>519</ele>
        <time>2015-11-21T17:48:43Z</time>
      </trkpt>
      <trkpt lat="44.1672" lon="5.03495">
        <ele>517</ele>
        <time>2015-11-21T17:50:43Z</time>
      </trkpt>
      <trkpt lat="44.16716" lon="5.03491">
        <ele>516</ele>
        <time>2015-11-21T17:52:43Z</time>
      </trkpt>
      <trkpt lat="44.16712" lon="5.03487">
        <ele>516</ele>
        <time>2015-11-21T17:54:43Z</time>
      </trkpt>
      <trkpt lat="44.16709" lon="5.03483">
        <ele>515</ele>
        <time>2015-11-21T17:56:43Z</time>
      </trkpt>
      <trkpt lat="44.16705" lon="5.03479">
        <ele>514</ele>
        <time>2015-11-21T17:58:43Z</time>
      </trkpt>
      <trkpt lat="44.16699" lon="5.0347">
        <ele>514</ele>
        <time>2015-11-21T18:00:43Z</time>
      </trkpt>
      <trkpt lat="44.1669" lon="5.03456">
        <ele>514</ele>
        <time>2015-11-21T18:02:43Z</time>
      </trkpt>
      <trkpt lat="44.16685" lon="5.03447">
        <ele>514</ele>
        <time>2015-11-21T18:04:43Z</time>
      </trkpt>
      <trkpt lat="44.16672" lon="5.03421">
        <ele>517</ele>
        <time>2015-11-21T18:06:43Z</time>
      </trkpt>
      <trkpt lat="44.16667" lon="5.0341">
        <ele>518</ele>
        <time>2015-11-21T18:08:43Z</time>
      </trkpt>
      <trkpt lat="44.16662" lon="5.03399">
        <ele>515</ele>
        <time>2015-11-21T18:10:43Z</time>
      </trkpt>
      <trkpt lat="44.1665" lon="5.03376">
        <ele>511</ele>
        <time>2015-11-21T18:12:43Z</time>
      </trkpt>
      <trkpt lat="44.16644" lon="5.03364">
        <ele>509</ele>
        <time>2015-11-21T18:14:43Z</time>
      </trkpt>
      <trkpt lat="44.16637" lon="5.03353">
        <ele>508</ele>
        <time>2015-11-21T18:16:43Z</time>
      </trkpt>
      <trkpt lat="44.16631" lon="5.03342">
        <ele>507</ele>
        <time>2015-11-21T18:18:43Z</time>
      </trkpt>
      <trkpt lat="44.16624" lon="5.03327">
        <ele>507</ele>
        <time>2015-11-21T18:20:43Z</time>
      </trkpt>
      <trkpt lat="44.16619" lon="5.03317">
        <ele>507</ele>
        <time>2015-11-21T18:22:43Z</time>
      </trkpt>
      <trkpt lat="44.16614" lon="5.03302">
        <ele>506</ele>
        <time>2015-11-21T18:24:43Z</time>
      </trkpt>
      <trkpt lat="44.16607" lon="5.03277">
        <ele>506</ele>
        <time>2015-11-21T18:26:43Z</time>
      </trkpt>
      <trkpt lat="44.16602" lon="5.03256">
        <ele>507</ele>
        <time>2015-11-21T18:28:43Z</time>
      </trkpt>
      <trkpt lat="44.166" lon="5.03251">
        <ele>507</ele>
        <time>2015-11-21T18:30:43Z</time>
      </trkpt>
      <trkpt lat="44.16595" lon="5.03229">
        <ele>508</ele>
        <time>2015-11-21T18:32:43Z</time>
      </trkpt>
      <trkpt lat="44.16588" lon="5.03206">
        <ele>511</ele>
        <time>2015-11-21T18:34:43Z</time>
      </trkpt>
      <trkpt lat="44.16571" lon="5.03154">
        <ele>508</ele>
        <time>2015-11-21T18:36:43Z</time>
      </trkpt>
      <trkpt lat="44.16566" lon="5.0314">
        <ele>506</ele>
        <time>2015-11-21T18:38:43Z</time>
      </trkpt>
      <trkpt lat="44.16562" lon="5.03131">
        <ele>505</ele>
        <time>2015-11-21T18:40:43Z</time>
      </trkpt>
      <trkpt lat="44.16558" lon="5.03121">
        <ele>503</ele>
        <time>2015-11-21T18:42:43Z</time>
      </trkpt>
      <trkpt lat="44.16543" lon="5.03093">
        <ele>499</ele>
        <time>2015-11-21T18:44:43Z</time>
      </trkpt>
      <trkpt lat="44.16534" lon="5.03075">
        <ele>498</ele>
        <time>2015-11-21T18:46:43Z</time>
      </trkpt>
      <trkpt lat="44.16527" lon="5.03057">
        <ele>499</ele>
        <time>2015-11-21T18:48:43Z</time>
      </trkpt>
      <trkpt lat="44.16518" lon="5.0303">
        <ele>500</ele>
        <time>2015-11-21T18:50:43Z</time>
      </trkpt>
      <trkpt lat="44.16517" lon="5.03026">
        <ele>501</ele>
        <time>2015-11-21T18:52:43Z</time>
      </trkpt>
      <trkpt lat="44.16513" lon="5.03016">
        <ele>502</ele>
        <time>2015-11-21T18:54:43Z</time>
      </trkpt>
      <trkpt lat="44.16512" lon="5.03012">
        <ele>502</ele>
        <time>2015-11-21T18:56:43Z</time>
      </trkpt>
      <trkpt lat="44.16509" lon="5.03005">
        <ele>503</ele>
        <time>2015-11-21T18:58:43Z</time>
      </trkpt>
      <trkpt lat="44.16505" lon="5.02994">
        <ele>504</ele>
        <time>2015-11-21T19:00:43Z</time>
      </trkpt>
      <trkpt lat="44.16498" lon="5.02979">
        <ele>506</ele>
        <time>2015-11-21T19:02:43Z</time>
      </trkpt>
      <trkpt lat="44.16495" lon="5.02975">
        <ele>505</ele>
        <time>2015-11-21T19:04:43Z</time>
      </trkpt>
      <trkpt lat="44.16493" lon="5.02971">
        <ele>504</ele>
        <time>2015-11-21T19:06:43Z</time>
      </trkpt>
      <trkpt lat="44.16487" lon="5.02963">
        <ele>503</ele>
        <time>2015-11-21T19:08:43Z</time>
      </trkpt>
      <trkpt lat="44.16482" lon="5.02956">
        <ele>501</ele>
        <time>2015-11-21T19:10:43Z</time>
      </trkpt>
      <trkpt lat="44.16474" lon="5.02946">
        <ele>500</ele>
        <time>2015-11-21T19:12:43Z</time>
      </trkpt>
      <trkpt lat="44.16462" lon="5.02935">
        <ele>496</ele>
        <time>2015-11-21T19:14:43Z</time>
      </trkpt>
      <trkpt lat="44.16456" lon="5.02929">
        <ele>495</ele>
        <time>2015-11-21T19:16:43Z</time>
      </trkpt>
      <trkpt lat="44.16452" lon="5.02927">
        <ele>494</ele>
        <time>2015-11-21T19:18:43Z</time>
      </trkpt>
      <trkpt lat="44.16446" lon="5.02921">
        <ele>493</ele>
        <time>2015-11-21T19:20:43Z</time>
      </trkpt>
      <trkpt lat="44.16442" lon="5.02918">
        <ele>492</ele>
        <time>2015-11-21T19:22:43Z</time>
      </trkpt>
      <trkpt lat="44.16428" lon="5.02906">
        <ele>487</ele>
        <time>2015-11-21T19:24:43Z</time>
      </trkpt>
      <trkpt lat="44.16414" lon="5.02892">
        <ele>482</ele>
        <time>2015-11-21T19:26:43Z</time>
      </trkpt>
      <trkpt lat="44.1641" lon="5.02887">
        <ele>481</ele>
        <time>2015-11-21T19:28:43Z</time>
      </trkpt>
      <trkpt lat="44.16407" lon="5.02883">
        <ele>480</ele>
        <time>2015-11-21T19:30:43Z</time>
      </trkpt>
      <trkpt lat="44.16404" lon="5.02878">
        <ele>479</ele>
        <time>2015-11-21T19:32:43Z</time>
      </trkpt>
      <trkpt lat="44.16402" lon="5.02873">
        <ele>478</ele>
        <time>2015-11-21T19:34:43Z</time>
      </trkpt>
      <trkpt lat="44.16401" lon="5.02867">
        <ele>478</ele>
        <time>2015-11-21T19:36:43Z</time>
      </trkpt>
      <trkpt lat="44.164" lon="5.02862">
        <ele>478</ele>
        <time>2015-11-21T19:38:43Z</time>
      </trkpt>
      <trkpt lat="44.16399" lon="5.02856">
        <ele>478</ele>
        <time>2015-11-21T19:40:43Z</time>
      </trkpt>
      <trkpt lat="44.16398" lon="5.02845">
        <ele>478</ele>
        <time>2015-11-21T19:42:43Z</time>
      </trkpt>
      <trkpt lat="44.16398" lon="5.02829">
        <ele>479</ele>
        <time>2015-11-21T19:44:43Z</time>
      </trkpt>
      <trkpt lat="44.16397" lon="5.02816">
        <ele>480</ele>
        <time>2015-11-21T19:46:43Z</time>
      </trkpt>
      <trkpt lat="44.16396" lon="5.02806">
        <ele>481</ele>
        <time>2015-11-21T19:48:43Z</time>
      </trkpt>
      <trkpt lat="44.16393" lon="5.02794">
        <ele>480</ele>
        <time>2015-11-21T19:50:43Z</time>
      </trkpt>
      <trkpt lat="44.16389" lon="5.02779">
        <ele>480</ele>
        <time>2015-11-21T19:52:43Z</time>
      </trkpt>
      <trkpt lat="44.16387" lon="5.02774">
        <ele>480</ele>
        <time>2015-11-21T19:54:43Z</time>
      </trkpt>
      <trkpt lat="44.1638" lon="5.02757">
        <ele>478</ele>
        <time>2015-11-21T19:56:43Z</time>
      </trkpt>
      <trkpt lat="44.16377" lon="5.0275">
        <ele>478</ele>
        <time>2015-11-21T19:58:43Z</time>
      </trkpt>
      <trkpt lat="44.16372" lon="5.02743">
        <ele>476</ele>
        <time>2015-11-21T20:00:43Z</time>
      </trkpt>
      <trkpt lat="44.16368" lon="5.02736">
        <ele>475</ele>
        <time>2015-11-21T20:02:43Z</time>
      </trkpt>
      <trkpt lat="44.16359" lon="5.02724">
        <ele>472</ele>
        <time>2015-11-21T20:04:43Z</time>
      </trkpt>
      <trkpt lat="44.16334" lon="5.02695">
        <ele>464</ele>
        <time>2015-11-21T20:06:43Z</time>
      </trkpt>
      <trkpt lat="44.1632" lon="5.02676">
        <ele>460</ele>
        <time>2015-11-21T20:08:43Z</time>
      </trkpt>
      <trkpt lat="44.16317" lon="5.02674">
        <ele>459</ele>
        <time>2015-11-21T20:10:43Z</time>
      </trkpt>
      <trkpt lat="44.16315" lon="5.02672">
        <ele>458</ele>
        <time>2015-11-21T20:12:43Z</time>
      </trkpt>
      <trkpt lat="44.16312" lon="5.02671">
        <ele>457</ele>
        <time>2015-11-21T20:14:43Z</time>
      </trkpt>
      <trkpt lat="44.16309" lon="5.02671">
        <ele>456</ele>
        <time>2015-11-21T20:16:43Z</time>
      </trkpt>
      <trkpt lat="44.16304" lon="5.02671">
        <ele>454</ele>
        <time>2015-11-21T20:18:43Z</time>
      </trkpt>
      <trkpt lat="44.16285" lon="5.02677">
        <ele>446</ele>
        <time>2015-11-21T20:20:43Z</time>
      </trkpt>
      <trkpt lat="44.16279" lon="5.02678">
        <ele>444</ele>
        <time>2015-11-21T20:22:43Z</time>
      </trkpt>
      <trkpt lat="44.16265" lon="5.02678">
        <ele>438</ele>
        <time>2015-11-21T20:24:43Z</time>
      </trkpt>
      <trkpt lat="44.16255" lon="5.02679">
        <ele>434</ele>
        <time>2015-11-21T20:26:43Z</time>
      </trkpt>
      <trkpt lat="44.16251" lon="5.0268">
        <ele>433</ele>
        <time>2015-11-21T20:28:43Z</time>
      </trkpt>
      <trkpt lat="44.16247" lon="5.02682">
        <ele>431</ele>
        <time>2015-11-21T20:30:43Z</time>
      </trkpt>
      <trkpt lat="44.16235" lon="5.02687">
        <ele>428</ele>
        <time>2015-11-21T20:32:43Z</time>
      </trkpt>
      <trkpt lat="44.16218" lon="5.02695">
        <ele>422</ele>
        <time>2015-11-21T20:34:43Z</time>
      </trkpt>
      <trkpt lat="44.16213" lon="5.02697">
        <ele>421</ele>
        <time>2015-11-21T20:36:43Z</time>
      </trkpt>
      <trkpt lat="44.16211" lon="5.02698">
        <ele>420</ele>
        <time>2015-11-21T20:38:43Z</time>
      </trkpt>
      <trkpt lat="44.16206" lon="5.027">
        <ele>418</ele>
        <time>2015-11-21T20:40:43Z</time>
      </trkpt>
      <trkpt lat="44.16203" lon="5.02701">
        <ele>417</ele>
        <time>2015-11-21T20:42:43Z</time>
      </trkpt>
      <trkpt lat="44.162" lon="5.02702">
        <ele>416</ele>
        <time>2015-11-21T20:44:43Z</time>
      </trkpt>
      <trkpt lat="44.16198" lon="5.02703">
        <ele>415</ele>
        <time>2015-11-21T20:46:43Z</time>
      </trkpt>
      <trkpt lat="44.16193" lon="5.02707">
        <ele>413</ele>
        <time>2015-11-21T20:48:43Z</time>
      </trkpt>
      <trkpt lat="44.1619" lon="5.02712">
        <ele>411</ele>
        <time>2015-11-21T20:50:43Z</time>
      </trkpt>
      <trkpt lat="44.16187" lon="5.02718">
        <ele>408</ele>
        <time>2015-11-21T20:52:43Z</time>
      </trkpt>
      <trkpt lat="44.16182" lon="5.02727">
        <ele>404</ele>
        <time>2015-11-21T20:54:43Z</time>
      </trkpt>
      <trkpt lat="44.16178" lon="5.02737">
        <ele>400</ele>
        <time>2015-11-21T20:56:43Z</time>
      </trkpt>
      <trkpt lat="44.16174" lon="5.02744">
        <ele>397</ele>
        <time>2015-11-21T20:58:43Z</time>
      </trkpt>
      <trkpt lat="44.1617" lon="5.02748">
        <ele>394</ele>
        <time>2015-11-21T21:00:43Z</time>
      </trkpt>
      <trkpt lat="44.16167" lon="5.0275">
        <ele>392</ele>
        <time>2015-11-21T21:02:43Z</time>
      </trkpt>
      <trkpt lat="44.16164" lon="5.02752">
        <ele>391</ele>
        <time>2015-11-21T21:04:43Z</time>
      </trkpt>
      <trkpt lat="44.1616" lon="5.02753">
        <ele>390</ele>
        <time>2015-11-21T21:06:43Z</time>
      </trkpt>
      <trkpt lat="44.16157" lon="5.02754">
        <ele>390</ele>
        <time>2015-11-21T21:08:43Z</time>
      </trkpt>
      <trkpt lat="44.1615" lon="5.02753">
        <ele>389</ele>
        <time>2015-11-21T21:10:43Z</time>
      </trkpt>
      <trkpt lat="44.16142" lon="5.0275">
        <ele>388</ele>
        <time>2015-11-21T21:12:43Z</time>
      </trkpt>
      <trkpt lat="44.16134" lon="5.02747">
        <ele>388</ele>
        <time>2015-11-21T21:14:43Z</time>
      </trkpt>
      <trkpt lat="44.1613" lon="5.02746">
        <ele>387</ele>
        <time>2015-11-21T21:16:43Z</time>
      </trkpt>
      <trkpt lat="44.16126" lon="5.02744">
        <ele>387</ele>
        <time>2015-11-21T21:18:43Z</time>
      </trkpt>
      <trkpt lat="44.16117" lon="5.02742">
        <ele>387</ele>
        <time>2015-11-21T21:20:43Z</time>
      </trkpt>
      <trkpt lat="44.16113" lon="5.02741">
        <ele>386</ele>
        <time>2015-11-21T21:22:43Z</time>
      </trkpt>
      <trkpt lat="44.16106" lon="5.02741">
        <ele>385</ele>
        <time>2015-11-21T21:24:43Z</time>
      </trkpt>
      <trkpt lat="44.16099" lon="5.02739">
        <ele>384</ele>
        <time>2015-11-21T21:26:43Z</time>
      </trkpt>
      <trkpt lat="44.16096" lon="5.02737">
        <ele>385</ele>
        <time>2015-11-21T21:28:43Z</time>
      </trkpt>
      <trkpt lat="44.16092" lon="5.02734">
        <ele>385</ele>
        <time>2015-11-21T21:30:43Z</time>
      </trkpt>
      <trkpt lat="44.16085" lon="5.02729">
        <ele>385</ele>
        <time>2015-11-21T21:32:43Z</time>
      </trkpt>
      <trkpt lat="44.16079" lon="5.02723">
        <ele>386</ele>
        <time>2015-11-21T21:34:43Z</time>
      </trkpt>
      <trkpt lat="44.16072" lon="5.02716">
        <ele>387</ele>
        <time>2015-11-21T21:36:43Z</time>
      </trkpt>
      <trkpt lat="44.16061" lon="5.02706">
        <ele>388</ele>
        <time>2015-11-21T21:38:43Z</time>
      </trkpt>
      <trkpt lat="44.16046" lon="5.02694">
        <ele>388</ele>
        <time>2015-11-21T21:40:43Z</time>
      </trkpt>
      <trkpt lat="44.16043" lon="5.02691">
        <ele>388</ele>
        <time>2015-11-21T21:42:43Z</time>
      </trkpt>
      <trkpt lat="44.16037" lon="5.02686">
        <ele>389</ele>
        <time>2015-11-21T21:44:43Z</time>
      </trkpt>
      <trkpt lat="44.16034" lon="5.02684">
        <ele>389</ele>
        <time>2015-11-21T21:46:43Z</time>
      </trkpt>
      <trkpt lat="44.16023" lon="5.02674">
        <ele>389</ele>
        <time>2015-11-21T21:48:43Z</time>
      </trkpt>
      <trkpt lat="44.16006" lon="5.02656">
        <ele>390</ele>
        <time>2015-11-21T21:50:43Z</time>
      </trkpt>
      <trkpt lat="44.16004" lon="5.02653">
        <ele>390</ele>
        <time>2015-11-21T21:52:43Z</time>
      </trkpt>
      <trkpt lat="44.16002" lon="5.0265">
        <ele>390</ele>
        <time>2015-11-21T21:54:43Z</time>
      </trkpt>
      <trkpt lat="44.16" lon="5.02647">
        <ele>390</ele>
        <time>2015-11-21T21:56:43Z</time>
      </trkpt>
      <trkpt lat="44.15985" lon="5.0263">
        <ele>394</ele>
        <time>2015-11-21T21:58:43Z</time>
      </trkpt>
      <trkpt lat="44.15971" lon="5.02615">
        <ele>397</ele>
        <time>2015-11-21T22:00:43Z</time>
      </trkpt>
      <trkpt lat="44.15968" lon="5.02612">
        <ele>397</ele>
        <time>2015-11-21T22:02:43Z</time>
      </trkpt>
      <trkpt lat="44.15958" lon="5.02602">
        <ele>398</ele>
        <time>2015-11-21T22:04:43Z</time>
      </trkpt>
      <trkpt lat="44.1595" lon="5.02592">
        <ele>399</ele>
        <time>2015-11-21T22:06:43Z</time>
      </trkpt>
      <trkpt lat="44.15943" lon="5.02582">
        <ele>399</ele>
        <time>2015-11-21T22:08:43Z</time>
      </trkpt>
      <trkpt lat="44.15939" lon="5.02575">
        <ele>400</ele>
        <time>2015-11-21T22:10:43Z</time>
      </trkpt>
      <trkpt lat="44.15931" lon="5.02561">
        <ele>400</ele>
        <time>2015-11-21T22:12:43Z</time>
      </trkpt>
      <trkpt lat="44.15921" lon="5.0254">
        <ele>400</ele>
        <time>2015-11-21T22:14:43Z</time>
      </trkpt>
      <trkpt lat="44.15919" lon="5.02535">
        <ele>399</ele>
        <time>2015-11-21T22:16:43Z</time>
      </trkpt>
      <trkpt lat="44.15899" lon="5.02487">
        <ele>404</ele>
        <time>2015-11-21T22:18:43Z</time>
      </trkpt>
      <trkpt lat="44.15889" lon="5.02467">
        <ele>406</ele>
        <time>2015-11-21T22:20:43Z</time>
      </trkpt>
      <trkpt lat="44.15887" lon="5.02463">
        <ele>407</ele>
        <time>2015-11-21T22:22:43Z</time>
      </trkpt>
      <trkpt lat="44.15886" lon="5.02459">
        <ele>407</ele>
        <time>2015-11-21T22:24:43Z</time>
      </trkpt>
      <trkpt lat="44.15884" lon="5.02456">
        <ele>407</ele>
        <time>2015-11-21T22:26:43Z</time>
      </trkpt>
      <trkpt lat="44.15882" lon="5.02453">
        <ele>408</ele>
        <time>2015-11-21T22:28:43Z</time>
      </trkpt>
      <trkpt lat="44.15867" lon="5.02428">
        <ele>410</ele>
        <time>2015-11-21T22:30:43Z</time>
      </trkpt>
      <trkpt lat="44.15855" lon="5.02409">
        <ele>410</ele>
        <time>2015-11-21T22:32:43Z</time>
      </trkpt>
      <trkpt lat="44.15853" lon="5.02405">
        <ele>410</ele>
        <time>2015-11-21T22:34:43Z</time>
      </trkpt>
      <trkpt lat="44.15851" lon="5.02402">
        <ele>409</ele>
        <time>2015-11-21T22:36:43Z</time>
      </trkpt>
      <trkpt lat="44.15846" lon="5.02395">
        <ele>409</ele>
        <time>2015-11-21T22:38:43Z</time>
      </trkpt>
      <trkpt lat="44.15844" lon="5.02391">
        <ele>409</ele>
        <time>2015-11-21T22:40:43Z</time>
      </trkpt>
      <trkpt lat="44.15835" lon="5.02375">
        <ele>407</ele>
        <time>2015-11-21T22:42:43Z</time>
      </trkpt>
      <trkpt lat="44.15829" lon="5.02363">
        <ele>407</ele>
        <time>2015-11-21T22:44:43Z</time>
      </trkpt>
      <trkpt lat="44.15826" lon="5.02356">
        <ele>408</ele>
        <time>2015-11-21T22:46:43Z</time>
      </trkpt>
      <trkpt lat="44.15823" lon="5.02348">
        <ele>408</ele>
        <time>2015-11-21T22:48:43Z</time>
      </trkpt>
      <trkpt lat="44.1582" lon="5.02336">
        <ele>407</ele>
        <time>2015-11-21T22:50:43Z</time>
      </trkpt>
      <trkpt lat="44.15817" lon="5.02325">
        <ele>408</ele>
        <time>2015-11-21T22:52:43Z</time>
      </trkpt>
      <trkpt lat="44.15815" lon="5.02309">
        <ele>407</ele>
        <time>2015-11-21T22:54:43Z</time>
      </trkpt>
      <trkpt lat="44.15813" lon="5.02292">
        <ele>407</ele>
        <time>2015-11-21T22:56:43Z</time>
      </trkpt>
      <trkpt lat="44.15812" lon="5.02284">
        <ele>407</ele>
        <time>2015-11-21T22:58:43Z</time>
      </trkpt>
      <trkpt lat="44.15809" lon="5.02256">
        <ele>407</ele>
        <time>2015-11-21T23:00:43Z</time>
      </trkpt>
      <trkpt lat="44.15808" lon="5.02252">
        <ele>407</ele>
        <time>2015-11-21T23:02:43Z</time>
      </trkpt>
      <trkpt lat="44.15808" lon="5.02247">
        <ele>407</ele>
        <time>2015-11-21T23:04:43Z</time>
      </trkpt>
      <trkpt lat="44.15805" lon="5.02231">
        <ele>407</ele>
        <time>2015-11-21T23:06:43Z</time>
      </trkpt>
      <trkpt lat="44.15802" lon="5.02216">
        <ele>407</ele>
        <time>2015-11-21T23:08:43Z</time>
      </trkpt>
      <trkpt lat="44.15798" lon="5.02202">
        <ele>407</ele>
        <time>2015-11-21T23:10:43Z</time>
      </trkpt>
      <trkpt lat="44.15794" lon="5.0219">
        <ele>407</ele>
        <time>2015-11-21T23:12:43Z</time>
      </trkpt>
      <trkpt lat="44.15789" lon="5.02178">
        <ele>408</ele>
        <time>2015-11-21T23:14:43Z</time>
      </trkpt>
      <trkpt lat="44.15784" lon="5.02167">
        <ele>409</ele>
        <time>2015-11-21T23:16:43Z</time>
      </trkpt>
      <trkpt lat="44.15775" lon="5.02152">
        <ele>409</ele>
        <time>2015-11-21T23:18:43Z</time>
      </trkpt>
      <trkpt lat="44.15769" lon="5.02142">
        <ele>409</ele>
        <time>2015-11-21T23:20:43Z</time>
      </trkpt>
      <trkpt lat="44.15752" lon="5.02117">
        <ele>409</ele>
        <time>2015-11-21T23:22:43Z</time>
      </trkpt>
      <trkpt lat="44.15733" lon="5.02092">
        <ele>414</ele>
        <time>2015-11-21T23:24:43Z</time>
      </trkpt>
      <trkpt lat="44.15718" lon="5.0207">
        <ele>419</ele>
        <time>2015-11-21T23:26:43Z</time>
      </trkpt>
      <trkpt lat="44.15709" lon="5.02056">
        <ele>422</ele>
        <time>2015-11-21T23:28:43Z</time>
      </trkpt>
      <trkpt lat="44.15705" lon="5.02048">
        <ele>423</ele>
        <time>2015-11-21T23:30:43Z</time>
      </trkpt>
      <trkpt lat="44.15702" lon="5.02041">
        <ele>424</ele>
        <time>2015-11-21T23:32:43Z</time>
      </trkpt>
      <trkpt lat="44.15697" lon="5.02026">
        <ele>426</ele>
        <time>2015-11-21T23:34:43Z</time>
      </trkpt>
      <trkpt lat="44.15693" lon="5.02011">
        <ele>426</ele>
        <time>2015-11-21T23:36:43Z</time>
      </trkpt>
      <trkpt lat="44.15692" lon="5.01999">
        <ele>426</ele>
        <time>2015-11-21T23:38:43Z</time>
      </trkpt>
      <trkpt lat="44.1569" lon="5.01987">
        <ele>426</ele>
        <time>2015-11-21T23:40:43Z</time>
      </trkpt>
      <trkpt lat="44.15689" lon="5.01979">
        <ele>426</ele>
        <time>2015-11-21T23:42:43Z</time>
      </trkpt>
      <trkpt lat="44.15689" lon="5.01974">
        <ele>426</ele>
        <time>2015-11-21T23:44:43Z</time>
      </trkpt>
      <trkpt lat="44.15687" lon="5.01962">
        <ele>427</ele>
        <time>2015-11-21T23:46:43Z</time>
      </trkpt>
      <trkpt lat="44.15686" lon="5.01957">
        <ele>427</ele>
        <time>2015-11-21T23:48:43Z</time>
      </trkpt>
      <trkpt lat="44.15686" lon="5.01952">
        <ele>427</ele>
        <time>2015-11-21T23:50:43Z</time>
      </trkpt>
      <trkpt lat="44.15685" lon="5.01948">
        <ele>427</ele>
        <time>2015-11-21T23:52:43Z</time>
      </trkpt>
      <trkpt lat="44.15684" lon="5.01943">
        <ele>427</ele>
        <time>2015-11-21T23:54:43Z</time>
      </trkpt>
      <trkpt lat="44.1568" lon="5.01926">
        <ele>429</ele>
        <time>2015-11-21T23:56:43Z</time>
      </trkpt>
      <trkpt lat="44.15678" lon="5.01915">
        <ele>429</ele>
        <time>2015-11-21T23:58:43Z</time>
      </trkpt>
      <trkpt lat="44.15677" lon="5.01901">
        <ele>429</ele>
        <time>2015-11-22T00:00:43Z</time>
      </trkpt>
      <trkpt lat="44.15677" lon="5.01891">
        <ele>428</ele>
        <time>2015-11-22T00:02:43Z</time>
      </trkpt>
      <trkpt lat="44.15678" lon="5.01878">
        <ele>427</ele>
        <time>2015-11-22T00:04:43Z</time>
      </trkpt>
      <trkpt lat="44.15682" lon="5.01848">
        <ele>422</ele>
        <time>2015-11-22T00:06:43Z</time>
      </trkpt>
      <trkpt lat="44.15683" lon="5.01829">
        <ele>420</ele>
        <time>2015-11-22T00:08:43Z</time>
      </trkpt>
      <trkpt lat="44.15684" lon="5.0182">
        <ele>419</ele>
        <time>2015-11-22T00:10:43Z</time>
      </trkpt>
      <trkpt lat="44.15684" lon="5.01816">
        <ele>419</ele>
        <time>2015-11-22T00:12:43Z</time>
      </trkpt>
      <trkpt lat="44.15682" lon="5.01809">
        <ele>420</ele>
        <time>2015-11-22T00:14:43Z</time>
      </trkpt>
      <trkpt lat="44.15681" lon="5.01806">
        <ele>420</ele>
        <time>2015-11-22T00:16:43Z</time>
      </trkpt>
      <trkpt lat="44.15678" lon="5.01801">
        <ele>421</ele>
        <time>2015-11-22T00:18:43Z</time>
      </trkpt>
      <trkpt lat="44.15675" lon="5.01796">
        <ele>423</ele>
        <time>2015-11-22T00:20:43Z</time>
      </trkpt>
      <trkpt lat="44.15662" lon="5.01781">
        <ele>430</ele>
        <time>2015-11-22T00:22:43Z</time>
      </trkpt>
      <trkpt lat="44.15658" lon="5.01775">
        <ele>432</ele>
        <time>2015-11-22T00:24:43Z</time>
      </trkpt>
      <trkpt lat="44.15656" lon="5.01771">
        <ele>433</ele>
        <time>2015-11-22T00:26:43Z</time>
      </trkpt>
      <trkpt lat="44.15654" lon="5.01766">
        <ele>434</ele>
        <time>2015-11-22T00:28:43Z</time>
      </trkpt>
      <trkpt lat="44.15653" lon="5.01762">
        <ele>435</ele>
        <time>2015-11-22T00:30:43Z</time>
      </trkpt>
      <trkpt lat="44.15652" lon="5.01757">
        <ele>435</ele>
        <time>2015-11-22T00:32:43Z</time>
      </trkpt>
      <trkpt lat="44.15653" lon="5.01748">
        <ele>434</ele>
        <time>2015-11-22T00:34:43Z</time>
      </trkpt>
      <trkpt lat="44.15653" lon="5.01743">
        <ele>434</ele>
        <time>2015-11-22T00:36:43Z</time>
      </trkpt>
      <trkpt lat="44.15656" lon="5.01734">
        <ele>432</ele>
        <time>2015-11-22T00:38:43Z</time>
      </trkpt>
      <trkpt lat="44.15666" lon="5.01709">
        <ele>424</ele>
        <time>2015-11-22T00:40:43Z</time>
      </trkpt>
      <trkpt lat="44.15668" lon="5.01704">
        <ele>423</ele>
        <time>2015-11-22T00:42:43Z</time>
      </trkpt>
      <trkpt lat="44.1567" lon="5.01699">
        <ele>422</ele>
        <time>2015-11-22T00:44:43Z</time>
      </trkpt>
      <trkpt lat="44.15672" lon="5.01692">
        <ele>420</ele>
        <time>2015-11-22T00:46:43Z</time>
      </trkpt>
      <trkpt lat="44.15673" lon="5.01687">
        <ele>420</ele>
        <time>2015-11-22T00:48:43Z</time>
      </trkpt>
      <trkpt lat="44.15673" lon="5.01681">
        <ele>419</ele>
        <time>2015-11-22T00:50:43Z</time>
      </trkpt>
      <trkpt lat="44.15673" lon="5.01675">
        <ele>419</ele>
        <time>2015-11-22T00:52:43Z</time>
      </trkpt>
      <trkpt lat="44.15673" lon="5.0167">
        <ele>419</ele>
        <time>2015-11-22T00:54:43Z</time>
      </trkpt>
      <trkpt lat="44.15672" lon="5.01664">
        <ele>420</ele>
        <time>2015-11-22T00:56:43Z</time>
      </trkpt>
      <trkpt lat="44.15669" lon="5.01654">
        <ele>421</ele>
        <time>2015-11-22T00:58:43Z</time>
      </trkpt>
      <trkpt lat="44.15658" lon="5.01626">
        <ele>427</ele>
        <time>2015-11-22T01:00:43Z</time>
      </trkpt>
      <trkpt lat="44.15654" lon="5.01613">
        <ele>428</ele>
        <time>2015-11-22T01:02:43Z</time>
      </trkpt>
      <trkpt lat="44.15652" lon="5.01601">
        <ele>429</ele>
        <time>2015-11-22T01:04:43Z</time>
      </trkpt>
      <trkpt lat="44.1565" lon="5.01587">
        <ele>429</ele>
        <time>2015-11-22T01:06:43Z</time>
      </trkpt>
      <trkpt lat="44.15648" lon="5.01569">
        <ele>429</ele>
        <time>2015-11-22T01:08:43Z</time>
      </trkpt>
      <trkpt lat="44.15646" lon="5.01545">
        <ele>429</ele>
        <time>2015-11-22T01:10:43Z</time>
      </trkpt>
      <trkpt lat="44.15645" lon="5.01513">
        <ele>428</ele>
        <time>2015-11-22T01:12:43Z</time>
      </trkpt>
      <trkpt lat="44.15645" lon="5.01509">
        <ele>428</ele>
        <time>2015-11-22T01:14:43Z</time>
      </trkpt>
      <trkpt lat="44.15644" lon="5.015">
        <ele>428</ele>
        <time>2015-11-22T01:16:43Z</time>
      </trkpt>
      <trkpt lat="44.15644" lon="5.01487">
        <ele>429</ele>
        <time>2015-11-22T01:18:43Z</time>
      </trkpt>
      <trkpt lat="44.15643" lon="5.01477">
        <ele>430</ele>
        <time>2015-11-22T01:20:43Z</time>
      </trkpt>
      <trkpt lat="44.15643" lon="5.01472">
        <ele>430</ele>
        <time>2015-11-22T01:22:43Z</time>
      </trkpt>
      <trkpt lat="44.15642" lon="5.01456">
        <ele>432</ele>
        <time>2015-11-22T01:24:43Z</time>
      </trkpt>
      <trkpt lat="44.15641" lon="5.01445">
        <ele>433</ele>
        <time>2015-11-22T01:26:43Z</time>
      </trkpt>
      <trkpt lat="44.15641" lon="5.01425">
        <ele>434</ele>
        <time>2015-11-22T01:28:43Z</time>
      </trkpt>
      <trkpt lat="44.15641" lon="5.01415">
        <ele>435</ele>
        <time>2015-11-22T01:30:43Z</time>
      </trkpt>
      <trkpt lat="44.15642" lon="5.01396">
        <ele>436</ele>
        <time>2015-11-22T01:32:43Z</time>
      </trkpt>
      <trkpt lat="44.15643" lon="5.01387">
        <ele>436</ele>
        <time>2015-11-22T01:34:43Z</time>
      </trkpt>
      <trkpt lat="44.15645" lon="5.01369">
        <ele>436</ele>
        <time>2015-11-22T01:36:43Z</time>
      </trkpt>
      <trkpt lat="44.15648" lon="5.01352">
        <ele>436</ele>
        <time>2015-11-22T01:38:43Z</time>
      </trkpt>
      <trkpt lat="44.15652" lon="5.01335">
        <ele>435</ele>
        <time>2015-11-22T01:40:43Z</time>
      </trkpt>
      <trkpt lat="44.15656" lon="5.01319">
        <ele>435</ele>
        <time>2015-11-22T01:42:43Z</time>
      </trkpt>
      <trkpt lat="44.15662" lon="5.01294">
        <ele>435</ele>
        <time>2015-11-22T01:44:43Z</time>
      </trkpt>
      <trkpt lat="44.15667" lon="5.01278">
        <ele>435</ele>
        <time>2015-11-22T01:46:43Z</time>
      </trkpt>
      <trkpt lat="44.1567" lon="5.01269">
        <ele>436</ele>
        <time>2015-11-22T01:48:43Z</time>
      </trkpt>
      <trkpt lat="44.15672" lon="5.01261">
        <ele>437</ele>
        <time>2015-11-22T01:50:43Z</time>
      </trkpt>
      <trkpt lat="44.15677" lon="5.01243">
        <ele>438</ele>
        <time>2015-11-22T01:52:43Z</time>
      </trkpt>
      <trkpt lat="44.15688" lon="5.01206">
        <ele>439</ele>
        <time>2015-11-22T01:54:43Z</time>
      </trkpt>
      <trkpt lat="44.15696" lon="5.01175">
        <ele>440</ele>
        <time>2015-11-22T01:56:43Z</time>
      </trkpt>
      <trkpt lat="44.15697" lon="5.01169">
        <ele>441</ele>
        <time>2015-11-22T01:58:43Z</time>
      </trkpt>
      <trkpt lat="44.15698" lon="5.01162">
        <ele>441</ele>
        <time>2015-11-22T02:00:43Z</time>
      </trkpt>
      <trkpt lat="44.15698" lon="5.01151">
        <ele>440</ele>
        <time>2015-11-22T02:02:43Z</time>
      </trkpt>
      <trkpt lat="44.15698" lon="5.01145">
        <ele>439</ele>
        <time>2015-11-22T02:04:43Z</time>
      </trkpt>
      <trkpt lat="44.15697" lon="5.0114">
        <ele>439</ele>
        <time>2015-11-22T02:06:43Z</time>
      </trkpt>
      <trkpt lat="44.15694" lon="5.0113">
        <ele>438</ele>
        <time>2015-11-22T02:08:43Z</time>
      </trkpt>
      <trkpt lat="44.1569" lon="5.01121">
        <ele>436</ele>
        <time>2015-11-22T02:10:43Z</time>
      </trkpt>
      <trkpt lat="44.15688" lon="5.01116">
        <ele>436</ele>
        <time>2015-11-22T02:12:43Z</time>
      </trkpt>
      <trkpt lat="44.15685" lon="5.01112">
        <ele>435</ele>
        <time>2015-11-22T02:14:43Z</time>
      </trkpt>
      <trkpt lat="44.15679" lon="5.01104">
        <ele>434</ele>
        <time>2015-11-22T02:16:43Z</time>
      </trkpt>
      <trkpt lat="44.15672" lon="5.01097">
        <ele>433</ele>
        <time>2015-11-22T02:18:43Z</time>
      </trkpt>
      <trkpt lat="44.15665" lon="5.01089">
        <ele>431</ele>
        <time>2015-11-22T02:20:43Z</time>
      </trkpt>
      <trkpt lat="44.15657" lon="5.01083">
        <ele>430</ele>
        <time>2015-11-22T02:22:43Z</time>
      </trkpt>
      <trkpt lat="44.15643" lon="5.01073">
        <ele>427</ele>
        <time>2015-11-22T02:24:43Z</time>
      </trkpt>
      <trkpt lat="44.15616" lon="5.01054">
        <ele>424</ele>
        <time>2015-11-22T02:26:43Z</time>
      </trkpt>
      <trkpt lat="44.15603" lon="5.01044">
        <ele>423</ele>
        <time>2015-11-22T02:28:43Z</time>
      </trkpt>
      <trkpt lat="44.156" lon="5.0104">
        <ele>422</ele>
        <time>2015-11-22T02:30:43Z</time>
      </trkpt>
      <trkpt lat="44.156" lon="5.01036">
        <ele>422</ele>
        <time>2015-11-22T02:32:43Z</time>
      </trkpt>
      <trkpt lat="44.15601" lon="5.01031">
        <ele>421</ele>
        <time>2015-11-22T02:34:43Z</time>
      </trkpt>
      <trkpt lat="44.15603" lon="5.01026">
        <ele>420</ele>
        <time>2015-11-22T02:36:43Z</time>
      </trkpt>
      <trkpt lat="44.15607" lon="5.01021">
        <ele>419</ele>
        <time>2015-11-22T02:38:43Z</time>
      </trkpt>
      <trkpt lat="44.15611" lon="5.01017">
        <ele>417</ele>
        <time>2015-11-22T02:40:43Z</time>
      </trkpt>
      <trkpt lat="44.15615" lon="5.01013">
        <ele>416</ele>
        <time>2015-11-22T02:42:43Z</time>
      </trkpt>
      <trkpt lat="44.15623" lon="5.0101">
        <ele>415</ele>
        <time>2015-11-22T02:44:43Z</time>
      </trkpt>
      <trkpt lat="44.1563" lon="5.01008">
        <ele>414</ele>
        <time>2015-11-22T02:46:43Z</time>
      </trkpt>
      <trkpt lat="44.15636" lon="5.01008">
        <ele>413</ele>
        <time>2015-11-22T02:48:43Z</time>
      </trkpt>
      <trkpt lat="44.15645" lon="5.0101">
        <ele>412</ele>
        <time>2015-11-22T02:50:43Z</time>
      </trkpt>
      <trkpt lat="44.15654" lon="5.01012">
        <ele>412</ele>
        <time>2015-11-22T02:52:43Z</time>
      </trkpt>
      <trkpt lat="44.15668" lon="5.01016">
        <ele>412</ele>
        <time>2015-11-22T02:54:43Z</time>
      </trkpt>
      <trkpt lat="44.15672" lon="5.01017">
        <ele>412</ele>
        <time>2015-11-22T02:56:43Z</time>
      </trkpt>
      <trkpt lat="44.15678" lon="5.01017">
        <ele>413</ele>
        <time>2015-11-22T02:58:43Z</time>
      </trkpt>
      <trkpt lat="44.1568" lon="5.01017">
        <ele>413</ele>
        <time>2015-11-22T03:00:43Z</time>
      </trkpt>
      <trkpt lat="44.15688" lon="5.01015">
        <ele>413</ele>
        <time>2015-11-22T03:02:43Z</time>
      </trkpt>
      <trkpt lat="44.15692" lon="5.01012">
        <ele>413</ele>
        <time>2015-11-22T03:04:43Z</time>
      </trkpt>
      <trkpt lat="44.15696" lon="5.01009">
        <ele>412</ele>
        <time>2015-11-22T03:06:43Z</time>
      </trkpt>
      <trkpt lat="44.157" lon="5.01005">
        <ele>412</ele>
        <time>2015-11-22T03:08:43Z</time>
      </trkpt>
      <trkpt lat="44.15703" lon="5.01">
        <ele>410</ele>
        <time>2015-11-22T03:10:43Z</time>
      </trkpt>
      <trkpt lat="44.15707" lon="5.00995">
        <ele>410</ele>
        <time>2015-11-22T03:12:43Z</time>
      </trkpt>
      <trkpt lat="44.15718" lon="5.00974">
        <ele>405</ele>
        <time>2015-11-22T03:14:43Z</time>
      </trkpt>
      <trkpt lat="44.15723" lon="5.00964">
        <ele>403</ele>
        <time>2015-11-22T03:16:43Z</time>
      </trkpt>
      <trkpt lat="44.15728" lon="5.00955">
        <ele>400</ele>
        <time>2015-11-22T03:18:43Z</time>
      </trkpt>
      <trkpt lat="44.15745" lon="5.0093">
        <ele>391</ele>
        <time>2015-11-22T03:20:43Z</time>
      </trkpt>
      <trkpt lat="44.15757" lon="5.00915">
        <ele>386</ele>
        <time>2015-11-22T03:22:43Z</time>
      </trkpt>
      <trkpt lat="44.15765" lon="5.00905">
        <ele>384</ele>
        <time>2015-11-22T03:24:43Z</time>
      </trkpt>
      <trkpt lat="44.15777" lon="5.00892">
        <ele>381</ele>
        <time>2015-11-22T03:26:43Z</time>
      </trkpt>
      <trkpt lat="44.1578" lon="5.00888">
        <ele>380</ele>
        <time>2015-11-22T03:28:43Z</time>
      </trkpt>
      <trkpt lat="44.15786" lon="5.00883">
        <ele>379</ele>
        <time>2015-11-22T03:30:43Z</time>
      </trkpt>
      <trkpt lat="44.1579" lon="5.00881">
        <ele>379</ele>
        <time>2015-11-22T03:32:43Z</time>
      </trkpt>
      <trkpt lat="44.15799" lon="5.00876">
        <ele>378</ele>
        <time>2015-11-22T03:34:43Z</time>
      </trkpt>
      <trkpt lat="44.15805" lon="5.00874">
        <ele>378</ele>
        <time>2015-11-22T03:36:43Z</time>
      </trkpt>
      <trkpt lat="44.15812" lon="5.00873">
        <ele>377</ele>
        <time>2015-11-22T03:38:43Z</time>
      </trkpt>
      <trkpt lat="44.15819" lon="5.00873">
        <ele>378</ele>
        <time>2015-11-22T03:40:43Z</time>
      </trkpt>
      <trkpt lat="44.15822" lon="5.00874">
        <ele>378</ele>
        <time>2015-11-22T03:42:43Z</time>
      </trkpt>
      <trkpt lat="44.1583" lon="5.00876">
        <ele>379</ele>
        <time>2015-11-22T03:44:43Z</time>
      </trkpt>
      <trkpt lat="44.15839" lon="5.00877">
        <ele>379</ele>
        <time>2015-11-22T03:46:43Z</time>
      </trkpt>
      <trkpt lat="44.15848" lon="5.00878">
        <ele>377</ele>
        <time>2015-11-22T03:48:43Z</time>
      </trkpt>
      <trkpt lat="44.15856" lon="5.00877">
        <ele>375</ele>
        <time>2015-11-22T03:50:43Z</time>
      </trkpt>
      <trkpt lat="44.1586" lon="5.00876">
        <ele>374</ele>
        <time>2015-11-22T03:52:43Z</time>
      </trkpt>
      <trkpt lat="44.15867" lon="5.00874">
        <ele>372</ele>
        <time>2015-11-22T03:54:43Z</time>
      </trkpt>
      <trkpt lat="44.15887" lon="5.00866">
        <ele>367</ele>
        <time>2015-11-22T03:56:43Z</time>
      </trkpt>
      <trkpt lat="44.15894" lon="5.00864">
        <ele>365</ele>
        <time>2015-11-22T03:58:43Z</time>
      </trkpt>
      <trkpt lat="44.159" lon="5.00863">
        <ele>364</ele>
        <time>2015-11-22T04:00:43Z</time>
      </trkpt>
      <trkpt lat="44.15903" lon="5.00863">
        <ele>363</ele>
        <time>2015-11-22T04:02:43Z</time>
      </trkpt>
      <trkpt lat="44.15906" lon="5.00864">
        <ele>363</ele>
        <time>2015-11-22T04:04:43Z</time>
      </trkpt>
      <trkpt lat="44.15909" lon="5.00865">
        <ele>363</ele>
        <time>2015-11-22T04:06:43Z</time>
      </trkpt>
      <trkpt lat="44.15913" lon="5.00871">
        <ele>363</ele>
        <time>2015-11-22T04:08:43Z</time>
      </trkpt>
      <trkpt lat="44.15915" lon="5.00874">
        <ele>364</ele>
        <time>2015-11-22T04:10:43Z</time>
      </trkpt>
      <trkpt lat="44.1592" lon="5.00886">
        <ele>365</ele>
        <time>2015-11-22T04:12:43Z</time>
      </trkpt>
      <trkpt lat="44.15924" lon="5.00895">
        <ele>365</ele>
        <time>2015-11-22T04:14:43Z</time>
      </trkpt>
      <trkpt lat="44.15928" lon="5.00904">
        <ele>366</ele>
        <time>2015-11-22T04:16:43Z</time>
      </trkpt>
      <trkpt lat="44.15933" lon="5.00912">
        <ele>366</ele>
        <time>2015-11-22T04:18:43Z</time>
      </trkpt>
      <trkpt lat="44.15937" lon="5.00913">
        <ele>365</ele>
        <time>2015-11-22T04:20:43Z</time>
      </trkpt>
      <trkpt lat="44.15936" lon="5.00908">
        <ele>364</ele>
        <time>2015-11-22T04:22:43Z</time>
      </trkpt>
      <trkpt lat="44.15936" lon="5.00904">
        <ele>363</ele>
        <time>2015-11-22T04:24:43Z</time>
      </trkpt>
      <trkpt lat="44.15934" lon="5.00894">
        <ele>362</ele>
        <time>2015-11-22T04:26:43Z</time>
      </trkpt>
      <trkpt lat="44.15928" lon="5.00869">
        <ele>358</ele>
        <time>2015-11-22T04:28:43Z</time>
      </trkpt>
      <trkpt lat="44.15924" lon="5.00852">
        <ele>356</ele>
        <time>2015-11-22T04:30:43Z</time>
      </trkpt>
      <trkpt lat="44.15923" lon="5.00845">
        <ele>355</ele>
        <time>2015-11-22T04:32:43Z</time>
      </trkpt>
      <trkpt lat="44.15922" lon="5.0083">
        <ele>352</ele>
        <time>2015-11-22T04:34:43Z</time>
      </trkpt>
      <trkpt lat="44.15922" lon="5.0082">
        <ele>350</ele>
        <time>2015-11-22T04:36:43Z</time>
      </trkpt>
      <trkpt lat="44.15923" lon="5.00806">
        <ele>348</ele>
        <time>2015-11-22T04:38:43Z</time>
      </trkpt>
      <trkpt lat="44.15924" lon="5.00799">
        <ele>346</ele>
        <time>2015-11-22T04:40:43Z</time>
      </trkpt>
      <trkpt lat="44.15929" lon="5.00764">
        <ele>339</ele>
        <time>2015-11-22T04:42:43Z</time>
      </trkpt>
      <trkpt lat="44.1593" lon="5.00756">
        <ele>337</ele>
        <time>2015-11-22T04:44:43Z</time>
      </trkpt>
      <trkpt lat="44.15931" lon="5.00744">
        <ele>335</ele>
        <time>2015-11-22T04:46:43Z</time>
      </trkpt>
      <trkpt lat="44.15932" lon="5.00707">
        <ele>331</ele>
        <time>2015-11-22T04:48:43Z</time>
      </trkpt>
      <trkpt lat="44.15932" lon="5.00696">
        <ele>329</ele>
        <time>2015-11-22T04:50:43Z</time>
      </trkpt>
      <trkpt lat="44.15932" lon="5.00691">
        <ele>329</ele>
        <time>2015-11-22T04:52:43Z</time>
      </trkpt>
      <trkpt lat="44.15933" lon="5.00675">
        <ele>327</ele>
        <time>2015-11-22T04:54:43Z</time>
      </trkpt>
      <trkpt lat="44.15933" lon="5.0067">
        <ele>326</ele>
        <time>2015-11-22T04:56:43Z</time>
      </trkpt>
      <trkpt lat="44.15933" lon="5.00655">
        <ele>324</ele>
        <time>2015-11-22T04:58:43Z</time>
      </trkpt>
      <trkpt lat="44.15934" lon="5.00651">
        <ele>324</ele>
        <time>2015-11-22T05:00:43Z</time>
      </trkpt>
      <trkpt lat="44.15934" lon="5.00631">
        <ele>322</ele>
        <time>2015-11-22T05:02:43Z</time>
      </trkpt>
      <trkpt lat="44.15934" lon="5.00625">
        <ele>321</ele>
        <time>2015-11-22T05:04:43Z</time>
      </trkpt>
      <trkpt lat="44.15935" lon="5.00615">
        <ele>320</ele>
        <time>2015-11-22T05:06:43Z</time>
      </trkpt>
      <trkpt lat="44.15935" lon="5.00609">
        <ele>319</ele>
        <time>2015-11-22T05:08:43Z</time>
      </trkpt>
      <trkpt lat="44.15935" lon="5.00598">
        <ele>318</ele>
        <time>2015-11-22T05:10:43Z</time>
      </trkpt>
      <trkpt lat="44.15935" lon="5.00592">
        <ele>317</ele>
        <time>2015-11-22T05:12:43Z</time>
      </trkpt>
      <trkpt lat="44.15936" lon="5.0058">
        <ele>315</ele>
        <time>2015-11-22T05:14:43Z</time>
      </trkpt>
      <trkpt lat="44.15936" lon="5.00568">
        <ele>314</ele>
        <time>2015-11-22T05:16:43Z</time>
      </trkpt>
      <trkpt lat="44.15936" lon="5.00551">
        <ele>312</ele>
        <time>2015-11-22T05:18:43Z</time>
      </trkpt>
      <trkpt lat="44.15936" lon="5.00544">
        <ele>311</ele>
        <time>2015-11-22T05:20:43Z</time>
      </trkpt>
      <trkpt lat="44.15936" lon="5.0054">
        <ele>311</ele>
        <time>2015-11-22T05:22:43Z</time>
      </trkpt>
      <trkpt lat="44.15936" lon="5.00537">
        <ele>311</ele>
        <time>2015-11-22T05:24:43Z</time>
      </trkpt>
      <trkpt lat="44.15935" lon="5.00526">
        <ele>310</ele>
        <time>2015-11-22T05:26:43Z</time>
      </trkpt>
      <trkpt lat="44.15934" lon="5.00517">
        <ele>309</ele>
        <time>2015-11-22T05:28:43Z</time>
      </trkpt>
      <trkpt lat="44.15934" lon="5.0051">
        <ele>308</ele>
        <time>2015-11-22T05:30:43Z</time>
      </trkpt>
      <trkpt lat="44.15934" lon="5.00507">
        <ele>308</ele>
        <time>2015-11-22T05:32:43Z</time>
      </trkpt>
      <trkpt lat="44.15933" lon="5.00497">
        <ele>307</ele>
        <time>2015-11-22T05:34:43Z</time>
      </trkpt>
      <trkpt lat="44.15933" lon="5.0049">
        <ele>306</ele>
        <time>2015-11-22T05:36:43Z</time>
      </trkpt>
      <trkpt lat="44.15933" lon="5.00477">
        <ele>305</ele>
        <time>2015-11-22T05:38:43Z</time>
      </trkpt>
      <trkpt lat="44.15934" lon="5.00466">
        <ele>304</ele>
        <time>2015-11-22T05:40:43Z</time>
      </trkpt>
      <trkpt lat="44.15937" lon="5.00448">
        <ele>302</ele>
        <time>2015-11-22T05:42:43Z</time>
      </trkpt>
      <trkpt lat="44.15939" lon="5.00438">
        <ele>301</ele>
        <time>2015-11-22T05:44:43Z</time>
      </trkpt>
      <trkpt lat="44.15943" lon="5.00425">
        <ele>299</ele>
        <time>2015-11-22T05:46:43Z</time>
      </trkpt>
      <trkpt lat="44.15949" lon="5.00414">
        <ele>297</ele>
        <time>2015-11-22T05:48:43Z</time>
      </trkpt>
      <trkpt lat="44.15955" lon="5.00404">
        <ele>296</ele>
        <time>2015-11-22T05:50:43Z</time>
      </trkpt>
      <trkpt lat="44.1596" lon="5.00398">
        <ele>295</ele>
        <time>2015-11-22T05:52:43Z</time>
      </trkpt>
      <trkpt lat="44.15964" lon="5.00392">
        <ele>294</ele>
        <time>2015-11-22T05:54:43Z</time>
      </trkpt>
      <trkpt lat="44.15978" lon="5.00378">
        <ele>292</ele>
        <time>2015-11-22T05:56:43Z</time>
      </trkpt>
      <trkpt lat="44.15989" lon="5.00367">
        <ele>290</ele>
        <time>2015-11-22T05:58:43Z</time>
      </trkpt>
      <trkpt lat="44.16001" lon="5.00354">
        <ele>289</ele>
        <time>2015-11-22T06:00:43Z</time>
      </trkpt>
      <trkpt lat="44.16009" lon="5.00343">
        <ele>288</ele>
        <time>2015-11-22T06:02:43Z</time>
      </trkpt>
      <trkpt lat="44.16021" lon="5.00322">
        <ele>288</ele>
        <time>2015-11-22T06:04:43Z</time>
      </trkpt>
      <trkpt lat="44.16024" lon="5.00318">
        <ele>288</ele>
        <time>2015-11-22T06:06:43Z</time>
      </trkpt>
      <trkpt lat="44.16028" lon="5.00316">
        <ele>288</ele>
        <time>2015-11-22T06:08:43Z</time>
      </trkpt>
      <trkpt lat="44.16031" lon="5.00314">
        <ele>288</ele>
        <time>2015-11-22T06:10:43Z</time>
      </trkpt>
      <trkpt lat="44.16036" lon="5.00314">
        <ele>288</ele>
        <time>2015-11-22T06:12:43Z</time>
      </trkpt>
      <trkpt lat="44.1604" lon="5.00315">
        <ele>287</ele>
        <time>2015-11-22T06:14:43Z</time>
      </trkpt>
      <trkpt lat="44.16048" lon="5.00318">
        <ele>287</ele>
        <time>2015-11-22T06:16:43Z</time>
      </trkpt>
      <trkpt lat="44.16058" lon="5.00324">
        <ele>286</ele>
        <time>2015-11-22T06:18:43Z</time>
      </trkpt>
      <trkpt lat="44.16064" lon="5.00329">
        <ele>286</ele>
        <time>2015-11-22T06:20:43Z</time>
      </trkpt>
      <trkpt lat="44.1607" lon="5.00335">
        <ele>285</ele>
        <time>2015-11-22T06:22:43Z</time>
      </trkpt>
      <trkpt lat="44.16077" lon="5.00344">
        <ele>283</ele>
        <time>2015-11-22T06:24:43Z</time>
      </trkpt>
      <trkpt lat="44.16082" lon="5.00351">
        <ele>281</ele>
        <time>2015-11-22T06:26:43Z</time>
      </trkpt>
      <trkpt lat="44.16086" lon="5.00359">
        <ele>280</ele>
        <time>2015-11-22T06:28:43Z</time>
      </trkpt>
      <trkpt lat="44.16088" lon="5.00363">
        <ele>279</ele>
        <time>2015-11-22T06:30:43Z</time>
      </trkpt>
      <trkpt lat="44.16092" lon="5.00371">
        <ele>278</ele>
        <time>2015-11-22T06:32:43Z</time>
      </trkpt>
      <trkpt lat="44.16101" lon="5.00388">
        <ele>275</ele>
        <time>2015-11-22T06:34:43Z</time>
      </trkpt>
      <trkpt lat="44.1611" lon="5.00406">
        <ele>272</ele>
        <time>2015-11-22T06:36:43Z</time>
      </trkpt>
      <trkpt lat="44.16115" lon="5.00415">
        <ele>270</ele>
        <time>2015-11-22T06:38:43Z</time>
      </trkpt>
      <trkpt lat="44.16124" lon="5.00427">
        <ele>269</ele>
        <time>2015-11-22T06:40:43Z</time>
      </trkpt>
      <trkpt lat="44.16129" lon="5.00434">
        <ele>268</ele>
        <time>2015-11-22T06:42:43Z</time>
      </trkpt>
      <trkpt lat="44.16139" lon="5.00445">
        <ele>267</ele>
        <time>2015-11-22T06:44:43Z</time>
      </trkpt>
      <trkpt lat="44.16142" lon="5.00446">
        <ele>266</ele>
        <time>2015-11-22T06:46:43Z</time>
      </trkpt>
      <trkpt lat="44.16144" lon="5.00449">
        <ele>266</ele>
        <time>2015-11-22T06:48:43Z</time>
      </trkpt>
      <trkpt lat="44.16149" lon="5.00452">
        <ele>265</ele>
        <time>2015-11-22T06:50:43Z</time>
      </trkpt>
      <trkpt lat="44.16157" lon="5.00457">
        <ele>264</ele>
        <time>2015-11-22T06:52:43Z</time>
      </trkpt>
      <trkpt lat="44.16176" lon="5.00467">
        <ele>262</ele>
        <time>2015-11-22T06:54:43Z</time>
      </trkpt>
      <trkpt lat="44.16179" lon="5.00468">
        <ele>261</ele>
        <time>2015-11-22T06:56:43Z</time>
      </trkpt>
      <trkpt lat="44.162" lon="5.00479">
        <ele>259</ele>
        <time>2015-11-22T06:58:43Z</time>
      </trkpt>
      <trkpt lat="44.16213" lon="5.00487">
        <ele>258</ele>
        <time>2015-11-22T07:00:43Z</time>
      </trkpt>
      <trkpt lat="44.16216" lon="5.00489">
        <ele>258</ele>
        <time>2015-11-22T07:02:43Z</time>
      </trkpt>
      <trkpt lat="44.16222" lon="5.00492">
        <ele>258</ele>
        <time>2015-11-22T07:04:43Z</time>
      </trkpt>
      <trkpt lat="44.1623" lon="5.00495">
        <ele>257</ele>
        <time>2015-11-22T07:06:43Z</time>
      </trkpt>
      <trkpt lat="44.16235" lon="5.00495">
        <ele>257</ele>
        <time>2015-11-22T07:08:43Z</time>
      </trkpt>
      <trkpt lat="44.16241" lon="5.00496">
        <ele>257</ele>
        <time>2015-11-22T07:10:43Z</time>
      </trkpt>
      <trkpt lat="44.16246" lon="5.00495">
        <ele>257</ele>
        <time>2015-11-22T07:12:43Z</time>
      </trkpt>
      <trkpt lat="44.16256" lon="5.00493">
        <ele>257</ele>
        <time>2015-11-22T07:14:43Z</time>
      </trkpt>
      <trkpt lat="44.16262" lon="5.00491">
        <ele>256</ele>
        <time>2015-11-22T07:16:43Z</time>
      </trkpt>
      <trkpt lat="44.16275" lon="5.00485">
        <ele>255</ele>
        <time>2015-11-22T07:18:43Z</time>
      </trkpt>
      <trkpt lat="44.16281" lon="5.00482">
        <ele>254</ele>
        <time>2015-11-22T07:20:43Z</time>
      </trkpt>
      <trkpt lat="44.16297" lon="5.00475">
        <ele>252</ele>
        <time>2015-11-22T07:22:43Z</time>
      </trkpt>
      <trkpt lat="44.163" lon="5.00474">
        <ele>252</ele>
        <time>2015-11-22T07:24:43Z</time>
      </trkpt>
    </trkseg>
  </trk>
</gpx>